<?xml version="1.0" encoding="UTF-8" standalone="no" ?>
<gpx xmlns="http://www.topografix.com/GPX/1/1" xmlns:xsi="http://www.w3.org/2001/XMLSchema-instance" xsi:schemaLocation="http://www.topografix.com/GPX/1/1 http://www.topografix.com/GPX/1/1/gpx.xsd" version="1.1" creator="VisuGPX - https://www.visugpx.com">
  <metadata>
    <name>326KM 6H00 Ardèche</name>
  </metadata>
  <trk>
    <name><![CDATA[326KM 6H00 Ardèche]]></name>
    <trkseg>
      <trkpt lat="45.3047" lon="4.11494">
        <ele>448.55</ele>
        <time>2022-03-22T14:21:32Z</time>
      </trkpt>
      <trkpt lat="45.30409" lon="4.11518">
        <ele>447.09</ele>
        <time>2022-03-22T14:21:41Z</time>
      </trkpt>
      <trkpt lat="45.30379" lon="4.11527">
        <ele>447.05</ele>
        <time>2022-03-22T14:21:50Z</time>
      </trkpt>
      <trkpt lat="45.3001" lon="4.11546">
        <ele>450.99</ele>
        <time>2022-03-22T14:21:59Z</time>
      </trkpt>
      <trkpt lat="45.29923" lon="4.11564">
        <ele>453.42</ele>
        <time>2022-03-22T14:22:09Z</time>
      </trkpt>
      <trkpt lat="45.29849" lon="4.11587">
        <ele>454.58</ele>
        <time>2022-03-22T14:22:18Z</time>
      </trkpt>
      <trkpt lat="45.29741" lon="4.11615">
        <ele>450.06</ele>
        <time>2022-03-22T14:22:27Z</time>
      </trkpt>
      <trkpt lat="45.29716" lon="4.11626">
        <ele>450.46</ele>
        <time>2022-03-22T14:22:36Z</time>
      </trkpt>
      <trkpt lat="45.29653" lon="4.11672">
        <ele>453.52</ele>
        <time>2022-03-22T14:22:46Z</time>
      </trkpt>
      <trkpt lat="45.29606" lon="4.11702">
        <ele>452.54</ele>
        <time>2022-03-22T14:22:55Z</time>
      </trkpt>
      <trkpt lat="45.29591" lon="4.11717">
        <ele>449.83</ele>
        <time>2022-03-22T14:23:04Z</time>
      </trkpt>
      <trkpt lat="45.29592" lon="4.11737">
        <ele>446.23</ele>
        <time>2022-03-22T14:23:11Z</time>
      </trkpt>
      <trkpt lat="45.29591" lon="4.11891">
        <ele>446.27</ele>
        <time>2022-03-22T14:23:17Z</time>
      </trkpt>
      <trkpt lat="45.29592" lon="4.11961">
        <ele>453.05</ele>
        <time>2022-03-22T14:23:24Z</time>
      </trkpt>
      <trkpt lat="45.29596" lon="4.11987">
        <ele>455</ele>
        <time>2022-03-22T14:23:31Z</time>
      </trkpt>
      <trkpt lat="45.29607" lon="4.12006">
        <ele>456.95</ele>
        <time>2022-03-22T14:23:37Z</time>
      </trkpt>
      <trkpt lat="45.2962" lon="4.12024">
        <ele>457.92</ele>
        <time>2022-03-22T14:23:44Z</time>
      </trkpt>
      <trkpt lat="45.29705" lon="4.12103">
        <ele>462.51</ele>
        <time>2022-03-22T14:23:51Z</time>
      </trkpt>
      <trkpt lat="45.29728" lon="4.12127">
        <ele>464.38</ele>
        <time>2022-03-22T14:23:58Z</time>
      </trkpt>
      <trkpt lat="45.29742" lon="4.12155">
        <ele>466.3</ele>
        <time>2022-03-22T14:24:04Z</time>
      </trkpt>
      <trkpt lat="45.29758" lon="4.12201">
        <ele>466.84</ele>
        <time>2022-03-22T14:24:11Z</time>
      </trkpt>
      <trkpt lat="45.29825" lon="4.12406">
        <ele>471.24</ele>
        <time>2022-03-22T14:24:18Z</time>
      </trkpt>
      <trkpt lat="45.29834" lon="4.1247">
        <ele>473</ele>
        <time>2022-03-22T14:24:24Z</time>
      </trkpt>
      <trkpt lat="45.29813" lon="4.1314">
        <ele>482.19</ele>
        <time>2022-03-22T14:24:31Z</time>
      </trkpt>
      <trkpt lat="45.29807" lon="4.13256">
        <ele>481.92</ele>
        <time>2022-03-22T14:24:38Z</time>
      </trkpt>
      <trkpt lat="45.29802" lon="4.13296">
        <ele>483.15</ele>
        <time>2022-03-22T14:24:44Z</time>
      </trkpt>
      <trkpt lat="45.29791" lon="4.13343">
        <ele>484.57</ele>
        <time>2022-03-22T14:24:51Z</time>
      </trkpt>
      <trkpt lat="45.29775" lon="4.13385">
        <ele>482.54</ele>
        <time>2022-03-22T14:24:58Z</time>
      </trkpt>
      <trkpt lat="45.29756" lon="4.13431">
        <ele>483.94</ele>
        <time>2022-03-22T14:25:04Z</time>
      </trkpt>
      <trkpt lat="45.29733" lon="4.1347">
        <ele>483.76</ele>
        <time>2022-03-22T14:25:11Z</time>
      </trkpt>
      <trkpt lat="45.29712" lon="4.13498">
        <ele>483.79</ele>
        <time>2022-03-22T14:25:18Z</time>
      </trkpt>
      <trkpt lat="45.2948" lon="4.13759">
        <ele>485.6</ele>
        <time>2022-03-22T14:25:24Z</time>
      </trkpt>
      <trkpt lat="45.29455" lon="4.13804">
        <ele>487.29</ele>
        <time>2022-03-22T14:25:31Z</time>
      </trkpt>
      <trkpt lat="45.29421" lon="4.13872">
        <ele>489.66</ele>
        <time>2022-03-22T14:25:38Z</time>
      </trkpt>
      <trkpt lat="45.29316" lon="4.14103">
        <ele>497.44</ele>
        <time>2022-03-22T14:25:44Z</time>
      </trkpt>
      <trkpt lat="45.29199" lon="4.14366">
        <ele>510.3</ele>
        <time>2022-03-22T14:25:51Z</time>
      </trkpt>
      <trkpt lat="45.29187" lon="4.14404">
        <ele>510.65</ele>
        <time>2022-03-22T14:25:58Z</time>
      </trkpt>
      <trkpt lat="45.29178" lon="4.14458">
        <ele>513.42</ele>
        <time>2022-03-22T14:26:05Z</time>
      </trkpt>
      <trkpt lat="45.29176" lon="4.14501">
        <ele>515.39</ele>
        <time>2022-03-22T14:26:11Z</time>
      </trkpt>
      <trkpt lat="45.29177" lon="4.1457">
        <ele>517.51</ele>
        <time>2022-03-22T14:26:18Z</time>
      </trkpt>
      <trkpt lat="45.2918" lon="4.14618">
        <ele>519.93</ele>
        <time>2022-03-22T14:26:25Z</time>
      </trkpt>
      <trkpt lat="45.29179" lon="4.14678">
        <ele>523.88</ele>
        <time>2022-03-22T14:26:31Z</time>
      </trkpt>
      <trkpt lat="45.29173" lon="4.14728">
        <ele>526.7</ele>
        <time>2022-03-22T14:26:38Z</time>
      </trkpt>
      <trkpt lat="45.29165" lon="4.14773">
        <ele>528.19</ele>
        <time>2022-03-22T14:26:45Z</time>
      </trkpt>
      <trkpt lat="45.29152" lon="4.14828">
        <ele>530.53</ele>
        <time>2022-03-22T14:26:51Z</time>
      </trkpt>
      <trkpt lat="45.29049" lon="4.15135">
        <ele>542.21</ele>
        <time>2022-03-22T14:26:58Z</time>
      </trkpt>
      <trkpt lat="45.29001" lon="4.15287">
        <ele>553.34</ele>
        <time>2022-03-22T14:27:05Z</time>
      </trkpt>
      <trkpt lat="45.28981" lon="4.15336">
        <ele>556.26</ele>
        <time>2022-03-22T14:27:11Z</time>
      </trkpt>
      <trkpt lat="45.28965" lon="4.15366">
        <ele>555.13</ele>
        <time>2022-03-22T14:27:18Z</time>
      </trkpt>
      <trkpt lat="45.28939" lon="4.15399">
        <ele>556.33</ele>
        <time>2022-03-22T14:27:25Z</time>
      </trkpt>
      <trkpt lat="45.28908" lon="4.15431">
        <ele>558.12</ele>
        <time>2022-03-22T14:27:31Z</time>
      </trkpt>
      <trkpt lat="45.28881" lon="4.15448">
        <ele>558.67</ele>
        <time>2022-03-22T14:27:38Z</time>
      </trkpt>
      <trkpt lat="45.28845" lon="4.15467">
        <ele>562.05</ele>
        <time>2022-03-22T14:27:45Z</time>
      </trkpt>
      <trkpt lat="45.28799" lon="4.1549">
        <ele>565.94</ele>
        <time>2022-03-22T14:27:51Z</time>
      </trkpt>
      <trkpt lat="45.28785" lon="4.15494">
        <ele>564.88</ele>
        <time>2022-03-22T14:27:58Z</time>
      </trkpt>
      <trkpt lat="45.28778" lon="4.1549">
        <ele>564.71</ele>
        <time>2022-03-22T14:28:02Z</time>
      </trkpt>
      <trkpt lat="45.28769" lon="4.15495">
        <ele>564.06</ele>
        <time>2022-03-22T14:28:06Z</time>
      </trkpt>
      <trkpt lat="45.28764" lon="4.15507">
        <ele>563.11</ele>
        <time>2022-03-22T14:28:10Z</time>
      </trkpt>
      <trkpt lat="45.28754" lon="4.15517">
        <ele>562.42</ele>
        <time>2022-03-22T14:28:14Z</time>
      </trkpt>
      <trkpt lat="45.28721" lon="4.15542">
        <ele>566.77</ele>
        <time>2022-03-22T14:28:18Z</time>
      </trkpt>
      <trkpt lat="45.28581" lon="4.15621">
        <ele>572.09</ele>
        <time>2022-03-22T14:28:22Z</time>
      </trkpt>
      <trkpt lat="45.28473" lon="4.15686">
        <ele>572</ele>
        <time>2022-03-22T14:28:26Z</time>
      </trkpt>
      <trkpt lat="45.28435" lon="4.15712">
        <ele>574.33</ele>
        <time>2022-03-22T14:28:30Z</time>
      </trkpt>
      <trkpt lat="45.28387" lon="4.15752">
        <ele>581</ele>
        <time>2022-03-22T14:28:34Z</time>
      </trkpt>
      <trkpt lat="45.28354" lon="4.15788">
        <ele>580.63</ele>
        <time>2022-03-22T14:28:37Z</time>
      </trkpt>
      <trkpt lat="45.2832" lon="4.15834">
        <ele>583.02</ele>
        <time>2022-03-22T14:28:41Z</time>
      </trkpt>
      <trkpt lat="45.28243" lon="4.15946">
        <ele>590.3</ele>
        <time>2022-03-22T14:28:45Z</time>
      </trkpt>
      <trkpt lat="45.28198" lon="4.16013">
        <ele>594.48</ele>
        <time>2022-03-22T14:28:49Z</time>
      </trkpt>
      <trkpt lat="45.28164" lon="4.16069">
        <ele>599.11</ele>
        <time>2022-03-22T14:28:53Z</time>
      </trkpt>
      <trkpt lat="45.28143" lon="4.16118">
        <ele>601.48</ele>
        <time>2022-03-22T14:28:57Z</time>
      </trkpt>
      <trkpt lat="45.28119" lon="4.16161">
        <ele>603.7</ele>
        <time>2022-03-22T14:29:01Z</time>
      </trkpt>
      <trkpt lat="45.28094" lon="4.16201">
        <ele>604.75</ele>
        <time>2022-03-22T14:29:05Z</time>
      </trkpt>
      <trkpt lat="45.28087" lon="4.16203">
        <ele>605.14</ele>
        <time>2022-03-22T14:29:08Z</time>
      </trkpt>
      <trkpt lat="45.28077" lon="4.16214">
        <ele>606.2</ele>
        <time>2022-03-22T14:29:12Z</time>
      </trkpt>
      <trkpt lat="45.28074" lon="4.16231">
        <ele>606.91</ele>
        <time>2022-03-22T14:29:15Z</time>
      </trkpt>
      <trkpt lat="45.28076" lon="4.16247">
        <ele>607.16</ele>
        <time>2022-03-22T14:29:19Z</time>
      </trkpt>
      <trkpt lat="45.28066" lon="4.16278">
        <ele>607.95</ele>
        <time>2022-03-22T14:29:22Z</time>
      </trkpt>
      <trkpt lat="45.28057" lon="4.16299">
        <ele>606.45</ele>
        <time>2022-03-22T14:29:26Z</time>
      </trkpt>
      <trkpt lat="45.28044" lon="4.16321">
        <ele>605.93</ele>
        <time>2022-03-22T14:29:29Z</time>
      </trkpt>
      <trkpt lat="45.28027" lon="4.16347">
        <ele>606.12</ele>
        <time>2022-03-22T14:29:33Z</time>
      </trkpt>
      <trkpt lat="45.27992" lon="4.16376">
        <ele>606.76</ele>
        <time>2022-03-22T14:29:36Z</time>
      </trkpt>
      <trkpt lat="45.27845" lon="4.16457">
        <ele>608.54</ele>
        <time>2022-03-22T14:29:39Z</time>
      </trkpt>
      <trkpt lat="45.27811" lon="4.16478">
        <ele>608.2</ele>
        <time>2022-03-22T14:29:43Z</time>
      </trkpt>
      <trkpt lat="45.27786" lon="4.16491">
        <ele>608.2</ele>
        <time>2022-03-22T14:29:46Z</time>
      </trkpt>
      <trkpt lat="45.27768" lon="4.16503">
        <ele>607.96</ele>
        <time>2022-03-22T14:29:50Z</time>
      </trkpt>
      <trkpt lat="45.27748" lon="4.16522">
        <ele>607.26</ele>
        <time>2022-03-22T14:29:53Z</time>
      </trkpt>
      <trkpt lat="45.27742" lon="4.16529">
        <ele>606.88</ele>
        <time>2022-03-22T14:29:57Z</time>
      </trkpt>
      <trkpt lat="45.27738" lon="4.16545">
        <ele>605.52</ele>
        <time>2022-03-22T14:30:00Z</time>
      </trkpt>
      <trkpt lat="45.27735" lon="4.16563">
        <ele>604.35</ele>
        <time>2022-03-22T14:30:04Z</time>
      </trkpt>
      <trkpt lat="45.27737" lon="4.16579">
        <ele>604.09</ele>
        <time>2022-03-22T14:30:07Z</time>
      </trkpt>
      <trkpt lat="45.27743" lon="4.16595">
        <ele>604</ele>
        <time>2022-03-22T14:30:11Z</time>
      </trkpt>
      <trkpt lat="45.27756" lon="4.16618">
        <ele>604.05</ele>
        <time>2022-03-22T14:30:14Z</time>
      </trkpt>
      <trkpt lat="45.27805" lon="4.16664">
        <ele>604</ele>
        <time>2022-03-22T14:30:17Z</time>
      </trkpt>
      <trkpt lat="45.27823" lon="4.16688">
        <ele>602.5</ele>
        <time>2022-03-22T14:30:21Z</time>
      </trkpt>
      <trkpt lat="45.27841" lon="4.16719">
        <ele>602.28</ele>
        <time>2022-03-22T14:30:24Z</time>
      </trkpt>
      <trkpt lat="45.27857" lon="4.16762">
        <ele>603.77</ele>
        <time>2022-03-22T14:30:28Z</time>
      </trkpt>
      <trkpt lat="45.2787" lon="4.16811">
        <ele>605.22</ele>
        <time>2022-03-22T14:30:31Z</time>
      </trkpt>
      <trkpt lat="45.27891" lon="4.16878">
        <ele>611.12</ele>
        <time>2022-03-22T14:30:35Z</time>
      </trkpt>
      <trkpt lat="45.2807" lon="4.17575">
        <ele>644.93</ele>
        <time>2022-03-22T14:30:38Z</time>
      </trkpt>
      <trkpt lat="45.28099" lon="4.17685">
        <ele>646.65</ele>
        <time>2022-03-22T14:30:42Z</time>
      </trkpt>
      <trkpt lat="45.28135" lon="4.17798">
        <ele>649.49</ele>
        <time>2022-03-22T14:30:45Z</time>
      </trkpt>
      <trkpt lat="45.28148" lon="4.17849">
        <ele>650.36</ele>
        <time>2022-03-22T14:30:47Z</time>
      </trkpt>
      <trkpt lat="45.28192" lon="4.17967">
        <ele>650.58</ele>
        <time>2022-03-22T14:30:49Z</time>
      </trkpt>
      <trkpt lat="45.28203" lon="4.18001">
        <ele>650.8</ele>
        <time>2022-03-22T14:30:50Z</time>
      </trkpt>
      <trkpt lat="45.28208" lon="4.1803">
        <ele>652.74</ele>
        <time>2022-03-22T14:30:52Z</time>
      </trkpt>
      <trkpt lat="45.2821" lon="4.18059">
        <ele>655.13</ele>
        <time>2022-03-22T14:30:54Z</time>
      </trkpt>
      <trkpt lat="45.28209" lon="4.18072">
        <ele>656.47</ele>
        <time>2022-03-22T14:30:56Z</time>
      </trkpt>
      <trkpt lat="45.28204" lon="4.18084">
        <ele>657.68</ele>
        <time>2022-03-22T14:30:58Z</time>
      </trkpt>
      <trkpt lat="45.28195" lon="4.18088">
        <ele>658.16</ele>
        <time>2022-03-22T14:31:01Z</time>
      </trkpt>
      <trkpt lat="45.28191" lon="4.18096">
        <ele>658.58</ele>
        <time>2022-03-22T14:31:04Z</time>
      </trkpt>
      <trkpt lat="45.28188" lon="4.18105">
        <ele>658.99</ele>
        <time>2022-03-22T14:31:07Z</time>
      </trkpt>
      <trkpt lat="45.28189" lon="4.18114">
        <ele>659.44</ele>
        <time>2022-03-22T14:31:10Z</time>
      </trkpt>
      <trkpt lat="45.28191" lon="4.18123">
        <ele>659.97</ele>
        <time>2022-03-22T14:31:14Z</time>
      </trkpt>
      <trkpt lat="45.2819" lon="4.18138">
        <ele>661.1</ele>
        <time>2022-03-22T14:31:17Z</time>
      </trkpt>
      <trkpt lat="45.28185" lon="4.18152">
        <ele>662.3</ele>
        <time>2022-03-22T14:31:20Z</time>
      </trkpt>
      <trkpt lat="45.28148" lon="4.18208">
        <ele>667.51</ele>
        <time>2022-03-22T14:31:23Z</time>
      </trkpt>
      <trkpt lat="45.28112" lon="4.18242">
        <ele>671.38</ele>
        <time>2022-03-22T14:31:26Z</time>
      </trkpt>
      <trkpt lat="45.28091" lon="4.18258">
        <ele>672.28</ele>
        <time>2022-03-22T14:31:29Z</time>
      </trkpt>
      <trkpt lat="45.28073" lon="4.18268">
        <ele>672.52</ele>
        <time>2022-03-22T14:31:33Z</time>
      </trkpt>
      <trkpt lat="45.2805" lon="4.18277">
        <ele>672.92</ele>
        <time>2022-03-22T14:31:36Z</time>
      </trkpt>
      <trkpt lat="45.27996" lon="4.18287">
        <ele>675.23</ele>
        <time>2022-03-22T14:31:39Z</time>
      </trkpt>
      <trkpt lat="45.27935" lon="4.18292">
        <ele>680.4</ele>
        <time>2022-03-22T14:31:42Z</time>
      </trkpt>
      <trkpt lat="45.27666" lon="4.18298">
        <ele>697.04</ele>
        <time>2022-03-22T14:31:45Z</time>
      </trkpt>
      <trkpt lat="45.27621" lon="4.18305">
        <ele>699.64</ele>
        <time>2022-03-22T14:31:48Z</time>
      </trkpt>
      <trkpt lat="45.27603" lon="4.1831">
        <ele>700</ele>
        <time>2022-03-22T14:31:52Z</time>
      </trkpt>
      <trkpt lat="45.27563" lon="4.18328">
        <ele>701.95</ele>
        <time>2022-03-22T14:31:55Z</time>
      </trkpt>
      <trkpt lat="45.2753" lon="4.18347">
        <ele>703.45</ele>
        <time>2022-03-22T14:31:58Z</time>
      </trkpt>
      <trkpt lat="45.27501" lon="4.18373">
        <ele>705.82</ele>
        <time>2022-03-22T14:32:01Z</time>
      </trkpt>
      <trkpt lat="45.27474" lon="4.18402">
        <ele>707.5</ele>
        <time>2022-03-22T14:32:04Z</time>
      </trkpt>
      <trkpt lat="45.27449" lon="4.18445">
        <ele>710.56</ele>
        <time>2022-03-22T14:32:08Z</time>
      </trkpt>
      <trkpt lat="45.27436" lon="4.18477">
        <ele>712.37</ele>
        <time>2022-03-22T14:32:11Z</time>
      </trkpt>
      <trkpt lat="45.27424" lon="4.18506">
        <ele>713.2</ele>
        <time>2022-03-22T14:32:14Z</time>
      </trkpt>
      <trkpt lat="45.27415" lon="4.18533">
        <ele>713.98</ele>
        <time>2022-03-22T14:32:17Z</time>
      </trkpt>
      <trkpt lat="45.27407" lon="4.18565">
        <ele>714.75</ele>
        <time>2022-03-22T14:32:20Z</time>
      </trkpt>
      <trkpt lat="45.27396" lon="4.18612">
        <ele>718.86</ele>
        <time>2022-03-22T14:32:23Z</time>
      </trkpt>
      <trkpt lat="45.27351" lon="4.18903">
        <ele>725.89</ele>
        <time>2022-03-22T14:32:27Z</time>
      </trkpt>
      <trkpt lat="45.27341" lon="4.18941">
        <ele>727.29</ele>
        <time>2022-03-22T14:32:30Z</time>
      </trkpt>
      <trkpt lat="45.27327" lon="4.18984">
        <ele>730.16</ele>
        <time>2022-03-22T14:32:33Z</time>
      </trkpt>
      <trkpt lat="45.27295" lon="4.1906">
        <ele>733.76</ele>
        <time>2022-03-22T14:32:36Z</time>
      </trkpt>
      <trkpt lat="45.27218" lon="4.19197">
        <ele>736.05</ele>
        <time>2022-03-22T14:32:39Z</time>
      </trkpt>
      <trkpt lat="45.27147" lon="4.19327">
        <ele>733.93</ele>
        <time>2022-03-22T14:32:42Z</time>
      </trkpt>
      <trkpt lat="45.27065" lon="4.19472">
        <ele>727.04</ele>
        <time>2022-03-22T14:32:46Z</time>
      </trkpt>
      <trkpt lat="45.27042" lon="4.19505">
        <ele>726.02</ele>
        <time>2022-03-22T14:32:49Z</time>
      </trkpt>
      <trkpt lat="45.27006" lon="4.19541">
        <ele>725.1</ele>
        <time>2022-03-22T14:32:52Z</time>
      </trkpt>
      <trkpt lat="45.26962" lon="4.19572">
        <ele>721.79</ele>
        <time>2022-03-22T14:32:55Z</time>
      </trkpt>
      <trkpt lat="45.26863" lon="4.19651">
        <ele>729.03</ele>
        <time>2022-03-22T14:32:58Z</time>
      </trkpt>
      <trkpt lat="45.26843" lon="4.19671">
        <ele>728.41</ele>
        <time>2022-03-22T14:33:01Z</time>
      </trkpt>
      <trkpt lat="45.26827" lon="4.19692">
        <ele>728.34</ele>
        <time>2022-03-22T14:33:05Z</time>
      </trkpt>
      <trkpt lat="45.268" lon="4.19732">
        <ele>727.1</ele>
        <time>2022-03-22T14:33:08Z</time>
      </trkpt>
      <trkpt lat="45.26741" lon="4.19856">
        <ele>715.99</ele>
        <time>2022-03-22T14:33:11Z</time>
      </trkpt>
      <trkpt lat="45.26726" lon="4.1988">
        <ele>714</ele>
        <time>2022-03-22T14:33:14Z</time>
      </trkpt>
      <trkpt lat="45.26695" lon="4.19917">
        <ele>711.03</ele>
        <time>2022-03-22T14:33:17Z</time>
      </trkpt>
      <trkpt lat="45.26676" lon="4.19934">
        <ele>709.62</ele>
        <time>2022-03-22T14:33:21Z</time>
      </trkpt>
      <trkpt lat="45.26651" lon="4.19951">
        <ele>708.15</ele>
        <time>2022-03-22T14:33:24Z</time>
      </trkpt>
      <trkpt lat="45.26626" lon="4.19964">
        <ele>708.41</ele>
        <time>2022-03-22T14:33:27Z</time>
      </trkpt>
      <trkpt lat="45.266" lon="4.19973">
        <ele>709.82</ele>
        <time>2022-03-22T14:33:30Z</time>
      </trkpt>
      <trkpt lat="45.26574" lon="4.19979">
        <ele>713.12</ele>
        <time>2022-03-22T14:33:33Z</time>
      </trkpt>
      <trkpt lat="45.26553" lon="4.19981">
        <ele>716.66</ele>
        <time>2022-03-22T14:33:36Z</time>
      </trkpt>
      <trkpt lat="45.26531" lon="4.19979">
        <ele>716.93</ele>
        <time>2022-03-22T14:33:40Z</time>
      </trkpt>
      <trkpt lat="45.26428" lon="4.19964">
        <ele>722.03</ele>
        <time>2022-03-22T14:33:43Z</time>
      </trkpt>
      <trkpt lat="45.26356" lon="4.19951">
        <ele>724.07</ele>
        <time>2022-03-22T14:33:46Z</time>
      </trkpt>
      <trkpt lat="45.26175" lon="4.19923">
        <ele>739.93</ele>
        <time>2022-03-22T14:33:49Z</time>
      </trkpt>
      <trkpt lat="45.26097" lon="4.19914">
        <ele>747.25</ele>
        <time>2022-03-22T14:33:52Z</time>
      </trkpt>
      <trkpt lat="45.26076" lon="4.19913">
        <ele>747.55</ele>
        <time>2022-03-22T14:33:55Z</time>
      </trkpt>
      <trkpt lat="45.26059" lon="4.19915">
        <ele>747.74</ele>
        <time>2022-03-22T14:33:59Z</time>
      </trkpt>
      <trkpt lat="45.26009" lon="4.19927">
        <ele>748.36</ele>
        <time>2022-03-22T14:34:02Z</time>
      </trkpt>
      <trkpt lat="45.25984" lon="4.1994">
        <ele>749.77</ele>
        <time>2022-03-22T14:34:05Z</time>
      </trkpt>
      <trkpt lat="45.25949" lon="4.19963">
        <ele>749.26</ele>
        <time>2022-03-22T14:34:08Z</time>
      </trkpt>
      <trkpt lat="45.25895" lon="4.20004">
        <ele>747.86</ele>
        <time>2022-03-22T14:34:11Z</time>
      </trkpt>
      <trkpt lat="45.25837" lon="4.20054">
        <ele>747.19</ele>
        <time>2022-03-22T14:34:15Z</time>
      </trkpt>
      <trkpt lat="45.25821" lon="4.20074">
        <ele>748.12</ele>
        <time>2022-03-22T14:34:18Z</time>
      </trkpt>
      <trkpt lat="45.25804" lon="4.20101">
        <ele>749.68</ele>
        <time>2022-03-22T14:34:21Z</time>
      </trkpt>
      <trkpt lat="45.25779" lon="4.20149">
        <ele>751.68</ele>
        <time>2022-03-22T14:34:24Z</time>
      </trkpt>
      <trkpt lat="45.25771" lon="4.20171">
        <ele>752.79</ele>
        <time>2022-03-22T14:34:27Z</time>
      </trkpt>
      <trkpt lat="45.25757" lon="4.20222">
        <ele>750.55</ele>
        <time>2022-03-22T14:34:30Z</time>
      </trkpt>
      <trkpt lat="45.25732" lon="4.20366">
        <ele>743.08</ele>
        <time>2022-03-22T14:34:34Z</time>
      </trkpt>
      <trkpt lat="45.25724" lon="4.20408">
        <ele>746.79</ele>
        <time>2022-03-22T14:34:37Z</time>
      </trkpt>
      <trkpt lat="45.25715" lon="4.2044">
        <ele>750.24</ele>
        <time>2022-03-22T14:34:40Z</time>
      </trkpt>
      <trkpt lat="45.25697" lon="4.2049">
        <ele>753.18</ele>
        <time>2022-03-22T14:34:43Z</time>
      </trkpt>
      <trkpt lat="45.25684" lon="4.20515">
        <ele>752.99</ele>
        <time>2022-03-22T14:34:46Z</time>
      </trkpt>
      <trkpt lat="45.25668" lon="4.20541">
        <ele>752.14</ele>
        <time>2022-03-22T14:34:49Z</time>
      </trkpt>
      <trkpt lat="45.25642" lon="4.20574">
        <ele>751.98</ele>
        <time>2022-03-22T14:34:53Z</time>
      </trkpt>
      <trkpt lat="45.2557" lon="4.20647">
        <ele>754.74</ele>
        <time>2022-03-22T14:34:56Z</time>
      </trkpt>
      <trkpt lat="45.25549" lon="4.20675">
        <ele>755.53</ele>
        <time>2022-03-22T14:34:59Z</time>
      </trkpt>
      <trkpt lat="45.25531" lon="4.20702">
        <ele>754.67</ele>
        <time>2022-03-22T14:35:02Z</time>
      </trkpt>
      <trkpt lat="45.25514" lon="4.20737">
        <ele>755.05</ele>
        <time>2022-03-22T14:35:05Z</time>
      </trkpt>
      <trkpt lat="45.25489" lon="4.20796">
        <ele>754.98</ele>
        <time>2022-03-22T14:35:08Z</time>
      </trkpt>
      <trkpt lat="45.25363" lon="4.21113">
        <ele>760.01</ele>
        <time>2022-03-22T14:35:12Z</time>
      </trkpt>
      <trkpt lat="45.25305" lon="4.21259">
        <ele>763.04</ele>
        <time>2022-03-22T14:35:15Z</time>
      </trkpt>
      <trkpt lat="45.2529" lon="4.21289">
        <ele>764.27</ele>
        <time>2022-03-22T14:35:18Z</time>
      </trkpt>
      <trkpt lat="45.25272" lon="4.21322">
        <ele>765.09</ele>
        <time>2022-03-22T14:35:21Z</time>
      </trkpt>
      <trkpt lat="45.25247" lon="4.21359">
        <ele>764.19</ele>
        <time>2022-03-22T14:35:24Z</time>
      </trkpt>
      <trkpt lat="45.25006" lon="4.21668">
        <ele>778.27</ele>
        <time>2022-03-22T14:35:28Z</time>
      </trkpt>
      <trkpt lat="45.2497" lon="4.21717">
        <ele>779.91</ele>
        <time>2022-03-22T14:35:31Z</time>
      </trkpt>
      <trkpt lat="45.2495" lon="4.21747">
        <ele>780.81</ele>
        <time>2022-03-22T14:35:34Z</time>
      </trkpt>
      <trkpt lat="45.24932" lon="4.21784">
        <ele>781</ele>
        <time>2022-03-22T14:35:37Z</time>
      </trkpt>
      <trkpt lat="45.24925" lon="4.21808">
        <ele>780.92</ele>
        <time>2022-03-22T14:35:40Z</time>
      </trkpt>
      <trkpt lat="45.24918" lon="4.21835">
        <ele>779.94</ele>
        <time>2022-03-22T14:35:43Z</time>
      </trkpt>
      <trkpt lat="45.24894" lon="4.21955">
        <ele>777.75</ele>
        <time>2022-03-22T14:35:47Z</time>
      </trkpt>
      <trkpt lat="45.24887" lon="4.21974">
        <ele>777.79</ele>
        <time>2022-03-22T14:35:50Z</time>
      </trkpt>
      <trkpt lat="45.2487" lon="4.2201">
        <ele>776.67</ele>
        <time>2022-03-22T14:35:53Z</time>
      </trkpt>
      <trkpt lat="45.24835" lon="4.2205">
        <ele>776.83</ele>
        <time>2022-03-22T14:35:56Z</time>
      </trkpt>
      <trkpt lat="45.24807" lon="4.22076">
        <ele>776.07</ele>
        <time>2022-03-22T14:35:59Z</time>
      </trkpt>
      <trkpt lat="45.24796" lon="4.22082">
        <ele>776</ele>
        <time>2022-03-22T14:36:02Z</time>
      </trkpt>
      <trkpt lat="45.24771" lon="4.22092">
        <ele>776.24</ele>
        <time>2022-03-22T14:36:06Z</time>
      </trkpt>
      <trkpt lat="45.24764" lon="4.2209">
        <ele>776.49</ele>
        <time>2022-03-22T14:36:11Z</time>
      </trkpt>
      <trkpt lat="45.24757" lon="4.22091">
        <ele>776.75</ele>
        <time>2022-03-22T14:36:17Z</time>
      </trkpt>
      <trkpt lat="45.24751" lon="4.22096">
        <ele>776.95</ele>
        <time>2022-03-22T14:36:22Z</time>
      </trkpt>
      <trkpt lat="45.24747" lon="4.22105">
        <ele>777.19</ele>
        <time>2022-03-22T14:36:27Z</time>
      </trkpt>
      <trkpt lat="45.24746" lon="4.22115">
        <ele>777.31</ele>
        <time>2022-03-22T14:36:33Z</time>
      </trkpt>
      <trkpt lat="45.24747" lon="4.22125">
        <ele>777.19</ele>
        <time>2022-03-22T14:36:38Z</time>
      </trkpt>
      <trkpt lat="45.24755" lon="4.22136">
        <ele>776.98</ele>
        <time>2022-03-22T14:36:44Z</time>
      </trkpt>
      <trkpt lat="45.24766" lon="4.22139">
        <ele>776.99</ele>
        <time>2022-03-22T14:36:49Z</time>
      </trkpt>
      <trkpt lat="45.24771" lon="4.22136">
        <ele>776.93</ele>
        <time>2022-03-22T14:36:55Z</time>
      </trkpt>
      <trkpt lat="45.24779" lon="4.22141">
        <ele>776.94</ele>
        <time>2022-03-22T14:37:00Z</time>
      </trkpt>
      <trkpt lat="45.24787" lon="4.22148">
        <ele>776.78</ele>
        <time>2022-03-22T14:37:06Z</time>
      </trkpt>
      <trkpt lat="45.24802" lon="4.22166">
        <ele>776.88</ele>
        <time>2022-03-22T14:37:11Z</time>
      </trkpt>
      <trkpt lat="45.25107" lon="4.22573">
        <ele>800.41</ele>
        <time>2022-03-22T14:37:17Z</time>
      </trkpt>
      <trkpt lat="45.25135" lon="4.22615">
        <ele>800.56</ele>
        <time>2022-03-22T14:37:22Z</time>
      </trkpt>
      <trkpt lat="45.25156" lon="4.22653">
        <ele>804.16</ele>
        <time>2022-03-22T14:37:27Z</time>
      </trkpt>
      <trkpt lat="45.25181" lon="4.22704">
        <ele>808.49</ele>
        <time>2022-03-22T14:37:33Z</time>
      </trkpt>
      <trkpt lat="45.25206" lon="4.22766">
        <ele>809.75</ele>
        <time>2022-03-22T14:37:38Z</time>
      </trkpt>
      <trkpt lat="45.25224" lon="4.22819">
        <ele>811.03</ele>
        <time>2022-03-22T14:37:44Z</time>
      </trkpt>
      <trkpt lat="45.25349" lon="4.23251">
        <ele>815.02</ele>
        <time>2022-03-22T14:37:49Z</time>
      </trkpt>
      <trkpt lat="45.25401" lon="4.23423">
        <ele>822.35</ele>
        <time>2022-03-22T14:37:55Z</time>
      </trkpt>
      <trkpt lat="45.25432" lon="4.23501">
        <ele>826.14</ele>
        <time>2022-03-22T14:38:00Z</time>
      </trkpt>
      <trkpt lat="45.25449" lon="4.23536">
        <ele>827.36</ele>
        <time>2022-03-22T14:38:06Z</time>
      </trkpt>
      <trkpt lat="45.25472" lon="4.2358">
        <ele>827.87</ele>
        <time>2022-03-22T14:38:11Z</time>
      </trkpt>
      <trkpt lat="45.2551" lon="4.23639">
        <ele>829.31</ele>
        <time>2022-03-22T14:38:17Z</time>
      </trkpt>
      <trkpt lat="45.25606" lon="4.23784">
        <ele>827.37</ele>
        <time>2022-03-22T14:38:22Z</time>
      </trkpt>
      <trkpt lat="45.25642" lon="4.23847">
        <ele>824.77</ele>
        <time>2022-03-22T14:38:27Z</time>
      </trkpt>
      <trkpt lat="45.25658" lon="4.23879">
        <ele>825.07</ele>
        <time>2022-03-22T14:38:33Z</time>
      </trkpt>
      <trkpt lat="45.25684" lon="4.23946">
        <ele>824.37</ele>
        <time>2022-03-22T14:38:38Z</time>
      </trkpt>
      <trkpt lat="45.25706" lon="4.24027">
        <ele>823.41</ele>
        <time>2022-03-22T14:38:44Z</time>
      </trkpt>
      <trkpt lat="45.25712" lon="4.24066">
        <ele>823.73</ele>
        <time>2022-03-22T14:38:49Z</time>
      </trkpt>
      <trkpt lat="45.25719" lon="4.24139">
        <ele>826.63</ele>
        <time>2022-03-22T14:38:55Z</time>
      </trkpt>
      <trkpt lat="45.2572" lon="4.24171">
        <ele>825.88</ele>
        <time>2022-03-22T14:39:00Z</time>
      </trkpt>
      <trkpt lat="45.25718" lon="4.24219">
        <ele>823.01</ele>
        <time>2022-03-22T14:39:06Z</time>
      </trkpt>
      <trkpt lat="45.25716" lon="4.24251">
        <ele>819.71</ele>
        <time>2022-03-22T14:39:11Z</time>
      </trkpt>
      <trkpt lat="45.25712" lon="4.24288">
        <ele>817.1</ele>
        <time>2022-03-22T14:39:17Z</time>
      </trkpt>
      <trkpt lat="45.25704" lon="4.2433">
        <ele>816.25</ele>
        <time>2022-03-22T14:39:22Z</time>
      </trkpt>
      <trkpt lat="45.2568" lon="4.24429">
        <ele>819.21</ele>
        <time>2022-03-22T14:39:27Z</time>
      </trkpt>
      <trkpt lat="45.25668" lon="4.24461">
        <ele>819.63</ele>
        <time>2022-03-22T14:39:33Z</time>
      </trkpt>
      <trkpt lat="45.25658" lon="4.2448">
        <ele>819.35</ele>
        <time>2022-03-22T14:39:38Z</time>
      </trkpt>
      <trkpt lat="45.25651" lon="4.24488">
        <ele>818.83</ele>
        <time>2022-03-22T14:39:43Z</time>
      </trkpt>
      <trkpt lat="45.25648" lon="4.24496">
        <ele>818.68</ele>
        <time>2022-03-22T14:39:48Z</time>
      </trkpt>
      <trkpt lat="45.2565" lon="4.2451">
        <ele>818.44</ele>
        <time>2022-03-22T14:39:53Z</time>
      </trkpt>
      <trkpt lat="45.25653" lon="4.24515">
        <ele>818.46</ele>
        <time>2022-03-22T14:39:58Z</time>
      </trkpt>
      <trkpt lat="45.25652" lon="4.24535">
        <ele>817.81</ele>
        <time>2022-03-22T14:40:03Z</time>
      </trkpt>
      <trkpt lat="45.25644" lon="4.24576">
        <ele>817.04</ele>
        <time>2022-03-22T14:40:09Z</time>
      </trkpt>
      <trkpt lat="45.25575" lon="4.24866">
        <ele>815.18</ele>
        <time>2022-03-22T14:40:14Z</time>
      </trkpt>
      <trkpt lat="45.25538" lon="4.25028">
        <ele>810.07</ele>
        <time>2022-03-22T14:40:19Z</time>
      </trkpt>
      <trkpt lat="45.25481" lon="4.25408">
        <ele>814.35</ele>
        <time>2022-03-22T14:40:24Z</time>
      </trkpt>
      <trkpt lat="45.2548" lon="4.2545">
        <ele>814.75</ele>
        <time>2022-03-22T14:40:29Z</time>
      </trkpt>
      <trkpt lat="45.25482" lon="4.25479">
        <ele>813.4</ele>
        <time>2022-03-22T14:40:34Z</time>
      </trkpt>
      <trkpt lat="45.2549" lon="4.25557">
        <ele>815.35</ele>
        <time>2022-03-22T14:40:39Z</time>
      </trkpt>
      <trkpt lat="45.25496" lon="4.25646">
        <ele>817.27</ele>
        <time>2022-03-22T14:40:44Z</time>
      </trkpt>
      <trkpt lat="45.25497" lon="4.25685">
        <ele>818</ele>
        <time>2022-03-22T14:40:49Z</time>
      </trkpt>
      <trkpt lat="45.25496" lon="4.25722">
        <ele>817</ele>
        <time>2022-03-22T14:40:54Z</time>
      </trkpt>
      <trkpt lat="45.2549" lon="4.25794">
        <ele>819.86</ele>
        <time>2022-03-22T14:40:59Z</time>
      </trkpt>
      <trkpt lat="45.25485" lon="4.25832">
        <ele>821.58</ele>
        <time>2022-03-22T14:41:04Z</time>
      </trkpt>
      <trkpt lat="45.25478" lon="4.25872">
        <ele>822.5</ele>
        <time>2022-03-22T14:41:09Z</time>
      </trkpt>
      <trkpt lat="45.25463" lon="4.25933">
        <ele>825.32</ele>
        <time>2022-03-22T14:41:14Z</time>
      </trkpt>
      <trkpt lat="45.2545" lon="4.25979">
        <ele>825.44</ele>
        <time>2022-03-22T14:41:19Z</time>
      </trkpt>
      <trkpt lat="45.25436" lon="4.26019">
        <ele>827.58</ele>
        <time>2022-03-22T14:41:24Z</time>
      </trkpt>
      <trkpt lat="45.254" lon="4.26106">
        <ele>831</ele>
        <time>2022-03-22T14:41:29Z</time>
      </trkpt>
      <trkpt lat="45.25387" lon="4.26144">
        <ele>829.86</ele>
        <time>2022-03-22T14:41:34Z</time>
      </trkpt>
      <trkpt lat="45.25379" lon="4.26173">
        <ele>829.2</ele>
        <time>2022-03-22T14:41:39Z</time>
      </trkpt>
      <trkpt lat="45.25354" lon="4.26289">
        <ele>830.24</ele>
        <time>2022-03-22T14:41:44Z</time>
      </trkpt>
      <trkpt lat="45.25258" lon="4.26252">
        <ele>831</ele>
        <time>2022-03-22T14:41:56Z</time>
      </trkpt>
      <trkpt lat="45.25228" lon="4.26243">
        <ele>831.99</ele>
        <time>2022-03-22T14:42:02Z</time>
      </trkpt>
      <trkpt lat="45.25215" lon="4.26242">
        <ele>832.47</ele>
        <time>2022-03-22T14:42:09Z</time>
      </trkpt>
      <trkpt lat="45.25147" lon="4.2625">
        <ele>833.98</ele>
        <time>2022-03-22T14:42:16Z</time>
      </trkpt>
      <trkpt lat="45.25114" lon="4.26249">
        <ele>834.84</ele>
        <time>2022-03-22T14:42:22Z</time>
      </trkpt>
      <trkpt lat="45.25005" lon="4.26216">
        <ele>830.93</ele>
        <time>2022-03-22T14:42:29Z</time>
      </trkpt>
      <trkpt lat="45.24915" lon="4.26181">
        <ele>824.94</ele>
        <time>2022-03-22T14:42:36Z</time>
      </trkpt>
      <trkpt lat="45.24891" lon="4.26229">
        <ele>826.3</ele>
        <time>2022-03-22T14:42:40Z</time>
      </trkpt>
      <trkpt lat="45.24872" lon="4.26272">
        <ele>824.89</ele>
        <time>2022-03-22T14:42:43Z</time>
      </trkpt>
      <trkpt lat="45.24853" lon="4.2631">
        <ele>820.02</ele>
        <time>2022-03-22T14:42:47Z</time>
      </trkpt>
      <trkpt lat="45.2484" lon="4.26329">
        <ele>818.52</ele>
        <time>2022-03-22T14:42:51Z</time>
      </trkpt>
      <trkpt lat="45.24817" lon="4.26357">
        <ele>818.01</ele>
        <time>2022-03-22T14:42:55Z</time>
      </trkpt>
      <trkpt lat="45.24753" lon="4.26449">
        <ele>814.23</ele>
        <time>2022-03-22T14:42:58Z</time>
      </trkpt>
      <trkpt lat="45.24716" lon="4.26523">
        <ele>808.95</ele>
        <time>2022-03-22T14:43:02Z</time>
      </trkpt>
      <trkpt lat="45.24707" lon="4.26547">
        <ele>808.15</ele>
        <time>2022-03-22T14:43:06Z</time>
      </trkpt>
      <trkpt lat="45.24697" lon="4.26585">
        <ele>807.9</ele>
        <time>2022-03-22T14:43:09Z</time>
      </trkpt>
      <trkpt lat="45.24664" lon="4.26659">
        <ele>803.18</ele>
        <time>2022-03-22T14:43:13Z</time>
      </trkpt>
      <trkpt lat="45.24648" lon="4.26705">
        <ele>801.25</ele>
        <time>2022-03-22T14:43:17Z</time>
      </trkpt>
      <trkpt lat="45.24644" lon="4.26726">
        <ele>800.15</ele>
        <time>2022-03-22T14:43:21Z</time>
      </trkpt>
      <trkpt lat="45.24645" lon="4.26736">
        <ele>799.57</ele>
        <time>2022-03-22T14:43:24Z</time>
      </trkpt>
      <trkpt lat="45.24652" lon="4.26764">
        <ele>797.6</ele>
        <time>2022-03-22T14:43:28Z</time>
      </trkpt>
      <trkpt lat="45.24652" lon="4.2677">
        <ele>796.88</ele>
        <time>2022-03-22T14:43:32Z</time>
      </trkpt>
      <trkpt lat="45.24647" lon="4.26778">
        <ele>795.08</ele>
        <time>2022-03-22T14:43:36Z</time>
      </trkpt>
      <trkpt lat="45.24636" lon="4.26786">
        <ele>792.66</ele>
        <time>2022-03-22T14:43:39Z</time>
      </trkpt>
      <trkpt lat="45.24629" lon="4.26797">
        <ele>790.84</ele>
        <time>2022-03-22T14:43:43Z</time>
      </trkpt>
      <trkpt lat="45.24626" lon="4.26816">
        <ele>788.17</ele>
        <time>2022-03-22T14:43:47Z</time>
      </trkpt>
      <trkpt lat="45.24611" lon="4.26936">
        <ele>787.5</ele>
        <time>2022-03-22T14:43:50Z</time>
      </trkpt>
      <trkpt lat="45.2461" lon="4.26962">
        <ele>790.19</ele>
        <time>2022-03-22T14:43:54Z</time>
      </trkpt>
      <trkpt lat="45.2461" lon="4.26976">
        <ele>791.11</ele>
        <time>2022-03-22T14:43:58Z</time>
      </trkpt>
      <trkpt lat="45.24623" lon="4.27039">
        <ele>795.07</ele>
        <time>2022-03-22T14:44:02Z</time>
      </trkpt>
      <trkpt lat="45.24627" lon="4.2708">
        <ele>799.08</ele>
        <time>2022-03-22T14:44:05Z</time>
      </trkpt>
      <trkpt lat="45.24631" lon="4.27167">
        <ele>806.32</ele>
        <time>2022-03-22T14:44:09Z</time>
      </trkpt>
      <trkpt lat="45.24631" lon="4.27174">
        <ele>807.03</ele>
        <time>2022-03-22T14:44:13Z</time>
      </trkpt>
      <trkpt lat="45.24629" lon="4.27183">
        <ele>807.95</ele>
        <time>2022-03-22T14:44:17Z</time>
      </trkpt>
      <trkpt lat="45.24617" lon="4.27173">
        <ele>807.31</ele>
        <time>2022-03-22T14:44:21Z</time>
      </trkpt>
      <trkpt lat="45.246" lon="4.27157">
        <ele>806.51</ele>
        <time>2022-03-22T14:44:25Z</time>
      </trkpt>
      <trkpt lat="45.24558" lon="4.27123">
        <ele>801.88</ele>
        <time>2022-03-22T14:44:29Z</time>
      </trkpt>
      <trkpt lat="45.24545" lon="4.27116">
        <ele>800.28</ele>
        <time>2022-03-22T14:44:33Z</time>
      </trkpt>
      <trkpt lat="45.245" lon="4.27102">
        <ele>797.64</ele>
        <time>2022-03-22T14:44:37Z</time>
      </trkpt>
      <trkpt lat="45.24467" lon="4.27095">
        <ele>795.74</ele>
        <time>2022-03-22T14:44:41Z</time>
      </trkpt>
      <trkpt lat="45.24456" lon="4.27094">
        <ele>794.06</ele>
        <time>2022-03-22T14:44:45Z</time>
      </trkpt>
      <trkpt lat="45.24445" lon="4.27096">
        <ele>792.85</ele>
        <time>2022-03-22T14:44:49Z</time>
      </trkpt>
      <trkpt lat="45.24417" lon="4.27109">
        <ele>790.8</ele>
        <time>2022-03-22T14:44:54Z</time>
      </trkpt>
      <trkpt lat="45.24378" lon="4.27135">
        <ele>791.72</ele>
        <time>2022-03-22T14:44:58Z</time>
      </trkpt>
      <trkpt lat="45.24356" lon="4.27151">
        <ele>792.01</ele>
        <time>2022-03-22T14:45:02Z</time>
      </trkpt>
      <trkpt lat="45.24338" lon="4.27169">
        <ele>790.99</ele>
        <time>2022-03-22T14:45:06Z</time>
      </trkpt>
      <trkpt lat="45.24319" lon="4.27197">
        <ele>788.89</ele>
        <time>2022-03-22T14:45:10Z</time>
      </trkpt>
      <trkpt lat="45.24297" lon="4.27239">
        <ele>785.82</ele>
        <time>2022-03-22T14:45:14Z</time>
      </trkpt>
      <trkpt lat="45.24254" lon="4.27315">
        <ele>781.09</ele>
        <time>2022-03-22T14:45:18Z</time>
      </trkpt>
      <trkpt lat="45.24164" lon="4.27471">
        <ele>778.04</ele>
        <time>2022-03-22T14:45:22Z</time>
      </trkpt>
      <trkpt lat="45.24152" lon="4.2749">
        <ele>779.78</ele>
        <time>2022-03-22T14:45:26Z</time>
      </trkpt>
      <trkpt lat="45.24141" lon="4.27502">
        <ele>780.93</ele>
        <time>2022-03-22T14:45:31Z</time>
      </trkpt>
      <trkpt lat="45.24114" lon="4.27518">
        <ele>782.21</ele>
        <time>2022-03-22T14:45:35Z</time>
      </trkpt>
      <trkpt lat="45.23989" lon="4.27566">
        <ele>790.48</ele>
        <time>2022-03-22T14:45:39Z</time>
      </trkpt>
      <trkpt lat="45.23881" lon="4.27604">
        <ele>796.74</ele>
        <time>2022-03-22T14:45:43Z</time>
      </trkpt>
      <trkpt lat="45.23864" lon="4.27613">
        <ele>796.82</ele>
        <time>2022-03-22T14:45:47Z</time>
      </trkpt>
      <trkpt lat="45.23848" lon="4.27626">
        <ele>797.68</ele>
        <time>2022-03-22T14:45:51Z</time>
      </trkpt>
      <trkpt lat="45.23834" lon="4.27642">
        <ele>798.87</ele>
        <time>2022-03-22T14:45:55Z</time>
      </trkpt>
      <trkpt lat="45.23705" lon="4.27823">
        <ele>807.61</ele>
        <time>2022-03-22T14:45:59Z</time>
      </trkpt>
      <trkpt lat="45.23684" lon="4.27845">
        <ele>808.36</ele>
        <time>2022-03-22T14:46:03Z</time>
      </trkpt>
      <trkpt lat="45.23421" lon="4.27955">
        <ele>820.52</ele>
        <time>2022-03-22T14:46:08Z</time>
      </trkpt>
      <trkpt lat="45.23394" lon="4.2797">
        <ele>821.01</ele>
        <time>2022-03-22T14:46:12Z</time>
      </trkpt>
      <trkpt lat="45.23381" lon="4.27979">
        <ele>821.05</ele>
        <time>2022-03-22T14:46:16Z</time>
      </trkpt>
      <trkpt lat="45.23368" lon="4.27993">
        <ele>821.03</ele>
        <time>2022-03-22T14:46:20Z</time>
      </trkpt>
      <trkpt lat="45.23356" lon="4.2801">
        <ele>821.82</ele>
        <time>2022-03-22T14:46:24Z</time>
      </trkpt>
      <trkpt lat="45.23347" lon="4.2803">
        <ele>822.97</ele>
        <time>2022-03-22T14:46:28Z</time>
      </trkpt>
      <trkpt lat="45.23316" lon="4.28112">
        <ele>825.81</ele>
        <time>2022-03-22T14:46:32Z</time>
      </trkpt>
      <trkpt lat="45.23316" lon="4.28112">
        <ele>825.81</ele>
        <time>2022-03-22T14:46:32Z</time>
      </trkpt>
      <trkpt lat="45.23307" lon="4.28135">
        <ele>828.66</ele>
        <time>2022-03-22T14:46:34Z</time>
      </trkpt>
      <trkpt lat="45.23291" lon="4.28168">
        <ele>832.04</ele>
        <time>2022-03-22T14:46:36Z</time>
      </trkpt>
      <trkpt lat="45.23279" lon="4.28191">
        <ele>833.88</ele>
        <time>2022-03-22T14:46:38Z</time>
      </trkpt>
      <trkpt lat="45.22996" lon="4.28555">
        <ele>832.51</ele>
        <time>2022-03-22T14:46:40Z</time>
      </trkpt>
      <trkpt lat="45.2265" lon="4.29008">
        <ele>815.66</ele>
        <time>2022-03-22T14:46:42Z</time>
      </trkpt>
      <trkpt lat="45.22641" lon="4.29019">
        <ele>815.53</ele>
        <time>2022-03-22T14:46:44Z</time>
      </trkpt>
      <trkpt lat="45.22631" lon="4.29027">
        <ele>815.94</ele>
        <time>2022-03-22T14:46:46Z</time>
      </trkpt>
      <trkpt lat="45.22621" lon="4.29032">
        <ele>816.26</ele>
        <time>2022-03-22T14:46:48Z</time>
      </trkpt>
      <trkpt lat="45.2261" lon="4.29034">
        <ele>816.23</ele>
        <time>2022-03-22T14:46:50Z</time>
      </trkpt>
      <trkpt lat="45.226" lon="4.29034">
        <ele>816.13</ele>
        <time>2022-03-22T14:46:52Z</time>
      </trkpt>
      <trkpt lat="45.22578" lon="4.29024">
        <ele>816.16</ele>
        <time>2022-03-22T14:46:54Z</time>
      </trkpt>
      <trkpt lat="45.2256" lon="4.29004">
        <ele>818.13</ele>
        <time>2022-03-22T14:46:56Z</time>
      </trkpt>
      <trkpt lat="45.22553" lon="4.2899">
        <ele>819.95</ele>
        <time>2022-03-22T14:46:58Z</time>
      </trkpt>
      <trkpt lat="45.22547" lon="4.28975">
        <ele>821.76</ele>
        <time>2022-03-22T14:47:00Z</time>
      </trkpt>
      <trkpt lat="45.22536" lon="4.28915">
        <ele>822.86</ele>
        <time>2022-03-22T14:47:02Z</time>
      </trkpt>
      <trkpt lat="45.22525" lon="4.28886">
        <ele>825.44</ele>
        <time>2022-03-22T14:47:04Z</time>
      </trkpt>
      <trkpt lat="45.22517" lon="4.28873">
        <ele>826.59</ele>
        <time>2022-03-22T14:47:06Z</time>
      </trkpt>
      <trkpt lat="45.22498" lon="4.28852">
        <ele>829.52</ele>
        <time>2022-03-22T14:47:08Z</time>
      </trkpt>
      <trkpt lat="45.22478" lon="4.28837">
        <ele>830.53</ele>
        <time>2022-03-22T14:47:10Z</time>
      </trkpt>
      <trkpt lat="45.22438" lon="4.28815">
        <ele>830.99</ele>
        <time>2022-03-22T14:47:12Z</time>
      </trkpt>
      <trkpt lat="45.2242" lon="4.28811">
        <ele>831.46</ele>
        <time>2022-03-22T14:47:14Z</time>
      </trkpt>
      <trkpt lat="45.22322" lon="4.28812">
        <ele>835.22</ele>
        <time>2022-03-22T14:47:16Z</time>
      </trkpt>
      <trkpt lat="45.22302" lon="4.28816">
        <ele>836.41</ele>
        <time>2022-03-22T14:47:18Z</time>
      </trkpt>
      <trkpt lat="45.22287" lon="4.28821">
        <ele>836.5</ele>
        <time>2022-03-22T14:47:20Z</time>
      </trkpt>
      <trkpt lat="45.22273" lon="4.2883">
        <ele>836.24</ele>
        <time>2022-03-22T14:47:22Z</time>
      </trkpt>
      <trkpt lat="45.22259" lon="4.28843">
        <ele>836.03</ele>
        <time>2022-03-22T14:47:24Z</time>
      </trkpt>
      <trkpt lat="45.22244" lon="4.28861">
        <ele>836.32</ele>
        <time>2022-03-22T14:47:26Z</time>
      </trkpt>
      <trkpt lat="45.22207" lon="4.28918">
        <ele>839.37</ele>
        <time>2022-03-22T14:47:28Z</time>
      </trkpt>
      <trkpt lat="45.22199" lon="4.28946">
        <ele>839.41</ele>
        <time>2022-03-22T14:47:30Z</time>
      </trkpt>
      <trkpt lat="45.222" lon="4.28958">
        <ele>838.74</ele>
        <time>2022-03-22T14:47:32Z</time>
      </trkpt>
      <trkpt lat="45.22203" lon="4.2897">
        <ele>838.41</ele>
        <time>2022-03-22T14:47:34Z</time>
      </trkpt>
      <trkpt lat="45.22244" lon="4.29048">
        <ele>838.3</ele>
        <time>2022-03-22T14:47:36Z</time>
      </trkpt>
      <trkpt lat="45.22249" lon="4.29065">
        <ele>839.04</ele>
        <time>2022-03-22T14:47:38Z</time>
      </trkpt>
      <trkpt lat="45.2225" lon="4.2908">
        <ele>839.85</ele>
        <time>2022-03-22T14:47:40Z</time>
      </trkpt>
      <trkpt lat="45.22248" lon="4.29095">
        <ele>839.48</ele>
        <time>2022-03-22T14:47:42Z</time>
      </trkpt>
      <trkpt lat="45.22243" lon="4.29111">
        <ele>838.11</ele>
        <time>2022-03-22T14:47:44Z</time>
      </trkpt>
      <trkpt lat="45.22174" lon="4.2924">
        <ele>830.49</ele>
        <time>2022-03-22T14:47:46Z</time>
      </trkpt>
      <trkpt lat="45.22153" lon="4.29275">
        <ele>825.93</ele>
        <time>2022-03-22T14:47:48Z</time>
      </trkpt>
      <trkpt lat="45.22143" lon="4.29297">
        <ele>823</ele>
        <time>2022-03-22T14:47:50Z</time>
      </trkpt>
      <trkpt lat="45.22136" lon="4.29319">
        <ele>821.01</ele>
        <time>2022-03-22T14:47:53Z</time>
      </trkpt>
      <trkpt lat="45.22133" lon="4.2934">
        <ele>819.65</ele>
        <time>2022-03-22T14:47:55Z</time>
      </trkpt>
      <trkpt lat="45.22132" lon="4.29357">
        <ele>818.93</ele>
        <time>2022-03-22T14:47:57Z</time>
      </trkpt>
      <trkpt lat="45.22139" lon="4.29387">
        <ele>818.1</ele>
        <time>2022-03-22T14:47:59Z</time>
      </trkpt>
      <trkpt lat="45.22174" lon="4.29465">
        <ele>824.56</ele>
        <time>2022-03-22T14:48:01Z</time>
      </trkpt>
      <trkpt lat="45.22175" lon="4.29477">
        <ele>825.88</ele>
        <time>2022-03-22T14:48:03Z</time>
      </trkpt>
      <trkpt lat="45.22174" lon="4.29491">
        <ele>826.77</ele>
        <time>2022-03-22T14:48:05Z</time>
      </trkpt>
      <trkpt lat="45.22167" lon="4.29501">
        <ele>826.18</ele>
        <time>2022-03-22T14:48:07Z</time>
      </trkpt>
      <trkpt lat="45.22156" lon="4.29506">
        <ele>825.13</ele>
        <time>2022-03-22T14:48:09Z</time>
      </trkpt>
      <trkpt lat="45.2211" lon="4.29498">
        <ele>816.48</ele>
        <time>2022-03-22T14:48:11Z</time>
      </trkpt>
      <trkpt lat="45.2208" lon="4.29496">
        <ele>812.68</ele>
        <time>2022-03-22T14:48:13Z</time>
      </trkpt>
      <trkpt lat="45.22055" lon="4.29508">
        <ele>809.71</ele>
        <time>2022-03-22T14:48:15Z</time>
      </trkpt>
      <trkpt lat="45.22038" lon="4.29526">
        <ele>806.79</ele>
        <time>2022-03-22T14:48:17Z</time>
      </trkpt>
      <trkpt lat="45.2198" lon="4.29602">
        <ele>800.64</ele>
        <time>2022-03-22T14:48:19Z</time>
      </trkpt>
      <trkpt lat="45.21972" lon="4.29607">
        <ele>800.51</ele>
        <time>2022-03-22T14:48:21Z</time>
      </trkpt>
      <trkpt lat="45.21966" lon="4.29607">
        <ele>799.4</ele>
        <time>2022-03-22T14:48:23Z</time>
      </trkpt>
      <trkpt lat="45.2196" lon="4.29605">
        <ele>798.05</ele>
        <time>2022-03-22T14:48:25Z</time>
      </trkpt>
      <trkpt lat="45.21955" lon="4.29598">
        <ele>796.46</ele>
        <time>2022-03-22T14:48:27Z</time>
      </trkpt>
      <trkpt lat="45.21953" lon="4.29588">
        <ele>794.98</ele>
        <time>2022-03-22T14:48:29Z</time>
      </trkpt>
      <trkpt lat="45.21953" lon="4.29575">
        <ele>793.42</ele>
        <time>2022-03-22T14:48:31Z</time>
      </trkpt>
      <trkpt lat="45.21969" lon="4.29529">
        <ele>789.85</ele>
        <time>2022-03-22T14:48:33Z</time>
      </trkpt>
      <trkpt lat="45.2197" lon="4.29518">
        <ele>790.12</ele>
        <time>2022-03-22T14:48:35Z</time>
      </trkpt>
      <trkpt lat="45.21966" lon="4.29504">
        <ele>789.97</ele>
        <time>2022-03-22T14:48:37Z</time>
      </trkpt>
      <trkpt lat="45.2196" lon="4.29499">
        <ele>789.34</ele>
        <time>2022-03-22T14:48:39Z</time>
      </trkpt>
      <trkpt lat="45.21952" lon="4.29496">
        <ele>788.36</ele>
        <time>2022-03-22T14:48:41Z</time>
      </trkpt>
      <trkpt lat="45.2192" lon="4.29497">
        <ele>785.52</ele>
        <time>2022-03-22T14:48:43Z</time>
      </trkpt>
      <trkpt lat="45.21898" lon="4.29491">
        <ele>785.98</ele>
        <time>2022-03-22T14:48:45Z</time>
      </trkpt>
      <trkpt lat="45.21871" lon="4.29475">
        <ele>785.75</ele>
        <time>2022-03-22T14:48:47Z</time>
      </trkpt>
      <trkpt lat="45.21833" lon="4.29448">
        <ele>783.72</ele>
        <time>2022-03-22T14:48:49Z</time>
      </trkpt>
      <trkpt lat="45.21814" lon="4.29438">
        <ele>783.14</ele>
        <time>2022-03-22T14:48:51Z</time>
      </trkpt>
      <trkpt lat="45.21767" lon="4.29422">
        <ele>779.86</ele>
        <time>2022-03-22T14:48:53Z</time>
      </trkpt>
      <trkpt lat="45.21754" lon="4.29411">
        <ele>779.91</ele>
        <time>2022-03-22T14:48:55Z</time>
      </trkpt>
      <trkpt lat="45.2174" lon="4.29394">
        <ele>778.84</ele>
        <time>2022-03-22T14:48:57Z</time>
      </trkpt>
      <trkpt lat="45.21732" lon="4.29378">
        <ele>776.06</ele>
        <time>2022-03-22T14:48:59Z</time>
      </trkpt>
      <trkpt lat="45.21728" lon="4.29366">
        <ele>774.08</ele>
        <time>2022-03-22T14:49:01Z</time>
      </trkpt>
      <trkpt lat="45.21726" lon="4.2935">
        <ele>771.36</ele>
        <time>2022-03-22T14:49:03Z</time>
      </trkpt>
      <trkpt lat="45.21729" lon="4.29334">
        <ele>769.54</ele>
        <time>2022-03-22T14:49:05Z</time>
      </trkpt>
      <trkpt lat="45.21736" lon="4.29315">
        <ele>768.95</ele>
        <time>2022-03-22T14:49:07Z</time>
      </trkpt>
      <trkpt lat="45.21762" lon="4.29264">
        <ele>766.86</ele>
        <time>2022-03-22T14:49:09Z</time>
      </trkpt>
      <trkpt lat="45.21772" lon="4.29248">
        <ele>767.23</ele>
        <time>2022-03-22T14:49:11Z</time>
      </trkpt>
      <trkpt lat="45.21783" lon="4.29233">
        <ele>768.22</ele>
        <time>2022-03-22T14:49:13Z</time>
      </trkpt>
      <trkpt lat="45.21806" lon="4.29209">
        <ele>770.02</ele>
        <time>2022-03-22T14:49:15Z</time>
      </trkpt>
      <trkpt lat="45.21809" lon="4.29198">
        <ele>769.59</ele>
        <time>2022-03-22T14:49:17Z</time>
      </trkpt>
      <trkpt lat="45.21809" lon="4.29192">
        <ele>769.61</ele>
        <time>2022-03-22T14:49:19Z</time>
      </trkpt>
      <trkpt lat="45.21807" lon="4.29185">
        <ele>770.09</ele>
        <time>2022-03-22T14:49:21Z</time>
      </trkpt>
      <trkpt lat="45.21801" lon="4.29181">
        <ele>770.15</ele>
        <time>2022-03-22T14:49:23Z</time>
      </trkpt>
      <trkpt lat="45.21794" lon="4.29181">
        <ele>769.66</ele>
        <time>2022-03-22T14:49:25Z</time>
      </trkpt>
      <trkpt lat="45.21671" lon="4.29206">
        <ele>755.69</ele>
        <time>2022-03-22T14:49:27Z</time>
      </trkpt>
      <trkpt lat="45.21644" lon="4.29202">
        <ele>754.37</ele>
        <time>2022-03-22T14:49:29Z</time>
      </trkpt>
      <trkpt lat="45.21581" lon="4.29177">
        <ele>740.36</ele>
        <time>2022-03-22T14:49:31Z</time>
      </trkpt>
      <trkpt lat="45.2157" lon="4.29162">
        <ele>739.65</ele>
        <time>2022-03-22T14:49:33Z</time>
      </trkpt>
      <trkpt lat="45.21564" lon="4.2915">
        <ele>739.43</ele>
        <time>2022-03-22T14:49:35Z</time>
      </trkpt>
      <trkpt lat="45.21555" lon="4.29102">
        <ele>743.03</ele>
        <time>2022-03-22T14:49:37Z</time>
      </trkpt>
      <trkpt lat="45.2155" lon="4.29087">
        <ele>744.54</ele>
        <time>2022-03-22T14:49:39Z</time>
      </trkpt>
      <trkpt lat="45.21542" lon="4.29077">
        <ele>743.34</ele>
        <time>2022-03-22T14:49:41Z</time>
      </trkpt>
      <trkpt lat="45.21532" lon="4.29071">
        <ele>740.75</ele>
        <time>2022-03-22T14:49:43Z</time>
      </trkpt>
      <trkpt lat="45.2152" lon="4.29067">
        <ele>738.44</ele>
        <time>2022-03-22T14:49:45Z</time>
      </trkpt>
      <trkpt lat="45.21513" lon="4.29069">
        <ele>737.3</ele>
        <time>2022-03-22T14:49:47Z</time>
      </trkpt>
      <trkpt lat="45.21483" lon="4.29084">
        <ele>741.47</ele>
        <time>2022-03-22T14:49:49Z</time>
      </trkpt>
      <trkpt lat="45.21468" lon="4.29098">
        <ele>744.07</ele>
        <time>2022-03-22T14:49:51Z</time>
      </trkpt>
      <trkpt lat="45.21463" lon="4.29107">
        <ele>747.26</ele>
        <time>2022-03-22T14:49:53Z</time>
      </trkpt>
      <trkpt lat="45.21458" lon="4.29122">
        <ele>750.72</ele>
        <time>2022-03-22T14:49:55Z</time>
      </trkpt>
      <trkpt lat="45.2144" lon="4.29212">
        <ele>752.3</ele>
        <time>2022-03-22T14:49:57Z</time>
      </trkpt>
      <trkpt lat="45.21427" lon="4.29256">
        <ele>751.7</ele>
        <time>2022-03-22T14:49:59Z</time>
      </trkpt>
      <trkpt lat="45.21418" lon="4.29272">
        <ele>753.17</ele>
        <time>2022-03-22T14:50:01Z</time>
      </trkpt>
      <trkpt lat="45.21394" lon="4.29305">
        <ele>754.65</ele>
        <time>2022-03-22T14:50:03Z</time>
      </trkpt>
      <trkpt lat="45.21343" lon="4.29358">
        <ele>761.2</ele>
        <time>2022-03-22T14:50:05Z</time>
      </trkpt>
      <trkpt lat="45.21266" lon="4.29423">
        <ele>769.03</ele>
        <time>2022-03-22T14:50:07Z</time>
      </trkpt>
      <trkpt lat="45.21185" lon="4.29471">
        <ele>770.32</ele>
        <time>2022-03-22T14:50:09Z</time>
      </trkpt>
      <trkpt lat="45.21142" lon="4.29494">
        <ele>780.41</ele>
        <time>2022-03-22T14:50:11Z</time>
      </trkpt>
      <trkpt lat="45.21105" lon="4.29504">
        <ele>784.92</ele>
        <time>2022-03-22T14:50:13Z</time>
      </trkpt>
      <trkpt lat="45.21092" lon="4.29503">
        <ele>785.48</ele>
        <time>2022-03-22T14:50:15Z</time>
      </trkpt>
      <trkpt lat="45.21083" lon="4.295">
        <ele>786</ele>
        <time>2022-03-22T14:50:17Z</time>
      </trkpt>
      <trkpt lat="45.21075" lon="4.29494">
        <ele>786.16</ele>
        <time>2022-03-22T14:50:19Z</time>
      </trkpt>
      <trkpt lat="45.21069" lon="4.29485">
        <ele>786.55</ele>
        <time>2022-03-22T14:50:21Z</time>
      </trkpt>
      <trkpt lat="45.21051" lon="4.29452">
        <ele>788.5</ele>
        <time>2022-03-22T14:50:23Z</time>
      </trkpt>
      <trkpt lat="45.2104" lon="4.2944">
        <ele>789.14</ele>
        <time>2022-03-22T14:50:25Z</time>
      </trkpt>
      <trkpt lat="45.21027" lon="4.29433">
        <ele>788.98</ele>
        <time>2022-03-22T14:50:27Z</time>
      </trkpt>
      <trkpt lat="45.20973" lon="4.29414">
        <ele>788.02</ele>
        <time>2022-03-22T14:50:29Z</time>
      </trkpt>
      <trkpt lat="45.20961" lon="4.29406">
        <ele>786.91</ele>
        <time>2022-03-22T14:50:31Z</time>
      </trkpt>
      <trkpt lat="45.20945" lon="4.29391">
        <ele>786.01</ele>
        <time>2022-03-22T14:50:33Z</time>
      </trkpt>
      <trkpt lat="45.20934" lon="4.29382">
        <ele>786.31</ele>
        <time>2022-03-22T14:50:35Z</time>
      </trkpt>
      <trkpt lat="45.20918" lon="4.29377">
        <ele>786.7</ele>
        <time>2022-03-22T14:50:37Z</time>
      </trkpt>
      <trkpt lat="45.20907" lon="4.29377">
        <ele>787.11</ele>
        <time>2022-03-22T14:50:39Z</time>
      </trkpt>
      <trkpt lat="45.20887" lon="4.29381">
        <ele>787.81</ele>
        <time>2022-03-22T14:50:41Z</time>
      </trkpt>
      <trkpt lat="45.20868" lon="4.2939">
        <ele>790.8</ele>
        <time>2022-03-22T14:50:43Z</time>
      </trkpt>
      <trkpt lat="45.20854" lon="4.29399">
        <ele>794.31</ele>
        <time>2022-03-22T14:50:45Z</time>
      </trkpt>
      <trkpt lat="45.20838" lon="4.29415">
        <ele>799.09</ele>
        <time>2022-03-22T14:50:47Z</time>
      </trkpt>
      <trkpt lat="45.20789" lon="4.29477">
        <ele>809.36</ele>
        <time>2022-03-22T14:50:49Z</time>
      </trkpt>
      <trkpt lat="45.20761" lon="4.29516">
        <ele>810.56</ele>
        <time>2022-03-22T14:50:51Z</time>
      </trkpt>
      <trkpt lat="45.20746" lon="4.29533">
        <ele>808.5</ele>
        <time>2022-03-22T14:50:53Z</time>
      </trkpt>
      <trkpt lat="45.20734" lon="4.29541">
        <ele>808.31</ele>
        <time>2022-03-22T14:50:55Z</time>
      </trkpt>
      <trkpt lat="45.20719" lon="4.29545">
        <ele>809.03</ele>
        <time>2022-03-22T14:50:57Z</time>
      </trkpt>
      <trkpt lat="45.20702" lon="4.29546">
        <ele>811.78</ele>
        <time>2022-03-22T14:50:59Z</time>
      </trkpt>
      <trkpt lat="45.20532" lon="4.29533">
        <ele>824.11</ele>
        <time>2022-03-22T14:51:01Z</time>
      </trkpt>
      <trkpt lat="45.20515" lon="4.29536">
        <ele>824.45</ele>
        <time>2022-03-22T14:51:03Z</time>
      </trkpt>
      <trkpt lat="45.20503" lon="4.29546">
        <ele>824.9</ele>
        <time>2022-03-22T14:51:05Z</time>
      </trkpt>
      <trkpt lat="45.20494" lon="4.29559">
        <ele>825.37</ele>
        <time>2022-03-22T14:51:07Z</time>
      </trkpt>
      <trkpt lat="45.20489" lon="4.29577">
        <ele>826.79</ele>
        <time>2022-03-22T14:51:09Z</time>
      </trkpt>
      <trkpt lat="45.20488" lon="4.29598">
        <ele>828.04</ele>
        <time>2022-03-22T14:51:11Z</time>
      </trkpt>
      <trkpt lat="45.2049" lon="4.29617">
        <ele>828.34</ele>
        <time>2022-03-22T14:51:13Z</time>
      </trkpt>
      <trkpt lat="45.20495" lon="4.29634">
        <ele>827.26</ele>
        <time>2022-03-22T14:51:15Z</time>
      </trkpt>
      <trkpt lat="45.20525" lon="4.29711">
        <ele>824.73</ele>
        <time>2022-03-22T14:51:17Z</time>
      </trkpt>
      <trkpt lat="45.20528" lon="4.29726">
        <ele>824.15</ele>
        <time>2022-03-22T14:51:19Z</time>
      </trkpt>
      <trkpt lat="45.20529" lon="4.29747">
        <ele>824.72</ele>
        <time>2022-03-22T14:51:21Z</time>
      </trkpt>
      <trkpt lat="45.20528" lon="4.29765">
        <ele>825.54</ele>
        <time>2022-03-22T14:51:23Z</time>
      </trkpt>
      <trkpt lat="45.20522" lon="4.29789">
        <ele>827.3</ele>
        <time>2022-03-22T14:51:25Z</time>
      </trkpt>
      <trkpt lat="45.20481" lon="4.29916">
        <ele>837.64</ele>
        <time>2022-03-22T14:51:27Z</time>
      </trkpt>
      <trkpt lat="45.20473" lon="4.29936">
        <ele>839.46</ele>
        <time>2022-03-22T14:51:29Z</time>
      </trkpt>
      <trkpt lat="45.20456" lon="4.29963">
        <ele>841.93</ele>
        <time>2022-03-22T14:51:31Z</time>
      </trkpt>
      <trkpt lat="45.20444" lon="4.29975">
        <ele>842.78</ele>
        <time>2022-03-22T14:51:33Z</time>
      </trkpt>
      <trkpt lat="45.20392" lon="4.30003">
        <ele>843.97</ele>
        <time>2022-03-22T14:51:35Z</time>
      </trkpt>
      <trkpt lat="45.20335" lon="4.30031">
        <ele>845.06</ele>
        <time>2022-03-22T14:51:37Z</time>
      </trkpt>
      <trkpt lat="45.20288" lon="4.30033">
        <ele>847.97</ele>
        <time>2022-03-22T14:51:39Z</time>
      </trkpt>
      <trkpt lat="45.20276" lon="4.30037">
        <ele>848.23</ele>
        <time>2022-03-22T14:51:41Z</time>
      </trkpt>
      <trkpt lat="45.20263" lon="4.30044">
        <ele>847.94</ele>
        <time>2022-03-22T14:51:43Z</time>
      </trkpt>
      <trkpt lat="45.20225" lon="4.3007">
        <ele>844.5</ele>
        <time>2022-03-22T14:51:45Z</time>
      </trkpt>
      <trkpt lat="45.20216" lon="4.30074">
        <ele>844.31</ele>
        <time>2022-03-22T14:51:47Z</time>
      </trkpt>
      <trkpt lat="45.20206" lon="4.30073">
        <ele>845.49</ele>
        <time>2022-03-22T14:51:49Z</time>
      </trkpt>
      <trkpt lat="45.20171" lon="4.30059">
        <ele>851.88</ele>
        <time>2022-03-22T14:51:51Z</time>
      </trkpt>
      <trkpt lat="45.2016" lon="4.30057">
        <ele>852.8</ele>
        <time>2022-03-22T14:51:53Z</time>
      </trkpt>
      <trkpt lat="45.2013" lon="4.30058">
        <ele>853.99</ele>
        <time>2022-03-22T14:51:55Z</time>
      </trkpt>
      <trkpt lat="45.20109" lon="4.30067">
        <ele>854.16</ele>
        <time>2022-03-22T14:51:57Z</time>
      </trkpt>
      <trkpt lat="45.201" lon="4.30073">
        <ele>853.63</ele>
        <time>2022-03-22T14:51:59Z</time>
      </trkpt>
      <trkpt lat="45.20087" lon="4.30087">
        <ele>852.42</ele>
        <time>2022-03-22T14:52:01Z</time>
      </trkpt>
      <trkpt lat="45.20037" lon="4.30154">
        <ele>855.38</ele>
        <time>2022-03-22T14:52:03Z</time>
      </trkpt>
      <trkpt lat="45.20025" lon="4.30165">
        <ele>856.85</ele>
        <time>2022-03-22T14:52:05Z</time>
      </trkpt>
      <trkpt lat="45.20013" lon="4.30173">
        <ele>858.74</ele>
        <time>2022-03-22T14:52:07Z</time>
      </trkpt>
      <trkpt lat="45.19943" lon="4.302">
        <ele>862.81</ele>
        <time>2022-03-22T14:52:09Z</time>
      </trkpt>
      <trkpt lat="45.19905" lon="4.30205">
        <ele>864.25</ele>
        <time>2022-03-22T14:52:11Z</time>
      </trkpt>
      <trkpt lat="45.19874" lon="4.30204">
        <ele>864.12</ele>
        <time>2022-03-22T14:52:13Z</time>
      </trkpt>
      <trkpt lat="45.19853" lon="4.30196">
        <ele>864.41</ele>
        <time>2022-03-22T14:52:15Z</time>
      </trkpt>
      <trkpt lat="45.19804" lon="4.30165">
        <ele>871.41</ele>
        <time>2022-03-22T14:52:17Z</time>
      </trkpt>
      <trkpt lat="45.19779" lon="4.30157">
        <ele>874.06</ele>
        <time>2022-03-22T14:52:19Z</time>
      </trkpt>
      <trkpt lat="45.19765" lon="4.30156">
        <ele>873.43</ele>
        <time>2022-03-22T14:52:21Z</time>
      </trkpt>
      <trkpt lat="45.1974" lon="4.30158">
        <ele>870.72</ele>
        <time>2022-03-22T14:52:23Z</time>
      </trkpt>
      <trkpt lat="45.19716" lon="4.30165">
        <ele>868.15</ele>
        <time>2022-03-22T14:52:25Z</time>
      </trkpt>
      <trkpt lat="45.19694" lon="4.30178">
        <ele>867.17</ele>
        <time>2022-03-22T14:52:27Z</time>
      </trkpt>
      <trkpt lat="45.19683" lon="4.30191">
        <ele>867.5</ele>
        <time>2022-03-22T14:52:29Z</time>
      </trkpt>
      <trkpt lat="45.19656" lon="4.30233">
        <ele>868.39</ele>
        <time>2022-03-22T14:52:31Z</time>
      </trkpt>
      <trkpt lat="45.19647" lon="4.30225">
        <ele>868.7</ele>
        <time>2022-03-22T14:52:35Z</time>
      </trkpt>
      <trkpt lat="45.19553" lon="4.30158">
        <ele>871.76</ele>
        <time>2022-03-22T14:52:39Z</time>
      </trkpt>
      <trkpt lat="45.19515" lon="4.30147">
        <ele>872.62</ele>
        <time>2022-03-22T14:52:42Z</time>
      </trkpt>
      <trkpt lat="45.19449" lon="4.30142">
        <ele>872.3</ele>
        <time>2022-03-22T14:52:46Z</time>
      </trkpt>
      <trkpt lat="45.19425" lon="4.30147">
        <ele>870.92</ele>
        <time>2022-03-22T14:52:49Z</time>
      </trkpt>
      <trkpt lat="45.19407" lon="4.30154">
        <ele>870.08</ele>
        <time>2022-03-22T14:52:53Z</time>
      </trkpt>
      <trkpt lat="45.19365" lon="4.30181">
        <ele>868.8</ele>
        <time>2022-03-22T14:52:56Z</time>
      </trkpt>
      <trkpt lat="45.19352" lon="4.30183">
        <ele>867.54</ele>
        <time>2022-03-22T14:53:00Z</time>
      </trkpt>
      <trkpt lat="45.19342" lon="4.30176">
        <ele>866.47</ele>
        <time>2022-03-22T14:53:04Z</time>
      </trkpt>
      <trkpt lat="45.19171" lon="4.2998">
        <ele>868.26</ele>
        <time>2022-03-22T14:53:07Z</time>
      </trkpt>
      <trkpt lat="45.19159" lon="4.29973">
        <ele>868.35</ele>
        <time>2022-03-22T14:53:11Z</time>
      </trkpt>
      <trkpt lat="45.19153" lon="4.29973">
        <ele>868.52</ele>
        <time>2022-03-22T14:53:14Z</time>
      </trkpt>
      <trkpt lat="45.19141" lon="4.29978">
        <ele>869.49</ele>
        <time>2022-03-22T14:53:18Z</time>
      </trkpt>
      <trkpt lat="45.19099" lon="4.30014">
        <ele>873.85</ele>
        <time>2022-03-22T14:53:22Z</time>
      </trkpt>
      <trkpt lat="45.19065" lon="4.30039">
        <ele>879.96</ele>
        <time>2022-03-22T14:53:25Z</time>
      </trkpt>
      <trkpt lat="45.19058" lon="4.30042">
        <ele>880.81</ele>
        <time>2022-03-22T14:53:29Z</time>
      </trkpt>
      <trkpt lat="45.19046" lon="4.30039">
        <ele>881.49</ele>
        <time>2022-03-22T14:53:32Z</time>
      </trkpt>
      <trkpt lat="45.19035" lon="4.30028">
        <ele>881.53</ele>
        <time>2022-03-22T14:53:36Z</time>
      </trkpt>
      <trkpt lat="45.19031" lon="4.30019">
        <ele>881.08</ele>
        <time>2022-03-22T14:53:39Z</time>
      </trkpt>
      <trkpt lat="45.19024" lon="4.29988">
        <ele>879.41</ele>
        <time>2022-03-22T14:53:43Z</time>
      </trkpt>
      <trkpt lat="45.19015" lon="4.29955">
        <ele>878.85</ele>
        <time>2022-03-22T14:53:47Z</time>
      </trkpt>
      <trkpt lat="45.19004" lon="4.29907">
        <ele>877.79</ele>
        <time>2022-03-22T14:53:50Z</time>
      </trkpt>
      <trkpt lat="45.18995" lon="4.29889">
        <ele>878</ele>
        <time>2022-03-22T14:53:54Z</time>
      </trkpt>
      <trkpt lat="45.18978" lon="4.29871">
        <ele>877.34</ele>
        <time>2022-03-22T14:53:57Z</time>
      </trkpt>
      <trkpt lat="45.18866" lon="4.29797">
        <ele>880.77</ele>
        <time>2022-03-22T14:54:01Z</time>
      </trkpt>
      <trkpt lat="45.18847" lon="4.2978">
        <ele>880</ele>
        <time>2022-03-22T14:54:05Z</time>
      </trkpt>
      <trkpt lat="45.18839" lon="4.29771">
        <ele>880.16</ele>
        <time>2022-03-22T14:54:08Z</time>
      </trkpt>
      <trkpt lat="45.18825" lon="4.29746">
        <ele>882.33</ele>
        <time>2022-03-22T14:54:12Z</time>
      </trkpt>
      <trkpt lat="45.1882" lon="4.2973">
        <ele>883.33</ele>
        <time>2022-03-22T14:54:15Z</time>
      </trkpt>
      <trkpt lat="45.18813" lon="4.2969">
        <ele>884.01</ele>
        <time>2022-03-22T14:54:19Z</time>
      </trkpt>
      <trkpt lat="45.18804" lon="4.29578">
        <ele>889.96</ele>
        <time>2022-03-22T14:54:22Z</time>
      </trkpt>
      <trkpt lat="45.18809" lon="4.29565">
        <ele>889.49</ele>
        <time>2022-03-22T14:54:26Z</time>
      </trkpt>
      <trkpt lat="45.18811" lon="4.29555">
        <ele>889.37</ele>
        <time>2022-03-22T14:54:30Z</time>
      </trkpt>
      <trkpt lat="45.1881" lon="4.29525">
        <ele>888.76</ele>
        <time>2022-03-22T14:54:34Z</time>
      </trkpt>
      <trkpt lat="45.18808" lon="4.29516">
        <ele>888.52</ele>
        <time>2022-03-22T14:54:37Z</time>
      </trkpt>
      <trkpt lat="45.18802" lon="4.29505">
        <ele>887.99</ele>
        <time>2022-03-22T14:54:41Z</time>
      </trkpt>
      <trkpt lat="45.18794" lon="4.29501">
        <ele>887.22</ele>
        <time>2022-03-22T14:54:45Z</time>
      </trkpt>
      <trkpt lat="45.18789" lon="4.29502">
        <ele>886.9</ele>
        <time>2022-03-22T14:54:49Z</time>
      </trkpt>
      <trkpt lat="45.18758" lon="4.29516">
        <ele>885.71</ele>
        <time>2022-03-22T14:54:52Z</time>
      </trkpt>
      <trkpt lat="45.18737" lon="4.29526">
        <ele>884.97</ele>
        <time>2022-03-22T14:54:56Z</time>
      </trkpt>
      <trkpt lat="45.18726" lon="4.29528">
        <ele>884.23</ele>
        <time>2022-03-22T14:55:00Z</time>
      </trkpt>
      <trkpt lat="45.18636" lon="4.29515">
        <ele>876.9</ele>
        <time>2022-03-22T14:55:04Z</time>
      </trkpt>
      <trkpt lat="45.18627" lon="4.29512">
        <ele>875.97</ele>
        <time>2022-03-22T14:55:07Z</time>
      </trkpt>
      <trkpt lat="45.18617" lon="4.29502">
        <ele>874.59</ele>
        <time>2022-03-22T14:55:11Z</time>
      </trkpt>
      <trkpt lat="45.18609" lon="4.29482">
        <ele>873.41</ele>
        <time>2022-03-22T14:55:15Z</time>
      </trkpt>
      <trkpt lat="45.18592" lon="4.29409">
        <ele>875.09</ele>
        <time>2022-03-22T14:55:18Z</time>
      </trkpt>
      <trkpt lat="45.18579" lon="4.29375">
        <ele>878.61</ele>
        <time>2022-03-22T14:55:22Z</time>
      </trkpt>
      <trkpt lat="45.18569" lon="4.29361">
        <ele>881.73</ele>
        <time>2022-03-22T14:55:26Z</time>
      </trkpt>
      <trkpt lat="45.18546" lon="4.29335">
        <ele>883.62</ele>
        <time>2022-03-22T14:55:30Z</time>
      </trkpt>
      <trkpt lat="45.18535" lon="4.29326">
        <ele>883.7</ele>
        <time>2022-03-22T14:55:33Z</time>
      </trkpt>
      <trkpt lat="45.18521" lon="4.2932">
        <ele>883.42</ele>
        <time>2022-03-22T14:55:37Z</time>
      </trkpt>
      <trkpt lat="45.18485" lon="4.2932">
        <ele>883.62</ele>
        <time>2022-03-22T14:55:41Z</time>
      </trkpt>
      <trkpt lat="45.18465" lon="4.29316">
        <ele>884.57</ele>
        <time>2022-03-22T14:55:45Z</time>
      </trkpt>
      <trkpt lat="45.18447" lon="4.29305">
        <ele>883.72</ele>
        <time>2022-03-22T14:55:48Z</time>
      </trkpt>
      <trkpt lat="45.18435" lon="4.29292">
        <ele>883.82</ele>
        <time>2022-03-22T14:55:52Z</time>
      </trkpt>
      <trkpt lat="45.18386" lon="4.29221">
        <ele>881.01</ele>
        <time>2022-03-22T14:55:56Z</time>
      </trkpt>
      <trkpt lat="45.18334" lon="4.29174">
        <ele>878.28</ele>
        <time>2022-03-22T14:56:00Z</time>
      </trkpt>
      <trkpt lat="45.18296" lon="4.29148">
        <ele>880.72</ele>
        <time>2022-03-22T14:56:03Z</time>
      </trkpt>
      <trkpt lat="45.18268" lon="4.29135">
        <ele>881.72</ele>
        <time>2022-03-22T14:56:07Z</time>
      </trkpt>
      <trkpt lat="45.18255" lon="4.29133">
        <ele>881.21</ele>
        <time>2022-03-22T14:56:12Z</time>
      </trkpt>
      <trkpt lat="45.18246" lon="4.29136">
        <ele>880.73</ele>
        <time>2022-03-22T14:56:17Z</time>
      </trkpt>
      <trkpt lat="45.18075" lon="4.29202">
        <ele>874.42</ele>
        <time>2022-03-22T14:56:22Z</time>
      </trkpt>
      <trkpt lat="45.1795" lon="4.29253">
        <ele>872.1</ele>
        <time>2022-03-22T14:56:27Z</time>
      </trkpt>
      <trkpt lat="45.17791" lon="4.29309">
        <ele>871.46</ele>
        <time>2022-03-22T14:56:31Z</time>
      </trkpt>
      <trkpt lat="45.17734" lon="4.29334">
        <ele>871.95</ele>
        <time>2022-03-22T14:56:36Z</time>
      </trkpt>
      <trkpt lat="45.17717" lon="4.29338">
        <ele>871.36</ele>
        <time>2022-03-22T14:56:41Z</time>
      </trkpt>
      <trkpt lat="45.17645" lon="4.29338">
        <ele>869.18</ele>
        <time>2022-03-22T14:56:46Z</time>
      </trkpt>
      <trkpt lat="45.17625" lon="4.29341">
        <ele>869.48</ele>
        <time>2022-03-22T14:56:51Z</time>
      </trkpt>
      <trkpt lat="45.17598" lon="4.29349">
        <ele>871.21</ele>
        <time>2022-03-22T14:56:56Z</time>
      </trkpt>
      <trkpt lat="45.17532" lon="4.29378">
        <ele>871.65</ele>
        <time>2022-03-22T14:57:01Z</time>
      </trkpt>
      <trkpt lat="45.17516" lon="4.29382">
        <ele>870.47</ele>
        <time>2022-03-22T14:57:05Z</time>
      </trkpt>
      <trkpt lat="45.17506" lon="4.29377">
        <ele>870.17</ele>
        <time>2022-03-22T14:57:09Z</time>
      </trkpt>
      <trkpt lat="45.175" lon="4.29379">
        <ele>869.69</ele>
        <time>2022-03-22T14:57:13Z</time>
      </trkpt>
      <trkpt lat="45.17494" lon="4.29387">
        <ele>869.37</ele>
        <time>2022-03-22T14:57:16Z</time>
      </trkpt>
      <trkpt lat="45.17491" lon="4.29396">
        <ele>869.23</ele>
        <time>2022-03-22T14:57:20Z</time>
      </trkpt>
      <trkpt lat="45.17474" lon="4.29412">
        <ele>869.16</ele>
        <time>2022-03-22T14:57:24Z</time>
      </trkpt>
      <trkpt lat="45.17452" lon="4.29422">
        <ele>870.17</ele>
        <time>2022-03-22T14:57:27Z</time>
      </trkpt>
      <trkpt lat="45.17393" lon="4.29455">
        <ele>871.12</ele>
        <time>2022-03-22T14:57:31Z</time>
      </trkpt>
      <trkpt lat="45.17317" lon="4.29501">
        <ele>879.57</ele>
        <time>2022-03-22T14:57:35Z</time>
      </trkpt>
      <trkpt lat="45.17249" lon="4.29536">
        <ele>887.74</ele>
        <time>2022-03-22T14:57:38Z</time>
      </trkpt>
      <trkpt lat="45.17192" lon="4.29552">
        <ele>888.98</ele>
        <time>2022-03-22T14:57:42Z</time>
      </trkpt>
      <trkpt lat="45.17069" lon="4.29576">
        <ele>869.44</ele>
        <time>2022-03-22T14:57:45Z</time>
      </trkpt>
      <trkpt lat="45.1682" lon="4.29623">
        <ele>864.1</ele>
        <time>2022-03-22T14:57:49Z</time>
      </trkpt>
      <trkpt lat="45.16771" lon="4.2963">
        <ele>861.52</ele>
        <time>2022-03-22T14:57:53Z</time>
      </trkpt>
      <trkpt lat="45.16694" lon="4.29637">
        <ele>857.97</ele>
        <time>2022-03-22T14:57:56Z</time>
      </trkpt>
      <trkpt lat="45.16649" lon="4.29644">
        <ele>856.47</ele>
        <time>2022-03-22T14:58:00Z</time>
      </trkpt>
      <trkpt lat="45.1664" lon="4.29646">
        <ele>856.28</ele>
        <time>2022-03-22T14:58:04Z</time>
      </trkpt>
      <trkpt lat="45.16607" lon="4.29661">
        <ele>858.29</ele>
        <time>2022-03-22T14:58:07Z</time>
      </trkpt>
      <trkpt lat="45.16588" lon="4.29673">
        <ele>859.85</ele>
        <time>2022-03-22T14:58:11Z</time>
      </trkpt>
      <trkpt lat="45.16565" lon="4.2969">
        <ele>860.85</ele>
        <time>2022-03-22T14:58:15Z</time>
      </trkpt>
      <trkpt lat="45.16552" lon="4.29704">
        <ele>861.54</ele>
        <time>2022-03-22T14:58:18Z</time>
      </trkpt>
      <trkpt lat="45.16524" lon="4.29741">
        <ele>866.12</ele>
        <time>2022-03-22T14:58:22Z</time>
      </trkpt>
      <trkpt lat="45.16373" lon="4.29996">
        <ele>893.44</ele>
        <time>2022-03-22T14:58:25Z</time>
      </trkpt>
      <trkpt lat="45.16347" lon="4.30027">
        <ele>899.01</ele>
        <time>2022-03-22T14:58:29Z</time>
      </trkpt>
      <trkpt lat="45.16313" lon="4.30061">
        <ele>902.6</ele>
        <time>2022-03-22T14:58:33Z</time>
      </trkpt>
      <trkpt lat="45.16286" lon="4.30093">
        <ele>904.33</ele>
        <time>2022-03-22T14:58:36Z</time>
      </trkpt>
      <trkpt lat="45.16257" lon="4.30132">
        <ele>905.56</ele>
        <time>2022-03-22T14:58:40Z</time>
      </trkpt>
      <trkpt lat="45.16245" lon="4.30151">
        <ele>907.13</ele>
        <time>2022-03-22T14:58:44Z</time>
      </trkpt>
      <trkpt lat="45.16225" lon="4.3019">
        <ele>911.51</ele>
        <time>2022-03-22T14:58:47Z</time>
      </trkpt>
      <trkpt lat="45.1614" lon="4.30372">
        <ele>915.45</ele>
        <time>2022-03-22T14:58:51Z</time>
      </trkpt>
      <trkpt lat="45.16123" lon="4.30405">
        <ele>914.1</ele>
        <time>2022-03-22T14:58:55Z</time>
      </trkpt>
      <trkpt lat="45.16096" lon="4.30445">
        <ele>910.43</ele>
        <time>2022-03-22T14:58:58Z</time>
      </trkpt>
      <trkpt lat="45.16081" lon="4.30457">
        <ele>910.16</ele>
        <time>2022-03-22T14:59:02Z</time>
      </trkpt>
      <trkpt lat="45.16059" lon="4.30459">
        <ele>911.77</ele>
        <time>2022-03-22T14:59:06Z</time>
      </trkpt>
      <trkpt lat="45.16038" lon="4.30423">
        <ele>910.35</ele>
        <time>2022-03-22T14:59:10Z</time>
      </trkpt>
      <trkpt lat="45.16007" lon="4.30381">
        <ele>908.18</ele>
        <time>2022-03-22T14:59:14Z</time>
      </trkpt>
      <trkpt lat="45.15985" lon="4.30359">
        <ele>907.45</ele>
        <time>2022-03-22T14:59:17Z</time>
      </trkpt>
      <trkpt lat="45.15961" lon="4.3034">
        <ele>906.6</ele>
        <time>2022-03-22T14:59:21Z</time>
      </trkpt>
      <trkpt lat="45.1594" lon="4.30326">
        <ele>905.21</ele>
        <time>2022-03-22T14:59:25Z</time>
      </trkpt>
      <trkpt lat="45.15917" lon="4.30314">
        <ele>902.36</ele>
        <time>2022-03-22T14:59:29Z</time>
      </trkpt>
      <trkpt lat="45.15861" lon="4.30291">
        <ele>900</ele>
        <time>2022-03-22T14:59:33Z</time>
      </trkpt>
      <trkpt lat="45.15577" lon="4.30187">
        <ele>890.57</ele>
        <time>2022-03-22T14:59:37Z</time>
      </trkpt>
      <trkpt lat="45.15538" lon="4.30166">
        <ele>891.36</ele>
        <time>2022-03-22T14:59:41Z</time>
      </trkpt>
      <trkpt lat="45.15516" lon="4.3015">
        <ele>889.06</ele>
        <time>2022-03-22T14:59:45Z</time>
      </trkpt>
      <trkpt lat="45.15481" lon="4.30111">
        <ele>881.8</ele>
        <time>2022-03-22T14:59:49Z</time>
      </trkpt>
      <trkpt lat="45.15449" lon="4.30063">
        <ele>878.92</ele>
        <time>2022-03-22T14:59:53Z</time>
      </trkpt>
      <trkpt lat="45.15437" lon="4.30042">
        <ele>881</ele>
        <time>2022-03-22T14:59:57Z</time>
      </trkpt>
      <trkpt lat="45.15417" lon="4.29992">
        <ele>886.72</ele>
        <time>2022-03-22T15:00:01Z</time>
      </trkpt>
      <trkpt lat="45.15389" lon="4.29899">
        <ele>883.32</ele>
        <time>2022-03-22T15:00:05Z</time>
      </trkpt>
      <trkpt lat="45.15364" lon="4.29846">
        <ele>884.64</ele>
        <time>2022-03-22T15:00:09Z</time>
      </trkpt>
      <trkpt lat="45.15351" lon="4.29829">
        <ele>885.69</ele>
        <time>2022-03-22T15:00:13Z</time>
      </trkpt>
      <trkpt lat="45.15335" lon="4.29813">
        <ele>885.91</ele>
        <time>2022-03-22T15:00:17Z</time>
      </trkpt>
      <trkpt lat="45.15262" lon="4.29756">
        <ele>885.12</ele>
        <time>2022-03-22T15:00:21Z</time>
      </trkpt>
      <trkpt lat="45.15245" lon="4.2974">
        <ele>886.08</ele>
        <time>2022-03-22T15:00:25Z</time>
      </trkpt>
      <trkpt lat="45.15235" lon="4.29725">
        <ele>886.26</ele>
        <time>2022-03-22T15:00:29Z</time>
      </trkpt>
      <trkpt lat="45.15216" lon="4.2969">
        <ele>885.09</ele>
        <time>2022-03-22T15:00:33Z</time>
      </trkpt>
      <trkpt lat="45.15206" lon="4.29665">
        <ele>885.12</ele>
        <time>2022-03-22T15:00:37Z</time>
      </trkpt>
      <trkpt lat="45.15151" lon="4.29503">
        <ele>893.9</ele>
        <time>2022-03-22T15:00:41Z</time>
      </trkpt>
      <trkpt lat="45.15129" lon="4.29444">
        <ele>902.99</ele>
        <time>2022-03-22T15:00:45Z</time>
      </trkpt>
      <trkpt lat="45.15115" lon="4.29415">
        <ele>902.07</ele>
        <time>2022-03-22T15:00:49Z</time>
      </trkpt>
      <trkpt lat="45.15093" lon="4.29385">
        <ele>899.55</ele>
        <time>2022-03-22T15:00:53Z</time>
      </trkpt>
      <trkpt lat="45.15055" lon="4.29351">
        <ele>896.29</ele>
        <time>2022-03-22T15:00:57Z</time>
      </trkpt>
      <trkpt lat="45.15024" lon="4.29338">
        <ele>895.16</ele>
        <time>2022-03-22T15:01:01Z</time>
      </trkpt>
      <trkpt lat="45.14992" lon="4.29334">
        <ele>892.38</ele>
        <time>2022-03-22T15:01:05Z</time>
      </trkpt>
      <trkpt lat="45.14941" lon="4.2934">
        <ele>888.6</ele>
        <time>2022-03-22T15:01:09Z</time>
      </trkpt>
      <trkpt lat="45.14884" lon="4.2935">
        <ele>884.93</ele>
        <time>2022-03-22T15:01:13Z</time>
      </trkpt>
      <trkpt lat="45.14777" lon="4.29383">
        <ele>880.41</ele>
        <time>2022-03-22T15:01:17Z</time>
      </trkpt>
      <trkpt lat="45.14762" lon="4.29386">
        <ele>880.29</ele>
        <time>2022-03-22T15:01:21Z</time>
      </trkpt>
      <trkpt lat="45.14745" lon="4.29386">
        <ele>879.96</ele>
        <time>2022-03-22T15:01:25Z</time>
      </trkpt>
      <trkpt lat="45.14733" lon="4.29383">
        <ele>879.11</ele>
        <time>2022-03-22T15:01:29Z</time>
      </trkpt>
      <trkpt lat="45.1466" lon="4.29359">
        <ele>870.83</ele>
        <time>2022-03-22T15:01:33Z</time>
      </trkpt>
      <trkpt lat="45.14639" lon="4.29353">
        <ele>870</ele>
        <time>2022-03-22T15:01:37Z</time>
      </trkpt>
      <trkpt lat="45.14607" lon="4.29352">
        <ele>867.12</ele>
        <time>2022-03-22T15:01:41Z</time>
      </trkpt>
      <trkpt lat="45.1458" lon="4.29358">
        <ele>865.91</ele>
        <time>2022-03-22T15:01:45Z</time>
      </trkpt>
      <trkpt lat="45.14492" lon="4.29403">
        <ele>865.22</ele>
        <time>2022-03-22T15:01:49Z</time>
      </trkpt>
      <trkpt lat="45.14475" lon="4.29408">
        <ele>864.79</ele>
        <time>2022-03-22T15:01:53Z</time>
      </trkpt>
      <trkpt lat="45.14442" lon="4.2941">
        <ele>865</ele>
        <time>2022-03-22T15:01:57Z</time>
      </trkpt>
      <trkpt lat="45.14426" lon="4.29407">
        <ele>865</ele>
        <time>2022-03-22T15:02:01Z</time>
      </trkpt>
      <trkpt lat="45.14263" lon="4.29359">
        <ele>860.66</ele>
        <time>2022-03-22T15:02:05Z</time>
      </trkpt>
      <trkpt lat="45.14243" lon="4.29356">
        <ele>860.7</ele>
        <time>2022-03-22T15:02:09Z</time>
      </trkpt>
      <trkpt lat="45.14227" lon="4.29356">
        <ele>861.35</ele>
        <time>2022-03-22T15:02:13Z</time>
      </trkpt>
      <trkpt lat="45.14201" lon="4.29362">
        <ele>860.95</ele>
        <time>2022-03-22T15:02:17Z</time>
      </trkpt>
      <trkpt lat="45.14188" lon="4.29371">
        <ele>860.04</ele>
        <time>2022-03-22T15:02:21Z</time>
      </trkpt>
      <trkpt lat="45.14168" lon="4.29389">
        <ele>858.95</ele>
        <time>2022-03-22T15:02:25Z</time>
      </trkpt>
      <trkpt lat="45.14108" lon="4.29453">
        <ele>862.29</ele>
        <time>2022-03-22T15:02:29Z</time>
      </trkpt>
      <trkpt lat="45.14072" lon="4.29482">
        <ele>862.93</ele>
        <time>2022-03-22T15:02:33Z</time>
      </trkpt>
      <trkpt lat="45.14047" lon="4.29493">
        <ele>860.26</ele>
        <time>2022-03-22T15:02:37Z</time>
      </trkpt>
      <trkpt lat="45.14028" lon="4.29496">
        <ele>857.69</ele>
        <time>2022-03-22T15:02:41Z</time>
      </trkpt>
      <trkpt lat="45.14008" lon="4.29495">
        <ele>857.39</ele>
        <time>2022-03-22T15:02:45Z</time>
      </trkpt>
      <trkpt lat="45.13887" lon="4.29476">
        <ele>854.21</ele>
        <time>2022-03-22T15:02:49Z</time>
      </trkpt>
      <trkpt lat="45.13863" lon="4.29479">
        <ele>853.57</ele>
        <time>2022-03-22T15:02:53Z</time>
      </trkpt>
      <trkpt lat="45.13806" lon="4.29499">
        <ele>856.92</ele>
        <time>2022-03-22T15:02:57Z</time>
      </trkpt>
      <trkpt lat="45.13787" lon="4.29504">
        <ele>856.86</ele>
        <time>2022-03-22T15:03:01Z</time>
      </trkpt>
      <trkpt lat="45.13768" lon="4.29506">
        <ele>857.1</ele>
        <time>2022-03-22T15:03:05Z</time>
      </trkpt>
      <trkpt lat="45.13739" lon="4.29501">
        <ele>858.64</ele>
        <time>2022-03-22T15:03:09Z</time>
      </trkpt>
      <trkpt lat="45.1372" lon="4.29492">
        <ele>860.79</ele>
        <time>2022-03-22T15:03:13Z</time>
      </trkpt>
      <trkpt lat="45.13656" lon="4.29448">
        <ele>869.79</ele>
        <time>2022-03-22T15:03:17Z</time>
      </trkpt>
      <trkpt lat="45.13614" lon="4.29433">
        <ele>869.16</ele>
        <time>2022-03-22T15:03:21Z</time>
      </trkpt>
      <trkpt lat="45.13531" lon="4.29424">
        <ele>870.16</ele>
        <time>2022-03-22T15:03:25Z</time>
      </trkpt>
      <trkpt lat="45.13505" lon="4.29418">
        <ele>871.73</ele>
        <time>2022-03-22T15:03:29Z</time>
      </trkpt>
      <trkpt lat="45.13435" lon="4.29393">
        <ele>883.93</ele>
        <time>2022-03-22T15:03:33Z</time>
      </trkpt>
      <trkpt lat="45.13333" lon="4.29374">
        <ele>883.81</ele>
        <time>2022-03-22T15:03:37Z</time>
      </trkpt>
      <trkpt lat="45.13104" lon="4.2936">
        <ele>886.09</ele>
        <time>2022-03-22T15:03:41Z</time>
      </trkpt>
      <trkpt lat="45.13056" lon="4.2935">
        <ele>893.5</ele>
        <time>2022-03-22T15:03:45Z</time>
      </trkpt>
      <trkpt lat="45.13005" lon="4.29332">
        <ele>898.23</ele>
        <time>2022-03-22T15:03:49Z</time>
      </trkpt>
      <trkpt lat="45.12982" lon="4.29322">
        <ele>899.71</ele>
        <time>2022-03-22T15:03:53Z</time>
      </trkpt>
      <trkpt lat="45.12901" lon="4.29272">
        <ele>906.91</ele>
        <time>2022-03-22T15:03:57Z</time>
      </trkpt>
      <trkpt lat="45.12614" lon="4.28997">
        <ele>876.4</ele>
        <time>2022-03-22T15:04:01Z</time>
      </trkpt>
      <trkpt lat="45.12576" lon="4.28973">
        <ele>875.42</ele>
        <time>2022-03-22T15:04:05Z</time>
      </trkpt>
      <trkpt lat="45.12548" lon="4.28959">
        <ele>875.11</ele>
        <time>2022-03-22T15:04:09Z</time>
      </trkpt>
      <trkpt lat="45.12466" lon="4.28921">
        <ele>875.88</ele>
        <time>2022-03-22T15:04:13Z</time>
      </trkpt>
      <trkpt lat="45.12397" lon="4.28883">
        <ele>873.07</ele>
        <time>2022-03-22T15:04:17Z</time>
      </trkpt>
      <trkpt lat="45.12323" lon="4.28834">
        <ele>868.5</ele>
        <time>2022-03-22T15:04:21Z</time>
      </trkpt>
      <trkpt lat="45.12306" lon="4.28826">
        <ele>866.31</ele>
        <time>2022-03-22T15:04:25Z</time>
      </trkpt>
      <trkpt lat="45.12277" lon="4.28818">
        <ele>863.39</ele>
        <time>2022-03-22T15:04:29Z</time>
      </trkpt>
      <trkpt lat="45.1226" lon="4.28818">
        <ele>862.53</ele>
        <time>2022-03-22T15:04:33Z</time>
      </trkpt>
      <trkpt lat="45.12232" lon="4.28825">
        <ele>860.93</ele>
        <time>2022-03-22T15:04:37Z</time>
      </trkpt>
      <trkpt lat="45.12077" lon="4.28904">
        <ele>843.99</ele>
        <time>2022-03-22T15:04:41Z</time>
      </trkpt>
      <trkpt lat="45.12056" lon="4.28912">
        <ele>843.54</ele>
        <time>2022-03-22T15:04:45Z</time>
      </trkpt>
      <trkpt lat="45.12015" lon="4.28918">
        <ele>841.01</ele>
        <time>2022-03-22T15:04:49Z</time>
      </trkpt>
      <trkpt lat="45.11984" lon="4.28914">
        <ele>839.48</ele>
        <time>2022-03-22T15:04:53Z</time>
      </trkpt>
      <trkpt lat="45.11943" lon="4.28901">
        <ele>835.31</ele>
        <time>2022-03-22T15:04:57Z</time>
      </trkpt>
      <trkpt lat="45.11911" lon="4.28884">
        <ele>834.52</ele>
        <time>2022-03-22T15:05:01Z</time>
      </trkpt>
      <trkpt lat="45.11911" lon="4.28884">
        <ele>834.52</ele>
        <time>2022-03-22T15:05:01Z</time>
      </trkpt>
      <trkpt lat="45.11838" lon="4.28846">
        <ele>834.46</ele>
        <time>2022-03-22T15:05:09Z</time>
      </trkpt>
      <trkpt lat="45.11748" lon="4.288">
        <ele>836.91</ele>
        <time>2022-03-22T15:05:16Z</time>
      </trkpt>
      <trkpt lat="45.11671" lon="4.28757">
        <ele>837.95</ele>
        <time>2022-03-22T15:05:24Z</time>
      </trkpt>
      <trkpt lat="45.11635" lon="4.2874">
        <ele>832.33</ele>
        <time>2022-03-22T15:05:31Z</time>
      </trkpt>
      <trkpt lat="45.11628" lon="4.28735">
        <ele>831.23</ele>
        <time>2022-03-22T15:05:39Z</time>
      </trkpt>
      <trkpt lat="45.11587" lon="4.28814">
        <ele>840.55</ele>
        <time>2022-03-22T15:05:44Z</time>
      </trkpt>
      <trkpt lat="45.11563" lon="4.28854">
        <ele>842.74</ele>
        <time>2022-03-22T15:05:50Z</time>
      </trkpt>
      <trkpt lat="45.1154" lon="4.28884">
        <ele>844.62</ele>
        <time>2022-03-22T15:05:55Z</time>
      </trkpt>
      <trkpt lat="45.11467" lon="4.28959">
        <ele>849.73</ele>
        <time>2022-03-22T15:06:01Z</time>
      </trkpt>
      <trkpt lat="45.11456" lon="4.28973">
        <ele>850.02</ele>
        <time>2022-03-22T15:06:07Z</time>
      </trkpt>
      <trkpt lat="45.11451" lon="4.28987">
        <ele>850.13</ele>
        <time>2022-03-22T15:06:12Z</time>
      </trkpt>
      <trkpt lat="45.11448" lon="4.29046">
        <ele>848.54</ele>
        <time>2022-03-22T15:06:18Z</time>
      </trkpt>
      <trkpt lat="45.11439" lon="4.29046">
        <ele>848.34</ele>
        <time>2022-03-22T15:06:25Z</time>
      </trkpt>
      <trkpt lat="45.11419" lon="4.29058">
        <ele>848</ele>
        <time>2022-03-22T15:06:33Z</time>
      </trkpt>
      <trkpt lat="45.11408" lon="4.2907">
        <ele>847.83</ele>
        <time>2022-03-22T15:06:40Z</time>
      </trkpt>
      <trkpt lat="45.11335" lon="4.2914">
        <ele>846.89</ele>
        <time>2022-03-22T15:06:48Z</time>
      </trkpt>
      <trkpt lat="45.11294" lon="4.29183">
        <ele>847.66</ele>
        <time>2022-03-22T15:06:55Z</time>
      </trkpt>
      <trkpt lat="45.11278" lon="4.29196">
        <ele>847</ele>
        <time>2022-03-22T15:07:03Z</time>
      </trkpt>
      <trkpt lat="45.11242" lon="4.29234">
        <ele>848.28</ele>
        <time>2022-03-22T15:07:11Z</time>
      </trkpt>
      <trkpt lat="45.11071" lon="4.29398">
        <ele>857.77</ele>
        <time>2022-03-22T15:07:18Z</time>
      </trkpt>
      <trkpt lat="45.10993" lon="4.29477">
        <ele>864.42</ele>
        <time>2022-03-22T15:07:26Z</time>
      </trkpt>
      <trkpt lat="45.10965" lon="4.29495">
        <ele>865.88</ele>
        <time>2022-03-22T15:07:33Z</time>
      </trkpt>
      <trkpt lat="45.10946" lon="4.29498">
        <ele>865.99</ele>
        <time>2022-03-22T15:07:41Z</time>
      </trkpt>
      <trkpt lat="45.10931" lon="4.29494">
        <ele>866</ele>
        <time>2022-03-22T15:07:48Z</time>
      </trkpt>
      <trkpt lat="45.10926" lon="4.29487">
        <ele>866</ele>
        <time>2022-03-22T15:07:52Z</time>
      </trkpt>
      <trkpt lat="45.1092" lon="4.29483">
        <ele>866</ele>
        <time>2022-03-22T15:07:56Z</time>
      </trkpt>
      <trkpt lat="45.10914" lon="4.29481">
        <ele>866.23</ele>
        <time>2022-03-22T15:08:00Z</time>
      </trkpt>
      <trkpt lat="45.10908" lon="4.29482">
        <ele>866.78</ele>
        <time>2022-03-22T15:08:03Z</time>
      </trkpt>
      <trkpt lat="45.10902" lon="4.29486">
        <ele>867.35</ele>
        <time>2022-03-22T15:08:07Z</time>
      </trkpt>
      <trkpt lat="45.10896" lon="4.29492">
        <ele>867.97</ele>
        <time>2022-03-22T15:08:11Z</time>
      </trkpt>
      <trkpt lat="45.10893" lon="4.295">
        <ele>868.57</ele>
        <time>2022-03-22T15:08:15Z</time>
      </trkpt>
      <trkpt lat="45.10891" lon="4.29509">
        <ele>868.48</ele>
        <time>2022-03-22T15:08:19Z</time>
      </trkpt>
      <trkpt lat="45.10891" lon="4.29519">
        <ele>868.18</ele>
        <time>2022-03-22T15:08:22Z</time>
      </trkpt>
      <trkpt lat="45.10894" lon="4.29528">
        <ele>867.83</ele>
        <time>2022-03-22T15:08:26Z</time>
      </trkpt>
      <trkpt lat="45.1089" lon="4.29561">
        <ele>868.42</ele>
        <time>2022-03-22T15:08:30Z</time>
      </trkpt>
      <trkpt lat="45.10885" lon="4.29576">
        <ele>869.76</ele>
        <time>2022-03-22T15:08:34Z</time>
      </trkpt>
      <trkpt lat="45.10871" lon="4.29593">
        <ele>872</ele>
        <time>2022-03-22T15:08:38Z</time>
      </trkpt>
      <trkpt lat="45.10597" lon="4.29859">
        <ele>893.11</ele>
        <time>2022-03-22T15:08:41Z</time>
      </trkpt>
      <trkpt lat="45.1052" lon="4.29933">
        <ele>900.92</ele>
        <time>2022-03-22T15:08:45Z</time>
      </trkpt>
      <trkpt lat="45.10476" lon="4.29977">
        <ele>905.24</ele>
        <time>2022-03-22T15:08:49Z</time>
      </trkpt>
      <trkpt lat="45.1044" lon="4.30006">
        <ele>907.95</ele>
        <time>2022-03-22T15:08:53Z</time>
      </trkpt>
      <trkpt lat="45.10425" lon="4.30014">
        <ele>911.74</ele>
        <time>2022-03-22T15:08:57Z</time>
      </trkpt>
      <trkpt lat="45.10412" lon="4.30018">
        <ele>914.32</ele>
        <time>2022-03-22T15:09:00Z</time>
      </trkpt>
      <trkpt lat="45.104" lon="4.30018">
        <ele>915.04</ele>
        <time>2022-03-22T15:09:04Z</time>
      </trkpt>
      <trkpt lat="45.1037" lon="4.30012">
        <ele>914.79</ele>
        <time>2022-03-22T15:09:08Z</time>
      </trkpt>
      <trkpt lat="45.10345" lon="4.29997">
        <ele>916.33</ele>
        <time>2022-03-22T15:09:12Z</time>
      </trkpt>
      <trkpt lat="45.10331" lon="4.29984">
        <ele>918.57</ele>
        <time>2022-03-22T15:09:15Z</time>
      </trkpt>
      <trkpt lat="45.10207" lon="4.29811">
        <ele>929.64</ele>
        <time>2022-03-22T15:09:19Z</time>
      </trkpt>
      <trkpt lat="45.1007" lon="4.29625">
        <ele>938.4</ele>
        <time>2022-03-22T15:09:23Z</time>
      </trkpt>
      <trkpt lat="45.10036" lon="4.29587">
        <ele>943.45</ele>
        <time>2022-03-22T15:09:27Z</time>
      </trkpt>
      <trkpt lat="45.10004" lon="4.29562">
        <ele>944.4</ele>
        <time>2022-03-22T15:09:31Z</time>
      </trkpt>
      <trkpt lat="45.09985" lon="4.29551">
        <ele>944</ele>
        <time>2022-03-22T15:09:34Z</time>
      </trkpt>
      <trkpt lat="45.09952" lon="4.29539">
        <ele>944.31</ele>
        <time>2022-03-22T15:09:38Z</time>
      </trkpt>
      <trkpt lat="45.09928" lon="4.29535">
        <ele>945.12</ele>
        <time>2022-03-22T15:09:42Z</time>
      </trkpt>
      <trkpt lat="45.09907" lon="4.29533">
        <ele>945.87</ele>
        <time>2022-03-22T15:09:46Z</time>
      </trkpt>
      <trkpt lat="45.09869" lon="4.29539">
        <ele>947.14</ele>
        <time>2022-03-22T15:09:50Z</time>
      </trkpt>
      <trkpt lat="45.09836" lon="4.2955">
        <ele>948.09</ele>
        <time>2022-03-22T15:09:53Z</time>
      </trkpt>
      <trkpt lat="45.09808" lon="4.29568">
        <ele>948.43</ele>
        <time>2022-03-22T15:09:57Z</time>
      </trkpt>
      <trkpt lat="45.09771" lon="4.29599">
        <ele>951.33</ele>
        <time>2022-03-22T15:10:01Z</time>
      </trkpt>
      <trkpt lat="45.09457" lon="4.29988">
        <ele>958.86</ele>
        <time>2022-03-22T15:10:05Z</time>
      </trkpt>
      <trkpt lat="45.09421" lon="4.30034">
        <ele>960.03</ele>
        <time>2022-03-22T15:10:09Z</time>
      </trkpt>
      <trkpt lat="45.09392" lon="4.30086">
        <ele>958.52</ele>
        <time>2022-03-22T15:10:12Z</time>
      </trkpt>
      <trkpt lat="45.09376" lon="4.30127">
        <ele>959.89</ele>
        <time>2022-03-22T15:10:16Z</time>
      </trkpt>
      <trkpt lat="45.09049" lon="4.31146">
        <ele>992.33</ele>
        <time>2022-03-22T15:10:20Z</time>
      </trkpt>
      <trkpt lat="45.09007" lon="4.31273">
        <ele>1007.01</ele>
        <time>2022-03-22T15:10:24Z</time>
      </trkpt>
      <trkpt lat="45.08995" lon="4.31297">
        <ele>1008.47</ele>
        <time>2022-03-22T15:10:28Z</time>
      </trkpt>
      <trkpt lat="45.08982" lon="4.31318">
        <ele>1009.04</ele>
        <time>2022-03-22T15:10:31Z</time>
      </trkpt>
      <trkpt lat="45.08945" lon="4.31364">
        <ele>1008.68</ele>
        <time>2022-03-22T15:10:35Z</time>
      </trkpt>
      <trkpt lat="45.08928" lon="4.31388">
        <ele>1009.93</ele>
        <time>2022-03-22T15:10:39Z</time>
      </trkpt>
      <trkpt lat="45.08914" lon="4.31418">
        <ele>1011.8</ele>
        <time>2022-03-22T15:10:43Z</time>
      </trkpt>
      <trkpt lat="45.08867" lon="4.3153">
        <ele>1018.73</ele>
        <time>2022-03-22T15:10:46Z</time>
      </trkpt>
      <trkpt lat="45.08856" lon="4.31546">
        <ele>1018.76</ele>
        <time>2022-03-22T15:10:50Z</time>
      </trkpt>
      <trkpt lat="45.08699" lon="4.31781">
        <ele>1024.81</ele>
        <time>2022-03-22T15:10:54Z</time>
      </trkpt>
      <trkpt lat="45.08681" lon="4.31802">
        <ele>1026.93</ele>
        <time>2022-03-22T15:10:58Z</time>
      </trkpt>
      <trkpt lat="45.08607" lon="4.31872">
        <ele>1028.32</ele>
        <time>2022-03-22T15:11:02Z</time>
      </trkpt>
      <trkpt lat="45.08583" lon="4.31908">
        <ele>1030.46</ele>
        <time>2022-03-22T15:11:05Z</time>
      </trkpt>
      <trkpt lat="45.0855" lon="4.31966">
        <ele>1031.42</ele>
        <time>2022-03-22T15:11:09Z</time>
      </trkpt>
      <trkpt lat="45.08537" lon="4.31987">
        <ele>1030.89</ele>
        <time>2022-03-22T15:11:13Z</time>
      </trkpt>
      <trkpt lat="45.08526" lon="4.32">
        <ele>1030.11</ele>
        <time>2022-03-22T15:11:17Z</time>
      </trkpt>
      <trkpt lat="45.08498" lon="4.32023">
        <ele>1028.47</ele>
        <time>2022-03-22T15:11:21Z</time>
      </trkpt>
      <trkpt lat="45.08389" lon="4.32091">
        <ele>1025.99</ele>
        <time>2022-03-22T15:11:24Z</time>
      </trkpt>
      <trkpt lat="45.08372" lon="4.32105">
        <ele>1024.81</ele>
        <time>2022-03-22T15:11:28Z</time>
      </trkpt>
      <trkpt lat="45.08357" lon="4.32121">
        <ele>1023.81</ele>
        <time>2022-03-22T15:11:32Z</time>
      </trkpt>
      <trkpt lat="45.08298" lon="4.32206">
        <ele>1019.94</ele>
        <time>2022-03-22T15:11:36Z</time>
      </trkpt>
      <trkpt lat="45.0826" lon="4.32258">
        <ele>1021</ele>
        <time>2022-03-22T15:11:40Z</time>
      </trkpt>
      <trkpt lat="45.08233" lon="4.32281">
        <ele>1020.59</ele>
        <time>2022-03-22T15:11:43Z</time>
      </trkpt>
      <trkpt lat="45.08217" lon="4.32289">
        <ele>1020.51</ele>
        <time>2022-03-22T15:11:47Z</time>
      </trkpt>
      <trkpt lat="45.082" lon="4.32294">
        <ele>1020.05</ele>
        <time>2022-03-22T15:11:51Z</time>
      </trkpt>
      <trkpt lat="45.08183" lon="4.32296">
        <ele>1019.43</ele>
        <time>2022-03-22T15:11:55Z</time>
      </trkpt>
      <trkpt lat="45.08139" lon="4.32294">
        <ele>1017.61</ele>
        <time>2022-03-22T15:11:59Z</time>
      </trkpt>
      <trkpt lat="45.08122" lon="4.32289">
        <ele>1018.89</ele>
        <time>2022-03-22T15:12:02Z</time>
      </trkpt>
      <trkpt lat="45.08097" lon="4.32272">
        <ele>1020.9</ele>
        <time>2022-03-22T15:12:06Z</time>
      </trkpt>
      <trkpt lat="45.08083" lon="4.32254">
        <ele>1023.12</ele>
        <time>2022-03-22T15:12:10Z</time>
      </trkpt>
      <trkpt lat="45.08052" lon="4.32201">
        <ele>1027.29</ele>
        <time>2022-03-22T15:12:14Z</time>
      </trkpt>
      <trkpt lat="45.0804" lon="4.32186">
        <ele>1026.38</ele>
        <time>2022-03-22T15:12:17Z</time>
      </trkpt>
      <trkpt lat="45.08027" lon="4.32177">
        <ele>1025.83</ele>
        <time>2022-03-22T15:12:21Z</time>
      </trkpt>
      <trkpt lat="45.08012" lon="4.3217">
        <ele>1025.19</ele>
        <time>2022-03-22T15:12:25Z</time>
      </trkpt>
      <trkpt lat="45.07996" lon="4.32166">
        <ele>1024.93</ele>
        <time>2022-03-22T15:12:29Z</time>
      </trkpt>
      <trkpt lat="45.07981" lon="4.32166">
        <ele>1024.91</ele>
        <time>2022-03-22T15:12:33Z</time>
      </trkpt>
      <trkpt lat="45.07968" lon="4.32169">
        <ele>1024.9</ele>
        <time>2022-03-22T15:12:36Z</time>
      </trkpt>
      <trkpt lat="45.07953" lon="4.32174">
        <ele>1024.34</ele>
        <time>2022-03-22T15:12:40Z</time>
      </trkpt>
      <trkpt lat="45.07913" lon="4.32196">
        <ele>1024.14</ele>
        <time>2022-03-22T15:12:44Z</time>
      </trkpt>
      <trkpt lat="45.07884" lon="4.32202">
        <ele>1023.88</ele>
        <time>2022-03-22T15:12:48Z</time>
      </trkpt>
      <trkpt lat="45.07798" lon="4.32196">
        <ele>1028.37</ele>
        <time>2022-03-22T15:12:52Z</time>
      </trkpt>
      <trkpt lat="45.07759" lon="4.32202">
        <ele>1031.35</ele>
        <time>2022-03-22T15:12:55Z</time>
      </trkpt>
      <trkpt lat="45.07741" lon="4.32209">
        <ele>1033.57</ele>
        <time>2022-03-22T15:12:59Z</time>
      </trkpt>
      <trkpt lat="45.07671" lon="4.3225">
        <ele>1041.99</ele>
        <time>2022-03-22T15:13:03Z</time>
      </trkpt>
      <trkpt lat="45.07653" lon="4.32256">
        <ele>1042.71</ele>
        <time>2022-03-22T15:13:07Z</time>
      </trkpt>
      <trkpt lat="45.07634" lon="4.32259">
        <ele>1043.28</ele>
        <time>2022-03-22T15:13:11Z</time>
      </trkpt>
      <trkpt lat="45.07585" lon="4.32257">
        <ele>1043</ele>
        <time>2022-03-22T15:13:14Z</time>
      </trkpt>
      <trkpt lat="45.07518" lon="4.32262">
        <ele>1051.78</ele>
        <time>2022-03-22T15:13:18Z</time>
      </trkpt>
      <trkpt lat="45.07492" lon="4.32269">
        <ele>1055.16</ele>
        <time>2022-03-22T15:13:22Z</time>
      </trkpt>
      <trkpt lat="45.07473" lon="4.32276">
        <ele>1057.69</ele>
        <time>2022-03-22T15:13:26Z</time>
      </trkpt>
      <trkpt lat="45.0745" lon="4.32289">
        <ele>1058.73</ele>
        <time>2022-03-22T15:13:30Z</time>
      </trkpt>
      <trkpt lat="45.0743" lon="4.32303">
        <ele>1060.25</ele>
        <time>2022-03-22T15:13:33Z</time>
      </trkpt>
      <trkpt lat="45.07414" lon="4.32319">
        <ele>1061.19</ele>
        <time>2022-03-22T15:13:37Z</time>
      </trkpt>
      <trkpt lat="45.07395" lon="4.32341">
        <ele>1060.42</ele>
        <time>2022-03-22T15:13:41Z</time>
      </trkpt>
      <trkpt lat="45.0737" lon="4.32379">
        <ele>1061.58</ele>
        <time>2022-03-22T15:13:45Z</time>
      </trkpt>
      <trkpt lat="45.07353" lon="4.32402">
        <ele>1063.13</ele>
        <time>2022-03-22T15:13:49Z</time>
      </trkpt>
      <trkpt lat="45.07331" lon="4.32423">
        <ele>1063.63</ele>
        <time>2022-03-22T15:13:52Z</time>
      </trkpt>
      <trkpt lat="45.0727" lon="4.32481">
        <ele>1068.51</ele>
        <time>2022-03-22T15:13:55Z</time>
      </trkpt>
      <trkpt lat="45.07239" lon="4.32516">
        <ele>1067.18</ele>
        <time>2022-03-22T15:13:58Z</time>
      </trkpt>
      <trkpt lat="45.06937" lon="4.32784">
        <ele>1067.81</ele>
        <time>2022-03-22T15:14:01Z</time>
      </trkpt>
      <trkpt lat="45.06796" lon="4.32944">
        <ele>1065.85</ele>
        <time>2022-03-22T15:14:04Z</time>
      </trkpt>
      <trkpt lat="45.0678" lon="4.32953">
        <ele>1065.46</ele>
        <time>2022-03-22T15:14:07Z</time>
      </trkpt>
      <trkpt lat="45.06761" lon="4.32959">
        <ele>1065.48</ele>
        <time>2022-03-22T15:14:10Z</time>
      </trkpt>
      <trkpt lat="45.06712" lon="4.32968">
        <ele>1064.53</ele>
        <time>2022-03-22T15:14:13Z</time>
      </trkpt>
      <trkpt lat="45.06654" lon="4.32986">
        <ele>1062.36</ele>
        <time>2022-03-22T15:14:15Z</time>
      </trkpt>
      <trkpt lat="45.06503" lon="4.3304">
        <ele>1059.67</ele>
        <time>2022-03-22T15:14:18Z</time>
      </trkpt>
      <trkpt lat="45.06463" lon="4.33051">
        <ele>1056.45</ele>
        <time>2022-03-22T15:14:21Z</time>
      </trkpt>
      <trkpt lat="45.06443" lon="4.33053">
        <ele>1055.82</ele>
        <time>2022-03-22T15:14:24Z</time>
      </trkpt>
      <trkpt lat="45.06429" lon="4.33051">
        <ele>1056.03</ele>
        <time>2022-03-22T15:14:27Z</time>
      </trkpt>
      <trkpt lat="45.06402" lon="4.33039">
        <ele>1056.23</ele>
        <time>2022-03-22T15:14:30Z</time>
      </trkpt>
      <trkpt lat="45.06373" lon="4.33016">
        <ele>1057.72</ele>
        <time>2022-03-22T15:14:33Z</time>
      </trkpt>
      <trkpt lat="45.06313" lon="4.32931">
        <ele>1056.85</ele>
        <time>2022-03-22T15:14:36Z</time>
      </trkpt>
      <trkpt lat="45.063" lon="4.32915">
        <ele>1055.78</ele>
        <time>2022-03-22T15:14:38Z</time>
      </trkpt>
      <trkpt lat="45.06279" lon="4.32898">
        <ele>1053.96</ele>
        <time>2022-03-22T15:14:41Z</time>
      </trkpt>
      <trkpt lat="45.06254" lon="4.32888">
        <ele>1055.51</ele>
        <time>2022-03-22T15:14:44Z</time>
      </trkpt>
      <trkpt lat="45.06233" lon="4.32884">
        <ele>1057.41</ele>
        <time>2022-03-22T15:14:47Z</time>
      </trkpt>
      <trkpt lat="45.06126" lon="4.32888">
        <ele>1051.91</ele>
        <time>2022-03-22T15:14:50Z</time>
      </trkpt>
      <trkpt lat="45.06097" lon="4.32892">
        <ele>1052.04</ele>
        <time>2022-03-22T15:14:53Z</time>
      </trkpt>
      <trkpt lat="45.06072" lon="4.32898">
        <ele>1051.81</ele>
        <time>2022-03-22T15:14:56Z</time>
      </trkpt>
      <trkpt lat="45.0605" lon="4.32911">
        <ele>1051.14</ele>
        <time>2022-03-22T15:14:59Z</time>
      </trkpt>
      <trkpt lat="45.06023" lon="4.32932">
        <ele>1052.9</ele>
        <time>2022-03-22T15:15:01Z</time>
      </trkpt>
      <trkpt lat="45.06" lon="4.32947">
        <ele>1053.54</ele>
        <time>2022-03-22T15:15:04Z</time>
      </trkpt>
      <trkpt lat="45.05983" lon="4.32952">
        <ele>1053.74</ele>
        <time>2022-03-22T15:15:07Z</time>
      </trkpt>
      <trkpt lat="45.05893" lon="4.32962">
        <ele>1049.57</ele>
        <time>2022-03-22T15:15:10Z</time>
      </trkpt>
      <trkpt lat="45.05865" lon="4.32969">
        <ele>1047.95</ele>
        <time>2022-03-22T15:15:13Z</time>
      </trkpt>
      <trkpt lat="45.05752" lon="4.33025">
        <ele>1051.69</ele>
        <time>2022-03-22T15:15:16Z</time>
      </trkpt>
      <trkpt lat="45.05698" lon="4.33047">
        <ele>1050.22</ele>
        <time>2022-03-22T15:15:19Z</time>
      </trkpt>
      <trkpt lat="45.05464" lon="4.33088">
        <ele>1041.78</ele>
        <time>2022-03-22T15:15:22Z</time>
      </trkpt>
      <trkpt lat="45.05448" lon="4.33094">
        <ele>1041.06</ele>
        <time>2022-03-22T15:15:24Z</time>
      </trkpt>
      <trkpt lat="45.05434" lon="4.33103">
        <ele>1041</ele>
        <time>2022-03-22T15:15:27Z</time>
      </trkpt>
      <trkpt lat="45.054" lon="4.3313">
        <ele>1040.59</ele>
        <time>2022-03-22T15:15:30Z</time>
      </trkpt>
      <trkpt lat="45.05369" lon="4.3316">
        <ele>1036.9</ele>
        <time>2022-03-22T15:15:33Z</time>
      </trkpt>
      <trkpt lat="45.0535" lon="4.3318">
        <ele>1033.89</ele>
        <time>2022-03-22T15:15:36Z</time>
      </trkpt>
      <trkpt lat="45.05291" lon="4.33262">
        <ele>1029.43</ele>
        <time>2022-03-22T15:15:39Z</time>
      </trkpt>
      <trkpt lat="45.05266" lon="4.33285">
        <ele>1032.16</ele>
        <time>2022-03-22T15:15:42Z</time>
      </trkpt>
      <trkpt lat="45.05242" lon="4.33301">
        <ele>1032.96</ele>
        <time>2022-03-22T15:15:45Z</time>
      </trkpt>
      <trkpt lat="45.05197" lon="4.33317">
        <ele>1030.94</ele>
        <time>2022-03-22T15:15:47Z</time>
      </trkpt>
      <trkpt lat="45.05173" lon="4.33322">
        <ele>1028.44</ele>
        <time>2022-03-22T15:15:50Z</time>
      </trkpt>
      <trkpt lat="45.05152" lon="4.33322">
        <ele>1026.3</ele>
        <time>2022-03-22T15:15:53Z</time>
      </trkpt>
      <trkpt lat="45.05044" lon="4.33304">
        <ele>1020.16</ele>
        <time>2022-03-22T15:15:56Z</time>
      </trkpt>
      <trkpt lat="45.05022" lon="4.33305">
        <ele>1021.97</ele>
        <time>2022-03-22T15:15:59Z</time>
      </trkpt>
      <trkpt lat="45.04996" lon="4.33312">
        <ele>1021.26</ele>
        <time>2022-03-22T15:16:02Z</time>
      </trkpt>
      <trkpt lat="45.04965" lon="4.33335">
        <ele>1013.93</ele>
        <time>2022-03-22T15:16:05Z</time>
      </trkpt>
      <trkpt lat="45.04952" lon="4.33349">
        <ele>1009.44</ele>
        <time>2022-03-22T15:16:08Z</time>
      </trkpt>
      <trkpt lat="45.0494" lon="4.3337">
        <ele>1006.05</ele>
        <time>2022-03-22T15:16:10Z</time>
      </trkpt>
      <trkpt lat="45.04931" lon="4.33391">
        <ele>1004.01</ele>
        <time>2022-03-22T15:16:13Z</time>
      </trkpt>
      <trkpt lat="45.04923" lon="4.33416">
        <ele>1002.34</ele>
        <time>2022-03-22T15:16:16Z</time>
      </trkpt>
      <trkpt lat="45.04914" lon="4.33463">
        <ele>997.85</ele>
        <time>2022-03-22T15:16:19Z</time>
      </trkpt>
      <trkpt lat="45.04908" lon="4.33486">
        <ele>996.04</ele>
        <time>2022-03-22T15:16:22Z</time>
      </trkpt>
      <trkpt lat="45.04898" lon="4.3351">
        <ele>993.83</ele>
        <time>2022-03-22T15:16:25Z</time>
      </trkpt>
      <trkpt lat="45.04885" lon="4.33529">
        <ele>991.56</ele>
        <time>2022-03-22T15:16:28Z</time>
      </trkpt>
      <trkpt lat="45.0487" lon="4.33542">
        <ele>989.77</ele>
        <time>2022-03-22T15:16:31Z</time>
      </trkpt>
      <trkpt lat="45.04853" lon="4.3355">
        <ele>988.14</ele>
        <time>2022-03-22T15:16:33Z</time>
      </trkpt>
      <trkpt lat="45.04835" lon="4.33554">
        <ele>986.24</ele>
        <time>2022-03-22T15:16:36Z</time>
      </trkpt>
      <trkpt lat="45.04807" lon="4.3355">
        <ele>983.38</ele>
        <time>2022-03-22T15:16:39Z</time>
      </trkpt>
      <trkpt lat="45.0471" lon="4.33524">
        <ele>972.55</ele>
        <time>2022-03-22T15:16:42Z</time>
      </trkpt>
      <trkpt lat="45.04677" lon="4.33521">
        <ele>968.63</ele>
        <time>2022-03-22T15:16:45Z</time>
      </trkpt>
      <trkpt lat="45.04667" lon="4.33523">
        <ele>967.34</ele>
        <time>2022-03-22T15:16:48Z</time>
      </trkpt>
      <trkpt lat="45.04656" lon="4.33528">
        <ele>966.23</ele>
        <time>2022-03-22T15:16:51Z</time>
      </trkpt>
      <trkpt lat="45.04641" lon="4.33537">
        <ele>965.11</ele>
        <time>2022-03-22T15:16:54Z</time>
      </trkpt>
      <trkpt lat="45.04622" lon="4.33554">
        <ele>965</ele>
        <time>2022-03-22T15:16:56Z</time>
      </trkpt>
      <trkpt lat="45.04512" lon="4.33662">
        <ele>970.4</ele>
        <time>2022-03-22T15:16:59Z</time>
      </trkpt>
      <trkpt lat="45.04507" lon="4.33666">
        <ele>970.73</ele>
        <time>2022-03-22T15:17:02Z</time>
      </trkpt>
      <trkpt lat="45.04153" lon="4.33959">
        <ele>973.73</ele>
        <time>2022-03-22T15:17:05Z</time>
      </trkpt>
      <trkpt lat="45.04096" lon="4.34008">
        <ele>976.55</ele>
        <time>2022-03-22T15:17:08Z</time>
      </trkpt>
      <trkpt lat="45.04074" lon="4.3403">
        <ele>977</ele>
        <time>2022-03-22T15:17:11Z</time>
      </trkpt>
      <trkpt lat="45.03922" lon="4.34228">
        <ele>983.62</ele>
        <time>2022-03-22T15:17:14Z</time>
      </trkpt>
      <trkpt lat="45.03844" lon="4.34338">
        <ele>983.37</ele>
        <time>2022-03-22T15:17:17Z</time>
      </trkpt>
      <trkpt lat="45.03772" lon="4.34453">
        <ele>986.8</ele>
        <time>2022-03-22T15:17:19Z</time>
      </trkpt>
      <trkpt lat="45.03744" lon="4.34495">
        <ele>990.22</ele>
        <time>2022-03-22T15:17:22Z</time>
      </trkpt>
      <trkpt lat="45.03712" lon="4.34537">
        <ele>990.08</ele>
        <time>2022-03-22T15:17:25Z</time>
      </trkpt>
      <trkpt lat="45.03688" lon="4.34564">
        <ele>990.01</ele>
        <time>2022-03-22T15:17:28Z</time>
      </trkpt>
      <trkpt lat="45.03522" lon="4.34727">
        <ele>997.32</ele>
        <time>2022-03-22T15:17:31Z</time>
      </trkpt>
      <trkpt lat="45.035" lon="4.34745">
        <ele>997.81</ele>
        <time>2022-03-22T15:17:34Z</time>
      </trkpt>
      <trkpt lat="45.03481" lon="4.34757">
        <ele>997.6</ele>
        <time>2022-03-22T15:17:37Z</time>
      </trkpt>
      <trkpt lat="45.03421" lon="4.34788">
        <ele>999.2</ele>
        <time>2022-03-22T15:17:40Z</time>
      </trkpt>
      <trkpt lat="45.03402" lon="4.34801">
        <ele>998.85</ele>
        <time>2022-03-22T15:17:42Z</time>
      </trkpt>
      <trkpt lat="45.03389" lon="4.34816">
        <ele>998.72</ele>
        <time>2022-03-22T15:17:45Z</time>
      </trkpt>
      <trkpt lat="45.03379" lon="4.34834">
        <ele>998.35</ele>
        <time>2022-03-22T15:17:48Z</time>
      </trkpt>
      <trkpt lat="45.03373" lon="4.34852">
        <ele>998.88</ele>
        <time>2022-03-22T15:17:51Z</time>
      </trkpt>
      <trkpt lat="45.0337" lon="4.34876">
        <ele>999.77</ele>
        <time>2022-03-22T15:17:54Z</time>
      </trkpt>
      <trkpt lat="45.03364" lon="4.34952">
        <ele>1001.43</ele>
        <time>2022-03-22T15:17:57Z</time>
      </trkpt>
      <trkpt lat="45.0336" lon="4.34977">
        <ele>1003.04</ele>
        <time>2022-03-22T15:18:00Z</time>
      </trkpt>
      <trkpt lat="45.0333" lon="4.35097">
        <ele>1002.42</ele>
        <time>2022-03-22T15:18:03Z</time>
      </trkpt>
      <trkpt lat="45.03327" lon="4.35119">
        <ele>1002.27</ele>
        <time>2022-03-22T15:18:05Z</time>
      </trkpt>
      <trkpt lat="45.03326" lon="4.35141">
        <ele>1002.58</ele>
        <time>2022-03-22T15:18:08Z</time>
      </trkpt>
      <trkpt lat="45.03328" lon="4.35228">
        <ele>1007.25</ele>
        <time>2022-03-22T15:18:11Z</time>
      </trkpt>
      <trkpt lat="45.03321" lon="4.35253">
        <ele>1005.21</ele>
        <time>2022-03-22T15:18:14Z</time>
      </trkpt>
      <trkpt lat="45.03315" lon="4.35264">
        <ele>1004.27</ele>
        <time>2022-03-22T15:18:17Z</time>
      </trkpt>
      <trkpt lat="45.033" lon="4.35284">
        <ele>1003.05</ele>
        <time>2022-03-22T15:18:20Z</time>
      </trkpt>
      <trkpt lat="45.03236" lon="4.35333">
        <ele>1004.49</ele>
        <time>2022-03-22T15:18:23Z</time>
      </trkpt>
      <trkpt lat="45.03224" lon="4.35344">
        <ele>1003.67</ele>
        <time>2022-03-22T15:18:26Z</time>
      </trkpt>
      <trkpt lat="45.03215" lon="4.35356">
        <ele>1002.5</ele>
        <time>2022-03-22T15:18:28Z</time>
      </trkpt>
      <trkpt lat="45.03208" lon="4.3537">
        <ele>1001.34</ele>
        <time>2022-03-22T15:18:31Z</time>
      </trkpt>
      <trkpt lat="45.03204" lon="4.35387">
        <ele>1000.68</ele>
        <time>2022-03-22T15:18:34Z</time>
      </trkpt>
      <trkpt lat="45.03202" lon="4.35402">
        <ele>1000.23</ele>
        <time>2022-03-22T15:18:37Z</time>
      </trkpt>
      <trkpt lat="45.03204" lon="4.3542">
        <ele>1000</ele>
        <time>2022-03-22T15:18:40Z</time>
      </trkpt>
      <trkpt lat="45.03214" lon="4.35479">
        <ele>1001.42</ele>
        <time>2022-03-22T15:18:43Z</time>
      </trkpt>
      <trkpt lat="45.03215" lon="4.35493">
        <ele>1001.45</ele>
        <time>2022-03-22T15:18:46Z</time>
      </trkpt>
      <trkpt lat="45.03213" lon="4.35508">
        <ele>1001.61</ele>
        <time>2022-03-22T15:18:49Z</time>
      </trkpt>
      <trkpt lat="45.03209" lon="4.35523">
        <ele>1001.89</ele>
        <time>2022-03-22T15:18:51Z</time>
      </trkpt>
      <trkpt lat="45.03203" lon="4.35538">
        <ele>1003.33</ele>
        <time>2022-03-22T15:18:54Z</time>
      </trkpt>
      <trkpt lat="45.03194" lon="4.35551">
        <ele>1005.13</ele>
        <time>2022-03-22T15:18:57Z</time>
      </trkpt>
      <trkpt lat="45.03184" lon="4.35562">
        <ele>1005.25</ele>
        <time>2022-03-22T15:19:00Z</time>
      </trkpt>
      <trkpt lat="45.03138" lon="4.356">
        <ele>1005.7</ele>
        <time>2022-03-22T15:19:03Z</time>
      </trkpt>
      <trkpt lat="45.03125" lon="4.35606">
        <ele>1004.93</ele>
        <time>2022-03-22T15:19:06Z</time>
      </trkpt>
      <trkpt lat="45.03095" lon="4.35609">
        <ele>1002.69</ele>
        <time>2022-03-22T15:19:09Z</time>
      </trkpt>
      <trkpt lat="45.03082" lon="4.35607">
        <ele>1002</ele>
        <time>2022-03-22T15:19:12Z</time>
      </trkpt>
      <trkpt lat="45.03044" lon="4.3559">
        <ele>1005.23</ele>
        <time>2022-03-22T15:19:15Z</time>
      </trkpt>
      <trkpt lat="45.03033" lon="4.35588">
        <ele>1006.59</ele>
        <time>2022-03-22T15:19:17Z</time>
      </trkpt>
      <trkpt lat="45.03021" lon="4.35586">
        <ele>1007.22</ele>
        <time>2022-03-22T15:19:20Z</time>
      </trkpt>
      <trkpt lat="45.03007" lon="4.35588">
        <ele>1007.34</ele>
        <time>2022-03-22T15:19:23Z</time>
      </trkpt>
      <trkpt lat="45.02991" lon="4.35593">
        <ele>1006.71</ele>
        <time>2022-03-22T15:19:26Z</time>
      </trkpt>
      <trkpt lat="45.02977" lon="4.35601">
        <ele>1005.77</ele>
        <time>2022-03-22T15:19:29Z</time>
      </trkpt>
      <trkpt lat="45.02964" lon="4.35611">
        <ele>1005.4</ele>
        <time>2022-03-22T15:19:32Z</time>
      </trkpt>
      <trkpt lat="45.02953" lon="4.35623">
        <ele>1005.03</ele>
        <time>2022-03-22T15:19:35Z</time>
      </trkpt>
      <trkpt lat="45.02891" lon="4.35705">
        <ele>1006.12</ele>
        <time>2022-03-22T15:19:38Z</time>
      </trkpt>
      <trkpt lat="45.02915" lon="4.35727">
        <ele>1007.87</ele>
        <time>2022-03-22T15:19:41Z</time>
      </trkpt>
      <trkpt lat="45.02965" lon="4.3579">
        <ele>1013.3</ele>
        <time>2022-03-22T15:19:45Z</time>
      </trkpt>
      <trkpt lat="45.0304" lon="4.35973">
        <ele>1021.45</ele>
        <time>2022-03-22T15:19:49Z</time>
      </trkpt>
      <trkpt lat="45.03051" lon="4.3599">
        <ele>1022.33</ele>
        <time>2022-03-22T15:19:53Z</time>
      </trkpt>
      <trkpt lat="45.03106" lon="4.36013">
        <ele>1026.1</ele>
        <time>2022-03-22T15:19:57Z</time>
      </trkpt>
      <trkpt lat="45.03119" lon="4.36013">
        <ele>1027.24</ele>
        <time>2022-03-22T15:20:01Z</time>
      </trkpt>
      <trkpt lat="45.03128" lon="4.3601">
        <ele>1028.05</ele>
        <time>2022-03-22T15:20:05Z</time>
      </trkpt>
      <trkpt lat="45.03137" lon="4.36003">
        <ele>1028.88</ele>
        <time>2022-03-22T15:20:09Z</time>
      </trkpt>
      <trkpt lat="45.0314" lon="4.36003">
        <ele>1029.03</ele>
        <time>2022-03-22T15:20:13Z</time>
      </trkpt>
      <trkpt lat="45.03145" lon="4.36008">
        <ele>1029.22</ele>
        <time>2022-03-22T15:20:16Z</time>
      </trkpt>
      <trkpt lat="45.03159" lon="4.36031">
        <ele>1029.73</ele>
        <time>2022-03-22T15:20:20Z</time>
      </trkpt>
      <trkpt lat="45.03172" lon="4.36033">
        <ele>1030.2</ele>
        <time>2022-03-22T15:20:24Z</time>
      </trkpt>
      <trkpt lat="45.03182" lon="4.36042">
        <ele>1030.56</ele>
        <time>2022-03-22T15:20:28Z</time>
      </trkpt>
      <trkpt lat="45.03186" lon="4.36059">
        <ele>1030.8</ele>
        <time>2022-03-22T15:20:32Z</time>
      </trkpt>
      <trkpt lat="45.03189" lon="4.36107">
        <ele>1031.64</ele>
        <time>2022-03-22T15:20:36Z</time>
      </trkpt>
      <trkpt lat="45.03195" lon="4.36154">
        <ele>1032.04</ele>
        <time>2022-03-22T15:20:40Z</time>
      </trkpt>
      <trkpt lat="45.0322" lon="4.36181">
        <ele>1033.82</ele>
        <time>2022-03-22T15:20:44Z</time>
      </trkpt>
      <trkpt lat="45.03248" lon="4.36197">
        <ele>1035.96</ele>
        <time>2022-03-22T15:20:48Z</time>
      </trkpt>
      <trkpt lat="45.03256" lon="4.36206">
        <ele>1037.1</ele>
        <time>2022-03-22T15:20:51Z</time>
      </trkpt>
      <trkpt lat="45.03261" lon="4.36228">
        <ele>1038.29</ele>
        <time>2022-03-22T15:20:55Z</time>
      </trkpt>
      <trkpt lat="45.03263" lon="4.36265">
        <ele>1039.16</ele>
        <time>2022-03-22T15:20:59Z</time>
      </trkpt>
      <trkpt lat="45.03267" lon="4.36303">
        <ele>1040.73</ele>
        <time>2022-03-22T15:21:03Z</time>
      </trkpt>
      <trkpt lat="45.03287" lon="4.36384">
        <ele>1046.21</ele>
        <time>2022-03-22T15:21:07Z</time>
      </trkpt>
      <trkpt lat="45.03294" lon="4.3641">
        <ele>1047.95</ele>
        <time>2022-03-22T15:21:11Z</time>
      </trkpt>
      <trkpt lat="45.03318" lon="4.36446">
        <ele>1051.13</ele>
        <time>2022-03-22T15:21:15Z</time>
      </trkpt>
      <trkpt lat="45.03335" lon="4.36523">
        <ele>1053.25</ele>
        <time>2022-03-22T15:21:19Z</time>
      </trkpt>
      <trkpt lat="45.03344" lon="4.36544">
        <ele>1052.81</ele>
        <time>2022-03-22T15:21:23Z</time>
      </trkpt>
      <trkpt lat="45.03431" lon="4.36667">
        <ele>1051.52</ele>
        <time>2022-03-22T15:21:26Z</time>
      </trkpt>
      <trkpt lat="45.03453" lon="4.36709">
        <ele>1056.48</ele>
        <time>2022-03-22T15:21:30Z</time>
      </trkpt>
      <trkpt lat="45.0334" lon="4.37122">
        <ele>1053.23</ele>
        <time>2022-03-22T15:21:36Z</time>
      </trkpt>
      <trkpt lat="45.03282" lon="4.37326">
        <ele>1055.77</ele>
        <time>2022-03-22T15:21:41Z</time>
      </trkpt>
      <trkpt lat="45.03248" lon="4.37418">
        <ele>1055.06</ele>
        <time>2022-03-22T15:21:46Z</time>
      </trkpt>
      <trkpt lat="45.03215" lon="4.37492">
        <ele>1059.16</ele>
        <time>2022-03-22T15:21:52Z</time>
      </trkpt>
      <trkpt lat="45.03168" lon="4.37579">
        <ele>1059.95</ele>
        <time>2022-03-22T15:21:57Z</time>
      </trkpt>
      <trkpt lat="45.03122" lon="4.37654">
        <ele>1061.85</ele>
        <time>2022-03-22T15:22:02Z</time>
      </trkpt>
      <trkpt lat="45.03094" lon="4.3769">
        <ele>1061.61</ele>
        <time>2022-03-22T15:22:08Z</time>
      </trkpt>
      <trkpt lat="45.03033" lon="4.3776">
        <ele>1061.19</ele>
        <time>2022-03-22T15:22:13Z</time>
      </trkpt>
      <trkpt lat="45.02987" lon="4.37803">
        <ele>1058.54</ele>
        <time>2022-03-22T15:22:18Z</time>
      </trkpt>
      <trkpt lat="45.02961" lon="4.37824">
        <ele>1058.13</ele>
        <time>2022-03-22T15:22:24Z</time>
      </trkpt>
      <trkpt lat="45.02905" lon="4.37863">
        <ele>1055.58</ele>
        <time>2022-03-22T15:22:29Z</time>
      </trkpt>
      <trkpt lat="45.02877" lon="4.37881">
        <ele>1054.44</ele>
        <time>2022-03-22T15:22:34Z</time>
      </trkpt>
      <trkpt lat="45.0285" lon="4.37896">
        <ele>1053.7</ele>
        <time>2022-03-22T15:22:40Z</time>
      </trkpt>
      <trkpt lat="45.02751" lon="4.37938">
        <ele>1051.27</ele>
        <time>2022-03-22T15:22:45Z</time>
      </trkpt>
      <trkpt lat="45.02703" lon="4.37953">
        <ele>1049.21</ele>
        <time>2022-03-22T15:22:50Z</time>
      </trkpt>
      <trkpt lat="45.02586" lon="4.37985">
        <ele>1042.21</ele>
        <time>2022-03-22T15:22:56Z</time>
      </trkpt>
      <trkpt lat="45.02519" lon="4.38006">
        <ele>1041.76</ele>
        <time>2022-03-22T15:23:01Z</time>
      </trkpt>
      <trkpt lat="45.02474" lon="4.38017">
        <ele>1041.1</ele>
        <time>2022-03-22T15:23:06Z</time>
      </trkpt>
      <trkpt lat="45.02474" lon="4.38017">
        <ele>1041.1</ele>
        <time>2022-03-22T15:23:06Z</time>
      </trkpt>
      <trkpt lat="45.02339" lon="4.38057">
        <ele>1034.16</ele>
        <time>2022-03-22T15:23:10Z</time>
      </trkpt>
      <trkpt lat="45.02307" lon="4.38072">
        <ele>1033.01</ele>
        <time>2022-03-22T15:23:14Z</time>
      </trkpt>
      <trkpt lat="45.0229" lon="4.38083">
        <ele>1031.86</ele>
        <time>2022-03-22T15:23:18Z</time>
      </trkpt>
      <trkpt lat="45.02275" lon="4.381">
        <ele>1030</ele>
        <time>2022-03-22T15:23:21Z</time>
      </trkpt>
      <trkpt lat="45.02243" lon="4.38147">
        <ele>1026.5</ele>
        <time>2022-03-22T15:23:25Z</time>
      </trkpt>
      <trkpt lat="45.02229" lon="4.38171">
        <ele>1025.54</ele>
        <time>2022-03-22T15:23:29Z</time>
      </trkpt>
      <trkpt lat="45.02186" lon="4.38282">
        <ele>1021.72</ele>
        <time>2022-03-22T15:23:32Z</time>
      </trkpt>
      <trkpt lat="45.02177" lon="4.38314">
        <ele>1019.58</ele>
        <time>2022-03-22T15:23:36Z</time>
      </trkpt>
      <trkpt lat="45.02166" lon="4.38359">
        <ele>1017.15</ele>
        <time>2022-03-22T15:23:40Z</time>
      </trkpt>
      <trkpt lat="45.02149" lon="4.38457">
        <ele>1016.74</ele>
        <time>2022-03-22T15:23:44Z</time>
      </trkpt>
      <trkpt lat="45.02143" lon="4.38466">
        <ele>1018.14</ele>
        <time>2022-03-22T15:23:47Z</time>
      </trkpt>
      <trkpt lat="45.02133" lon="4.38471">
        <ele>1020.17</ele>
        <time>2022-03-22T15:23:51Z</time>
      </trkpt>
      <trkpt lat="45.0214" lon="4.38502">
        <ele>1018.67</ele>
        <time>2022-03-22T15:23:54Z</time>
      </trkpt>
      <trkpt lat="45.02151" lon="4.38625">
        <ele>1017.03</ele>
        <time>2022-03-22T15:23:58Z</time>
      </trkpt>
      <trkpt lat="45.02154" lon="4.38669">
        <ele>1018.79</ele>
        <time>2022-03-22T15:24:01Z</time>
      </trkpt>
      <trkpt lat="45.02158" lon="4.38797">
        <ele>1020.19</ele>
        <time>2022-03-22T15:24:04Z</time>
      </trkpt>
      <trkpt lat="45.02157" lon="4.38854">
        <ele>1018.79</ele>
        <time>2022-03-22T15:24:08Z</time>
      </trkpt>
      <trkpt lat="45.02132" lon="4.38971">
        <ele>1019.31</ele>
        <time>2022-03-22T15:24:11Z</time>
      </trkpt>
      <trkpt lat="45.02127" lon="4.38986">
        <ele>1018.45</ele>
        <time>2022-03-22T15:24:15Z</time>
      </trkpt>
      <trkpt lat="45.0212" lon="4.39003">
        <ele>1017.5</ele>
        <time>2022-03-22T15:24:18Z</time>
      </trkpt>
      <trkpt lat="45.02113" lon="4.39013">
        <ele>1016.62</ele>
        <time>2022-03-22T15:24:21Z</time>
      </trkpt>
      <trkpt lat="45.02092" lon="4.39032">
        <ele>1015.57</ele>
        <time>2022-03-22T15:24:25Z</time>
      </trkpt>
      <trkpt lat="45.02058" lon="4.3905">
        <ele>1017.1</ele>
        <time>2022-03-22T15:24:28Z</time>
      </trkpt>
      <trkpt lat="45.02036" lon="4.39066">
        <ele>1018.03</ele>
        <time>2022-03-22T15:24:31Z</time>
      </trkpt>
      <trkpt lat="45.01988" lon="4.3911">
        <ele>1017.08</ele>
        <time>2022-03-22T15:24:35Z</time>
      </trkpt>
      <trkpt lat="45.01973" lon="4.39126">
        <ele>1016.7</ele>
        <time>2022-03-22T15:24:38Z</time>
      </trkpt>
      <trkpt lat="45.01965" lon="4.39139">
        <ele>1017.29</ele>
        <time>2022-03-22T15:24:41Z</time>
      </trkpt>
      <trkpt lat="45.01959" lon="4.39154">
        <ele>1018.24</ele>
        <time>2022-03-22T15:24:45Z</time>
      </trkpt>
      <trkpt lat="45.01939" lon="4.39206">
        <ele>1018.25</ele>
        <time>2022-03-22T15:24:48Z</time>
      </trkpt>
      <trkpt lat="45.01932" lon="4.39216">
        <ele>1017.18</ele>
        <time>2022-03-22T15:24:52Z</time>
      </trkpt>
      <trkpt lat="45.01918" lon="4.39222">
        <ele>1015.24</ele>
        <time>2022-03-22T15:24:55Z</time>
      </trkpt>
      <trkpt lat="45.01906" lon="4.39219">
        <ele>1017.25</ele>
        <time>2022-03-22T15:24:58Z</time>
      </trkpt>
      <trkpt lat="45.01899" lon="4.39213">
        <ele>1018.94</ele>
        <time>2022-03-22T15:25:02Z</time>
      </trkpt>
      <trkpt lat="45.01884" lon="4.39186">
        <ele>1024.74</ele>
        <time>2022-03-22T15:25:05Z</time>
      </trkpt>
      <trkpt lat="45.0188" lon="4.39177">
        <ele>1026.41</ele>
        <time>2022-03-22T15:25:08Z</time>
      </trkpt>
      <trkpt lat="45.0188" lon="4.39168">
        <ele>1026.45</ele>
        <time>2022-03-22T15:25:12Z</time>
      </trkpt>
      <trkpt lat="45.01882" lon="4.39151">
        <ele>1025.54</ele>
        <time>2022-03-22T15:25:15Z</time>
      </trkpt>
      <trkpt lat="45.01913" lon="4.39025">
        <ele>1024.78</ele>
        <time>2022-03-22T15:25:18Z</time>
      </trkpt>
      <trkpt lat="45.01917" lon="4.38989">
        <ele>1024.7</ele>
        <time>2022-03-22T15:25:22Z</time>
      </trkpt>
      <trkpt lat="45.01916" lon="4.38972">
        <ele>1026.24</ele>
        <time>2022-03-22T15:25:25Z</time>
      </trkpt>
      <trkpt lat="45.01913" lon="4.38957">
        <ele>1027.17</ele>
        <time>2022-03-22T15:25:29Z</time>
      </trkpt>
      <trkpt lat="45.01905" lon="4.38936">
        <ele>1027.91</ele>
        <time>2022-03-22T15:25:32Z</time>
      </trkpt>
      <trkpt lat="45.01881" lon="4.38885">
        <ele>1028.32</ele>
        <time>2022-03-22T15:25:35Z</time>
      </trkpt>
      <trkpt lat="45.01863" lon="4.38855">
        <ele>1030.21</ele>
        <time>2022-03-22T15:25:39Z</time>
      </trkpt>
      <trkpt lat="45.0184" lon="4.38831">
        <ele>1033.77</ele>
        <time>2022-03-22T15:25:42Z</time>
      </trkpt>
      <trkpt lat="45.01764" lon="4.3877">
        <ele>1042.23</ele>
        <time>2022-03-22T15:25:45Z</time>
      </trkpt>
      <trkpt lat="45.0175" lon="4.3876">
        <ele>1042.11</ele>
        <time>2022-03-22T15:25:49Z</time>
      </trkpt>
      <trkpt lat="45.01735" lon="4.38753">
        <ele>1041.16</ele>
        <time>2022-03-22T15:25:52Z</time>
      </trkpt>
      <trkpt lat="45.01717" lon="4.38748">
        <ele>1040.24</ele>
        <time>2022-03-22T15:25:56Z</time>
      </trkpt>
      <trkpt lat="45.0161" lon="4.38732">
        <ele>1039.73</ele>
        <time>2022-03-22T15:25:59Z</time>
      </trkpt>
      <trkpt lat="45.01571" lon="4.38731">
        <ele>1043.07</ele>
        <time>2022-03-22T15:26:02Z</time>
      </trkpt>
      <trkpt lat="45.0154" lon="4.38738">
        <ele>1046.81</ele>
        <time>2022-03-22T15:26:06Z</time>
      </trkpt>
      <trkpt lat="45.01497" lon="4.38757">
        <ele>1051.93</ele>
        <time>2022-03-22T15:26:09Z</time>
      </trkpt>
      <trkpt lat="45.0148" lon="4.38769">
        <ele>1051.78</ele>
        <time>2022-03-22T15:26:12Z</time>
      </trkpt>
      <trkpt lat="45.01468" lon="4.38774">
        <ele>1051.86</ele>
        <time>2022-03-22T15:26:16Z</time>
      </trkpt>
      <trkpt lat="45.01463" lon="4.38774">
        <ele>1051.85</ele>
        <time>2022-03-22T15:26:22Z</time>
      </trkpt>
      <trkpt lat="45.01398" lon="4.38743">
        <ele>1050.16</ele>
        <time>2022-03-22T15:26:27Z</time>
      </trkpt>
      <trkpt lat="45.01377" lon="4.38738">
        <ele>1049.31</ele>
        <time>2022-03-22T15:26:33Z</time>
      </trkpt>
      <trkpt lat="45.01355" lon="4.38737">
        <ele>1047.83</ele>
        <time>2022-03-22T15:26:39Z</time>
      </trkpt>
      <trkpt lat="45.01353" lon="4.38737">
        <ele>1047.59</ele>
        <time>2022-03-22T15:26:45Z</time>
      </trkpt>
      <trkpt lat="45.01115" lon="4.38762">
        <ele>1037.26</ele>
        <time>2022-03-22T15:26:51Z</time>
      </trkpt>
      <trkpt lat="45.0109" lon="4.38773">
        <ele>1036.1</ele>
        <time>2022-03-22T15:26:57Z</time>
      </trkpt>
      <trkpt lat="45.01034" lon="4.38808">
        <ele>1036.25</ele>
        <time>2022-03-22T15:27:02Z</time>
      </trkpt>
      <trkpt lat="45.01009" lon="4.38831">
        <ele>1035.24</ele>
        <time>2022-03-22T15:27:08Z</time>
      </trkpt>
      <trkpt lat="45.00991" lon="4.38851">
        <ele>1035.65</ele>
        <time>2022-03-22T15:27:14Z</time>
      </trkpt>
      <trkpt lat="45.00969" lon="4.38881">
        <ele>1036.49</ele>
        <time>2022-03-22T15:27:20Z</time>
      </trkpt>
      <trkpt lat="45.00952" lon="4.38909">
        <ele>1037.52</ele>
        <time>2022-03-22T15:27:26Z</time>
      </trkpt>
      <trkpt lat="45.00937" lon="4.38941">
        <ele>1039.73</ele>
        <time>2022-03-22T15:27:32Z</time>
      </trkpt>
      <trkpt lat="45.00927" lon="4.38967">
        <ele>1041.62</ele>
        <time>2022-03-22T15:27:37Z</time>
      </trkpt>
      <trkpt lat="45.00919" lon="4.38994">
        <ele>1042.77</ele>
        <time>2022-03-22T15:27:43Z</time>
      </trkpt>
      <trkpt lat="45.00868" lon="4.39189">
        <ele>1049</ele>
        <time>2022-03-22T15:27:49Z</time>
      </trkpt>
      <trkpt lat="45.00832" lon="4.39314">
        <ele>1048.6</ele>
        <time>2022-03-22T15:27:55Z</time>
      </trkpt>
      <trkpt lat="45.00815" lon="4.39354">
        <ele>1045.25</ele>
        <time>2022-03-22T15:28:01Z</time>
      </trkpt>
      <trkpt lat="45.00734" lon="4.39487">
        <ele>1042.4</ele>
        <time>2022-03-22T15:28:07Z</time>
      </trkpt>
      <trkpt lat="45.00702" lon="4.39546">
        <ele>1042.41</ele>
        <time>2022-03-22T15:28:12Z</time>
      </trkpt>
      <trkpt lat="45.00691" lon="4.39573">
        <ele>1043.69</ele>
        <time>2022-03-22T15:28:18Z</time>
      </trkpt>
      <trkpt lat="45.00667" lon="4.39644">
        <ele>1047.09</ele>
        <time>2022-03-22T15:28:24Z</time>
      </trkpt>
      <trkpt lat="45.00605" lon="4.39863">
        <ele>1048.34</ele>
        <time>2022-03-22T15:28:30Z</time>
      </trkpt>
      <trkpt lat="45.00599" lon="4.39887">
        <ele>1047.03</ele>
        <time>2022-03-22T15:28:36Z</time>
      </trkpt>
      <trkpt lat="45.00596" lon="4.39914">
        <ele>1045.7</ele>
        <time>2022-03-22T15:28:42Z</time>
      </trkpt>
      <trkpt lat="45.00594" lon="4.39944">
        <ele>1044.9</ele>
        <time>2022-03-22T15:28:47Z</time>
      </trkpt>
      <trkpt lat="45.00594" lon="4.39976">
        <ele>1043.65</ele>
        <time>2022-03-22T15:28:53Z</time>
      </trkpt>
      <trkpt lat="45.00604" lon="4.40164">
        <ele>1038.05</ele>
        <time>2022-03-22T15:28:59Z</time>
      </trkpt>
      <trkpt lat="45.00606" lon="4.40198">
        <ele>1039.86</ele>
        <time>2022-03-22T15:29:05Z</time>
      </trkpt>
      <trkpt lat="45.00603" lon="4.40217">
        <ele>1040.82</ele>
        <time>2022-03-22T15:29:11Z</time>
      </trkpt>
      <trkpt lat="45.00599" lon="4.40222">
        <ele>1040.67</ele>
        <time>2022-03-22T15:29:17Z</time>
      </trkpt>
      <trkpt lat="45.00563" lon="4.40241">
        <ele>1039.62</ele>
        <time>2022-03-22T15:29:23Z</time>
      </trkpt>
      <trkpt lat="45.00556" lon="4.40247">
        <ele>1039.77</ele>
        <time>2022-03-22T15:29:30Z</time>
      </trkpt>
      <trkpt lat="45.00426" lon="4.40296">
        <ele>1036.52</ele>
        <time>2022-03-22T15:29:36Z</time>
      </trkpt>
      <trkpt lat="45.00338" lon="4.40317">
        <ele>1034.15</ele>
        <time>2022-03-22T15:29:43Z</time>
      </trkpt>
      <trkpt lat="45.00306" lon="4.4032">
        <ele>1034.52</ele>
        <time>2022-03-22T15:29:49Z</time>
      </trkpt>
      <trkpt lat="45.00305" lon="4.40326">
        <ele>1034.77</ele>
        <time>2022-03-22T15:29:57Z</time>
      </trkpt>
      <trkpt lat="45.00301" lon="4.4033">
        <ele>1035.05</ele>
        <time>2022-03-22T15:30:04Z</time>
      </trkpt>
      <trkpt lat="45.00236" lon="4.40339">
        <ele>1036.8</ele>
        <time>2022-03-22T15:30:11Z</time>
      </trkpt>
      <trkpt lat="45.00221" lon="4.40344">
        <ele>1036.73</ele>
        <time>2022-03-22T15:30:19Z</time>
      </trkpt>
      <trkpt lat="45.00151" lon="4.4039">
        <ele>1041.04</ele>
        <time>2022-03-22T15:30:26Z</time>
      </trkpt>
      <trkpt lat="45.00128" lon="4.40411">
        <ele>1040.98</ele>
        <time>2022-03-22T15:30:34Z</time>
      </trkpt>
      <trkpt lat="45.00096" lon="4.40445">
        <ele>1039.88</ele>
        <time>2022-03-22T15:30:41Z</time>
      </trkpt>
      <trkpt lat="45.00052" lon="4.40492">
        <ele>1035.41</ele>
        <time>2022-03-22T15:30:49Z</time>
      </trkpt>
      <trkpt lat="44.99977" lon="4.40559">
        <ele>1032.46</ele>
        <time>2022-03-22T15:30:56Z</time>
      </trkpt>
      <trkpt lat="44.99878" lon="4.40676">
        <ele>1050.19</ele>
        <time>2022-03-22T15:31:04Z</time>
      </trkpt>
      <trkpt lat="44.99836" lon="4.40741">
        <ele>1050.31</ele>
        <time>2022-03-22T15:31:11Z</time>
      </trkpt>
      <trkpt lat="44.99532" lon="4.4113">
        <ele>1029.67</ele>
        <time>2022-03-22T15:31:18Z</time>
      </trkpt>
      <trkpt lat="44.99396" lon="4.41298">
        <ele>1029</ele>
        <time>2022-03-22T15:31:26Z</time>
      </trkpt>
      <trkpt lat="44.98988" lon="4.41819">
        <ele>1046.48</ele>
        <time>2022-03-22T15:31:33Z</time>
      </trkpt>
      <trkpt lat="44.98958" lon="4.41847">
        <ele>1045.3</ele>
        <time>2022-03-22T15:31:41Z</time>
      </trkpt>
      <trkpt lat="44.98826" lon="4.41958">
        <ele>1055.35</ele>
        <time>2022-03-22T15:31:48Z</time>
      </trkpt>
      <trkpt lat="44.98758" lon="4.42022">
        <ele>1056.77</ele>
        <time>2022-03-22T15:31:56Z</time>
      </trkpt>
      <trkpt lat="44.98688" lon="4.42102">
        <ele>1058.24</ele>
        <time>2022-03-22T15:32:03Z</time>
      </trkpt>
      <trkpt lat="44.98575" lon="4.42236">
        <ele>1058.8</ele>
        <time>2022-03-22T15:32:11Z</time>
      </trkpt>
      <trkpt lat="44.98544" lon="4.42277">
        <ele>1059.42</ele>
        <time>2022-03-22T15:32:18Z</time>
      </trkpt>
      <trkpt lat="44.98531" lon="4.42302">
        <ele>1059.87</ele>
        <time>2022-03-22T15:32:25Z</time>
      </trkpt>
      <trkpt lat="44.98515" lon="4.42342">
        <ele>1061</ele>
        <time>2022-03-22T15:32:33Z</time>
      </trkpt>
      <trkpt lat="44.98467" lon="4.42536">
        <ele>1064.07</ele>
        <time>2022-03-22T15:32:40Z</time>
      </trkpt>
      <trkpt lat="44.9846" lon="4.42578">
        <ele>1063.08</ele>
        <time>2022-03-22T15:32:48Z</time>
      </trkpt>
      <trkpt lat="44.98452" lon="4.42639">
        <ele>1060.52</ele>
        <time>2022-03-22T15:32:55Z</time>
      </trkpt>
      <trkpt lat="44.98435" lon="4.42702">
        <ele>1057.76</ele>
        <time>2022-03-22T15:33:03Z</time>
      </trkpt>
      <trkpt lat="44.98405" lon="4.42785">
        <ele>1059.7</ele>
        <time>2022-03-22T15:33:10Z</time>
      </trkpt>
      <trkpt lat="44.98402" lon="4.42782">
        <ele>1059.55</ele>
        <time>2022-03-22T15:33:12Z</time>
      </trkpt>
      <trkpt lat="44.98394" lon="4.42784">
        <ele>1059.36</ele>
        <time>2022-03-22T15:33:15Z</time>
      </trkpt>
      <trkpt lat="44.98352" lon="4.42814">
        <ele>1058.13</ele>
        <time>2022-03-22T15:33:17Z</time>
      </trkpt>
      <trkpt lat="44.98226" lon="4.42869">
        <ele>1050.93</ele>
        <time>2022-03-22T15:33:19Z</time>
      </trkpt>
      <trkpt lat="44.98185" lon="4.42881">
        <ele>1051.77</ele>
        <time>2022-03-22T15:33:22Z</time>
      </trkpt>
      <trkpt lat="44.98172" lon="4.4288">
        <ele>1053.14</ele>
        <time>2022-03-22T15:33:24Z</time>
      </trkpt>
      <trkpt lat="44.98156" lon="4.42875">
        <ele>1054.51</ele>
        <time>2022-03-22T15:33:26Z</time>
      </trkpt>
      <trkpt lat="44.98141" lon="4.42866">
        <ele>1055.75</ele>
        <time>2022-03-22T15:33:29Z</time>
      </trkpt>
      <trkpt lat="44.98118" lon="4.42827">
        <ele>1055.74</ele>
        <time>2022-03-22T15:33:31Z</time>
      </trkpt>
      <trkpt lat="44.98103" lon="4.42809">
        <ele>1055.44</ele>
        <time>2022-03-22T15:33:33Z</time>
      </trkpt>
      <trkpt lat="44.97974" lon="4.42702">
        <ele>1046.59</ele>
        <time>2022-03-22T15:33:35Z</time>
      </trkpt>
      <trkpt lat="44.9793" lon="4.42688">
        <ele>1046.26</ele>
        <time>2022-03-22T15:33:38Z</time>
      </trkpt>
      <trkpt lat="44.97912" lon="4.42685">
        <ele>1046.44</ele>
        <time>2022-03-22T15:33:40Z</time>
      </trkpt>
      <trkpt lat="44.97867" lon="4.42689">
        <ele>1045.61</ele>
        <time>2022-03-22T15:33:42Z</time>
      </trkpt>
      <trkpt lat="44.97825" lon="4.42683">
        <ele>1042.56</ele>
        <time>2022-03-22T15:33:45Z</time>
      </trkpt>
      <trkpt lat="44.9781" lon="4.42677">
        <ele>1041.83</ele>
        <time>2022-03-22T15:33:47Z</time>
      </trkpt>
      <trkpt lat="44.97797" lon="4.42676">
        <ele>1041.46</ele>
        <time>2022-03-22T15:33:49Z</time>
      </trkpt>
      <trkpt lat="44.97781" lon="4.42681">
        <ele>1041.61</ele>
        <time>2022-03-22T15:33:52Z</time>
      </trkpt>
      <trkpt lat="44.97729" lon="4.42706">
        <ele>1041.64</ele>
        <time>2022-03-22T15:33:54Z</time>
      </trkpt>
      <trkpt lat="44.97694" lon="4.42711">
        <ele>1040.15</ele>
        <time>2022-03-22T15:33:56Z</time>
      </trkpt>
      <trkpt lat="44.97677" lon="4.42706">
        <ele>1038.56</ele>
        <time>2022-03-22T15:33:58Z</time>
      </trkpt>
      <trkpt lat="44.97661" lon="4.42691">
        <ele>1036.73</ele>
        <time>2022-03-22T15:34:01Z</time>
      </trkpt>
      <trkpt lat="44.97657" lon="4.42671">
        <ele>1035.29</ele>
        <time>2022-03-22T15:34:03Z</time>
      </trkpt>
      <trkpt lat="44.97658" lon="4.42655">
        <ele>1034.57</ele>
        <time>2022-03-22T15:34:05Z</time>
      </trkpt>
      <trkpt lat="44.97677" lon="4.42589">
        <ele>1032.56</ele>
        <time>2022-03-22T15:34:08Z</time>
      </trkpt>
      <trkpt lat="44.97679" lon="4.42564">
        <ele>1032.15</ele>
        <time>2022-03-22T15:34:10Z</time>
      </trkpt>
      <trkpt lat="44.97674" lon="4.4253">
        <ele>1032.96</ele>
        <time>2022-03-22T15:34:12Z</time>
      </trkpt>
      <trkpt lat="44.9766" lon="4.42491">
        <ele>1034</ele>
        <time>2022-03-22T15:34:15Z</time>
      </trkpt>
      <trkpt lat="44.97625" lon="4.42411">
        <ele>1033.21</ele>
        <time>2022-03-22T15:34:17Z</time>
      </trkpt>
      <trkpt lat="44.97574" lon="4.42308">
        <ele>1034.87</ele>
        <time>2022-03-22T15:34:19Z</time>
      </trkpt>
      <trkpt lat="44.97547" lon="4.42237">
        <ele>1032.82</ele>
        <time>2022-03-22T15:34:21Z</time>
      </trkpt>
      <trkpt lat="44.97536" lon="4.42219">
        <ele>1032.57</ele>
        <time>2022-03-22T15:34:24Z</time>
      </trkpt>
      <trkpt lat="44.97522" lon="4.4221">
        <ele>1031.68</ele>
        <time>2022-03-22T15:34:26Z</time>
      </trkpt>
      <trkpt lat="44.97502" lon="4.4221">
        <ele>1030.55</ele>
        <time>2022-03-22T15:34:28Z</time>
      </trkpt>
      <trkpt lat="44.97462" lon="4.42217">
        <ele>1029.05</ele>
        <time>2022-03-22T15:34:31Z</time>
      </trkpt>
      <trkpt lat="44.97415" lon="4.4222">
        <ele>1025.81</ele>
        <time>2022-03-22T15:34:33Z</time>
      </trkpt>
      <trkpt lat="44.9736" lon="4.42227">
        <ele>1023.03</ele>
        <time>2022-03-22T15:34:35Z</time>
      </trkpt>
      <trkpt lat="44.97301" lon="4.42245">
        <ele>1018.8</ele>
        <time>2022-03-22T15:34:38Z</time>
      </trkpt>
      <trkpt lat="44.97238" lon="4.42258">
        <ele>1021.33</ele>
        <time>2022-03-22T15:34:40Z</time>
      </trkpt>
      <trkpt lat="44.97208" lon="4.4226">
        <ele>1024.31</ele>
        <time>2022-03-22T15:34:42Z</time>
      </trkpt>
      <trkpt lat="44.97184" lon="4.42257">
        <ele>1026.14</ele>
        <time>2022-03-22T15:34:44Z</time>
      </trkpt>
      <trkpt lat="44.97154" lon="4.42248">
        <ele>1028.92</ele>
        <time>2022-03-22T15:34:47Z</time>
      </trkpt>
      <trkpt lat="44.97139" lon="4.42232">
        <ele>1031.61</ele>
        <time>2022-03-22T15:34:49Z</time>
      </trkpt>
      <trkpt lat="44.9712" lon="4.42177">
        <ele>1037.14</ele>
        <time>2022-03-22T15:34:51Z</time>
      </trkpt>
      <trkpt lat="44.97106" lon="4.42134">
        <ele>1038.34</ele>
        <time>2022-03-22T15:34:54Z</time>
      </trkpt>
      <trkpt lat="44.97099" lon="4.42116">
        <ele>1039.44</ele>
        <time>2022-03-22T15:34:56Z</time>
      </trkpt>
      <trkpt lat="44.97086" lon="4.42095">
        <ele>1041.36</ele>
        <time>2022-03-22T15:34:58Z</time>
      </trkpt>
      <trkpt lat="44.97062" lon="4.42047">
        <ele>1041</ele>
        <time>2022-03-22T15:35:01Z</time>
      </trkpt>
      <trkpt lat="44.97045" lon="4.42023">
        <ele>1039.91</ele>
        <time>2022-03-22T15:35:03Z</time>
      </trkpt>
      <trkpt lat="44.97023" lon="4.42003">
        <ele>1038.89</ele>
        <time>2022-03-22T15:35:05Z</time>
      </trkpt>
      <trkpt lat="44.97012" lon="4.41997">
        <ele>1039.58</ele>
        <time>2022-03-22T15:35:07Z</time>
      </trkpt>
      <trkpt lat="44.9694" lon="4.41977">
        <ele>1045.53</ele>
        <time>2022-03-22T15:35:10Z</time>
      </trkpt>
      <trkpt lat="44.96918" lon="4.41967">
        <ele>1044.65</ele>
        <time>2022-03-22T15:35:12Z</time>
      </trkpt>
      <trkpt lat="44.96894" lon="4.41952">
        <ele>1044.95</ele>
        <time>2022-03-22T15:35:14Z</time>
      </trkpt>
      <trkpt lat="44.96844" lon="4.41884">
        <ele>1051.46</ele>
        <time>2022-03-22T15:35:17Z</time>
      </trkpt>
      <trkpt lat="44.96831" lon="4.41871">
        <ele>1054.53</ele>
        <time>2022-03-22T15:35:19Z</time>
      </trkpt>
      <trkpt lat="44.96806" lon="4.41855">
        <ele>1055.91</ele>
        <time>2022-03-22T15:35:21Z</time>
      </trkpt>
      <trkpt lat="44.96797" lon="4.41844">
        <ele>1056.19</ele>
        <time>2022-03-22T15:35:23Z</time>
      </trkpt>
      <trkpt lat="44.96784" lon="4.41826">
        <ele>1055.5</ele>
        <time>2022-03-22T15:35:26Z</time>
      </trkpt>
      <trkpt lat="44.96768" lon="4.41797">
        <ele>1055.01</ele>
        <time>2022-03-22T15:35:28Z</time>
      </trkpt>
      <trkpt lat="44.96751" lon="4.4176">
        <ele>1054.11</ele>
        <time>2022-03-22T15:35:30Z</time>
      </trkpt>
      <trkpt lat="44.96739" lon="4.41724">
        <ele>1055.45</ele>
        <time>2022-03-22T15:35:33Z</time>
      </trkpt>
      <trkpt lat="44.96736" lon="4.41693">
        <ele>1058.25</ele>
        <time>2022-03-22T15:35:35Z</time>
      </trkpt>
      <trkpt lat="44.96745" lon="4.41601">
        <ele>1059.72</ele>
        <time>2022-03-22T15:35:37Z</time>
      </trkpt>
      <trkpt lat="44.96743" lon="4.41583">
        <ele>1058.38</ele>
        <time>2022-03-22T15:35:40Z</time>
      </trkpt>
      <trkpt lat="44.96736" lon="4.41549">
        <ele>1054.92</ele>
        <time>2022-03-22T15:35:42Z</time>
      </trkpt>
      <trkpt lat="44.96729" lon="4.41528">
        <ele>1053.5</ele>
        <time>2022-03-22T15:35:44Z</time>
      </trkpt>
      <trkpt lat="44.9672" lon="4.41473">
        <ele>1054.1</ele>
        <time>2022-03-22T15:35:46Z</time>
      </trkpt>
      <trkpt lat="44.96717" lon="4.41441">
        <ele>1053.38</ele>
        <time>2022-03-22T15:35:49Z</time>
      </trkpt>
      <trkpt lat="44.96717" lon="4.41418">
        <ele>1053.52</ele>
        <time>2022-03-22T15:35:51Z</time>
      </trkpt>
      <trkpt lat="44.96715" lon="4.41396">
        <ele>1054.73</ele>
        <time>2022-03-22T15:35:53Z</time>
      </trkpt>
      <trkpt lat="44.96712" lon="4.41383">
        <ele>1055.88</ele>
        <time>2022-03-22T15:35:56Z</time>
      </trkpt>
      <trkpt lat="44.96702" lon="4.41368">
        <ele>1058.77</ele>
        <time>2022-03-22T15:35:58Z</time>
      </trkpt>
      <trkpt lat="44.96696" lon="4.41368">
        <ele>1059.95</ele>
        <time>2022-03-22T15:36:00Z</time>
      </trkpt>
      <trkpt lat="44.9668" lon="4.41382">
        <ele>1063.49</ele>
        <time>2022-03-22T15:36:03Z</time>
      </trkpt>
      <trkpt lat="44.96634" lon="4.41452">
        <ele>1069.63</ele>
        <time>2022-03-22T15:36:05Z</time>
      </trkpt>
      <trkpt lat="44.96477" lon="4.41628">
        <ele>1074.18</ele>
        <time>2022-03-22T15:36:07Z</time>
      </trkpt>
      <trkpt lat="44.96386" lon="4.417">
        <ele>1065.91</ele>
        <time>2022-03-22T15:36:09Z</time>
      </trkpt>
      <trkpt lat="44.96377" lon="4.4171">
        <ele>1065.54</ele>
        <time>2022-03-22T15:36:12Z</time>
      </trkpt>
      <trkpt lat="44.96355" lon="4.41722">
        <ele>1064.06</ele>
        <time>2022-03-22T15:36:14Z</time>
      </trkpt>
      <trkpt lat="44.96311" lon="4.41738">
        <ele>1059.38</ele>
        <time>2022-03-22T15:36:16Z</time>
      </trkpt>
      <trkpt lat="44.9622" lon="4.41754">
        <ele>1056.61</ele>
        <time>2022-03-22T15:36:19Z</time>
      </trkpt>
      <trkpt lat="44.96136" lon="4.41792">
        <ele>1059.29</ele>
        <time>2022-03-22T15:36:21Z</time>
      </trkpt>
      <trkpt lat="44.96102" lon="4.4181">
        <ele>1059.78</ele>
        <time>2022-03-22T15:36:23Z</time>
      </trkpt>
      <trkpt lat="44.96082" lon="4.41826">
        <ele>1060.3</ele>
        <time>2022-03-22T15:36:26Z</time>
      </trkpt>
      <trkpt lat="44.9607" lon="4.41832">
        <ele>1060.37</ele>
        <time>2022-03-22T15:36:28Z</time>
      </trkpt>
      <trkpt lat="44.96058" lon="4.41835">
        <ele>1059.4</ele>
        <time>2022-03-22T15:36:30Z</time>
      </trkpt>
      <trkpt lat="44.96039" lon="4.41827">
        <ele>1058.35</ele>
        <time>2022-03-22T15:36:32Z</time>
      </trkpt>
      <trkpt lat="44.96021" lon="4.41815">
        <ele>1059.42</ele>
        <time>2022-03-22T15:36:35Z</time>
      </trkpt>
      <trkpt lat="44.96013" lon="4.41791">
        <ele>1060.84</ele>
        <time>2022-03-22T15:36:37Z</time>
      </trkpt>
      <trkpt lat="44.95999" lon="4.41765">
        <ele>1062.63</ele>
        <time>2022-03-22T15:36:39Z</time>
      </trkpt>
      <trkpt lat="44.95977" lon="4.41731">
        <ele>1064.78</ele>
        <time>2022-03-22T15:36:42Z</time>
      </trkpt>
      <trkpt lat="44.95954" lon="4.4171">
        <ele>1066.67</ele>
        <time>2022-03-22T15:36:44Z</time>
      </trkpt>
      <trkpt lat="44.95927" lon="4.41703">
        <ele>1067.48</ele>
        <time>2022-03-22T15:36:46Z</time>
      </trkpt>
      <trkpt lat="44.95891" lon="4.41703">
        <ele>1066.67</ele>
        <time>2022-03-22T15:36:49Z</time>
      </trkpt>
      <trkpt lat="44.95854" lon="4.41711">
        <ele>1064.87</ele>
        <time>2022-03-22T15:36:51Z</time>
      </trkpt>
      <trkpt lat="44.95782" lon="4.4176">
        <ele>1063.75</ele>
        <time>2022-03-22T15:36:53Z</time>
      </trkpt>
      <trkpt lat="44.95697" lon="4.41781">
        <ele>1068.89</ele>
        <time>2022-03-22T15:36:55Z</time>
      </trkpt>
      <trkpt lat="44.95662" lon="4.41785">
        <ele>1071.2</ele>
        <time>2022-03-22T15:36:58Z</time>
      </trkpt>
      <trkpt lat="44.95615" lon="4.41781">
        <ele>1068.29</ele>
        <time>2022-03-22T15:37:00Z</time>
      </trkpt>
      <trkpt lat="44.95578" lon="4.41782">
        <ele>1065.73</ele>
        <time>2022-03-22T15:37:02Z</time>
      </trkpt>
      <trkpt lat="44.95527" lon="4.41799">
        <ele>1060.21</ele>
        <time>2022-03-22T15:37:05Z</time>
      </trkpt>
      <trkpt lat="44.95477" lon="4.41822">
        <ele>1058.58</ele>
        <time>2022-03-22T15:37:07Z</time>
      </trkpt>
      <trkpt lat="44.95441" lon="4.41834">
        <ele>1054.72</ele>
        <time>2022-03-22T15:37:09Z</time>
      </trkpt>
      <trkpt lat="44.95407" lon="4.4183">
        <ele>1051.76</ele>
        <time>2022-03-22T15:37:12Z</time>
      </trkpt>
      <trkpt lat="44.95288" lon="4.41801">
        <ele>1044.69</ele>
        <time>2022-03-22T15:37:14Z</time>
      </trkpt>
      <trkpt lat="44.9523" lon="4.41791">
        <ele>1041.62</ele>
        <time>2022-03-22T15:37:16Z</time>
      </trkpt>
      <trkpt lat="44.95191" lon="4.41791">
        <ele>1036.68</ele>
        <time>2022-03-22T15:37:18Z</time>
      </trkpt>
      <trkpt lat="44.95158" lon="4.41804">
        <ele>1032.76</ele>
        <time>2022-03-22T15:37:21Z</time>
      </trkpt>
      <trkpt lat="44.95092" lon="4.41818">
        <ele>1033.72</ele>
        <time>2022-03-22T15:37:23Z</time>
      </trkpt>
      <trkpt lat="44.95041" lon="4.41823">
        <ele>1025.69</ele>
        <time>2022-03-22T15:37:25Z</time>
      </trkpt>
      <trkpt lat="44.95002" lon="4.41836">
        <ele>1018.48</ele>
        <time>2022-03-22T15:37:28Z</time>
      </trkpt>
      <trkpt lat="44.94914" lon="4.41835">
        <ele>1014.78</ele>
        <time>2022-03-22T15:37:30Z</time>
      </trkpt>
      <trkpt lat="44.9486" lon="4.41826">
        <ele>1010.74</ele>
        <time>2022-03-22T15:37:32Z</time>
      </trkpt>
      <trkpt lat="44.9482" lon="4.41825">
        <ele>1011.14</ele>
        <time>2022-03-22T15:37:35Z</time>
      </trkpt>
      <trkpt lat="44.94737" lon="4.41851">
        <ele>1011.52</ele>
        <time>2022-03-22T15:37:37Z</time>
      </trkpt>
      <trkpt lat="44.94636" lon="4.41887">
        <ele>1008.49</ele>
        <time>2022-03-22T15:37:39Z</time>
      </trkpt>
      <trkpt lat="44.94549" lon="4.41923">
        <ele>1006.06</ele>
        <time>2022-03-22T15:37:41Z</time>
      </trkpt>
      <trkpt lat="44.94464" lon="4.41967">
        <ele>1002.19</ele>
        <time>2022-03-22T15:37:44Z</time>
      </trkpt>
      <trkpt lat="44.94444" lon="4.41984">
        <ele>1001.86</ele>
        <time>2022-03-22T15:37:46Z</time>
      </trkpt>
      <trkpt lat="44.94392" lon="4.42046">
        <ele>995.96</ele>
        <time>2022-03-22T15:37:48Z</time>
      </trkpt>
      <trkpt lat="44.94328" lon="4.42114">
        <ele>991.72</ele>
        <time>2022-03-22T15:37:51Z</time>
      </trkpt>
      <trkpt lat="44.94289" lon="4.42142">
        <ele>991.1</ele>
        <time>2022-03-22T15:37:53Z</time>
      </trkpt>
      <trkpt lat="44.94244" lon="4.42163">
        <ele>990.69</ele>
        <time>2022-03-22T15:37:55Z</time>
      </trkpt>
      <trkpt lat="44.94203" lon="4.4218">
        <ele>989.64</ele>
        <time>2022-03-22T15:37:58Z</time>
      </trkpt>
      <trkpt lat="44.94171" lon="4.422">
        <ele>986.84</ele>
        <time>2022-03-22T15:38:00Z</time>
      </trkpt>
      <trkpt lat="44.94123" lon="4.42248">
        <ele>982.19</ele>
        <time>2022-03-22T15:38:02Z</time>
      </trkpt>
      <trkpt lat="44.94107" lon="4.42273">
        <ele>980.86</ele>
        <time>2022-03-22T15:38:04Z</time>
      </trkpt>
      <trkpt lat="44.94099" lon="4.42302">
        <ele>977.74</ele>
        <time>2022-03-22T15:38:07Z</time>
      </trkpt>
      <trkpt lat="44.94094" lon="4.42346">
        <ele>977.59</ele>
        <time>2022-03-22T15:38:09Z</time>
      </trkpt>
      <trkpt lat="44.94089" lon="4.4236">
        <ele>977.03</ele>
        <time>2022-03-22T15:38:11Z</time>
      </trkpt>
      <trkpt lat="44.94061" lon="4.42404">
        <ele>976.03</ele>
        <time>2022-03-22T15:38:14Z</time>
      </trkpt>
      <trkpt lat="44.94047" lon="4.42435">
        <ele>974.59</ele>
        <time>2022-03-22T15:38:16Z</time>
      </trkpt>
      <trkpt lat="44.94038" lon="4.42471">
        <ele>972.28</ele>
        <time>2022-03-22T15:38:18Z</time>
      </trkpt>
      <trkpt lat="44.94022" lon="4.42595">
        <ele>967.09</ele>
        <time>2022-03-22T15:38:21Z</time>
      </trkpt>
      <trkpt lat="44.9402" lon="4.42626">
        <ele>965.59</ele>
        <time>2022-03-22T15:38:23Z</time>
      </trkpt>
      <trkpt lat="44.94022" lon="4.42647">
        <ele>965.04</ele>
        <time>2022-03-22T15:38:25Z</time>
      </trkpt>
      <trkpt lat="44.94025" lon="4.42666">
        <ele>964.55</ele>
        <time>2022-03-22T15:38:27Z</time>
      </trkpt>
      <trkpt lat="44.94032" lon="4.42681">
        <ele>964.59</ele>
        <time>2022-03-22T15:38:30Z</time>
      </trkpt>
      <trkpt lat="44.9404" lon="4.42695">
        <ele>964.7</ele>
        <time>2022-03-22T15:38:32Z</time>
      </trkpt>
      <trkpt lat="44.94049" lon="4.42705">
        <ele>963.87</ele>
        <time>2022-03-22T15:38:34Z</time>
      </trkpt>
      <trkpt lat="44.94061" lon="4.42713">
        <ele>963.35</ele>
        <time>2022-03-22T15:38:37Z</time>
      </trkpt>
      <trkpt lat="44.9408" lon="4.42716">
        <ele>964.09</ele>
        <time>2022-03-22T15:38:39Z</time>
      </trkpt>
      <trkpt lat="44.941" lon="4.4271">
        <ele>966.06</ele>
        <time>2022-03-22T15:38:41Z</time>
      </trkpt>
      <trkpt lat="44.94116" lon="4.4271">
        <ele>966.86</ele>
        <time>2022-03-22T15:38:44Z</time>
      </trkpt>
      <trkpt lat="44.94124" lon="4.42713">
        <ele>967.6</ele>
        <time>2022-03-22T15:38:46Z</time>
      </trkpt>
      <trkpt lat="44.94131" lon="4.42718">
        <ele>967.52</ele>
        <time>2022-03-22T15:38:48Z</time>
      </trkpt>
      <trkpt lat="44.94137" lon="4.42736">
        <ele>965.3</ele>
        <time>2022-03-22T15:38:50Z</time>
      </trkpt>
      <trkpt lat="44.94158" lon="4.42821">
        <ele>962.99</ele>
        <time>2022-03-22T15:38:53Z</time>
      </trkpt>
      <trkpt lat="44.9419" lon="4.42929">
        <ele>963.38</ele>
        <time>2022-03-22T15:38:55Z</time>
      </trkpt>
      <trkpt lat="44.94191" lon="4.4294">
        <ele>962.69</ele>
        <time>2022-03-22T15:38:57Z</time>
      </trkpt>
      <trkpt lat="44.94187" lon="4.42946">
        <ele>961.49</ele>
        <time>2022-03-22T15:39:00Z</time>
      </trkpt>
      <trkpt lat="44.94181" lon="4.4295">
        <ele>960.07</ele>
        <time>2022-03-22T15:39:02Z</time>
      </trkpt>
      <trkpt lat="44.94173" lon="4.42952">
        <ele>958.42</ele>
        <time>2022-03-22T15:39:04Z</time>
      </trkpt>
      <trkpt lat="44.94162" lon="4.42941">
        <ele>957.47</ele>
        <time>2022-03-22T15:39:07Z</time>
      </trkpt>
      <trkpt lat="44.94136" lon="4.42902">
        <ele>954.51</ele>
        <time>2022-03-22T15:39:09Z</time>
      </trkpt>
      <trkpt lat="44.94123" lon="4.42887">
        <ele>952.66</ele>
        <time>2022-03-22T15:39:11Z</time>
      </trkpt>
      <trkpt lat="44.94112" lon="4.42879">
        <ele>951.14</ele>
        <time>2022-03-22T15:39:13Z</time>
      </trkpt>
      <trkpt lat="44.94099" lon="4.42865">
        <ele>948.93</ele>
        <time>2022-03-22T15:39:16Z</time>
      </trkpt>
      <trkpt lat="44.94088" lon="4.42822">
        <ele>947.51</ele>
        <time>2022-03-22T15:39:18Z</time>
      </trkpt>
      <trkpt lat="44.94083" lon="4.42812">
        <ele>947.4</ele>
        <time>2022-03-22T15:39:20Z</time>
      </trkpt>
      <trkpt lat="44.94075" lon="4.42808">
        <ele>946.69</ele>
        <time>2022-03-22T15:39:23Z</time>
      </trkpt>
      <trkpt lat="44.94054" lon="4.42802">
        <ele>944.33</ele>
        <time>2022-03-22T15:39:25Z</time>
      </trkpt>
      <trkpt lat="44.93956" lon="4.42781">
        <ele>936.86</ele>
        <time>2022-03-22T15:39:27Z</time>
      </trkpt>
      <trkpt lat="44.93936" lon="4.42772">
        <ele>933.83</ele>
        <time>2022-03-22T15:39:29Z</time>
      </trkpt>
      <trkpt lat="44.93927" lon="4.42761">
        <ele>931.7</ele>
        <time>2022-03-22T15:39:32Z</time>
      </trkpt>
      <trkpt lat="44.93922" lon="4.42749">
        <ele>930.63</ele>
        <time>2022-03-22T15:39:34Z</time>
      </trkpt>
      <trkpt lat="44.93904" lon="4.42691">
        <ele>925.02</ele>
        <time>2022-03-22T15:39:36Z</time>
      </trkpt>
      <trkpt lat="44.93895" lon="4.42671">
        <ele>922.86</ele>
        <time>2022-03-22T15:39:39Z</time>
      </trkpt>
      <trkpt lat="44.93885" lon="4.42659">
        <ele>920.41</ele>
        <time>2022-03-22T15:39:41Z</time>
      </trkpt>
      <trkpt lat="44.93836" lon="4.4262">
        <ele>913.93</ele>
        <time>2022-03-22T15:39:43Z</time>
      </trkpt>
      <trkpt lat="44.93816" lon="4.4257">
        <ele>912.58</ele>
        <time>2022-03-22T15:39:46Z</time>
      </trkpt>
      <trkpt lat="44.93805" lon="4.42531">
        <ele>910.91</ele>
        <time>2022-03-22T15:39:48Z</time>
      </trkpt>
      <trkpt lat="44.938" lon="4.42506">
        <ele>909.6</ele>
        <time>2022-03-22T15:39:50Z</time>
      </trkpt>
      <trkpt lat="44.93793" lon="4.42492">
        <ele>908.4</ele>
        <time>2022-03-22T15:39:52Z</time>
      </trkpt>
      <trkpt lat="44.93783" lon="4.42488">
        <ele>906.9</ele>
        <time>2022-03-22T15:39:55Z</time>
      </trkpt>
      <trkpt lat="44.93719" lon="4.42508">
        <ele>895.76</ele>
        <time>2022-03-22T15:39:57Z</time>
      </trkpt>
      <trkpt lat="44.93699" lon="4.42512">
        <ele>890.78</ele>
        <time>2022-03-22T15:39:59Z</time>
      </trkpt>
      <trkpt lat="44.93677" lon="4.42509">
        <ele>888.79</ele>
        <time>2022-03-22T15:40:02Z</time>
      </trkpt>
      <trkpt lat="44.93634" lon="4.42484">
        <ele>885.12</ele>
        <time>2022-03-22T15:40:04Z</time>
      </trkpt>
      <trkpt lat="44.93611" lon="4.42464">
        <ele>882.2</ele>
        <time>2022-03-22T15:40:06Z</time>
      </trkpt>
      <trkpt lat="44.93592" lon="4.42444">
        <ele>881.62</ele>
        <time>2022-03-22T15:40:09Z</time>
      </trkpt>
      <trkpt lat="44.93552" lon="4.42378">
        <ele>873.04</ele>
        <time>2022-03-22T15:40:11Z</time>
      </trkpt>
      <trkpt lat="44.93529" lon="4.42337">
        <ele>869.13</ele>
        <time>2022-03-22T15:40:13Z</time>
      </trkpt>
      <trkpt lat="44.93513" lon="4.42315">
        <ele>868.77</ele>
        <time>2022-03-22T15:40:15Z</time>
      </trkpt>
      <trkpt lat="44.93487" lon="4.42291">
        <ele>867.85</ele>
        <time>2022-03-22T15:40:18Z</time>
      </trkpt>
      <trkpt lat="44.93418" lon="4.42241">
        <ele>861.02</ele>
        <time>2022-03-22T15:40:20Z</time>
      </trkpt>
      <trkpt lat="44.93405" lon="4.42238">
        <ele>859.27</ele>
        <time>2022-03-22T15:40:22Z</time>
      </trkpt>
      <trkpt lat="44.93399" lon="4.4224">
        <ele>858.1</ele>
        <time>2022-03-22T15:40:25Z</time>
      </trkpt>
      <trkpt lat="44.93392" lon="4.42248">
        <ele>855.81</ele>
        <time>2022-03-22T15:40:27Z</time>
      </trkpt>
      <trkpt lat="44.93381" lon="4.42284">
        <ele>852.6</ele>
        <time>2022-03-22T15:40:29Z</time>
      </trkpt>
      <trkpt lat="44.93371" lon="4.42306">
        <ele>852.39</ele>
        <time>2022-03-22T15:40:32Z</time>
      </trkpt>
      <trkpt lat="44.93318" lon="4.42374">
        <ele>848.84</ele>
        <time>2022-03-22T15:40:34Z</time>
      </trkpt>
      <trkpt lat="44.93293" lon="4.42413">
        <ele>842.89</ele>
        <time>2022-03-22T15:40:36Z</time>
      </trkpt>
      <trkpt lat="44.93276" lon="4.42426">
        <ele>841.82</ele>
        <time>2022-03-22T15:40:38Z</time>
      </trkpt>
      <trkpt lat="44.93233" lon="4.42443">
        <ele>837.03</ele>
        <time>2022-03-22T15:40:41Z</time>
      </trkpt>
      <trkpt lat="44.93172" lon="4.42454">
        <ele>829.22</ele>
        <time>2022-03-22T15:40:43Z</time>
      </trkpt>
      <trkpt lat="44.93106" lon="4.42482">
        <ele>826.47</ele>
        <time>2022-03-22T15:40:45Z</time>
      </trkpt>
      <trkpt lat="44.93088" lon="4.42484">
        <ele>824.07</ele>
        <time>2022-03-22T15:40:48Z</time>
      </trkpt>
      <trkpt lat="44.93074" lon="4.42483">
        <ele>821.68</ele>
        <time>2022-03-22T15:40:50Z</time>
      </trkpt>
      <trkpt lat="44.93059" lon="4.42472">
        <ele>815.09</ele>
        <time>2022-03-22T15:40:52Z</time>
      </trkpt>
      <trkpt lat="44.93045" lon="4.42468">
        <ele>811.95</ele>
        <time>2022-03-22T15:40:55Z</time>
      </trkpt>
      <trkpt lat="44.92997" lon="4.42497">
        <ele>825.39</ele>
        <time>2022-03-22T15:40:57Z</time>
      </trkpt>
      <trkpt lat="44.92987" lon="4.42495">
        <ele>825.37</ele>
        <time>2022-03-22T15:40:59Z</time>
      </trkpt>
      <trkpt lat="44.9298" lon="4.42488">
        <ele>822.21</ele>
        <time>2022-03-22T15:41:01Z</time>
      </trkpt>
      <trkpt lat="44.92971" lon="4.42472">
        <ele>815.13</ele>
        <time>2022-03-22T15:41:04Z</time>
      </trkpt>
      <trkpt lat="44.92963" lon="4.42461">
        <ele>812.69</ele>
        <time>2022-03-22T15:41:06Z</time>
      </trkpt>
      <trkpt lat="44.92952" lon="4.42462">
        <ele>815.78</ele>
        <time>2022-03-22T15:41:08Z</time>
      </trkpt>
      <trkpt lat="44.92941" lon="4.42467">
        <ele>821.03</ele>
        <time>2022-03-22T15:41:11Z</time>
      </trkpt>
      <trkpt lat="44.92928" lon="4.42467">
        <ele>826.3</ele>
        <time>2022-03-22T15:41:13Z</time>
      </trkpt>
      <trkpt lat="44.92922" lon="4.42457">
        <ele>825.15</ele>
        <time>2022-03-22T15:41:15Z</time>
      </trkpt>
      <trkpt lat="44.92924" lon="4.42438">
        <ele>817.75</ele>
        <time>2022-03-22T15:41:18Z</time>
      </trkpt>
      <trkpt lat="44.92932" lon="4.42402">
        <ele>806.01</ele>
        <time>2022-03-22T15:41:20Z</time>
      </trkpt>
      <trkpt lat="44.92935" lon="4.42381">
        <ele>800.56</ele>
        <time>2022-03-22T15:41:22Z</time>
      </trkpt>
      <trkpt lat="44.92926" lon="4.42324">
        <ele>792.79</ele>
        <time>2022-03-22T15:41:24Z</time>
      </trkpt>
      <trkpt lat="44.92917" lon="4.42294">
        <ele>790.07</ele>
        <time>2022-03-22T15:41:27Z</time>
      </trkpt>
      <trkpt lat="44.92903" lon="4.42276">
        <ele>786.6</ele>
        <time>2022-03-22T15:41:29Z</time>
      </trkpt>
      <trkpt lat="44.92895" lon="4.42276">
        <ele>785.84</ele>
        <time>2022-03-22T15:41:31Z</time>
      </trkpt>
      <trkpt lat="44.92861" lon="4.42292">
        <ele>789.98</ele>
        <time>2022-03-22T15:41:34Z</time>
      </trkpt>
      <trkpt lat="44.92851" lon="4.42293">
        <ele>791.37</ele>
        <time>2022-03-22T15:41:36Z</time>
      </trkpt>
      <trkpt lat="44.92841" lon="4.4229">
        <ele>790.89</ele>
        <time>2022-03-22T15:41:38Z</time>
      </trkpt>
      <trkpt lat="44.92836" lon="4.42283">
        <ele>788.77</ele>
        <time>2022-03-22T15:41:41Z</time>
      </trkpt>
      <trkpt lat="44.92815" lon="4.4223">
        <ele>777</ele>
        <time>2022-03-22T15:41:43Z</time>
      </trkpt>
      <trkpt lat="44.92796" lon="4.42159">
        <ele>771.08</ele>
        <time>2022-03-22T15:41:45Z</time>
      </trkpt>
      <trkpt lat="44.92771" lon="4.42048">
        <ele>759.41</ele>
        <time>2022-03-22T15:41:47Z</time>
      </trkpt>
      <trkpt lat="44.92744" lon="4.41953">
        <ele>746.76</ele>
        <time>2022-03-22T15:41:50Z</time>
      </trkpt>
      <trkpt lat="44.9268" lon="4.41806">
        <ele>724.43</ele>
        <time>2022-03-22T15:41:52Z</time>
      </trkpt>
      <trkpt lat="44.92665" lon="4.41774">
        <ele>720.32</ele>
        <time>2022-03-22T15:41:54Z</time>
      </trkpt>
      <trkpt lat="44.92656" lon="4.41765">
        <ele>719.44</ele>
        <time>2022-03-22T15:41:57Z</time>
      </trkpt>
      <trkpt lat="44.92613" lon="4.41744">
        <ele>723.93</ele>
        <time>2022-03-22T15:41:59Z</time>
      </trkpt>
      <trkpt lat="44.92597" lon="4.41734">
        <ele>724.63</ele>
        <time>2022-03-22T15:42:01Z</time>
      </trkpt>
      <trkpt lat="44.92555" lon="4.41689">
        <ele>717.24</ele>
        <time>2022-03-22T15:42:04Z</time>
      </trkpt>
      <trkpt lat="44.92544" lon="4.41688">
        <ele>715.21</ele>
        <time>2022-03-22T15:42:06Z</time>
      </trkpt>
      <trkpt lat="44.92528" lon="4.41692">
        <ele>713.6</ele>
        <time>2022-03-22T15:42:08Z</time>
      </trkpt>
      <trkpt lat="44.92507" lon="4.41703">
        <ele>711.66</ele>
        <time>2022-03-22T15:42:10Z</time>
      </trkpt>
      <trkpt lat="44.92475" lon="4.41731">
        <ele>709.73</ele>
        <time>2022-03-22T15:42:13Z</time>
      </trkpt>
      <trkpt lat="44.92427" lon="4.41784">
        <ele>704.32</ele>
        <time>2022-03-22T15:42:15Z</time>
      </trkpt>
      <trkpt lat="44.92414" lon="4.41806">
        <ele>701.94</ele>
        <time>2022-03-22T15:42:17Z</time>
      </trkpt>
      <trkpt lat="44.92396" lon="4.41845">
        <ele>697.33</ele>
        <time>2022-03-22T15:42:20Z</time>
      </trkpt>
      <trkpt lat="44.92374" lon="4.41939">
        <ele>696.65</ele>
        <time>2022-03-22T15:42:22Z</time>
      </trkpt>
      <trkpt lat="44.92367" lon="4.41962">
        <ele>694.35</ele>
        <time>2022-03-22T15:42:24Z</time>
      </trkpt>
      <trkpt lat="44.92365" lon="4.41964">
        <ele>693.47</ele>
        <time>2022-03-22T15:42:27Z</time>
      </trkpt>
      <trkpt lat="44.92361" lon="4.41964">
        <ele>691.57</ele>
        <time>2022-03-22T15:42:29Z</time>
      </trkpt>
      <trkpt lat="44.92357" lon="4.41956">
        <ele>689.57</ele>
        <time>2022-03-22T15:42:31Z</time>
      </trkpt>
      <trkpt lat="44.92352" lon="4.41859">
        <ele>680.2</ele>
        <time>2022-03-22T15:42:33Z</time>
      </trkpt>
      <trkpt lat="44.9235" lon="4.41855">
        <ele>679.45</ele>
        <time>2022-03-22T15:42:36Z</time>
      </trkpt>
      <trkpt lat="44.92347" lon="4.41856">
        <ele>678.6</ele>
        <time>2022-03-22T15:42:38Z</time>
      </trkpt>
      <trkpt lat="44.92339" lon="4.41872">
        <ele>677.07</ele>
        <time>2022-03-22T15:42:40Z</time>
      </trkpt>
      <trkpt lat="44.92326" lon="4.41905">
        <ele>673.81</ele>
        <time>2022-03-22T15:42:43Z</time>
      </trkpt>
      <trkpt lat="44.92315" lon="4.41942">
        <ele>672.64</ele>
        <time>2022-03-22T15:42:45Z</time>
      </trkpt>
      <trkpt lat="44.92313" lon="4.41947">
        <ele>671.83</ele>
        <time>2022-03-22T15:42:47Z</time>
      </trkpt>
      <trkpt lat="44.9231" lon="4.41947">
        <ele>670.57</ele>
        <time>2022-03-22T15:42:50Z</time>
      </trkpt>
      <trkpt lat="44.92306" lon="4.41941">
        <ele>669.01</ele>
        <time>2022-03-22T15:42:51Z</time>
      </trkpt>
      <trkpt lat="44.92302" lon="4.41925">
        <ele>666.06</ele>
        <time>2022-03-22T15:42:53Z</time>
      </trkpt>
      <trkpt lat="44.92295" lon="4.41886">
        <ele>659.07</ele>
        <time>2022-03-22T15:42:54Z</time>
      </trkpt>
      <trkpt lat="44.92291" lon="4.41883">
        <ele>657.72</ele>
        <time>2022-03-22T15:42:56Z</time>
      </trkpt>
      <trkpt lat="44.92288" lon="4.41885">
        <ele>656.57</ele>
        <time>2022-03-22T15:42:57Z</time>
      </trkpt>
      <trkpt lat="44.92285" lon="4.41889">
        <ele>655.59</ele>
        <time>2022-03-22T15:42:58Z</time>
      </trkpt>
      <trkpt lat="44.92271" lon="4.41945">
        <ele>655.94</ele>
        <time>2022-03-22T15:43:00Z</time>
      </trkpt>
      <trkpt lat="44.92261" lon="4.41971">
        <ele>654.5</ele>
        <time>2022-03-22T15:43:01Z</time>
      </trkpt>
      <trkpt lat="44.92258" lon="4.41994">
        <ele>655.79</ele>
        <time>2022-03-22T15:43:03Z</time>
      </trkpt>
      <trkpt lat="44.92251" lon="4.4201">
        <ele>655.48</ele>
        <time>2022-03-22T15:43:04Z</time>
      </trkpt>
      <trkpt lat="44.92189" lon="4.42103">
        <ele>641.16</ele>
        <time>2022-03-22T15:43:06Z</time>
      </trkpt>
      <trkpt lat="44.92159" lon="4.42123">
        <ele>634.49</ele>
        <time>2022-03-22T15:43:07Z</time>
      </trkpt>
      <trkpt lat="44.92154" lon="4.4213">
        <ele>633.54</ele>
        <time>2022-03-22T15:43:09Z</time>
      </trkpt>
      <trkpt lat="44.92148" lon="4.42151">
        <ele>633.37</ele>
        <time>2022-03-22T15:43:10Z</time>
      </trkpt>
      <trkpt lat="44.92147" lon="4.42168">
        <ele>634.33</ele>
        <time>2022-03-22T15:43:11Z</time>
      </trkpt>
      <trkpt lat="44.92137" lon="4.42205">
        <ele>635.64</ele>
        <time>2022-03-22T15:43:13Z</time>
      </trkpt>
      <trkpt lat="44.92129" lon="4.42265">
        <ele>641.21</ele>
        <time>2022-03-22T15:43:14Z</time>
      </trkpt>
      <trkpt lat="44.92127" lon="4.42267">
        <ele>641.24</ele>
        <time>2022-03-22T15:43:16Z</time>
      </trkpt>
      <trkpt lat="44.92102" lon="4.42243">
        <ele>633.5</ele>
        <time>2022-03-22T15:43:17Z</time>
      </trkpt>
      <trkpt lat="44.92062" lon="4.4224">
        <ele>624.98</ele>
        <time>2022-03-22T15:43:19Z</time>
      </trkpt>
      <trkpt lat="44.92045" lon="4.42246">
        <ele>622.47</ele>
        <time>2022-03-22T15:43:20Z</time>
      </trkpt>
      <trkpt lat="44.91976" lon="4.42283">
        <ele>620.26</ele>
        <time>2022-03-22T15:43:22Z</time>
      </trkpt>
      <trkpt lat="44.91947" lon="4.42301">
        <ele>613.85</ele>
        <time>2022-03-22T15:43:23Z</time>
      </trkpt>
      <trkpt lat="44.91931" lon="4.42316">
        <ele>613.18</ele>
        <time>2022-03-22T15:43:24Z</time>
      </trkpt>
      <trkpt lat="44.91913" lon="4.42336">
        <ele>614.26</ele>
        <time>2022-03-22T15:43:26Z</time>
      </trkpt>
      <trkpt lat="44.91868" lon="4.42357">
        <ele>603.12</ele>
        <time>2022-03-22T15:43:27Z</time>
      </trkpt>
      <trkpt lat="44.91853" lon="4.42367">
        <ele>600.04</ele>
        <time>2022-03-22T15:43:29Z</time>
      </trkpt>
      <trkpt lat="44.91842" lon="4.42379">
        <ele>597.96</ele>
        <time>2022-03-22T15:43:30Z</time>
      </trkpt>
      <trkpt lat="44.91833" lon="4.42391">
        <ele>596.92</ele>
        <time>2022-03-22T15:43:32Z</time>
      </trkpt>
      <trkpt lat="44.91827" lon="4.42406">
        <ele>595.04</ele>
        <time>2022-03-22T15:43:33Z</time>
      </trkpt>
      <trkpt lat="44.91822" lon="4.42422">
        <ele>593.99</ele>
        <time>2022-03-22T15:43:35Z</time>
      </trkpt>
      <trkpt lat="44.91821" lon="4.42439">
        <ele>593.02</ele>
        <time>2022-03-22T15:43:36Z</time>
      </trkpt>
      <trkpt lat="44.91828" lon="4.4247">
        <ele>595.61</ele>
        <time>2022-03-22T15:43:38Z</time>
      </trkpt>
      <trkpt lat="44.91828" lon="4.42486">
        <ele>595.63</ele>
        <time>2022-03-22T15:43:39Z</time>
      </trkpt>
      <trkpt lat="44.91816" lon="4.42525">
        <ele>590.03</ele>
        <time>2022-03-22T15:43:40Z</time>
      </trkpt>
      <trkpt lat="44.91802" lon="4.42613">
        <ele>585.37</ele>
        <time>2022-03-22T15:43:42Z</time>
      </trkpt>
      <trkpt lat="44.91797" lon="4.42628">
        <ele>583.25</ele>
        <time>2022-03-22T15:43:43Z</time>
      </trkpt>
      <trkpt lat="44.91791" lon="4.42624">
        <ele>580.38</ele>
        <time>2022-03-22T15:43:45Z</time>
      </trkpt>
      <trkpt lat="44.91786" lon="4.42615">
        <ele>577.82</ele>
        <time>2022-03-22T15:43:46Z</time>
      </trkpt>
      <trkpt lat="44.91786" lon="4.42604">
        <ele>577.76</ele>
        <time>2022-03-22T15:43:48Z</time>
      </trkpt>
      <trkpt lat="44.91782" lon="4.42593">
        <ele>576.11</ele>
        <time>2022-03-22T15:43:49Z</time>
      </trkpt>
      <trkpt lat="44.91776" lon="4.42589">
        <ele>573.47</ele>
        <time>2022-03-22T15:43:51Z</time>
      </trkpt>
      <trkpt lat="44.91771" lon="4.42591">
        <ele>571.35</ele>
        <time>2022-03-22T15:43:52Z</time>
      </trkpt>
      <trkpt lat="44.91766" lon="4.42601">
        <ele>569.16</ele>
        <time>2022-03-22T15:43:53Z</time>
      </trkpt>
      <trkpt lat="44.91765" lon="4.42612">
        <ele>568.99</ele>
        <time>2022-03-22T15:43:55Z</time>
      </trkpt>
      <trkpt lat="44.91769" lon="4.4264">
        <ele>570.2</ele>
        <time>2022-03-22T15:43:56Z</time>
      </trkpt>
      <trkpt lat="44.91767" lon="4.42649">
        <ele>568.56</ele>
        <time>2022-03-22T15:43:58Z</time>
      </trkpt>
      <trkpt lat="44.91764" lon="4.42652">
        <ele>566.5</ele>
        <time>2022-03-22T15:43:59Z</time>
      </trkpt>
      <trkpt lat="44.91759" lon="4.4265">
        <ele>563.78</ele>
        <time>2022-03-22T15:44:01Z</time>
      </trkpt>
      <trkpt lat="44.91741" lon="4.42632">
        <ele>557.78</ele>
        <time>2022-03-22T15:44:02Z</time>
      </trkpt>
      <trkpt lat="44.91737" lon="4.42622">
        <ele>556.92</ele>
        <time>2022-03-22T15:44:04Z</time>
      </trkpt>
      <trkpt lat="44.91734" lon="4.42606">
        <ele>556.43</ele>
        <time>2022-03-22T15:44:05Z</time>
      </trkpt>
      <trkpt lat="44.91728" lon="4.42602">
        <ele>554</ele>
        <time>2022-03-22T15:44:06Z</time>
      </trkpt>
      <trkpt lat="44.91726" lon="4.42603">
        <ele>553.09</ele>
        <time>2022-03-22T15:44:08Z</time>
      </trkpt>
      <trkpt lat="44.91719" lon="4.42626">
        <ele>549.33</ele>
        <time>2022-03-22T15:44:09Z</time>
      </trkpt>
      <trkpt lat="44.91715" lon="4.42627">
        <ele>547.68</ele>
        <time>2022-03-22T15:44:11Z</time>
      </trkpt>
      <trkpt lat="44.91712" lon="4.42624">
        <ele>546.76</ele>
        <time>2022-03-22T15:44:12Z</time>
      </trkpt>
      <trkpt lat="44.91706" lon="4.42607">
        <ele>546.23</ele>
        <time>2022-03-22T15:44:14Z</time>
      </trkpt>
      <trkpt lat="44.91704" lon="4.42605">
        <ele>545.51</ele>
        <time>2022-03-22T15:44:15Z</time>
      </trkpt>
      <trkpt lat="44.917" lon="4.42607">
        <ele>543.84</ele>
        <time>2022-03-22T15:44:17Z</time>
      </trkpt>
      <trkpt lat="44.91698" lon="4.4261">
        <ele>543.41</ele>
        <time>2022-03-22T15:44:18Z</time>
      </trkpt>
      <trkpt lat="44.91699" lon="4.42634">
        <ele>541.28</ele>
        <time>2022-03-22T15:44:19Z</time>
      </trkpt>
      <trkpt lat="44.91698" lon="4.42637">
        <ele>540.43</ele>
        <time>2022-03-22T15:44:21Z</time>
      </trkpt>
      <trkpt lat="44.91694" lon="4.42637">
        <ele>538.95</ele>
        <time>2022-03-22T15:44:22Z</time>
      </trkpt>
      <trkpt lat="44.91691" lon="4.42637">
        <ele>538.46</ele>
        <time>2022-03-22T15:44:24Z</time>
      </trkpt>
      <trkpt lat="44.91687" lon="4.42628">
        <ele>538.33</ele>
        <time>2022-03-22T15:44:25Z</time>
      </trkpt>
      <trkpt lat="44.91681" lon="4.42603">
        <ele>538.3</ele>
        <time>2022-03-22T15:44:27Z</time>
      </trkpt>
      <trkpt lat="44.91676" lon="4.42596">
        <ele>537.05</ele>
        <time>2022-03-22T15:44:28Z</time>
      </trkpt>
      <trkpt lat="44.91672" lon="4.42597">
        <ele>536.06</ele>
        <time>2022-03-22T15:44:30Z</time>
      </trkpt>
      <trkpt lat="44.9167" lon="4.42603">
        <ele>535.18</ele>
        <time>2022-03-22T15:44:31Z</time>
      </trkpt>
      <trkpt lat="44.91669" lon="4.42622">
        <ele>533.96</ele>
        <time>2022-03-22T15:44:33Z</time>
      </trkpt>
      <trkpt lat="44.91668" lon="4.42624">
        <ele>533.38</ele>
        <time>2022-03-22T15:44:34Z</time>
      </trkpt>
      <trkpt lat="44.91663" lon="4.42625">
        <ele>531.91</ele>
        <time>2022-03-22T15:44:35Z</time>
      </trkpt>
      <trkpt lat="44.9166" lon="4.42623">
        <ele>531.35</ele>
        <time>2022-03-22T15:44:37Z</time>
      </trkpt>
      <trkpt lat="44.91654" lon="4.42588">
        <ele>530.76</ele>
        <time>2022-03-22T15:44:38Z</time>
      </trkpt>
      <trkpt lat="44.91652" lon="4.42584">
        <ele>530.21</ele>
        <time>2022-03-22T15:44:40Z</time>
      </trkpt>
      <trkpt lat="44.91649" lon="4.42584">
        <ele>529.34</ele>
        <time>2022-03-22T15:44:41Z</time>
      </trkpt>
      <trkpt lat="44.91647" lon="4.42586">
        <ele>528.52</ele>
        <time>2022-03-22T15:44:43Z</time>
      </trkpt>
      <trkpt lat="44.91637" lon="4.42622">
        <ele>524.62</ele>
        <time>2022-03-22T15:44:44Z</time>
      </trkpt>
      <trkpt lat="44.91632" lon="4.42628">
        <ele>521.9</ele>
        <time>2022-03-22T15:44:46Z</time>
      </trkpt>
      <trkpt lat="44.91627" lon="4.42626">
        <ele>519.86</ele>
        <time>2022-03-22T15:44:47Z</time>
      </trkpt>
      <trkpt lat="44.91626" lon="4.42595">
        <ele>519.08</ele>
        <time>2022-03-22T15:44:48Z</time>
      </trkpt>
      <trkpt lat="44.91633" lon="4.42566">
        <ele>521</ele>
        <time>2022-03-22T15:44:50Z</time>
      </trkpt>
      <trkpt lat="44.91639" lon="4.42548">
        <ele>523.12</ele>
        <time>2022-03-22T15:44:51Z</time>
      </trkpt>
      <trkpt lat="44.9164" lon="4.42537">
        <ele>522.21</ele>
        <time>2022-03-22T15:44:53Z</time>
      </trkpt>
      <trkpt lat="44.91638" lon="4.42525">
        <ele>519.68</ele>
        <time>2022-03-22T15:44:54Z</time>
      </trkpt>
      <trkpt lat="44.91634" lon="4.42519">
        <ele>516.14</ele>
        <time>2022-03-22T15:44:56Z</time>
      </trkpt>
      <trkpt lat="44.91631" lon="4.4251">
        <ele>512.93</ele>
        <time>2022-03-22T15:44:57Z</time>
      </trkpt>
      <trkpt lat="44.9163" lon="4.42492">
        <ele>508.89</ele>
        <time>2022-03-22T15:44:59Z</time>
      </trkpt>
      <trkpt lat="44.91627" lon="4.42475">
        <ele>504.29</ele>
        <time>2022-03-22T15:45:00Z</time>
      </trkpt>
      <trkpt lat="44.91624" lon="4.42474">
        <ele>502.35</ele>
        <time>2022-03-22T15:45:01Z</time>
      </trkpt>
      <trkpt lat="44.91622" lon="4.42475">
        <ele>500.91</ele>
        <time>2022-03-22T15:45:03Z</time>
      </trkpt>
      <trkpt lat="44.9162" lon="4.42479">
        <ele>500.22</ele>
        <time>2022-03-22T15:45:04Z</time>
      </trkpt>
      <trkpt lat="44.91621" lon="4.42516">
        <ele>507.61</ele>
        <time>2022-03-22T15:45:06Z</time>
      </trkpt>
      <trkpt lat="44.91619" lon="4.42518">
        <ele>506.49</ele>
        <time>2022-03-22T15:45:07Z</time>
      </trkpt>
      <trkpt lat="44.91614" lon="4.42515">
        <ele>503.04</ele>
        <time>2022-03-22T15:45:09Z</time>
      </trkpt>
      <trkpt lat="44.91609" lon="4.42497">
        <ele>496.5</ele>
        <time>2022-03-22T15:45:10Z</time>
      </trkpt>
      <trkpt lat="44.91606" lon="4.42475">
        <ele>492.13</ele>
        <time>2022-03-22T15:45:12Z</time>
      </trkpt>
      <trkpt lat="44.91609" lon="4.42466">
        <ele>492.13</ele>
        <time>2022-03-22T15:45:13Z</time>
      </trkpt>
      <trkpt lat="44.91616" lon="4.42454">
        <ele>495.06</ele>
        <time>2022-03-22T15:45:15Z</time>
      </trkpt>
      <trkpt lat="44.91617" lon="4.42449">
        <ele>495.39</ele>
        <time>2022-03-22T15:45:16Z</time>
      </trkpt>
      <trkpt lat="44.91616" lon="4.42443">
        <ele>493.88</ele>
        <time>2022-03-22T15:45:17Z</time>
      </trkpt>
      <trkpt lat="44.91613" lon="4.42442">
        <ele>492.06</ele>
        <time>2022-03-22T15:45:19Z</time>
      </trkpt>
      <trkpt lat="44.91611" lon="4.42444">
        <ele>490.72</ele>
        <time>2022-03-22T15:45:20Z</time>
      </trkpt>
      <trkpt lat="44.91602" lon="4.42463">
        <ele>488.81</ele>
        <time>2022-03-22T15:45:22Z</time>
      </trkpt>
      <trkpt lat="44.91583" lon="4.42515">
        <ele>485.49</ele>
        <time>2022-03-22T15:45:23Z</time>
      </trkpt>
      <trkpt lat="44.91558" lon="4.42575">
        <ele>484.29</ele>
        <time>2022-03-22T15:45:25Z</time>
      </trkpt>
      <trkpt lat="44.9155" lon="4.42589">
        <ele>484.37</ele>
        <time>2022-03-22T15:45:26Z</time>
      </trkpt>
      <trkpt lat="44.91535" lon="4.42603">
        <ele>481.36</ele>
        <time>2022-03-22T15:45:28Z</time>
      </trkpt>
      <trkpt lat="44.91509" lon="4.4262">
        <ele>471.85</ele>
        <time>2022-03-22T15:45:29Z</time>
      </trkpt>
      <trkpt lat="44.91486" lon="4.42628">
        <ele>463.69</ele>
        <time>2022-03-22T15:45:30Z</time>
      </trkpt>
      <trkpt lat="44.9147" lon="4.42653">
        <ele>460.22</ele>
        <time>2022-03-22T15:45:32Z</time>
      </trkpt>
      <trkpt lat="44.91463" lon="4.42661">
        <ele>459.43</ele>
        <time>2022-03-22T15:45:33Z</time>
      </trkpt>
      <trkpt lat="44.91447" lon="4.4267">
        <ele>457.24</ele>
        <time>2022-03-22T15:45:35Z</time>
      </trkpt>
      <trkpt lat="44.91436" lon="4.42681">
        <ele>455.22</ele>
        <time>2022-03-22T15:45:36Z</time>
      </trkpt>
      <trkpt lat="44.91425" lon="4.42686">
        <ele>453.54</ele>
        <time>2022-03-22T15:45:38Z</time>
      </trkpt>
      <trkpt lat="44.91372" lon="4.42686">
        <ele>443.11</ele>
        <time>2022-03-22T15:45:39Z</time>
      </trkpt>
      <trkpt lat="44.91358" lon="4.42693">
        <ele>440.71</ele>
        <time>2022-03-22T15:45:41Z</time>
      </trkpt>
      <trkpt lat="44.91338" lon="4.42707">
        <ele>438.37</ele>
        <time>2022-03-22T15:45:42Z</time>
      </trkpt>
      <trkpt lat="44.91331" lon="4.42709">
        <ele>437.84</ele>
        <time>2022-03-22T15:45:43Z</time>
      </trkpt>
      <trkpt lat="44.91311" lon="4.42709">
        <ele>436.42</ele>
        <time>2022-03-22T15:45:45Z</time>
      </trkpt>
      <trkpt lat="44.91298" lon="4.42713">
        <ele>435.73</ele>
        <time>2022-03-22T15:45:46Z</time>
      </trkpt>
      <trkpt lat="44.91288" lon="4.42719">
        <ele>435.37</ele>
        <time>2022-03-22T15:45:48Z</time>
      </trkpt>
      <trkpt lat="44.91284" lon="4.42726">
        <ele>435.08</ele>
        <time>2022-03-22T15:45:49Z</time>
      </trkpt>
      <trkpt lat="44.91268" lon="4.42712">
        <ele>434.64</ele>
        <time>2022-03-22T15:45:52Z</time>
      </trkpt>
      <trkpt lat="44.91253" lon="4.42709">
        <ele>434.1</ele>
        <time>2022-03-22T15:45:55Z</time>
      </trkpt>
      <trkpt lat="44.9123" lon="4.42714">
        <ele>433.83</ele>
        <time>2022-03-22T15:45:57Z</time>
      </trkpt>
      <trkpt lat="44.91158" lon="4.42743">
        <ele>432.91</ele>
        <time>2022-03-22T15:46:00Z</time>
      </trkpt>
      <trkpt lat="44.91148" lon="4.42749">
        <ele>434.46</ele>
        <time>2022-03-22T15:46:03Z</time>
      </trkpt>
      <trkpt lat="44.91135" lon="4.42764">
        <ele>435.26</ele>
        <time>2022-03-22T15:46:06Z</time>
      </trkpt>
      <trkpt lat="44.91156" lon="4.42791">
        <ele>431.5</ele>
        <time>2022-03-22T15:46:12Z</time>
      </trkpt>
      <trkpt lat="44.91169" lon="4.42817">
        <ele>429.32</ele>
        <time>2022-03-22T15:46:18Z</time>
      </trkpt>
      <trkpt lat="44.91197" lon="4.42912">
        <ele>426.89</ele>
        <time>2022-03-22T15:46:24Z</time>
      </trkpt>
      <trkpt lat="44.91228" lon="4.43022">
        <ele>431.51</ele>
        <time>2022-03-22T15:46:30Z</time>
      </trkpt>
      <trkpt lat="44.91238" lon="4.43057">
        <ele>433.57</ele>
        <time>2022-03-22T15:46:36Z</time>
      </trkpt>
      <trkpt lat="44.91231" lon="4.4306">
        <ele>436.17</ele>
        <time>2022-03-22T15:46:39Z</time>
      </trkpt>
      <trkpt lat="44.91182" lon="4.43053">
        <ele>445.52</ele>
        <time>2022-03-22T15:46:43Z</time>
      </trkpt>
      <trkpt lat="44.91094" lon="4.43053">
        <ele>445.07</ele>
        <time>2022-03-22T15:46:46Z</time>
      </trkpt>
      <trkpt lat="44.91075" lon="4.43048">
        <ele>442.94</ele>
        <time>2022-03-22T15:46:49Z</time>
      </trkpt>
      <trkpt lat="44.91006" lon="4.43025">
        <ele>439.3</ele>
        <time>2022-03-22T15:46:53Z</time>
      </trkpt>
      <trkpt lat="44.90991" lon="4.43022">
        <ele>438.86</ele>
        <time>2022-03-22T15:46:56Z</time>
      </trkpt>
      <trkpt lat="44.90942" lon="4.43029">
        <ele>440.37</ele>
        <time>2022-03-22T15:46:59Z</time>
      </trkpt>
      <trkpt lat="44.90926" lon="4.43027">
        <ele>441.94</ele>
        <time>2022-03-22T15:47:03Z</time>
      </trkpt>
      <trkpt lat="44.90914" lon="4.43023">
        <ele>442.65</ele>
        <time>2022-03-22T15:47:06Z</time>
      </trkpt>
      <trkpt lat="44.90898" lon="4.43009">
        <ele>442.1</ele>
        <time>2022-03-22T15:47:09Z</time>
      </trkpt>
      <trkpt lat="44.90866" lon="4.42973">
        <ele>446.66</ele>
        <time>2022-03-22T15:47:13Z</time>
      </trkpt>
      <trkpt lat="44.90853" lon="4.42956">
        <ele>450.63</ele>
        <time>2022-03-22T15:47:16Z</time>
      </trkpt>
      <trkpt lat="44.9084" lon="4.42916">
        <ele>452.19</ele>
        <time>2022-03-22T15:47:20Z</time>
      </trkpt>
      <trkpt lat="44.90835" lon="4.42882">
        <ele>449.79</ele>
        <time>2022-03-22T15:47:23Z</time>
      </trkpt>
      <trkpt lat="44.90831" lon="4.42844">
        <ele>442.98</ele>
        <time>2022-03-22T15:47:26Z</time>
      </trkpt>
      <trkpt lat="44.90823" lon="4.42808">
        <ele>440.01</ele>
        <time>2022-03-22T15:47:30Z</time>
      </trkpt>
      <trkpt lat="44.90814" lon="4.42776">
        <ele>441.09</ele>
        <time>2022-03-22T15:47:33Z</time>
      </trkpt>
      <trkpt lat="44.90796" lon="4.42719">
        <ele>442.15</ele>
        <time>2022-03-22T15:47:36Z</time>
      </trkpt>
      <trkpt lat="44.90787" lon="4.42696">
        <ele>441.7</ele>
        <time>2022-03-22T15:47:40Z</time>
      </trkpt>
      <trkpt lat="44.90777" lon="4.42674">
        <ele>442.42</ele>
        <time>2022-03-22T15:47:43Z</time>
      </trkpt>
      <trkpt lat="44.90747" lon="4.42619">
        <ele>446.03</ele>
        <time>2022-03-22T15:47:47Z</time>
      </trkpt>
      <trkpt lat="44.90712" lon="4.42565">
        <ele>448.02</ele>
        <time>2022-03-22T15:47:50Z</time>
      </trkpt>
      <trkpt lat="44.90711" lon="4.42573">
        <ele>449.26</ele>
        <time>2022-03-22T15:47:52Z</time>
      </trkpt>
      <trkpt lat="44.90736" lon="4.42628">
        <ele>449.99</ele>
        <time>2022-03-22T15:47:53Z</time>
      </trkpt>
      <trkpt lat="44.90766" lon="4.42707">
        <ele>446.65</ele>
        <time>2022-03-22T15:47:55Z</time>
      </trkpt>
      <trkpt lat="44.90768" lon="4.42719">
        <ele>446.8</ele>
        <time>2022-03-22T15:47:56Z</time>
      </trkpt>
      <trkpt lat="44.90767" lon="4.42731">
        <ele>448.03</ele>
        <time>2022-03-22T15:47:58Z</time>
      </trkpt>
      <trkpt lat="44.90763" lon="4.42739">
        <ele>449.33</ele>
        <time>2022-03-22T15:48:00Z</time>
      </trkpt>
      <trkpt lat="44.90758" lon="4.42746">
        <ele>450.86</ele>
        <time>2022-03-22T15:48:01Z</time>
      </trkpt>
      <trkpt lat="44.90729" lon="4.42762">
        <ele>456.61</ele>
        <time>2022-03-22T15:48:03Z</time>
      </trkpt>
      <trkpt lat="44.90704" lon="4.42786">
        <ele>458.97</ele>
        <time>2022-03-22T15:48:04Z</time>
      </trkpt>
      <trkpt lat="44.90653" lon="4.42858">
        <ele>471.31</ele>
        <time>2022-03-22T15:48:06Z</time>
      </trkpt>
      <trkpt lat="44.90629" lon="4.42896">
        <ele>476.81</ele>
        <time>2022-03-22T15:48:08Z</time>
      </trkpt>
      <trkpt lat="44.90621" lon="4.42911">
        <ele>478.2</ele>
        <time>2022-03-22T15:48:09Z</time>
      </trkpt>
      <trkpt lat="44.90619" lon="4.42923">
        <ele>478.45</ele>
        <time>2022-03-22T15:48:11Z</time>
      </trkpt>
      <trkpt lat="44.90619" lon="4.42935">
        <ele>478.05</ele>
        <time>2022-03-22T15:48:12Z</time>
      </trkpt>
      <trkpt lat="44.90621" lon="4.42941">
        <ele>477.73</ele>
        <time>2022-03-22T15:48:14Z</time>
      </trkpt>
      <trkpt lat="44.90626" lon="4.42946">
        <ele>477.48</ele>
        <time>2022-03-22T15:48:15Z</time>
      </trkpt>
      <trkpt lat="44.90636" lon="4.42949">
        <ele>477.26</ele>
        <time>2022-03-22T15:48:17Z</time>
      </trkpt>
      <trkpt lat="44.9064" lon="4.42947">
        <ele>477.21</ele>
        <time>2022-03-22T15:48:19Z</time>
      </trkpt>
      <trkpt lat="44.9064" lon="4.42963">
        <ele>477.77</ele>
        <time>2022-03-22T15:48:21Z</time>
      </trkpt>
      <trkpt lat="44.90637" lon="4.4298">
        <ele>479.35</ele>
        <time>2022-03-22T15:48:23Z</time>
      </trkpt>
      <trkpt lat="44.90622" lon="4.4302">
        <ele>484.68</ele>
        <time>2022-03-22T15:48:26Z</time>
      </trkpt>
      <trkpt lat="44.90604" lon="4.4305">
        <ele>488.92</ele>
        <time>2022-03-22T15:48:28Z</time>
      </trkpt>
      <trkpt lat="44.90583" lon="4.43073">
        <ele>493.88</ele>
        <time>2022-03-22T15:48:30Z</time>
      </trkpt>
      <trkpt lat="44.9058" lon="4.43074">
        <ele>494.87</ele>
        <time>2022-03-22T15:48:32Z</time>
      </trkpt>
      <trkpt lat="44.90574" lon="4.43071">
        <ele>496.74</ele>
        <time>2022-03-22T15:48:35Z</time>
      </trkpt>
      <trkpt lat="44.90572" lon="4.43062">
        <ele>499.32</ele>
        <time>2022-03-22T15:48:37Z</time>
      </trkpt>
      <trkpt lat="44.90579" lon="4.43019">
        <ele>492.48</ele>
        <time>2022-03-22T15:48:39Z</time>
      </trkpt>
      <trkpt lat="44.90581" lon="4.43003">
        <ele>489.28</ele>
        <time>2022-03-22T15:48:42Z</time>
      </trkpt>
      <trkpt lat="44.9058" lon="4.42994">
        <ele>489.86</ele>
        <time>2022-03-22T15:48:44Z</time>
      </trkpt>
      <trkpt lat="44.90577" lon="4.42986">
        <ele>491.93</ele>
        <time>2022-03-22T15:48:46Z</time>
      </trkpt>
      <trkpt lat="44.90556" lon="4.4296">
        <ele>506.42</ele>
        <time>2022-03-22T15:48:48Z</time>
      </trkpt>
      <trkpt lat="44.90553" lon="4.42955">
        <ele>507.57</ele>
        <time>2022-03-22T15:48:51Z</time>
      </trkpt>
      <trkpt lat="44.90553" lon="4.42945">
        <ele>507.45</ele>
        <time>2022-03-22T15:48:53Z</time>
      </trkpt>
      <trkpt lat="44.9057" lon="4.42923">
        <ele>504.01</ele>
        <time>2022-03-22T15:48:55Z</time>
      </trkpt>
      <trkpt lat="44.90575" lon="4.42911">
        <ele>503.96</ele>
        <time>2022-03-22T15:48:58Z</time>
      </trkpt>
      <trkpt lat="44.9058" lon="4.42889">
        <ele>504.39</ele>
        <time>2022-03-22T15:49:00Z</time>
      </trkpt>
      <trkpt lat="44.90587" lon="4.42839">
        <ele>503.6</ele>
        <time>2022-03-22T15:49:02Z</time>
      </trkpt>
      <trkpt lat="44.90593" lon="4.4276">
        <ele>503.29</ele>
        <time>2022-03-22T15:49:05Z</time>
      </trkpt>
      <trkpt lat="44.90584" lon="4.42734">
        <ele>510.2</ele>
        <time>2022-03-22T15:49:07Z</time>
      </trkpt>
      <trkpt lat="44.90572" lon="4.42723">
        <ele>512.83</ele>
        <time>2022-03-22T15:49:09Z</time>
      </trkpt>
      <trkpt lat="44.90558" lon="4.42717">
        <ele>514.87</ele>
        <time>2022-03-22T15:49:11Z</time>
      </trkpt>
      <trkpt lat="44.90549" lon="4.4272">
        <ele>517.23</ele>
        <time>2022-03-22T15:49:14Z</time>
      </trkpt>
      <trkpt lat="44.90543" lon="4.42729">
        <ele>520.09</ele>
        <time>2022-03-22T15:49:16Z</time>
      </trkpt>
      <trkpt lat="44.90527" lon="4.42778">
        <ele>529.12</ele>
        <time>2022-03-22T15:49:18Z</time>
      </trkpt>
      <trkpt lat="44.90518" lon="4.42792">
        <ele>531.16</ele>
        <time>2022-03-22T15:49:21Z</time>
      </trkpt>
      <trkpt lat="44.90507" lon="4.4279">
        <ele>532.1</ele>
        <time>2022-03-22T15:49:23Z</time>
      </trkpt>
      <trkpt lat="44.90494" lon="4.4277">
        <ele>531.24</ele>
        <time>2022-03-22T15:49:25Z</time>
      </trkpt>
      <trkpt lat="44.90485" lon="4.42761">
        <ele>529.99</ele>
        <time>2022-03-22T15:49:27Z</time>
      </trkpt>
      <trkpt lat="44.90478" lon="4.4276">
        <ele>529.89</ele>
        <time>2022-03-22T15:49:30Z</time>
      </trkpt>
      <trkpt lat="44.90454" lon="4.42768">
        <ele>532.29</ele>
        <time>2022-03-22T15:49:32Z</time>
      </trkpt>
      <trkpt lat="44.9043" lon="4.42783">
        <ele>538.74</ele>
        <time>2022-03-22T15:49:34Z</time>
      </trkpt>
      <trkpt lat="44.90401" lon="4.42796">
        <ele>544.89</ele>
        <time>2022-03-22T15:49:37Z</time>
      </trkpt>
      <trkpt lat="44.90384" lon="4.42806">
        <ele>547.22</ele>
        <time>2022-03-22T15:49:39Z</time>
      </trkpt>
      <trkpt lat="44.90374" lon="4.42819">
        <ele>552.63</ele>
        <time>2022-03-22T15:49:41Z</time>
      </trkpt>
      <trkpt lat="44.90357" lon="4.42853">
        <ele>563.15</ele>
        <time>2022-03-22T15:49:43Z</time>
      </trkpt>
      <trkpt lat="44.90345" lon="4.42872">
        <ele>566.75</ele>
        <time>2022-03-22T15:49:46Z</time>
      </trkpt>
      <trkpt lat="44.90324" lon="4.42896">
        <ele>567.02</ele>
        <time>2022-03-22T15:49:48Z</time>
      </trkpt>
      <trkpt lat="44.90307" lon="4.42921">
        <ele>565.12</ele>
        <time>2022-03-22T15:49:50Z</time>
      </trkpt>
      <trkpt lat="44.90303" lon="4.42927">
        <ele>565.56</ele>
        <time>2022-03-22T15:49:53Z</time>
      </trkpt>
      <trkpt lat="44.90296" lon="4.4295">
        <ele>568.02</ele>
        <time>2022-03-22T15:49:55Z</time>
      </trkpt>
      <trkpt lat="44.90289" lon="4.4296">
        <ele>568.34</ele>
        <time>2022-03-22T15:49:57Z</time>
      </trkpt>
      <trkpt lat="44.90277" lon="4.42976">
        <ele>568.87</ele>
        <time>2022-03-22T15:50:00Z</time>
      </trkpt>
      <trkpt lat="44.90271" lon="4.42979">
        <ele>569.88</ele>
        <time>2022-03-22T15:50:02Z</time>
      </trkpt>
      <trkpt lat="44.90264" lon="4.42979">
        <ele>570.29</ele>
        <time>2022-03-22T15:50:04Z</time>
      </trkpt>
      <trkpt lat="44.90259" lon="4.42975">
        <ele>569.86</ele>
        <time>2022-03-22T15:50:06Z</time>
      </trkpt>
      <trkpt lat="44.90249" lon="4.42955">
        <ele>567.79</ele>
        <time>2022-03-22T15:50:09Z</time>
      </trkpt>
      <trkpt lat="44.90245" lon="4.4295">
        <ele>568.64</ele>
        <time>2022-03-22T15:50:11Z</time>
      </trkpt>
      <trkpt lat="44.90239" lon="4.42948">
        <ele>570.41</ele>
        <time>2022-03-22T15:50:13Z</time>
      </trkpt>
      <trkpt lat="44.90221" lon="4.42945">
        <ele>576.45</ele>
        <time>2022-03-22T15:50:16Z</time>
      </trkpt>
      <trkpt lat="44.90215" lon="4.42941">
        <ele>577.65</ele>
        <time>2022-03-22T15:50:18Z</time>
      </trkpt>
      <trkpt lat="44.90211" lon="4.42936">
        <ele>578.25</ele>
        <time>2022-03-22T15:50:20Z</time>
      </trkpt>
      <trkpt lat="44.9021" lon="4.42927">
        <ele>578.22</ele>
        <time>2022-03-22T15:50:22Z</time>
      </trkpt>
      <trkpt lat="44.90212" lon="4.42917">
        <ele>577.09</ele>
        <time>2022-03-22T15:50:25Z</time>
      </trkpt>
      <trkpt lat="44.90217" lon="4.42904">
        <ele>575.84</ele>
        <time>2022-03-22T15:50:27Z</time>
      </trkpt>
      <trkpt lat="44.90229" lon="4.42863">
        <ele>574.13</ele>
        <time>2022-03-22T15:50:29Z</time>
      </trkpt>
      <trkpt lat="44.90231" lon="4.42849">
        <ele>573.5</ele>
        <time>2022-03-22T15:50:32Z</time>
      </trkpt>
      <trkpt lat="44.90226" lon="4.42835">
        <ele>574.28</ele>
        <time>2022-03-22T15:50:34Z</time>
      </trkpt>
      <trkpt lat="44.90217" lon="4.42831">
        <ele>575.64</ele>
        <time>2022-03-22T15:50:36Z</time>
      </trkpt>
      <trkpt lat="44.90211" lon="4.42832">
        <ele>576.93</ele>
        <time>2022-03-22T15:50:38Z</time>
      </trkpt>
      <trkpt lat="44.90201" lon="4.42841">
        <ele>579.39</ele>
        <time>2022-03-22T15:50:41Z</time>
      </trkpt>
      <trkpt lat="44.90192" lon="4.42854">
        <ele>581.33</ele>
        <time>2022-03-22T15:50:43Z</time>
      </trkpt>
      <trkpt lat="44.90183" lon="4.42873">
        <ele>582.36</ele>
        <time>2022-03-22T15:50:45Z</time>
      </trkpt>
      <trkpt lat="44.9017" lon="4.42949">
        <ele>589.66</ele>
        <time>2022-03-22T15:50:48Z</time>
      </trkpt>
      <trkpt lat="44.90171" lon="4.42961">
        <ele>590.67</ele>
        <time>2022-03-22T15:50:50Z</time>
      </trkpt>
      <trkpt lat="44.90183" lon="4.42999">
        <ele>593.52</ele>
        <time>2022-03-22T15:50:52Z</time>
      </trkpt>
      <trkpt lat="44.90184" lon="4.43008">
        <ele>595.06</ele>
        <time>2022-03-22T15:50:54Z</time>
      </trkpt>
      <trkpt lat="44.90182" lon="4.43021">
        <ele>598.22</ele>
        <time>2022-03-22T15:50:57Z</time>
      </trkpt>
      <trkpt lat="44.90168" lon="4.43064">
        <ele>608.86</ele>
        <time>2022-03-22T15:50:59Z</time>
      </trkpt>
      <trkpt lat="44.90166" lon="4.43085">
        <ele>610.18</ele>
        <time>2022-03-22T15:51:01Z</time>
      </trkpt>
      <trkpt lat="44.90167" lon="4.43095">
        <ele>609.93</ele>
        <time>2022-03-22T15:51:04Z</time>
      </trkpt>
      <trkpt lat="44.90174" lon="4.43105">
        <ele>608.69</ele>
        <time>2022-03-22T15:51:06Z</time>
      </trkpt>
      <trkpt lat="44.90195" lon="4.43127">
        <ele>605.44</ele>
        <time>2022-03-22T15:51:08Z</time>
      </trkpt>
      <trkpt lat="44.90199" lon="4.43134">
        <ele>605.31</ele>
        <time>2022-03-22T15:51:11Z</time>
      </trkpt>
      <trkpt lat="44.90201" lon="4.43144">
        <ele>605.09</ele>
        <time>2022-03-22T15:51:13Z</time>
      </trkpt>
      <trkpt lat="44.902" lon="4.4315">
        <ele>604.93</ele>
        <time>2022-03-22T15:51:15Z</time>
      </trkpt>
      <trkpt lat="44.90196" lon="4.43158">
        <ele>605.17</ele>
        <time>2022-03-22T15:51:17Z</time>
      </trkpt>
      <trkpt lat="44.90185" lon="4.43166">
        <ele>606.98</ele>
        <time>2022-03-22T15:51:20Z</time>
      </trkpt>
      <trkpt lat="44.90173" lon="4.43163">
        <ele>609.63</ele>
        <time>2022-03-22T15:51:22Z</time>
      </trkpt>
      <trkpt lat="44.90167" lon="4.43158">
        <ele>610.59</ele>
        <time>2022-03-22T15:51:24Z</time>
      </trkpt>
      <trkpt lat="44.90139" lon="4.43126">
        <ele>616.46</ele>
        <time>2022-03-22T15:51:27Z</time>
      </trkpt>
      <trkpt lat="44.90128" lon="4.4311">
        <ele>620.15</ele>
        <time>2022-03-22T15:51:29Z</time>
      </trkpt>
      <trkpt lat="44.90124" lon="4.43101">
        <ele>621.45</ele>
        <time>2022-03-22T15:51:31Z</time>
      </trkpt>
      <trkpt lat="44.90122" lon="4.43087">
        <ele>621.33</ele>
        <time>2022-03-22T15:51:33Z</time>
      </trkpt>
      <trkpt lat="44.90117" lon="4.43073">
        <ele>621.85</ele>
        <time>2022-03-22T15:51:36Z</time>
      </trkpt>
      <trkpt lat="44.90112" lon="4.43061">
        <ele>622.36</ele>
        <time>2022-03-22T15:51:38Z</time>
      </trkpt>
      <trkpt lat="44.90105" lon="4.43051">
        <ele>622.77</ele>
        <time>2022-03-22T15:51:40Z</time>
      </trkpt>
      <trkpt lat="44.90096" lon="4.43047">
        <ele>623.91</ele>
        <time>2022-03-22T15:51:43Z</time>
      </trkpt>
      <trkpt lat="44.90075" lon="4.43042">
        <ele>626.46</ele>
        <time>2022-03-22T15:51:45Z</time>
      </trkpt>
      <trkpt lat="44.90041" lon="4.43049">
        <ele>629.38</ele>
        <time>2022-03-22T15:51:47Z</time>
      </trkpt>
      <trkpt lat="44.90029" lon="4.43054">
        <ele>629.81</ele>
        <time>2022-03-22T15:51:49Z</time>
      </trkpt>
      <trkpt lat="44.9002" lon="4.43063">
        <ele>632.21</ele>
        <time>2022-03-22T15:51:52Z</time>
      </trkpt>
      <trkpt lat="44.90003" lon="4.43092">
        <ele>641.07</ele>
        <time>2022-03-22T15:51:54Z</time>
      </trkpt>
      <trkpt lat="44.89983" lon="4.43141">
        <ele>652.17</ele>
        <time>2022-03-22T15:51:56Z</time>
      </trkpt>
      <trkpt lat="44.89978" lon="4.43147">
        <ele>652.58</ele>
        <time>2022-03-22T15:51:59Z</time>
      </trkpt>
      <trkpt lat="44.89968" lon="4.43154">
        <ele>653.04</ele>
        <time>2022-03-22T15:52:01Z</time>
      </trkpt>
      <trkpt lat="44.89962" lon="4.43154">
        <ele>652.57</ele>
        <time>2022-03-22T15:52:03Z</time>
      </trkpt>
      <trkpt lat="44.89941" lon="4.43141">
        <ele>646.99</ele>
        <time>2022-03-22T15:52:06Z</time>
      </trkpt>
      <trkpt lat="44.89933" lon="4.43139">
        <ele>646.77</ele>
        <time>2022-03-22T15:52:08Z</time>
      </trkpt>
      <trkpt lat="44.89924" lon="4.43139">
        <ele>647.62</ele>
        <time>2022-03-22T15:52:10Z</time>
      </trkpt>
      <trkpt lat="44.89865" lon="4.4317">
        <ele>661.32</ele>
        <time>2022-03-22T15:52:12Z</time>
      </trkpt>
      <trkpt lat="44.89851" lon="4.43175">
        <ele>664.03</ele>
        <time>2022-03-22T15:52:15Z</time>
      </trkpt>
      <trkpt lat="44.8981" lon="4.43178">
        <ele>673.57</ele>
        <time>2022-03-22T15:52:17Z</time>
      </trkpt>
      <trkpt lat="44.89802" lon="4.43176">
        <ele>674.28</ele>
        <time>2022-03-22T15:52:19Z</time>
      </trkpt>
      <trkpt lat="44.89793" lon="4.43169">
        <ele>672.94</ele>
        <time>2022-03-22T15:52:22Z</time>
      </trkpt>
      <trkpt lat="44.89776" lon="4.43148">
        <ele>670.62</ele>
        <time>2022-03-22T15:52:24Z</time>
      </trkpt>
      <trkpt lat="44.8977" lon="4.43146">
        <ele>670.22</ele>
        <time>2022-03-22T15:52:26Z</time>
      </trkpt>
      <trkpt lat="44.89765" lon="4.43148">
        <ele>670.61</ele>
        <time>2022-03-22T15:52:28Z</time>
      </trkpt>
      <trkpt lat="44.89764" lon="4.4316">
        <ele>672.83</ele>
        <time>2022-03-22T15:52:31Z</time>
      </trkpt>
      <trkpt lat="44.89791" lon="4.43203">
        <ele>682.82</ele>
        <time>2022-03-22T15:52:33Z</time>
      </trkpt>
      <trkpt lat="44.89803" lon="4.43216">
        <ele>685.64</ele>
        <time>2022-03-22T15:52:35Z</time>
      </trkpt>
      <trkpt lat="44.89814" lon="4.43222">
        <ele>686.41</ele>
        <time>2022-03-22T15:52:38Z</time>
      </trkpt>
      <trkpt lat="44.89843" lon="4.43231">
        <ele>685.48</ele>
        <time>2022-03-22T15:52:40Z</time>
      </trkpt>
      <trkpt lat="44.89854" lon="4.43238">
        <ele>684.87</ele>
        <time>2022-03-22T15:52:42Z</time>
      </trkpt>
      <trkpt lat="44.89861" lon="4.43249">
        <ele>684.06</ele>
        <time>2022-03-22T15:52:44Z</time>
      </trkpt>
      <trkpt lat="44.89864" lon="4.43262">
        <ele>682.86</ele>
        <time>2022-03-22T15:52:47Z</time>
      </trkpt>
      <trkpt lat="44.89864" lon="4.43276">
        <ele>681.76</ele>
        <time>2022-03-22T15:52:49Z</time>
      </trkpt>
      <trkpt lat="44.89859" lon="4.43285">
        <ele>682.43</ele>
        <time>2022-03-22T15:52:51Z</time>
      </trkpt>
      <trkpt lat="44.89849" lon="4.43287">
        <ele>685.19</ele>
        <time>2022-03-22T15:52:54Z</time>
      </trkpt>
      <trkpt lat="44.89825" lon="4.43281">
        <ele>692.56</ele>
        <time>2022-03-22T15:52:56Z</time>
      </trkpt>
      <trkpt lat="44.89806" lon="4.43273">
        <ele>697.83</ele>
        <time>2022-03-22T15:52:58Z</time>
      </trkpt>
      <trkpt lat="44.8979" lon="4.43272">
        <ele>700.47</ele>
        <time>2022-03-22T15:53:00Z</time>
      </trkpt>
      <trkpt lat="44.89755" lon="4.43266">
        <ele>703.09</ele>
        <time>2022-03-22T15:53:03Z</time>
      </trkpt>
      <trkpt lat="44.89741" lon="4.43268">
        <ele>703.78</ele>
        <time>2022-03-22T15:53:05Z</time>
      </trkpt>
      <trkpt lat="44.89692" lon="4.4332">
        <ele>717.87</ele>
        <time>2022-03-22T15:53:07Z</time>
      </trkpt>
      <trkpt lat="44.89675" lon="4.43329">
        <ele>722.2</ele>
        <time>2022-03-22T15:53:10Z</time>
      </trkpt>
      <trkpt lat="44.89659" lon="4.43329">
        <ele>725.01</ele>
        <time>2022-03-22T15:53:12Z</time>
      </trkpt>
      <trkpt lat="44.89647" lon="4.43325">
        <ele>727.36</ele>
        <time>2022-03-22T15:53:14Z</time>
      </trkpt>
      <trkpt lat="44.89627" lon="4.43306">
        <ele>726.99</ele>
        <time>2022-03-22T15:53:17Z</time>
      </trkpt>
      <trkpt lat="44.89614" lon="4.43301">
        <ele>728.85</ele>
        <time>2022-03-22T15:53:19Z</time>
      </trkpt>
      <trkpt lat="44.89599" lon="4.43301">
        <ele>731.86</ele>
        <time>2022-03-22T15:53:21Z</time>
      </trkpt>
      <trkpt lat="44.89588" lon="4.43298">
        <ele>733.26</ele>
        <time>2022-03-22T15:53:23Z</time>
      </trkpt>
      <trkpt lat="44.89579" lon="4.43294">
        <ele>734.54</ele>
        <time>2022-03-22T15:53:26Z</time>
      </trkpt>
      <trkpt lat="44.89553" lon="4.43251">
        <ele>730.51</ele>
        <time>2022-03-22T15:53:28Z</time>
      </trkpt>
      <trkpt lat="44.89517" lon="4.43214">
        <ele>738.32</ele>
        <time>2022-03-22T15:53:30Z</time>
      </trkpt>
      <trkpt lat="44.89509" lon="4.43206">
        <ele>739.72</ele>
        <time>2022-03-22T15:53:33Z</time>
      </trkpt>
      <trkpt lat="44.89482" lon="4.43201">
        <ele>748.16</ele>
        <time>2022-03-22T15:53:35Z</time>
      </trkpt>
      <trkpt lat="44.89477" lon="4.43198">
        <ele>749.19</ele>
        <time>2022-03-22T15:53:37Z</time>
      </trkpt>
      <trkpt lat="44.89469" lon="4.43172">
        <ele>747.44</ele>
        <time>2022-03-22T15:53:39Z</time>
      </trkpt>
      <trkpt lat="44.89463" lon="4.4316">
        <ele>746.95</ele>
        <time>2022-03-22T15:53:42Z</time>
      </trkpt>
      <trkpt lat="44.89459" lon="4.43131">
        <ele>743.66</ele>
        <time>2022-03-22T15:53:44Z</time>
      </trkpt>
      <trkpt lat="44.89453" lon="4.43119">
        <ele>742.76</ele>
        <time>2022-03-22T15:53:46Z</time>
      </trkpt>
      <trkpt lat="44.89444" lon="4.4311">
        <ele>743.74</ele>
        <time>2022-03-22T15:53:49Z</time>
      </trkpt>
      <trkpt lat="44.89397" lon="4.43101">
        <ele>750.1</ele>
        <time>2022-03-22T15:53:51Z</time>
      </trkpt>
      <trkpt lat="44.89348" lon="4.43085">
        <ele>760.05</ele>
        <time>2022-03-22T15:53:53Z</time>
      </trkpt>
      <trkpt lat="44.89317" lon="4.43071">
        <ele>764.35</ele>
        <time>2022-03-22T15:53:55Z</time>
      </trkpt>
      <trkpt lat="44.89303" lon="4.43067">
        <ele>765.38</ele>
        <time>2022-03-22T15:53:58Z</time>
      </trkpt>
      <trkpt lat="44.8929" lon="4.43073">
        <ele>765.85</ele>
        <time>2022-03-22T15:54:00Z</time>
      </trkpt>
      <trkpt lat="44.89281" lon="4.43086">
        <ele>767.53</ele>
        <time>2022-03-22T15:54:02Z</time>
      </trkpt>
      <trkpt lat="44.89261" lon="4.43125">
        <ele>767.52</ele>
        <time>2022-03-22T15:54:05Z</time>
      </trkpt>
      <trkpt lat="44.89251" lon="4.4314">
        <ele>766.19</ele>
        <time>2022-03-22T15:54:07Z</time>
      </trkpt>
      <trkpt lat="44.89233" lon="4.43154">
        <ele>764.47</ele>
        <time>2022-03-22T15:54:09Z</time>
      </trkpt>
      <trkpt lat="44.89201" lon="4.4317">
        <ele>765.15</ele>
        <time>2022-03-22T15:54:12Z</time>
      </trkpt>
      <trkpt lat="44.89151" lon="4.4322">
        <ele>779.1</ele>
        <time>2022-03-22T15:54:14Z</time>
      </trkpt>
      <trkpt lat="44.8914" lon="4.43225">
        <ele>782.91</ele>
        <time>2022-03-22T15:54:16Z</time>
      </trkpt>
      <trkpt lat="44.89129" lon="4.43223">
        <ele>784.47</ele>
        <time>2022-03-22T15:54:18Z</time>
      </trkpt>
      <trkpt lat="44.89059" lon="4.4319">
        <ele>786.73</ele>
        <time>2022-03-22T15:54:21Z</time>
      </trkpt>
      <trkpt lat="44.89045" lon="4.43169">
        <ele>787.05</ele>
        <time>2022-03-22T15:54:23Z</time>
      </trkpt>
      <trkpt lat="44.89037" lon="4.4314">
        <ele>789.33</ele>
        <time>2022-03-22T15:54:25Z</time>
      </trkpt>
      <trkpt lat="44.89035" lon="4.43081">
        <ele>792.84</ele>
        <time>2022-03-22T15:54:28Z</time>
      </trkpt>
      <trkpt lat="44.89027" lon="4.43044">
        <ele>790.55</ele>
        <time>2022-03-22T15:54:30Z</time>
      </trkpt>
      <trkpt lat="44.89007" lon="4.43022">
        <ele>794.47</ele>
        <time>2022-03-22T15:54:32Z</time>
      </trkpt>
      <trkpt lat="44.88984" lon="4.42982">
        <ele>801</ele>
        <time>2022-03-22T15:54:34Z</time>
      </trkpt>
      <trkpt lat="44.88965" lon="4.42935">
        <ele>808.76</ele>
        <time>2022-03-22T15:54:37Z</time>
      </trkpt>
      <trkpt lat="44.8896" lon="4.42895">
        <ele>809.43</ele>
        <time>2022-03-22T15:54:39Z</time>
      </trkpt>
      <trkpt lat="44.88955" lon="4.42877">
        <ele>809.15</ele>
        <time>2022-03-22T15:54:41Z</time>
      </trkpt>
      <trkpt lat="44.88923" lon="4.42816">
        <ele>817.04</ele>
        <time>2022-03-22T15:54:44Z</time>
      </trkpt>
      <trkpt lat="44.88894" lon="4.42769">
        <ele>823.27</ele>
        <time>2022-03-22T15:54:46Z</time>
      </trkpt>
      <trkpt lat="44.88834" lon="4.42682">
        <ele>832.73</ele>
        <time>2022-03-22T15:54:48Z</time>
      </trkpt>
      <trkpt lat="44.88797" lon="4.42634">
        <ele>838.35</ele>
        <time>2022-03-22T15:54:50Z</time>
      </trkpt>
      <trkpt lat="44.8876" lon="4.42568">
        <ele>840.41</ele>
        <time>2022-03-22T15:54:53Z</time>
      </trkpt>
      <trkpt lat="44.88741" lon="4.42523">
        <ele>848.05</ele>
        <time>2022-03-22T15:54:55Z</time>
      </trkpt>
      <trkpt lat="44.88723" lon="4.42455">
        <ele>855.66</ele>
        <time>2022-03-22T15:54:57Z</time>
      </trkpt>
      <trkpt lat="44.88706" lon="4.42355">
        <ele>869.59</ele>
        <time>2022-03-22T15:55:00Z</time>
      </trkpt>
      <trkpt lat="44.88697" lon="4.42333">
        <ele>874.81</ele>
        <time>2022-03-22T15:55:02Z</time>
      </trkpt>
      <trkpt lat="44.88674" lon="4.42295">
        <ele>884.14</ele>
        <time>2022-03-22T15:55:04Z</time>
      </trkpt>
      <trkpt lat="44.8866" lon="4.42265">
        <ele>889.82</ele>
        <time>2022-03-22T15:55:07Z</time>
      </trkpt>
      <trkpt lat="44.88657" lon="4.4225">
        <ele>889.8</ele>
        <time>2022-03-22T15:55:09Z</time>
      </trkpt>
      <trkpt lat="44.88657" lon="4.42233">
        <ele>887.17</ele>
        <time>2022-03-22T15:55:11Z</time>
      </trkpt>
      <trkpt lat="44.88661" lon="4.42219">
        <ele>884.24</ele>
        <time>2022-03-22T15:55:13Z</time>
      </trkpt>
      <trkpt lat="44.88658" lon="4.42206">
        <ele>882.59</ele>
        <time>2022-03-22T15:55:16Z</time>
      </trkpt>
      <trkpt lat="44.88647" lon="4.42183">
        <ele>879.8</ele>
        <time>2022-03-22T15:55:18Z</time>
      </trkpt>
      <trkpt lat="44.88641" lon="4.42181">
        <ele>880.15</ele>
        <time>2022-03-22T15:55:20Z</time>
      </trkpt>
      <trkpt lat="44.88607" lon="4.42189">
        <ele>893.89</ele>
        <time>2022-03-22T15:55:23Z</time>
      </trkpt>
      <trkpt lat="44.88596" lon="4.42173">
        <ele>893.18</ele>
        <time>2022-03-22T15:55:25Z</time>
      </trkpt>
      <trkpt lat="44.88589" lon="4.4215">
        <ele>888.45</ele>
        <time>2022-03-22T15:55:27Z</time>
      </trkpt>
      <trkpt lat="44.88547" lon="4.42101">
        <ele>884.74</ele>
        <time>2022-03-22T15:55:29Z</time>
      </trkpt>
      <trkpt lat="44.88525" lon="4.42081">
        <ele>884.12</ele>
        <time>2022-03-22T15:55:32Z</time>
      </trkpt>
      <trkpt lat="44.88483" lon="4.42057">
        <ele>886.82</ele>
        <time>2022-03-22T15:55:34Z</time>
      </trkpt>
      <trkpt lat="44.88467" lon="4.42058">
        <ele>889.64</ele>
        <time>2022-03-22T15:55:36Z</time>
      </trkpt>
      <trkpt lat="44.88453" lon="4.42064">
        <ele>891.67</ele>
        <time>2022-03-22T15:55:39Z</time>
      </trkpt>
      <trkpt lat="44.8844" lon="4.42074">
        <ele>894.79</ele>
        <time>2022-03-22T15:55:41Z</time>
      </trkpt>
      <trkpt lat="44.88405" lon="4.42108">
        <ele>906.79</ele>
        <time>2022-03-22T15:55:43Z</time>
      </trkpt>
      <trkpt lat="44.88396" lon="4.42112">
        <ele>906.97</ele>
        <time>2022-03-22T15:55:45Z</time>
      </trkpt>
      <trkpt lat="44.88386" lon="4.42112">
        <ele>905.17</ele>
        <time>2022-03-22T15:55:48Z</time>
      </trkpt>
      <trkpt lat="44.88324" lon="4.42094">
        <ele>910.51</ele>
        <time>2022-03-22T15:55:50Z</time>
      </trkpt>
      <trkpt lat="44.88297" lon="4.42079">
        <ele>914.74</ele>
        <time>2022-03-22T15:55:52Z</time>
      </trkpt>
      <trkpt lat="44.88283" lon="4.42064">
        <ele>917.91</ele>
        <time>2022-03-22T15:55:55Z</time>
      </trkpt>
      <trkpt lat="44.88254" lon="4.4201">
        <ele>921.38</ele>
        <time>2022-03-22T15:55:57Z</time>
      </trkpt>
      <trkpt lat="44.88214" lon="4.41965">
        <ele>927.11</ele>
        <time>2022-03-22T15:55:59Z</time>
      </trkpt>
      <trkpt lat="44.88202" lon="4.41933">
        <ele>927.33</ele>
        <time>2022-03-22T15:56:01Z</time>
      </trkpt>
      <trkpt lat="44.88188" lon="4.41884">
        <ele>928.22</ele>
        <time>2022-03-22T15:56:04Z</time>
      </trkpt>
      <trkpt lat="44.88182" lon="4.41869">
        <ele>928.11</ele>
        <time>2022-03-22T15:56:06Z</time>
      </trkpt>
      <trkpt lat="44.88174" lon="4.41857">
        <ele>928.38</ele>
        <time>2022-03-22T15:56:08Z</time>
      </trkpt>
      <trkpt lat="44.88162" lon="4.4185">
        <ele>929.83</ele>
        <time>2022-03-22T15:56:11Z</time>
      </trkpt>
      <trkpt lat="44.88136" lon="4.41843">
        <ele>934.33</ele>
        <time>2022-03-22T15:56:13Z</time>
      </trkpt>
      <trkpt lat="44.88099" lon="4.41837">
        <ele>938.18</ele>
        <time>2022-03-22T15:56:15Z</time>
      </trkpt>
      <trkpt lat="44.88084" lon="4.41842">
        <ele>941.53</ele>
        <time>2022-03-22T15:56:18Z</time>
      </trkpt>
      <trkpt lat="44.88043" lon="4.41866">
        <ele>944.98</ele>
        <time>2022-03-22T15:56:20Z</time>
      </trkpt>
      <trkpt lat="44.88006" lon="4.41881">
        <ele>947.76</ele>
        <time>2022-03-22T15:56:22Z</time>
      </trkpt>
      <trkpt lat="44.87999" lon="4.41888">
        <ele>948.1</ele>
        <time>2022-03-22T15:56:24Z</time>
      </trkpt>
      <trkpt lat="44.87991" lon="4.41901">
        <ele>949.1</ele>
        <time>2022-03-22T15:56:27Z</time>
      </trkpt>
      <trkpt lat="44.87981" lon="4.4193">
        <ele>951.04</ele>
        <time>2022-03-22T15:56:29Z</time>
      </trkpt>
      <trkpt lat="44.87977" lon="4.41936">
        <ele>951.83</ele>
        <time>2022-03-22T15:56:31Z</time>
      </trkpt>
      <trkpt lat="44.87972" lon="4.41937">
        <ele>952.45</ele>
        <time>2022-03-22T15:56:34Z</time>
      </trkpt>
      <trkpt lat="44.87881" lon="4.41883">
        <ele>961.64</ele>
        <time>2022-03-22T15:56:36Z</time>
      </trkpt>
      <trkpt lat="44.87853" lon="4.41862">
        <ele>963.8</ele>
        <time>2022-03-22T15:56:38Z</time>
      </trkpt>
      <trkpt lat="44.87828" lon="4.41849">
        <ele>968.08</ele>
        <time>2022-03-22T15:56:40Z</time>
      </trkpt>
      <trkpt lat="44.87782" lon="4.41833">
        <ele>970</ele>
        <time>2022-03-22T15:56:43Z</time>
      </trkpt>
      <trkpt lat="44.87696" lon="4.41775">
        <ele>973.01</ele>
        <time>2022-03-22T15:56:45Z</time>
      </trkpt>
      <trkpt lat="44.87564" lon="4.41667">
        <ele>982.03</ele>
        <time>2022-03-22T15:56:47Z</time>
      </trkpt>
      <trkpt lat="44.87549" lon="4.4165">
        <ele>982.21</ele>
        <time>2022-03-22T15:56:50Z</time>
      </trkpt>
      <trkpt lat="44.87479" lon="4.4154">
        <ele>973.68</ele>
        <time>2022-03-22T15:56:52Z</time>
      </trkpt>
      <trkpt lat="44.87405" lon="4.41431">
        <ele>974.8</ele>
        <time>2022-03-22T15:56:54Z</time>
      </trkpt>
      <trkpt lat="44.87388" lon="4.41415">
        <ele>972.21</ele>
        <time>2022-03-22T15:56:56Z</time>
      </trkpt>
      <trkpt lat="44.87377" lon="4.41389">
        <ele>973.91</ele>
        <time>2022-03-22T15:56:59Z</time>
      </trkpt>
      <trkpt lat="44.87361" lon="4.41347">
        <ele>973</ele>
        <time>2022-03-22T15:57:01Z</time>
      </trkpt>
      <trkpt lat="44.8736" lon="4.41331">
        <ele>973.29</ele>
        <time>2022-03-22T15:57:03Z</time>
      </trkpt>
      <trkpt lat="44.87362" lon="4.41309">
        <ele>972.64</ele>
        <time>2022-03-22T15:57:06Z</time>
      </trkpt>
      <trkpt lat="44.87368" lon="4.41287">
        <ele>975.18</ele>
        <time>2022-03-22T15:57:08Z</time>
      </trkpt>
      <trkpt lat="44.8737" lon="4.41274">
        <ele>976.09</ele>
        <time>2022-03-22T15:57:10Z</time>
      </trkpt>
      <trkpt lat="44.87368" lon="4.41255">
        <ele>976.7</ele>
        <time>2022-03-22T15:57:13Z</time>
      </trkpt>
      <trkpt lat="44.87358" lon="4.41221">
        <ele>977.15</ele>
        <time>2022-03-22T15:57:15Z</time>
      </trkpt>
      <trkpt lat="44.8735" lon="4.41209">
        <ele>976.78</ele>
        <time>2022-03-22T15:57:17Z</time>
      </trkpt>
      <trkpt lat="44.87328" lon="4.41188">
        <ele>972.79</ele>
        <time>2022-03-22T15:57:19Z</time>
      </trkpt>
      <trkpt lat="44.87298" lon="4.41151">
        <ele>974.97</ele>
        <time>2022-03-22T15:57:22Z</time>
      </trkpt>
      <trkpt lat="44.8726" lon="4.41121">
        <ele>979.26</ele>
        <time>2022-03-22T15:57:24Z</time>
      </trkpt>
      <trkpt lat="44.87211" lon="4.4109">
        <ele>981.49</ele>
        <time>2022-03-22T15:57:26Z</time>
      </trkpt>
      <trkpt lat="44.87189" lon="4.41082">
        <ele>977.91</ele>
        <time>2022-03-22T15:57:29Z</time>
      </trkpt>
      <trkpt lat="44.87176" lon="4.41083">
        <ele>974.42</ele>
        <time>2022-03-22T15:57:31Z</time>
      </trkpt>
      <trkpt lat="44.87165" lon="4.4107">
        <ele>974.88</ele>
        <time>2022-03-22T15:57:33Z</time>
      </trkpt>
      <trkpt lat="44.87158" lon="4.41056">
        <ele>975.74</ele>
        <time>2022-03-22T15:57:35Z</time>
      </trkpt>
      <trkpt lat="44.87155" lon="4.41039">
        <ele>975.67</ele>
        <time>2022-03-22T15:57:38Z</time>
      </trkpt>
      <trkpt lat="44.87158" lon="4.40994">
        <ele>974.05</ele>
        <time>2022-03-22T15:57:40Z</time>
      </trkpt>
      <trkpt lat="44.8718" lon="4.40909">
        <ele>978.21</ele>
        <time>2022-03-22T15:57:42Z</time>
      </trkpt>
      <trkpt lat="44.87181" lon="4.40871">
        <ele>975.77</ele>
        <time>2022-03-22T15:57:45Z</time>
      </trkpt>
      <trkpt lat="44.87178" lon="4.40811">
        <ele>975.78</ele>
        <time>2022-03-22T15:57:47Z</time>
      </trkpt>
      <trkpt lat="44.87171" lon="4.40767">
        <ele>981.47</ele>
        <time>2022-03-22T15:57:49Z</time>
      </trkpt>
      <trkpt lat="44.87165" lon="4.40749">
        <ele>981.93</ele>
        <time>2022-03-22T15:57:51Z</time>
      </trkpt>
      <trkpt lat="44.87154" lon="4.40731">
        <ele>979.27</ele>
        <time>2022-03-22T15:57:54Z</time>
      </trkpt>
      <trkpt lat="44.8713" lon="4.40704">
        <ele>977.72</ele>
        <time>2022-03-22T15:57:56Z</time>
      </trkpt>
      <trkpt lat="44.87107" lon="4.40682">
        <ele>977.6</ele>
        <time>2022-03-22T15:57:58Z</time>
      </trkpt>
      <trkpt lat="44.87091" lon="4.40671">
        <ele>976.13</ele>
        <time>2022-03-22T15:58:01Z</time>
      </trkpt>
      <trkpt lat="44.87066" lon="4.40658">
        <ele>970.79</ele>
        <time>2022-03-22T15:58:03Z</time>
      </trkpt>
      <trkpt lat="44.87043" lon="4.40642">
        <ele>967.53</ele>
        <time>2022-03-22T15:58:05Z</time>
      </trkpt>
      <trkpt lat="44.87027" lon="4.40621">
        <ele>965.22</ele>
        <time>2022-03-22T15:58:07Z</time>
      </trkpt>
      <trkpt lat="44.87012" lon="4.40586">
        <ele>967.44</ele>
        <time>2022-03-22T15:58:10Z</time>
      </trkpt>
      <trkpt lat="44.87003" lon="4.40542">
        <ele>973.63</ele>
        <time>2022-03-22T15:58:12Z</time>
      </trkpt>
      <trkpt lat="44.87" lon="4.40495">
        <ele>975.6</ele>
        <time>2022-03-22T15:58:14Z</time>
      </trkpt>
      <trkpt lat="44.86995" lon="4.4047">
        <ele>971.71</ele>
        <time>2022-03-22T15:58:17Z</time>
      </trkpt>
      <trkpt lat="44.86986" lon="4.40447">
        <ele>969.41</ele>
        <time>2022-03-22T15:58:19Z</time>
      </trkpt>
      <trkpt lat="44.86971" lon="4.40423">
        <ele>967.94</ele>
        <time>2022-03-22T15:58:21Z</time>
      </trkpt>
      <trkpt lat="44.86929" lon="4.40387">
        <ele>966.12</ele>
        <time>2022-03-22T15:58:24Z</time>
      </trkpt>
      <trkpt lat="44.86872" lon="4.40306">
        <ele>965.7</ele>
        <time>2022-03-22T15:58:26Z</time>
      </trkpt>
      <trkpt lat="44.86835" lon="4.4023">
        <ele>970.35</ele>
        <time>2022-03-22T15:58:28Z</time>
      </trkpt>
      <trkpt lat="44.86812" lon="4.40193">
        <ele>973.32</ele>
        <time>2022-03-22T15:58:30Z</time>
      </trkpt>
      <trkpt lat="44.86801" lon="4.40184">
        <ele>973.11</ele>
        <time>2022-03-22T15:58:33Z</time>
      </trkpt>
      <trkpt lat="44.86791" lon="4.40182">
        <ele>972.7</ele>
        <time>2022-03-22T15:58:35Z</time>
      </trkpt>
      <trkpt lat="44.86781" lon="4.40186">
        <ele>969.96</ele>
        <time>2022-03-22T15:58:37Z</time>
      </trkpt>
      <trkpt lat="44.86757" lon="4.40208">
        <ele>968.86</ele>
        <time>2022-03-22T15:58:40Z</time>
      </trkpt>
      <trkpt lat="44.86717" lon="4.40266">
        <ele>964.67</ele>
        <time>2022-03-22T15:58:42Z</time>
      </trkpt>
      <trkpt lat="44.86686" lon="4.4032">
        <ele>957.34</ele>
        <time>2022-03-22T15:58:44Z</time>
      </trkpt>
      <trkpt lat="44.86653" lon="4.40393">
        <ele>957.47</ele>
        <time>2022-03-22T15:58:46Z</time>
      </trkpt>
      <trkpt lat="44.86628" lon="4.40443">
        <ele>950.93</ele>
        <time>2022-03-22T15:58:49Z</time>
      </trkpt>
      <trkpt lat="44.86584" lon="4.40498">
        <ele>957.07</ele>
        <time>2022-03-22T15:58:51Z</time>
      </trkpt>
      <trkpt lat="44.86567" lon="4.40515">
        <ele>957.42</ele>
        <time>2022-03-22T15:58:53Z</time>
      </trkpt>
      <trkpt lat="44.86552" lon="4.40516">
        <ele>958.53</ele>
        <time>2022-03-22T15:58:56Z</time>
      </trkpt>
      <trkpt lat="44.86542" lon="4.40508">
        <ele>958.07</ele>
        <time>2022-03-22T15:58:58Z</time>
      </trkpt>
      <trkpt lat="44.86532" lon="4.40489">
        <ele>958.62</ele>
        <time>2022-03-22T15:59:00Z</time>
      </trkpt>
      <trkpt lat="44.8652" lon="4.40409">
        <ele>966.59</ele>
        <time>2022-03-22T15:59:02Z</time>
      </trkpt>
      <trkpt lat="44.86502" lon="4.40353">
        <ele>968.03</ele>
        <time>2022-03-22T15:59:05Z</time>
      </trkpt>
      <trkpt lat="44.86468" lon="4.40226">
        <ele>965.98</ele>
        <time>2022-03-22T15:59:07Z</time>
      </trkpt>
      <trkpt lat="44.86449" lon="4.40173">
        <ele>971.41</ele>
        <time>2022-03-22T15:59:09Z</time>
      </trkpt>
      <trkpt lat="44.86427" lon="4.40137">
        <ele>971.62</ele>
        <time>2022-03-22T15:59:12Z</time>
      </trkpt>
      <trkpt lat="44.8641" lon="4.40103">
        <ele>970.16</ele>
        <time>2022-03-22T15:59:14Z</time>
      </trkpt>
      <trkpt lat="44.86398" lon="4.40031">
        <ele>973.5</ele>
        <time>2022-03-22T15:59:16Z</time>
      </trkpt>
      <trkpt lat="44.86396" lon="4.39965">
        <ele>978.09</ele>
        <time>2022-03-22T15:59:19Z</time>
      </trkpt>
      <trkpt lat="44.864" lon="4.39907">
        <ele>982.28</ele>
        <time>2022-03-22T15:59:21Z</time>
      </trkpt>
      <trkpt lat="44.86398" lon="4.39894">
        <ele>982.97</ele>
        <time>2022-03-22T15:59:23Z</time>
      </trkpt>
      <trkpt lat="44.86321" lon="4.39798">
        <ele>990.43</ele>
        <time>2022-03-22T15:59:25Z</time>
      </trkpt>
      <trkpt lat="44.86299" lon="4.39784">
        <ele>991.61</ele>
        <time>2022-03-22T15:59:28Z</time>
      </trkpt>
      <trkpt lat="44.86282" lon="4.39783">
        <ele>989.97</ele>
        <time>2022-03-22T15:59:30Z</time>
      </trkpt>
      <trkpt lat="44.86219" lon="4.39814">
        <ele>990.25</ele>
        <time>2022-03-22T15:59:32Z</time>
      </trkpt>
      <trkpt lat="44.86194" lon="4.39824">
        <ele>990.54</ele>
        <time>2022-03-22T15:59:35Z</time>
      </trkpt>
      <trkpt lat="44.8618" lon="4.39835">
        <ele>987.17</ele>
        <time>2022-03-22T15:59:37Z</time>
      </trkpt>
      <trkpt lat="44.86169" lon="4.39851">
        <ele>981.21</ele>
        <time>2022-03-22T15:59:39Z</time>
      </trkpt>
      <trkpt lat="44.86159" lon="4.3986">
        <ele>978.69</ele>
        <time>2022-03-22T15:59:41Z</time>
      </trkpt>
      <trkpt lat="44.86146" lon="4.3986">
        <ele>980.37</ele>
        <time>2022-03-22T15:59:44Z</time>
      </trkpt>
      <trkpt lat="44.86134" lon="4.3985">
        <ele>982.11</ele>
        <time>2022-03-22T15:59:46Z</time>
      </trkpt>
      <trkpt lat="44.86126" lon="4.39831">
        <ele>984.08</ele>
        <time>2022-03-22T15:59:48Z</time>
      </trkpt>
      <trkpt lat="44.86129" lon="4.39664">
        <ele>995.54</ele>
        <time>2022-03-22T15:59:51Z</time>
      </trkpt>
      <trkpt lat="44.86128" lon="4.39644">
        <ele>997.77</ele>
        <time>2022-03-22T15:59:53Z</time>
      </trkpt>
      <trkpt lat="44.86122" lon="4.39624">
        <ele>998.36</ele>
        <time>2022-03-22T15:59:55Z</time>
      </trkpt>
      <trkpt lat="44.86076" lon="4.39505">
        <ele>1006.57</ele>
        <time>2022-03-22T15:59:57Z</time>
      </trkpt>
      <trkpt lat="44.86067" lon="4.39494">
        <ele>1008.34</ele>
        <time>2022-03-22T16:00:00Z</time>
      </trkpt>
      <trkpt lat="44.8606" lon="4.39488">
        <ele>1009.2</ele>
        <time>2022-03-22T16:00:02Z</time>
      </trkpt>
      <trkpt lat="44.86029" lon="4.39476">
        <ele>1010.98</ele>
        <time>2022-03-22T16:00:04Z</time>
      </trkpt>
      <trkpt lat="44.86011" lon="4.39463">
        <ele>1010.88</ele>
        <time>2022-03-22T16:00:07Z</time>
      </trkpt>
      <trkpt lat="44.85976" lon="4.39407">
        <ele>1009.08</ele>
        <time>2022-03-22T16:00:09Z</time>
      </trkpt>
      <trkpt lat="44.85963" lon="4.39378">
        <ele>1008.79</ele>
        <time>2022-03-22T16:00:11Z</time>
      </trkpt>
      <trkpt lat="44.85949" lon="4.39315">
        <ele>1021.26</ele>
        <time>2022-03-22T16:00:13Z</time>
      </trkpt>
      <trkpt lat="44.85941" lon="4.39305">
        <ele>1022.17</ele>
        <time>2022-03-22T16:00:16Z</time>
      </trkpt>
      <trkpt lat="44.85873" lon="4.3927">
        <ele>1022.64</ele>
        <time>2022-03-22T16:00:18Z</time>
      </trkpt>
      <trkpt lat="44.85852" lon="4.39247">
        <ele>1027.01</ele>
        <time>2022-03-22T16:00:20Z</time>
      </trkpt>
      <trkpt lat="44.85832" lon="4.39213">
        <ele>1031.77</ele>
        <time>2022-03-22T16:00:23Z</time>
      </trkpt>
      <trkpt lat="44.85812" lon="4.39188">
        <ele>1032.22</ele>
        <time>2022-03-22T16:00:25Z</time>
      </trkpt>
      <trkpt lat="44.85764" lon="4.39153">
        <ele>1031.76</ele>
        <time>2022-03-22T16:00:27Z</time>
      </trkpt>
      <trkpt lat="44.85736" lon="4.39143">
        <ele>1032.84</ele>
        <time>2022-03-22T16:00:30Z</time>
      </trkpt>
      <trkpt lat="44.85698" lon="4.39154">
        <ele>1033.93</ele>
        <time>2022-03-22T16:00:32Z</time>
      </trkpt>
      <trkpt lat="44.85676" lon="4.39156">
        <ele>1037.96</ele>
        <time>2022-03-22T16:00:34Z</time>
      </trkpt>
      <trkpt lat="44.85649" lon="4.39146">
        <ele>1040.65</ele>
        <time>2022-03-22T16:00:36Z</time>
      </trkpt>
      <trkpt lat="44.85619" lon="4.39128">
        <ele>1042.86</ele>
        <time>2022-03-22T16:00:39Z</time>
      </trkpt>
      <trkpt lat="44.85593" lon="4.39098">
        <ele>1039.87</ele>
        <time>2022-03-22T16:00:41Z</time>
      </trkpt>
      <trkpt lat="44.8558" lon="4.39072">
        <ele>1038.68</ele>
        <time>2022-03-22T16:00:43Z</time>
      </trkpt>
      <trkpt lat="44.85557" lon="4.39038">
        <ele>1042.29</ele>
        <time>2022-03-22T16:00:46Z</time>
      </trkpt>
      <trkpt lat="44.85544" lon="4.39008">
        <ele>1043.5</ele>
        <time>2022-03-22T16:00:48Z</time>
      </trkpt>
      <trkpt lat="44.85536" lon="4.3898">
        <ele>1043.07</ele>
        <time>2022-03-22T16:00:50Z</time>
      </trkpt>
      <trkpt lat="44.85466" lon="4.38863">
        <ele>1050.1</ele>
        <time>2022-03-22T16:00:52Z</time>
      </trkpt>
      <trkpt lat="44.8544" lon="4.38817">
        <ele>1051.43</ele>
        <time>2022-03-22T16:00:55Z</time>
      </trkpt>
      <trkpt lat="44.85417" lon="4.38744">
        <ele>1046.2</ele>
        <time>2022-03-22T16:00:57Z</time>
      </trkpt>
      <trkpt lat="44.8537" lon="4.38644">
        <ele>1052.5</ele>
        <time>2022-03-22T16:00:59Z</time>
      </trkpt>
      <trkpt lat="44.85353" lon="4.38618">
        <ele>1054.27</ele>
        <time>2022-03-22T16:01:02Z</time>
      </trkpt>
      <trkpt lat="44.85323" lon="4.38584">
        <ele>1056.88</ele>
        <time>2022-03-22T16:01:04Z</time>
      </trkpt>
      <trkpt lat="44.85268" lon="4.38529">
        <ele>1058.64</ele>
        <time>2022-03-22T16:01:06Z</time>
      </trkpt>
      <trkpt lat="44.8523" lon="4.38466">
        <ele>1064.93</ele>
        <time>2022-03-22T16:01:08Z</time>
      </trkpt>
      <trkpt lat="44.85208" lon="4.38406">
        <ele>1065.82</ele>
        <time>2022-03-22T16:01:11Z</time>
      </trkpt>
      <trkpt lat="44.85192" lon="4.38348">
        <ele>1059.73</ele>
        <time>2022-03-22T16:01:13Z</time>
      </trkpt>
      <trkpt lat="44.8518" lon="4.38329">
        <ele>1060.62</ele>
        <time>2022-03-22T16:01:15Z</time>
      </trkpt>
      <trkpt lat="44.85061" lon="4.38165">
        <ele>1070.07</ele>
        <time>2022-03-22T16:01:18Z</time>
      </trkpt>
      <trkpt lat="44.84976" lon="4.38037">
        <ele>1070.79</ele>
        <time>2022-03-22T16:01:20Z</time>
      </trkpt>
      <trkpt lat="44.84953" lon="4.38022">
        <ele>1069.49</ele>
        <time>2022-03-22T16:01:22Z</time>
      </trkpt>
      <trkpt lat="44.84937" lon="4.38019">
        <ele>1071.11</ele>
        <time>2022-03-22T16:01:25Z</time>
      </trkpt>
      <trkpt lat="44.84916" lon="4.38022">
        <ele>1074.48</ele>
        <time>2022-03-22T16:01:27Z</time>
      </trkpt>
      <trkpt lat="44.84905" lon="4.38022">
        <ele>1075.38</ele>
        <time>2022-03-22T16:01:29Z</time>
      </trkpt>
      <trkpt lat="44.84794" lon="4.37939">
        <ele>1069.96</ele>
        <time>2022-03-22T16:01:31Z</time>
      </trkpt>
      <trkpt lat="44.84752" lon="4.37916">
        <ele>1074.04</ele>
        <time>2022-03-22T16:01:34Z</time>
      </trkpt>
      <trkpt lat="44.84721" lon="4.37887">
        <ele>1076.23</ele>
        <time>2022-03-22T16:01:36Z</time>
      </trkpt>
      <trkpt lat="44.84686" lon="4.37869">
        <ele>1077.49</ele>
        <time>2022-03-22T16:01:38Z</time>
      </trkpt>
      <trkpt lat="44.84621" lon="4.378">
        <ele>1081.85</ele>
        <time>2022-03-22T16:01:41Z</time>
      </trkpt>
      <trkpt lat="44.8452" lon="4.37716">
        <ele>1080.4</ele>
        <time>2022-03-22T16:01:43Z</time>
      </trkpt>
      <trkpt lat="44.84472" lon="4.37707">
        <ele>1081.52</ele>
        <time>2022-03-22T16:01:45Z</time>
      </trkpt>
      <trkpt lat="44.84421" lon="4.37689">
        <ele>1082.16</ele>
        <time>2022-03-22T16:01:47Z</time>
      </trkpt>
      <trkpt lat="44.84396" lon="4.37692">
        <ele>1082.44</ele>
        <time>2022-03-22T16:01:50Z</time>
      </trkpt>
      <trkpt lat="44.84371" lon="4.37701">
        <ele>1081.34</ele>
        <time>2022-03-22T16:01:52Z</time>
      </trkpt>
      <trkpt lat="44.84357" lon="4.37703">
        <ele>1081.73</ele>
        <time>2022-03-22T16:01:54Z</time>
      </trkpt>
      <trkpt lat="44.84341" lon="4.37702">
        <ele>1081.58</ele>
        <time>2022-03-22T16:01:57Z</time>
      </trkpt>
      <trkpt lat="44.84321" lon="4.37693">
        <ele>1081.06</ele>
        <time>2022-03-22T16:01:59Z</time>
      </trkpt>
      <trkpt lat="44.84303" lon="4.37671">
        <ele>1080.51</ele>
        <time>2022-03-22T16:02:01Z</time>
      </trkpt>
      <trkpt lat="44.84296" lon="4.37646">
        <ele>1080.21</ele>
        <time>2022-03-22T16:02:03Z</time>
      </trkpt>
      <trkpt lat="44.84296" lon="4.37612">
        <ele>1080.95</ele>
        <time>2022-03-22T16:02:06Z</time>
      </trkpt>
      <trkpt lat="44.84302" lon="4.37555">
        <ele>1087.32</ele>
        <time>2022-03-22T16:02:08Z</time>
      </trkpt>
      <trkpt lat="44.84298" lon="4.37535">
        <ele>1088.24</ele>
        <time>2022-03-22T16:02:10Z</time>
      </trkpt>
      <trkpt lat="44.84288" lon="4.37513">
        <ele>1087.16</ele>
        <time>2022-03-22T16:02:13Z</time>
      </trkpt>
      <trkpt lat="44.84259" lon="4.37473">
        <ele>1082.56</ele>
        <time>2022-03-22T16:02:15Z</time>
      </trkpt>
      <trkpt lat="44.8424" lon="4.37446">
        <ele>1086.27</ele>
        <time>2022-03-22T16:02:17Z</time>
      </trkpt>
      <trkpt lat="44.84227" lon="4.37435">
        <ele>1087.32</ele>
        <time>2022-03-22T16:02:20Z</time>
      </trkpt>
      <trkpt lat="44.84213" lon="4.37431">
        <ele>1088.69</ele>
        <time>2022-03-22T16:02:22Z</time>
      </trkpt>
      <trkpt lat="44.84169" lon="4.37444">
        <ele>1084.33</ele>
        <time>2022-03-22T16:02:24Z</time>
      </trkpt>
      <trkpt lat="44.84129" lon="4.37429">
        <ele>1086.88</ele>
        <time>2022-03-22T16:02:26Z</time>
      </trkpt>
      <trkpt lat="44.84097" lon="4.37428">
        <ele>1088.3</ele>
        <time>2022-03-22T16:02:29Z</time>
      </trkpt>
      <trkpt lat="44.84067" lon="4.37433">
        <ele>1088.4</ele>
        <time>2022-03-22T16:02:31Z</time>
      </trkpt>
      <trkpt lat="44.8404" lon="4.37442">
        <ele>1088.35</ele>
        <time>2022-03-22T16:02:33Z</time>
      </trkpt>
      <trkpt lat="44.84012" lon="4.37448">
        <ele>1088.47</ele>
        <time>2022-03-22T16:02:36Z</time>
      </trkpt>
      <trkpt lat="44.83986" lon="4.37444">
        <ele>1089.08</ele>
        <time>2022-03-22T16:02:38Z</time>
      </trkpt>
      <trkpt lat="44.83863" lon="4.37403">
        <ele>1090.7</ele>
        <time>2022-03-22T16:02:40Z</time>
      </trkpt>
      <trkpt lat="44.83832" lon="4.37387">
        <ele>1085.35</ele>
        <time>2022-03-22T16:02:42Z</time>
      </trkpt>
      <trkpt lat="44.83816" lon="4.3739">
        <ele>1084.95</ele>
        <time>2022-03-22T16:02:45Z</time>
      </trkpt>
      <trkpt lat="44.83746" lon="4.37423">
        <ele>1087.82</ele>
        <time>2022-03-22T16:02:47Z</time>
      </trkpt>
      <trkpt lat="44.83732" lon="4.37426">
        <ele>1091.37</ele>
        <time>2022-03-22T16:02:49Z</time>
      </trkpt>
      <trkpt lat="44.83698" lon="4.37417">
        <ele>1091.09</ele>
        <time>2022-03-22T16:02:52Z</time>
      </trkpt>
      <trkpt lat="44.83653" lon="4.37425">
        <ele>1090.67</ele>
        <time>2022-03-22T16:02:54Z</time>
      </trkpt>
      <trkpt lat="44.83629" lon="4.37417">
        <ele>1091.38</ele>
        <time>2022-03-22T16:02:56Z</time>
      </trkpt>
      <trkpt lat="44.83593" lon="4.37393">
        <ele>1089.49</ele>
        <time>2022-03-22T16:02:58Z</time>
      </trkpt>
      <trkpt lat="44.8358" lon="4.37389">
        <ele>1090.06</ele>
        <time>2022-03-22T16:03:01Z</time>
      </trkpt>
      <trkpt lat="44.83547" lon="4.37391">
        <ele>1091.31</ele>
        <time>2022-03-22T16:03:03Z</time>
      </trkpt>
      <trkpt lat="44.83516" lon="4.37384">
        <ele>1087.42</ele>
        <time>2022-03-22T16:03:05Z</time>
      </trkpt>
      <trkpt lat="44.835" lon="4.37386">
        <ele>1085.44</ele>
        <time>2022-03-22T16:03:08Z</time>
      </trkpt>
      <trkpt lat="44.83478" lon="4.37401">
        <ele>1084.12</ele>
        <time>2022-03-22T16:03:10Z</time>
      </trkpt>
      <trkpt lat="44.83461" lon="4.37427">
        <ele>1084.21</ele>
        <time>2022-03-22T16:03:12Z</time>
      </trkpt>
      <trkpt lat="44.83439" lon="4.3748">
        <ele>1088.01</ele>
        <time>2022-03-22T16:03:14Z</time>
      </trkpt>
      <trkpt lat="44.83388" lon="4.37564">
        <ele>1093.73</ele>
        <time>2022-03-22T16:03:17Z</time>
      </trkpt>
      <trkpt lat="44.83367" lon="4.37586">
        <ele>1091.77</ele>
        <time>2022-03-22T16:03:19Z</time>
      </trkpt>
      <trkpt lat="44.83258" lon="4.37652">
        <ele>1090.64</ele>
        <time>2022-03-22T16:03:21Z</time>
      </trkpt>
      <trkpt lat="44.83233" lon="4.3766">
        <ele>1091.47</ele>
        <time>2022-03-22T16:03:24Z</time>
      </trkpt>
      <trkpt lat="44.83211" lon="4.37661">
        <ele>1091.86</ele>
        <time>2022-03-22T16:03:26Z</time>
      </trkpt>
      <trkpt lat="44.83184" lon="4.37653">
        <ele>1092.21</ele>
        <time>2022-03-22T16:03:28Z</time>
      </trkpt>
      <trkpt lat="44.83161" lon="4.37637">
        <ele>1092.68</ele>
        <time>2022-03-22T16:03:31Z</time>
      </trkpt>
      <trkpt lat="44.83138" lon="4.37612">
        <ele>1091.4</ele>
        <time>2022-03-22T16:03:33Z</time>
      </trkpt>
      <trkpt lat="44.82939" lon="4.37302">
        <ele>1085.55</ele>
        <time>2022-03-22T16:03:35Z</time>
      </trkpt>
      <trkpt lat="44.82902" lon="4.37224">
        <ele>1088.47</ele>
        <time>2022-03-22T16:03:37Z</time>
      </trkpt>
      <trkpt lat="44.82851" lon="4.37153">
        <ele>1091.69</ele>
        <time>2022-03-22T16:03:40Z</time>
      </trkpt>
      <trkpt lat="44.82814" lon="4.37125">
        <ele>1095.56</ele>
        <time>2022-03-22T16:03:42Z</time>
      </trkpt>
      <trkpt lat="44.82762" lon="4.37072">
        <ele>1091.45</ele>
        <time>2022-03-22T16:03:44Z</time>
      </trkpt>
      <trkpt lat="44.82754" lon="4.37056">
        <ele>1090.88</ele>
        <time>2022-03-22T16:03:47Z</time>
      </trkpt>
      <trkpt lat="44.82752" lon="4.37038">
        <ele>1090.72</ele>
        <time>2022-03-22T16:03:49Z</time>
      </trkpt>
      <trkpt lat="44.82754" lon="4.37026">
        <ele>1092.34</ele>
        <time>2022-03-22T16:03:51Z</time>
      </trkpt>
      <trkpt lat="44.82762" lon="4.36997">
        <ele>1095.16</ele>
        <time>2022-03-22T16:03:53Z</time>
      </trkpt>
      <trkpt lat="44.82774" lon="4.36961">
        <ele>1099.65</ele>
        <time>2022-03-22T16:03:56Z</time>
      </trkpt>
      <trkpt lat="44.82778" lon="4.36924">
        <ele>1100.32</ele>
        <time>2022-03-22T16:03:58Z</time>
      </trkpt>
      <trkpt lat="44.82792" lon="4.36862">
        <ele>1097.78</ele>
        <time>2022-03-22T16:04:00Z</time>
      </trkpt>
      <trkpt lat="44.82796" lon="4.36821">
        <ele>1096.35</ele>
        <time>2022-03-22T16:04:03Z</time>
      </trkpt>
      <trkpt lat="44.82796" lon="4.36795">
        <ele>1097.26</ele>
        <time>2022-03-22T16:04:05Z</time>
      </trkpt>
      <trkpt lat="44.82789" lon="4.36773">
        <ele>1098.31</ele>
        <time>2022-03-22T16:04:07Z</time>
      </trkpt>
      <trkpt lat="44.82781" lon="4.36759">
        <ele>1099.71</ele>
        <time>2022-03-22T16:04:09Z</time>
      </trkpt>
      <trkpt lat="44.82766" lon="4.36745">
        <ele>1100.86</ele>
        <time>2022-03-22T16:04:12Z</time>
      </trkpt>
      <trkpt lat="44.82722" lon="4.36711">
        <ele>1102.81</ele>
        <time>2022-03-22T16:04:14Z</time>
      </trkpt>
      <trkpt lat="44.82695" lon="4.36674">
        <ele>1108.13</ele>
        <time>2022-03-22T16:04:16Z</time>
      </trkpt>
      <trkpt lat="44.82668" lon="4.36622">
        <ele>1104.97</ele>
        <time>2022-03-22T16:04:19Z</time>
      </trkpt>
      <trkpt lat="44.82662" lon="4.36587">
        <ele>1102.63</ele>
        <time>2022-03-22T16:04:21Z</time>
      </trkpt>
      <trkpt lat="44.82661" lon="4.36553">
        <ele>1102.29</ele>
        <time>2022-03-22T16:04:23Z</time>
      </trkpt>
      <trkpt lat="44.82666" lon="4.36524">
        <ele>1105.71</ele>
        <time>2022-03-22T16:04:26Z</time>
      </trkpt>
      <trkpt lat="44.8268" lon="4.36463">
        <ele>1111.68</ele>
        <time>2022-03-22T16:04:28Z</time>
      </trkpt>
      <trkpt lat="44.82684" lon="4.3643">
        <ele>1115.27</ele>
        <time>2022-03-22T16:04:30Z</time>
      </trkpt>
      <trkpt lat="44.82681" lon="4.36397">
        <ele>1117.3</ele>
        <time>2022-03-22T16:04:32Z</time>
      </trkpt>
      <trkpt lat="44.82675" lon="4.36368">
        <ele>1117.78</ele>
        <time>2022-03-22T16:04:35Z</time>
      </trkpt>
      <trkpt lat="44.82665" lon="4.36343">
        <ele>1118.98</ele>
        <time>2022-03-22T16:04:37Z</time>
      </trkpt>
      <trkpt lat="44.82654" lon="4.36328">
        <ele>1119.47</ele>
        <time>2022-03-22T16:04:39Z</time>
      </trkpt>
      <trkpt lat="44.82624" lon="4.36308">
        <ele>1118.49</ele>
        <time>2022-03-22T16:04:42Z</time>
      </trkpt>
      <trkpt lat="44.82565" lon="4.36263">
        <ele>1117.59</ele>
        <time>2022-03-22T16:04:44Z</time>
      </trkpt>
      <trkpt lat="44.82547" lon="4.36236">
        <ele>1122.13</ele>
        <time>2022-03-22T16:04:46Z</time>
      </trkpt>
      <trkpt lat="44.82537" lon="4.36224">
        <ele>1124.82</ele>
        <time>2022-03-22T16:04:48Z</time>
      </trkpt>
      <trkpt lat="44.82474" lon="4.36214">
        <ele>1126.52</ele>
        <time>2022-03-22T16:04:51Z</time>
      </trkpt>
      <trkpt lat="44.82449" lon="4.36202">
        <ele>1124.53</ele>
        <time>2022-03-22T16:04:53Z</time>
      </trkpt>
      <trkpt lat="44.82432" lon="4.36182">
        <ele>1121.94</ele>
        <time>2022-03-22T16:04:55Z</time>
      </trkpt>
      <trkpt lat="44.82426" lon="4.36155">
        <ele>1121.56</ele>
        <time>2022-03-22T16:04:58Z</time>
      </trkpt>
      <trkpt lat="44.82425" lon="4.36122">
        <ele>1122.64</ele>
        <time>2022-03-22T16:05:00Z</time>
      </trkpt>
      <trkpt lat="44.82431" lon="4.36081">
        <ele>1123.59</ele>
        <time>2022-03-22T16:05:02Z</time>
      </trkpt>
      <trkpt lat="44.82437" lon="4.36055">
        <ele>1124.91</ele>
        <time>2022-03-22T16:05:04Z</time>
      </trkpt>
      <trkpt lat="44.82437" lon="4.36036">
        <ele>1125.57</ele>
        <time>2022-03-22T16:05:07Z</time>
      </trkpt>
      <trkpt lat="44.82435" lon="4.36021">
        <ele>1125.81</ele>
        <time>2022-03-22T16:05:09Z</time>
      </trkpt>
      <trkpt lat="44.82425" lon="4.36004">
        <ele>1124.63</ele>
        <time>2022-03-22T16:05:11Z</time>
      </trkpt>
      <trkpt lat="44.82414" lon="4.35996">
        <ele>1124.13</ele>
        <time>2022-03-22T16:05:14Z</time>
      </trkpt>
      <trkpt lat="44.824" lon="4.35992">
        <ele>1124.94</ele>
        <time>2022-03-22T16:05:16Z</time>
      </trkpt>
      <trkpt lat="44.82374" lon="4.36002">
        <ele>1124.23</ele>
        <time>2022-03-22T16:05:18Z</time>
      </trkpt>
      <trkpt lat="44.8231" lon="4.36048">
        <ele>1121.94</ele>
        <time>2022-03-22T16:05:20Z</time>
      </trkpt>
      <trkpt lat="44.82289" lon="4.36054">
        <ele>1122.41</ele>
        <time>2022-03-22T16:05:23Z</time>
      </trkpt>
      <trkpt lat="44.82256" lon="4.36056">
        <ele>1123.66</ele>
        <time>2022-03-22T16:05:25Z</time>
      </trkpt>
      <trkpt lat="44.82238" lon="4.36053">
        <ele>1122.87</ele>
        <time>2022-03-22T16:05:27Z</time>
      </trkpt>
      <trkpt lat="44.82223" lon="4.36036">
        <ele>1121.85</ele>
        <time>2022-03-22T16:05:30Z</time>
      </trkpt>
      <trkpt lat="44.82215" lon="4.36015">
        <ele>1119.18</ele>
        <time>2022-03-22T16:05:32Z</time>
      </trkpt>
      <trkpt lat="44.82213" lon="4.35989">
        <ele>1117.41</ele>
        <time>2022-03-22T16:05:34Z</time>
      </trkpt>
      <trkpt lat="44.8222" lon="4.35933">
        <ele>1116.4</ele>
        <time>2022-03-22T16:05:37Z</time>
      </trkpt>
      <trkpt lat="44.8225" lon="4.35731">
        <ele>1113.98</ele>
        <time>2022-03-22T16:05:39Z</time>
      </trkpt>
      <trkpt lat="44.82262" lon="4.35686">
        <ele>1113.46</ele>
        <time>2022-03-22T16:05:41Z</time>
      </trkpt>
      <trkpt lat="44.82277" lon="4.35659">
        <ele>1117.83</ele>
        <time>2022-03-22T16:05:43Z</time>
      </trkpt>
      <trkpt lat="44.8228" lon="4.35643">
        <ele>1118.75</ele>
        <time>2022-03-22T16:05:46Z</time>
      </trkpt>
      <trkpt lat="44.82278" lon="4.3563">
        <ele>1118.59</ele>
        <time>2022-03-22T16:05:48Z</time>
      </trkpt>
      <trkpt lat="44.8227" lon="4.35616">
        <ele>1117.47</ele>
        <time>2022-03-22T16:05:50Z</time>
      </trkpt>
      <trkpt lat="44.8225" lon="4.356">
        <ele>1115.55</ele>
        <time>2022-03-22T16:05:53Z</time>
      </trkpt>
      <trkpt lat="44.82182" lon="4.35563">
        <ele>1110.62</ele>
        <time>2022-03-22T16:05:55Z</time>
      </trkpt>
      <trkpt lat="44.82146" lon="4.35554">
        <ele>1112.89</ele>
        <time>2022-03-22T16:05:57Z</time>
      </trkpt>
      <trkpt lat="44.8212" lon="4.35552">
        <ele>1113.35</ele>
        <time>2022-03-22T16:05:59Z</time>
      </trkpt>
      <trkpt lat="44.82103" lon="4.35563">
        <ele>1110.7</ele>
        <time>2022-03-22T16:06:02Z</time>
      </trkpt>
      <trkpt lat="44.82076" lon="4.35587">
        <ele>1106.19</ele>
        <time>2022-03-22T16:06:04Z</time>
      </trkpt>
      <trkpt lat="44.82066" lon="4.35592">
        <ele>1105.19</ele>
        <time>2022-03-22T16:06:06Z</time>
      </trkpt>
      <trkpt lat="44.82055" lon="4.35591">
        <ele>1105.09</ele>
        <time>2022-03-22T16:06:09Z</time>
      </trkpt>
      <trkpt lat="44.82045" lon="4.35574">
        <ele>1104.2</ele>
        <time>2022-03-22T16:06:11Z</time>
      </trkpt>
      <trkpt lat="44.82038" lon="4.35534">
        <ele>1106.61</ele>
        <time>2022-03-22T16:06:13Z</time>
      </trkpt>
      <trkpt lat="44.82025" lon="4.35439">
        <ele>1108.44</ele>
        <time>2022-03-22T16:06:15Z</time>
      </trkpt>
      <trkpt lat="44.82019" lon="4.35418">
        <ele>1107.75</ele>
        <time>2022-03-22T16:06:18Z</time>
      </trkpt>
      <trkpt lat="44.82006" lon="4.35398">
        <ele>1106.07</ele>
        <time>2022-03-22T16:06:20Z</time>
      </trkpt>
      <trkpt lat="44.81992" lon="4.3539">
        <ele>1106.21</ele>
        <time>2022-03-22T16:06:22Z</time>
      </trkpt>
      <trkpt lat="44.81962" lon="4.35388">
        <ele>1108.54</ele>
        <time>2022-03-22T16:06:25Z</time>
      </trkpt>
      <trkpt lat="44.81931" lon="4.35379">
        <ele>1111.7</ele>
        <time>2022-03-22T16:06:27Z</time>
      </trkpt>
      <trkpt lat="44.81909" lon="4.35366">
        <ele>1112.34</ele>
        <time>2022-03-22T16:06:29Z</time>
      </trkpt>
      <trkpt lat="44.81891" lon="4.35364">
        <ele>1111.81</ele>
        <time>2022-03-22T16:06:32Z</time>
      </trkpt>
      <trkpt lat="44.81877" lon="4.35368">
        <ele>1112.49</ele>
        <time>2022-03-22T16:06:34Z</time>
      </trkpt>
      <trkpt lat="44.81819" lon="4.35414">
        <ele>1111.52</ele>
        <time>2022-03-22T16:06:36Z</time>
      </trkpt>
      <trkpt lat="44.81804" lon="4.35415">
        <ele>1112.4</ele>
        <time>2022-03-22T16:06:38Z</time>
      </trkpt>
      <trkpt lat="44.8177" lon="4.35404">
        <ele>1115.82</ele>
        <time>2022-03-22T16:06:41Z</time>
      </trkpt>
      <trkpt lat="44.81731" lon="4.35387">
        <ele>1109.95</ele>
        <time>2022-03-22T16:06:43Z</time>
      </trkpt>
      <trkpt lat="44.8171" lon="4.35388">
        <ele>1106.65</ele>
        <time>2022-03-22T16:06:45Z</time>
      </trkpt>
      <trkpt lat="44.81628" lon="4.35409">
        <ele>1108.71</ele>
        <time>2022-03-22T16:06:48Z</time>
      </trkpt>
      <trkpt lat="44.81585" lon="4.35412">
        <ele>1117.29</ele>
        <time>2022-03-22T16:06:50Z</time>
      </trkpt>
      <trkpt lat="44.81546" lon="4.3543">
        <ele>1120.86</ele>
        <time>2022-03-22T16:06:52Z</time>
      </trkpt>
      <trkpt lat="44.81501" lon="4.35469">
        <ele>1117.97</ele>
        <time>2022-03-22T16:06:54Z</time>
      </trkpt>
      <trkpt lat="44.81488" lon="4.35475">
        <ele>1119.05</ele>
        <time>2022-03-22T16:06:57Z</time>
      </trkpt>
      <trkpt lat="44.81469" lon="4.35474">
        <ele>1123.72</ele>
        <time>2022-03-22T16:06:59Z</time>
      </trkpt>
      <trkpt lat="44.81449" lon="4.35482">
        <ele>1124.15</ele>
        <time>2022-03-22T16:07:01Z</time>
      </trkpt>
      <trkpt lat="44.81409" lon="4.35515">
        <ele>1126.72</ele>
        <time>2022-03-22T16:07:04Z</time>
      </trkpt>
      <trkpt lat="44.81376" lon="4.3558">
        <ele>1127.47</ele>
        <time>2022-03-22T16:07:06Z</time>
      </trkpt>
      <trkpt lat="44.81353" lon="4.35608">
        <ele>1127.79</ele>
        <time>2022-03-22T16:07:08Z</time>
      </trkpt>
      <trkpt lat="44.8134" lon="4.35644">
        <ele>1126.57</ele>
        <time>2022-03-22T16:07:10Z</time>
      </trkpt>
      <trkpt lat="44.81331" lon="4.35687">
        <ele>1126.93</ele>
        <time>2022-03-22T16:07:13Z</time>
      </trkpt>
      <trkpt lat="44.81327" lon="4.35726">
        <ele>1125.92</ele>
        <time>2022-03-22T16:07:15Z</time>
      </trkpt>
      <trkpt lat="44.81321" lon="4.35745">
        <ele>1126.42</ele>
        <time>2022-03-22T16:07:17Z</time>
      </trkpt>
      <trkpt lat="44.81307" lon="4.35761">
        <ele>1127.13</ele>
        <time>2022-03-22T16:07:20Z</time>
      </trkpt>
      <trkpt lat="44.81296" lon="4.35764">
        <ele>1126.61</ele>
        <time>2022-03-22T16:07:22Z</time>
      </trkpt>
      <trkpt lat="44.81277" lon="4.35762">
        <ele>1126.17</ele>
        <time>2022-03-22T16:07:24Z</time>
      </trkpt>
      <trkpt lat="44.81222" lon="4.35739">
        <ele>1127.47</ele>
        <time>2022-03-22T16:07:26Z</time>
      </trkpt>
      <trkpt lat="44.8121" lon="4.35739">
        <ele>1126.25</ele>
        <time>2022-03-22T16:07:29Z</time>
      </trkpt>
      <trkpt lat="44.8115" lon="4.35715">
        <ele>1128.53</ele>
        <time>2022-03-22T16:07:33Z</time>
      </trkpt>
      <trkpt lat="44.81111" lon="4.35665">
        <ele>1134.39</ele>
        <time>2022-03-22T16:07:36Z</time>
      </trkpt>
      <trkpt lat="44.81082" lon="4.35633">
        <ele>1135.71</ele>
        <time>2022-03-22T16:07:39Z</time>
      </trkpt>
      <trkpt lat="44.81025" lon="4.35578">
        <ele>1135.59</ele>
        <time>2022-03-22T16:07:42Z</time>
      </trkpt>
      <trkpt lat="44.80963" lon="4.35509">
        <ele>1141.45</ele>
        <time>2022-03-22T16:07:46Z</time>
      </trkpt>
      <trkpt lat="44.80915" lon="4.35458">
        <ele>1147.81</ele>
        <time>2022-03-22T16:07:49Z</time>
      </trkpt>
      <trkpt lat="44.80891" lon="4.35413">
        <ele>1148.71</ele>
        <time>2022-03-22T16:07:52Z</time>
      </trkpt>
      <trkpt lat="44.80876" lon="4.35387">
        <ele>1148.94</ele>
        <time>2022-03-22T16:07:56Z</time>
      </trkpt>
      <trkpt lat="44.80866" lon="4.35377">
        <ele>1148.96</ele>
        <time>2022-03-22T16:07:59Z</time>
      </trkpt>
      <trkpt lat="44.80839" lon="4.35349">
        <ele>1148.84</ele>
        <time>2022-03-22T16:08:02Z</time>
      </trkpt>
      <trkpt lat="44.80818" lon="4.35322">
        <ele>1147.81</ele>
        <time>2022-03-22T16:08:05Z</time>
      </trkpt>
      <trkpt lat="44.80802" lon="4.35304">
        <ele>1147.82</ele>
        <time>2022-03-22T16:08:09Z</time>
      </trkpt>
      <trkpt lat="44.8077" lon="4.35287">
        <ele>1146.66</ele>
        <time>2022-03-22T16:08:12Z</time>
      </trkpt>
      <trkpt lat="44.8076" lon="4.35273">
        <ele>1145.4</ele>
        <time>2022-03-22T16:08:15Z</time>
      </trkpt>
      <trkpt lat="44.80785" lon="4.35203">
        <ele>1140.05</ele>
        <time>2022-03-22T16:08:19Z</time>
      </trkpt>
      <trkpt lat="44.80801" lon="4.3512">
        <ele>1138.64</ele>
        <time>2022-03-22T16:08:24Z</time>
      </trkpt>
      <trkpt lat="44.80815" lon="4.35074">
        <ele>1136.97</ele>
        <time>2022-03-22T16:08:28Z</time>
      </trkpt>
      <trkpt lat="44.80836" lon="4.35017">
        <ele>1133.17</ele>
        <time>2022-03-22T16:08:32Z</time>
      </trkpt>
      <trkpt lat="44.80838" lon="4.34999">
        <ele>1132.1</ele>
        <time>2022-03-22T16:08:37Z</time>
      </trkpt>
      <trkpt lat="44.80837" lon="4.3498">
        <ele>1131.3</ele>
        <time>2022-03-22T16:08:41Z</time>
      </trkpt>
      <trkpt lat="44.80813" lon="4.34891">
        <ele>1129.71</ele>
        <time>2022-03-22T16:08:45Z</time>
      </trkpt>
      <trkpt lat="44.80805" lon="4.34853">
        <ele>1127.39</ele>
        <time>2022-03-22T16:08:49Z</time>
      </trkpt>
      <trkpt lat="44.80802" lon="4.34842">
        <ele>1125.69</ele>
        <time>2022-03-22T16:08:54Z</time>
      </trkpt>
      <trkpt lat="44.80797" lon="4.34836">
        <ele>1124.3</ele>
        <time>2022-03-22T16:08:58Z</time>
      </trkpt>
      <trkpt lat="44.80778" lon="4.34731">
        <ele>1121.72</ele>
        <time>2022-03-22T16:09:02Z</time>
      </trkpt>
      <trkpt lat="44.80777" lon="4.34693">
        <ele>1121.95</ele>
        <time>2022-03-22T16:09:05Z</time>
      </trkpt>
      <trkpt lat="44.80783" lon="4.34662">
        <ele>1121.63</ele>
        <time>2022-03-22T16:09:09Z</time>
      </trkpt>
      <trkpt lat="44.80794" lon="4.34632">
        <ele>1120.57</ele>
        <time>2022-03-22T16:09:13Z</time>
      </trkpt>
      <trkpt lat="44.80795" lon="4.34619">
        <ele>1120.81</ele>
        <time>2022-03-22T16:09:17Z</time>
      </trkpt>
      <trkpt lat="44.80751" lon="4.3459">
        <ele>1121</ele>
        <time>2022-03-22T16:09:19Z</time>
      </trkpt>
      <trkpt lat="44.8072" lon="4.34572">
        <ele>1119.23</ele>
        <time>2022-03-22T16:09:21Z</time>
      </trkpt>
      <trkpt lat="44.80683" lon="4.34559">
        <ele>1117.85</ele>
        <time>2022-03-22T16:09:23Z</time>
      </trkpt>
      <trkpt lat="44.80664" lon="4.34554">
        <ele>1117.9</ele>
        <time>2022-03-22T16:09:25Z</time>
      </trkpt>
      <trkpt lat="44.80629" lon="4.3455">
        <ele>1115.71</ele>
        <time>2022-03-22T16:09:27Z</time>
      </trkpt>
      <trkpt lat="44.80605" lon="4.34545">
        <ele>1111.89</ele>
        <time>2022-03-22T16:09:29Z</time>
      </trkpt>
      <trkpt lat="44.80592" lon="4.34538">
        <ele>1108.82</ele>
        <time>2022-03-22T16:09:31Z</time>
      </trkpt>
      <trkpt lat="44.80575" lon="4.34515">
        <ele>1106.64</ele>
        <time>2022-03-22T16:09:34Z</time>
      </trkpt>
      <trkpt lat="44.80564" lon="4.34485">
        <ele>1106.87</ele>
        <time>2022-03-22T16:09:36Z</time>
      </trkpt>
      <trkpt lat="44.80551" lon="4.34404">
        <ele>1104.25</ele>
        <time>2022-03-22T16:09:38Z</time>
      </trkpt>
      <trkpt lat="44.8054" lon="4.34365">
        <ele>1102.62</ele>
        <time>2022-03-22T16:09:40Z</time>
      </trkpt>
      <trkpt lat="44.80496" lon="4.34282">
        <ele>1100.67</ele>
        <time>2022-03-22T16:09:42Z</time>
      </trkpt>
      <trkpt lat="44.80488" lon="4.34272">
        <ele>1100.1</ele>
        <time>2022-03-22T16:09:44Z</time>
      </trkpt>
      <trkpt lat="44.80476" lon="4.34264">
        <ele>1098.44</ele>
        <time>2022-03-22T16:09:46Z</time>
      </trkpt>
      <trkpt lat="44.80465" lon="4.34262">
        <ele>1097.49</ele>
        <time>2022-03-22T16:09:48Z</time>
      </trkpt>
      <trkpt lat="44.80457" lon="4.34263">
        <ele>1097.28</ele>
        <time>2022-03-22T16:09:50Z</time>
      </trkpt>
      <trkpt lat="44.80447" lon="4.34269">
        <ele>1096.99</ele>
        <time>2022-03-22T16:09:53Z</time>
      </trkpt>
      <trkpt lat="44.80438" lon="4.34277">
        <ele>1100.42</ele>
        <time>2022-03-22T16:09:55Z</time>
      </trkpt>
      <trkpt lat="44.8043" lon="4.34288">
        <ele>1103.92</ele>
        <time>2022-03-22T16:09:57Z</time>
      </trkpt>
      <trkpt lat="44.80425" lon="4.34302">
        <ele>1105.78</ele>
        <time>2022-03-22T16:09:59Z</time>
      </trkpt>
      <trkpt lat="44.80424" lon="4.34318">
        <ele>1104.38</ele>
        <time>2022-03-22T16:10:01Z</time>
      </trkpt>
      <trkpt lat="44.80428" lon="4.34368">
        <ele>1093.18</ele>
        <time>2022-03-22T16:10:03Z</time>
      </trkpt>
      <trkpt lat="44.80429" lon="4.34411">
        <ele>1087.48</ele>
        <time>2022-03-22T16:10:05Z</time>
      </trkpt>
      <trkpt lat="44.80427" lon="4.3443">
        <ele>1086.59</ele>
        <time>2022-03-22T16:10:07Z</time>
      </trkpt>
      <trkpt lat="44.80421" lon="4.34451">
        <ele>1086.54</ele>
        <time>2022-03-22T16:10:09Z</time>
      </trkpt>
      <trkpt lat="44.8038" lon="4.34529">
        <ele>1081.66</ele>
        <time>2022-03-22T16:10:12Z</time>
      </trkpt>
      <trkpt lat="44.80367" lon="4.34545">
        <ele>1078.96</ele>
        <time>2022-03-22T16:10:14Z</time>
      </trkpt>
      <trkpt lat="44.80352" lon="4.34555">
        <ele>1077.51</ele>
        <time>2022-03-22T16:10:16Z</time>
      </trkpt>
      <trkpt lat="44.80231" lon="4.34591">
        <ele>1072.31</ele>
        <time>2022-03-22T16:10:18Z</time>
      </trkpt>
      <trkpt lat="44.80199" lon="4.34593">
        <ele>1067.34</ele>
        <time>2022-03-22T16:10:20Z</time>
      </trkpt>
      <trkpt lat="44.80172" lon="4.34588">
        <ele>1066.88</ele>
        <time>2022-03-22T16:10:22Z</time>
      </trkpt>
      <trkpt lat="44.80133" lon="4.34571">
        <ele>1068.79</ele>
        <time>2022-03-22T16:10:24Z</time>
      </trkpt>
      <trkpt lat="44.8011" lon="4.34567">
        <ele>1068.86</ele>
        <time>2022-03-22T16:10:26Z</time>
      </trkpt>
      <trkpt lat="44.80089" lon="4.3457">
        <ele>1068.33</ele>
        <time>2022-03-22T16:10:28Z</time>
      </trkpt>
      <trkpt lat="44.7998" lon="4.34607">
        <ele>1056.06</ele>
        <time>2022-03-22T16:10:31Z</time>
      </trkpt>
      <trkpt lat="44.7996" lon="4.34608">
        <ele>1053.22</ele>
        <time>2022-03-22T16:10:33Z</time>
      </trkpt>
      <trkpt lat="44.79946" lon="4.34604">
        <ele>1052.12</ele>
        <time>2022-03-22T16:10:35Z</time>
      </trkpt>
      <trkpt lat="44.79928" lon="4.3459">
        <ele>1052.59</ele>
        <time>2022-03-22T16:10:37Z</time>
      </trkpt>
      <trkpt lat="44.79874" lon="4.3451">
        <ele>1051.51</ele>
        <time>2022-03-22T16:10:39Z</time>
      </trkpt>
      <trkpt lat="44.79858" lon="4.3448">
        <ele>1048.76</ele>
        <time>2022-03-22T16:10:41Z</time>
      </trkpt>
      <trkpt lat="44.79852" lon="4.34459">
        <ele>1047.15</ele>
        <time>2022-03-22T16:10:43Z</time>
      </trkpt>
      <trkpt lat="44.79851" lon="4.34445">
        <ele>1046.25</ele>
        <time>2022-03-22T16:10:45Z</time>
      </trkpt>
      <trkpt lat="44.79852" lon="4.34427">
        <ele>1045.51</ele>
        <time>2022-03-22T16:10:47Z</time>
      </trkpt>
      <trkpt lat="44.79896" lon="4.34215">
        <ele>1046.05</ele>
        <time>2022-03-22T16:10:50Z</time>
      </trkpt>
      <trkpt lat="44.79899" lon="4.34193">
        <ele>1046.16</ele>
        <time>2022-03-22T16:10:52Z</time>
      </trkpt>
      <trkpt lat="44.79899" lon="4.34168">
        <ele>1043.63</ele>
        <time>2022-03-22T16:10:54Z</time>
      </trkpt>
      <trkpt lat="44.79896" lon="4.34127">
        <ele>1038.59</ele>
        <time>2022-03-22T16:10:56Z</time>
      </trkpt>
      <trkpt lat="44.79866" lon="4.33922">
        <ele>1034.5</ele>
        <time>2022-03-22T16:10:58Z</time>
      </trkpt>
      <trkpt lat="44.79862" lon="4.33903">
        <ele>1032.71</ele>
        <time>2022-03-22T16:11:00Z</time>
      </trkpt>
      <trkpt lat="44.79855" lon="4.33892">
        <ele>1031.36</ele>
        <time>2022-03-22T16:11:02Z</time>
      </trkpt>
      <trkpt lat="44.79844" lon="4.33884">
        <ele>1030.11</ele>
        <time>2022-03-22T16:11:04Z</time>
      </trkpt>
      <trkpt lat="44.79833" lon="4.33884">
        <ele>1031.71</ele>
        <time>2022-03-22T16:11:06Z</time>
      </trkpt>
      <trkpt lat="44.79821" lon="4.33888">
        <ele>1033.44</ele>
        <time>2022-03-22T16:11:08Z</time>
      </trkpt>
      <trkpt lat="44.79812" lon="4.33895">
        <ele>1035.11</ele>
        <time>2022-03-22T16:11:11Z</time>
      </trkpt>
      <trkpt lat="44.79803" lon="4.33911">
        <ele>1035.53</ele>
        <time>2022-03-22T16:11:13Z</time>
      </trkpt>
      <trkpt lat="44.79788" lon="4.34014">
        <ele>1031.3</ele>
        <time>2022-03-22T16:11:15Z</time>
      </trkpt>
      <trkpt lat="44.79787" lon="4.34046">
        <ele>1027.06</ele>
        <time>2022-03-22T16:11:17Z</time>
      </trkpt>
      <trkpt lat="44.79791" lon="4.3419">
        <ele>1018.17</ele>
        <time>2022-03-22T16:11:19Z</time>
      </trkpt>
      <trkpt lat="44.79791" lon="4.34217">
        <ele>1018.94</ele>
        <time>2022-03-22T16:11:21Z</time>
      </trkpt>
      <trkpt lat="44.79788" lon="4.34244">
        <ele>1019.83</ele>
        <time>2022-03-22T16:11:23Z</time>
      </trkpt>
      <trkpt lat="44.79781" lon="4.34274">
        <ele>1017.38</ele>
        <time>2022-03-22T16:11:25Z</time>
      </trkpt>
      <trkpt lat="44.79771" lon="4.34299">
        <ele>1015.36</ele>
        <time>2022-03-22T16:11:27Z</time>
      </trkpt>
      <trkpt lat="44.79741" lon="4.34343">
        <ele>1013.23</ele>
        <time>2022-03-22T16:11:30Z</time>
      </trkpt>
      <trkpt lat="44.79727" lon="4.34356">
        <ele>1011.09</ele>
        <time>2022-03-22T16:11:32Z</time>
      </trkpt>
      <trkpt lat="44.79713" lon="4.34364">
        <ele>1010.47</ele>
        <time>2022-03-22T16:11:34Z</time>
      </trkpt>
      <trkpt lat="44.79627" lon="4.34375">
        <ele>1003.54</ele>
        <time>2022-03-22T16:11:36Z</time>
      </trkpt>
      <trkpt lat="44.79607" lon="4.34376">
        <ele>1003.28</ele>
        <time>2022-03-22T16:11:38Z</time>
      </trkpt>
      <trkpt lat="44.79594" lon="4.34375">
        <ele>1003.85</ele>
        <time>2022-03-22T16:11:40Z</time>
      </trkpt>
      <trkpt lat="44.79584" lon="4.3437">
        <ele>1004.68</ele>
        <time>2022-03-22T16:11:42Z</time>
      </trkpt>
      <trkpt lat="44.79535" lon="4.34322">
        <ele>1006.14</ele>
        <time>2022-03-22T16:11:44Z</time>
      </trkpt>
      <trkpt lat="44.79517" lon="4.34308">
        <ele>1007.46</ele>
        <time>2022-03-22T16:11:46Z</time>
      </trkpt>
      <trkpt lat="44.79498" lon="4.34298">
        <ele>1008.23</ele>
        <time>2022-03-22T16:11:49Z</time>
      </trkpt>
      <trkpt lat="44.7948" lon="4.34294">
        <ele>1011.31</ele>
        <time>2022-03-22T16:11:51Z</time>
      </trkpt>
      <trkpt lat="44.79455" lon="4.34301">
        <ele>1014.46</ele>
        <time>2022-03-22T16:11:53Z</time>
      </trkpt>
      <trkpt lat="44.7942" lon="4.34329">
        <ele>1007.9</ele>
        <time>2022-03-22T16:11:55Z</time>
      </trkpt>
      <trkpt lat="44.79392" lon="4.34389">
        <ele>997.3</ele>
        <time>2022-03-22T16:11:57Z</time>
      </trkpt>
      <trkpt lat="44.7938" lon="4.34406">
        <ele>999.83</ele>
        <time>2022-03-22T16:11:59Z</time>
      </trkpt>
      <trkpt lat="44.79368" lon="4.34416">
        <ele>1001.37</ele>
        <time>2022-03-22T16:12:01Z</time>
      </trkpt>
      <trkpt lat="44.79354" lon="4.34424">
        <ele>1000.74</ele>
        <time>2022-03-22T16:12:03Z</time>
      </trkpt>
      <trkpt lat="44.79323" lon="4.34427">
        <ele>998.18</ele>
        <time>2022-03-22T16:12:05Z</time>
      </trkpt>
      <trkpt lat="44.79311" lon="4.34426">
        <ele>996.95</ele>
        <time>2022-03-22T16:12:08Z</time>
      </trkpt>
      <trkpt lat="44.79294" lon="4.34419">
        <ele>995.61</ele>
        <time>2022-03-22T16:12:10Z</time>
      </trkpt>
      <trkpt lat="44.79188" lon="4.34355">
        <ele>994.77</ele>
        <time>2022-03-22T16:12:12Z</time>
      </trkpt>
      <trkpt lat="44.79091" lon="4.34321">
        <ele>990.69</ele>
        <time>2022-03-22T16:12:14Z</time>
      </trkpt>
      <trkpt lat="44.79038" lon="4.343">
        <ele>987.65</ele>
        <time>2022-03-22T16:12:16Z</time>
      </trkpt>
      <trkpt lat="44.79018" lon="4.34295">
        <ele>986.92</ele>
        <time>2022-03-22T16:12:18Z</time>
      </trkpt>
      <trkpt lat="44.7899" lon="4.34296">
        <ele>985.08</ele>
        <time>2022-03-22T16:12:20Z</time>
      </trkpt>
      <trkpt lat="44.78952" lon="4.34309">
        <ele>981.91</ele>
        <time>2022-03-22T16:12:22Z</time>
      </trkpt>
      <trkpt lat="44.78883" lon="4.34344">
        <ele>973.83</ele>
        <time>2022-03-22T16:12:24Z</time>
      </trkpt>
      <trkpt lat="44.78818" lon="4.34373">
        <ele>967.69</ele>
        <time>2022-03-22T16:12:27Z</time>
      </trkpt>
      <trkpt lat="44.78804" lon="4.34383">
        <ele>967.37</ele>
        <time>2022-03-22T16:12:29Z</time>
      </trkpt>
      <trkpt lat="44.78791" lon="4.34401">
        <ele>968.04</ele>
        <time>2022-03-22T16:12:31Z</time>
      </trkpt>
      <trkpt lat="44.78783" lon="4.34419">
        <ele>969.08</ele>
        <time>2022-03-22T16:12:33Z</time>
      </trkpt>
      <trkpt lat="44.78779" lon="4.34438">
        <ele>969.73</ele>
        <time>2022-03-22T16:12:35Z</time>
      </trkpt>
      <trkpt lat="44.78778" lon="4.3446">
        <ele>967.99</ele>
        <time>2022-03-22T16:12:37Z</time>
      </trkpt>
      <trkpt lat="44.78782" lon="4.3458">
        <ele>961.26</ele>
        <time>2022-03-22T16:12:39Z</time>
      </trkpt>
      <trkpt lat="44.78781" lon="4.34598">
        <ele>957.98</ele>
        <time>2022-03-22T16:12:41Z</time>
      </trkpt>
      <trkpt lat="44.78777" lon="4.34618">
        <ele>954.64</ele>
        <time>2022-03-22T16:12:43Z</time>
      </trkpt>
      <trkpt lat="44.78771" lon="4.34632">
        <ele>952.28</ele>
        <time>2022-03-22T16:12:46Z</time>
      </trkpt>
      <trkpt lat="44.78764" lon="4.34643">
        <ele>951.07</ele>
        <time>2022-03-22T16:12:48Z</time>
      </trkpt>
      <trkpt lat="44.78692" lon="4.34707">
        <ele>943.16</ele>
        <time>2022-03-22T16:12:50Z</time>
      </trkpt>
      <trkpt lat="44.7868" lon="4.3471">
        <ele>940.9</ele>
        <time>2022-03-22T16:12:52Z</time>
      </trkpt>
      <trkpt lat="44.78668" lon="4.34706">
        <ele>940.62</ele>
        <time>2022-03-22T16:12:54Z</time>
      </trkpt>
      <trkpt lat="44.78657" lon="4.34697">
        <ele>938.69</ele>
        <time>2022-03-22T16:12:56Z</time>
      </trkpt>
      <trkpt lat="44.78643" lon="4.34671">
        <ele>935.86</ele>
        <time>2022-03-22T16:12:58Z</time>
      </trkpt>
      <trkpt lat="44.78623" lon="4.34517">
        <ele>944.67</ele>
        <time>2022-03-22T16:13:00Z</time>
      </trkpt>
      <trkpt lat="44.78612" lon="4.34458">
        <ele>945.24</ele>
        <time>2022-03-22T16:13:02Z</time>
      </trkpt>
      <trkpt lat="44.78606" lon="4.3444">
        <ele>945.26</ele>
        <time>2022-03-22T16:13:04Z</time>
      </trkpt>
      <trkpt lat="44.78593" lon="4.34422">
        <ele>942.61</ele>
        <time>2022-03-22T16:13:07Z</time>
      </trkpt>
      <trkpt lat="44.78579" lon="4.34408">
        <ele>939.36</ele>
        <time>2022-03-22T16:13:09Z</time>
      </trkpt>
      <trkpt lat="44.78527" lon="4.34344">
        <ele>944.55</ele>
        <time>2022-03-22T16:13:11Z</time>
      </trkpt>
      <trkpt lat="44.78511" lon="4.34332">
        <ele>946.98</ele>
        <time>2022-03-22T16:13:13Z</time>
      </trkpt>
      <trkpt lat="44.785" lon="4.34332">
        <ele>944.72</ele>
        <time>2022-03-22T16:13:15Z</time>
      </trkpt>
      <trkpt lat="44.7849" lon="4.34335">
        <ele>941.15</ele>
        <time>2022-03-22T16:13:17Z</time>
      </trkpt>
      <trkpt lat="44.78479" lon="4.34343">
        <ele>935.22</ele>
        <time>2022-03-22T16:13:19Z</time>
      </trkpt>
      <trkpt lat="44.78465" lon="4.34365">
        <ele>924.44</ele>
        <time>2022-03-22T16:13:21Z</time>
      </trkpt>
      <trkpt lat="44.78449" lon="4.3438">
        <ele>921.84</ele>
        <time>2022-03-22T16:13:23Z</time>
      </trkpt>
      <trkpt lat="44.78437" lon="4.34382">
        <ele>923.15</ele>
        <time>2022-03-22T16:13:26Z</time>
      </trkpt>
      <trkpt lat="44.78426" lon="4.34377">
        <ele>926.16</ele>
        <time>2022-03-22T16:13:28Z</time>
      </trkpt>
      <trkpt lat="44.78415" lon="4.34367">
        <ele>929.83</ele>
        <time>2022-03-22T16:13:30Z</time>
      </trkpt>
      <trkpt lat="44.78406" lon="4.34351">
        <ele>930.58</ele>
        <time>2022-03-22T16:13:32Z</time>
      </trkpt>
      <trkpt lat="44.78402" lon="4.34338">
        <ele>929.96</ele>
        <time>2022-03-22T16:13:34Z</time>
      </trkpt>
      <trkpt lat="44.78398" lon="4.34307">
        <ele>926.7</ele>
        <time>2022-03-22T16:13:36Z</time>
      </trkpt>
      <trkpt lat="44.78401" lon="4.34291">
        <ele>925.95</ele>
        <time>2022-03-22T16:13:38Z</time>
      </trkpt>
      <trkpt lat="44.78411" lon="4.34275">
        <ele>926.72</ele>
        <time>2022-03-22T16:13:40Z</time>
      </trkpt>
      <trkpt lat="44.78415" lon="4.34262">
        <ele>927.18</ele>
        <time>2022-03-22T16:13:42Z</time>
      </trkpt>
      <trkpt lat="44.78417" lon="4.34249">
        <ele>926.98</ele>
        <time>2022-03-22T16:13:45Z</time>
      </trkpt>
      <trkpt lat="44.78416" lon="4.34227">
        <ele>926.82</ele>
        <time>2022-03-22T16:13:47Z</time>
      </trkpt>
      <trkpt lat="44.7841" lon="4.34214">
        <ele>925.94</ele>
        <time>2022-03-22T16:13:49Z</time>
      </trkpt>
      <trkpt lat="44.784" lon="4.34205">
        <ele>924.48</ele>
        <time>2022-03-22T16:13:51Z</time>
      </trkpt>
      <trkpt lat="44.78391" lon="4.34199">
        <ele>923.07</ele>
        <time>2022-03-22T16:13:53Z</time>
      </trkpt>
      <trkpt lat="44.78372" lon="4.34189">
        <ele>922.7</ele>
        <time>2022-03-22T16:13:55Z</time>
      </trkpt>
      <trkpt lat="44.78361" lon="4.34186">
        <ele>922.59</ele>
        <time>2022-03-22T16:13:57Z</time>
      </trkpt>
      <trkpt lat="44.78346" lon="4.34191">
        <ele>923.19</ele>
        <time>2022-03-22T16:13:59Z</time>
      </trkpt>
      <trkpt lat="44.78324" lon="4.34206">
        <ele>920.73</ele>
        <time>2022-03-22T16:14:01Z</time>
      </trkpt>
      <trkpt lat="44.78296" lon="4.34229">
        <ele>913.07</ele>
        <time>2022-03-22T16:14:04Z</time>
      </trkpt>
      <trkpt lat="44.78281" lon="4.34235">
        <ele>910.66</ele>
        <time>2022-03-22T16:14:06Z</time>
      </trkpt>
      <trkpt lat="44.78269" lon="4.34231">
        <ele>909.71</ele>
        <time>2022-03-22T16:14:08Z</time>
      </trkpt>
      <trkpt lat="44.78251" lon="4.3421">
        <ele>913.49</ele>
        <time>2022-03-22T16:14:10Z</time>
      </trkpt>
      <trkpt lat="44.78232" lon="4.34197">
        <ele>915.7</ele>
        <time>2022-03-22T16:14:12Z</time>
      </trkpt>
      <trkpt lat="44.7821" lon="4.34198">
        <ele>915.93</ele>
        <time>2022-03-22T16:14:14Z</time>
      </trkpt>
      <trkpt lat="44.78182" lon="4.3421">
        <ele>916.99</ele>
        <time>2022-03-22T16:14:16Z</time>
      </trkpt>
      <trkpt lat="44.7816" lon="4.34228">
        <ele>917.17</ele>
        <time>2022-03-22T16:14:18Z</time>
      </trkpt>
      <trkpt lat="44.78137" lon="4.34254">
        <ele>917.13</ele>
        <time>2022-03-22T16:14:20Z</time>
      </trkpt>
      <trkpt lat="44.78124" lon="4.34274">
        <ele>914.82</ele>
        <time>2022-03-22T16:14:23Z</time>
      </trkpt>
      <trkpt lat="44.78089" lon="4.34364">
        <ele>901.75</ele>
        <time>2022-03-22T16:14:25Z</time>
      </trkpt>
      <trkpt lat="44.7808" lon="4.34378">
        <ele>900.41</ele>
        <time>2022-03-22T16:14:27Z</time>
      </trkpt>
      <trkpt lat="44.78068" lon="4.34385">
        <ele>900.05</ele>
        <time>2022-03-22T16:14:29Z</time>
      </trkpt>
      <trkpt lat="44.78051" lon="4.34389">
        <ele>900</ele>
        <time>2022-03-22T16:14:31Z</time>
      </trkpt>
      <trkpt lat="44.78033" lon="4.34385">
        <ele>901.08</ele>
        <time>2022-03-22T16:14:33Z</time>
      </trkpt>
      <trkpt lat="44.77897" lon="4.34386">
        <ele>889.26</ele>
        <time>2022-03-22T16:14:35Z</time>
      </trkpt>
      <trkpt lat="44.77833" lon="4.34392">
        <ele>880.77</ele>
        <time>2022-03-22T16:14:37Z</time>
      </trkpt>
      <trkpt lat="44.7782" lon="4.34388">
        <ele>878.92</ele>
        <time>2022-03-22T16:14:39Z</time>
      </trkpt>
      <trkpt lat="44.77804" lon="4.34369">
        <ele>879.96</ele>
        <time>2022-03-22T16:14:42Z</time>
      </trkpt>
      <trkpt lat="44.77797" lon="4.34353">
        <ele>881.43</ele>
        <time>2022-03-22T16:14:44Z</time>
      </trkpt>
      <trkpt lat="44.77774" lon="4.34261">
        <ele>889.66</ele>
        <time>2022-03-22T16:14:46Z</time>
      </trkpt>
      <trkpt lat="44.77762" lon="4.34239">
        <ele>888.27</ele>
        <time>2022-03-22T16:14:48Z</time>
      </trkpt>
      <trkpt lat="44.77747" lon="4.34226">
        <ele>883.78</ele>
        <time>2022-03-22T16:14:50Z</time>
      </trkpt>
      <trkpt lat="44.77732" lon="4.34215">
        <ele>877.7</ele>
        <time>2022-03-22T16:14:52Z</time>
      </trkpt>
      <trkpt lat="44.77722" lon="4.342">
        <ele>875.79</ele>
        <time>2022-03-22T16:14:54Z</time>
      </trkpt>
      <trkpt lat="44.7767" lon="4.3405">
        <ele>877.8</ele>
        <time>2022-03-22T16:14:56Z</time>
      </trkpt>
      <trkpt lat="44.77661" lon="4.34035">
        <ele>879.47</ele>
        <time>2022-03-22T16:14:58Z</time>
      </trkpt>
      <trkpt lat="44.77651" lon="4.34029">
        <ele>877.68</ele>
        <time>2022-03-22T16:15:00Z</time>
      </trkpt>
      <trkpt lat="44.77637" lon="4.34026">
        <ele>873.89</ele>
        <time>2022-03-22T16:15:03Z</time>
      </trkpt>
      <trkpt lat="44.77625" lon="4.34033">
        <ele>873.91</ele>
        <time>2022-03-22T16:15:05Z</time>
      </trkpt>
      <trkpt lat="44.77597" lon="4.34075">
        <ele>866.43</ele>
        <time>2022-03-22T16:15:07Z</time>
      </trkpt>
      <trkpt lat="44.77584" lon="4.34088">
        <ele>864.15</ele>
        <time>2022-03-22T16:15:09Z</time>
      </trkpt>
      <trkpt lat="44.7753" lon="4.34111">
        <ele>860.41</ele>
        <time>2022-03-22T16:15:11Z</time>
      </trkpt>
      <trkpt lat="44.77512" lon="4.34113">
        <ele>855.09</ele>
        <time>2022-03-22T16:15:13Z</time>
      </trkpt>
      <trkpt lat="44.77497" lon="4.34109">
        <ele>853.17</ele>
        <time>2022-03-22T16:15:15Z</time>
      </trkpt>
      <trkpt lat="44.77416" lon="4.34062">
        <ele>849.82</ele>
        <time>2022-03-22T16:15:17Z</time>
      </trkpt>
      <trkpt lat="44.77399" lon="4.34037">
        <ele>851.22</ele>
        <time>2022-03-22T16:15:19Z</time>
      </trkpt>
      <trkpt lat="44.77367" lon="4.33951">
        <ele>855.39</ele>
        <time>2022-03-22T16:15:22Z</time>
      </trkpt>
      <trkpt lat="44.77352" lon="4.3393">
        <ele>854.74</ele>
        <time>2022-03-22T16:15:24Z</time>
      </trkpt>
      <trkpt lat="44.77335" lon="4.33916">
        <ele>849.97</ele>
        <time>2022-03-22T16:15:26Z</time>
      </trkpt>
      <trkpt lat="44.77325" lon="4.33905">
        <ele>846.83</ele>
        <time>2022-03-22T16:15:28Z</time>
      </trkpt>
      <trkpt lat="44.77304" lon="4.33856">
        <ele>846.17</ele>
        <time>2022-03-22T16:15:30Z</time>
      </trkpt>
      <trkpt lat="44.77288" lon="4.33838">
        <ele>847.24</ele>
        <time>2022-03-22T16:15:32Z</time>
      </trkpt>
      <trkpt lat="44.77267" lon="4.33827">
        <ele>847.17</ele>
        <time>2022-03-22T16:15:34Z</time>
      </trkpt>
      <trkpt lat="44.77239" lon="4.33827">
        <ele>843.44</ele>
        <time>2022-03-22T16:15:36Z</time>
      </trkpt>
      <trkpt lat="44.7721" lon="4.33831">
        <ele>839.94</ele>
        <time>2022-03-22T16:15:38Z</time>
      </trkpt>
      <trkpt lat="44.77176" lon="4.33841">
        <ele>833.48</ele>
        <time>2022-03-22T16:15:41Z</time>
      </trkpt>
      <trkpt lat="44.77153" lon="4.33842">
        <ele>830.59</ele>
        <time>2022-03-22T16:15:43Z</time>
      </trkpt>
      <trkpt lat="44.77127" lon="4.33839">
        <ele>828.51</ele>
        <time>2022-03-22T16:15:45Z</time>
      </trkpt>
      <trkpt lat="44.7711" lon="4.33831">
        <ele>827.22</ele>
        <time>2022-03-22T16:15:47Z</time>
      </trkpt>
      <trkpt lat="44.77099" lon="4.33821">
        <ele>826.51</ele>
        <time>2022-03-22T16:15:49Z</time>
      </trkpt>
      <trkpt lat="44.77092" lon="4.33808">
        <ele>826.82</ele>
        <time>2022-03-22T16:15:51Z</time>
      </trkpt>
      <trkpt lat="44.77088" lon="4.33791">
        <ele>826.53</ele>
        <time>2022-03-22T16:15:53Z</time>
      </trkpt>
      <trkpt lat="44.77088" lon="4.33769">
        <ele>827.3</ele>
        <time>2022-03-22T16:15:55Z</time>
      </trkpt>
      <trkpt lat="44.77093" lon="4.33713">
        <ele>830.93</ele>
        <time>2022-03-22T16:15:57Z</time>
      </trkpt>
      <trkpt lat="44.77092" lon="4.33694">
        <ele>830.6</ele>
        <time>2022-03-22T16:16:00Z</time>
      </trkpt>
      <trkpt lat="44.77088" lon="4.33679">
        <ele>830.43</ele>
        <time>2022-03-22T16:16:02Z</time>
      </trkpt>
      <trkpt lat="44.77078" lon="4.33664">
        <ele>830.68</ele>
        <time>2022-03-22T16:16:04Z</time>
      </trkpt>
      <trkpt lat="44.77066" lon="4.3366">
        <ele>831.98</ele>
        <time>2022-03-22T16:16:06Z</time>
      </trkpt>
      <trkpt lat="44.77059" lon="4.33661">
        <ele>832.01</ele>
        <time>2022-03-22T16:16:08Z</time>
      </trkpt>
      <trkpt lat="44.77046" lon="4.33668">
        <ele>830.32</ele>
        <time>2022-03-22T16:16:10Z</time>
      </trkpt>
      <trkpt lat="44.76858" lon="4.33809">
        <ele>808.09</ele>
        <time>2022-03-22T16:16:12Z</time>
      </trkpt>
      <trkpt lat="44.76836" lon="4.33824">
        <ele>806.14</ele>
        <time>2022-03-22T16:16:14Z</time>
      </trkpt>
      <trkpt lat="44.76818" lon="4.3383">
        <ele>803.87</ele>
        <time>2022-03-22T16:16:16Z</time>
      </trkpt>
      <trkpt lat="44.76802" lon="4.33831">
        <ele>801.94</ele>
        <time>2022-03-22T16:16:19Z</time>
      </trkpt>
      <trkpt lat="44.76788" lon="4.33828">
        <ele>800.02</ele>
        <time>2022-03-22T16:16:21Z</time>
      </trkpt>
      <trkpt lat="44.76778" lon="4.33823">
        <ele>799.37</ele>
        <time>2022-03-22T16:16:23Z</time>
      </trkpt>
      <trkpt lat="44.76766" lon="4.33812">
        <ele>798.38</ele>
        <time>2022-03-22T16:16:25Z</time>
      </trkpt>
      <trkpt lat="44.76757" lon="4.33802">
        <ele>798.46</ele>
        <time>2022-03-22T16:16:27Z</time>
      </trkpt>
      <trkpt lat="44.7675" lon="4.33788">
        <ele>798.93</ele>
        <time>2022-03-22T16:16:29Z</time>
      </trkpt>
      <trkpt lat="44.76745" lon="4.33773">
        <ele>800.25</ele>
        <time>2022-03-22T16:16:31Z</time>
      </trkpt>
      <trkpt lat="44.76737" lon="4.33712">
        <ele>809.09</ele>
        <time>2022-03-22T16:16:33Z</time>
      </trkpt>
      <trkpt lat="44.7673" lon="4.33697">
        <ele>809.58</ele>
        <time>2022-03-22T16:16:35Z</time>
      </trkpt>
      <trkpt lat="44.76719" lon="4.33683">
        <ele>809.44</ele>
        <time>2022-03-22T16:16:38Z</time>
      </trkpt>
      <trkpt lat="44.76706" lon="4.33676">
        <ele>809.97</ele>
        <time>2022-03-22T16:16:40Z</time>
      </trkpt>
      <trkpt lat="44.7668" lon="4.33682">
        <ele>809.04</ele>
        <time>2022-03-22T16:16:42Z</time>
      </trkpt>
      <trkpt lat="44.76659" lon="4.33701">
        <ele>804.94</ele>
        <time>2022-03-22T16:16:44Z</time>
      </trkpt>
      <trkpt lat="44.76582" lon="4.33824">
        <ele>784.11</ele>
        <time>2022-03-22T16:16:46Z</time>
      </trkpt>
      <trkpt lat="44.76569" lon="4.33837">
        <ele>782.65</ele>
        <time>2022-03-22T16:16:48Z</time>
      </trkpt>
      <trkpt lat="44.76557" lon="4.33842">
        <ele>782.3</ele>
        <time>2022-03-22T16:16:50Z</time>
      </trkpt>
      <trkpt lat="44.76534" lon="4.33842">
        <ele>782.54</ele>
        <time>2022-03-22T16:16:52Z</time>
      </trkpt>
      <trkpt lat="44.76504" lon="4.33839">
        <ele>781.21</ele>
        <time>2022-03-22T16:16:54Z</time>
      </trkpt>
      <trkpt lat="44.76492" lon="4.33833">
        <ele>780.35</ele>
        <time>2022-03-22T16:16:56Z</time>
      </trkpt>
      <trkpt lat="44.76484" lon="4.33822">
        <ele>779.51</ele>
        <time>2022-03-22T16:16:59Z</time>
      </trkpt>
      <trkpt lat="44.76477" lon="4.33807">
        <ele>779.73</ele>
        <time>2022-03-22T16:17:01Z</time>
      </trkpt>
      <trkpt lat="44.76472" lon="4.33734">
        <ele>782.98</ele>
        <time>2022-03-22T16:17:03Z</time>
      </trkpt>
      <trkpt lat="44.76468" lon="4.33719">
        <ele>782.98</ele>
        <time>2022-03-22T16:17:05Z</time>
      </trkpt>
      <trkpt lat="44.76457" lon="4.33701">
        <ele>781.99</ele>
        <time>2022-03-22T16:17:07Z</time>
      </trkpt>
      <trkpt lat="44.76419" lon="4.33651">
        <ele>777.29</ele>
        <time>2022-03-22T16:17:09Z</time>
      </trkpt>
      <trkpt lat="44.76369" lon="4.33572">
        <ele>773.76</ele>
        <time>2022-03-22T16:17:11Z</time>
      </trkpt>
      <trkpt lat="44.76361" lon="4.33543">
        <ele>773.62</ele>
        <time>2022-03-22T16:17:13Z</time>
      </trkpt>
      <trkpt lat="44.7635" lon="4.33495">
        <ele>773.94</ele>
        <time>2022-03-22T16:17:15Z</time>
      </trkpt>
      <trkpt lat="44.76339" lon="4.33464">
        <ele>774.96</ele>
        <time>2022-03-22T16:17:18Z</time>
      </trkpt>
      <trkpt lat="44.76305" lon="4.33396">
        <ele>765.58</ele>
        <time>2022-03-22T16:17:20Z</time>
      </trkpt>
      <trkpt lat="44.76299" lon="4.33379">
        <ele>764.22</ele>
        <time>2022-03-22T16:17:22Z</time>
      </trkpt>
      <trkpt lat="44.76281" lon="4.33278">
        <ele>760.26</ele>
        <time>2022-03-22T16:17:24Z</time>
      </trkpt>
      <trkpt lat="44.7628" lon="4.33257">
        <ele>758.99</ele>
        <time>2022-03-22T16:17:26Z</time>
      </trkpt>
      <trkpt lat="44.76287" lon="4.33222">
        <ele>761.96</ele>
        <time>2022-03-22T16:17:28Z</time>
      </trkpt>
      <trkpt lat="44.76286" lon="4.33208">
        <ele>764.05</ele>
        <time>2022-03-22T16:17:30Z</time>
      </trkpt>
      <trkpt lat="44.76279" lon="4.33198">
        <ele>764.57</ele>
        <time>2022-03-22T16:17:32Z</time>
      </trkpt>
      <trkpt lat="44.76269" lon="4.33195">
        <ele>763.59</ele>
        <time>2022-03-22T16:17:34Z</time>
      </trkpt>
      <trkpt lat="44.7626" lon="4.33199">
        <ele>761.43</ele>
        <time>2022-03-22T16:17:37Z</time>
      </trkpt>
      <trkpt lat="44.76255" lon="4.33208">
        <ele>758.51</ele>
        <time>2022-03-22T16:17:39Z</time>
      </trkpt>
      <trkpt lat="44.76253" lon="4.33222">
        <ele>754.69</ele>
        <time>2022-03-22T16:17:41Z</time>
      </trkpt>
      <trkpt lat="44.76268" lon="4.33347">
        <ele>750.51</ele>
        <time>2022-03-22T16:17:43Z</time>
      </trkpt>
      <trkpt lat="44.76272" lon="4.33375">
        <ele>749.57</ele>
        <time>2022-03-22T16:17:45Z</time>
      </trkpt>
      <trkpt lat="44.76279" lon="4.33396">
        <ele>751.28</ele>
        <time>2022-03-22T16:17:47Z</time>
      </trkpt>
      <trkpt lat="44.76282" lon="4.33437">
        <ele>748.91</ele>
        <time>2022-03-22T16:17:49Z</time>
      </trkpt>
      <trkpt lat="44.76343" lon="4.33657">
        <ele>743.59</ele>
        <time>2022-03-22T16:17:51Z</time>
      </trkpt>
      <trkpt lat="44.76354" lon="4.33699">
        <ele>740.74</ele>
        <time>2022-03-22T16:17:53Z</time>
      </trkpt>
      <trkpt lat="44.76377" lon="4.33778">
        <ele>739.6</ele>
        <time>2022-03-22T16:17:56Z</time>
      </trkpt>
      <trkpt lat="44.76379" lon="4.33794">
        <ele>740.24</ele>
        <time>2022-03-22T16:17:58Z</time>
      </trkpt>
      <trkpt lat="44.76378" lon="4.33811">
        <ele>739.27</ele>
        <time>2022-03-22T16:18:00Z</time>
      </trkpt>
      <trkpt lat="44.76361" lon="4.33875">
        <ele>728.06</ele>
        <time>2022-03-22T16:18:02Z</time>
      </trkpt>
      <trkpt lat="44.76358" lon="4.33897">
        <ele>725.16</ele>
        <time>2022-03-22T16:18:04Z</time>
      </trkpt>
      <trkpt lat="44.76358" lon="4.33918">
        <ele>723.74</ele>
        <time>2022-03-22T16:18:06Z</time>
      </trkpt>
      <trkpt lat="44.76364" lon="4.33939">
        <ele>722.47</ele>
        <time>2022-03-22T16:18:08Z</time>
      </trkpt>
      <trkpt lat="44.76373" lon="4.33957">
        <ele>722.07</ele>
        <time>2022-03-22T16:18:10Z</time>
      </trkpt>
      <trkpt lat="44.76385" lon="4.33969">
        <ele>722.01</ele>
        <time>2022-03-22T16:18:12Z</time>
      </trkpt>
      <trkpt lat="44.76405" lon="4.33983">
        <ele>721.65</ele>
        <time>2022-03-22T16:18:15Z</time>
      </trkpt>
      <trkpt lat="44.76419" lon="4.33989">
        <ele>722.1</ele>
        <time>2022-03-22T16:18:17Z</time>
      </trkpt>
      <trkpt lat="44.76515" lon="4.33997">
        <ele>722.57</ele>
        <time>2022-03-22T16:18:19Z</time>
      </trkpt>
      <trkpt lat="44.76525" lon="4.34001">
        <ele>721.42</ele>
        <time>2022-03-22T16:18:21Z</time>
      </trkpt>
      <trkpt lat="44.76553" lon="4.34021">
        <ele>718.27</ele>
        <time>2022-03-22T16:18:23Z</time>
      </trkpt>
      <trkpt lat="44.76595" lon="4.34044">
        <ele>714.08</ele>
        <time>2022-03-22T16:18:25Z</time>
      </trkpt>
      <trkpt lat="44.76614" lon="4.3405">
        <ele>712.31</ele>
        <time>2022-03-22T16:18:27Z</time>
      </trkpt>
      <trkpt lat="44.76653" lon="4.34048">
        <ele>711.2</ele>
        <time>2022-03-22T16:18:29Z</time>
      </trkpt>
      <trkpt lat="44.76665" lon="4.3405">
        <ele>709.59</ele>
        <time>2022-03-22T16:18:31Z</time>
      </trkpt>
      <trkpt lat="44.76681" lon="4.34057">
        <ele>709.17</ele>
        <time>2022-03-22T16:18:33Z</time>
      </trkpt>
      <trkpt lat="44.76693" lon="4.34066">
        <ele>707.88</ele>
        <time>2022-03-22T16:18:36Z</time>
      </trkpt>
      <trkpt lat="44.76723" lon="4.34096">
        <ele>705.72</ele>
        <time>2022-03-22T16:18:38Z</time>
      </trkpt>
      <trkpt lat="44.76741" lon="4.34111">
        <ele>708.07</ele>
        <time>2022-03-22T16:18:40Z</time>
      </trkpt>
      <trkpt lat="44.76745" lon="4.34122">
        <ele>708.25</ele>
        <time>2022-03-22T16:18:42Z</time>
      </trkpt>
      <trkpt lat="44.76746" lon="4.34135">
        <ele>707.51</ele>
        <time>2022-03-22T16:18:44Z</time>
      </trkpt>
      <trkpt lat="44.76742" lon="4.34147">
        <ele>705.97</ele>
        <time>2022-03-22T16:18:46Z</time>
      </trkpt>
      <trkpt lat="44.76734" lon="4.34156">
        <ele>703.91</ele>
        <time>2022-03-22T16:18:48Z</time>
      </trkpt>
      <trkpt lat="44.76727" lon="4.34158">
        <ele>702.47</ele>
        <time>2022-03-22T16:18:50Z</time>
      </trkpt>
      <trkpt lat="44.76719" lon="4.34156">
        <ele>701.29</ele>
        <time>2022-03-22T16:18:52Z</time>
      </trkpt>
      <trkpt lat="44.76701" lon="4.34129">
        <ele>700.53</ele>
        <time>2022-03-22T16:18:55Z</time>
      </trkpt>
      <trkpt lat="44.76675" lon="4.34097">
        <ele>701.01</ele>
        <time>2022-03-22T16:18:57Z</time>
      </trkpt>
      <trkpt lat="44.76665" lon="4.34091">
        <ele>701.14</ele>
        <time>2022-03-22T16:18:59Z</time>
      </trkpt>
      <trkpt lat="44.76638" lon="4.34083">
        <ele>701.3</ele>
        <time>2022-03-22T16:19:01Z</time>
      </trkpt>
      <trkpt lat="44.76613" lon="4.3408">
        <ele>702.92</ele>
        <time>2022-03-22T16:19:03Z</time>
      </trkpt>
      <trkpt lat="44.7658" lon="4.34073">
        <ele>703.01</ele>
        <time>2022-03-22T16:19:05Z</time>
      </trkpt>
      <trkpt lat="44.76538" lon="4.34067">
        <ele>698.93</ele>
        <time>2022-03-22T16:19:07Z</time>
      </trkpt>
      <trkpt lat="44.76516" lon="4.34057">
        <ele>700.17</ele>
        <time>2022-03-22T16:19:09Z</time>
      </trkpt>
      <trkpt lat="44.76506" lon="4.34055">
        <ele>700.33</ele>
        <time>2022-03-22T16:19:11Z</time>
      </trkpt>
      <trkpt lat="44.76435" lon="4.34067">
        <ele>694.16</ele>
        <time>2022-03-22T16:19:14Z</time>
      </trkpt>
      <trkpt lat="44.76424" lon="4.34067">
        <ele>694.9</ele>
        <time>2022-03-22T16:19:16Z</time>
      </trkpt>
      <trkpt lat="44.764" lon="4.34064">
        <ele>694.76</ele>
        <time>2022-03-22T16:19:18Z</time>
      </trkpt>
      <trkpt lat="44.76371" lon="4.34056">
        <ele>690.72</ele>
        <time>2022-03-22T16:19:20Z</time>
      </trkpt>
      <trkpt lat="44.76299" lon="4.34045">
        <ele>679.17</ele>
        <time>2022-03-22T16:19:22Z</time>
      </trkpt>
      <trkpt lat="44.76286" lon="4.34041">
        <ele>678.19</ele>
        <time>2022-03-22T16:19:24Z</time>
      </trkpt>
      <trkpt lat="44.76232" lon="4.34012">
        <ele>677.16</ele>
        <time>2022-03-22T16:19:26Z</time>
      </trkpt>
      <trkpt lat="44.76212" lon="4.34004">
        <ele>675.53</ele>
        <time>2022-03-22T16:19:28Z</time>
      </trkpt>
      <trkpt lat="44.76201" lon="4.3401">
        <ele>673.65</ele>
        <time>2022-03-22T16:19:30Z</time>
      </trkpt>
      <trkpt lat="44.76195" lon="4.34024">
        <ele>671.55</ele>
        <time>2022-03-22T16:19:33Z</time>
      </trkpt>
      <trkpt lat="44.76195" lon="4.34038">
        <ele>669.98</ele>
        <time>2022-03-22T16:19:35Z</time>
      </trkpt>
      <trkpt lat="44.76202" lon="4.34052">
        <ele>669.41</ele>
        <time>2022-03-22T16:19:37Z</time>
      </trkpt>
      <trkpt lat="44.76228" lon="4.34063">
        <ele>671.62</ele>
        <time>2022-03-22T16:19:39Z</time>
      </trkpt>
      <trkpt lat="44.76239" lon="4.34072">
        <ele>671.43</ele>
        <time>2022-03-22T16:19:41Z</time>
      </trkpt>
      <trkpt lat="44.76252" lon="4.34087">
        <ele>670.49</ele>
        <time>2022-03-22T16:19:43Z</time>
      </trkpt>
      <trkpt lat="44.76266" lon="4.34097">
        <ele>669.21</ele>
        <time>2022-03-22T16:19:45Z</time>
      </trkpt>
      <trkpt lat="44.76285" lon="4.34108">
        <ele>668.55</ele>
        <time>2022-03-22T16:19:47Z</time>
      </trkpt>
      <trkpt lat="44.76292" lon="4.34116">
        <ele>668.06</ele>
        <time>2022-03-22T16:19:49Z</time>
      </trkpt>
      <trkpt lat="44.76296" lon="4.34129">
        <ele>667.11</ele>
        <time>2022-03-22T16:19:52Z</time>
      </trkpt>
      <trkpt lat="44.76295" lon="4.3414">
        <ele>666.18</ele>
        <time>2022-03-22T16:19:54Z</time>
      </trkpt>
      <trkpt lat="44.76292" lon="4.34149">
        <ele>665.65</ele>
        <time>2022-03-22T16:19:56Z</time>
      </trkpt>
      <trkpt lat="44.76282" lon="4.3416">
        <ele>665.06</ele>
        <time>2022-03-22T16:19:58Z</time>
      </trkpt>
      <trkpt lat="44.76231" lon="4.34178">
        <ele>661.65</ele>
        <time>2022-03-22T16:20:00Z</time>
      </trkpt>
      <trkpt lat="44.76176" lon="4.34202">
        <ele>655.88</ele>
        <time>2022-03-22T16:20:02Z</time>
      </trkpt>
      <trkpt lat="44.76128" lon="4.34207">
        <ele>656.29</ele>
        <time>2022-03-22T16:20:04Z</time>
      </trkpt>
      <trkpt lat="44.76114" lon="4.34212">
        <ele>658</ele>
        <time>2022-03-22T16:20:06Z</time>
      </trkpt>
      <trkpt lat="44.76065" lon="4.34249">
        <ele>658.56</ele>
        <time>2022-03-22T16:20:08Z</time>
      </trkpt>
      <trkpt lat="44.76041" lon="4.34275">
        <ele>660.06</ele>
        <time>2022-03-22T16:20:11Z</time>
      </trkpt>
      <trkpt lat="44.75985" lon="4.34311">
        <ele>655.45</ele>
        <time>2022-03-22T16:20:13Z</time>
      </trkpt>
      <trkpt lat="44.75908" lon="4.34349">
        <ele>652.72</ele>
        <time>2022-03-22T16:20:15Z</time>
      </trkpt>
      <trkpt lat="44.759" lon="4.34352">
        <ele>652</ele>
        <time>2022-03-22T16:20:17Z</time>
      </trkpt>
      <trkpt lat="44.75887" lon="4.34352">
        <ele>649.65</ele>
        <time>2022-03-22T16:20:19Z</time>
      </trkpt>
      <trkpt lat="44.75842" lon="4.3435">
        <ele>647.57</ele>
        <time>2022-03-22T16:20:21Z</time>
      </trkpt>
      <trkpt lat="44.75776" lon="4.34359">
        <ele>647.22</ele>
        <time>2022-03-22T16:20:23Z</time>
      </trkpt>
      <trkpt lat="44.75732" lon="4.34369">
        <ele>643.54</ele>
        <time>2022-03-22T16:20:25Z</time>
      </trkpt>
      <trkpt lat="44.75674" lon="4.34373">
        <ele>637.86</ele>
        <time>2022-03-22T16:20:27Z</time>
      </trkpt>
      <trkpt lat="44.75664" lon="4.34372">
        <ele>637.12</ele>
        <time>2022-03-22T16:20:29Z</time>
      </trkpt>
      <trkpt lat="44.75629" lon="4.34358">
        <ele>634.22</ele>
        <time>2022-03-22T16:20:32Z</time>
      </trkpt>
      <trkpt lat="44.75619" lon="4.34357">
        <ele>633.67</ele>
        <time>2022-03-22T16:20:34Z</time>
      </trkpt>
      <trkpt lat="44.75607" lon="4.34359">
        <ele>633.42</ele>
        <time>2022-03-22T16:20:36Z</time>
      </trkpt>
      <trkpt lat="44.7555" lon="4.34398">
        <ele>635.8</ele>
        <time>2022-03-22T16:20:38Z</time>
      </trkpt>
      <trkpt lat="44.75413" lon="4.34478">
        <ele>628.33</ele>
        <time>2022-03-22T16:20:40Z</time>
      </trkpt>
      <trkpt lat="44.75372" lon="4.34496">
        <ele>625.88</ele>
        <time>2022-03-22T16:20:42Z</time>
      </trkpt>
      <trkpt lat="44.75323" lon="4.34513">
        <ele>626.09</ele>
        <time>2022-03-22T16:20:44Z</time>
      </trkpt>
      <trkpt lat="44.75311" lon="4.34513">
        <ele>625.94</ele>
        <time>2022-03-22T16:20:46Z</time>
      </trkpt>
      <trkpt lat="44.75298" lon="4.34511">
        <ele>625.11</ele>
        <time>2022-03-22T16:20:48Z</time>
      </trkpt>
      <trkpt lat="44.75263" lon="4.34494">
        <ele>619.81</ele>
        <time>2022-03-22T16:20:51Z</time>
      </trkpt>
      <trkpt lat="44.75249" lon="4.34493">
        <ele>618.59</ele>
        <time>2022-03-22T16:20:53Z</time>
      </trkpt>
      <trkpt lat="44.75236" lon="4.34499">
        <ele>617.31</ele>
        <time>2022-03-22T16:20:55Z</time>
      </trkpt>
      <trkpt lat="44.75195" lon="4.34535">
        <ele>619.39</ele>
        <time>2022-03-22T16:20:57Z</time>
      </trkpt>
      <trkpt lat="44.7518" lon="4.34546">
        <ele>617.7</ele>
        <time>2022-03-22T16:20:59Z</time>
      </trkpt>
      <trkpt lat="44.75159" lon="4.34555">
        <ele>614.89</ele>
        <time>2022-03-22T16:21:01Z</time>
      </trkpt>
      <trkpt lat="44.75127" lon="4.34558">
        <ele>611.79</ele>
        <time>2022-03-22T16:21:03Z</time>
      </trkpt>
      <trkpt lat="44.75082" lon="4.34567">
        <ele>616.22</ele>
        <time>2022-03-22T16:21:05Z</time>
      </trkpt>
      <trkpt lat="44.75034" lon="4.34562">
        <ele>609.36</ele>
        <time>2022-03-22T16:21:07Z</time>
      </trkpt>
      <trkpt lat="44.74998" lon="4.34561">
        <ele>609.2</ele>
        <time>2022-03-22T16:21:10Z</time>
      </trkpt>
      <trkpt lat="44.74974" lon="4.34567">
        <ele>610.61</ele>
        <time>2022-03-22T16:21:12Z</time>
      </trkpt>
      <trkpt lat="44.7496" lon="4.34566">
        <ele>611.16</ele>
        <time>2022-03-22T16:21:14Z</time>
      </trkpt>
      <trkpt lat="44.74947" lon="4.34561">
        <ele>610.31</ele>
        <time>2022-03-22T16:21:16Z</time>
      </trkpt>
      <trkpt lat="44.74937" lon="4.3455">
        <ele>609.08</ele>
        <time>2022-03-22T16:21:18Z</time>
      </trkpt>
      <trkpt lat="44.74915" lon="4.34495">
        <ele>601.58</ele>
        <time>2022-03-22T16:21:20Z</time>
      </trkpt>
      <trkpt lat="44.74905" lon="4.34479">
        <ele>600.49</ele>
        <time>2022-03-22T16:21:22Z</time>
      </trkpt>
      <trkpt lat="44.74888" lon="4.34464">
        <ele>600.48</ele>
        <time>2022-03-22T16:21:24Z</time>
      </trkpt>
      <trkpt lat="44.74858" lon="4.34454">
        <ele>603</ele>
        <time>2022-03-22T16:21:26Z</time>
      </trkpt>
      <trkpt lat="44.74846" lon="4.34448">
        <ele>604.97</ele>
        <time>2022-03-22T16:21:29Z</time>
      </trkpt>
      <trkpt lat="44.74838" lon="4.3444">
        <ele>605.27</ele>
        <time>2022-03-22T16:21:31Z</time>
      </trkpt>
      <trkpt lat="44.74794" lon="4.34379">
        <ele>604.38</ele>
        <time>2022-03-22T16:21:33Z</time>
      </trkpt>
      <trkpt lat="44.74784" lon="4.34359">
        <ele>601.63</ele>
        <time>2022-03-22T16:21:35Z</time>
      </trkpt>
      <trkpt lat="44.74777" lon="4.34337">
        <ele>599.12</ele>
        <time>2022-03-22T16:21:37Z</time>
      </trkpt>
      <trkpt lat="44.74773" lon="4.34319">
        <ele>598.29</ele>
        <time>2022-03-22T16:21:39Z</time>
      </trkpt>
      <trkpt lat="44.74771" lon="4.34298">
        <ele>597.13</ele>
        <time>2022-03-22T16:21:41Z</time>
      </trkpt>
      <trkpt lat="44.74769" lon="4.34259">
        <ele>594.21</ele>
        <time>2022-03-22T16:21:43Z</time>
      </trkpt>
      <trkpt lat="44.74765" lon="4.3423">
        <ele>592.73</ele>
        <time>2022-03-22T16:21:45Z</time>
      </trkpt>
      <trkpt lat="44.74754" lon="4.34195">
        <ele>591.04</ele>
        <time>2022-03-22T16:21:48Z</time>
      </trkpt>
      <trkpt lat="44.74746" lon="4.34159">
        <ele>587.23</ele>
        <time>2022-03-22T16:21:50Z</time>
      </trkpt>
      <trkpt lat="44.74738" lon="4.34127">
        <ele>584.17</ele>
        <time>2022-03-22T16:21:52Z</time>
      </trkpt>
      <trkpt lat="44.74728" lon="4.34109">
        <ele>582.75</ele>
        <time>2022-03-22T16:21:54Z</time>
      </trkpt>
      <trkpt lat="44.74712" lon="4.34087">
        <ele>581.57</ele>
        <time>2022-03-22T16:21:56Z</time>
      </trkpt>
      <trkpt lat="44.74699" lon="4.34076">
        <ele>580.58</ele>
        <time>2022-03-22T16:21:58Z</time>
      </trkpt>
      <trkpt lat="44.746" lon="4.34009">
        <ele>582.03</ele>
        <time>2022-03-22T16:22:00Z</time>
      </trkpt>
      <trkpt lat="44.74564" lon="4.33966">
        <ele>571.89</ele>
        <time>2022-03-22T16:22:02Z</time>
      </trkpt>
      <trkpt lat="44.74555" lon="4.33962">
        <ele>571.18</ele>
        <time>2022-03-22T16:22:04Z</time>
      </trkpt>
      <trkpt lat="44.74544" lon="4.33961">
        <ele>570.52</ele>
        <time>2022-03-22T16:22:07Z</time>
      </trkpt>
      <trkpt lat="44.74513" lon="4.33973">
        <ele>573.28</ele>
        <time>2022-03-22T16:22:09Z</time>
      </trkpt>
      <trkpt lat="44.74496" lon="4.33976">
        <ele>575.99</ele>
        <time>2022-03-22T16:22:11Z</time>
      </trkpt>
      <trkpt lat="44.74456" lon="4.33976">
        <ele>577.59</ele>
        <time>2022-03-22T16:22:13Z</time>
      </trkpt>
      <trkpt lat="44.74423" lon="4.33986">
        <ele>576.7</ele>
        <time>2022-03-22T16:22:15Z</time>
      </trkpt>
      <trkpt lat="44.74345" lon="4.3399">
        <ele>570.49</ele>
        <time>2022-03-22T16:22:17Z</time>
      </trkpt>
      <trkpt lat="44.74321" lon="4.33987">
        <ele>567.22</ele>
        <time>2022-03-22T16:22:19Z</time>
      </trkpt>
      <trkpt lat="44.743" lon="4.33991">
        <ele>564.17</ele>
        <time>2022-03-22T16:22:21Z</time>
      </trkpt>
      <trkpt lat="44.74291" lon="4.33998">
        <ele>562.85</ele>
        <time>2022-03-22T16:22:23Z</time>
      </trkpt>
      <trkpt lat="44.74274" lon="4.34017">
        <ele>564.55</ele>
        <time>2022-03-22T16:22:25Z</time>
      </trkpt>
      <trkpt lat="44.74224" lon="4.34082">
        <ele>564.37</ele>
        <time>2022-03-22T16:22:28Z</time>
      </trkpt>
      <trkpt lat="44.74224" lon="4.34082">
        <ele>564.37</ele>
        <time>2022-03-22T16:22:28Z</time>
      </trkpt>
      <trkpt lat="44.74212" lon="4.341">
        <ele>562.93</ele>
        <time>2022-03-22T16:22:30Z</time>
      </trkpt>
      <trkpt lat="44.74188" lon="4.34153">
        <ele>563.28</ele>
        <time>2022-03-22T16:22:31Z</time>
      </trkpt>
      <trkpt lat="44.7417" lon="4.3419">
        <ele>564.64</ele>
        <time>2022-03-22T16:22:33Z</time>
      </trkpt>
      <trkpt lat="44.74163" lon="4.34202">
        <ele>563.59</ele>
        <time>2022-03-22T16:22:35Z</time>
      </trkpt>
      <trkpt lat="44.74103" lon="4.34264">
        <ele>558.04</ele>
        <time>2022-03-22T16:22:37Z</time>
      </trkpt>
      <trkpt lat="44.7408" lon="4.34297">
        <ele>560.92</ele>
        <time>2022-03-22T16:22:39Z</time>
      </trkpt>
      <trkpt lat="44.74072" lon="4.34306">
        <ele>560.3</ele>
        <time>2022-03-22T16:22:41Z</time>
      </trkpt>
      <trkpt lat="44.74033" lon="4.34331">
        <ele>556.63</ele>
        <time>2022-03-22T16:22:42Z</time>
      </trkpt>
      <trkpt lat="44.73975" lon="4.34373">
        <ele>556.8</ele>
        <time>2022-03-22T16:22:44Z</time>
      </trkpt>
      <trkpt lat="44.73934" lon="4.34392">
        <ele>555.09</ele>
        <time>2022-03-22T16:22:46Z</time>
      </trkpt>
      <trkpt lat="44.73901" lon="4.34402">
        <ele>553.24</ele>
        <time>2022-03-22T16:22:48Z</time>
      </trkpt>
      <trkpt lat="44.73881" lon="4.34403">
        <ele>551.64</ele>
        <time>2022-03-22T16:22:50Z</time>
      </trkpt>
      <trkpt lat="44.73862" lon="4.34401">
        <ele>551.08</ele>
        <time>2022-03-22T16:22:51Z</time>
      </trkpt>
      <trkpt lat="44.73846" lon="4.34396">
        <ele>550.95</ele>
        <time>2022-03-22T16:22:53Z</time>
      </trkpt>
      <trkpt lat="44.73831" lon="4.34388">
        <ele>549.81</ele>
        <time>2022-03-22T16:22:55Z</time>
      </trkpt>
      <trkpt lat="44.7382" lon="4.3438">
        <ele>546.26</ele>
        <time>2022-03-22T16:22:57Z</time>
      </trkpt>
      <trkpt lat="44.73809" lon="4.34366">
        <ele>541.67</ele>
        <time>2022-03-22T16:22:59Z</time>
      </trkpt>
      <trkpt lat="44.73796" lon="4.34357">
        <ele>537.69</ele>
        <time>2022-03-22T16:23:01Z</time>
      </trkpt>
      <trkpt lat="44.73786" lon="4.34354">
        <ele>535.57</ele>
        <time>2022-03-22T16:23:02Z</time>
      </trkpt>
      <trkpt lat="44.73775" lon="4.34355">
        <ele>534.94</ele>
        <time>2022-03-22T16:23:04Z</time>
      </trkpt>
      <trkpt lat="44.73714" lon="4.344">
        <ele>534.22</ele>
        <time>2022-03-22T16:23:06Z</time>
      </trkpt>
      <trkpt lat="44.73698" lon="4.34416">
        <ele>532.3</ele>
        <time>2022-03-22T16:23:08Z</time>
      </trkpt>
      <trkpt lat="44.73687" lon="4.34431">
        <ele>532.43</ele>
        <time>2022-03-22T16:23:10Z</time>
      </trkpt>
      <trkpt lat="44.73646" lon="4.34507">
        <ele>530.17</ele>
        <time>2022-03-22T16:23:11Z</time>
      </trkpt>
      <trkpt lat="44.7364" lon="4.3452">
        <ele>529.58</ele>
        <time>2022-03-22T16:23:13Z</time>
      </trkpt>
      <trkpt lat="44.73636" lon="4.3455">
        <ele>532.45</ele>
        <time>2022-03-22T16:23:15Z</time>
      </trkpt>
      <trkpt lat="44.73632" lon="4.34564">
        <ele>534.08</ele>
        <time>2022-03-22T16:23:17Z</time>
      </trkpt>
      <trkpt lat="44.73627" lon="4.34573">
        <ele>534.42</ele>
        <time>2022-03-22T16:23:19Z</time>
      </trkpt>
      <trkpt lat="44.736" lon="4.34593">
        <ele>531.49</ele>
        <time>2022-03-22T16:23:21Z</time>
      </trkpt>
      <trkpt lat="44.73584" lon="4.34601">
        <ele>529.67</ele>
        <time>2022-03-22T16:23:22Z</time>
      </trkpt>
      <trkpt lat="44.73543" lon="4.34633">
        <ele>530.14</ele>
        <time>2022-03-22T16:23:24Z</time>
      </trkpt>
      <trkpt lat="44.73523" lon="4.34657">
        <ele>529.39</ele>
        <time>2022-03-22T16:23:26Z</time>
      </trkpt>
      <trkpt lat="44.73508" lon="4.3468">
        <ele>529.64</ele>
        <time>2022-03-22T16:23:28Z</time>
      </trkpt>
      <trkpt lat="44.73488" lon="4.34707">
        <ele>528.88</ele>
        <time>2022-03-22T16:23:30Z</time>
      </trkpt>
      <trkpt lat="44.73441" lon="4.34756">
        <ele>519.93</ele>
        <time>2022-03-22T16:23:31Z</time>
      </trkpt>
      <trkpt lat="44.7341" lon="4.34775">
        <ele>520.22</ele>
        <time>2022-03-22T16:23:33Z</time>
      </trkpt>
      <trkpt lat="44.73394" lon="4.3478">
        <ele>517.47</ele>
        <time>2022-03-22T16:23:35Z</time>
      </trkpt>
      <trkpt lat="44.73358" lon="4.348">
        <ele>514.57</ele>
        <time>2022-03-22T16:23:37Z</time>
      </trkpt>
      <trkpt lat="44.73295" lon="4.34847">
        <ele>513.14</ele>
        <time>2022-03-22T16:23:39Z</time>
      </trkpt>
      <trkpt lat="44.73271" lon="4.34861">
        <ele>511.23</ele>
        <time>2022-03-22T16:23:40Z</time>
      </trkpt>
      <trkpt lat="44.73258" lon="4.34867">
        <ele>508.79</ele>
        <time>2022-03-22T16:23:42Z</time>
      </trkpt>
      <trkpt lat="44.73249" lon="4.34877">
        <ele>508.14</ele>
        <time>2022-03-22T16:23:44Z</time>
      </trkpt>
      <trkpt lat="44.73207" lon="4.34936">
        <ele>506.85</ele>
        <time>2022-03-22T16:23:46Z</time>
      </trkpt>
      <trkpt lat="44.73196" lon="4.34952">
        <ele>504.61</ele>
        <time>2022-03-22T16:23:48Z</time>
      </trkpt>
      <trkpt lat="44.73189" lon="4.34967">
        <ele>503.86</ele>
        <time>2022-03-22T16:23:50Z</time>
      </trkpt>
      <trkpt lat="44.73184" lon="4.34985">
        <ele>503.67</ele>
        <time>2022-03-22T16:23:51Z</time>
      </trkpt>
      <trkpt lat="44.73184" lon="4.3501">
        <ele>503.96</ele>
        <time>2022-03-22T16:23:53Z</time>
      </trkpt>
      <trkpt lat="44.7319" lon="4.35045">
        <ele>502.23</ele>
        <time>2022-03-22T16:23:55Z</time>
      </trkpt>
      <trkpt lat="44.73193" lon="4.35073">
        <ele>500.99</ele>
        <time>2022-03-22T16:23:57Z</time>
      </trkpt>
      <trkpt lat="44.73193" lon="4.35097">
        <ele>500.58</ele>
        <time>2022-03-22T16:23:59Z</time>
      </trkpt>
      <trkpt lat="44.73188" lon="4.3513">
        <ele>502.61</ele>
        <time>2022-03-22T16:24:00Z</time>
      </trkpt>
      <trkpt lat="44.73181" lon="4.35154">
        <ele>505.3</ele>
        <time>2022-03-22T16:24:02Z</time>
      </trkpt>
      <trkpt lat="44.7317" lon="4.35178">
        <ele>508.82</ele>
        <time>2022-03-22T16:24:04Z</time>
      </trkpt>
      <trkpt lat="44.73161" lon="4.35195">
        <ele>511.01</ele>
        <time>2022-03-22T16:24:06Z</time>
      </trkpt>
      <trkpt lat="44.73136" lon="4.35217">
        <ele>512.36</ele>
        <time>2022-03-22T16:24:08Z</time>
      </trkpt>
      <trkpt lat="44.73124" lon="4.35217">
        <ele>511.47</ele>
        <time>2022-03-22T16:24:10Z</time>
      </trkpt>
      <trkpt lat="44.73111" lon="4.35213">
        <ele>508.99</ele>
        <time>2022-03-22T16:24:11Z</time>
      </trkpt>
      <trkpt lat="44.73096" lon="4.35204">
        <ele>508.07</ele>
        <time>2022-03-22T16:24:13Z</time>
      </trkpt>
      <trkpt lat="44.73089" lon="4.35193">
        <ele>505.23</ele>
        <time>2022-03-22T16:24:15Z</time>
      </trkpt>
      <trkpt lat="44.73085" lon="4.35176">
        <ele>501.92</ele>
        <time>2022-03-22T16:24:17Z</time>
      </trkpt>
      <trkpt lat="44.73078" lon="4.35162">
        <ele>501.24</ele>
        <time>2022-03-22T16:24:19Z</time>
      </trkpt>
      <trkpt lat="44.7307" lon="4.35154">
        <ele>502.2</ele>
        <time>2022-03-22T16:24:20Z</time>
      </trkpt>
      <trkpt lat="44.73048" lon="4.35153">
        <ele>505.33</ele>
        <time>2022-03-22T16:24:22Z</time>
      </trkpt>
      <trkpt lat="44.73028" lon="4.35147">
        <ele>502.62</ele>
        <time>2022-03-22T16:24:24Z</time>
      </trkpt>
      <trkpt lat="44.73009" lon="4.35133">
        <ele>504.93</ele>
        <time>2022-03-22T16:24:26Z</time>
      </trkpt>
      <trkpt lat="44.72989" lon="4.35109">
        <ele>498.4</ele>
        <time>2022-03-22T16:24:28Z</time>
      </trkpt>
      <trkpt lat="44.72981" lon="4.35097">
        <ele>497.59</ele>
        <time>2022-03-22T16:24:30Z</time>
      </trkpt>
      <trkpt lat="44.72964" lon="4.35059">
        <ele>496.32</ele>
        <time>2022-03-22T16:24:31Z</time>
      </trkpt>
      <trkpt lat="44.72957" lon="4.35041">
        <ele>499.19</ele>
        <time>2022-03-22T16:24:33Z</time>
      </trkpt>
      <trkpt lat="44.72955" lon="4.3503">
        <ele>500.22</ele>
        <time>2022-03-22T16:24:35Z</time>
      </trkpt>
      <trkpt lat="44.72965" lon="4.34937">
        <ele>486.42</ele>
        <time>2022-03-22T16:24:37Z</time>
      </trkpt>
      <trkpt lat="44.72965" lon="4.34904">
        <ele>483.74</ele>
        <time>2022-03-22T16:24:39Z</time>
      </trkpt>
      <trkpt lat="44.72963" lon="4.34889">
        <ele>482.2</ele>
        <time>2022-03-22T16:24:40Z</time>
      </trkpt>
      <trkpt lat="44.72923" lon="4.34811">
        <ele>475.42</ele>
        <time>2022-03-22T16:24:42Z</time>
      </trkpt>
      <trkpt lat="44.72916" lon="4.34805">
        <ele>474.8</ele>
        <time>2022-03-22T16:24:44Z</time>
      </trkpt>
      <trkpt lat="44.72883" lon="4.34794">
        <ele>469.95</ele>
        <time>2022-03-22T16:24:46Z</time>
      </trkpt>
      <trkpt lat="44.72876" lon="4.34796">
        <ele>470.63</ele>
        <time>2022-03-22T16:24:48Z</time>
      </trkpt>
      <trkpt lat="44.72842" lon="4.34826">
        <ele>482.99</ele>
        <time>2022-03-22T16:24:50Z</time>
      </trkpt>
      <trkpt lat="44.72836" lon="4.34829">
        <ele>483.32</ele>
        <time>2022-03-22T16:24:51Z</time>
      </trkpt>
      <trkpt lat="44.7283" lon="4.3483">
        <ele>482.77</ele>
        <time>2022-03-22T16:24:53Z</time>
      </trkpt>
      <trkpt lat="44.72804" lon="4.34829">
        <ele>477.22</ele>
        <time>2022-03-22T16:24:55Z</time>
      </trkpt>
      <trkpt lat="44.72794" lon="4.34824">
        <ele>473.22</ele>
        <time>2022-03-22T16:24:57Z</time>
      </trkpt>
      <trkpt lat="44.72787" lon="4.34816">
        <ele>467.6</ele>
        <time>2022-03-22T16:24:59Z</time>
      </trkpt>
      <trkpt lat="44.72776" lon="4.34793">
        <ele>457.94</ele>
        <time>2022-03-22T16:25:00Z</time>
      </trkpt>
      <trkpt lat="44.72769" lon="4.34786">
        <ele>456.79</ele>
        <time>2022-03-22T16:25:02Z</time>
      </trkpt>
      <trkpt lat="44.72761" lon="4.34785">
        <ele>456.7</ele>
        <time>2022-03-22T16:25:04Z</time>
      </trkpt>
      <trkpt lat="44.72747" lon="4.34792">
        <ele>459.59</ele>
        <time>2022-03-22T16:25:06Z</time>
      </trkpt>
      <trkpt lat="44.72687" lon="4.34852">
        <ele>478.67</ele>
        <time>2022-03-22T16:25:08Z</time>
      </trkpt>
      <trkpt lat="44.72673" lon="4.34855">
        <ele>476.86</ele>
        <time>2022-03-22T16:25:09Z</time>
      </trkpt>
      <trkpt lat="44.72658" lon="4.34855">
        <ele>474.68</ele>
        <time>2022-03-22T16:25:11Z</time>
      </trkpt>
      <trkpt lat="44.72639" lon="4.34849">
        <ele>470.73</ele>
        <time>2022-03-22T16:25:13Z</time>
      </trkpt>
      <trkpt lat="44.72589" lon="4.34849">
        <ele>463.89</ele>
        <time>2022-03-22T16:25:15Z</time>
      </trkpt>
      <trkpt lat="44.72577" lon="4.34845">
        <ele>460.42</ele>
        <time>2022-03-22T16:25:17Z</time>
      </trkpt>
      <trkpt lat="44.7254" lon="4.3482">
        <ele>452.93</ele>
        <time>2022-03-22T16:25:19Z</time>
      </trkpt>
      <trkpt lat="44.72522" lon="4.34817">
        <ele>452.11</ele>
        <time>2022-03-22T16:25:20Z</time>
      </trkpt>
      <trkpt lat="44.72503" lon="4.3482">
        <ele>451.32</ele>
        <time>2022-03-22T16:25:22Z</time>
      </trkpt>
      <trkpt lat="44.7247" lon="4.34834">
        <ele>449.5</ele>
        <time>2022-03-22T16:25:24Z</time>
      </trkpt>
      <trkpt lat="44.72441" lon="4.34851">
        <ele>447.4</ele>
        <time>2022-03-22T16:25:26Z</time>
      </trkpt>
      <trkpt lat="44.72328" lon="4.34949">
        <ele>437.88</ele>
        <time>2022-03-22T16:25:28Z</time>
      </trkpt>
      <trkpt lat="44.72309" lon="4.3497">
        <ele>437.59</ele>
        <time>2022-03-22T16:25:29Z</time>
      </trkpt>
      <trkpt lat="44.72299" lon="4.34988">
        <ele>438.85</ele>
        <time>2022-03-22T16:25:31Z</time>
      </trkpt>
      <trkpt lat="44.7229" lon="4.34998">
        <ele>438.68</ele>
        <time>2022-03-22T16:25:33Z</time>
      </trkpt>
      <trkpt lat="44.72253" lon="4.35018">
        <ele>435.66</ele>
        <time>2022-03-22T16:25:35Z</time>
      </trkpt>
      <trkpt lat="44.72222" lon="4.35037">
        <ele>435.95</ele>
        <time>2022-03-22T16:25:37Z</time>
      </trkpt>
      <trkpt lat="44.72185" lon="4.35069">
        <ele>434.82</ele>
        <time>2022-03-22T16:25:39Z</time>
      </trkpt>
      <trkpt lat="44.72158" lon="4.35095">
        <ele>436.56</ele>
        <time>2022-03-22T16:25:40Z</time>
      </trkpt>
      <trkpt lat="44.72144" lon="4.35105">
        <ele>437.85</ele>
        <time>2022-03-22T16:25:42Z</time>
      </trkpt>
      <trkpt lat="44.7212" lon="4.35115">
        <ele>436.02</ele>
        <time>2022-03-22T16:25:44Z</time>
      </trkpt>
      <trkpt lat="44.72079" lon="4.35127">
        <ele>429.95</ele>
        <time>2022-03-22T16:25:46Z</time>
      </trkpt>
      <trkpt lat="44.72031" lon="4.35146">
        <ele>426.26</ele>
        <time>2022-03-22T16:25:48Z</time>
      </trkpt>
      <trkpt lat="44.72022" lon="4.35108">
        <ele>426.36</ele>
        <time>2022-03-22T16:25:50Z</time>
      </trkpt>
      <trkpt lat="44.7202" lon="4.35094">
        <ele>428.54</ele>
        <time>2022-03-22T16:25:52Z</time>
      </trkpt>
      <trkpt lat="44.72024" lon="4.35088">
        <ele>428.52</ele>
        <time>2022-03-22T16:25:54Z</time>
      </trkpt>
      <trkpt lat="44.72065" lon="4.35065">
        <ele>430.7</ele>
        <time>2022-03-22T16:25:55Z</time>
      </trkpt>
      <trkpt lat="44.72094" lon="4.35032">
        <ele>434.35</ele>
        <time>2022-03-22T16:25:57Z</time>
      </trkpt>
      <trkpt lat="44.7213" lon="4.35005">
        <ele>434.4</ele>
        <time>2022-03-22T16:25:59Z</time>
      </trkpt>
      <trkpt lat="44.72164" lon="4.34951">
        <ele>441.94</ele>
        <time>2022-03-22T16:26:01Z</time>
      </trkpt>
      <trkpt lat="44.72206" lon="4.34869">
        <ele>447.34</ele>
        <time>2022-03-22T16:26:03Z</time>
      </trkpt>
      <trkpt lat="44.72214" lon="4.34849">
        <ele>450.3</ele>
        <time>2022-03-22T16:26:05Z</time>
      </trkpt>
      <trkpt lat="44.72223" lon="4.34835">
        <ele>452.4</ele>
        <time>2022-03-22T16:26:07Z</time>
      </trkpt>
      <trkpt lat="44.72274" lon="4.34791">
        <ele>452.84</ele>
        <time>2022-03-22T16:26:09Z</time>
      </trkpt>
      <trkpt lat="44.72323" lon="4.34775">
        <ele>449.98</ele>
        <time>2022-03-22T16:26:11Z</time>
      </trkpt>
      <trkpt lat="44.72359" lon="4.34748">
        <ele>453.89</ele>
        <time>2022-03-22T16:26:13Z</time>
      </trkpt>
      <trkpt lat="44.72373" lon="4.34739">
        <ele>454.28</ele>
        <time>2022-03-22T16:26:15Z</time>
      </trkpt>
      <trkpt lat="44.72387" lon="4.34736">
        <ele>452.76</ele>
        <time>2022-03-22T16:26:17Z</time>
      </trkpt>
      <trkpt lat="44.72393" lon="4.34733">
        <ele>452.92</ele>
        <time>2022-03-22T16:26:19Z</time>
      </trkpt>
      <trkpt lat="44.72399" lon="4.34723">
        <ele>454.45</ele>
        <time>2022-03-22T16:26:21Z</time>
      </trkpt>
      <trkpt lat="44.72398" lon="4.34706">
        <ele>457.51</ele>
        <time>2022-03-22T16:26:23Z</time>
      </trkpt>
      <trkpt lat="44.72394" lon="4.34699">
        <ele>459</ele>
        <time>2022-03-22T16:26:25Z</time>
      </trkpt>
      <trkpt lat="44.72388" lon="4.34695">
        <ele>460.05</ele>
        <time>2022-03-22T16:26:27Z</time>
      </trkpt>
      <trkpt lat="44.72383" lon="4.34695">
        <ele>461.11</ele>
        <time>2022-03-22T16:26:28Z</time>
      </trkpt>
      <trkpt lat="44.72377" lon="4.34699">
        <ele>461.73</ele>
        <time>2022-03-22T16:26:30Z</time>
      </trkpt>
      <trkpt lat="44.72368" lon="4.34711">
        <ele>461.56</ele>
        <time>2022-03-22T16:26:32Z</time>
      </trkpt>
      <trkpt lat="44.72361" lon="4.34716">
        <ele>462.11</ele>
        <time>2022-03-22T16:26:34Z</time>
      </trkpt>
      <trkpt lat="44.72352" lon="4.3472">
        <ele>462.45</ele>
        <time>2022-03-22T16:26:36Z</time>
      </trkpt>
      <trkpt lat="44.7231" lon="4.34723">
        <ele>466.46</ele>
        <time>2022-03-22T16:26:38Z</time>
      </trkpt>
      <trkpt lat="44.72289" lon="4.3473">
        <ele>468.3</ele>
        <time>2022-03-22T16:26:40Z</time>
      </trkpt>
      <trkpt lat="44.72255" lon="4.34762">
        <ele>467</ele>
        <time>2022-03-22T16:26:42Z</time>
      </trkpt>
      <trkpt lat="44.72236" lon="4.34776">
        <ele>468.88</ele>
        <time>2022-03-22T16:26:44Z</time>
      </trkpt>
      <trkpt lat="44.72209" lon="4.34788">
        <ele>472.06</ele>
        <time>2022-03-22T16:26:46Z</time>
      </trkpt>
      <trkpt lat="44.72155" lon="4.34802">
        <ele>481.1</ele>
        <time>2022-03-22T16:26:48Z</time>
      </trkpt>
      <trkpt lat="44.72125" lon="4.34822">
        <ele>482.2</ele>
        <time>2022-03-22T16:26:50Z</time>
      </trkpt>
      <trkpt lat="44.72084" lon="4.34855">
        <ele>482.11</ele>
        <time>2022-03-22T16:26:52Z</time>
      </trkpt>
      <trkpt lat="44.72039" lon="4.34882">
        <ele>483.44</ele>
        <time>2022-03-22T16:26:54Z</time>
      </trkpt>
      <trkpt lat="44.71988" lon="4.34904">
        <ele>489.03</ele>
        <time>2022-03-22T16:26:56Z</time>
      </trkpt>
      <trkpt lat="44.7196" lon="4.34918">
        <ele>490.73</ele>
        <time>2022-03-22T16:26:58Z</time>
      </trkpt>
      <trkpt lat="44.71922" lon="4.34944">
        <ele>492.13</ele>
        <time>2022-03-22T16:27:00Z</time>
      </trkpt>
      <trkpt lat="44.71914" lon="4.34942">
        <ele>493.21</ele>
        <time>2022-03-22T16:27:01Z</time>
      </trkpt>
      <trkpt lat="44.7191" lon="4.34938">
        <ele>493.76</ele>
        <time>2022-03-22T16:27:03Z</time>
      </trkpt>
      <trkpt lat="44.71903" lon="4.34924">
        <ele>495.71</ele>
        <time>2022-03-22T16:27:05Z</time>
      </trkpt>
      <trkpt lat="44.71894" lon="4.34892">
        <ele>500.99</ele>
        <time>2022-03-22T16:27:07Z</time>
      </trkpt>
      <trkpt lat="44.71884" lon="4.34862">
        <ele>502.88</ele>
        <time>2022-03-22T16:27:09Z</time>
      </trkpt>
      <trkpt lat="44.71868" lon="4.34827">
        <ele>504.91</ele>
        <time>2022-03-22T16:27:11Z</time>
      </trkpt>
      <trkpt lat="44.7184" lon="4.34775">
        <ele>507.29</ele>
        <time>2022-03-22T16:27:13Z</time>
      </trkpt>
      <trkpt lat="44.71821" lon="4.34735">
        <ele>508.02</ele>
        <time>2022-03-22T16:27:15Z</time>
      </trkpt>
      <trkpt lat="44.71809" lon="4.34698">
        <ele>510.36</ele>
        <time>2022-03-22T16:27:17Z</time>
      </trkpt>
      <trkpt lat="44.71788" lon="4.34592">
        <ele>517.32</ele>
        <time>2022-03-22T16:27:19Z</time>
      </trkpt>
      <trkpt lat="44.71786" lon="4.34572">
        <ele>517.84</ele>
        <time>2022-03-22T16:27:21Z</time>
      </trkpt>
      <trkpt lat="44.71787" lon="4.34551">
        <ele>519.69</ele>
        <time>2022-03-22T16:27:23Z</time>
      </trkpt>
      <trkpt lat="44.71791" lon="4.34523">
        <ele>524</ele>
        <time>2022-03-22T16:27:25Z</time>
      </trkpt>
      <trkpt lat="44.7179" lon="4.34506">
        <ele>524.35</ele>
        <time>2022-03-22T16:27:27Z</time>
      </trkpt>
      <trkpt lat="44.7178" lon="4.34484">
        <ele>521.39</ele>
        <time>2022-03-22T16:27:29Z</time>
      </trkpt>
      <trkpt lat="44.71765" lon="4.34457">
        <ele>521.3</ele>
        <time>2022-03-22T16:27:31Z</time>
      </trkpt>
      <trkpt lat="44.71725" lon="4.34373">
        <ele>530.83</ele>
        <time>2022-03-22T16:27:33Z</time>
      </trkpt>
      <trkpt lat="44.71718" lon="4.34351">
        <ele>532.21</ele>
        <time>2022-03-22T16:27:35Z</time>
      </trkpt>
      <trkpt lat="44.71699" lon="4.34233">
        <ele>536.57</ele>
        <time>2022-03-22T16:27:36Z</time>
      </trkpt>
      <trkpt lat="44.71697" lon="4.34207">
        <ele>538.57</ele>
        <time>2022-03-22T16:27:38Z</time>
      </trkpt>
      <trkpt lat="44.71698" lon="4.34192">
        <ele>540.34</ele>
        <time>2022-03-22T16:27:40Z</time>
      </trkpt>
      <trkpt lat="44.71711" lon="4.34153">
        <ele>548.06</ele>
        <time>2022-03-22T16:27:42Z</time>
      </trkpt>
      <trkpt lat="44.71712" lon="4.34136">
        <ele>549.22</ele>
        <time>2022-03-22T16:27:44Z</time>
      </trkpt>
      <trkpt lat="44.7171" lon="4.34126">
        <ele>548.85</ele>
        <time>2022-03-22T16:27:46Z</time>
      </trkpt>
      <trkpt lat="44.71705" lon="4.34117">
        <ele>547.69</ele>
        <time>2022-03-22T16:27:48Z</time>
      </trkpt>
      <trkpt lat="44.7164" lon="4.34062">
        <ele>542.25</ele>
        <time>2022-03-22T16:27:50Z</time>
      </trkpt>
      <trkpt lat="44.71628" lon="4.34048">
        <ele>543</ele>
        <time>2022-03-22T16:27:52Z</time>
      </trkpt>
      <trkpt lat="44.71622" lon="4.34034">
        <ele>544.31</ele>
        <time>2022-03-22T16:27:54Z</time>
      </trkpt>
      <trkpt lat="44.71614" lon="4.34006">
        <ele>545.99</ele>
        <time>2022-03-22T16:27:56Z</time>
      </trkpt>
      <trkpt lat="44.71611" lon="4.3399">
        <ele>547.11</ele>
        <time>2022-03-22T16:27:58Z</time>
      </trkpt>
      <trkpt lat="44.71615" lon="4.33944">
        <ele>554.21</ele>
        <time>2022-03-22T16:28:00Z</time>
      </trkpt>
      <trkpt lat="44.71614" lon="4.3393">
        <ele>557.08</ele>
        <time>2022-03-22T16:28:02Z</time>
      </trkpt>
      <trkpt lat="44.71606" lon="4.33889">
        <ele>561.79</ele>
        <time>2022-03-22T16:28:04Z</time>
      </trkpt>
      <trkpt lat="44.71605" lon="4.3381">
        <ele>567.76</ele>
        <time>2022-03-22T16:28:06Z</time>
      </trkpt>
      <trkpt lat="44.71603" lon="4.33785">
        <ele>569.03</ele>
        <time>2022-03-22T16:28:08Z</time>
      </trkpt>
      <trkpt lat="44.71599" lon="4.33768">
        <ele>570.44</ele>
        <time>2022-03-22T16:28:09Z</time>
      </trkpt>
      <trkpt lat="44.7159" lon="4.33756">
        <ele>572.08</ele>
        <time>2022-03-22T16:28:11Z</time>
      </trkpt>
      <trkpt lat="44.71573" lon="4.33743">
        <ele>573.81</ele>
        <time>2022-03-22T16:28:13Z</time>
      </trkpt>
      <trkpt lat="44.71563" lon="4.3373">
        <ele>575.35</ele>
        <time>2022-03-22T16:28:15Z</time>
      </trkpt>
      <trkpt lat="44.71539" lon="4.33692">
        <ele>577.63</ele>
        <time>2022-03-22T16:28:17Z</time>
      </trkpt>
      <trkpt lat="44.715" lon="4.33638">
        <ele>583.18</ele>
        <time>2022-03-22T16:28:19Z</time>
      </trkpt>
      <trkpt lat="44.71494" lon="4.33623">
        <ele>585.22</ele>
        <time>2022-03-22T16:28:21Z</time>
      </trkpt>
      <trkpt lat="44.71483" lon="4.33583">
        <ele>588.28</ele>
        <time>2022-03-22T16:28:23Z</time>
      </trkpt>
      <trkpt lat="44.71449" lon="4.33418">
        <ele>592.6</ele>
        <time>2022-03-22T16:28:25Z</time>
      </trkpt>
      <trkpt lat="44.71445" lon="4.33409">
        <ele>592.13</ele>
        <time>2022-03-22T16:28:27Z</time>
      </trkpt>
      <trkpt lat="44.71439" lon="4.334">
        <ele>592.29</ele>
        <time>2022-03-22T16:28:29Z</time>
      </trkpt>
      <trkpt lat="44.71423" lon="4.33396">
        <ele>593.36</ele>
        <time>2022-03-22T16:28:31Z</time>
      </trkpt>
      <trkpt lat="44.71398" lon="4.33425">
        <ele>595.28</ele>
        <time>2022-03-22T16:28:33Z</time>
      </trkpt>
      <trkpt lat="44.71371" lon="4.33439">
        <ele>600.53</ele>
        <time>2022-03-22T16:28:35Z</time>
      </trkpt>
      <trkpt lat="44.71365" lon="4.33448">
        <ele>601.95</ele>
        <time>2022-03-22T16:28:37Z</time>
      </trkpt>
      <trkpt lat="44.71365" lon="4.3346">
        <ele>601.87</ele>
        <time>2022-03-22T16:28:39Z</time>
      </trkpt>
      <trkpt lat="44.71369" lon="4.33474">
        <ele>600.8</ele>
        <time>2022-03-22T16:28:41Z</time>
      </trkpt>
      <trkpt lat="44.71371" lon="4.33494">
        <ele>601.53</ele>
        <time>2022-03-22T16:28:42Z</time>
      </trkpt>
      <trkpt lat="44.71368" lon="4.33538">
        <ele>603.72</ele>
        <time>2022-03-22T16:28:44Z</time>
      </trkpt>
      <trkpt lat="44.71356" lon="4.33575">
        <ele>606.46</ele>
        <time>2022-03-22T16:28:46Z</time>
      </trkpt>
      <trkpt lat="44.7135" lon="4.33585">
        <ele>608.63</ele>
        <time>2022-03-22T16:28:48Z</time>
      </trkpt>
      <trkpt lat="44.71345" lon="4.33588">
        <ele>610.85</ele>
        <time>2022-03-22T16:28:50Z</time>
      </trkpt>
      <trkpt lat="44.71342" lon="4.33581">
        <ele>612.32</ele>
        <time>2022-03-22T16:28:52Z</time>
      </trkpt>
      <trkpt lat="44.71342" lon="4.33571">
        <ele>612.28</ele>
        <time>2022-03-22T16:28:54Z</time>
      </trkpt>
      <trkpt lat="44.7135" lon="4.33548">
        <ele>608.68</ele>
        <time>2022-03-22T16:28:56Z</time>
      </trkpt>
      <trkpt lat="44.71351" lon="4.33536">
        <ele>608.18</ele>
        <time>2022-03-22T16:28:58Z</time>
      </trkpt>
      <trkpt lat="44.71343" lon="4.335">
        <ele>609.3</ele>
        <time>2022-03-22T16:29:00Z</time>
      </trkpt>
      <trkpt lat="44.71331" lon="4.33467">
        <ele>611.83</ele>
        <time>2022-03-22T16:29:02Z</time>
      </trkpt>
      <trkpt lat="44.71315" lon="4.33452">
        <ele>618.84</ele>
        <time>2022-03-22T16:29:04Z</time>
      </trkpt>
      <trkpt lat="44.71312" lon="4.33447">
        <ele>620.03</ele>
        <time>2022-03-22T16:29:06Z</time>
      </trkpt>
      <trkpt lat="44.71307" lon="4.33413">
        <ele>621.37</ele>
        <time>2022-03-22T16:29:08Z</time>
      </trkpt>
      <trkpt lat="44.71303" lon="4.33403">
        <ele>622.36</ele>
        <time>2022-03-22T16:29:10Z</time>
      </trkpt>
      <trkpt lat="44.71294" lon="4.33391">
        <ele>625.13</ele>
        <time>2022-03-22T16:29:12Z</time>
      </trkpt>
      <trkpt lat="44.71292" lon="4.33385">
        <ele>625.74</ele>
        <time>2022-03-22T16:29:14Z</time>
      </trkpt>
      <trkpt lat="44.71295" lon="4.33308">
        <ele>629.1</ele>
        <time>2022-03-22T16:29:15Z</time>
      </trkpt>
      <trkpt lat="44.71299" lon="4.33298">
        <ele>629.6</ele>
        <time>2022-03-22T16:29:17Z</time>
      </trkpt>
      <trkpt lat="44.71303" lon="4.33293">
        <ele>628.94</ele>
        <time>2022-03-22T16:29:19Z</time>
      </trkpt>
      <trkpt lat="44.71309" lon="4.33293">
        <ele>627.9</ele>
        <time>2022-03-22T16:29:21Z</time>
      </trkpt>
      <trkpt lat="44.71325" lon="4.333">
        <ele>624.29</ele>
        <time>2022-03-22T16:29:23Z</time>
      </trkpt>
      <trkpt lat="44.71339" lon="4.33298">
        <ele>622.66</ele>
        <time>2022-03-22T16:29:25Z</time>
      </trkpt>
      <trkpt lat="44.71349" lon="4.33292">
        <ele>622.36</ele>
        <time>2022-03-22T16:29:27Z</time>
      </trkpt>
      <trkpt lat="44.71355" lon="4.33284">
        <ele>622.98</ele>
        <time>2022-03-22T16:29:29Z</time>
      </trkpt>
      <trkpt lat="44.71362" lon="4.33265">
        <ele>624.52</ele>
        <time>2022-03-22T16:29:31Z</time>
      </trkpt>
      <trkpt lat="44.71363" lon="4.33243">
        <ele>627.02</ele>
        <time>2022-03-22T16:29:33Z</time>
      </trkpt>
      <trkpt lat="44.71361" lon="4.33181">
        <ele>636.84</ele>
        <time>2022-03-22T16:29:35Z</time>
      </trkpt>
      <trkpt lat="44.71366" lon="4.33156">
        <ele>639.04</ele>
        <time>2022-03-22T16:29:37Z</time>
      </trkpt>
      <trkpt lat="44.71373" lon="4.33133">
        <ele>638.16</ele>
        <time>2022-03-22T16:29:39Z</time>
      </trkpt>
      <trkpt lat="44.71374" lon="4.33105">
        <ele>639.3</ele>
        <time>2022-03-22T16:29:41Z</time>
      </trkpt>
      <trkpt lat="44.7138" lon="4.33082">
        <ele>638.28</ele>
        <time>2022-03-22T16:29:43Z</time>
      </trkpt>
      <trkpt lat="44.71383" lon="4.33054">
        <ele>640.1</ele>
        <time>2022-03-22T16:29:45Z</time>
      </trkpt>
      <trkpt lat="44.71403" lon="4.3301">
        <ele>641.46</ele>
        <time>2022-03-22T16:29:47Z</time>
      </trkpt>
      <trkpt lat="44.71384" lon="4.3298">
        <ele>640.41</ele>
        <time>2022-03-22T16:29:49Z</time>
      </trkpt>
      <trkpt lat="44.7137" lon="4.32971">
        <ele>639.18</ele>
        <time>2022-03-22T16:29:51Z</time>
      </trkpt>
      <trkpt lat="44.71362" lon="4.32971">
        <ele>638.78</ele>
        <time>2022-03-22T16:29:53Z</time>
      </trkpt>
      <trkpt lat="44.71344" lon="4.32982">
        <ele>639.65</ele>
        <time>2022-03-22T16:29:55Z</time>
      </trkpt>
      <trkpt lat="44.71334" lon="4.32986">
        <ele>639.98</ele>
        <time>2022-03-22T16:29:57Z</time>
      </trkpt>
      <trkpt lat="44.71324" lon="4.32983">
        <ele>641.87</ele>
        <time>2022-03-22T16:29:59Z</time>
      </trkpt>
      <trkpt lat="44.71315" lon="4.32975">
        <ele>643.08</ele>
        <time>2022-03-22T16:30:01Z</time>
      </trkpt>
      <trkpt lat="44.71308" lon="4.32963">
        <ele>643.41</ele>
        <time>2022-03-22T16:30:03Z</time>
      </trkpt>
      <trkpt lat="44.71306" lon="4.32945">
        <ele>641.92</ele>
        <time>2022-03-22T16:30:05Z</time>
      </trkpt>
      <trkpt lat="44.71312" lon="4.32898">
        <ele>635.22</ele>
        <time>2022-03-22T16:30:07Z</time>
      </trkpt>
      <trkpt lat="44.71311" lon="4.32877">
        <ele>633.5</ele>
        <time>2022-03-22T16:30:09Z</time>
      </trkpt>
      <trkpt lat="44.713" lon="4.32806">
        <ele>633.47</ele>
        <time>2022-03-22T16:30:11Z</time>
      </trkpt>
      <trkpt lat="44.71298" lon="4.32746">
        <ele>628.08</ele>
        <time>2022-03-22T16:30:13Z</time>
      </trkpt>
      <trkpt lat="44.71294" lon="4.32719">
        <ele>626.57</ele>
        <time>2022-03-22T16:30:14Z</time>
      </trkpt>
      <trkpt lat="44.71288" lon="4.32698">
        <ele>626.2</ele>
        <time>2022-03-22T16:30:16Z</time>
      </trkpt>
      <trkpt lat="44.71277" lon="4.32677">
        <ele>627.58</ele>
        <time>2022-03-22T16:30:18Z</time>
      </trkpt>
      <trkpt lat="44.7126" lon="4.32664">
        <ele>625.12</ele>
        <time>2022-03-22T16:30:20Z</time>
      </trkpt>
      <trkpt lat="44.71212" lon="4.32651">
        <ele>626.44</ele>
        <time>2022-03-22T16:30:22Z</time>
      </trkpt>
      <trkpt lat="44.71195" lon="4.32635">
        <ele>626.53</ele>
        <time>2022-03-22T16:30:24Z</time>
      </trkpt>
      <trkpt lat="44.71155" lon="4.32543">
        <ele>620.04</ele>
        <time>2022-03-22T16:30:26Z</time>
      </trkpt>
      <trkpt lat="44.71146" lon="4.32491">
        <ele>610.83</ele>
        <time>2022-03-22T16:30:28Z</time>
      </trkpt>
      <trkpt lat="44.71142" lon="4.32458">
        <ele>606.55</ele>
        <time>2022-03-22T16:30:30Z</time>
      </trkpt>
      <trkpt lat="44.71137" lon="4.32447">
        <ele>605.08</ele>
        <time>2022-03-22T16:30:32Z</time>
      </trkpt>
      <trkpt lat="44.71127" lon="4.32444">
        <ele>603.12</ele>
        <time>2022-03-22T16:30:34Z</time>
      </trkpt>
      <trkpt lat="44.71105" lon="4.32447">
        <ele>600.78</ele>
        <time>2022-03-22T16:30:36Z</time>
      </trkpt>
      <trkpt lat="44.7106" lon="4.32464">
        <ele>599.97</ele>
        <time>2022-03-22T16:30:38Z</time>
      </trkpt>
      <trkpt lat="44.70996" lon="4.3247">
        <ele>588.83</ele>
        <time>2022-03-22T16:30:40Z</time>
      </trkpt>
      <trkpt lat="44.70985" lon="4.32475">
        <ele>588.58</ele>
        <time>2022-03-22T16:30:42Z</time>
      </trkpt>
      <trkpt lat="44.70935" lon="4.32532">
        <ele>581.99</ele>
        <time>2022-03-22T16:30:44Z</time>
      </trkpt>
      <trkpt lat="44.70933" lon="4.32545">
        <ele>582.7</ele>
        <time>2022-03-22T16:30:46Z</time>
      </trkpt>
      <trkpt lat="44.70932" lon="4.32595">
        <ele>587.15</ele>
        <time>2022-03-22T16:30:48Z</time>
      </trkpt>
      <trkpt lat="44.70921" lon="4.32631">
        <ele>585.81</ele>
        <time>2022-03-22T16:30:50Z</time>
      </trkpt>
      <trkpt lat="44.70921" lon="4.32648">
        <ele>588.51</ele>
        <time>2022-03-22T16:30:52Z</time>
      </trkpt>
      <trkpt lat="44.70919" lon="4.32665">
        <ele>590.51</ele>
        <time>2022-03-22T16:30:54Z</time>
      </trkpt>
      <trkpt lat="44.70895" lon="4.32697">
        <ele>582.38</ele>
        <time>2022-03-22T16:30:56Z</time>
      </trkpt>
      <trkpt lat="44.70871" lon="4.32757">
        <ele>583.83</ele>
        <time>2022-03-22T16:30:58Z</time>
      </trkpt>
      <trkpt lat="44.7081" lon="4.32814">
        <ele>566.37</ele>
        <time>2022-03-22T16:31:00Z</time>
      </trkpt>
      <trkpt lat="44.7079" lon="4.3286">
        <ele>568.5</ele>
        <time>2022-03-22T16:31:02Z</time>
      </trkpt>
      <trkpt lat="44.70736" lon="4.32932">
        <ele>584.72</ele>
        <time>2022-03-22T16:31:04Z</time>
      </trkpt>
      <trkpt lat="44.70727" lon="4.32933">
        <ele>584.82</ele>
        <time>2022-03-22T16:31:06Z</time>
      </trkpt>
      <trkpt lat="44.70722" lon="4.32926">
        <ele>584.08</ele>
        <time>2022-03-22T16:31:08Z</time>
      </trkpt>
      <trkpt lat="44.70723" lon="4.32917">
        <ele>583.01</ele>
        <time>2022-03-22T16:31:10Z</time>
      </trkpt>
      <trkpt lat="44.70734" lon="4.32907">
        <ele>580.34</ele>
        <time>2022-03-22T16:31:12Z</time>
      </trkpt>
      <trkpt lat="44.70759" lon="4.32865">
        <ele>563.38</ele>
        <time>2022-03-22T16:31:14Z</time>
      </trkpt>
      <trkpt lat="44.70779" lon="4.32818">
        <ele>556.33</ele>
        <time>2022-03-22T16:31:16Z</time>
      </trkpt>
      <trkpt lat="44.70798" lon="4.32751">
        <ele>549.77</ele>
        <time>2022-03-22T16:31:18Z</time>
      </trkpt>
      <trkpt lat="44.70816" lon="4.32728">
        <ele>550.81</ele>
        <time>2022-03-22T16:31:20Z</time>
      </trkpt>
      <trkpt lat="44.70819" lon="4.32719">
        <ele>550.6</ele>
        <time>2022-03-22T16:31:22Z</time>
      </trkpt>
      <trkpt lat="44.70826" lon="4.32674">
        <ele>548.31</ele>
        <time>2022-03-22T16:31:24Z</time>
      </trkpt>
      <trkpt lat="44.70851" lon="4.32615">
        <ele>550.16</ele>
        <time>2022-03-22T16:31:26Z</time>
      </trkpt>
      <trkpt lat="44.70853" lon="4.32603">
        <ele>549.81</ele>
        <time>2022-03-22T16:31:28Z</time>
      </trkpt>
      <trkpt lat="44.70854" lon="4.32585">
        <ele>548.34</ele>
        <time>2022-03-22T16:31:30Z</time>
      </trkpt>
      <trkpt lat="44.70853" lon="4.32545">
        <ele>547.33</ele>
        <time>2022-03-22T16:31:32Z</time>
      </trkpt>
      <trkpt lat="44.7085" lon="4.32532">
        <ele>545.54</ele>
        <time>2022-03-22T16:31:34Z</time>
      </trkpt>
      <trkpt lat="44.70834" lon="4.32495">
        <ele>537.27</ele>
        <time>2022-03-22T16:31:36Z</time>
      </trkpt>
      <trkpt lat="44.7083" lon="4.32482">
        <ele>534.21</ele>
        <time>2022-03-22T16:31:38Z</time>
      </trkpt>
      <trkpt lat="44.70829" lon="4.3247">
        <ele>532.37</ele>
        <time>2022-03-22T16:31:40Z</time>
      </trkpt>
      <trkpt lat="44.70832" lon="4.32458">
        <ele>531.8</ele>
        <time>2022-03-22T16:31:42Z</time>
      </trkpt>
      <trkpt lat="44.70836" lon="4.32446">
        <ele>532.02</ele>
        <time>2022-03-22T16:31:44Z</time>
      </trkpt>
      <trkpt lat="44.70869" lon="4.32397">
        <ele>530.02</ele>
        <time>2022-03-22T16:31:46Z</time>
      </trkpt>
      <trkpt lat="44.70879" lon="4.32389">
        <ele>528.42</ele>
        <time>2022-03-22T16:31:48Z</time>
      </trkpt>
      <trkpt lat="44.70911" lon="4.32373">
        <ele>528.71</ele>
        <time>2022-03-22T16:31:50Z</time>
      </trkpt>
      <trkpt lat="44.7092" lon="4.32364">
        <ele>526.96</ele>
        <time>2022-03-22T16:31:52Z</time>
      </trkpt>
      <trkpt lat="44.70926" lon="4.32355">
        <ele>526.15</ele>
        <time>2022-03-22T16:31:54Z</time>
      </trkpt>
      <trkpt lat="44.7094" lon="4.32328">
        <ele>522.91</ele>
        <time>2022-03-22T16:31:56Z</time>
      </trkpt>
      <trkpt lat="44.70955" lon="4.32305">
        <ele>520.05</ele>
        <time>2022-03-22T16:31:58Z</time>
      </trkpt>
      <trkpt lat="44.7097" lon="4.32289">
        <ele>518.81</ele>
        <time>2022-03-22T16:32:00Z</time>
      </trkpt>
      <trkpt lat="44.70977" lon="4.32286">
        <ele>518.95</ele>
        <time>2022-03-22T16:32:02Z</time>
      </trkpt>
      <trkpt lat="44.70987" lon="4.32285">
        <ele>520.23</ele>
        <time>2022-03-22T16:32:04Z</time>
      </trkpt>
      <trkpt lat="44.71022" lon="4.32298">
        <ele>529.82</ele>
        <time>2022-03-22T16:32:06Z</time>
      </trkpt>
      <trkpt lat="44.71032" lon="4.32299">
        <ele>531.03</ele>
        <time>2022-03-22T16:32:08Z</time>
      </trkpt>
      <trkpt lat="44.7104" lon="4.32297">
        <ele>529.63</ele>
        <time>2022-03-22T16:32:10Z</time>
      </trkpt>
      <trkpt lat="44.71086" lon="4.32267">
        <ele>524.65</ele>
        <time>2022-03-22T16:32:12Z</time>
      </trkpt>
      <trkpt lat="44.71096" lon="4.32256">
        <ele>522.85</ele>
        <time>2022-03-22T16:32:14Z</time>
      </trkpt>
      <trkpt lat="44.71137" lon="4.32181">
        <ele>506.67</ele>
        <time>2022-03-22T16:32:16Z</time>
      </trkpt>
      <trkpt lat="44.7117" lon="4.32103">
        <ele>505.58</ele>
        <time>2022-03-22T16:32:18Z</time>
      </trkpt>
      <trkpt lat="44.71182" lon="4.32088">
        <ele>504.51</ele>
        <time>2022-03-22T16:32:20Z</time>
      </trkpt>
      <trkpt lat="44.71196" lon="4.32076">
        <ele>503.17</ele>
        <time>2022-03-22T16:32:22Z</time>
      </trkpt>
      <trkpt lat="44.71205" lon="4.32072">
        <ele>502.65</ele>
        <time>2022-03-22T16:32:24Z</time>
      </trkpt>
      <trkpt lat="44.71231" lon="4.32071">
        <ele>502.36</ele>
        <time>2022-03-22T16:32:26Z</time>
      </trkpt>
      <trkpt lat="44.71224" lon="4.32018">
        <ele>498.14</ele>
        <time>2022-03-22T16:32:28Z</time>
      </trkpt>
      <trkpt lat="44.71219" lon="4.3199">
        <ele>498.6</ele>
        <time>2022-03-22T16:32:30Z</time>
      </trkpt>
      <trkpt lat="44.71212" lon="4.31974">
        <ele>499.68</ele>
        <time>2022-03-22T16:32:32Z</time>
      </trkpt>
      <trkpt lat="44.71209" lon="4.3197">
        <ele>500.18</ele>
        <time>2022-03-22T16:32:34Z</time>
      </trkpt>
      <trkpt lat="44.71196" lon="4.31958">
        <ele>502.41</ele>
        <time>2022-03-22T16:32:35Z</time>
      </trkpt>
      <trkpt lat="44.71191" lon="4.31958">
        <ele>503.75</ele>
        <time>2022-03-22T16:32:37Z</time>
      </trkpt>
      <trkpt lat="44.71185" lon="4.31962">
        <ele>505.78</ele>
        <time>2022-03-22T16:32:39Z</time>
      </trkpt>
      <trkpt lat="44.71156" lon="4.32017">
        <ele>510.54</ele>
        <time>2022-03-22T16:32:41Z</time>
      </trkpt>
      <trkpt lat="44.71145" lon="4.32034">
        <ele>511.22</ele>
        <time>2022-03-22T16:32:43Z</time>
      </trkpt>
      <trkpt lat="44.71071" lon="4.32118">
        <ele>512.71</ele>
        <time>2022-03-22T16:32:45Z</time>
      </trkpt>
      <trkpt lat="44.71051" lon="4.32151">
        <ele>506.16</ele>
        <time>2022-03-22T16:32:47Z</time>
      </trkpt>
      <trkpt lat="44.71046" lon="4.32153">
        <ele>505.53</ele>
        <time>2022-03-22T16:32:48Z</time>
      </trkpt>
      <trkpt lat="44.71041" lon="4.32151">
        <ele>505.85</ele>
        <time>2022-03-22T16:32:50Z</time>
      </trkpt>
      <trkpt lat="44.71037" lon="4.32145">
        <ele>507.07</ele>
        <time>2022-03-22T16:32:52Z</time>
      </trkpt>
      <trkpt lat="44.71029" lon="4.32147">
        <ele>506.36</ele>
        <time>2022-03-22T16:32:54Z</time>
      </trkpt>
      <trkpt lat="44.70996" lon="4.3214">
        <ele>507.42</ele>
        <time>2022-03-22T16:32:57Z</time>
      </trkpt>
      <trkpt lat="44.70957" lon="4.32138">
        <ele>516.33</ele>
        <time>2022-03-22T16:32:59Z</time>
      </trkpt>
      <trkpt lat="44.70871" lon="4.3216">
        <ele>506.37</ele>
        <time>2022-03-22T16:33:01Z</time>
      </trkpt>
      <trkpt lat="44.70842" lon="4.3216">
        <ele>507.73</ele>
        <time>2022-03-22T16:33:04Z</time>
      </trkpt>
      <trkpt lat="44.70797" lon="4.32149">
        <ele>509.96</ele>
        <time>2022-03-22T16:33:06Z</time>
      </trkpt>
      <trkpt lat="44.70705" lon="4.32194">
        <ele>503.45</ele>
        <time>2022-03-22T16:33:08Z</time>
      </trkpt>
      <trkpt lat="44.70687" lon="4.32196">
        <ele>506.04</ele>
        <time>2022-03-22T16:33:11Z</time>
      </trkpt>
      <trkpt lat="44.70653" lon="4.3223">
        <ele>506.19</ele>
        <time>2022-03-22T16:33:13Z</time>
      </trkpt>
      <trkpt lat="44.70583" lon="4.32314">
        <ele>495.85</ele>
        <time>2022-03-22T16:33:15Z</time>
      </trkpt>
      <trkpt lat="44.70563" lon="4.32351">
        <ele>486.91</ele>
        <time>2022-03-22T16:33:18Z</time>
      </trkpt>
      <trkpt lat="44.70549" lon="4.32382">
        <ele>485.29</ele>
        <time>2022-03-22T16:33:20Z</time>
      </trkpt>
      <trkpt lat="44.70545" lon="4.32413">
        <ele>480.85</ele>
        <time>2022-03-22T16:33:22Z</time>
      </trkpt>
      <trkpt lat="44.70541" lon="4.32425">
        <ele>479.16</ele>
        <time>2022-03-22T16:33:25Z</time>
      </trkpt>
      <trkpt lat="44.70535" lon="4.32431">
        <ele>478.67</ele>
        <time>2022-03-22T16:33:27Z</time>
      </trkpt>
      <trkpt lat="44.70521" lon="4.32432">
        <ele>479.15</ele>
        <time>2022-03-22T16:33:29Z</time>
      </trkpt>
      <trkpt lat="44.70496" lon="4.32426">
        <ele>480.55</ele>
        <time>2022-03-22T16:33:32Z</time>
      </trkpt>
      <trkpt lat="44.7047" lon="4.32413">
        <ele>486.92</ele>
        <time>2022-03-22T16:33:34Z</time>
      </trkpt>
      <trkpt lat="44.70455" lon="4.32415">
        <ele>488.87</ele>
        <time>2022-03-22T16:33:36Z</time>
      </trkpt>
      <trkpt lat="44.70415" lon="4.32425">
        <ele>487.95</ele>
        <time>2022-03-22T16:33:39Z</time>
      </trkpt>
      <trkpt lat="44.70387" lon="4.32439">
        <ele>483.02</ele>
        <time>2022-03-22T16:33:41Z</time>
      </trkpt>
      <trkpt lat="44.70366" lon="4.32452">
        <ele>480.33</ele>
        <time>2022-03-22T16:33:43Z</time>
      </trkpt>
      <trkpt lat="44.7032" lon="4.32459">
        <ele>485.43</ele>
        <time>2022-03-22T16:33:46Z</time>
      </trkpt>
      <trkpt lat="44.70273" lon="4.32484">
        <ele>480.99</ele>
        <time>2022-03-22T16:33:48Z</time>
      </trkpt>
      <trkpt lat="44.70196" lon="4.32534">
        <ele>468.55</ele>
        <time>2022-03-22T16:33:50Z</time>
      </trkpt>
      <trkpt lat="44.70151" lon="4.32543">
        <ele>476.39</ele>
        <time>2022-03-22T16:33:53Z</time>
      </trkpt>
      <trkpt lat="44.70087" lon="4.32571">
        <ele>471.14</ele>
        <time>2022-03-22T16:33:55Z</time>
      </trkpt>
      <trkpt lat="44.70022" lon="4.3259">
        <ele>469.54</ele>
        <time>2022-03-22T16:33:57Z</time>
      </trkpt>
      <trkpt lat="44.7001" lon="4.32596">
        <ele>468.07</ele>
        <time>2022-03-22T16:34:00Z</time>
      </trkpt>
      <trkpt lat="44.69998" lon="4.32594">
        <ele>468.74</ele>
        <time>2022-03-22T16:34:02Z</time>
      </trkpt>
      <trkpt lat="44.69978" lon="4.3258">
        <ele>468.42</ele>
        <time>2022-03-22T16:34:04Z</time>
      </trkpt>
      <trkpt lat="44.69967" lon="4.32576">
        <ele>468.62</ele>
        <time>2022-03-22T16:34:07Z</time>
      </trkpt>
      <trkpt lat="44.69957" lon="4.32583">
        <ele>467.76</ele>
        <time>2022-03-22T16:34:09Z</time>
      </trkpt>
      <trkpt lat="44.69943" lon="4.32654">
        <ele>458.75</ele>
        <time>2022-03-22T16:34:11Z</time>
      </trkpt>
      <trkpt lat="44.69931" lon="4.32669">
        <ele>460.71</ele>
        <time>2022-03-22T16:34:14Z</time>
      </trkpt>
      <trkpt lat="44.69915" lon="4.32681">
        <ele>461.5</ele>
        <time>2022-03-22T16:34:16Z</time>
      </trkpt>
      <trkpt lat="44.69874" lon="4.32685">
        <ele>454.52</ele>
        <time>2022-03-22T16:34:18Z</time>
      </trkpt>
      <trkpt lat="44.69863" lon="4.32683">
        <ele>453.44</ele>
        <time>2022-03-22T16:34:21Z</time>
      </trkpt>
      <trkpt lat="44.69838" lon="4.32656">
        <ele>455.58</ele>
        <time>2022-03-22T16:34:23Z</time>
      </trkpt>
      <trkpt lat="44.69828" lon="4.32657">
        <ele>455.59</ele>
        <time>2022-03-22T16:34:25Z</time>
      </trkpt>
      <trkpt lat="44.6982" lon="4.32665">
        <ele>455.7</ele>
        <time>2022-03-22T16:34:27Z</time>
      </trkpt>
      <trkpt lat="44.69817" lon="4.32673">
        <ele>455.54</ele>
        <time>2022-03-22T16:34:30Z</time>
      </trkpt>
      <trkpt lat="44.69816" lon="4.32705">
        <ele>454.42</ele>
        <time>2022-03-22T16:34:32Z</time>
      </trkpt>
      <trkpt lat="44.69813" lon="4.32726">
        <ele>453.48</ele>
        <time>2022-03-22T16:34:34Z</time>
      </trkpt>
      <trkpt lat="44.69807" lon="4.32739">
        <ele>452.92</ele>
        <time>2022-03-22T16:34:37Z</time>
      </trkpt>
      <trkpt lat="44.69775" lon="4.32774">
        <ele>456.6</ele>
        <time>2022-03-22T16:34:39Z</time>
      </trkpt>
      <trkpt lat="44.69771" lon="4.32791">
        <ele>456.04</ele>
        <time>2022-03-22T16:34:41Z</time>
      </trkpt>
      <trkpt lat="44.69765" lon="4.3288">
        <ele>455.02</ele>
        <time>2022-03-22T16:34:44Z</time>
      </trkpt>
      <trkpt lat="44.69766" lon="4.32896">
        <ele>455.66</ele>
        <time>2022-03-22T16:34:46Z</time>
      </trkpt>
      <trkpt lat="44.69771" lon="4.32904">
        <ele>455</ele>
        <time>2022-03-22T16:34:48Z</time>
      </trkpt>
      <trkpt lat="44.69799" lon="4.32932">
        <ele>453.34</ele>
        <time>2022-03-22T16:34:51Z</time>
      </trkpt>
      <trkpt lat="44.69803" lon="4.32945">
        <ele>454.35</ele>
        <time>2022-03-22T16:34:53Z</time>
      </trkpt>
      <trkpt lat="44.69813" lon="4.32961">
        <ele>452.11</ele>
        <time>2022-03-22T16:34:55Z</time>
      </trkpt>
      <trkpt lat="44.69833" lon="4.32983">
        <ele>446.98</ele>
        <time>2022-03-22T16:34:58Z</time>
      </trkpt>
      <trkpt lat="44.69846" lon="4.33004">
        <ele>445.1</ele>
        <time>2022-03-22T16:35:00Z</time>
      </trkpt>
      <trkpt lat="44.69851" lon="4.33018">
        <ele>444.39</ele>
        <time>2022-03-22T16:35:02Z</time>
      </trkpt>
      <trkpt lat="44.69848" lon="4.33035">
        <ele>443.69</ele>
        <time>2022-03-22T16:35:05Z</time>
      </trkpt>
      <trkpt lat="44.69838" lon="4.33044">
        <ele>443.05</ele>
        <time>2022-03-22T16:35:07Z</time>
      </trkpt>
      <trkpt lat="44.69813" lon="4.33052">
        <ele>446.28</ele>
        <time>2022-03-22T16:35:09Z</time>
      </trkpt>
      <trkpt lat="44.69787" lon="4.33064">
        <ele>449.82</ele>
        <time>2022-03-22T16:35:12Z</time>
      </trkpt>
      <trkpt lat="44.69758" lon="4.33093">
        <ele>452.24</ele>
        <time>2022-03-22T16:35:14Z</time>
      </trkpt>
      <trkpt lat="44.69745" lon="4.33117">
        <ele>451.29</ele>
        <time>2022-03-22T16:35:16Z</time>
      </trkpt>
      <trkpt lat="44.69737" lon="4.33138">
        <ele>449</ele>
        <time>2022-03-22T16:35:19Z</time>
      </trkpt>
      <trkpt lat="44.6973" lon="4.33165">
        <ele>444.57</ele>
        <time>2022-03-22T16:35:21Z</time>
      </trkpt>
      <trkpt lat="44.69728" lon="4.33187">
        <ele>443.26</ele>
        <time>2022-03-22T16:35:23Z</time>
      </trkpt>
      <trkpt lat="44.69738" lon="4.33225">
        <ele>438.21</ele>
        <time>2022-03-22T16:35:26Z</time>
      </trkpt>
      <trkpt lat="44.69735" lon="4.33288">
        <ele>439.56</ele>
        <time>2022-03-22T16:35:28Z</time>
      </trkpt>
      <trkpt lat="44.69756" lon="4.3334">
        <ele>432.77</ele>
        <time>2022-03-22T16:35:30Z</time>
      </trkpt>
      <trkpt lat="44.69787" lon="4.33403">
        <ele>425.75</ele>
        <time>2022-03-22T16:35:33Z</time>
      </trkpt>
      <trkpt lat="44.69841" lon="4.33487">
        <ele>420.27</ele>
        <time>2022-03-22T16:35:35Z</time>
      </trkpt>
      <trkpt lat="44.69845" lon="4.33503">
        <ele>421.2</ele>
        <time>2022-03-22T16:35:37Z</time>
      </trkpt>
      <trkpt lat="44.69843" lon="4.33631">
        <ele>408.25</ele>
        <time>2022-03-22T16:35:40Z</time>
      </trkpt>
      <trkpt lat="44.69839" lon="4.33675">
        <ele>401.33</ele>
        <time>2022-03-22T16:35:42Z</time>
      </trkpt>
      <trkpt lat="44.6983" lon="4.33694">
        <ele>398.91</ele>
        <time>2022-03-22T16:35:44Z</time>
      </trkpt>
      <trkpt lat="44.69814" lon="4.33698">
        <ele>401.95</ele>
        <time>2022-03-22T16:35:47Z</time>
      </trkpt>
      <trkpt lat="44.698" lon="4.33695">
        <ele>403.77</ele>
        <time>2022-03-22T16:35:49Z</time>
      </trkpt>
      <trkpt lat="44.69755" lon="4.3367">
        <ele>410.75</ele>
        <time>2022-03-22T16:35:51Z</time>
      </trkpt>
      <trkpt lat="44.69728" lon="4.33667">
        <ele>410.43</ele>
        <time>2022-03-22T16:35:54Z</time>
      </trkpt>
      <trkpt lat="44.69682" lon="4.33643">
        <ele>411.85</ele>
        <time>2022-03-22T16:35:56Z</time>
      </trkpt>
      <trkpt lat="44.69667" lon="4.33639">
        <ele>410.96</ele>
        <time>2022-03-22T16:35:58Z</time>
      </trkpt>
      <trkpt lat="44.69615" lon="4.33661">
        <ele>406.15</ele>
        <time>2022-03-22T16:36:01Z</time>
      </trkpt>
      <trkpt lat="44.69604" lon="4.33674">
        <ele>405.59</ele>
        <time>2022-03-22T16:36:03Z</time>
      </trkpt>
      <trkpt lat="44.69596" lon="4.33692">
        <ele>404.15</ele>
        <time>2022-03-22T16:36:05Z</time>
      </trkpt>
      <trkpt lat="44.69589" lon="4.33803">
        <ele>394.41</ele>
        <time>2022-03-22T16:36:08Z</time>
      </trkpt>
      <trkpt lat="44.69579" lon="4.33843">
        <ele>399.36</ele>
        <time>2022-03-22T16:36:10Z</time>
      </trkpt>
      <trkpt lat="44.69559" lon="4.33975">
        <ele>399.63</ele>
        <time>2022-03-22T16:36:12Z</time>
      </trkpt>
      <trkpt lat="44.69558" lon="4.34025">
        <ele>387.43</ele>
        <time>2022-03-22T16:36:15Z</time>
      </trkpt>
      <trkpt lat="44.69554" lon="4.34055">
        <ele>383.75</ele>
        <time>2022-03-22T16:36:17Z</time>
      </trkpt>
      <trkpt lat="44.69548" lon="4.34067">
        <ele>385.01</ele>
        <time>2022-03-22T16:36:19Z</time>
      </trkpt>
      <trkpt lat="44.69475" lon="4.3412">
        <ele>383.4</ele>
        <time>2022-03-22T16:36:22Z</time>
      </trkpt>
      <trkpt lat="44.69464" lon="4.34122">
        <ele>383.22</ele>
        <time>2022-03-22T16:36:24Z</time>
      </trkpt>
      <trkpt lat="44.69439" lon="4.34119">
        <ele>384.17</ele>
        <time>2022-03-22T16:36:26Z</time>
      </trkpt>
      <trkpt lat="44.69424" lon="4.34122">
        <ele>383.82</ele>
        <time>2022-03-22T16:36:29Z</time>
      </trkpt>
      <trkpt lat="44.69399" lon="4.34134">
        <ele>382.62</ele>
        <time>2022-03-22T16:36:31Z</time>
      </trkpt>
      <trkpt lat="44.69385" lon="4.34152">
        <ele>379.83</ele>
        <time>2022-03-22T16:36:33Z</time>
      </trkpt>
      <trkpt lat="44.69318" lon="4.34194">
        <ele>373.38</ele>
        <time>2022-03-22T16:36:36Z</time>
      </trkpt>
      <trkpt lat="44.69294" lon="4.34193">
        <ele>377.07</ele>
        <time>2022-03-22T16:36:38Z</time>
      </trkpt>
      <trkpt lat="44.69271" lon="4.34203">
        <ele>379.45</ele>
        <time>2022-03-22T16:36:40Z</time>
      </trkpt>
      <trkpt lat="44.69245" lon="4.34221">
        <ele>379.44</ele>
        <time>2022-03-22T16:36:43Z</time>
      </trkpt>
      <trkpt lat="44.69227" lon="4.3425">
        <ele>374.71</ele>
        <time>2022-03-22T16:36:45Z</time>
      </trkpt>
      <trkpt lat="44.69206" lon="4.34298">
        <ele>371.48</ele>
        <time>2022-03-22T16:36:47Z</time>
      </trkpt>
      <trkpt lat="44.69183" lon="4.34342">
        <ele>372.44</ele>
        <time>2022-03-22T16:36:50Z</time>
      </trkpt>
      <trkpt lat="44.69163" lon="4.34443">
        <ele>375.38</ele>
        <time>2022-03-22T16:36:52Z</time>
      </trkpt>
      <trkpt lat="44.69142" lon="4.34611">
        <ele>366.22</ele>
        <time>2022-03-22T16:36:54Z</time>
      </trkpt>
      <trkpt lat="44.69129" lon="4.34671">
        <ele>362.55</ele>
        <time>2022-03-22T16:36:56Z</time>
      </trkpt>
      <trkpt lat="44.69108" lon="4.34718">
        <ele>360.01</ele>
        <time>2022-03-22T16:36:59Z</time>
      </trkpt>
      <trkpt lat="44.69092" lon="4.34731">
        <ele>362.05</ele>
        <time>2022-03-22T16:37:01Z</time>
      </trkpt>
      <trkpt lat="44.69019" lon="4.34773">
        <ele>364.4</ele>
        <time>2022-03-22T16:37:03Z</time>
      </trkpt>
      <trkpt lat="44.68976" lon="4.34785">
        <ele>363.13</ele>
        <time>2022-03-22T16:37:06Z</time>
      </trkpt>
      <trkpt lat="44.68939" lon="4.34813">
        <ele>354.48</ele>
        <time>2022-03-22T16:37:08Z</time>
      </trkpt>
      <trkpt lat="44.68919" lon="4.34823">
        <ele>353.32</ele>
        <time>2022-03-22T16:37:10Z</time>
      </trkpt>
      <trkpt lat="44.68791" lon="4.34805">
        <ele>348.55</ele>
        <time>2022-03-22T16:37:13Z</time>
      </trkpt>
      <trkpt lat="44.68766" lon="4.34794">
        <ele>349.88</ele>
        <time>2022-03-22T16:37:15Z</time>
      </trkpt>
      <trkpt lat="44.68741" lon="4.34791">
        <ele>348.67</ele>
        <time>2022-03-22T16:37:17Z</time>
      </trkpt>
      <trkpt lat="44.68712" lon="4.34805">
        <ele>349.14</ele>
        <time>2022-03-22T16:37:20Z</time>
      </trkpt>
      <trkpt lat="44.68684" lon="4.34824">
        <ele>347.73</ele>
        <time>2022-03-22T16:37:22Z</time>
      </trkpt>
      <trkpt lat="44.68574" lon="4.34843">
        <ele>344.72</ele>
        <time>2022-03-22T16:37:24Z</time>
      </trkpt>
      <trkpt lat="44.68528" lon="4.34855">
        <ele>343.94</ele>
        <time>2022-03-22T16:37:27Z</time>
      </trkpt>
      <trkpt lat="44.68504" lon="4.34871">
        <ele>343.14</ele>
        <time>2022-03-22T16:37:29Z</time>
      </trkpt>
      <trkpt lat="44.6846" lon="4.34908">
        <ele>343.25</ele>
        <time>2022-03-22T16:37:31Z</time>
      </trkpt>
      <trkpt lat="44.68435" lon="4.34932">
        <ele>345.23</ele>
        <time>2022-03-22T16:37:34Z</time>
      </trkpt>
      <trkpt lat="44.68408" lon="4.34974">
        <ele>339.91</ele>
        <time>2022-03-22T16:37:36Z</time>
      </trkpt>
      <trkpt lat="44.68385" lon="4.35041">
        <ele>337.7</ele>
        <time>2022-03-22T16:37:38Z</time>
      </trkpt>
      <trkpt lat="44.68368" lon="4.35101">
        <ele>333.7</ele>
        <time>2022-03-22T16:37:41Z</time>
      </trkpt>
      <trkpt lat="44.6835" lon="4.35134">
        <ele>331.59</ele>
        <time>2022-03-22T16:37:43Z</time>
      </trkpt>
      <trkpt lat="44.68327" lon="4.35149">
        <ele>331.84</ele>
        <time>2022-03-22T16:37:45Z</time>
      </trkpt>
      <trkpt lat="44.68252" lon="4.35171">
        <ele>336.57</ele>
        <time>2022-03-22T16:37:48Z</time>
      </trkpt>
      <trkpt lat="44.68232" lon="4.35181">
        <ele>338.46</ele>
        <time>2022-03-22T16:37:50Z</time>
      </trkpt>
      <trkpt lat="44.6822" lon="4.35193">
        <ele>339.08</ele>
        <time>2022-03-22T16:37:52Z</time>
      </trkpt>
      <trkpt lat="44.68211" lon="4.35209">
        <ele>339.61</ele>
        <time>2022-03-22T16:37:55Z</time>
      </trkpt>
      <trkpt lat="44.68192" lon="4.35283">
        <ele>331.56</ele>
        <time>2022-03-22T16:37:57Z</time>
      </trkpt>
      <trkpt lat="44.68182" lon="4.3531">
        <ele>330.53</ele>
        <time>2022-03-22T16:37:59Z</time>
      </trkpt>
      <trkpt lat="44.68167" lon="4.35335">
        <ele>327.79</ele>
        <time>2022-03-22T16:38:02Z</time>
      </trkpt>
      <trkpt lat="44.68135" lon="4.3537">
        <ele>327.61</ele>
        <time>2022-03-22T16:38:04Z</time>
      </trkpt>
      <trkpt lat="44.68083" lon="4.35401">
        <ele>325.23</ele>
        <time>2022-03-22T16:38:06Z</time>
      </trkpt>
      <trkpt lat="44.68062" lon="4.3542">
        <ele>329.92</ele>
        <time>2022-03-22T16:38:09Z</time>
      </trkpt>
      <trkpt lat="44.68046" lon="4.35442">
        <ele>332.77</ele>
        <time>2022-03-22T16:38:11Z</time>
      </trkpt>
      <trkpt lat="44.68038" lon="4.35458">
        <ele>331.41</ele>
        <time>2022-03-22T16:38:13Z</time>
      </trkpt>
      <trkpt lat="44.68025" lon="4.35492">
        <ele>326.77</ele>
        <time>2022-03-22T16:38:16Z</time>
      </trkpt>
      <trkpt lat="44.68014" lon="4.35511">
        <ele>325.94</ele>
        <time>2022-03-22T16:38:18Z</time>
      </trkpt>
      <trkpt lat="44.6801" lon="4.35528">
        <ele>324.23</ele>
        <time>2022-03-22T16:38:20Z</time>
      </trkpt>
      <trkpt lat="44.68008" lon="4.35545">
        <ele>324.14</ele>
        <time>2022-03-22T16:38:23Z</time>
      </trkpt>
      <trkpt lat="44.68009" lon="4.35562">
        <ele>324.43</ele>
        <time>2022-03-22T16:38:25Z</time>
      </trkpt>
      <trkpt lat="44.68016" lon="4.35581">
        <ele>323.99</ele>
        <time>2022-03-22T16:38:27Z</time>
      </trkpt>
      <trkpt lat="44.68041" lon="4.35633">
        <ele>315.21</ele>
        <time>2022-03-22T16:38:30Z</time>
      </trkpt>
      <trkpt lat="44.68046" lon="4.35649">
        <ele>313.59</ele>
        <time>2022-03-22T16:38:32Z</time>
      </trkpt>
      <trkpt lat="44.68048" lon="4.35666">
        <ele>311.82</ele>
        <time>2022-03-22T16:38:34Z</time>
      </trkpt>
      <trkpt lat="44.68047" lon="4.35677">
        <ele>310.75</ele>
        <time>2022-03-22T16:38:37Z</time>
      </trkpt>
      <trkpt lat="44.68044" lon="4.35692">
        <ele>309.01</ele>
        <time>2022-03-22T16:38:39Z</time>
      </trkpt>
      <trkpt lat="44.68038" lon="4.35704">
        <ele>307.26</ele>
        <time>2022-03-22T16:38:41Z</time>
      </trkpt>
      <trkpt lat="44.68029" lon="4.35712">
        <ele>305.18</ele>
        <time>2022-03-22T16:38:44Z</time>
      </trkpt>
      <trkpt lat="44.6799" lon="4.35713">
        <ele>311.96</ele>
        <time>2022-03-22T16:38:46Z</time>
      </trkpt>
      <trkpt lat="44.67974" lon="4.35723">
        <ele>316.7</ele>
        <time>2022-03-22T16:38:48Z</time>
      </trkpt>
      <trkpt lat="44.6794" lon="4.35755">
        <ele>315.69</ele>
        <time>2022-03-22T16:38:51Z</time>
      </trkpt>
      <trkpt lat="44.67903" lon="4.35795">
        <ele>313.75</ele>
        <time>2022-03-22T16:38:53Z</time>
      </trkpt>
      <trkpt lat="44.67884" lon="4.35821">
        <ele>310.24</ele>
        <time>2022-03-22T16:38:55Z</time>
      </trkpt>
      <trkpt lat="44.6788" lon="4.3583">
        <ele>308.59</ele>
        <time>2022-03-22T16:38:58Z</time>
      </trkpt>
      <trkpt lat="44.67877" lon="4.35871">
        <ele>310.47</ele>
        <time>2022-03-22T16:39:00Z</time>
      </trkpt>
      <trkpt lat="44.6787" lon="4.35876">
        <ele>310.74</ele>
        <time>2022-03-22T16:39:04Z</time>
      </trkpt>
      <trkpt lat="44.67854" lon="4.35883">
        <ele>309.35</ele>
        <time>2022-03-22T16:39:08Z</time>
      </trkpt>
      <trkpt lat="44.67842" lon="4.35891">
        <ele>308.38</ele>
        <time>2022-03-22T16:39:12Z</time>
      </trkpt>
      <trkpt lat="44.67825" lon="4.35908">
        <ele>304.69</ele>
        <time>2022-03-22T16:39:17Z</time>
      </trkpt>
      <trkpt lat="44.67799" lon="4.35962">
        <ele>302.57</ele>
        <time>2022-03-22T16:39:21Z</time>
      </trkpt>
      <trkpt lat="44.67792" lon="4.35992">
        <ele>304.83</ele>
        <time>2022-03-22T16:39:25Z</time>
      </trkpt>
      <trkpt lat="44.67787" lon="4.36077">
        <ele>306.66</ele>
        <time>2022-03-22T16:39:29Z</time>
      </trkpt>
      <trkpt lat="44.67788" lon="4.36104">
        <ele>303.88</ele>
        <time>2022-03-22T16:39:33Z</time>
      </trkpt>
      <trkpt lat="44.67798" lon="4.36129">
        <ele>300.88</ele>
        <time>2022-03-22T16:39:38Z</time>
      </trkpt>
      <trkpt lat="44.67828" lon="4.36163">
        <ele>302.42</ele>
        <time>2022-03-22T16:39:42Z</time>
      </trkpt>
      <trkpt lat="44.67841" lon="4.36186">
        <ele>302.73</ele>
        <time>2022-03-22T16:39:46Z</time>
      </trkpt>
      <trkpt lat="44.67848" lon="4.36209">
        <ele>301.8</ele>
        <time>2022-03-22T16:39:50Z</time>
      </trkpt>
      <trkpt lat="44.67856" lon="4.36265">
        <ele>301.62</ele>
        <time>2022-03-22T16:39:54Z</time>
      </trkpt>
      <trkpt lat="44.67852" lon="4.3629">
        <ele>300.86</ele>
        <time>2022-03-22T16:39:58Z</time>
      </trkpt>
      <trkpt lat="44.67773" lon="4.3662">
        <ele>287.01</ele>
        <time>2022-03-22T16:40:03Z</time>
      </trkpt>
      <trkpt lat="44.67691" lon="4.36556">
        <ele>283.45</ele>
        <time>2022-03-22T16:40:10Z</time>
      </trkpt>
      <trkpt lat="44.67676" lon="4.36548">
        <ele>284.28</ele>
        <time>2022-03-22T16:40:17Z</time>
      </trkpt>
      <trkpt lat="44.67546" lon="4.36506">
        <ele>281.71</ele>
        <time>2022-03-22T16:40:25Z</time>
      </trkpt>
      <trkpt lat="44.67526" lon="4.36503">
        <ele>281.7</ele>
        <time>2022-03-22T16:40:32Z</time>
      </trkpt>
      <trkpt lat="44.67438" lon="4.36526">
        <ele>277.35</ele>
        <time>2022-03-22T16:40:40Z</time>
      </trkpt>
      <trkpt lat="44.67417" lon="4.36536">
        <ele>278.81</ele>
        <time>2022-03-22T16:40:47Z</time>
      </trkpt>
      <trkpt lat="44.67399" lon="4.36539">
        <ele>281.54</ele>
        <time>2022-03-22T16:40:54Z</time>
      </trkpt>
      <trkpt lat="44.67399" lon="4.36539">
        <ele>281.54</ele>
        <time>2022-03-22T16:40:54Z</time>
      </trkpt>
      <trkpt lat="44.67355" lon="4.36534">
        <ele>282.23</ele>
        <time>2022-03-22T16:41:02Z</time>
      </trkpt>
      <trkpt lat="44.67344" lon="4.36526">
        <ele>278.99</ele>
        <time>2022-03-22T16:41:09Z</time>
      </trkpt>
      <trkpt lat="44.67311" lon="4.36498">
        <ele>273.96</ele>
        <time>2022-03-22T16:41:16Z</time>
      </trkpt>
      <trkpt lat="44.67297" lon="4.36496">
        <ele>274.5</ele>
        <time>2022-03-22T16:41:23Z</time>
      </trkpt>
      <trkpt lat="44.67114" lon="4.36484">
        <ele>269.87</ele>
        <time>2022-03-22T16:41:30Z</time>
      </trkpt>
      <trkpt lat="44.67035" lon="4.36484">
        <ele>270.54</ele>
        <time>2022-03-22T16:41:38Z</time>
      </trkpt>
      <trkpt lat="44.66995" lon="4.36489">
        <ele>268.93</ele>
        <time>2022-03-22T16:41:45Z</time>
      </trkpt>
      <trkpt lat="44.66978" lon="4.36497">
        <ele>268.26</ele>
        <time>2022-03-22T16:41:52Z</time>
      </trkpt>
      <trkpt lat="44.66915" lon="4.36531">
        <ele>266.9</ele>
        <time>2022-03-22T16:41:59Z</time>
      </trkpt>
      <trkpt lat="44.66894" lon="4.36538">
        <ele>265.23</ele>
        <time>2022-03-22T16:42:07Z</time>
      </trkpt>
      <trkpt lat="44.66853" lon="4.36544">
        <ele>264.55</ele>
        <time>2022-03-22T16:42:14Z</time>
      </trkpt>
      <trkpt lat="44.66779" lon="4.36546">
        <ele>263.06</ele>
        <time>2022-03-22T16:42:21Z</time>
      </trkpt>
      <trkpt lat="44.66747" lon="4.36552">
        <ele>263.68</ele>
        <time>2022-03-22T16:42:28Z</time>
      </trkpt>
      <trkpt lat="44.66686" lon="4.36591">
        <ele>264.49</ele>
        <time>2022-03-22T16:42:35Z</time>
      </trkpt>
      <trkpt lat="44.66606" lon="4.36611">
        <ele>264.45</ele>
        <time>2022-03-22T16:42:43Z</time>
      </trkpt>
      <trkpt lat="44.66549" lon="4.36612">
        <ele>261.1</ele>
        <time>2022-03-22T16:42:50Z</time>
      </trkpt>
      <trkpt lat="44.66535" lon="4.36621">
        <ele>262.02</ele>
        <time>2022-03-22T16:42:57Z</time>
      </trkpt>
      <trkpt lat="44.66409" lon="4.36744">
        <ele>258.96</ele>
        <time>2022-03-22T16:43:04Z</time>
      </trkpt>
      <trkpt lat="44.66353" lon="4.36798">
        <ele>260.33</ele>
        <time>2022-03-22T16:43:12Z</time>
      </trkpt>
      <trkpt lat="44.66342" lon="4.36806">
        <ele>261.07</ele>
        <time>2022-03-22T16:43:19Z</time>
      </trkpt>
      <trkpt lat="44.66325" lon="4.36814">
        <ele>261.27</ele>
        <time>2022-03-22T16:43:26Z</time>
      </trkpt>
      <trkpt lat="44.66311" lon="4.36817">
        <ele>261</ele>
        <time>2022-03-22T16:43:33Z</time>
      </trkpt>
      <trkpt lat="44.66295" lon="4.36817">
        <ele>260.45</ele>
        <time>2022-03-22T16:43:40Z</time>
      </trkpt>
      <trkpt lat="44.66249" lon="4.36804">
        <ele>254.74</ele>
        <time>2022-03-22T16:43:48Z</time>
      </trkpt>
      <trkpt lat="44.66239" lon="4.36804">
        <ele>253.71</ele>
        <time>2022-03-22T16:43:55Z</time>
      </trkpt>
      <trkpt lat="44.6623" lon="4.36807">
        <ele>253.21</ele>
        <time>2022-03-22T16:44:02Z</time>
      </trkpt>
      <trkpt lat="44.66187" lon="4.36831">
        <ele>257.35</ele>
        <time>2022-03-22T16:44:09Z</time>
      </trkpt>
      <trkpt lat="44.66176" lon="4.36835">
        <ele>257.64</ele>
        <time>2022-03-22T16:44:16Z</time>
      </trkpt>
      <trkpt lat="44.66156" lon="4.36836">
        <ele>257.08</ele>
        <time>2022-03-22T16:44:24Z</time>
      </trkpt>
      <trkpt lat="44.65976" lon="4.36797">
        <ele>249.32</ele>
        <time>2022-03-22T16:44:31Z</time>
      </trkpt>
      <trkpt lat="44.65971" lon="4.36792">
        <ele>249.16</ele>
        <time>2022-03-22T16:44:38Z</time>
      </trkpt>
      <trkpt lat="44.65971" lon="4.36766">
        <ele>248.08</ele>
        <time>2022-03-22T16:44:42Z</time>
      </trkpt>
      <trkpt lat="44.65974" lon="4.36713">
        <ele>252.82</ele>
        <time>2022-03-22T16:44:46Z</time>
      </trkpt>
      <trkpt lat="44.65978" lon="4.36698">
        <ele>255.59</ele>
        <time>2022-03-22T16:44:51Z</time>
      </trkpt>
      <trkpt lat="44.65853" lon="4.36671">
        <ele>250.17</ele>
        <time>2022-03-22T16:45:06Z</time>
      </trkpt>
      <trkpt lat="44.65842" lon="4.3667">
        <ele>250.31</ele>
        <time>2022-03-22T16:45:21Z</time>
      </trkpt>
      <trkpt lat="44.65802" lon="4.36659">
        <ele>253.02</ele>
        <time>2022-03-22T16:45:36Z</time>
      </trkpt>
      <trkpt lat="44.65723" lon="4.36617">
        <ele>254.37</ele>
        <time>2022-03-22T16:45:51Z</time>
      </trkpt>
      <trkpt lat="44.65621" lon="4.36554">
        <ele>249.25</ele>
        <time>2022-03-22T16:46:06Z</time>
      </trkpt>
      <trkpt lat="44.65605" lon="4.36546">
        <ele>250.71</ele>
        <time>2022-03-22T16:46:21Z</time>
      </trkpt>
      <trkpt lat="44.65564" lon="4.3666">
        <ele>243.33</ele>
        <time>2022-03-22T16:46:30Z</time>
      </trkpt>
      <trkpt lat="44.65558" lon="4.36661">
        <ele>243.24</ele>
        <time>2022-03-22T16:46:31Z</time>
      </trkpt>
      <trkpt lat="44.65555" lon="4.36666">
        <ele>243.07</ele>
        <time>2022-03-22T16:46:31Z</time>
      </trkpt>
      <trkpt lat="44.65554" lon="4.36672">
        <ele>243.21</ele>
        <time>2022-03-22T16:46:32Z</time>
      </trkpt>
      <trkpt lat="44.65558" lon="4.36679">
        <ele>243.39</ele>
        <time>2022-03-22T16:46:32Z</time>
      </trkpt>
      <trkpt lat="44.65531" lon="4.36759">
        <ele>242.2</ele>
        <time>2022-03-22T16:46:34Z</time>
      </trkpt>
      <trkpt lat="44.65516" lon="4.36802">
        <ele>243.63</ele>
        <time>2022-03-22T16:46:36Z</time>
      </trkpt>
      <trkpt lat="44.655" lon="4.36846">
        <ele>250.73</ele>
        <time>2022-03-22T16:46:38Z</time>
      </trkpt>
      <trkpt lat="44.65462" lon="4.36797">
        <ele>248.13</ele>
        <time>2022-03-22T16:46:40Z</time>
      </trkpt>
      <trkpt lat="44.65446" lon="4.36786">
        <ele>249.56</ele>
        <time>2022-03-22T16:46:42Z</time>
      </trkpt>
      <trkpt lat="44.65428" lon="4.36782">
        <ele>251.55</ele>
        <time>2022-03-22T16:46:44Z</time>
      </trkpt>
      <trkpt lat="44.65278" lon="4.36784">
        <ele>245.68</ele>
        <time>2022-03-22T16:46:46Z</time>
      </trkpt>
      <trkpt lat="44.65246" lon="4.36781">
        <ele>240.18</ele>
        <time>2022-03-22T16:46:48Z</time>
      </trkpt>
      <trkpt lat="44.65233" lon="4.36783">
        <ele>239.03</ele>
        <time>2022-03-22T16:46:50Z</time>
      </trkpt>
      <trkpt lat="44.65217" lon="4.36793">
        <ele>238.65</ele>
        <time>2022-03-22T16:46:52Z</time>
      </trkpt>
      <trkpt lat="44.65202" lon="4.36824">
        <ele>240.43</ele>
        <time>2022-03-22T16:46:54Z</time>
      </trkpt>
      <trkpt lat="44.65183" lon="4.36904">
        <ele>239.49</ele>
        <time>2022-03-22T16:46:55Z</time>
      </trkpt>
      <trkpt lat="44.65176" lon="4.36924">
        <ele>238.97</ele>
        <time>2022-03-22T16:46:57Z</time>
      </trkpt>
      <trkpt lat="44.65143" lon="4.37">
        <ele>241.4</ele>
        <time>2022-03-22T16:46:59Z</time>
      </trkpt>
      <trkpt lat="44.65112" lon="4.37084">
        <ele>245.42</ele>
        <time>2022-03-22T16:47:01Z</time>
      </trkpt>
      <trkpt lat="44.651" lon="4.37104">
        <ele>247.16</ele>
        <time>2022-03-22T16:47:03Z</time>
      </trkpt>
      <trkpt lat="44.65085" lon="4.37122">
        <ele>246.97</ele>
        <time>2022-03-22T16:47:05Z</time>
      </trkpt>
      <trkpt lat="44.65052" lon="4.37143">
        <ele>242.45</ele>
        <time>2022-03-22T16:47:07Z</time>
      </trkpt>
      <trkpt lat="44.65022" lon="4.37166">
        <ele>242.21</ele>
        <time>2022-03-22T16:47:09Z</time>
      </trkpt>
      <trkpt lat="44.64976" lon="4.37213">
        <ele>241.58</ele>
        <time>2022-03-22T16:47:10Z</time>
      </trkpt>
      <trkpt lat="44.64879" lon="4.37278">
        <ele>240.46</ele>
        <time>2022-03-22T16:47:12Z</time>
      </trkpt>
      <trkpt lat="44.64849" lon="4.37294">
        <ele>242.21</ele>
        <time>2022-03-22T16:47:14Z</time>
      </trkpt>
      <trkpt lat="44.64789" lon="4.3731">
        <ele>239.71</ele>
        <time>2022-03-22T16:47:16Z</time>
      </trkpt>
      <trkpt lat="44.64757" lon="4.37324">
        <ele>242.04</ele>
        <time>2022-03-22T16:47:18Z</time>
      </trkpt>
      <trkpt lat="44.64724" lon="4.37344">
        <ele>243.31</ele>
        <time>2022-03-22T16:47:20Z</time>
      </trkpt>
      <trkpt lat="44.64634" lon="4.37415">
        <ele>241.42</ele>
        <time>2022-03-22T16:47:22Z</time>
      </trkpt>
      <trkpt lat="44.64613" lon="4.37435">
        <ele>238.45</ele>
        <time>2022-03-22T16:47:24Z</time>
      </trkpt>
      <trkpt lat="44.64601" lon="4.37444">
        <ele>237.46</ele>
        <time>2022-03-22T16:47:26Z</time>
      </trkpt>
      <trkpt lat="44.64573" lon="4.37455">
        <ele>234.46</ele>
        <time>2022-03-22T16:47:27Z</time>
      </trkpt>
      <trkpt lat="44.64543" lon="4.37472">
        <ele>231.63</ele>
        <time>2022-03-22T16:47:29Z</time>
      </trkpt>
      <trkpt lat="44.64525" lon="4.37493">
        <ele>230.74</ele>
        <time>2022-03-22T16:47:31Z</time>
      </trkpt>
      <trkpt lat="44.64517" lon="4.37508">
        <ele>231.29</ele>
        <time>2022-03-22T16:47:33Z</time>
      </trkpt>
      <trkpt lat="44.64511" lon="4.37528">
        <ele>231.99</ele>
        <time>2022-03-22T16:47:35Z</time>
      </trkpt>
      <trkpt lat="44.64487" lon="4.3764">
        <ele>231</ele>
        <time>2022-03-22T16:47:37Z</time>
      </trkpt>
      <trkpt lat="44.64476" lon="4.37678">
        <ele>230.77</ele>
        <time>2022-03-22T16:47:39Z</time>
      </trkpt>
      <trkpt lat="44.64409" lon="4.37778">
        <ele>229.45</ele>
        <time>2022-03-22T16:47:41Z</time>
      </trkpt>
      <trkpt lat="44.64345" lon="4.37868">
        <ele>225.65</ele>
        <time>2022-03-22T16:47:43Z</time>
      </trkpt>
      <trkpt lat="44.64304" lon="4.37942">
        <ele>229.41</ele>
        <time>2022-03-22T16:47:44Z</time>
      </trkpt>
      <trkpt lat="44.6429" lon="4.37959">
        <ele>230.96</ele>
        <time>2022-03-22T16:47:46Z</time>
      </trkpt>
      <trkpt lat="44.6425" lon="4.37999">
        <ele>227.94</ele>
        <time>2022-03-22T16:47:48Z</time>
      </trkpt>
      <trkpt lat="44.64241" lon="4.3801">
        <ele>228.21</ele>
        <time>2022-03-22T16:47:50Z</time>
      </trkpt>
      <trkpt lat="44.64234" lon="4.38023">
        <ele>228.21</ele>
        <time>2022-03-22T16:47:52Z</time>
      </trkpt>
      <trkpt lat="44.64231" lon="4.38034">
        <ele>228.32</ele>
        <time>2022-03-22T16:47:54Z</time>
      </trkpt>
      <trkpt lat="44.64229" lon="4.38048">
        <ele>228.89</ele>
        <time>2022-03-22T16:47:56Z</time>
      </trkpt>
      <trkpt lat="44.64229" lon="4.38063">
        <ele>229.38</ele>
        <time>2022-03-22T16:47:58Z</time>
      </trkpt>
      <trkpt lat="44.64246" lon="4.38129">
        <ele>229.3</ele>
        <time>2022-03-22T16:47:59Z</time>
      </trkpt>
      <trkpt lat="44.64247" lon="4.38142">
        <ele>229.6</ele>
        <time>2022-03-22T16:48:01Z</time>
      </trkpt>
      <trkpt lat="44.64246" lon="4.3816">
        <ele>229.98</ele>
        <time>2022-03-22T16:48:03Z</time>
      </trkpt>
      <trkpt lat="44.64242" lon="4.38186">
        <ele>230.21</ele>
        <time>2022-03-22T16:48:05Z</time>
      </trkpt>
      <trkpt lat="44.64231" lon="4.38228">
        <ele>230.72</ele>
        <time>2022-03-22T16:48:07Z</time>
      </trkpt>
      <trkpt lat="44.64222" lon="4.38245">
        <ele>229.61</ele>
        <time>2022-03-22T16:48:09Z</time>
      </trkpt>
      <trkpt lat="44.64191" lon="4.38279">
        <ele>229.87</ele>
        <time>2022-03-22T16:48:11Z</time>
      </trkpt>
      <trkpt lat="44.64179" lon="4.38297">
        <ele>231.57</ele>
        <time>2022-03-22T16:48:13Z</time>
      </trkpt>
      <trkpt lat="44.64172" lon="4.38309">
        <ele>231.89</ele>
        <time>2022-03-22T16:48:15Z</time>
      </trkpt>
      <trkpt lat="44.64161" lon="4.38343">
        <ele>230.09</ele>
        <time>2022-03-22T16:48:16Z</time>
      </trkpt>
      <trkpt lat="44.64158" lon="4.38357">
        <ele>230.13</ele>
        <time>2022-03-22T16:48:18Z</time>
      </trkpt>
      <trkpt lat="44.64156" lon="4.38374">
        <ele>230.55</ele>
        <time>2022-03-22T16:48:20Z</time>
      </trkpt>
      <trkpt lat="44.64158" lon="4.38402">
        <ele>230.76</ele>
        <time>2022-03-22T16:48:22Z</time>
      </trkpt>
      <trkpt lat="44.64172" lon="4.38485">
        <ele>230.77</ele>
        <time>2022-03-22T16:48:24Z</time>
      </trkpt>
      <trkpt lat="44.64174" lon="4.38515">
        <ele>231.44</ele>
        <time>2022-03-22T16:48:26Z</time>
      </trkpt>
      <trkpt lat="44.64177" lon="4.38609">
        <ele>225.96</ele>
        <time>2022-03-22T16:48:28Z</time>
      </trkpt>
      <trkpt lat="44.64176" lon="4.38621">
        <ele>224.85</ele>
        <time>2022-03-22T16:48:30Z</time>
      </trkpt>
      <trkpt lat="44.6417" lon="4.38651">
        <ele>223.11</ele>
        <time>2022-03-22T16:48:32Z</time>
      </trkpt>
      <trkpt lat="44.64158" lon="4.38677">
        <ele>224.14</ele>
        <time>2022-03-22T16:48:33Z</time>
      </trkpt>
      <trkpt lat="44.64137" lon="4.38721">
        <ele>226.58</ele>
        <time>2022-03-22T16:48:35Z</time>
      </trkpt>
      <trkpt lat="44.64127" lon="4.38735">
        <ele>225.9</ele>
        <time>2022-03-22T16:48:37Z</time>
      </trkpt>
      <trkpt lat="44.64104" lon="4.38757">
        <ele>227.57</ele>
        <time>2022-03-22T16:48:39Z</time>
      </trkpt>
      <trkpt lat="44.64091" lon="4.38763">
        <ele>228.35</ele>
        <time>2022-03-22T16:48:41Z</time>
      </trkpt>
      <trkpt lat="44.64041" lon="4.38775">
        <ele>224.28</ele>
        <time>2022-03-22T16:48:43Z</time>
      </trkpt>
      <trkpt lat="44.64028" lon="4.38783">
        <ele>224.65</ele>
        <time>2022-03-22T16:48:45Z</time>
      </trkpt>
      <trkpt lat="44.63985" lon="4.38836">
        <ele>229.88</ele>
        <time>2022-03-22T16:48:47Z</time>
      </trkpt>
      <trkpt lat="44.63965" lon="4.38854">
        <ele>229.48</ele>
        <time>2022-03-22T16:48:48Z</time>
      </trkpt>
      <trkpt lat="44.63936" lon="4.38877">
        <ele>228.63</ele>
        <time>2022-03-22T16:48:50Z</time>
      </trkpt>
      <trkpt lat="44.63893" lon="4.389">
        <ele>226.57</ele>
        <time>2022-03-22T16:48:52Z</time>
      </trkpt>
      <trkpt lat="44.63849" lon="4.38931">
        <ele>224.26</ele>
        <time>2022-03-22T16:48:54Z</time>
      </trkpt>
      <trkpt lat="44.63835" lon="4.38938">
        <ele>222.96</ele>
        <time>2022-03-22T16:48:56Z</time>
      </trkpt>
      <trkpt lat="44.63792" lon="4.38949">
        <ele>222.44</ele>
        <time>2022-03-22T16:48:58Z</time>
      </trkpt>
      <trkpt lat="44.63761" lon="4.38965">
        <ele>225.94</ele>
        <time>2022-03-22T16:49:00Z</time>
      </trkpt>
      <trkpt lat="44.63736" lon="4.38987">
        <ele>228.31</ele>
        <time>2022-03-22T16:49:02Z</time>
      </trkpt>
      <trkpt lat="44.63687" lon="4.39042">
        <ele>235.04</ele>
        <time>2022-03-22T16:49:04Z</time>
      </trkpt>
      <trkpt lat="44.63664" lon="4.39062">
        <ele>233.88</ele>
        <time>2022-03-22T16:49:05Z</time>
      </trkpt>
      <trkpt lat="44.63637" lon="4.39079">
        <ele>232.25</ele>
        <time>2022-03-22T16:49:07Z</time>
      </trkpt>
      <trkpt lat="44.63617" lon="4.3909">
        <ele>227.65</ele>
        <time>2022-03-22T16:49:09Z</time>
      </trkpt>
      <trkpt lat="44.63529" lon="4.39116">
        <ele>236.58</ele>
        <time>2022-03-22T16:49:11Z</time>
      </trkpt>
      <trkpt lat="44.63477" lon="4.39127">
        <ele>231.94</ele>
        <time>2022-03-22T16:49:13Z</time>
      </trkpt>
      <trkpt lat="44.63406" lon="4.39134">
        <ele>228.33</ele>
        <time>2022-03-22T16:49:15Z</time>
      </trkpt>
      <trkpt lat="44.63394" lon="4.39137">
        <ele>226.08</ele>
        <time>2022-03-22T16:49:17Z</time>
      </trkpt>
      <trkpt lat="44.63322" lon="4.39175">
        <ele>227.49</ele>
        <time>2022-03-22T16:49:19Z</time>
      </trkpt>
      <trkpt lat="44.63198" lon="4.39247">
        <ele>224.27</ele>
        <time>2022-03-22T16:49:21Z</time>
      </trkpt>
      <trkpt lat="44.63119" lon="4.39286">
        <ele>226.67</ele>
        <time>2022-03-22T16:49:22Z</time>
      </trkpt>
      <trkpt lat="44.63059" lon="4.39303">
        <ele>223.13</ele>
        <time>2022-03-22T16:49:24Z</time>
      </trkpt>
      <trkpt lat="44.6302" lon="4.39322">
        <ele>224.72</ele>
        <time>2022-03-22T16:49:26Z</time>
      </trkpt>
      <trkpt lat="44.62879" lon="4.39399">
        <ele>224.06</ele>
        <time>2022-03-22T16:49:28Z</time>
      </trkpt>
      <trkpt lat="44.62803" lon="4.39433">
        <ele>213.99</ele>
        <time>2022-03-22T16:49:30Z</time>
      </trkpt>
      <trkpt lat="44.62775" lon="4.39448">
        <ele>212.22</ele>
        <time>2022-03-22T16:49:32Z</time>
      </trkpt>
      <trkpt lat="44.62771" lon="4.39455">
        <ele>212.5</ele>
        <time>2022-03-22T16:49:34Z</time>
      </trkpt>
      <trkpt lat="44.6276" lon="4.39489">
        <ele>214.57</ele>
        <time>2022-03-22T16:49:36Z</time>
      </trkpt>
      <trkpt lat="44.62746" lon="4.39529">
        <ele>217.68</ele>
        <time>2022-03-22T16:49:38Z</time>
      </trkpt>
      <trkpt lat="44.62725" lon="4.39522">
        <ele>214.71</ele>
        <time>2022-03-22T16:49:40Z</time>
      </trkpt>
      <trkpt lat="44.62724" lon="4.39546">
        <ele>216.5</ele>
        <time>2022-03-22T16:49:43Z</time>
      </trkpt>
      <trkpt lat="44.62686" lon="4.39652">
        <ele>216.23</ele>
        <time>2022-03-22T16:49:46Z</time>
      </trkpt>
      <trkpt lat="44.62674" lon="4.39693">
        <ele>215.98</ele>
        <time>2022-03-22T16:49:49Z</time>
      </trkpt>
      <trkpt lat="44.62666" lon="4.39735">
        <ele>215.93</ele>
        <time>2022-03-22T16:49:52Z</time>
      </trkpt>
      <trkpt lat="44.6266" lon="4.39772">
        <ele>215.31</ele>
        <time>2022-03-22T16:49:56Z</time>
      </trkpt>
      <trkpt lat="44.62656" lon="4.39838">
        <ele>213.53</ele>
        <time>2022-03-22T16:49:59Z</time>
      </trkpt>
      <trkpt lat="44.62653" lon="4.39855">
        <ele>213.11</ele>
        <time>2022-03-22T16:50:02Z</time>
      </trkpt>
      <trkpt lat="44.62642" lon="4.39881">
        <ele>211.15</ele>
        <time>2022-03-22T16:50:05Z</time>
      </trkpt>
      <trkpt lat="44.62636" lon="4.39887">
        <ele>210.12</ele>
        <time>2022-03-22T16:50:08Z</time>
      </trkpt>
      <trkpt lat="44.62631" lon="4.39891">
        <ele>209.64</ele>
        <time>2022-03-22T16:50:13Z</time>
      </trkpt>
      <trkpt lat="44.62626" lon="4.39904">
        <ele>209</ele>
        <time>2022-03-22T16:50:18Z</time>
      </trkpt>
      <trkpt lat="44.62627" lon="4.39918">
        <ele>208.54</ele>
        <time>2022-03-22T16:50:23Z</time>
      </trkpt>
      <trkpt lat="44.62634" lon="4.39929">
        <ele>208.73</ele>
        <time>2022-03-22T16:50:29Z</time>
      </trkpt>
      <trkpt lat="44.62645" lon="4.39948">
        <ele>209.71</ele>
        <time>2022-03-22T16:50:34Z</time>
      </trkpt>
      <trkpt lat="44.62648" lon="4.39956">
        <ele>210.01</ele>
        <time>2022-03-22T16:50:39Z</time>
      </trkpt>
      <trkpt lat="44.62653" lon="4.39983">
        <ele>210.51</ele>
        <time>2022-03-22T16:50:44Z</time>
      </trkpt>
      <trkpt lat="44.62646" lon="4.40275">
        <ele>207.34</ele>
        <time>2022-03-22T16:50:49Z</time>
      </trkpt>
      <trkpt lat="44.62642" lon="4.4031">
        <ele>207.1</ele>
        <time>2022-03-22T16:50:54Z</time>
      </trkpt>
      <trkpt lat="44.62635" lon="4.40336">
        <ele>206.89</ele>
        <time>2022-03-22T16:50:59Z</time>
      </trkpt>
      <trkpt lat="44.6261" lon="4.40396">
        <ele>205.24</ele>
        <time>2022-03-22T16:51:04Z</time>
      </trkpt>
      <trkpt lat="44.626" lon="4.40417">
        <ele>205.61</ele>
        <time>2022-03-22T16:51:09Z</time>
      </trkpt>
      <trkpt lat="44.62572" lon="4.40478">
        <ele>204.35</ele>
        <time>2022-03-22T16:51:14Z</time>
      </trkpt>
      <trkpt lat="44.62565" lon="4.40508">
        <ele>204.07</ele>
        <time>2022-03-22T16:51:19Z</time>
      </trkpt>
      <trkpt lat="44.62566" lon="4.40533">
        <ele>204.58</ele>
        <time>2022-03-22T16:51:24Z</time>
      </trkpt>
      <trkpt lat="44.62607" lon="4.40675">
        <ele>211.63</ele>
        <time>2022-03-22T16:51:29Z</time>
      </trkpt>
      <trkpt lat="44.62648" lon="4.40797">
        <ele>209.26</ele>
        <time>2022-03-22T16:51:34Z</time>
      </trkpt>
      <trkpt lat="44.62652" lon="4.40815">
        <ele>208.37</ele>
        <time>2022-03-22T16:51:39Z</time>
      </trkpt>
      <trkpt lat="44.62655" lon="4.40843">
        <ele>208.03</ele>
        <time>2022-03-22T16:51:44Z</time>
      </trkpt>
      <trkpt lat="44.62657" lon="4.40904">
        <ele>209.66</ele>
        <time>2022-03-22T16:51:49Z</time>
      </trkpt>
      <trkpt lat="44.6266" lon="4.40922">
        <ele>210.11</ele>
        <time>2022-03-22T16:51:54Z</time>
      </trkpt>
      <trkpt lat="44.62751" lon="4.4127">
        <ele>206.6</ele>
        <time>2022-03-22T16:52:00Z</time>
      </trkpt>
      <trkpt lat="44.628" lon="4.41472">
        <ele>201.58</ele>
        <time>2022-03-22T16:52:05Z</time>
      </trkpt>
      <trkpt lat="44.62833" lon="4.41598">
        <ele>202.99</ele>
        <time>2022-03-22T16:52:10Z</time>
      </trkpt>
      <trkpt lat="44.62832" lon="4.41615">
        <ele>203</ele>
        <time>2022-03-22T16:52:15Z</time>
      </trkpt>
      <trkpt lat="44.62827" lon="4.41624">
        <ele>202.89</ele>
        <time>2022-03-22T16:52:20Z</time>
      </trkpt>
      <trkpt lat="44.62801" lon="4.41656">
        <ele>201.81</ele>
        <time>2022-03-22T16:52:25Z</time>
      </trkpt>
      <trkpt lat="44.62749" lon="4.41714">
        <ele>200.01</ele>
        <time>2022-03-22T16:52:30Z</time>
      </trkpt>
      <trkpt lat="44.6271" lon="4.41768">
        <ele>202.45</ele>
        <time>2022-03-22T16:52:35Z</time>
      </trkpt>
      <trkpt lat="44.6268" lon="4.41796">
        <ele>199.62</ele>
        <time>2022-03-22T16:52:40Z</time>
      </trkpt>
      <trkpt lat="44.62643" lon="4.41813">
        <ele>195.71</ele>
        <time>2022-03-22T16:52:45Z</time>
      </trkpt>
      <trkpt lat="44.62607" lon="4.41825">
        <ele>194.69</ele>
        <time>2022-03-22T16:52:50Z</time>
      </trkpt>
      <trkpt lat="44.62574" lon="4.41864">
        <ele>197</ele>
        <time>2022-03-22T16:52:55Z</time>
      </trkpt>
      <trkpt lat="44.62564" lon="4.41863">
        <ele>197</ele>
        <time>2022-03-22T16:53:04Z</time>
      </trkpt>
      <trkpt lat="44.62556" lon="4.41869">
        <ele>197</ele>
        <time>2022-03-22T16:53:12Z</time>
      </trkpt>
      <trkpt lat="44.62551" lon="4.41875">
        <ele>197</ele>
        <time>2022-03-22T16:53:21Z</time>
      </trkpt>
      <trkpt lat="44.62549" lon="4.41883">
        <ele>197</ele>
        <time>2022-03-22T16:53:29Z</time>
      </trkpt>
      <trkpt lat="44.62551" lon="4.41896">
        <ele>197</ele>
        <time>2022-03-22T16:53:38Z</time>
      </trkpt>
      <trkpt lat="44.62557" lon="4.41908">
        <ele>197.05</ele>
        <time>2022-03-22T16:53:46Z</time>
      </trkpt>
      <trkpt lat="44.62565" lon="4.41912">
        <ele>197.28</ele>
        <time>2022-03-22T16:53:54Z</time>
      </trkpt>
      <trkpt lat="44.62576" lon="4.4191">
        <ele>197.55</ele>
        <time>2022-03-22T16:54:03Z</time>
      </trkpt>
      <trkpt lat="44.62582" lon="4.41903">
        <ele>197.49</ele>
        <time>2022-03-22T16:54:11Z</time>
      </trkpt>
      <trkpt lat="44.62613" lon="4.41914">
        <ele>196.99</ele>
        <time>2022-03-22T16:54:20Z</time>
      </trkpt>
      <trkpt lat="44.62695" lon="4.4196">
        <ele>199.58</ele>
        <time>2022-03-22T16:54:28Z</time>
      </trkpt>
      <trkpt lat="44.62748" lon="4.41991">
        <ele>202.25</ele>
        <time>2022-03-22T16:54:37Z</time>
      </trkpt>
      <trkpt lat="44.62789" lon="4.42009">
        <ele>204.74</ele>
        <time>2022-03-22T16:54:45Z</time>
      </trkpt>
      <trkpt lat="44.62811" lon="4.42016">
        <ele>206.23</ele>
        <time>2022-03-22T16:54:54Z</time>
      </trkpt>
      <trkpt lat="44.62834" lon="4.42022">
        <ele>207.46</ele>
        <time>2022-03-22T16:55:02Z</time>
      </trkpt>
      <trkpt lat="44.62932" lon="4.42036">
        <ele>214.04</ele>
        <time>2022-03-22T16:55:11Z</time>
      </trkpt>
      <trkpt lat="44.62986" lon="4.42047">
        <ele>217.93</ele>
        <time>2022-03-22T16:55:19Z</time>
      </trkpt>
      <trkpt lat="44.6302" lon="4.42057">
        <ele>218.23</ele>
        <time>2022-03-22T16:55:28Z</time>
      </trkpt>
      <trkpt lat="44.63059" lon="4.42072">
        <ele>218</ele>
        <time>2022-03-22T16:55:36Z</time>
      </trkpt>
      <trkpt lat="44.63112" lon="4.42099">
        <ele>220.91</ele>
        <time>2022-03-22T16:55:45Z</time>
      </trkpt>
      <trkpt lat="44.63182" lon="4.42144">
        <ele>224.44</ele>
        <time>2022-03-22T16:55:53Z</time>
      </trkpt>
      <trkpt lat="44.63692" lon="4.42483">
        <ele>237.29</ele>
        <time>2022-03-22T16:56:02Z</time>
      </trkpt>
      <trkpt lat="44.63844" lon="4.4259">
        <ele>244.9</ele>
        <time>2022-03-22T16:56:10Z</time>
      </trkpt>
      <trkpt lat="44.63868" lon="4.42614">
        <ele>244.05</ele>
        <time>2022-03-22T16:56:19Z</time>
      </trkpt>
      <trkpt lat="44.63887" lon="4.42643">
        <ele>243.37</ele>
        <time>2022-03-22T16:56:27Z</time>
      </trkpt>
      <trkpt lat="44.63956" lon="4.42781">
        <ele>245.89</ele>
        <time>2022-03-22T16:56:35Z</time>
      </trkpt>
      <trkpt lat="44.63987" lon="4.42838">
        <ele>244.7</ele>
        <time>2022-03-22T16:56:44Z</time>
      </trkpt>
      <trkpt lat="44.64" lon="4.42861">
        <ele>244.93</ele>
        <time>2022-03-22T16:56:52Z</time>
      </trkpt>
      <trkpt lat="44.64026" lon="4.42896">
        <ele>245.07</ele>
        <time>2022-03-22T16:57:01Z</time>
      </trkpt>
      <trkpt lat="44.64457" lon="4.4343">
        <ele>265.44</ele>
        <time>2022-03-22T16:57:09Z</time>
      </trkpt>
      <trkpt lat="44.64499" lon="4.43493">
        <ele>264.3</ele>
        <time>2022-03-22T16:57:18Z</time>
      </trkpt>
      <trkpt lat="44.64516" lon="4.4352">
        <ele>264</ele>
        <time>2022-03-22T16:57:26Z</time>
      </trkpt>
      <trkpt lat="44.64633" lon="4.4373">
        <ele>266.69</ele>
        <time>2022-03-22T16:57:35Z</time>
      </trkpt>
      <trkpt lat="44.64653" lon="4.43762">
        <ele>266.65</ele>
        <time>2022-03-22T16:57:43Z</time>
      </trkpt>
      <trkpt lat="44.64669" lon="4.43784">
        <ele>266.03</ele>
        <time>2022-03-22T16:57:52Z</time>
      </trkpt>
      <trkpt lat="44.6489" lon="4.44017">
        <ele>263.64</ele>
        <time>2022-03-22T16:58:00Z</time>
      </trkpt>
      <trkpt lat="44.65014" lon="4.44145">
        <ele>270.47</ele>
        <time>2022-03-22T16:58:09Z</time>
      </trkpt>
      <trkpt lat="44.652" lon="4.44332">
        <ele>280.14</ele>
        <time>2022-03-22T16:58:17Z</time>
      </trkpt>
      <trkpt lat="44.65247" lon="4.44383">
        <ele>281.89</ele>
        <time>2022-03-22T16:58:26Z</time>
      </trkpt>
      <trkpt lat="44.65387" lon="4.44514">
        <ele>279.13</ele>
        <time>2022-03-22T16:58:34Z</time>
      </trkpt>
      <trkpt lat="44.65403" lon="4.44529">
        <ele>279</ele>
        <time>2022-03-22T16:58:43Z</time>
      </trkpt>
      <trkpt lat="44.65442" lon="4.44565">
        <ele>278.72</ele>
        <time>2022-03-22T16:58:51Z</time>
      </trkpt>
      <trkpt lat="44.65488" lon="4.44611">
        <ele>278.9</ele>
        <time>2022-03-22T16:59:00Z</time>
      </trkpt>
      <trkpt lat="44.65608" lon="4.44719">
        <ele>281.22</ele>
        <time>2022-03-22T16:59:08Z</time>
      </trkpt>
      <trkpt lat="44.65623" lon="4.44726">
        <ele>281.47</ele>
        <time>2022-03-22T16:59:12Z</time>
      </trkpt>
      <trkpt lat="44.6567" lon="4.4477">
        <ele>284.62</ele>
        <time>2022-03-22T16:59:15Z</time>
      </trkpt>
      <trkpt lat="44.65674" lon="4.44759">
        <ele>284.23</ele>
        <time>2022-03-22T16:59:17Z</time>
      </trkpt>
      <trkpt lat="44.65678" lon="4.44736">
        <ele>284</ele>
        <time>2022-03-22T16:59:20Z</time>
      </trkpt>
      <trkpt lat="44.65687" lon="4.44718">
        <ele>283.96</ele>
        <time>2022-03-22T16:59:22Z</time>
      </trkpt>
      <trkpt lat="44.65687" lon="4.44718">
        <ele>283.96</ele>
        <time>2022-03-22T16:59:22Z</time>
      </trkpt>
      <trkpt lat="44.65664" lon="4.44764">
        <ele>284.42</ele>
        <time>2022-03-22T16:59:28Z</time>
      </trkpt>
      <trkpt lat="44.65623" lon="4.44726">
        <ele>281.47</ele>
        <time>2022-03-22T16:59:31Z</time>
      </trkpt>
      <trkpt lat="44.65608" lon="4.44719">
        <ele>281.22</ele>
        <time>2022-03-22T16:59:34Z</time>
      </trkpt>
      <trkpt lat="44.65617" lon="4.44733">
        <ele>281.31</ele>
        <time>2022-03-22T16:59:37Z</time>
      </trkpt>
      <trkpt lat="44.6574" lon="4.44847">
        <ele>287.47</ele>
        <time>2022-03-22T16:59:40Z</time>
      </trkpt>
      <trkpt lat="44.65756" lon="4.44858">
        <ele>288.43</ele>
        <time>2022-03-22T16:59:43Z</time>
      </trkpt>
      <trkpt lat="44.65785" lon="4.44884">
        <ele>290.8</ele>
        <time>2022-03-22T16:59:46Z</time>
      </trkpt>
      <trkpt lat="44.65826" lon="4.44911">
        <ele>291</ele>
        <time>2022-03-22T16:59:49Z</time>
      </trkpt>
      <trkpt lat="44.65856" lon="4.44927">
        <ele>291.36</ele>
        <time>2022-03-22T16:59:53Z</time>
      </trkpt>
      <trkpt lat="44.65879" lon="4.44933">
        <ele>292.6</ele>
        <time>2022-03-22T16:59:56Z</time>
      </trkpt>
      <trkpt lat="44.66043" lon="4.44961">
        <ele>298.68</ele>
        <time>2022-03-22T16:59:59Z</time>
      </trkpt>
      <trkpt lat="44.66057" lon="4.44965">
        <ele>299.41</ele>
        <time>2022-03-22T17:00:02Z</time>
      </trkpt>
      <trkpt lat="44.66082" lon="4.44976">
        <ele>301.75</ele>
        <time>2022-03-22T17:00:05Z</time>
      </trkpt>
      <trkpt lat="44.66122" lon="4.45001">
        <ele>304.12</ele>
        <time>2022-03-22T17:00:08Z</time>
      </trkpt>
      <trkpt lat="44.66343" lon="4.4519">
        <ele>317.71</ele>
        <time>2022-03-22T17:00:11Z</time>
      </trkpt>
      <trkpt lat="44.66472" lon="4.45299">
        <ele>323.49</ele>
        <time>2022-03-22T17:00:14Z</time>
      </trkpt>
      <trkpt lat="44.66515" lon="4.45319">
        <ele>324.83</ele>
        <time>2022-03-22T17:00:17Z</time>
      </trkpt>
      <trkpt lat="44.6654" lon="4.45323">
        <ele>325.97</ele>
        <time>2022-03-22T17:00:20Z</time>
      </trkpt>
      <trkpt lat="44.66591" lon="4.45321">
        <ele>329.3</ele>
        <time>2022-03-22T17:00:23Z</time>
      </trkpt>
      <trkpt lat="44.66675" lon="4.45308">
        <ele>335.8</ele>
        <time>2022-03-22T17:00:26Z</time>
      </trkpt>
      <trkpt lat="44.66704" lon="4.45312">
        <ele>336.67</ele>
        <time>2022-03-22T17:00:29Z</time>
      </trkpt>
      <trkpt lat="44.6672" lon="4.45325">
        <ele>337.44</ele>
        <time>2022-03-22T17:00:32Z</time>
      </trkpt>
      <trkpt lat="44.66736" lon="4.4535">
        <ele>339.23</ele>
        <time>2022-03-22T17:00:35Z</time>
      </trkpt>
      <trkpt lat="44.66748" lon="4.45385">
        <ele>341.62</ele>
        <time>2022-03-22T17:00:38Z</time>
      </trkpt>
      <trkpt lat="44.66759" lon="4.45408">
        <ele>342.21</ele>
        <time>2022-03-22T17:00:41Z</time>
      </trkpt>
      <trkpt lat="44.66865" lon="4.45548">
        <ele>348.75</ele>
        <time>2022-03-22T17:00:44Z</time>
      </trkpt>
      <trkpt lat="44.66954" lon="4.45614">
        <ele>356.63</ele>
        <time>2022-03-22T17:00:47Z</time>
      </trkpt>
      <trkpt lat="44.67064" lon="4.45696">
        <ele>363.55</ele>
        <time>2022-03-22T17:00:50Z</time>
      </trkpt>
      <trkpt lat="44.67337" lon="4.45874">
        <ele>388.36</ele>
        <time>2022-03-22T17:00:53Z</time>
      </trkpt>
      <trkpt lat="44.67383" lon="4.45917">
        <ele>390.11</ele>
        <time>2022-03-22T17:00:56Z</time>
      </trkpt>
      <trkpt lat="44.6741" lon="4.45968">
        <ele>395.11</ele>
        <time>2022-03-22T17:01:00Z</time>
      </trkpt>
      <trkpt lat="44.67431" lon="4.46">
        <ele>396.11</ele>
        <time>2022-03-22T17:01:03Z</time>
      </trkpt>
      <trkpt lat="44.67456" lon="4.46024">
        <ele>397.52</ele>
        <time>2022-03-22T17:01:06Z</time>
      </trkpt>
      <trkpt lat="44.67479" lon="4.46037">
        <ele>398.91</ele>
        <time>2022-03-22T17:01:09Z</time>
      </trkpt>
      <trkpt lat="44.67524" lon="4.46041">
        <ele>401.77</ele>
        <time>2022-03-22T17:01:12Z</time>
      </trkpt>
      <trkpt lat="44.67592" lon="4.46033">
        <ele>408.53</ele>
        <time>2022-03-22T17:01:15Z</time>
      </trkpt>
      <trkpt lat="44.67641" lon="4.46037">
        <ele>410.83</ele>
        <time>2022-03-22T17:01:18Z</time>
      </trkpt>
      <trkpt lat="44.6775" lon="4.46089">
        <ele>418.67</ele>
        <time>2022-03-22T17:01:21Z</time>
      </trkpt>
      <trkpt lat="44.6795" lon="4.46105">
        <ele>433.89</ele>
        <time>2022-03-22T17:01:24Z</time>
      </trkpt>
      <trkpt lat="44.67998" lon="4.46121">
        <ele>437.22</ele>
        <time>2022-03-22T17:01:27Z</time>
      </trkpt>
      <trkpt lat="44.68132" lon="4.4611">
        <ele>452.91</ele>
        <time>2022-03-22T17:01:30Z</time>
      </trkpt>
      <trkpt lat="44.68252" lon="4.46183">
        <ele>460.52</ele>
        <time>2022-03-22T17:01:33Z</time>
      </trkpt>
      <trkpt lat="44.6826" lon="4.46192">
        <ele>460.33</ele>
        <time>2022-03-22T17:01:36Z</time>
      </trkpt>
      <trkpt lat="44.68272" lon="4.46225">
        <ele>460.35</ele>
        <time>2022-03-22T17:01:39Z</time>
      </trkpt>
      <trkpt lat="44.68272" lon="4.46245">
        <ele>460.55</ele>
        <time>2022-03-22T17:01:42Z</time>
      </trkpt>
      <trkpt lat="44.68264" lon="4.46312">
        <ele>464.25</ele>
        <time>2022-03-22T17:01:45Z</time>
      </trkpt>
      <trkpt lat="44.68265" lon="4.46347">
        <ele>464.9</ele>
        <time>2022-03-22T17:01:48Z</time>
      </trkpt>
      <trkpt lat="44.68274" lon="4.46375">
        <ele>465.64</ele>
        <time>2022-03-22T17:01:51Z</time>
      </trkpt>
      <trkpt lat="44.6829" lon="4.464">
        <ele>466.94</ele>
        <time>2022-03-22T17:01:54Z</time>
      </trkpt>
      <trkpt lat="44.68512" lon="4.46577">
        <ele>485.69</ele>
        <time>2022-03-22T17:01:57Z</time>
      </trkpt>
      <trkpt lat="44.68545" lon="4.4661">
        <ele>488.26</ele>
        <time>2022-03-22T17:02:00Z</time>
      </trkpt>
      <trkpt lat="44.68583" lon="4.46653">
        <ele>491.49</ele>
        <time>2022-03-22T17:02:03Z</time>
      </trkpt>
      <trkpt lat="44.68616" lon="4.46703">
        <ele>495.62</ele>
        <time>2022-03-22T17:02:07Z</time>
      </trkpt>
      <trkpt lat="44.68734" lon="4.46897">
        <ele>505.11</ele>
        <time>2022-03-22T17:02:10Z</time>
      </trkpt>
      <trkpt lat="44.69171" lon="4.47263">
        <ele>528.27</ele>
        <time>2022-03-22T17:02:13Z</time>
      </trkpt>
      <trkpt lat="44.69186" lon="4.47287">
        <ele>527.59</ele>
        <time>2022-03-22T17:02:16Z</time>
      </trkpt>
      <trkpt lat="44.69199" lon="4.47318">
        <ele>528.92</ele>
        <time>2022-03-22T17:02:19Z</time>
      </trkpt>
      <trkpt lat="44.69212" lon="4.47392">
        <ele>535.41</ele>
        <time>2022-03-22T17:02:22Z</time>
      </trkpt>
      <trkpt lat="44.69227" lon="4.47448">
        <ele>540.52</ele>
        <time>2022-03-22T17:02:25Z</time>
      </trkpt>
      <trkpt lat="44.69343" lon="4.47534">
        <ele>540.93</ele>
        <time>2022-03-22T17:02:28Z</time>
      </trkpt>
      <trkpt lat="44.69389" lon="4.47601">
        <ele>545.65</ele>
        <time>2022-03-22T17:02:31Z</time>
      </trkpt>
      <trkpt lat="44.69448" lon="4.47709">
        <ele>551.89</ele>
        <time>2022-03-22T17:02:34Z</time>
      </trkpt>
      <trkpt lat="44.69471" lon="4.47722">
        <ele>552.12</ele>
        <time>2022-03-22T17:02:37Z</time>
      </trkpt>
      <trkpt lat="44.69689" lon="4.47798">
        <ele>565.83</ele>
        <time>2022-03-22T17:02:40Z</time>
      </trkpt>
      <trkpt lat="44.69727" lon="4.47838">
        <ele>569.59</ele>
        <time>2022-03-22T17:02:43Z</time>
      </trkpt>
      <trkpt lat="44.69794" lon="4.4794">
        <ele>574.63</ele>
        <time>2022-03-22T17:02:46Z</time>
      </trkpt>
      <trkpt lat="44.69846" lon="4.48045">
        <ele>581.07</ele>
        <time>2022-03-22T17:02:49Z</time>
      </trkpt>
      <trkpt lat="44.69863" lon="4.48099">
        <ele>581.38</ele>
        <time>2022-03-22T17:02:52Z</time>
      </trkpt>
      <trkpt lat="44.69871" lon="4.48136">
        <ele>586.22</ele>
        <time>2022-03-22T17:02:55Z</time>
      </trkpt>
      <trkpt lat="44.69883" lon="4.48166">
        <ele>586.45</ele>
        <time>2022-03-22T17:02:58Z</time>
      </trkpt>
      <trkpt lat="44.69908" lon="4.48194">
        <ele>586.88</ele>
        <time>2022-03-22T17:03:01Z</time>
      </trkpt>
      <trkpt lat="44.69937" lon="4.48202">
        <ele>586.56</ele>
        <time>2022-03-22T17:03:04Z</time>
      </trkpt>
      <trkpt lat="44.7007" lon="4.48179">
        <ele>594.89</ele>
        <time>2022-03-22T17:03:07Z</time>
      </trkpt>
      <trkpt lat="44.70179" lon="4.48167">
        <ele>606.18</ele>
        <time>2022-03-22T17:03:10Z</time>
      </trkpt>
      <trkpt lat="44.70251" lon="4.48201">
        <ele>609.83</ele>
        <time>2022-03-22T17:03:14Z</time>
      </trkpt>
      <trkpt lat="44.70281" lon="4.48206">
        <ele>612.49</ele>
        <time>2022-03-22T17:03:17Z</time>
      </trkpt>
      <trkpt lat="44.70314" lon="4.48198">
        <ele>615.54</ele>
        <time>2022-03-22T17:03:20Z</time>
      </trkpt>
      <trkpt lat="44.70347" lon="4.48185">
        <ele>618.19</ele>
        <time>2022-03-22T17:03:23Z</time>
      </trkpt>
      <trkpt lat="44.70373" lon="4.48185">
        <ele>621.61</ele>
        <time>2022-03-22T17:03:26Z</time>
      </trkpt>
      <trkpt lat="44.70409" lon="4.48198">
        <ele>623.84</ele>
        <time>2022-03-22T17:03:29Z</time>
      </trkpt>
      <trkpt lat="44.70441" lon="4.48225">
        <ele>624.97</ele>
        <time>2022-03-22T17:03:32Z</time>
      </trkpt>
      <trkpt lat="44.7047" lon="4.48273">
        <ele>631.35</ele>
        <time>2022-03-22T17:03:35Z</time>
      </trkpt>
      <trkpt lat="44.70516" lon="4.48356">
        <ele>636.18</ele>
        <time>2022-03-22T17:03:38Z</time>
      </trkpt>
      <trkpt lat="44.70562" lon="4.48399">
        <ele>636.09</ele>
        <time>2022-03-22T17:03:41Z</time>
      </trkpt>
      <trkpt lat="44.70585" lon="4.48425">
        <ele>638.52</ele>
        <time>2022-03-22T17:03:44Z</time>
      </trkpt>
      <trkpt lat="44.70615" lon="4.48479">
        <ele>642.29</ele>
        <time>2022-03-22T17:03:47Z</time>
      </trkpt>
      <trkpt lat="44.70632" lon="4.48525">
        <ele>646.34</ele>
        <time>2022-03-22T17:03:50Z</time>
      </trkpt>
      <trkpt lat="44.70663" lon="4.48649">
        <ele>652.88</ele>
        <time>2022-03-22T17:03:53Z</time>
      </trkpt>
      <trkpt lat="44.70674" lon="4.487">
        <ele>653.47</ele>
        <time>2022-03-22T17:03:56Z</time>
      </trkpt>
      <trkpt lat="44.70678" lon="4.488">
        <ele>663.72</ele>
        <time>2022-03-22T17:03:59Z</time>
      </trkpt>
      <trkpt lat="44.70686" lon="4.48832">
        <ele>667.5</ele>
        <time>2022-03-22T17:04:02Z</time>
      </trkpt>
      <trkpt lat="44.70698" lon="4.48848">
        <ele>669.69</ele>
        <time>2022-03-22T17:04:05Z</time>
      </trkpt>
      <trkpt lat="44.70719" lon="4.48859">
        <ele>672.29</ele>
        <time>2022-03-22T17:04:08Z</time>
      </trkpt>
      <trkpt lat="44.70748" lon="4.48864">
        <ele>675.22</ele>
        <time>2022-03-22T17:04:11Z</time>
      </trkpt>
      <trkpt lat="44.70795" lon="4.48851">
        <ele>674.78</ele>
        <time>2022-03-22T17:04:14Z</time>
      </trkpt>
      <trkpt lat="44.70847" lon="4.48825">
        <ele>676.3</ele>
        <time>2022-03-22T17:04:17Z</time>
      </trkpt>
      <trkpt lat="44.70915" lon="4.48765">
        <ele>678.44</ele>
        <time>2022-03-22T17:04:20Z</time>
      </trkpt>
      <trkpt lat="44.7094" lon="4.48755">
        <ele>679.23</ele>
        <time>2022-03-22T17:04:24Z</time>
      </trkpt>
      <trkpt lat="44.70966" lon="4.48759">
        <ele>681.3</ele>
        <time>2022-03-22T17:04:27Z</time>
      </trkpt>
      <trkpt lat="44.70998" lon="4.48783">
        <ele>685.78</ele>
        <time>2022-03-22T17:04:30Z</time>
      </trkpt>
      <trkpt lat="44.71065" lon="4.48873">
        <ele>691.2</ele>
        <time>2022-03-22T17:04:33Z</time>
      </trkpt>
      <trkpt lat="44.71101" lon="4.48915">
        <ele>699.76</ele>
        <time>2022-03-22T17:04:36Z</time>
      </trkpt>
      <trkpt lat="44.71122" lon="4.48928">
        <ele>701.61</ele>
        <time>2022-03-22T17:04:39Z</time>
      </trkpt>
      <trkpt lat="44.71141" lon="4.48936">
        <ele>699.57</ele>
        <time>2022-03-22T17:04:42Z</time>
      </trkpt>
      <trkpt lat="44.71334" lon="4.48985">
        <ele>709.27</ele>
        <time>2022-03-22T17:04:45Z</time>
      </trkpt>
      <trkpt lat="44.71433" lon="4.48975">
        <ele>720.51</ele>
        <time>2022-03-22T17:04:48Z</time>
      </trkpt>
      <trkpt lat="44.71469" lon="4.48988">
        <ele>723.68</ele>
        <time>2022-03-22T17:04:51Z</time>
      </trkpt>
      <trkpt lat="44.71515" lon="4.49031">
        <ele>730.88</ele>
        <time>2022-03-22T17:04:54Z</time>
      </trkpt>
      <trkpt lat="44.71526" lon="4.49037">
        <ele>731.38</ele>
        <time>2022-03-22T17:04:57Z</time>
      </trkpt>
      <trkpt lat="44.71539" lon="4.49035">
        <ele>731.36</ele>
        <time>2022-03-22T17:05:00Z</time>
      </trkpt>
      <trkpt lat="44.71548" lon="4.4903">
        <ele>730.97</ele>
        <time>2022-03-22T17:05:03Z</time>
      </trkpt>
      <trkpt lat="44.71557" lon="4.49021">
        <ele>730.73</ele>
        <time>2022-03-22T17:05:06Z</time>
      </trkpt>
      <trkpt lat="44.71566" lon="4.48997">
        <ele>731.52</ele>
        <time>2022-03-22T17:05:09Z</time>
      </trkpt>
      <trkpt lat="44.71578" lon="4.48905">
        <ele>731.02</ele>
        <time>2022-03-22T17:05:12Z</time>
      </trkpt>
      <trkpt lat="44.7158" lon="4.48881">
        <ele>732.67</ele>
        <time>2022-03-22T17:05:15Z</time>
      </trkpt>
      <trkpt lat="44.71571" lon="4.48853">
        <ele>733.12</ele>
        <time>2022-03-22T17:05:18Z</time>
      </trkpt>
      <trkpt lat="44.71513" lon="4.48724">
        <ele>729.16</ele>
        <time>2022-03-22T17:05:21Z</time>
      </trkpt>
      <trkpt lat="44.71515" lon="4.487">
        <ele>729.05</ele>
        <time>2022-03-22T17:05:24Z</time>
      </trkpt>
      <trkpt lat="44.71528" lon="4.48686">
        <ele>730.82</ele>
        <time>2022-03-22T17:05:27Z</time>
      </trkpt>
      <trkpt lat="44.7154" lon="4.48691">
        <ele>732.61</ele>
        <time>2022-03-22T17:05:31Z</time>
      </trkpt>
      <trkpt lat="44.71574" lon="4.48742">
        <ele>741.71</ele>
        <time>2022-03-22T17:05:34Z</time>
      </trkpt>
      <trkpt lat="44.71611" lon="4.48804">
        <ele>748.95</ele>
        <time>2022-03-22T17:05:37Z</time>
      </trkpt>
      <trkpt lat="44.7163" lon="4.48811">
        <ele>752.41</ele>
        <time>2022-03-22T17:05:40Z</time>
      </trkpt>
      <trkpt lat="44.71642" lon="4.48807">
        <ele>754.7</ele>
        <time>2022-03-22T17:05:43Z</time>
      </trkpt>
      <trkpt lat="44.71666" lon="4.48786">
        <ele>759.41</ele>
        <time>2022-03-22T17:05:46Z</time>
      </trkpt>
      <trkpt lat="44.71675" lon="4.48782">
        <ele>760.79</ele>
        <time>2022-03-22T17:05:49Z</time>
      </trkpt>
      <trkpt lat="44.71683" lon="4.48784">
        <ele>762.5</ele>
        <time>2022-03-22T17:05:52Z</time>
      </trkpt>
      <trkpt lat="44.71688" lon="4.48793">
        <ele>764.4</ele>
        <time>2022-03-22T17:05:55Z</time>
      </trkpt>
      <trkpt lat="44.71689" lon="4.48811">
        <ele>766.41</ele>
        <time>2022-03-22T17:05:58Z</time>
      </trkpt>
      <trkpt lat="44.71675" lon="4.4886">
        <ele>764.01</ele>
        <time>2022-03-22T17:06:01Z</time>
      </trkpt>
      <trkpt lat="44.71675" lon="4.48896">
        <ele>763.16</ele>
        <time>2022-03-22T17:06:04Z</time>
      </trkpt>
      <trkpt lat="44.71707" lon="4.49111">
        <ele>774.23</ele>
        <time>2022-03-22T17:06:07Z</time>
      </trkpt>
      <trkpt lat="44.71731" lon="4.4925">
        <ele>778.34</ele>
        <time>2022-03-22T17:06:10Z</time>
      </trkpt>
      <trkpt lat="44.71741" lon="4.49269">
        <ele>779.91</ele>
        <time>2022-03-22T17:06:13Z</time>
      </trkpt>
      <trkpt lat="44.71747" lon="4.49278">
        <ele>780.7</ele>
        <time>2022-03-22T17:06:16Z</time>
      </trkpt>
      <trkpt lat="44.71756" lon="4.49285">
        <ele>782.42</ele>
        <time>2022-03-22T17:06:19Z</time>
      </trkpt>
      <trkpt lat="44.71773" lon="4.49287">
        <ele>784.74</ele>
        <time>2022-03-22T17:06:22Z</time>
      </trkpt>
      <trkpt lat="44.718" lon="4.49286">
        <ele>789.29</ele>
        <time>2022-03-22T17:06:25Z</time>
      </trkpt>
      <trkpt lat="44.71826" lon="4.49291">
        <ele>789.09</ele>
        <time>2022-03-22T17:06:28Z</time>
      </trkpt>
      <trkpt lat="44.71864" lon="4.493">
        <ele>783.32</ele>
        <time>2022-03-22T17:06:31Z</time>
      </trkpt>
      <trkpt lat="44.71899" lon="4.49311">
        <ele>782.11</ele>
        <time>2022-03-22T17:06:34Z</time>
      </trkpt>
      <trkpt lat="44.71919" lon="4.49321">
        <ele>782.24</ele>
        <time>2022-03-22T17:06:38Z</time>
      </trkpt>
      <trkpt lat="44.71937" lon="4.49337">
        <ele>782.47</ele>
        <time>2022-03-22T17:06:41Z</time>
      </trkpt>
      <trkpt lat="44.71948" lon="4.49351">
        <ele>780.8</ele>
        <time>2022-03-22T17:06:44Z</time>
      </trkpt>
      <trkpt lat="44.71957" lon="4.49369">
        <ele>778.32</ele>
        <time>2022-03-22T17:06:47Z</time>
      </trkpt>
      <trkpt lat="44.7197" lon="4.49406">
        <ele>772.73</ele>
        <time>2022-03-22T17:06:50Z</time>
      </trkpt>
      <trkpt lat="44.7199" lon="4.49437">
        <ele>771.82</ele>
        <time>2022-03-22T17:06:53Z</time>
      </trkpt>
      <trkpt lat="44.7203" lon="4.49483">
        <ele>772.1</ele>
        <time>2022-03-22T17:06:56Z</time>
      </trkpt>
      <trkpt lat="44.7204" lon="4.49492">
        <ele>770.52</ele>
        <time>2022-03-22T17:06:59Z</time>
      </trkpt>
      <trkpt lat="44.72053" lon="4.495">
        <ele>769.11</ele>
        <time>2022-03-22T17:07:02Z</time>
      </trkpt>
      <trkpt lat="44.72064" lon="4.49503">
        <ele>768.7</ele>
        <time>2022-03-22T17:07:05Z</time>
      </trkpt>
      <trkpt lat="44.72082" lon="4.49504">
        <ele>768.89</ele>
        <time>2022-03-22T17:07:08Z</time>
      </trkpt>
      <trkpt lat="44.72128" lon="4.49493">
        <ele>768.12</ele>
        <time>2022-03-22T17:07:11Z</time>
      </trkpt>
      <trkpt lat="44.72153" lon="4.49494">
        <ele>765.47</ele>
        <time>2022-03-22T17:07:14Z</time>
      </trkpt>
      <trkpt lat="44.72192" lon="4.49507">
        <ele>759.85</ele>
        <time>2022-03-22T17:07:17Z</time>
      </trkpt>
      <trkpt lat="44.72205" lon="4.49514">
        <ele>759.05</ele>
        <time>2022-03-22T17:07:20Z</time>
      </trkpt>
      <trkpt lat="44.72217" lon="4.49523">
        <ele>757.74</ele>
        <time>2022-03-22T17:07:23Z</time>
      </trkpt>
      <trkpt lat="44.72236" lon="4.49544">
        <ele>754.49</ele>
        <time>2022-03-22T17:07:26Z</time>
      </trkpt>
      <trkpt lat="44.72255" lon="4.4955">
        <ele>754.48</ele>
        <time>2022-03-22T17:07:29Z</time>
      </trkpt>
      <trkpt lat="44.72343" lon="4.49534">
        <ele>752.46</ele>
        <time>2022-03-22T17:07:32Z</time>
      </trkpt>
      <trkpt lat="44.72368" lon="4.49533">
        <ele>751.26</ele>
        <time>2022-03-22T17:07:35Z</time>
      </trkpt>
      <trkpt lat="44.7244" lon="4.4954">
        <ele>745.69</ele>
        <time>2022-03-22T17:07:38Z</time>
      </trkpt>
      <trkpt lat="44.72457" lon="4.49545">
        <ele>743.5</ele>
        <time>2022-03-22T17:07:41Z</time>
      </trkpt>
      <trkpt lat="44.72549" lon="4.49592">
        <ele>733.07</ele>
        <time>2022-03-22T17:07:45Z</time>
      </trkpt>
      <trkpt lat="44.72571" lon="4.49609">
        <ele>728.74</ele>
        <time>2022-03-22T17:07:48Z</time>
      </trkpt>
      <trkpt lat="44.72591" lon="4.49617">
        <ele>726.58</ele>
        <time>2022-03-22T17:07:51Z</time>
      </trkpt>
      <trkpt lat="44.72608" lon="4.49636">
        <ele>725.16</ele>
        <time>2022-03-22T17:07:54Z</time>
      </trkpt>
      <trkpt lat="44.72616" lon="4.49646">
        <ele>724.78</ele>
        <time>2022-03-22T17:07:57Z</time>
      </trkpt>
      <trkpt lat="44.72623" lon="4.49664">
        <ele>723.57</ele>
        <time>2022-03-22T17:08:00Z</time>
      </trkpt>
      <trkpt lat="44.72639" lon="4.49691">
        <ele>721.5</ele>
        <time>2022-03-22T17:08:03Z</time>
      </trkpt>
      <trkpt lat="44.72696" lon="4.49877">
        <ele>713.13</ele>
        <time>2022-03-22T17:08:06Z</time>
      </trkpt>
      <trkpt lat="44.72756" lon="4.50049">
        <ele>705.7</ele>
        <time>2022-03-22T17:08:09Z</time>
      </trkpt>
      <trkpt lat="44.7282" lon="4.50287">
        <ele>704.56</ele>
        <time>2022-03-22T17:08:12Z</time>
      </trkpt>
      <trkpt lat="44.7286" lon="4.50446">
        <ele>700.09</ele>
        <time>2022-03-22T17:08:15Z</time>
      </trkpt>
      <trkpt lat="44.72863" lon="4.50483">
        <ele>698.73</ele>
        <time>2022-03-22T17:08:18Z</time>
      </trkpt>
      <trkpt lat="44.72857" lon="4.50516">
        <ele>697.18</ele>
        <time>2022-03-22T17:08:21Z</time>
      </trkpt>
      <trkpt lat="44.72829" lon="4.50604">
        <ele>696.55</ele>
        <time>2022-03-22T17:08:24Z</time>
      </trkpt>
      <trkpt lat="44.72825" lon="4.5063">
        <ele>695.07</ele>
        <time>2022-03-22T17:08:27Z</time>
      </trkpt>
      <trkpt lat="44.72825" lon="4.5065">
        <ele>693.87</ele>
        <time>2022-03-22T17:08:30Z</time>
      </trkpt>
      <trkpt lat="44.72827" lon="4.50692">
        <ele>691.73</ele>
        <time>2022-03-22T17:08:33Z</time>
      </trkpt>
      <trkpt lat="44.72827" lon="4.50717">
        <ele>690.4</ele>
        <time>2022-03-22T17:08:36Z</time>
      </trkpt>
      <trkpt lat="44.72823" lon="4.50741">
        <ele>689.25</ele>
        <time>2022-03-22T17:08:39Z</time>
      </trkpt>
      <trkpt lat="44.72801" lon="4.50817">
        <ele>684.53</ele>
        <time>2022-03-22T17:08:42Z</time>
      </trkpt>
      <trkpt lat="44.72794" lon="4.50835">
        <ele>685.53</ele>
        <time>2022-03-22T17:08:45Z</time>
      </trkpt>
      <trkpt lat="44.72788" lon="4.50846">
        <ele>685.93</ele>
        <time>2022-03-22T17:08:48Z</time>
      </trkpt>
      <trkpt lat="44.72779" lon="4.50856">
        <ele>686.39</ele>
        <time>2022-03-22T17:08:51Z</time>
      </trkpt>
      <trkpt lat="44.72767" lon="4.50863">
        <ele>686.1</ele>
        <time>2022-03-22T17:08:55Z</time>
      </trkpt>
      <trkpt lat="44.72735" lon="4.50873">
        <ele>685.57</ele>
        <time>2022-03-22T17:08:58Z</time>
      </trkpt>
      <trkpt lat="44.72664" lon="4.50888">
        <ele>680.34</ele>
        <time>2022-03-22T17:09:01Z</time>
      </trkpt>
      <trkpt lat="44.72651" lon="4.50893">
        <ele>679.5</ele>
        <time>2022-03-22T17:09:04Z</time>
      </trkpt>
      <trkpt lat="44.72608" lon="4.5092">
        <ele>682.75</ele>
        <time>2022-03-22T17:09:07Z</time>
      </trkpt>
      <trkpt lat="44.72597" lon="4.5092">
        <ele>682.45</ele>
        <time>2022-03-22T17:09:10Z</time>
      </trkpt>
      <trkpt lat="44.72571" lon="4.50914">
        <ele>678.78</ele>
        <time>2022-03-22T17:09:13Z</time>
      </trkpt>
      <trkpt lat="44.72556" lon="4.50914">
        <ele>677.2</ele>
        <time>2022-03-22T17:09:16Z</time>
      </trkpt>
      <trkpt lat="44.72541" lon="4.50921">
        <ele>675</ele>
        <time>2022-03-22T17:09:19Z</time>
      </trkpt>
      <trkpt lat="44.72524" lon="4.50935">
        <ele>674.24</ele>
        <time>2022-03-22T17:09:22Z</time>
      </trkpt>
      <trkpt lat="44.72485" lon="4.50977">
        <ele>677.18</ele>
        <time>2022-03-22T17:09:25Z</time>
      </trkpt>
      <trkpt lat="44.72473" lon="4.50986">
        <ele>676.59</ele>
        <time>2022-03-22T17:09:28Z</time>
      </trkpt>
      <trkpt lat="44.72461" lon="4.50988">
        <ele>676</ele>
        <time>2022-03-22T17:09:31Z</time>
      </trkpt>
      <trkpt lat="44.7245" lon="4.50988">
        <ele>674.79</ele>
        <time>2022-03-22T17:09:34Z</time>
      </trkpt>
      <trkpt lat="44.72442" lon="4.50983">
        <ele>673.68</ele>
        <time>2022-03-22T17:09:37Z</time>
      </trkpt>
      <trkpt lat="44.72395" lon="4.50945">
        <ele>665.91</ele>
        <time>2022-03-22T17:09:40Z</time>
      </trkpt>
      <trkpt lat="44.72386" lon="4.50941">
        <ele>665.01</ele>
        <time>2022-03-22T17:09:43Z</time>
      </trkpt>
      <trkpt lat="44.72377" lon="4.50942">
        <ele>664.65</ele>
        <time>2022-03-22T17:09:46Z</time>
      </trkpt>
      <trkpt lat="44.72366" lon="4.50948">
        <ele>665.25</ele>
        <time>2022-03-22T17:09:49Z</time>
      </trkpt>
      <trkpt lat="44.72334" lon="4.50986">
        <ele>669.48</ele>
        <time>2022-03-22T17:09:52Z</time>
      </trkpt>
      <trkpt lat="44.72307" lon="4.51008">
        <ele>668.96</ele>
        <time>2022-03-22T17:09:55Z</time>
      </trkpt>
      <trkpt lat="44.72272" lon="4.51033">
        <ele>665.76</ele>
        <time>2022-03-22T17:09:58Z</time>
      </trkpt>
      <trkpt lat="44.72258" lon="4.51051">
        <ele>663.57</ele>
        <time>2022-03-22T17:10:02Z</time>
      </trkpt>
      <trkpt lat="44.72253" lon="4.51065">
        <ele>663.04</ele>
        <time>2022-03-22T17:10:05Z</time>
      </trkpt>
      <trkpt lat="44.72251" lon="4.51081">
        <ele>663.24</ele>
        <time>2022-03-22T17:10:08Z</time>
      </trkpt>
      <trkpt lat="44.72265" lon="4.51219">
        <ele>658.4</ele>
        <time>2022-03-22T17:10:11Z</time>
      </trkpt>
      <trkpt lat="44.72271" lon="4.51244">
        <ele>656.03</ele>
        <time>2022-03-22T17:10:14Z</time>
      </trkpt>
      <trkpt lat="44.72312" lon="4.51316">
        <ele>656.17</ele>
        <time>2022-03-22T17:10:17Z</time>
      </trkpt>
      <trkpt lat="44.72362" lon="4.51395">
        <ele>652.59</ele>
        <time>2022-03-22T17:10:20Z</time>
      </trkpt>
      <trkpt lat="44.72372" lon="4.51416">
        <ele>649.6</ele>
        <time>2022-03-22T17:10:23Z</time>
      </trkpt>
      <trkpt lat="44.72378" lon="4.51435">
        <ele>649.67</ele>
        <time>2022-03-22T17:10:26Z</time>
      </trkpt>
      <trkpt lat="44.7238" lon="4.51455">
        <ele>648.89</ele>
        <time>2022-03-22T17:10:29Z</time>
      </trkpt>
      <trkpt lat="44.72379" lon="4.51463">
        <ele>648.36</ele>
        <time>2022-03-22T17:10:32Z</time>
      </trkpt>
      <trkpt lat="44.72367" lon="4.51521">
        <ele>646.21</ele>
        <time>2022-03-22T17:10:35Z</time>
      </trkpt>
      <trkpt lat="44.72365" lon="4.51539">
        <ele>646.38</ele>
        <time>2022-03-22T17:10:38Z</time>
      </trkpt>
      <trkpt lat="44.72369" lon="4.51569">
        <ele>646.83</ele>
        <time>2022-03-22T17:10:41Z</time>
      </trkpt>
      <trkpt lat="44.72392" lon="4.51608">
        <ele>645.43</ele>
        <time>2022-03-22T17:10:44Z</time>
      </trkpt>
      <trkpt lat="44.72401" lon="4.51627">
        <ele>644.45</ele>
        <time>2022-03-22T17:10:47Z</time>
      </trkpt>
      <trkpt lat="44.72407" lon="4.51652">
        <ele>642.14</ele>
        <time>2022-03-22T17:10:50Z</time>
      </trkpt>
      <trkpt lat="44.72408" lon="4.51683">
        <ele>638.38</ele>
        <time>2022-03-22T17:10:53Z</time>
      </trkpt>
      <trkpt lat="44.72401" lon="4.51752">
        <ele>634.36</ele>
        <time>2022-03-22T17:10:56Z</time>
      </trkpt>
      <trkpt lat="44.72395" lon="4.51772">
        <ele>634.8</ele>
        <time>2022-03-22T17:10:59Z</time>
      </trkpt>
      <trkpt lat="44.72387" lon="4.5179">
        <ele>635.02</ele>
        <time>2022-03-22T17:11:02Z</time>
      </trkpt>
      <trkpt lat="44.7237" lon="4.51813">
        <ele>634.63</ele>
        <time>2022-03-22T17:11:05Z</time>
      </trkpt>
      <trkpt lat="44.7234" lon="4.51843">
        <ele>630.12</ele>
        <time>2022-03-22T17:11:09Z</time>
      </trkpt>
      <trkpt lat="44.72328" lon="4.5186">
        <ele>629.2</ele>
        <time>2022-03-22T17:11:12Z</time>
      </trkpt>
      <trkpt lat="44.72318" lon="4.51879">
        <ele>626.9</ele>
        <time>2022-03-22T17:11:15Z</time>
      </trkpt>
      <trkpt lat="44.72256" lon="4.52033">
        <ele>622.24</ele>
        <time>2022-03-22T17:11:18Z</time>
      </trkpt>
      <trkpt lat="44.7225" lon="4.52063">
        <ele>621.72</ele>
        <time>2022-03-22T17:11:21Z</time>
      </trkpt>
      <trkpt lat="44.72249" lon="4.52137">
        <ele>624.35</ele>
        <time>2022-03-22T17:11:24Z</time>
      </trkpt>
      <trkpt lat="44.7225" lon="4.52168">
        <ele>621.97</ele>
        <time>2022-03-22T17:11:27Z</time>
      </trkpt>
      <trkpt lat="44.72254" lon="4.52196">
        <ele>621.01</ele>
        <time>2022-03-22T17:11:30Z</time>
      </trkpt>
      <trkpt lat="44.72264" lon="4.52229">
        <ele>622.29</ele>
        <time>2022-03-22T17:11:33Z</time>
      </trkpt>
      <trkpt lat="44.72322" lon="4.52354">
        <ele>619.37</ele>
        <time>2022-03-22T17:11:36Z</time>
      </trkpt>
      <trkpt lat="44.7233" lon="4.52383">
        <ele>617.93</ele>
        <time>2022-03-22T17:11:39Z</time>
      </trkpt>
      <trkpt lat="44.72341" lon="4.52439">
        <ele>612.82</ele>
        <time>2022-03-22T17:11:42Z</time>
      </trkpt>
      <trkpt lat="44.72347" lon="4.52481">
        <ele>612.35</ele>
        <time>2022-03-22T17:11:45Z</time>
      </trkpt>
      <trkpt lat="44.72347" lon="4.52499">
        <ele>612.4</ele>
        <time>2022-03-22T17:11:48Z</time>
      </trkpt>
      <trkpt lat="44.72345" lon="4.52516">
        <ele>612.24</ele>
        <time>2022-03-22T17:11:51Z</time>
      </trkpt>
      <trkpt lat="44.72337" lon="4.5254">
        <ele>610.28</ele>
        <time>2022-03-22T17:11:54Z</time>
      </trkpt>
      <trkpt lat="44.72299" lon="4.52612">
        <ele>603.03</ele>
        <time>2022-03-22T17:11:57Z</time>
      </trkpt>
      <trkpt lat="44.72275" lon="4.52652">
        <ele>601.11</ele>
        <time>2022-03-22T17:12:00Z</time>
      </trkpt>
      <trkpt lat="44.7226" lon="4.52666">
        <ele>600.91</ele>
        <time>2022-03-22T17:12:03Z</time>
      </trkpt>
      <trkpt lat="44.72245" lon="4.52674">
        <ele>601.11</ele>
        <time>2022-03-22T17:12:06Z</time>
      </trkpt>
      <trkpt lat="44.7216" lon="4.52706">
        <ele>601.33</ele>
        <time>2022-03-22T17:12:09Z</time>
      </trkpt>
      <trkpt lat="44.72135" lon="4.5271">
        <ele>596.28</ele>
        <time>2022-03-22T17:12:12Z</time>
      </trkpt>
      <trkpt lat="44.72116" lon="4.52706">
        <ele>593.01</ele>
        <time>2022-03-22T17:12:16Z</time>
      </trkpt>
      <trkpt lat="44.72102" lon="4.52699">
        <ele>591.11</ele>
        <time>2022-03-22T17:12:19Z</time>
      </trkpt>
      <trkpt lat="44.72075" lon="4.52681">
        <ele>589.9</ele>
        <time>2022-03-22T17:12:22Z</time>
      </trkpt>
      <trkpt lat="44.72057" lon="4.52677">
        <ele>589.41</ele>
        <time>2022-03-22T17:12:25Z</time>
      </trkpt>
      <trkpt lat="44.7204" lon="4.52684">
        <ele>585.79</ele>
        <time>2022-03-22T17:12:28Z</time>
      </trkpt>
      <trkpt lat="44.72029" lon="4.52695">
        <ele>583.28</ele>
        <time>2022-03-22T17:12:31Z</time>
      </trkpt>
      <trkpt lat="44.72021" lon="4.52709">
        <ele>580.74</ele>
        <time>2022-03-22T17:12:34Z</time>
      </trkpt>
      <trkpt lat="44.72016" lon="4.52725">
        <ele>579.14</ele>
        <time>2022-03-22T17:12:37Z</time>
      </trkpt>
      <trkpt lat="44.72015" lon="4.52749">
        <ele>578.82</ele>
        <time>2022-03-22T17:12:40Z</time>
      </trkpt>
      <trkpt lat="44.72019" lon="4.5284">
        <ele>583.14</ele>
        <time>2022-03-22T17:12:43Z</time>
      </trkpt>
      <trkpt lat="44.72018" lon="4.52854">
        <ele>585.41</ele>
        <time>2022-03-22T17:12:46Z</time>
      </trkpt>
      <trkpt lat="44.72016" lon="4.52865">
        <ele>586.23</ele>
        <time>2022-03-22T17:12:49Z</time>
      </trkpt>
      <trkpt lat="44.72008" lon="4.52888">
        <ele>585.7</ele>
        <time>2022-03-22T17:12:52Z</time>
      </trkpt>
      <trkpt lat="44.72" lon="4.52901">
        <ele>583.93</ele>
        <time>2022-03-22T17:12:55Z</time>
      </trkpt>
      <trkpt lat="44.7196" lon="4.52938">
        <ele>570.97</ele>
        <time>2022-03-22T17:12:58Z</time>
      </trkpt>
      <trkpt lat="44.71951" lon="4.52954">
        <ele>570.02</ele>
        <time>2022-03-22T17:13:01Z</time>
      </trkpt>
      <trkpt lat="44.71946" lon="4.52974">
        <ele>569.88</ele>
        <time>2022-03-22T17:13:04Z</time>
      </trkpt>
      <trkpt lat="44.71944" lon="4.52998">
        <ele>572.61</ele>
        <time>2022-03-22T17:13:07Z</time>
      </trkpt>
      <trkpt lat="44.71952" lon="4.53073">
        <ele>573.73</ele>
        <time>2022-03-22T17:13:10Z</time>
      </trkpt>
      <trkpt lat="44.71951" lon="4.53106">
        <ele>574.17</ele>
        <time>2022-03-22T17:13:13Z</time>
      </trkpt>
      <trkpt lat="44.71933" lon="4.53215">
        <ele>572.94</ele>
        <time>2022-03-22T17:13:16Z</time>
      </trkpt>
      <trkpt lat="44.7193" lon="4.53246">
        <ele>570.6</ele>
        <time>2022-03-22T17:13:19Z</time>
      </trkpt>
      <trkpt lat="44.71933" lon="4.53269">
        <ele>569.17</ele>
        <time>2022-03-22T17:13:23Z</time>
      </trkpt>
      <trkpt lat="44.71939" lon="4.53284">
        <ele>568.24</ele>
        <time>2022-03-22T17:13:26Z</time>
      </trkpt>
      <trkpt lat="44.71949" lon="4.53294">
        <ele>566.68</ele>
        <time>2022-03-22T17:13:29Z</time>
      </trkpt>
      <trkpt lat="44.71963" lon="4.533">
        <ele>563.23</ele>
        <time>2022-03-22T17:13:32Z</time>
      </trkpt>
      <trkpt lat="44.71988" lon="4.53305">
        <ele>564.22</ele>
        <time>2022-03-22T17:13:35Z</time>
      </trkpt>
      <trkpt lat="44.72058" lon="4.53308">
        <ele>569.41</ele>
        <time>2022-03-22T17:13:38Z</time>
      </trkpt>
      <trkpt lat="44.7207" lon="4.53311">
        <ele>568.74</ele>
        <time>2022-03-22T17:13:41Z</time>
      </trkpt>
      <trkpt lat="44.7208" lon="4.53317">
        <ele>567.89</ele>
        <time>2022-03-22T17:13:44Z</time>
      </trkpt>
      <trkpt lat="44.72091" lon="4.53326">
        <ele>567.85</ele>
        <time>2022-03-22T17:13:47Z</time>
      </trkpt>
      <trkpt lat="44.721" lon="4.53339">
        <ele>566.49</ele>
        <time>2022-03-22T17:13:50Z</time>
      </trkpt>
      <trkpt lat="44.72107" lon="4.53357">
        <ele>563.96</ele>
        <time>2022-03-22T17:13:53Z</time>
      </trkpt>
      <trkpt lat="44.72118" lon="4.5341">
        <ele>562.84</ele>
        <time>2022-03-22T17:13:56Z</time>
      </trkpt>
      <trkpt lat="44.7212" lon="4.53429">
        <ele>562.27</ele>
        <time>2022-03-22T17:13:59Z</time>
      </trkpt>
      <trkpt lat="44.72119" lon="4.53439">
        <ele>561.4</ele>
        <time>2022-03-22T17:14:02Z</time>
      </trkpt>
      <trkpt lat="44.72113" lon="4.53463">
        <ele>560.03</ele>
        <time>2022-03-22T17:14:05Z</time>
      </trkpt>
      <trkpt lat="44.72096" lon="4.53509">
        <ele>553.83</ele>
        <time>2022-03-22T17:14:08Z</time>
      </trkpt>
      <trkpt lat="44.72095" lon="4.53525">
        <ele>553.06</ele>
        <time>2022-03-22T17:14:11Z</time>
      </trkpt>
      <trkpt lat="44.72101" lon="4.5354">
        <ele>553.52</ele>
        <time>2022-03-22T17:14:14Z</time>
      </trkpt>
      <trkpt lat="44.72107" lon="4.53549">
        <ele>553.95</ele>
        <time>2022-03-22T17:14:17Z</time>
      </trkpt>
      <trkpt lat="44.72116" lon="4.53556">
        <ele>554.98</ele>
        <time>2022-03-22T17:14:20Z</time>
      </trkpt>
      <trkpt lat="44.7213" lon="4.53562">
        <ele>556.67</ele>
        <time>2022-03-22T17:14:23Z</time>
      </trkpt>
      <trkpt lat="44.72146" lon="4.53572">
        <ele>558.31</ele>
        <time>2022-03-22T17:14:26Z</time>
      </trkpt>
      <trkpt lat="44.72153" lon="4.53582">
        <ele>558.73</ele>
        <time>2022-03-22T17:14:29Z</time>
      </trkpt>
      <trkpt lat="44.7216" lon="4.53602">
        <ele>558.56</ele>
        <time>2022-03-22T17:14:33Z</time>
      </trkpt>
      <trkpt lat="44.72163" lon="4.53621">
        <ele>557.69</ele>
        <time>2022-03-22T17:14:36Z</time>
      </trkpt>
      <trkpt lat="44.72156" lon="4.53673">
        <ele>550.07</ele>
        <time>2022-03-22T17:14:39Z</time>
      </trkpt>
      <trkpt lat="44.72156" lon="4.53689">
        <ele>548.38</ele>
        <time>2022-03-22T17:14:42Z</time>
      </trkpt>
      <trkpt lat="44.72157" lon="4.53705">
        <ele>547.63</ele>
        <time>2022-03-22T17:14:45Z</time>
      </trkpt>
      <trkpt lat="44.72177" lon="4.53805">
        <ele>543.69</ele>
        <time>2022-03-22T17:14:48Z</time>
      </trkpt>
      <trkpt lat="44.72186" lon="4.53828">
        <ele>544.88</ele>
        <time>2022-03-22T17:14:51Z</time>
      </trkpt>
      <trkpt lat="44.72221" lon="4.53881">
        <ele>549.65</ele>
        <time>2022-03-22T17:14:54Z</time>
      </trkpt>
      <trkpt lat="44.7224" lon="4.53901">
        <ele>549.56</ele>
        <time>2022-03-22T17:14:57Z</time>
      </trkpt>
      <trkpt lat="44.7231" lon="4.53952">
        <ele>542.16</ele>
        <time>2022-03-22T17:15:00Z</time>
      </trkpt>
      <trkpt lat="44.72323" lon="4.53957">
        <ele>540.96</ele>
        <time>2022-03-22T17:15:03Z</time>
      </trkpt>
      <trkpt lat="44.72332" lon="4.53956">
        <ele>541.76</ele>
        <time>2022-03-22T17:15:06Z</time>
      </trkpt>
      <trkpt lat="44.72357" lon="4.53948">
        <ele>545.44</ele>
        <time>2022-03-22T17:15:09Z</time>
      </trkpt>
      <trkpt lat="44.72369" lon="4.53947">
        <ele>546.89</ele>
        <time>2022-03-22T17:15:12Z</time>
      </trkpt>
      <trkpt lat="44.72381" lon="4.5395">
        <ele>546.81</ele>
        <time>2022-03-22T17:15:15Z</time>
      </trkpt>
      <trkpt lat="44.72392" lon="4.53958">
        <ele>545.49</ele>
        <time>2022-03-22T17:15:18Z</time>
      </trkpt>
      <trkpt lat="44.72402" lon="4.53976">
        <ele>543.16</ele>
        <time>2022-03-22T17:15:21Z</time>
      </trkpt>
      <trkpt lat="44.72432" lon="4.54057">
        <ele>533.12</ele>
        <time>2022-03-22T17:15:24Z</time>
      </trkpt>
      <trkpt lat="44.72445" lon="4.54073">
        <ele>532.78</ele>
        <time>2022-03-22T17:15:27Z</time>
      </trkpt>
      <trkpt lat="44.72471" lon="4.54095">
        <ele>529.4</ele>
        <time>2022-03-22T17:15:30Z</time>
      </trkpt>
      <trkpt lat="44.72511" lon="4.54122">
        <ele>526.08</ele>
        <time>2022-03-22T17:15:33Z</time>
      </trkpt>
      <trkpt lat="44.72542" lon="4.54156">
        <ele>524.48</ele>
        <time>2022-03-22T17:15:36Z</time>
      </trkpt>
      <trkpt lat="44.72552" lon="4.54166">
        <ele>523.91</ele>
        <time>2022-03-22T17:15:40Z</time>
      </trkpt>
      <trkpt lat="44.72561" lon="4.54171">
        <ele>523.24</ele>
        <time>2022-03-22T17:15:43Z</time>
      </trkpt>
      <trkpt lat="44.72573" lon="4.54173">
        <ele>521.9</ele>
        <time>2022-03-22T17:15:46Z</time>
      </trkpt>
      <trkpt lat="44.72619" lon="4.54173">
        <ele>518.11</ele>
        <time>2022-03-22T17:15:49Z</time>
      </trkpt>
      <trkpt lat="44.72653" lon="4.54191">
        <ele>516.13</ele>
        <time>2022-03-22T17:15:52Z</time>
      </trkpt>
      <trkpt lat="44.72666" lon="4.54195">
        <ele>516.7</ele>
        <time>2022-03-22T17:15:55Z</time>
      </trkpt>
      <trkpt lat="44.72688" lon="4.54194">
        <ele>514.06</ele>
        <time>2022-03-22T17:15:58Z</time>
      </trkpt>
      <trkpt lat="44.72697" lon="4.54189">
        <ele>513.37</ele>
        <time>2022-03-22T17:16:01Z</time>
      </trkpt>
      <trkpt lat="44.72704" lon="4.5418">
        <ele>512.77</ele>
        <time>2022-03-22T17:16:04Z</time>
      </trkpt>
      <trkpt lat="44.7271" lon="4.54169">
        <ele>512.73</ele>
        <time>2022-03-22T17:16:07Z</time>
      </trkpt>
      <trkpt lat="44.72727" lon="4.54113">
        <ele>512.4</ele>
        <time>2022-03-22T17:16:10Z</time>
      </trkpt>
      <trkpt lat="44.72733" lon="4.54099">
        <ele>510.78</ele>
        <time>2022-03-22T17:16:13Z</time>
      </trkpt>
      <trkpt lat="44.72754" lon="4.5407">
        <ele>504.22</ele>
        <time>2022-03-22T17:16:16Z</time>
      </trkpt>
      <trkpt lat="44.72761" lon="4.54054">
        <ele>503.07</ele>
        <time>2022-03-22T17:16:19Z</time>
      </trkpt>
      <trkpt lat="44.72763" lon="4.54042">
        <ele>503.37</ele>
        <time>2022-03-22T17:16:22Z</time>
      </trkpt>
      <trkpt lat="44.72763" lon="4.54026">
        <ele>504.8</ele>
        <time>2022-03-22T17:16:25Z</time>
      </trkpt>
      <trkpt lat="44.72757" lon="4.53985">
        <ele>509.94</ele>
        <time>2022-03-22T17:16:28Z</time>
      </trkpt>
      <trkpt lat="44.72756" lon="4.53965">
        <ele>511.69</ele>
        <time>2022-03-22T17:16:31Z</time>
      </trkpt>
      <trkpt lat="44.72759" lon="4.53952">
        <ele>511.7</ele>
        <time>2022-03-22T17:16:34Z</time>
      </trkpt>
      <trkpt lat="44.72765" lon="4.5394">
        <ele>510.38</ele>
        <time>2022-03-22T17:16:37Z</time>
      </trkpt>
      <trkpt lat="44.72773" lon="4.53933">
        <ele>507.74</ele>
        <time>2022-03-22T17:16:40Z</time>
      </trkpt>
      <trkpt lat="44.72785" lon="4.5393">
        <ele>506.17</ele>
        <time>2022-03-22T17:16:43Z</time>
      </trkpt>
      <trkpt lat="44.72797" lon="4.53934">
        <ele>505.97</ele>
        <time>2022-03-22T17:16:47Z</time>
      </trkpt>
      <trkpt lat="44.72805" lon="4.53942">
        <ele>505.25</ele>
        <time>2022-03-22T17:16:50Z</time>
      </trkpt>
      <trkpt lat="44.7286" lon="4.54059">
        <ele>491.55</ele>
        <time>2022-03-22T17:16:53Z</time>
      </trkpt>
      <trkpt lat="44.72866" lon="4.54073">
        <ele>492.01</ele>
        <time>2022-03-22T17:16:56Z</time>
      </trkpt>
      <trkpt lat="44.72867" lon="4.54083">
        <ele>491.72</ele>
        <time>2022-03-22T17:16:59Z</time>
      </trkpt>
      <trkpt lat="44.72866" lon="4.54122">
        <ele>491.75</ele>
        <time>2022-03-22T17:17:02Z</time>
      </trkpt>
      <trkpt lat="44.72861" lon="4.54169">
        <ele>490.46</ele>
        <time>2022-03-22T17:17:05Z</time>
      </trkpt>
      <trkpt lat="44.72862" lon="4.5419">
        <ele>487.13</ele>
        <time>2022-03-22T17:17:08Z</time>
      </trkpt>
      <trkpt lat="44.72882" lon="4.54295">
        <ele>489.5</ele>
        <time>2022-03-22T17:17:11Z</time>
      </trkpt>
      <trkpt lat="44.72881" lon="4.54314">
        <ele>490.51</ele>
        <time>2022-03-22T17:17:14Z</time>
      </trkpt>
      <trkpt lat="44.72867" lon="4.54372">
        <ele>490.19</ele>
        <time>2022-03-22T17:17:17Z</time>
      </trkpt>
      <trkpt lat="44.7285" lon="4.54422">
        <ele>488.5</ele>
        <time>2022-03-22T17:17:20Z</time>
      </trkpt>
      <trkpt lat="44.72843" lon="4.54435">
        <ele>489.49</ele>
        <time>2022-03-22T17:17:23Z</time>
      </trkpt>
      <trkpt lat="44.72832" lon="4.54449">
        <ele>490.05</ele>
        <time>2022-03-22T17:17:26Z</time>
      </trkpt>
      <trkpt lat="44.72813" lon="4.54463">
        <ele>488.54</ele>
        <time>2022-03-22T17:17:29Z</time>
      </trkpt>
      <trkpt lat="44.72766" lon="4.54483">
        <ele>482.34</ele>
        <time>2022-03-22T17:17:32Z</time>
      </trkpt>
      <trkpt lat="44.72748" lon="4.54501">
        <ele>480.89</ele>
        <time>2022-03-22T17:17:35Z</time>
      </trkpt>
      <trkpt lat="44.72732" lon="4.54536">
        <ele>478.52</ele>
        <time>2022-03-22T17:17:38Z</time>
      </trkpt>
      <trkpt lat="44.7272" lon="4.54575">
        <ele>479.21</ele>
        <time>2022-03-22T17:17:41Z</time>
      </trkpt>
      <trkpt lat="44.72704" lon="4.54606">
        <ele>477.14</ele>
        <time>2022-03-22T17:17:44Z</time>
      </trkpt>
      <trkpt lat="44.72682" lon="4.54639">
        <ele>475.47</ele>
        <time>2022-03-22T17:17:47Z</time>
      </trkpt>
      <trkpt lat="44.72668" lon="4.54664">
        <ele>473.22</ele>
        <time>2022-03-22T17:17:50Z</time>
      </trkpt>
      <trkpt lat="44.72625" lon="4.54763">
        <ele>463.76</ele>
        <time>2022-03-22T17:17:54Z</time>
      </trkpt>
      <trkpt lat="44.72617" lon="4.54797">
        <ele>464.92</ele>
        <time>2022-03-22T17:17:57Z</time>
      </trkpt>
      <trkpt lat="44.72607" lon="4.5485">
        <ele>464.96</ele>
        <time>2022-03-22T17:18:00Z</time>
      </trkpt>
      <trkpt lat="44.7258" lon="4.54916">
        <ele>461.24</ele>
        <time>2022-03-22T17:18:03Z</time>
      </trkpt>
      <trkpt lat="44.72574" lon="4.54938">
        <ele>460.54</ele>
        <time>2022-03-22T17:18:06Z</time>
      </trkpt>
      <trkpt lat="44.72568" lon="4.54984">
        <ele>461.89</ele>
        <time>2022-03-22T17:18:09Z</time>
      </trkpt>
      <trkpt lat="44.72566" lon="4.55016">
        <ele>464.04</ele>
        <time>2022-03-22T17:18:12Z</time>
      </trkpt>
      <trkpt lat="44.72567" lon="4.55043">
        <ele>462.38</ele>
        <time>2022-03-22T17:18:15Z</time>
      </trkpt>
      <trkpt lat="44.72573" lon="4.55077">
        <ele>459.63</ele>
        <time>2022-03-22T17:18:18Z</time>
      </trkpt>
      <trkpt lat="44.72641" lon="4.55294">
        <ele>448.86</ele>
        <time>2022-03-22T17:18:21Z</time>
      </trkpt>
      <trkpt lat="44.72656" lon="4.55324">
        <ele>449.21</ele>
        <time>2022-03-22T17:18:24Z</time>
      </trkpt>
      <trkpt lat="44.7269" lon="4.5537">
        <ele>448.61</ele>
        <time>2022-03-22T17:18:27Z</time>
      </trkpt>
      <trkpt lat="44.72704" lon="4.55386">
        <ele>446.88</ele>
        <time>2022-03-22T17:18:30Z</time>
      </trkpt>
      <trkpt lat="44.72728" lon="4.55403">
        <ele>444.82</ele>
        <time>2022-03-22T17:18:33Z</time>
      </trkpt>
      <trkpt lat="44.72762" lon="4.55431">
        <ele>443.09</ele>
        <time>2022-03-22T17:18:36Z</time>
      </trkpt>
      <trkpt lat="44.72772" lon="4.5545">
        <ele>442.17</ele>
        <time>2022-03-22T17:18:39Z</time>
      </trkpt>
      <trkpt lat="44.7278" lon="4.55471">
        <ele>440.64</ele>
        <time>2022-03-22T17:18:42Z</time>
      </trkpt>
      <trkpt lat="44.72785" lon="4.55498">
        <ele>440.11</ele>
        <time>2022-03-22T17:18:45Z</time>
      </trkpt>
      <trkpt lat="44.72787" lon="4.55556">
        <ele>439.25</ele>
        <time>2022-03-22T17:18:48Z</time>
      </trkpt>
      <trkpt lat="44.72785" lon="4.55583">
        <ele>436.95</ele>
        <time>2022-03-22T17:18:51Z</time>
      </trkpt>
      <trkpt lat="44.72771" lon="4.55638">
        <ele>434.74</ele>
        <time>2022-03-22T17:18:54Z</time>
      </trkpt>
      <trkpt lat="44.72768" lon="4.55657">
        <ele>434.11</ele>
        <time>2022-03-22T17:18:57Z</time>
      </trkpt>
      <trkpt lat="44.72767" lon="4.55673">
        <ele>433.63</ele>
        <time>2022-03-22T17:19:00Z</time>
      </trkpt>
      <trkpt lat="44.72775" lon="4.55716">
        <ele>432.05</ele>
        <time>2022-03-22T17:19:04Z</time>
      </trkpt>
      <trkpt lat="44.72792" lon="4.55781">
        <ele>433.09</ele>
        <time>2022-03-22T17:19:07Z</time>
      </trkpt>
      <trkpt lat="44.72796" lon="4.55804">
        <ele>433.71</ele>
        <time>2022-03-22T17:19:10Z</time>
      </trkpt>
      <trkpt lat="44.72797" lon="4.55836">
        <ele>433.38</ele>
        <time>2022-03-22T17:19:13Z</time>
      </trkpt>
      <trkpt lat="44.72791" lon="4.55881">
        <ele>429.79</ele>
        <time>2022-03-22T17:19:16Z</time>
      </trkpt>
      <trkpt lat="44.72791" lon="4.559">
        <ele>428.69</ele>
        <time>2022-03-22T17:19:19Z</time>
      </trkpt>
      <trkpt lat="44.72795" lon="4.5592">
        <ele>428.38</ele>
        <time>2022-03-22T17:19:22Z</time>
      </trkpt>
      <trkpt lat="44.72801" lon="4.55938">
        <ele>428.45</ele>
        <time>2022-03-22T17:19:25Z</time>
      </trkpt>
      <trkpt lat="44.72811" lon="4.55956">
        <ele>428.57</ele>
        <time>2022-03-22T17:19:28Z</time>
      </trkpt>
      <trkpt lat="44.72833" lon="4.55984">
        <ele>427.88</ele>
        <time>2022-03-22T17:19:31Z</time>
      </trkpt>
      <trkpt lat="44.72841" lon="4.55997">
        <ele>427.13</ele>
        <time>2022-03-22T17:19:34Z</time>
      </trkpt>
      <trkpt lat="44.72847" lon="4.56011">
        <ele>426.51</ele>
        <time>2022-03-22T17:19:37Z</time>
      </trkpt>
      <trkpt lat="44.7285" lon="4.56027">
        <ele>425.32</ele>
        <time>2022-03-22T17:19:40Z</time>
      </trkpt>
      <trkpt lat="44.72848" lon="4.56051">
        <ele>423.45</ele>
        <time>2022-03-22T17:19:43Z</time>
      </trkpt>
      <trkpt lat="44.72841" lon="4.56075">
        <ele>421.68</ele>
        <time>2022-03-22T17:19:46Z</time>
      </trkpt>
      <trkpt lat="44.72831" lon="4.56101">
        <ele>420.04</ele>
        <time>2022-03-22T17:19:49Z</time>
      </trkpt>
      <trkpt lat="44.72826" lon="4.56121">
        <ele>419.06</ele>
        <time>2022-03-22T17:19:52Z</time>
      </trkpt>
      <trkpt lat="44.72826" lon="4.56137">
        <ele>418.95</ele>
        <time>2022-03-22T17:19:55Z</time>
      </trkpt>
      <trkpt lat="44.72828" lon="4.56149">
        <ele>418.47</ele>
        <time>2022-03-22T17:19:58Z</time>
      </trkpt>
      <trkpt lat="44.72831" lon="4.56165">
        <ele>417.72</ele>
        <time>2022-03-22T17:20:01Z</time>
      </trkpt>
      <trkpt lat="44.7284" lon="4.56186">
        <ele>418.35</ele>
        <time>2022-03-22T17:20:04Z</time>
      </trkpt>
      <trkpt lat="44.72881" lon="4.56246">
        <ele>418.69</ele>
        <time>2022-03-22T17:20:07Z</time>
      </trkpt>
      <trkpt lat="44.72888" lon="4.56263">
        <ele>417.4</ele>
        <time>2022-03-22T17:20:11Z</time>
      </trkpt>
      <trkpt lat="44.72894" lon="4.56325">
        <ele>413.02</ele>
        <time>2022-03-22T17:20:14Z</time>
      </trkpt>
      <trkpt lat="44.72941" lon="4.56525">
        <ele>405.28</ele>
        <time>2022-03-22T17:20:17Z</time>
      </trkpt>
      <trkpt lat="44.72943" lon="4.56548">
        <ele>404.91</ele>
        <time>2022-03-22T17:20:20Z</time>
      </trkpt>
      <trkpt lat="44.72941" lon="4.56564">
        <ele>404.56</ele>
        <time>2022-03-22T17:20:23Z</time>
      </trkpt>
      <trkpt lat="44.72938" lon="4.56577">
        <ele>404.37</ele>
        <time>2022-03-22T17:20:26Z</time>
      </trkpt>
      <trkpt lat="44.72913" lon="4.56627">
        <ele>404.21</ele>
        <time>2022-03-22T17:20:29Z</time>
      </trkpt>
      <trkpt lat="44.72909" lon="4.56649">
        <ele>405.6</ele>
        <time>2022-03-22T17:20:32Z</time>
      </trkpt>
      <trkpt lat="44.72909" lon="4.56669">
        <ele>406.26</ele>
        <time>2022-03-22T17:20:35Z</time>
      </trkpt>
      <trkpt lat="44.72948" lon="4.56902">
        <ele>395.32</ele>
        <time>2022-03-22T17:20:38Z</time>
      </trkpt>
      <trkpt lat="44.72948" lon="4.56925">
        <ele>395.49</ele>
        <time>2022-03-22T17:20:41Z</time>
      </trkpt>
      <trkpt lat="44.72942" lon="4.56973">
        <ele>395.17</ele>
        <time>2022-03-22T17:20:44Z</time>
      </trkpt>
      <trkpt lat="44.72932" lon="4.57006">
        <ele>394.72</ele>
        <time>2022-03-22T17:20:47Z</time>
      </trkpt>
      <trkpt lat="44.72916" lon="4.57047">
        <ele>392.51</ele>
        <time>2022-03-22T17:20:50Z</time>
      </trkpt>
      <trkpt lat="44.72883" lon="4.5714">
        <ele>387.64</ele>
        <time>2022-03-22T17:20:53Z</time>
      </trkpt>
      <trkpt lat="44.72873" lon="4.57173">
        <ele>388.67</ele>
        <time>2022-03-22T17:20:56Z</time>
      </trkpt>
      <trkpt lat="44.72871" lon="4.572">
        <ele>389.43</ele>
        <time>2022-03-22T17:20:59Z</time>
      </trkpt>
      <trkpt lat="44.72873" lon="4.57232">
        <ele>389.11</ele>
        <time>2022-03-22T17:21:02Z</time>
      </trkpt>
      <trkpt lat="44.72953" lon="4.57592">
        <ele>370.59</ele>
        <time>2022-03-22T17:21:05Z</time>
      </trkpt>
      <trkpt lat="44.72994" lon="4.57776">
        <ele>365.91</ele>
        <time>2022-03-22T17:21:08Z</time>
      </trkpt>
      <trkpt lat="44.72994" lon="4.57776">
        <ele>365.91</ele>
        <time>2022-03-22T17:21:08Z</time>
      </trkpt>
      <trkpt lat="44.73008" lon="4.57836">
        <ele>361.13</ele>
        <time>2022-03-22T17:21:14Z</time>
      </trkpt>
      <trkpt lat="44.73048" lon="4.58002">
        <ele>359.53</ele>
        <time>2022-03-22T17:21:20Z</time>
      </trkpt>
      <trkpt lat="44.73065" lon="4.58041">
        <ele>358.13</ele>
        <time>2022-03-22T17:21:26Z</time>
      </trkpt>
      <trkpt lat="44.73077" lon="4.58059">
        <ele>357.73</ele>
        <time>2022-03-22T17:21:32Z</time>
      </trkpt>
      <trkpt lat="44.73198" lon="4.58217">
        <ele>353.26</ele>
        <time>2022-03-22T17:21:38Z</time>
      </trkpt>
      <trkpt lat="44.7321" lon="4.58263">
        <ele>349.24</ele>
        <time>2022-03-22T17:21:44Z</time>
      </trkpt>
      <trkpt lat="44.73218" lon="4.58314">
        <ele>346.86</ele>
        <time>2022-03-22T17:21:50Z</time>
      </trkpt>
      <trkpt lat="44.73229" lon="4.58371">
        <ele>348.28</ele>
        <time>2022-03-22T17:21:56Z</time>
      </trkpt>
      <trkpt lat="44.7324" lon="4.58451">
        <ele>346.47</ele>
        <time>2022-03-22T17:22:02Z</time>
      </trkpt>
      <trkpt lat="44.7325" lon="4.58511">
        <ele>346.54</ele>
        <time>2022-03-22T17:22:08Z</time>
      </trkpt>
      <trkpt lat="44.7325" lon="4.58557">
        <ele>344.1</ele>
        <time>2022-03-22T17:22:14Z</time>
      </trkpt>
      <trkpt lat="44.73241" lon="4.58601">
        <ele>342.9</ele>
        <time>2022-03-22T17:22:19Z</time>
      </trkpt>
      <trkpt lat="44.73206" lon="4.58704">
        <ele>338.66</ele>
        <time>2022-03-22T17:22:25Z</time>
      </trkpt>
      <trkpt lat="44.73221" lon="4.58707">
        <ele>339.87</ele>
        <time>2022-03-22T17:22:27Z</time>
      </trkpt>
      <trkpt lat="44.73227" lon="4.58723">
        <ele>340.5</ele>
        <time>2022-03-22T17:22:32Z</time>
      </trkpt>
      <trkpt lat="44.73228" lon="4.58739">
        <ele>341.89</ele>
        <time>2022-03-22T17:22:37Z</time>
      </trkpt>
      <trkpt lat="44.73194" lon="4.58894">
        <ele>351.65</ele>
        <time>2022-03-22T17:22:43Z</time>
      </trkpt>
      <trkpt lat="44.73191" lon="4.58929">
        <ele>354.88</ele>
        <time>2022-03-22T17:22:48Z</time>
      </trkpt>
      <trkpt lat="44.73196" lon="4.59025">
        <ele>353.65</ele>
        <time>2022-03-22T17:22:53Z</time>
      </trkpt>
      <trkpt lat="44.73202" lon="4.59057">
        <ele>352.11</ele>
        <time>2022-03-22T17:22:58Z</time>
      </trkpt>
      <trkpt lat="44.7321" lon="4.59078">
        <ele>351.57</ele>
        <time>2022-03-22T17:23:03Z</time>
      </trkpt>
      <trkpt lat="44.73223" lon="4.59096">
        <ele>351.35</ele>
        <time>2022-03-22T17:23:09Z</time>
      </trkpt>
      <trkpt lat="44.73383" lon="4.59225">
        <ele>353.11</ele>
        <time>2022-03-22T17:23:14Z</time>
      </trkpt>
      <trkpt lat="44.73418" lon="4.59233">
        <ele>352.68</ele>
        <time>2022-03-22T17:23:19Z</time>
      </trkpt>
      <trkpt lat="44.7345" lon="4.59252">
        <ele>348.64</ele>
        <time>2022-03-22T17:23:24Z</time>
      </trkpt>
      <trkpt lat="44.73474" lon="4.5927">
        <ele>344.02</ele>
        <time>2022-03-22T17:23:30Z</time>
      </trkpt>
      <trkpt lat="44.73489" lon="4.59287">
        <ele>340.66</ele>
        <time>2022-03-22T17:23:35Z</time>
      </trkpt>
      <trkpt lat="44.73599" lon="4.59459">
        <ele>322.17</ele>
        <time>2022-03-22T17:23:40Z</time>
      </trkpt>
      <trkpt lat="44.73608" lon="4.59477">
        <ele>323.89</ele>
        <time>2022-03-22T17:23:45Z</time>
      </trkpt>
      <trkpt lat="44.73651" lon="4.59615">
        <ele>308.54</ele>
        <time>2022-03-22T17:23:51Z</time>
      </trkpt>
      <trkpt lat="44.73654" lon="4.59642">
        <ele>309.83</ele>
        <time>2022-03-22T17:23:56Z</time>
      </trkpt>
      <trkpt lat="44.7364" lon="4.59751">
        <ele>306.88</ele>
        <time>2022-03-22T17:24:01Z</time>
      </trkpt>
      <trkpt lat="44.73639" lon="4.59811">
        <ele>305.62</ele>
        <time>2022-03-22T17:24:06Z</time>
      </trkpt>
      <trkpt lat="44.73644" lon="4.59828">
        <ele>303.86</ele>
        <time>2022-03-22T17:24:11Z</time>
      </trkpt>
      <trkpt lat="44.73651" lon="4.59822">
        <ele>303.39</ele>
        <time>2022-03-22T17:24:13Z</time>
      </trkpt>
      <trkpt lat="44.73723" lon="4.59826">
        <ele>296.42</ele>
        <time>2022-03-22T17:24:15Z</time>
      </trkpt>
      <trkpt lat="44.73748" lon="4.59836">
        <ele>295.42</ele>
        <time>2022-03-22T17:24:17Z</time>
      </trkpt>
      <trkpt lat="44.73765" lon="4.5985">
        <ele>292.07</ele>
        <time>2022-03-22T17:24:18Z</time>
      </trkpt>
      <trkpt lat="44.73777" lon="4.59865">
        <ele>291.61</ele>
        <time>2022-03-22T17:24:20Z</time>
      </trkpt>
      <trkpt lat="44.73785" lon="4.59879">
        <ele>289.12</ele>
        <time>2022-03-22T17:24:22Z</time>
      </trkpt>
      <trkpt lat="44.73793" lon="4.59898">
        <ele>288.25</ele>
        <time>2022-03-22T17:24:24Z</time>
      </trkpt>
      <trkpt lat="44.73812" lon="4.59962">
        <ele>286.55</ele>
        <time>2022-03-22T17:24:25Z</time>
      </trkpt>
      <trkpt lat="44.73817" lon="4.59976">
        <ele>285.44</ele>
        <time>2022-03-22T17:24:27Z</time>
      </trkpt>
      <trkpt lat="44.73824" lon="4.59986">
        <ele>283.8</ele>
        <time>2022-03-22T17:24:29Z</time>
      </trkpt>
      <trkpt lat="44.73835" lon="4.59994">
        <ele>281.53</ele>
        <time>2022-03-22T17:24:31Z</time>
      </trkpt>
      <trkpt lat="44.73855" lon="4.59997">
        <ele>275.9</ele>
        <time>2022-03-22T17:24:32Z</time>
      </trkpt>
      <trkpt lat="44.73935" lon="4.59978">
        <ele>277.56</ele>
        <time>2022-03-22T17:24:34Z</time>
      </trkpt>
      <trkpt lat="44.73952" lon="4.59973">
        <ele>280.21</ele>
        <time>2022-03-22T17:24:36Z</time>
      </trkpt>
      <trkpt lat="44.73961" lon="4.5997">
        <ele>280.81</ele>
        <time>2022-03-22T17:24:38Z</time>
      </trkpt>
      <trkpt lat="44.73975" lon="4.59955">
        <ele>282.61</ele>
        <time>2022-03-22T17:24:39Z</time>
      </trkpt>
      <trkpt lat="44.74005" lon="4.59912">
        <ele>281.82</ele>
        <time>2022-03-22T17:24:41Z</time>
      </trkpt>
      <trkpt lat="44.74084" lon="4.59808">
        <ele>280.57</ele>
        <time>2022-03-22T17:24:43Z</time>
      </trkpt>
      <trkpt lat="44.74093" lon="4.59804">
        <ele>278.1</ele>
        <time>2022-03-22T17:24:45Z</time>
      </trkpt>
      <trkpt lat="44.741" lon="4.59803">
        <ele>275.74</ele>
        <time>2022-03-22T17:24:46Z</time>
      </trkpt>
      <trkpt lat="44.74106" lon="4.59804">
        <ele>273.1</ele>
        <time>2022-03-22T17:24:48Z</time>
      </trkpt>
      <trkpt lat="44.74115" lon="4.59808">
        <ele>268.38</ele>
        <time>2022-03-22T17:24:50Z</time>
      </trkpt>
      <trkpt lat="44.7421" lon="4.5991">
        <ele>266.93</ele>
        <time>2022-03-22T17:24:52Z</time>
      </trkpt>
      <trkpt lat="44.74219" lon="4.59924">
        <ele>273.5</ele>
        <time>2022-03-22T17:24:53Z</time>
      </trkpt>
      <trkpt lat="44.74222" lon="4.59933">
        <ele>276.09</ele>
        <time>2022-03-22T17:24:55Z</time>
      </trkpt>
      <trkpt lat="44.74221" lon="4.59949">
        <ele>278.54</ele>
        <time>2022-03-22T17:24:57Z</time>
      </trkpt>
      <trkpt lat="44.74212" lon="4.59963">
        <ele>277.13</ele>
        <time>2022-03-22T17:24:59Z</time>
      </trkpt>
      <trkpt lat="44.74191" lon="4.59978">
        <ele>270.7</ele>
        <time>2022-03-22T17:25:00Z</time>
      </trkpt>
      <trkpt lat="44.74182" lon="4.59995">
        <ele>270.02</ele>
        <time>2022-03-22T17:25:02Z</time>
      </trkpt>
      <trkpt lat="44.74173" lon="4.60053">
        <ele>276.74</ele>
        <time>2022-03-22T17:25:04Z</time>
      </trkpt>
      <trkpt lat="44.74153" lon="4.60095">
        <ele>272.18</ele>
        <time>2022-03-22T17:25:06Z</time>
      </trkpt>
      <trkpt lat="44.7415" lon="4.60112">
        <ele>271.79</ele>
        <time>2022-03-22T17:25:07Z</time>
      </trkpt>
      <trkpt lat="44.74151" lon="4.60127">
        <ele>273.42</ele>
        <time>2022-03-22T17:25:09Z</time>
      </trkpt>
      <trkpt lat="44.74157" lon="4.60139">
        <ele>276.91</ele>
        <time>2022-03-22T17:25:11Z</time>
      </trkpt>
      <trkpt lat="44.74168" lon="4.60149">
        <ele>280.3</ele>
        <time>2022-03-22T17:25:13Z</time>
      </trkpt>
      <trkpt lat="44.74213" lon="4.60179">
        <ele>293.11</ele>
        <time>2022-03-22T17:25:14Z</time>
      </trkpt>
      <trkpt lat="44.74235" lon="4.60195">
        <ele>292.64</ele>
        <time>2022-03-22T17:25:16Z</time>
      </trkpt>
      <trkpt lat="44.74239" lon="4.60202">
        <ele>292.73</ele>
        <time>2022-03-22T17:25:18Z</time>
      </trkpt>
      <trkpt lat="44.74241" lon="4.60219">
        <ele>291.2</ele>
        <time>2022-03-22T17:25:20Z</time>
      </trkpt>
      <trkpt lat="44.7424" lon="4.60232">
        <ele>292.79</ele>
        <time>2022-03-22T17:25:21Z</time>
      </trkpt>
      <trkpt lat="44.74231" lon="4.60243">
        <ele>293.59</ele>
        <time>2022-03-22T17:25:23Z</time>
      </trkpt>
      <trkpt lat="44.74225" lon="4.60247">
        <ele>292.88</ele>
        <time>2022-03-22T17:25:25Z</time>
      </trkpt>
      <trkpt lat="44.74185" lon="4.60256">
        <ele>284.13</ele>
        <time>2022-03-22T17:25:27Z</time>
      </trkpt>
      <trkpt lat="44.74179" lon="4.60262">
        <ele>283.81</ele>
        <time>2022-03-22T17:25:28Z</time>
      </trkpt>
      <trkpt lat="44.74173" lon="4.60272">
        <ele>283.9</ele>
        <time>2022-03-22T17:25:30Z</time>
      </trkpt>
      <trkpt lat="44.74169" lon="4.60283">
        <ele>284.8</ele>
        <time>2022-03-22T17:25:32Z</time>
      </trkpt>
      <trkpt lat="44.7416" lon="4.60331">
        <ele>291.26</ele>
        <time>2022-03-22T17:25:34Z</time>
      </trkpt>
      <trkpt lat="44.74133" lon="4.60404">
        <ele>291.54</ele>
        <time>2022-03-22T17:25:35Z</time>
      </trkpt>
      <trkpt lat="44.74127" lon="4.60416">
        <ele>292.11</ele>
        <time>2022-03-22T17:25:37Z</time>
      </trkpt>
      <trkpt lat="44.74103" lon="4.60454">
        <ele>290.43</ele>
        <time>2022-03-22T17:25:39Z</time>
      </trkpt>
      <trkpt lat="44.74099" lon="4.60465">
        <ele>291.11</ele>
        <time>2022-03-22T17:25:41Z</time>
      </trkpt>
      <trkpt lat="44.74098" lon="4.60473">
        <ele>292.19</ele>
        <time>2022-03-22T17:25:42Z</time>
      </trkpt>
      <trkpt lat="44.741" lon="4.60483">
        <ele>292.72</ele>
        <time>2022-03-22T17:25:44Z</time>
      </trkpt>
      <trkpt lat="44.74105" lon="4.60494">
        <ele>293.76</ele>
        <time>2022-03-22T17:25:46Z</time>
      </trkpt>
      <trkpt lat="44.74151" lon="4.60526">
        <ele>299.02</ele>
        <time>2022-03-22T17:25:48Z</time>
      </trkpt>
      <trkpt lat="44.74166" lon="4.60533">
        <ele>299.48</ele>
        <time>2022-03-22T17:25:49Z</time>
      </trkpt>
      <trkpt lat="44.7418" lon="4.60536">
        <ele>299.82</ele>
        <time>2022-03-22T17:25:51Z</time>
      </trkpt>
      <trkpt lat="44.74193" lon="4.60538">
        <ele>300.5</ele>
        <time>2022-03-22T17:25:53Z</time>
      </trkpt>
      <trkpt lat="44.7421" lon="4.60537">
        <ele>301.07</ele>
        <time>2022-03-22T17:25:55Z</time>
      </trkpt>
      <trkpt lat="44.74294" lon="4.60517">
        <ele>311.45</ele>
        <time>2022-03-22T17:25:56Z</time>
      </trkpt>
      <trkpt lat="44.74313" lon="4.60519">
        <ele>311.91</ele>
        <time>2022-03-22T17:25:58Z</time>
      </trkpt>
      <trkpt lat="44.74339" lon="4.60524">
        <ele>313.07</ele>
        <time>2022-03-22T17:26:00Z</time>
      </trkpt>
      <trkpt lat="44.74351" lon="4.60533">
        <ele>313.89</ele>
        <time>2022-03-22T17:26:02Z</time>
      </trkpt>
      <trkpt lat="44.74371" lon="4.60565">
        <ele>313.77</ele>
        <time>2022-03-22T17:26:03Z</time>
      </trkpt>
      <trkpt lat="44.74385" lon="4.60572">
        <ele>315.23</ele>
        <time>2022-03-22T17:26:05Z</time>
      </trkpt>
      <trkpt lat="44.74391" lon="4.60573">
        <ele>315.83</ele>
        <time>2022-03-22T17:26:07Z</time>
      </trkpt>
      <trkpt lat="44.74405" lon="4.60571">
        <ele>316.33</ele>
        <time>2022-03-22T17:26:09Z</time>
      </trkpt>
      <trkpt lat="44.74443" lon="4.60557">
        <ele>321.67</ele>
        <time>2022-03-22T17:26:10Z</time>
      </trkpt>
      <trkpt lat="44.74461" lon="4.60552">
        <ele>325.21</ele>
        <time>2022-03-22T17:26:12Z</time>
      </trkpt>
      <trkpt lat="44.74474" lon="4.60556">
        <ele>326.32</ele>
        <time>2022-03-22T17:26:14Z</time>
      </trkpt>
      <trkpt lat="44.74484" lon="4.60566">
        <ele>327.82</ele>
        <time>2022-03-22T17:26:16Z</time>
      </trkpt>
      <trkpt lat="44.74492" lon="4.6058">
        <ele>328.82</ele>
        <time>2022-03-22T17:26:18Z</time>
      </trkpt>
      <trkpt lat="44.74496" lon="4.60599">
        <ele>329.92</ele>
        <time>2022-03-22T17:26:19Z</time>
      </trkpt>
      <trkpt lat="44.74494" lon="4.60618">
        <ele>330.5</ele>
        <time>2022-03-22T17:26:21Z</time>
      </trkpt>
      <trkpt lat="44.74488" lon="4.60629">
        <ele>330.76</ele>
        <time>2022-03-22T17:26:23Z</time>
      </trkpt>
      <trkpt lat="44.74475" lon="4.6064">
        <ele>329.86</ele>
        <time>2022-03-22T17:26:25Z</time>
      </trkpt>
      <trkpt lat="44.74447" lon="4.60651">
        <ele>324.89</ele>
        <time>2022-03-22T17:26:26Z</time>
      </trkpt>
      <trkpt lat="44.7438" lon="4.60699">
        <ele>328.09</ele>
        <time>2022-03-22T17:26:28Z</time>
      </trkpt>
      <trkpt lat="44.74369" lon="4.6071">
        <ele>327.81</ele>
        <time>2022-03-22T17:26:30Z</time>
      </trkpt>
      <trkpt lat="44.74361" lon="4.60724">
        <ele>328.2</ele>
        <time>2022-03-22T17:26:32Z</time>
      </trkpt>
      <trkpt lat="44.74358" lon="4.60739">
        <ele>329.1</ele>
        <time>2022-03-22T17:26:33Z</time>
      </trkpt>
      <trkpt lat="44.74357" lon="4.60753">
        <ele>329.76</ele>
        <time>2022-03-22T17:26:35Z</time>
      </trkpt>
      <trkpt lat="44.74361" lon="4.6078">
        <ele>330</ele>
        <time>2022-03-22T17:26:37Z</time>
      </trkpt>
      <trkpt lat="44.74381" lon="4.60837">
        <ele>333.48</ele>
        <time>2022-03-22T17:26:39Z</time>
      </trkpt>
      <trkpt lat="44.74391" lon="4.60893">
        <ele>334.52</ele>
        <time>2022-03-22T17:26:40Z</time>
      </trkpt>
      <trkpt lat="44.74396" lon="4.60913">
        <ele>335.82</ele>
        <time>2022-03-22T17:26:42Z</time>
      </trkpt>
      <trkpt lat="44.74406" lon="4.60931">
        <ele>338.22</ele>
        <time>2022-03-22T17:26:44Z</time>
      </trkpt>
      <trkpt lat="44.74436" lon="4.60973">
        <ele>344.87</ele>
        <time>2022-03-22T17:26:46Z</time>
      </trkpt>
      <trkpt lat="44.74439" lon="4.60981">
        <ele>345.78</ele>
        <time>2022-03-22T17:26:47Z</time>
      </trkpt>
      <trkpt lat="44.74446" lon="4.61006">
        <ele>347.4</ele>
        <time>2022-03-22T17:26:49Z</time>
      </trkpt>
      <trkpt lat="44.74456" lon="4.61075">
        <ele>348.5</ele>
        <time>2022-03-22T17:26:51Z</time>
      </trkpt>
      <trkpt lat="44.74462" lon="4.61097">
        <ele>349.36</ele>
        <time>2022-03-22T17:26:53Z</time>
      </trkpt>
      <trkpt lat="44.74482" lon="4.61151">
        <ele>351.96</ele>
        <time>2022-03-22T17:26:54Z</time>
      </trkpt>
      <trkpt lat="44.74488" lon="4.61173">
        <ele>353.8</ele>
        <time>2022-03-22T17:26:56Z</time>
      </trkpt>
      <trkpt lat="44.74487" lon="4.61195">
        <ele>355.29</ele>
        <time>2022-03-22T17:26:58Z</time>
      </trkpt>
      <trkpt lat="44.7447" lon="4.6125">
        <ele>355.33</ele>
        <time>2022-03-22T17:27:00Z</time>
      </trkpt>
      <trkpt lat="44.74467" lon="4.61263">
        <ele>354.57</ele>
        <time>2022-03-22T17:27:01Z</time>
      </trkpt>
      <trkpt lat="44.74469" lon="4.61276">
        <ele>354.51</ele>
        <time>2022-03-22T17:27:03Z</time>
      </trkpt>
      <trkpt lat="44.74473" lon="4.61288">
        <ele>355.45</ele>
        <time>2022-03-22T17:27:05Z</time>
      </trkpt>
      <trkpt lat="44.74478" lon="4.61297">
        <ele>356.46</ele>
        <time>2022-03-22T17:27:07Z</time>
      </trkpt>
      <trkpt lat="44.74507" lon="4.61327">
        <ele>359.19</ele>
        <time>2022-03-22T17:27:08Z</time>
      </trkpt>
      <trkpt lat="44.74517" lon="4.61332">
        <ele>360.41</ele>
        <time>2022-03-22T17:27:10Z</time>
      </trkpt>
      <trkpt lat="44.74527" lon="4.61336">
        <ele>361.71</ele>
        <time>2022-03-22T17:27:12Z</time>
      </trkpt>
      <trkpt lat="44.74549" lon="4.61337">
        <ele>364.81</ele>
        <time>2022-03-22T17:27:14Z</time>
      </trkpt>
      <trkpt lat="44.74559" lon="4.61343">
        <ele>365.86</ele>
        <time>2022-03-22T17:27:15Z</time>
      </trkpt>
      <trkpt lat="44.7457" lon="4.61357">
        <ele>366.81</ele>
        <time>2022-03-22T17:27:17Z</time>
      </trkpt>
      <trkpt lat="44.74588" lon="4.61421">
        <ele>368.8</ele>
        <time>2022-03-22T17:27:19Z</time>
      </trkpt>
      <trkpt lat="44.74678" lon="4.61621">
        <ele>374.06</ele>
        <time>2022-03-22T17:27:21Z</time>
      </trkpt>
      <trkpt lat="44.74687" lon="4.61631">
        <ele>374.11</ele>
        <time>2022-03-22T17:27:22Z</time>
      </trkpt>
      <trkpt lat="44.74696" lon="4.61634">
        <ele>374.82</ele>
        <time>2022-03-22T17:27:24Z</time>
      </trkpt>
      <trkpt lat="44.74743" lon="4.61613">
        <ele>378.28</ele>
        <time>2022-03-22T17:27:26Z</time>
      </trkpt>
      <trkpt lat="44.74751" lon="4.616">
        <ele>378.53</ele>
        <time>2022-03-22T17:27:28Z</time>
      </trkpt>
      <trkpt lat="44.74753" lon="4.61593">
        <ele>378.63</ele>
        <time>2022-03-22T17:27:29Z</time>
      </trkpt>
      <trkpt lat="44.74755" lon="4.61583">
        <ele>379.21</ele>
        <time>2022-03-22T17:27:31Z</time>
      </trkpt>
      <trkpt lat="44.74752" lon="4.6157">
        <ele>381.16</ele>
        <time>2022-03-22T17:27:33Z</time>
      </trkpt>
      <trkpt lat="44.74746" lon="4.61561">
        <ele>382.48</ele>
        <time>2022-03-22T17:27:35Z</time>
      </trkpt>
      <trkpt lat="44.74713" lon="4.61531">
        <ele>385.32</ele>
        <time>2022-03-22T17:27:36Z</time>
      </trkpt>
      <trkpt lat="44.74708" lon="4.6152">
        <ele>385.15</ele>
        <time>2022-03-22T17:27:38Z</time>
      </trkpt>
      <trkpt lat="44.74663" lon="4.61338">
        <ele>388.99</ele>
        <time>2022-03-22T17:27:40Z</time>
      </trkpt>
      <trkpt lat="44.7466" lon="4.61309">
        <ele>393.41</ele>
        <time>2022-03-22T17:27:42Z</time>
      </trkpt>
      <trkpt lat="44.74663" lon="4.61135">
        <ele>404.16</ele>
        <time>2022-03-22T17:27:43Z</time>
      </trkpt>
      <trkpt lat="44.74665" lon="4.61107">
        <ele>405.63</ele>
        <time>2022-03-22T17:27:45Z</time>
      </trkpt>
      <trkpt lat="44.74671" lon="4.61073">
        <ele>406.82</ele>
        <time>2022-03-22T17:27:47Z</time>
      </trkpt>
      <trkpt lat="44.74699" lon="4.60989">
        <ele>406.24</ele>
        <time>2022-03-22T17:27:49Z</time>
      </trkpt>
      <trkpt lat="44.74713" lon="4.60959">
        <ele>407.87</ele>
        <time>2022-03-22T17:27:50Z</time>
      </trkpt>
      <trkpt lat="44.74727" lon="4.60948">
        <ele>410.71</ele>
        <time>2022-03-22T17:27:52Z</time>
      </trkpt>
      <trkpt lat="44.74742" lon="4.6094">
        <ele>414.07</ele>
        <time>2022-03-22T17:27:54Z</time>
      </trkpt>
      <trkpt lat="44.74757" lon="4.60927">
        <ele>416.88</ele>
        <time>2022-03-22T17:27:56Z</time>
      </trkpt>
      <trkpt lat="44.74766" lon="4.60913">
        <ele>418.43</ele>
        <time>2022-03-22T17:27:57Z</time>
      </trkpt>
      <trkpt lat="44.74772" lon="4.60897">
        <ele>420.17</ele>
        <time>2022-03-22T17:27:59Z</time>
      </trkpt>
      <trkpt lat="44.74774" lon="4.60883">
        <ele>420.54</ele>
        <time>2022-03-22T17:28:01Z</time>
      </trkpt>
      <trkpt lat="44.74774" lon="4.60866">
        <ele>420.12</ele>
        <time>2022-03-22T17:28:03Z</time>
      </trkpt>
      <trkpt lat="44.74756" lon="4.60786">
        <ele>418.33</ele>
        <time>2022-03-22T17:28:04Z</time>
      </trkpt>
      <trkpt lat="44.74753" lon="4.60756">
        <ele>419.27</ele>
        <time>2022-03-22T17:28:06Z</time>
      </trkpt>
      <trkpt lat="44.74766" lon="4.60627">
        <ele>424.86</ele>
        <time>2022-03-22T17:28:08Z</time>
      </trkpt>
      <trkpt lat="44.74786" lon="4.60566">
        <ele>429.98</ele>
        <time>2022-03-22T17:28:10Z</time>
      </trkpt>
      <trkpt lat="44.74791" lon="4.60514">
        <ele>437.05</ele>
        <time>2022-03-22T17:28:11Z</time>
      </trkpt>
      <trkpt lat="44.74786" lon="4.60491">
        <ele>438.43</ele>
        <time>2022-03-22T17:28:13Z</time>
      </trkpt>
      <trkpt lat="44.74757" lon="4.60453">
        <ele>435.79</ele>
        <time>2022-03-22T17:28:15Z</time>
      </trkpt>
      <trkpt lat="44.74749" lon="4.60434">
        <ele>437.82</ele>
        <time>2022-03-22T17:28:17Z</time>
      </trkpt>
      <trkpt lat="44.74745" lon="4.60413">
        <ele>439.7</ele>
        <time>2022-03-22T17:28:18Z</time>
      </trkpt>
      <trkpt lat="44.74743" lon="4.6035">
        <ele>441.77</ele>
        <time>2022-03-22T17:28:20Z</time>
      </trkpt>
      <trkpt lat="44.74738" lon="4.60289">
        <ele>446.48</ele>
        <time>2022-03-22T17:28:22Z</time>
      </trkpt>
      <trkpt lat="44.74735" lon="4.60265">
        <ele>446.72</ele>
        <time>2022-03-22T17:28:24Z</time>
      </trkpt>
      <trkpt lat="44.74738" lon="4.60233">
        <ele>447.74</ele>
        <time>2022-03-22T17:28:25Z</time>
      </trkpt>
      <trkpt lat="44.7478" lon="4.60115">
        <ele>456.66</ele>
        <time>2022-03-22T17:28:27Z</time>
      </trkpt>
      <trkpt lat="44.74783" lon="4.60076">
        <ele>457.03</ele>
        <time>2022-03-22T17:28:29Z</time>
      </trkpt>
      <trkpt lat="44.74773" lon="4.60027">
        <ele>457.85</ele>
        <time>2022-03-22T17:28:31Z</time>
      </trkpt>
      <trkpt lat="44.74766" lon="4.60002">
        <ele>455.93</ele>
        <time>2022-03-22T17:28:32Z</time>
      </trkpt>
      <trkpt lat="44.74764" lon="4.59978">
        <ele>454.31</ele>
        <time>2022-03-22T17:28:34Z</time>
      </trkpt>
      <trkpt lat="44.7477" lon="4.59943">
        <ele>452.6</ele>
        <time>2022-03-22T17:28:36Z</time>
      </trkpt>
      <trkpt lat="44.74786" lon="4.59924">
        <ele>454.67</ele>
        <time>2022-03-22T17:28:38Z</time>
      </trkpt>
      <trkpt lat="44.74827" lon="4.59909">
        <ele>467.85</ele>
        <time>2022-03-22T17:28:39Z</time>
      </trkpt>
      <trkpt lat="44.74836" lon="4.59902">
        <ele>468.85</ele>
        <time>2022-03-22T17:28:41Z</time>
      </trkpt>
      <trkpt lat="44.74848" lon="4.5989">
        <ele>468.25</ele>
        <time>2022-03-22T17:28:43Z</time>
      </trkpt>
      <trkpt lat="44.74871" lon="4.59817">
        <ele>466.8</ele>
        <time>2022-03-22T17:28:45Z</time>
      </trkpt>
      <trkpt lat="44.74915" lon="4.59679">
        <ele>473.53</ele>
        <time>2022-03-22T17:28:46Z</time>
      </trkpt>
      <trkpt lat="44.74914" lon="4.59657">
        <ele>472.77</ele>
        <time>2022-03-22T17:28:48Z</time>
      </trkpt>
      <trkpt lat="44.74906" lon="4.59641">
        <ele>472.56</ele>
        <time>2022-03-22T17:28:50Z</time>
      </trkpt>
      <trkpt lat="44.74848" lon="4.59597">
        <ele>477.81</ele>
        <time>2022-03-22T17:28:52Z</time>
      </trkpt>
      <trkpt lat="44.74831" lon="4.59593">
        <ele>477.83</ele>
        <time>2022-03-22T17:28:53Z</time>
      </trkpt>
      <trkpt lat="44.74812" lon="4.59602">
        <ele>475.27</ele>
        <time>2022-03-22T17:28:55Z</time>
      </trkpt>
      <trkpt lat="44.74798" lon="4.59602">
        <ele>473.02</ele>
        <time>2022-03-22T17:28:57Z</time>
      </trkpt>
      <trkpt lat="44.74789" lon="4.59593">
        <ele>472.52</ele>
        <time>2022-03-22T17:28:59Z</time>
      </trkpt>
      <trkpt lat="44.74787" lon="4.59585">
        <ele>472.95</ele>
        <time>2022-03-22T17:29:00Z</time>
      </trkpt>
      <trkpt lat="44.74788" lon="4.5957">
        <ele>472.54</ele>
        <time>2022-03-22T17:29:02Z</time>
      </trkpt>
      <trkpt lat="44.74794" lon="4.59559">
        <ele>473.62</ele>
        <time>2022-03-22T17:29:04Z</time>
      </trkpt>
      <trkpt lat="44.74805" lon="4.59552">
        <ele>476.59</ele>
        <time>2022-03-22T17:29:06Z</time>
      </trkpt>
      <trkpt lat="44.74818" lon="4.59554">
        <ele>477.37</ele>
        <time>2022-03-22T17:29:07Z</time>
      </trkpt>
      <trkpt lat="44.7484" lon="4.5955">
        <ele>478.08</ele>
        <time>2022-03-22T17:29:09Z</time>
      </trkpt>
      <trkpt lat="44.74868" lon="4.59523">
        <ele>479.63</ele>
        <time>2022-03-22T17:29:11Z</time>
      </trkpt>
      <trkpt lat="44.74931" lon="4.59453">
        <ele>486.96</ele>
        <time>2022-03-22T17:29:13Z</time>
      </trkpt>
      <trkpt lat="44.74952" lon="4.59417">
        <ele>488.64</ele>
        <time>2022-03-22T17:29:14Z</time>
      </trkpt>
      <trkpt lat="44.75084" lon="4.59115">
        <ele>504.23</ele>
        <time>2022-03-22T17:29:16Z</time>
      </trkpt>
      <trkpt lat="44.75088" lon="4.59098">
        <ele>505.57</ele>
        <time>2022-03-22T17:29:18Z</time>
      </trkpt>
      <trkpt lat="44.75087" lon="4.5907">
        <ele>507.23</ele>
        <time>2022-03-22T17:29:20Z</time>
      </trkpt>
      <trkpt lat="44.75072" lon="4.58972">
        <ele>512.47</ele>
        <time>2022-03-22T17:29:21Z</time>
      </trkpt>
      <trkpt lat="44.75071" lon="4.58936">
        <ele>512.8</ele>
        <time>2022-03-22T17:29:23Z</time>
      </trkpt>
      <trkpt lat="44.75082" lon="4.58917">
        <ele>515.56</ele>
        <time>2022-03-22T17:29:25Z</time>
      </trkpt>
      <trkpt lat="44.75097" lon="4.58909">
        <ele>515.62</ele>
        <time>2022-03-22T17:29:27Z</time>
      </trkpt>
      <trkpt lat="44.75112" lon="4.58914">
        <ele>518.14</ele>
        <time>2022-03-22T17:29:28Z</time>
      </trkpt>
      <trkpt lat="44.75125" lon="4.58929">
        <ele>518.93</ele>
        <time>2022-03-22T17:29:30Z</time>
      </trkpt>
      <trkpt lat="44.7513" lon="4.58944">
        <ele>521.3</ele>
        <time>2022-03-22T17:29:32Z</time>
      </trkpt>
      <trkpt lat="44.75151" lon="4.59031">
        <ele>525.31</ele>
        <time>2022-03-22T17:29:34Z</time>
      </trkpt>
      <trkpt lat="44.75159" lon="4.59044">
        <ele>523.66</ele>
        <time>2022-03-22T17:29:35Z</time>
      </trkpt>
      <trkpt lat="44.75172" lon="4.59053">
        <ele>522.09</ele>
        <time>2022-03-22T17:29:37Z</time>
      </trkpt>
      <trkpt lat="44.7519" lon="4.59057">
        <ele>521.04</ele>
        <time>2022-03-22T17:29:39Z</time>
      </trkpt>
      <trkpt lat="44.75204" lon="4.59052">
        <ele>521.69</ele>
        <time>2022-03-22T17:29:41Z</time>
      </trkpt>
      <trkpt lat="44.75218" lon="4.59039">
        <ele>523.14</ele>
        <time>2022-03-22T17:29:42Z</time>
      </trkpt>
      <trkpt lat="44.75231" lon="4.59014">
        <ele>525.5</ele>
        <time>2022-03-22T17:29:44Z</time>
      </trkpt>
      <trkpt lat="44.75254" lon="4.58953">
        <ele>528.41</ele>
        <time>2022-03-22T17:29:46Z</time>
      </trkpt>
      <trkpt lat="44.75317" lon="4.58783">
        <ele>535.24</ele>
        <time>2022-03-22T17:29:48Z</time>
      </trkpt>
      <trkpt lat="44.7534" lon="4.58753">
        <ele>539.12</ele>
        <time>2022-03-22T17:29:49Z</time>
      </trkpt>
      <trkpt lat="44.75381" lon="4.5871">
        <ele>544.18</ele>
        <time>2022-03-22T17:29:51Z</time>
      </trkpt>
      <trkpt lat="44.75394" lon="4.58689">
        <ele>545.48</ele>
        <time>2022-03-22T17:29:53Z</time>
      </trkpt>
      <trkpt lat="44.75406" lon="4.58658">
        <ele>548.55</ele>
        <time>2022-03-22T17:29:55Z</time>
      </trkpt>
      <trkpt lat="44.75409" lon="4.58635">
        <ele>551.21</ele>
        <time>2022-03-22T17:29:56Z</time>
      </trkpt>
      <trkpt lat="44.75405" lon="4.58619">
        <ele>552.14</ele>
        <time>2022-03-22T17:29:58Z</time>
      </trkpt>
      <trkpt lat="44.75364" lon="4.58558">
        <ele>548.47</ele>
        <time>2022-03-22T17:30:00Z</time>
      </trkpt>
      <trkpt lat="44.75356" lon="4.58533">
        <ele>548.85</ele>
        <time>2022-03-22T17:30:02Z</time>
      </trkpt>
      <trkpt lat="44.75352" lon="4.58509">
        <ele>548.84</ele>
        <time>2022-03-22T17:30:03Z</time>
      </trkpt>
      <trkpt lat="44.75349" lon="4.58436">
        <ele>549.65</ele>
        <time>2022-03-22T17:30:05Z</time>
      </trkpt>
      <trkpt lat="44.75339" lon="4.58391">
        <ele>548.8</ele>
        <time>2022-03-22T17:30:07Z</time>
      </trkpt>
      <trkpt lat="44.75336" lon="4.58347">
        <ele>550.66</ele>
        <time>2022-03-22T17:30:09Z</time>
      </trkpt>
      <trkpt lat="44.75332" lon="4.58241">
        <ele>555.56</ele>
        <time>2022-03-22T17:30:10Z</time>
      </trkpt>
      <trkpt lat="44.75333" lon="4.58158">
        <ele>561.72</ele>
        <time>2022-03-22T17:30:12Z</time>
      </trkpt>
      <trkpt lat="44.75339" lon="4.58102">
        <ele>562.55</ele>
        <time>2022-03-22T17:30:14Z</time>
      </trkpt>
      <trkpt lat="44.75349" lon="4.58077">
        <ele>562.58</ele>
        <time>2022-03-22T17:30:16Z</time>
      </trkpt>
      <trkpt lat="44.75385" lon="4.5804">
        <ele>563.42</ele>
        <time>2022-03-22T17:30:17Z</time>
      </trkpt>
      <trkpt lat="44.75405" lon="4.58032">
        <ele>564.89</ele>
        <time>2022-03-22T17:30:19Z</time>
      </trkpt>
      <trkpt lat="44.75425" lon="4.58031">
        <ele>567.96</ele>
        <time>2022-03-22T17:30:21Z</time>
      </trkpt>
      <trkpt lat="44.75448" lon="4.58037">
        <ele>572.49</ele>
        <time>2022-03-22T17:30:23Z</time>
      </trkpt>
      <trkpt lat="44.75519" lon="4.5806">
        <ele>575.58</ele>
        <time>2022-03-22T17:30:24Z</time>
      </trkpt>
      <trkpt lat="44.75623" lon="4.58095">
        <ele>580.58</ele>
        <time>2022-03-22T17:30:26Z</time>
      </trkpt>
      <trkpt lat="44.75671" lon="4.58127">
        <ele>588.06</ele>
        <time>2022-03-22T17:30:28Z</time>
      </trkpt>
      <trkpt lat="44.75712" lon="4.58151">
        <ele>591.99</ele>
        <time>2022-03-22T17:30:30Z</time>
      </trkpt>
      <trkpt lat="44.75752" lon="4.58155">
        <ele>592.75</ele>
        <time>2022-03-22T17:30:31Z</time>
      </trkpt>
      <trkpt lat="44.75793" lon="4.58151">
        <ele>593.31</ele>
        <time>2022-03-22T17:30:33Z</time>
      </trkpt>
      <trkpt lat="44.75861" lon="4.5814">
        <ele>596.99</ele>
        <time>2022-03-22T17:30:35Z</time>
      </trkpt>
      <trkpt lat="44.75877" lon="4.58132">
        <ele>596.89</ele>
        <time>2022-03-22T17:30:37Z</time>
      </trkpt>
      <trkpt lat="44.75886" lon="4.58116">
        <ele>596.9</ele>
        <time>2022-03-22T17:30:38Z</time>
      </trkpt>
      <trkpt lat="44.75891" lon="4.58095">
        <ele>596.38</ele>
        <time>2022-03-22T17:30:40Z</time>
      </trkpt>
      <trkpt lat="44.75909" lon="4.57999">
        <ele>595.26</ele>
        <time>2022-03-22T17:30:42Z</time>
      </trkpt>
      <trkpt lat="44.75919" lon="4.57964">
        <ele>594.91</ele>
        <time>2022-03-22T17:30:44Z</time>
      </trkpt>
      <trkpt lat="44.75926" lon="4.57955">
        <ele>594.67</ele>
        <time>2022-03-22T17:30:45Z</time>
      </trkpt>
      <trkpt lat="44.75931" lon="4.57952">
        <ele>594.49</ele>
        <time>2022-03-22T17:30:47Z</time>
      </trkpt>
      <trkpt lat="44.75944" lon="4.57953">
        <ele>594.02</ele>
        <time>2022-03-22T17:30:49Z</time>
      </trkpt>
      <trkpt lat="44.75957" lon="4.57964">
        <ele>593.11</ele>
        <time>2022-03-22T17:30:51Z</time>
      </trkpt>
      <trkpt lat="44.7599" lon="4.5803">
        <ele>592.14</ele>
        <time>2022-03-22T17:30:52Z</time>
      </trkpt>
      <trkpt lat="44.76005" lon="4.58047">
        <ele>593.1</ele>
        <time>2022-03-22T17:30:54Z</time>
      </trkpt>
      <trkpt lat="44.76037" lon="4.58071">
        <ele>593.67</ele>
        <time>2022-03-22T17:30:56Z</time>
      </trkpt>
      <trkpt lat="44.76074" lon="4.58102">
        <ele>590.25</ele>
        <time>2022-03-22T17:30:58Z</time>
      </trkpt>
      <trkpt lat="44.76101" lon="4.58133">
        <ele>588.46</ele>
        <time>2022-03-22T17:30:59Z</time>
      </trkpt>
      <trkpt lat="44.76167" lon="4.58231">
        <ele>585.7</ele>
        <time>2022-03-22T17:31:01Z</time>
      </trkpt>
      <trkpt lat="44.76198" lon="4.58268">
        <ele>582.35</ele>
        <time>2022-03-22T17:31:03Z</time>
      </trkpt>
      <trkpt lat="44.76241" lon="4.58304">
        <ele>575.69</ele>
        <time>2022-03-22T17:31:05Z</time>
      </trkpt>
      <trkpt lat="44.76281" lon="4.58345">
        <ele>575.54</ele>
        <time>2022-03-22T17:31:06Z</time>
      </trkpt>
      <trkpt lat="44.76317" lon="4.58389">
        <ele>574.27</ele>
        <time>2022-03-22T17:31:08Z</time>
      </trkpt>
      <trkpt lat="44.76337" lon="4.58422">
        <ele>573.64</ele>
        <time>2022-03-22T17:31:10Z</time>
      </trkpt>
      <trkpt lat="44.7636" lon="4.58451">
        <ele>570.77</ele>
        <time>2022-03-22T17:31:12Z</time>
      </trkpt>
      <trkpt lat="44.76379" lon="4.58462">
        <ele>567.75</ele>
        <time>2022-03-22T17:31:13Z</time>
      </trkpt>
      <trkpt lat="44.76391" lon="4.58473">
        <ele>566.55</ele>
        <time>2022-03-22T17:31:15Z</time>
      </trkpt>
      <trkpt lat="44.76403" lon="4.58495">
        <ele>567.1</ele>
        <time>2022-03-22T17:31:17Z</time>
      </trkpt>
      <trkpt lat="44.76416" lon="4.58515">
        <ele>566.9</ele>
        <time>2022-03-22T17:31:19Z</time>
      </trkpt>
      <trkpt lat="44.76429" lon="4.5852">
        <ele>566.03</ele>
        <time>2022-03-22T17:31:20Z</time>
      </trkpt>
      <trkpt lat="44.76441" lon="4.58521">
        <ele>563.98</ele>
        <time>2022-03-22T17:31:22Z</time>
      </trkpt>
      <trkpt lat="44.76479" lon="4.58511">
        <ele>558.56</ele>
        <time>2022-03-22T17:31:24Z</time>
      </trkpt>
      <trkpt lat="44.76492" lon="4.58513">
        <ele>558.76</ele>
        <time>2022-03-22T17:31:26Z</time>
      </trkpt>
      <trkpt lat="44.76511" lon="4.58522">
        <ele>561.33</ele>
        <time>2022-03-22T17:31:27Z</time>
      </trkpt>
      <trkpt lat="44.76525" lon="4.58527">
        <ele>562.64</ele>
        <time>2022-03-22T17:31:29Z</time>
      </trkpt>
      <trkpt lat="44.76538" lon="4.58528">
        <ele>561.96</ele>
        <time>2022-03-22T17:31:31Z</time>
      </trkpt>
      <trkpt lat="44.76551" lon="4.58524">
        <ele>559.51</ele>
        <time>2022-03-22T17:31:33Z</time>
      </trkpt>
      <trkpt lat="44.76569" lon="4.58509">
        <ele>553.31</ele>
        <time>2022-03-22T17:31:34Z</time>
      </trkpt>
      <trkpt lat="44.76585" lon="4.585">
        <ele>549.02</ele>
        <time>2022-03-22T17:31:36Z</time>
      </trkpt>
      <trkpt lat="44.76604" lon="4.58502">
        <ele>550.86</ele>
        <time>2022-03-22T17:31:38Z</time>
      </trkpt>
      <trkpt lat="44.76624" lon="4.58512">
        <ele>551.96</ele>
        <time>2022-03-22T17:31:40Z</time>
      </trkpt>
      <trkpt lat="44.76642" lon="4.58525">
        <ele>552.09</ele>
        <time>2022-03-22T17:31:41Z</time>
      </trkpt>
      <trkpt lat="44.76662" lon="4.58546">
        <ele>550.61</ele>
        <time>2022-03-22T17:31:43Z</time>
      </trkpt>
      <trkpt lat="44.76678" lon="4.58569">
        <ele>548.3</ele>
        <time>2022-03-22T17:31:45Z</time>
      </trkpt>
      <trkpt lat="44.76689" lon="4.58595">
        <ele>545.75</ele>
        <time>2022-03-22T17:31:47Z</time>
      </trkpt>
      <trkpt lat="44.76695" lon="4.58618">
        <ele>545.46</ele>
        <time>2022-03-22T17:31:48Z</time>
      </trkpt>
      <trkpt lat="44.76697" lon="4.58647">
        <ele>548.21</ele>
        <time>2022-03-22T17:31:50Z</time>
      </trkpt>
      <trkpt lat="44.76701" lon="4.58663">
        <ele>549.02</ele>
        <time>2022-03-22T17:31:52Z</time>
      </trkpt>
      <trkpt lat="44.76715" lon="4.58677">
        <ele>546.37</ele>
        <time>2022-03-22T17:31:54Z</time>
      </trkpt>
      <trkpt lat="44.76735" lon="4.58692">
        <ele>541.31</ele>
        <time>2022-03-22T17:31:55Z</time>
      </trkpt>
      <trkpt lat="44.76746" lon="4.58707">
        <ele>538.49</ele>
        <time>2022-03-22T17:31:57Z</time>
      </trkpt>
      <trkpt lat="44.76753" lon="4.58725">
        <ele>538.01</ele>
        <time>2022-03-22T17:31:59Z</time>
      </trkpt>
      <trkpt lat="44.76758" lon="4.58744">
        <ele>537.28</ele>
        <time>2022-03-22T17:32:01Z</time>
      </trkpt>
      <trkpt lat="44.76757" lon="4.58758">
        <ele>537.21</ele>
        <time>2022-03-22T17:32:02Z</time>
      </trkpt>
      <trkpt lat="44.76753" lon="4.5877">
        <ele>537.73</ele>
        <time>2022-03-22T17:32:04Z</time>
      </trkpt>
      <trkpt lat="44.76728" lon="4.58805">
        <ele>542.99</ele>
        <time>2022-03-22T17:32:06Z</time>
      </trkpt>
      <trkpt lat="44.76724" lon="4.58818">
        <ele>542.98</ele>
        <time>2022-03-22T17:32:08Z</time>
      </trkpt>
      <trkpt lat="44.76725" lon="4.58844">
        <ele>540.46</ele>
        <time>2022-03-22T17:32:09Z</time>
      </trkpt>
      <trkpt lat="44.76751" lon="4.58935">
        <ele>531.55</ele>
        <time>2022-03-22T17:32:11Z</time>
      </trkpt>
      <trkpt lat="44.76756" lon="4.58949">
        <ele>531.78</ele>
        <time>2022-03-22T17:32:13Z</time>
      </trkpt>
      <trkpt lat="44.76763" lon="4.58959">
        <ele>532.33</ele>
        <time>2022-03-22T17:32:15Z</time>
      </trkpt>
      <trkpt lat="44.76771" lon="4.58965">
        <ele>531.63</ele>
        <time>2022-03-22T17:32:16Z</time>
      </trkpt>
      <trkpt lat="44.768" lon="4.58968">
        <ele>527.18</ele>
        <time>2022-03-22T17:32:18Z</time>
      </trkpt>
      <trkpt lat="44.76833" lon="4.58982">
        <ele>522.77</ele>
        <time>2022-03-22T17:32:20Z</time>
      </trkpt>
      <trkpt lat="44.76851" lon="4.58994">
        <ele>522.33</ele>
        <time>2022-03-22T17:32:22Z</time>
      </trkpt>
      <trkpt lat="44.76864" lon="4.59007">
        <ele>522.42</ele>
        <time>2022-03-22T17:32:23Z</time>
      </trkpt>
      <trkpt lat="44.76875" lon="4.59028">
        <ele>522.34</ele>
        <time>2022-03-22T17:32:25Z</time>
      </trkpt>
      <trkpt lat="44.76899" lon="4.59085">
        <ele>523.11</ele>
        <time>2022-03-22T17:32:27Z</time>
      </trkpt>
      <trkpt lat="44.76917" lon="4.5911">
        <ele>522.63</ele>
        <time>2022-03-22T17:32:29Z</time>
      </trkpt>
      <trkpt lat="44.76951" lon="4.59151">
        <ele>514.83</ele>
        <time>2022-03-22T17:32:30Z</time>
      </trkpt>
      <trkpt lat="44.76967" lon="4.59177">
        <ele>510.42</ele>
        <time>2022-03-22T17:32:32Z</time>
      </trkpt>
      <trkpt lat="44.76971" lon="4.59193">
        <ele>508.49</ele>
        <time>2022-03-22T17:32:34Z</time>
      </trkpt>
      <trkpt lat="44.76969" lon="4.59205">
        <ele>506.87</ele>
        <time>2022-03-22T17:32:36Z</time>
      </trkpt>
      <trkpt lat="44.76958" lon="4.59227">
        <ele>505.66</ele>
        <time>2022-03-22T17:32:37Z</time>
      </trkpt>
      <trkpt lat="44.76931" lon="4.59265">
        <ele>507.55</ele>
        <time>2022-03-22T17:32:39Z</time>
      </trkpt>
      <trkpt lat="44.76926" lon="4.59276">
        <ele>507.75</ele>
        <time>2022-03-22T17:32:41Z</time>
      </trkpt>
      <trkpt lat="44.76925" lon="4.59301">
        <ele>505.86</ele>
        <time>2022-03-22T17:32:43Z</time>
      </trkpt>
      <trkpt lat="44.7693" lon="4.59322">
        <ele>506</ele>
        <time>2022-03-22T17:32:44Z</time>
      </trkpt>
      <trkpt lat="44.76934" lon="4.5933">
        <ele>506.4</ele>
        <time>2022-03-22T17:32:46Z</time>
      </trkpt>
      <trkpt lat="44.76948" lon="4.59341">
        <ele>507.66</ele>
        <time>2022-03-22T17:32:48Z</time>
      </trkpt>
      <trkpt lat="44.76962" lon="4.59343">
        <ele>506.73</ele>
        <time>2022-03-22T17:32:50Z</time>
      </trkpt>
      <trkpt lat="44.77047" lon="4.59325">
        <ele>491.04</ele>
        <time>2022-03-22T17:32:51Z</time>
      </trkpt>
      <trkpt lat="44.77065" lon="4.59326">
        <ele>489.03</ele>
        <time>2022-03-22T17:32:53Z</time>
      </trkpt>
      <trkpt lat="44.77077" lon="4.5933">
        <ele>487.65</ele>
        <time>2022-03-22T17:32:55Z</time>
      </trkpt>
      <trkpt lat="44.77091" lon="4.59342">
        <ele>487.39</ele>
        <time>2022-03-22T17:32:57Z</time>
      </trkpt>
      <trkpt lat="44.771" lon="4.59356">
        <ele>487.85</ele>
        <time>2022-03-22T17:32:58Z</time>
      </trkpt>
      <trkpt lat="44.77105" lon="4.5937">
        <ele>488.34</ele>
        <time>2022-03-22T17:33:00Z</time>
      </trkpt>
      <trkpt lat="44.7711" lon="4.59395">
        <ele>489.67</ele>
        <time>2022-03-22T17:33:02Z</time>
      </trkpt>
      <trkpt lat="44.7711" lon="4.59417">
        <ele>490.46</ele>
        <time>2022-03-22T17:33:04Z</time>
      </trkpt>
      <trkpt lat="44.77104" lon="4.59443">
        <ele>490.77</ele>
        <time>2022-03-22T17:33:05Z</time>
      </trkpt>
      <trkpt lat="44.77089" lon="4.59489">
        <ele>489.54</ele>
        <time>2022-03-22T17:33:07Z</time>
      </trkpt>
      <trkpt lat="44.77086" lon="4.59521">
        <ele>487.01</ele>
        <time>2022-03-22T17:33:09Z</time>
      </trkpt>
      <trkpt lat="44.77087" lon="4.59547">
        <ele>487.55</ele>
        <time>2022-03-22T17:33:11Z</time>
      </trkpt>
      <trkpt lat="44.77159" lon="4.60133">
        <ele>459.33</ele>
        <time>2022-03-22T17:33:12Z</time>
      </trkpt>
      <trkpt lat="44.7717" lon="4.60181">
        <ele>456.37</ele>
        <time>2022-03-22T17:33:14Z</time>
      </trkpt>
      <trkpt lat="44.77275" lon="4.60471">
        <ele>437.57</ele>
        <time>2022-03-22T17:33:16Z</time>
      </trkpt>
      <trkpt lat="44.77348" lon="4.60688">
        <ele>441.54</ele>
        <time>2022-03-22T17:33:18Z</time>
      </trkpt>
      <trkpt lat="44.77361" lon="4.60716">
        <ele>440.46</ele>
        <time>2022-03-22T17:33:19Z</time>
      </trkpt>
      <trkpt lat="44.77526" lon="4.60914">
        <ele>431.32</ele>
        <time>2022-03-22T17:33:21Z</time>
      </trkpt>
      <trkpt lat="44.77715" lon="4.6113">
        <ele>428.69</ele>
        <time>2022-03-22T17:33:23Z</time>
      </trkpt>
      <trkpt lat="44.77738" lon="4.61148">
        <ele>429.5</ele>
        <time>2022-03-22T17:33:25Z</time>
      </trkpt>
      <trkpt lat="44.77812" lon="4.61246">
        <ele>427.89</ele>
        <time>2022-03-22T17:33:26Z</time>
      </trkpt>
      <trkpt lat="44.77838" lon="4.61276">
        <ele>428.88</ele>
        <time>2022-03-22T17:33:28Z</time>
      </trkpt>
      <trkpt lat="44.77866" lon="4.61304">
        <ele>430.29</ele>
        <time>2022-03-22T17:33:30Z</time>
      </trkpt>
      <trkpt lat="44.77892" lon="4.61325">
        <ele>430.19</ele>
        <time>2022-03-22T17:33:32Z</time>
      </trkpt>
      <trkpt lat="44.77899" lon="4.61338">
        <ele>431</ele>
        <time>2022-03-22T17:33:34Z</time>
      </trkpt>
      <trkpt lat="44.77907" lon="4.61389">
        <ele>430.16</ele>
        <time>2022-03-22T17:33:35Z</time>
      </trkpt>
      <trkpt lat="44.77912" lon="4.6141">
        <ele>428.72</ele>
        <time>2022-03-22T17:33:37Z</time>
      </trkpt>
      <trkpt lat="44.77921" lon="4.6143">
        <ele>428.19</ele>
        <time>2022-03-22T17:33:39Z</time>
      </trkpt>
      <trkpt lat="44.77935" lon="4.61449">
        <ele>428.19</ele>
        <time>2022-03-22T17:33:41Z</time>
      </trkpt>
      <trkpt lat="44.77954" lon="4.6147">
        <ele>427.48</ele>
        <time>2022-03-22T17:33:42Z</time>
      </trkpt>
      <trkpt lat="44.78031" lon="4.61548">
        <ele>428.54</ele>
        <time>2022-03-22T17:33:44Z</time>
      </trkpt>
      <trkpt lat="44.78051" lon="4.61578">
        <ele>427.35</ele>
        <time>2022-03-22T17:33:46Z</time>
      </trkpt>
      <trkpt lat="44.78119" lon="4.61686">
        <ele>427.4</ele>
        <time>2022-03-22T17:33:48Z</time>
      </trkpt>
      <trkpt lat="44.78209" lon="4.61823">
        <ele>429.74</ele>
        <time>2022-03-22T17:33:49Z</time>
      </trkpt>
      <trkpt lat="44.78218" lon="4.61844">
        <ele>429.24</ele>
        <time>2022-03-22T17:33:51Z</time>
      </trkpt>
      <trkpt lat="44.78233" lon="4.61894">
        <ele>429.43</ele>
        <time>2022-03-22T17:33:53Z</time>
      </trkpt>
      <trkpt lat="44.78261" lon="4.61963">
        <ele>425.7</ele>
        <time>2022-03-22T17:33:55Z</time>
      </trkpt>
      <trkpt lat="44.78281" lon="4.61995">
        <ele>425.65</ele>
        <time>2022-03-22T17:33:56Z</time>
      </trkpt>
      <trkpt lat="44.7831" lon="4.62037">
        <ele>424.89</ele>
        <time>2022-03-22T17:33:58Z</time>
      </trkpt>
      <trkpt lat="44.78324" lon="4.62048">
        <ele>424.75</ele>
        <time>2022-03-22T17:34:00Z</time>
      </trkpt>
      <trkpt lat="44.7834" lon="4.62051">
        <ele>426.41</ele>
        <time>2022-03-22T17:34:02Z</time>
      </trkpt>
      <trkpt lat="44.78362" lon="4.62044">
        <ele>430.17</ele>
        <time>2022-03-22T17:34:03Z</time>
      </trkpt>
      <trkpt lat="44.78429" lon="4.62001">
        <ele>433.3</ele>
        <time>2022-03-22T17:34:05Z</time>
      </trkpt>
      <trkpt lat="44.78442" lon="4.61999">
        <ele>434.3</ele>
        <time>2022-03-22T17:34:07Z</time>
      </trkpt>
      <trkpt lat="44.78528" lon="4.62003">
        <ele>433.92</ele>
        <time>2022-03-22T17:34:09Z</time>
      </trkpt>
      <trkpt lat="44.78555" lon="4.62013">
        <ele>431.79</ele>
        <time>2022-03-22T17:34:10Z</time>
      </trkpt>
      <trkpt lat="44.78621" lon="4.62064">
        <ele>431.18</ele>
        <time>2022-03-22T17:34:12Z</time>
      </trkpt>
      <trkpt lat="44.7868" lon="4.62131">
        <ele>431.57</ele>
        <time>2022-03-22T17:34:14Z</time>
      </trkpt>
      <trkpt lat="44.78693" lon="4.62153">
        <ele>430.61</ele>
        <time>2022-03-22T17:34:16Z</time>
      </trkpt>
      <trkpt lat="44.78715" lon="4.62209">
        <ele>428.18</ele>
        <time>2022-03-22T17:34:17Z</time>
      </trkpt>
      <trkpt lat="44.78762" lon="4.62278">
        <ele>427.02</ele>
        <time>2022-03-22T17:34:19Z</time>
      </trkpt>
      <trkpt lat="44.7878" lon="4.62299">
        <ele>428.33</ele>
        <time>2022-03-22T17:34:21Z</time>
      </trkpt>
      <trkpt lat="44.78791" lon="4.62306">
        <ele>429.77</ele>
        <time>2022-03-22T17:34:23Z</time>
      </trkpt>
      <trkpt lat="44.78803" lon="4.6231">
        <ele>432.15</ele>
        <time>2022-03-22T17:34:24Z</time>
      </trkpt>
      <trkpt lat="44.78808" lon="4.6231">
        <ele>433.21</ele>
        <time>2022-03-22T17:34:26Z</time>
      </trkpt>
      <trkpt lat="44.78822" lon="4.62303">
        <ele>436.14</ele>
        <time>2022-03-22T17:34:28Z</time>
      </trkpt>
      <trkpt lat="44.78833" lon="4.62287">
        <ele>439.2</ele>
        <time>2022-03-22T17:34:30Z</time>
      </trkpt>
      <trkpt lat="44.78837" lon="4.62278">
        <ele>439.48</ele>
        <time>2022-03-22T17:34:31Z</time>
      </trkpt>
      <trkpt lat="44.7884" lon="4.62267">
        <ele>438.23</ele>
        <time>2022-03-22T17:34:33Z</time>
      </trkpt>
      <trkpt lat="44.78834" lon="4.62182">
        <ele>430.83</ele>
        <time>2022-03-22T17:34:35Z</time>
      </trkpt>
      <trkpt lat="44.78843" lon="4.6213">
        <ele>429.06</ele>
        <time>2022-03-22T17:34:37Z</time>
      </trkpt>
      <trkpt lat="44.78856" lon="4.62095">
        <ele>429.1</ele>
        <time>2022-03-22T17:34:38Z</time>
      </trkpt>
      <trkpt lat="44.78917" lon="4.62012">
        <ele>422.9</ele>
        <time>2022-03-22T17:34:40Z</time>
      </trkpt>
      <trkpt lat="44.78922" lon="4.61994">
        <ele>423.4</ele>
        <time>2022-03-22T17:34:42Z</time>
      </trkpt>
      <trkpt lat="44.78937" lon="4.6185">
        <ele>417.64</ele>
        <time>2022-03-22T17:34:44Z</time>
      </trkpt>
      <trkpt lat="44.78974" lon="4.61793">
        <ele>407.71</ele>
        <time>2022-03-22T17:34:45Z</time>
      </trkpt>
      <trkpt lat="44.78979" lon="4.61776">
        <ele>408.31</ele>
        <time>2022-03-22T17:34:47Z</time>
      </trkpt>
      <trkpt lat="44.7898" lon="4.6176">
        <ele>408.17</ele>
        <time>2022-03-22T17:34:49Z</time>
      </trkpt>
      <trkpt lat="44.78974" lon="4.61737">
        <ele>407.84</ele>
        <time>2022-03-22T17:34:51Z</time>
      </trkpt>
      <trkpt lat="44.78951" lon="4.61718">
        <ele>406.97</ele>
        <time>2022-03-22T17:34:52Z</time>
      </trkpt>
      <trkpt lat="44.78905" lon="4.61698">
        <ele>401.38</ele>
        <time>2022-03-22T17:34:54Z</time>
      </trkpt>
      <trkpt lat="44.78781" lon="4.61679">
        <ele>399.5</ele>
        <time>2022-03-22T17:34:56Z</time>
      </trkpt>
      <trkpt lat="44.78761" lon="4.6167">
        <ele>398.69</ele>
        <time>2022-03-22T17:34:58Z</time>
      </trkpt>
      <trkpt lat="44.78728" lon="4.61644">
        <ele>398.91</ele>
        <time>2022-03-22T17:34:59Z</time>
      </trkpt>
      <trkpt lat="44.78701" lon="4.6163">
        <ele>401.59</ele>
        <time>2022-03-22T17:35:01Z</time>
      </trkpt>
      <trkpt lat="44.78678" lon="4.61608">
        <ele>402.19</ele>
        <time>2022-03-22T17:35:03Z</time>
      </trkpt>
      <trkpt lat="44.78675" lon="4.61594">
        <ele>401.66</ele>
        <time>2022-03-22T17:35:05Z</time>
      </trkpt>
      <trkpt lat="44.78676" lon="4.61582">
        <ele>400.6</ele>
        <time>2022-03-22T17:35:06Z</time>
      </trkpt>
      <trkpt lat="44.78686" lon="4.61565">
        <ele>398.8</ele>
        <time>2022-03-22T17:35:08Z</time>
      </trkpt>
      <trkpt lat="44.7876" lon="4.61523">
        <ele>392.87</ele>
        <time>2022-03-22T17:35:10Z</time>
      </trkpt>
      <trkpt lat="44.78813" lon="4.61459">
        <ele>389.23</ele>
        <time>2022-03-22T17:35:12Z</time>
      </trkpt>
      <trkpt lat="44.78837" lon="4.61435">
        <ele>387.54</ele>
        <time>2022-03-22T17:35:13Z</time>
      </trkpt>
      <trkpt lat="44.78864" lon="4.61416">
        <ele>384.64</ele>
        <time>2022-03-22T17:35:15Z</time>
      </trkpt>
      <trkpt lat="44.78919" lon="4.61377">
        <ele>381.3</ele>
        <time>2022-03-22T17:35:17Z</time>
      </trkpt>
      <trkpt lat="44.79013" lon="4.61353">
        <ele>363.28</ele>
        <time>2022-03-22T17:35:19Z</time>
      </trkpt>
      <trkpt lat="44.79025" lon="4.6134">
        <ele>362.15</ele>
        <time>2022-03-22T17:35:20Z</time>
      </trkpt>
      <trkpt lat="44.79032" lon="4.61319">
        <ele>363.35</ele>
        <time>2022-03-22T17:35:22Z</time>
      </trkpt>
      <trkpt lat="44.79027" lon="4.61246">
        <ele>366.2</ele>
        <time>2022-03-22T17:35:24Z</time>
      </trkpt>
      <trkpt lat="44.7902" lon="4.61195">
        <ele>367.5</ele>
        <time>2022-03-22T17:35:26Z</time>
      </trkpt>
      <trkpt lat="44.79021" lon="4.61106">
        <ele>367.83</ele>
        <time>2022-03-22T17:35:27Z</time>
      </trkpt>
      <trkpt lat="44.7903" lon="4.61087">
        <ele>366.61</ele>
        <time>2022-03-22T17:35:29Z</time>
      </trkpt>
      <trkpt lat="44.79043" lon="4.61078">
        <ele>364.48</ele>
        <time>2022-03-22T17:35:31Z</time>
      </trkpt>
      <trkpt lat="44.79057" lon="4.61076">
        <ele>360.53</ele>
        <time>2022-03-22T17:35:33Z</time>
      </trkpt>
      <trkpt lat="44.79067" lon="4.61079">
        <ele>359.31</ele>
        <time>2022-03-22T17:35:34Z</time>
      </trkpt>
      <trkpt lat="44.79101" lon="4.61109">
        <ele>354.1</ele>
        <time>2022-03-22T17:35:36Z</time>
      </trkpt>
      <trkpt lat="44.79108" lon="4.61119">
        <ele>353.6</ele>
        <time>2022-03-22T17:35:38Z</time>
      </trkpt>
      <trkpt lat="44.79137" lon="4.61174">
        <ele>347.17</ele>
        <time>2022-03-22T17:35:40Z</time>
      </trkpt>
      <trkpt lat="44.79187" lon="4.6121">
        <ele>346.8</ele>
        <time>2022-03-22T17:35:41Z</time>
      </trkpt>
      <trkpt lat="44.79201" lon="4.61225">
        <ele>344.97</ele>
        <time>2022-03-22T17:35:43Z</time>
      </trkpt>
      <trkpt lat="44.79207" lon="4.61239">
        <ele>343.37</ele>
        <time>2022-03-22T17:35:45Z</time>
      </trkpt>
      <trkpt lat="44.79213" lon="4.61268">
        <ele>338.42</ele>
        <time>2022-03-22T17:35:47Z</time>
      </trkpt>
      <trkpt lat="44.79216" lon="4.61275">
        <ele>338.08</ele>
        <time>2022-03-22T17:35:48Z</time>
      </trkpt>
      <trkpt lat="44.79225" lon="4.61284">
        <ele>338.27</ele>
        <time>2022-03-22T17:35:50Z</time>
      </trkpt>
      <trkpt lat="44.79251" lon="4.61298">
        <ele>339.13</ele>
        <time>2022-03-22T17:35:52Z</time>
      </trkpt>
      <trkpt lat="44.79286" lon="4.61308">
        <ele>335.33</ele>
        <time>2022-03-22T17:35:54Z</time>
      </trkpt>
      <trkpt lat="44.79297" lon="4.61302">
        <ele>336.06</ele>
        <time>2022-03-22T17:35:55Z</time>
      </trkpt>
      <trkpt lat="44.79305" lon="4.61291">
        <ele>337.67</ele>
        <time>2022-03-22T17:35:57Z</time>
      </trkpt>
      <trkpt lat="44.79318" lon="4.61259">
        <ele>342.19</ele>
        <time>2022-03-22T17:35:59Z</time>
      </trkpt>
      <trkpt lat="44.79328" lon="4.61249">
        <ele>342.09</ele>
        <time>2022-03-22T17:36:01Z</time>
      </trkpt>
      <trkpt lat="44.79339" lon="4.61245">
        <ele>341.72</ele>
        <time>2022-03-22T17:36:02Z</time>
      </trkpt>
      <trkpt lat="44.79354" lon="4.61246">
        <ele>341.9</ele>
        <time>2022-03-22T17:36:04Z</time>
      </trkpt>
      <trkpt lat="44.79368" lon="4.61257">
        <ele>339.51</ele>
        <time>2022-03-22T17:36:06Z</time>
      </trkpt>
      <trkpt lat="44.79414" lon="4.61324">
        <ele>330.64</ele>
        <time>2022-03-22T17:36:08Z</time>
      </trkpt>
      <trkpt lat="44.79428" lon="4.61339">
        <ele>330.82</ele>
        <time>2022-03-22T17:36:09Z</time>
      </trkpt>
      <trkpt lat="44.79453" lon="4.61357">
        <ele>333.79</ele>
        <time>2022-03-22T17:36:11Z</time>
      </trkpt>
      <trkpt lat="44.7946" lon="4.61367">
        <ele>333.15</ele>
        <time>2022-03-22T17:36:13Z</time>
      </trkpt>
      <trkpt lat="44.79478" lon="4.61415">
        <ele>321.85</ele>
        <time>2022-03-22T17:36:15Z</time>
      </trkpt>
      <trkpt lat="44.79489" lon="4.61423">
        <ele>320.06</ele>
        <time>2022-03-22T17:36:16Z</time>
      </trkpt>
      <trkpt lat="44.795" lon="4.61427">
        <ele>320.15</ele>
        <time>2022-03-22T17:36:18Z</time>
      </trkpt>
      <trkpt lat="44.79533" lon="4.61423">
        <ele>326.87</ele>
        <time>2022-03-22T17:36:20Z</time>
      </trkpt>
      <trkpt lat="44.79547" lon="4.61426">
        <ele>327.83</ele>
        <time>2022-03-22T17:36:22Z</time>
      </trkpt>
      <trkpt lat="44.79592" lon="4.61455">
        <ele>317.64</ele>
        <time>2022-03-22T17:36:23Z</time>
      </trkpt>
      <trkpt lat="44.79609" lon="4.61457">
        <ele>315.54</ele>
        <time>2022-03-22T17:36:25Z</time>
      </trkpt>
      <trkpt lat="44.79624" lon="4.61455">
        <ele>314.01</ele>
        <time>2022-03-22T17:36:27Z</time>
      </trkpt>
      <trkpt lat="44.79661" lon="4.61444">
        <ele>317.11</ele>
        <time>2022-03-22T17:36:29Z</time>
      </trkpt>
      <trkpt lat="44.79677" lon="4.61442">
        <ele>318.93</ele>
        <time>2022-03-22T17:36:30Z</time>
      </trkpt>
      <trkpt lat="44.79692" lon="4.61447">
        <ele>318.76</ele>
        <time>2022-03-22T17:36:32Z</time>
      </trkpt>
      <trkpt lat="44.79725" lon="4.61475">
        <ele>309.25</ele>
        <time>2022-03-22T17:36:34Z</time>
      </trkpt>
      <trkpt lat="44.79738" lon="4.61481">
        <ele>309.52</ele>
        <time>2022-03-22T17:36:36Z</time>
      </trkpt>
      <trkpt lat="44.79792" lon="4.61482">
        <ele>307.89</ele>
        <time>2022-03-22T17:36:37Z</time>
      </trkpt>
      <trkpt lat="44.79826" lon="4.61471">
        <ele>303.39</ele>
        <time>2022-03-22T17:36:39Z</time>
      </trkpt>
      <trkpt lat="44.79844" lon="4.61452">
        <ele>303.93</ele>
        <time>2022-03-22T17:36:41Z</time>
      </trkpt>
      <trkpt lat="44.79852" lon="4.61417">
        <ele>308.64</ele>
        <time>2022-03-22T17:36:43Z</time>
      </trkpt>
      <trkpt lat="44.79866" lon="4.61373">
        <ele>305.21</ele>
        <time>2022-03-22T17:36:44Z</time>
      </trkpt>
      <trkpt lat="44.79882" lon="4.61349">
        <ele>302.65</ele>
        <time>2022-03-22T17:36:46Z</time>
      </trkpt>
      <trkpt lat="44.79905" lon="4.61328">
        <ele>298.24</ele>
        <time>2022-03-22T17:36:48Z</time>
      </trkpt>
      <trkpt lat="44.79921" lon="4.6132">
        <ele>295.73</ele>
        <time>2022-03-22T17:36:50Z</time>
      </trkpt>
      <trkpt lat="44.79953" lon="4.61318">
        <ele>289.32</ele>
        <time>2022-03-22T17:36:51Z</time>
      </trkpt>
      <trkpt lat="44.79966" lon="4.61307">
        <ele>289.06</ele>
        <time>2022-03-22T17:36:53Z</time>
      </trkpt>
      <trkpt lat="44.79976" lon="4.6128">
        <ele>289.36</ele>
        <time>2022-03-22T17:36:55Z</time>
      </trkpt>
      <trkpt lat="44.79975" lon="4.61265">
        <ele>291.75</ele>
        <time>2022-03-22T17:36:57Z</time>
      </trkpt>
      <trkpt lat="44.7997" lon="4.61234">
        <ele>295.68</ele>
        <time>2022-03-22T17:36:58Z</time>
      </trkpt>
      <trkpt lat="44.79977" lon="4.61209">
        <ele>293.08</ele>
        <time>2022-03-22T17:37:00Z</time>
      </trkpt>
      <trkpt lat="44.79991" lon="4.61187">
        <ele>288.21</ele>
        <time>2022-03-22T17:37:02Z</time>
      </trkpt>
      <trkpt lat="44.79996" lon="4.61169">
        <ele>285.37</ele>
        <time>2022-03-22T17:37:04Z</time>
      </trkpt>
      <trkpt lat="44.79992" lon="4.61144">
        <ele>282.64</ele>
        <time>2022-03-22T17:37:05Z</time>
      </trkpt>
      <trkpt lat="44.79975" lon="4.61119">
        <ele>283.75</ele>
        <time>2022-03-22T17:37:07Z</time>
      </trkpt>
      <trkpt lat="44.79967" lon="4.61088">
        <ele>280.53</ele>
        <time>2022-03-22T17:37:09Z</time>
      </trkpt>
      <trkpt lat="44.79963" lon="4.61056">
        <ele>276.61</ele>
        <time>2022-03-22T17:37:11Z</time>
      </trkpt>
      <trkpt lat="44.79919" lon="4.60981">
        <ele>280.34</ele>
        <time>2022-03-22T17:37:12Z</time>
      </trkpt>
      <trkpt lat="44.79899" lon="4.60938">
        <ele>278.51</ele>
        <time>2022-03-22T17:37:14Z</time>
      </trkpt>
      <trkpt lat="44.79873" lon="4.60896">
        <ele>278.47</ele>
        <time>2022-03-22T17:37:16Z</time>
      </trkpt>
      <trkpt lat="44.7985" lon="4.60857">
        <ele>278.05</ele>
        <time>2022-03-22T17:37:18Z</time>
      </trkpt>
      <trkpt lat="44.79848" lon="4.60845">
        <ele>278.16</ele>
        <time>2022-03-22T17:37:19Z</time>
      </trkpt>
      <trkpt lat="44.79848" lon="4.60839">
        <ele>278.08</ele>
        <time>2022-03-22T17:37:21Z</time>
      </trkpt>
      <trkpt lat="44.79853" lon="4.60826">
        <ele>277.94</ele>
        <time>2022-03-22T17:37:23Z</time>
      </trkpt>
      <trkpt lat="44.79859" lon="4.6082">
        <ele>277.84</ele>
        <time>2022-03-22T17:37:25Z</time>
      </trkpt>
      <trkpt lat="44.79864" lon="4.60817">
        <ele>277.78</ele>
        <time>2022-03-22T17:37:26Z</time>
      </trkpt>
      <trkpt lat="44.79876" lon="4.60817">
        <ele>279.09</ele>
        <time>2022-03-22T17:37:28Z</time>
      </trkpt>
      <trkpt lat="44.79885" lon="4.60824">
        <ele>277.43</ele>
        <time>2022-03-22T17:37:30Z</time>
      </trkpt>
      <trkpt lat="44.79902" lon="4.60856">
        <ele>272.95</ele>
        <time>2022-03-22T17:37:32Z</time>
      </trkpt>
      <trkpt lat="44.79912" lon="4.60863">
        <ele>272.96</ele>
        <time>2022-03-22T17:37:33Z</time>
      </trkpt>
      <trkpt lat="44.79923" lon="4.60868">
        <ele>273.97</ele>
        <time>2022-03-22T17:37:35Z</time>
      </trkpt>
      <trkpt lat="44.79948" lon="4.60874">
        <ele>277.06</ele>
        <time>2022-03-22T17:37:37Z</time>
      </trkpt>
      <trkpt lat="44.79979" lon="4.60907">
        <ele>270.33</ele>
        <time>2022-03-22T17:37:39Z</time>
      </trkpt>
      <trkpt lat="44.80013" lon="4.60931">
        <ele>266.43</ele>
        <time>2022-03-22T17:37:40Z</time>
      </trkpt>
      <trkpt lat="44.80021" lon="4.6094">
        <ele>265.14</ele>
        <time>2022-03-22T17:37:42Z</time>
      </trkpt>
      <trkpt lat="44.80037" lon="4.60966">
        <ele>262.61</ele>
        <time>2022-03-22T17:37:44Z</time>
      </trkpt>
      <trkpt lat="44.80091" lon="4.61021">
        <ele>254.62</ele>
        <time>2022-03-22T17:37:46Z</time>
      </trkpt>
      <trkpt lat="44.80115" lon="4.61039">
        <ele>251.79</ele>
        <time>2022-03-22T17:37:47Z</time>
      </trkpt>
      <trkpt lat="44.80148" lon="4.61051">
        <ele>254.44</ele>
        <time>2022-03-22T17:37:49Z</time>
      </trkpt>
      <trkpt lat="44.80161" lon="4.61069">
        <ele>250.61</ele>
        <time>2022-03-22T17:37:51Z</time>
      </trkpt>
      <trkpt lat="44.80174" lon="4.61095">
        <ele>243.72</ele>
        <time>2022-03-22T17:37:53Z</time>
      </trkpt>
      <trkpt lat="44.80181" lon="4.61103">
        <ele>243.03</ele>
        <time>2022-03-22T17:37:54Z</time>
      </trkpt>
      <trkpt lat="44.8022" lon="4.61108">
        <ele>247.02</ele>
        <time>2022-03-22T17:37:56Z</time>
      </trkpt>
      <trkpt lat="44.80237" lon="4.61124">
        <ele>243.2</ele>
        <time>2022-03-22T17:37:58Z</time>
      </trkpt>
      <trkpt lat="44.80259" lon="4.61161">
        <ele>234.67</ele>
        <time>2022-03-22T17:38:00Z</time>
      </trkpt>
      <trkpt lat="44.80272" lon="4.61196">
        <ele>229.49</ele>
        <time>2022-03-22T17:38:01Z</time>
      </trkpt>
      <trkpt lat="44.8028" lon="4.61208">
        <ele>229.4</ele>
        <time>2022-03-22T17:38:03Z</time>
      </trkpt>
      <trkpt lat="44.80288" lon="4.61212">
        <ele>229.68</ele>
        <time>2022-03-22T17:38:05Z</time>
      </trkpt>
      <trkpt lat="44.80299" lon="4.6121">
        <ele>231.32</ele>
        <time>2022-03-22T17:38:07Z</time>
      </trkpt>
      <trkpt lat="44.80313" lon="4.61197">
        <ele>232.52</ele>
        <time>2022-03-22T17:38:08Z</time>
      </trkpt>
      <trkpt lat="44.80327" lon="4.61158">
        <ele>236.01</ele>
        <time>2022-03-22T17:38:10Z</time>
      </trkpt>
      <trkpt lat="44.80336" lon="4.61147">
        <ele>236.06</ele>
        <time>2022-03-22T17:38:12Z</time>
      </trkpt>
      <trkpt lat="44.80355" lon="4.61138">
        <ele>231.44</ele>
        <time>2022-03-22T17:38:14Z</time>
      </trkpt>
      <trkpt lat="44.80384" lon="4.61129">
        <ele>232.15</ele>
        <time>2022-03-22T17:38:15Z</time>
      </trkpt>
      <trkpt lat="44.80402" lon="4.61126">
        <ele>234.56</ele>
        <time>2022-03-22T17:38:17Z</time>
      </trkpt>
      <trkpt lat="44.80412" lon="4.61129">
        <ele>234.44</ele>
        <time>2022-03-22T17:38:19Z</time>
      </trkpt>
      <trkpt lat="44.8047" lon="4.61159">
        <ele>221.67</ele>
        <time>2022-03-22T17:38:21Z</time>
      </trkpt>
      <trkpt lat="44.80515" lon="4.6115">
        <ele>223.89</ele>
        <time>2022-03-22T17:38:22Z</time>
      </trkpt>
      <trkpt lat="44.80552" lon="4.61155">
        <ele>217.1</ele>
        <time>2022-03-22T17:38:24Z</time>
      </trkpt>
      <trkpt lat="44.80576" lon="4.61152">
        <ele>212.75</ele>
        <time>2022-03-22T17:38:26Z</time>
      </trkpt>
      <trkpt lat="44.8059" lon="4.61137">
        <ele>209.88</ele>
        <time>2022-03-22T17:38:28Z</time>
      </trkpt>
      <trkpt lat="44.80594" lon="4.61124">
        <ele>207.36</ele>
        <time>2022-03-22T17:38:29Z</time>
      </trkpt>
      <trkpt lat="44.80593" lon="4.61114">
        <ele>206.85</ele>
        <time>2022-03-22T17:38:31Z</time>
      </trkpt>
      <trkpt lat="44.8059" lon="4.61099">
        <ele>207.18</ele>
        <time>2022-03-22T17:38:33Z</time>
      </trkpt>
      <trkpt lat="44.80564" lon="4.61023">
        <ele>216.86</ele>
        <time>2022-03-22T17:38:35Z</time>
      </trkpt>
      <trkpt lat="44.80554" lon="4.60948">
        <ele>208.27</ele>
        <time>2022-03-22T17:38:36Z</time>
      </trkpt>
      <trkpt lat="44.8053" lon="4.60861">
        <ele>210.38</ele>
        <time>2022-03-22T17:38:38Z</time>
      </trkpt>
      <trkpt lat="44.80525" lon="4.6083">
        <ele>209.49</ele>
        <time>2022-03-22T17:38:40Z</time>
      </trkpt>
      <trkpt lat="44.80529" lon="4.60816">
        <ele>207.41</ele>
        <time>2022-03-22T17:38:42Z</time>
      </trkpt>
      <trkpt lat="44.80536" lon="4.60803">
        <ele>205.5</ele>
        <time>2022-03-22T17:38:43Z</time>
      </trkpt>
      <trkpt lat="44.8055" lon="4.608">
        <ele>203.73</ele>
        <time>2022-03-22T17:38:45Z</time>
      </trkpt>
      <trkpt lat="44.80561" lon="4.60802">
        <ele>201.99</ele>
        <time>2022-03-22T17:38:47Z</time>
      </trkpt>
      <trkpt lat="44.80578" lon="4.60819">
        <ele>205.4</ele>
        <time>2022-03-22T17:38:49Z</time>
      </trkpt>
      <trkpt lat="44.80594" lon="4.6085">
        <ele>210</ele>
        <time>2022-03-22T17:38:50Z</time>
      </trkpt>
      <trkpt lat="44.80629" lon="4.60936">
        <ele>206.6</ele>
        <time>2022-03-22T17:38:52Z</time>
      </trkpt>
      <trkpt lat="44.80631" lon="4.6095">
        <ele>204.64</ele>
        <time>2022-03-22T17:38:54Z</time>
      </trkpt>
      <trkpt lat="44.80624" lon="4.60982">
        <ele>197.65</ele>
        <time>2022-03-22T17:38:56Z</time>
      </trkpt>
      <trkpt lat="44.80625" lon="4.60995">
        <ele>197.87</ele>
        <time>2022-03-22T17:38:57Z</time>
      </trkpt>
      <trkpt lat="44.80646" lon="4.61057">
        <ele>193.31</ele>
        <time>2022-03-22T17:38:59Z</time>
      </trkpt>
      <trkpt lat="44.8066" lon="4.61088">
        <ele>188.28</ele>
        <time>2022-03-22T17:39:01Z</time>
      </trkpt>
      <trkpt lat="44.8067" lon="4.61097">
        <ele>187</ele>
        <time>2022-03-22T17:39:03Z</time>
      </trkpt>
      <trkpt lat="44.80678" lon="4.61102">
        <ele>186.75</ele>
        <time>2022-03-22T17:39:04Z</time>
      </trkpt>
      <trkpt lat="44.8073" lon="4.6111">
        <ele>191.54</ele>
        <time>2022-03-22T17:39:06Z</time>
      </trkpt>
      <trkpt lat="44.80739" lon="4.61118">
        <ele>189.02</ele>
        <time>2022-03-22T17:39:08Z</time>
      </trkpt>
      <trkpt lat="44.80744" lon="4.61129">
        <ele>184.45</ele>
        <time>2022-03-22T17:39:10Z</time>
      </trkpt>
      <trkpt lat="44.80749" lon="4.61142">
        <ele>178.78</ele>
        <time>2022-03-22T17:39:12Z</time>
      </trkpt>
      <trkpt lat="44.80737" lon="4.61156">
        <ele>177.7</ele>
        <time>2022-03-22T17:39:17Z</time>
      </trkpt>
      <trkpt lat="44.80723" lon="4.61183">
        <ele>174.81</ele>
        <time>2022-03-22T17:39:22Z</time>
      </trkpt>
      <trkpt lat="44.80702" lon="4.61209">
        <ele>176.07</ele>
        <time>2022-03-22T17:39:27Z</time>
      </trkpt>
      <trkpt lat="44.80667" lon="4.61235">
        <ele>180.58</ele>
        <time>2022-03-22T17:39:32Z</time>
      </trkpt>
      <trkpt lat="44.8043" lon="4.61373">
        <ele>179.71</ele>
        <time>2022-03-22T17:39:37Z</time>
      </trkpt>
      <trkpt lat="44.80421" lon="4.6138">
        <ele>178.93</ele>
        <time>2022-03-22T17:39:42Z</time>
      </trkpt>
      <trkpt lat="44.80419" lon="4.61389">
        <ele>178</ele>
        <time>2022-03-22T17:39:47Z</time>
      </trkpt>
      <trkpt lat="44.80417" lon="4.61398">
        <ele>177.01</ele>
        <time>2022-03-22T17:39:52Z</time>
      </trkpt>
      <trkpt lat="44.8042" lon="4.61411">
        <ele>175.63</ele>
        <time>2022-03-22T17:39:57Z</time>
      </trkpt>
      <trkpt lat="44.80465" lon="4.61547">
        <ele>171.26</ele>
        <time>2022-03-22T17:40:02Z</time>
      </trkpt>
      <trkpt lat="44.80468" lon="4.6156">
        <ele>172.11</ele>
        <time>2022-03-22T17:40:07Z</time>
      </trkpt>
      <trkpt lat="44.8048" lon="4.61668">
        <ele>180.75</ele>
        <time>2022-03-22T17:40:12Z</time>
      </trkpt>
      <trkpt lat="44.8048" lon="4.61679">
        <ele>182.09</ele>
        <time>2022-03-22T17:40:17Z</time>
      </trkpt>
      <trkpt lat="44.8047" lon="4.61739">
        <ele>184</ele>
        <time>2022-03-22T17:40:22Z</time>
      </trkpt>
      <trkpt lat="44.80458" lon="4.61845">
        <ele>187.28</ele>
        <time>2022-03-22T17:40:27Z</time>
      </trkpt>
      <trkpt lat="44.8046" lon="4.61861">
        <ele>187.36</ele>
        <time>2022-03-22T17:40:32Z</time>
      </trkpt>
      <trkpt lat="44.8047" lon="4.61888">
        <ele>187.63</ele>
        <time>2022-03-22T17:40:37Z</time>
      </trkpt>
      <trkpt lat="44.80471" lon="4.61915">
        <ele>188.8</ele>
        <time>2022-03-22T17:40:42Z</time>
      </trkpt>
      <trkpt lat="44.80468" lon="4.61927">
        <ele>189.58</ele>
        <time>2022-03-22T17:40:47Z</time>
      </trkpt>
      <trkpt lat="44.80409" lon="4.62037">
        <ele>193.98</ele>
        <time>2022-03-22T17:40:52Z</time>
      </trkpt>
      <trkpt lat="44.80396" lon="4.62074">
        <ele>189.98</ele>
        <time>2022-03-22T17:40:57Z</time>
      </trkpt>
      <trkpt lat="44.80394" lon="4.62108">
        <ele>187.65</ele>
        <time>2022-03-22T17:41:02Z</time>
      </trkpt>
      <trkpt lat="44.80396" lon="4.6212">
        <ele>187.98</ele>
        <time>2022-03-22T17:41:07Z</time>
      </trkpt>
      <trkpt lat="44.80401" lon="4.62132">
        <ele>188.84</ele>
        <time>2022-03-22T17:41:12Z</time>
      </trkpt>
      <trkpt lat="44.80413" lon="4.6215">
        <ele>190.7</ele>
        <time>2022-03-22T17:41:17Z</time>
      </trkpt>
      <trkpt lat="44.80432" lon="4.62171">
        <ele>193.33</ele>
        <time>2022-03-22T17:41:23Z</time>
      </trkpt>
      <trkpt lat="44.80446" lon="4.62195">
        <ele>194.23</ele>
        <time>2022-03-22T17:41:28Z</time>
      </trkpt>
      <trkpt lat="44.80492" lon="4.62294">
        <ele>199.46</ele>
        <time>2022-03-22T17:41:33Z</time>
      </trkpt>
      <trkpt lat="44.80499" lon="4.62304">
        <ele>200.03</ele>
        <time>2022-03-22T17:41:38Z</time>
      </trkpt>
      <trkpt lat="44.80503" lon="4.623">
        <ele>200.72</ele>
        <time>2022-03-22T17:41:39Z</time>
      </trkpt>
      <trkpt lat="44.80526" lon="4.623">
        <ele>202.84</ele>
        <time>2022-03-22T17:41:41Z</time>
      </trkpt>
      <trkpt lat="44.80577" lon="4.62311">
        <ele>204.59</ele>
        <time>2022-03-22T17:41:42Z</time>
      </trkpt>
      <trkpt lat="44.8066" lon="4.62324">
        <ele>211.38</ele>
        <time>2022-03-22T17:41:44Z</time>
      </trkpt>
      <trkpt lat="44.80669" lon="4.62322">
        <ele>212.12</ele>
        <time>2022-03-22T17:41:46Z</time>
      </trkpt>
      <trkpt lat="44.80674" lon="4.62316">
        <ele>213.21</ele>
        <time>2022-03-22T17:41:47Z</time>
      </trkpt>
      <trkpt lat="44.80677" lon="4.6231">
        <ele>213.9</ele>
        <time>2022-03-22T17:41:49Z</time>
      </trkpt>
      <trkpt lat="44.80676" lon="4.62291">
        <ele>214.84</ele>
        <time>2022-03-22T17:41:50Z</time>
      </trkpt>
      <trkpt lat="44.80653" lon="4.62205">
        <ele>215.72</ele>
        <time>2022-03-22T17:41:52Z</time>
      </trkpt>
      <trkpt lat="44.80653" lon="4.62187">
        <ele>215.38</ele>
        <time>2022-03-22T17:41:53Z</time>
      </trkpt>
      <trkpt lat="44.80656" lon="4.62159">
        <ele>214.44</ele>
        <time>2022-03-22T17:41:55Z</time>
      </trkpt>
      <trkpt lat="44.80662" lon="4.6214">
        <ele>213.06</ele>
        <time>2022-03-22T17:41:57Z</time>
      </trkpt>
      <trkpt lat="44.80671" lon="4.62125">
        <ele>213.22</ele>
        <time>2022-03-22T17:41:58Z</time>
      </trkpt>
      <trkpt lat="44.80697" lon="4.62109">
        <ele>217.4</ele>
        <time>2022-03-22T17:42:00Z</time>
      </trkpt>
      <trkpt lat="44.80724" lon="4.62088">
        <ele>221.5</ele>
        <time>2022-03-22T17:42:01Z</time>
      </trkpt>
      <trkpt lat="44.80735" lon="4.62075">
        <ele>222.61</ele>
        <time>2022-03-22T17:42:03Z</time>
      </trkpt>
      <trkpt lat="44.8075" lon="4.62029">
        <ele>220.03</ele>
        <time>2022-03-22T17:42:05Z</time>
      </trkpt>
      <trkpt lat="44.80761" lon="4.62017">
        <ele>220.49</ele>
        <time>2022-03-22T17:42:06Z</time>
      </trkpt>
      <trkpt lat="44.8077" lon="4.62015">
        <ele>221.54</ele>
        <time>2022-03-22T17:42:08Z</time>
      </trkpt>
      <trkpt lat="44.80805" lon="4.62019">
        <ele>229.18</ele>
        <time>2022-03-22T17:42:09Z</time>
      </trkpt>
      <trkpt lat="44.80814" lon="4.62014">
        <ele>230.88</ele>
        <time>2022-03-22T17:42:11Z</time>
      </trkpt>
      <trkpt lat="44.80821" lon="4.62006">
        <ele>231.99</ele>
        <time>2022-03-22T17:42:12Z</time>
      </trkpt>
      <trkpt lat="44.80823" lon="4.61997">
        <ele>232.46</ele>
        <time>2022-03-22T17:42:14Z</time>
      </trkpt>
      <trkpt lat="44.8082" lon="4.61982">
        <ele>232.37</ele>
        <time>2022-03-22T17:42:16Z</time>
      </trkpt>
      <trkpt lat="44.80814" lon="4.61964">
        <ele>231.67</ele>
        <time>2022-03-22T17:42:17Z</time>
      </trkpt>
      <trkpt lat="44.80803" lon="4.61949">
        <ele>230.04</ele>
        <time>2022-03-22T17:42:19Z</time>
      </trkpt>
      <trkpt lat="44.80797" lon="4.61932">
        <ele>230.62</ele>
        <time>2022-03-22T17:42:20Z</time>
      </trkpt>
      <trkpt lat="44.80792" lon="4.61902">
        <ele>232.99</ele>
        <time>2022-03-22T17:42:22Z</time>
      </trkpt>
      <trkpt lat="44.80787" lon="4.61789">
        <ele>234.64</ele>
        <time>2022-03-22T17:42:24Z</time>
      </trkpt>
      <trkpt lat="44.80788" lon="4.61779">
        <ele>234.3</ele>
        <time>2022-03-22T17:42:25Z</time>
      </trkpt>
      <trkpt lat="44.80796" lon="4.61766">
        <ele>234.93</ele>
        <time>2022-03-22T17:42:27Z</time>
      </trkpt>
      <trkpt lat="44.80804" lon="4.61761">
        <ele>235.85</ele>
        <time>2022-03-22T17:42:28Z</time>
      </trkpt>
      <trkpt lat="44.80811" lon="4.61761">
        <ele>236.39</ele>
        <time>2022-03-22T17:42:30Z</time>
      </trkpt>
      <trkpt lat="44.80818" lon="4.61764">
        <ele>237.11</ele>
        <time>2022-03-22T17:42:31Z</time>
      </trkpt>
      <trkpt lat="44.80868" lon="4.61822">
        <ele>250.87</ele>
        <time>2022-03-22T17:42:33Z</time>
      </trkpt>
      <trkpt lat="44.80883" lon="4.61823">
        <ele>253.03</ele>
        <time>2022-03-22T17:42:35Z</time>
      </trkpt>
      <trkpt lat="44.80894" lon="4.6182">
        <ele>254.09</ele>
        <time>2022-03-22T17:42:36Z</time>
      </trkpt>
      <trkpt lat="44.80898" lon="4.61813">
        <ele>253.45</ele>
        <time>2022-03-22T17:42:38Z</time>
      </trkpt>
      <trkpt lat="44.80902" lon="4.61788">
        <ele>247.46</ele>
        <time>2022-03-22T17:42:39Z</time>
      </trkpt>
      <trkpt lat="44.80915" lon="4.61769">
        <ele>243.75</ele>
        <time>2022-03-22T17:42:41Z</time>
      </trkpt>
      <trkpt lat="44.80933" lon="4.61763">
        <ele>243.59</ele>
        <time>2022-03-22T17:42:43Z</time>
      </trkpt>
      <trkpt lat="44.80954" lon="4.61765">
        <ele>245.52</ele>
        <time>2022-03-22T17:42:44Z</time>
      </trkpt>
      <trkpt lat="44.80975" lon="4.61776">
        <ele>249.84</ele>
        <time>2022-03-22T17:42:46Z</time>
      </trkpt>
      <trkpt lat="44.80995" lon="4.61809">
        <ele>254.11</ele>
        <time>2022-03-22T17:42:47Z</time>
      </trkpt>
      <trkpt lat="44.81028" lon="4.61831">
        <ele>255.28</ele>
        <time>2022-03-22T17:42:49Z</time>
      </trkpt>
      <trkpt lat="44.8106" lon="4.61833">
        <ele>252.85</ele>
        <time>2022-03-22T17:42:50Z</time>
      </trkpt>
      <trkpt lat="44.81073" lon="4.61839">
        <ele>252.66</ele>
        <time>2022-03-22T17:42:52Z</time>
      </trkpt>
      <trkpt lat="44.81081" lon="4.6185">
        <ele>255.7</ele>
        <time>2022-03-22T17:42:54Z</time>
      </trkpt>
      <trkpt lat="44.81096" lon="4.6188">
        <ele>264.77</ele>
        <time>2022-03-22T17:42:55Z</time>
      </trkpt>
      <trkpt lat="44.81108" lon="4.61888">
        <ele>265.18</ele>
        <time>2022-03-22T17:42:57Z</time>
      </trkpt>
      <trkpt lat="44.8112" lon="4.6189">
        <ele>264.19</ele>
        <time>2022-03-22T17:42:58Z</time>
      </trkpt>
      <trkpt lat="44.81128" lon="4.61889">
        <ele>262.38</ele>
        <time>2022-03-22T17:43:00Z</time>
      </trkpt>
      <trkpt lat="44.81147" lon="4.61878">
        <ele>255.95</ele>
        <time>2022-03-22T17:43:02Z</time>
      </trkpt>
      <trkpt lat="44.81163" lon="4.61883">
        <ele>257.48</ele>
        <time>2022-03-22T17:43:03Z</time>
      </trkpt>
      <trkpt lat="44.81189" lon="4.61907">
        <ele>271.02</ele>
        <time>2022-03-22T17:43:05Z</time>
      </trkpt>
      <trkpt lat="44.81226" lon="4.61909">
        <ele>267</ele>
        <time>2022-03-22T17:43:06Z</time>
      </trkpt>
      <trkpt lat="44.81247" lon="4.61919">
        <ele>265.57</ele>
        <time>2022-03-22T17:43:08Z</time>
      </trkpt>
      <trkpt lat="44.81269" lon="4.61934">
        <ele>265.86</ele>
        <time>2022-03-22T17:43:09Z</time>
      </trkpt>
      <trkpt lat="44.81286" lon="4.61954">
        <ele>268.28</ele>
        <time>2022-03-22T17:43:11Z</time>
      </trkpt>
      <trkpt lat="44.81304" lon="4.61979">
        <ele>272.37</ele>
        <time>2022-03-22T17:43:13Z</time>
      </trkpt>
      <trkpt lat="44.81318" lon="4.62015">
        <ele>281.93</ele>
        <time>2022-03-22T17:43:14Z</time>
      </trkpt>
      <trkpt lat="44.8134" lon="4.62034">
        <ele>280.26</ele>
        <time>2022-03-22T17:43:16Z</time>
      </trkpt>
      <trkpt lat="44.8135" lon="4.62048">
        <ele>280.84</ele>
        <time>2022-03-22T17:43:17Z</time>
      </trkpt>
      <trkpt lat="44.81361" lon="4.62071">
        <ele>284.42</ele>
        <time>2022-03-22T17:43:19Z</time>
      </trkpt>
      <trkpt lat="44.81381" lon="4.62077">
        <ele>277.26</ele>
        <time>2022-03-22T17:43:21Z</time>
      </trkpt>
      <trkpt lat="44.81387" lon="4.62081">
        <ele>276.21</ele>
        <time>2022-03-22T17:43:22Z</time>
      </trkpt>
      <trkpt lat="44.81408" lon="4.62114">
        <ele>285.35</ele>
        <time>2022-03-22T17:43:24Z</time>
      </trkpt>
      <trkpt lat="44.81413" lon="4.62118">
        <ele>285.57</ele>
        <time>2022-03-22T17:43:25Z</time>
      </trkpt>
      <trkpt lat="44.81421" lon="4.6212">
        <ele>283.99</ele>
        <time>2022-03-22T17:43:27Z</time>
      </trkpt>
      <trkpt lat="44.81446" lon="4.62119">
        <ele>278.25</ele>
        <time>2022-03-22T17:43:28Z</time>
      </trkpt>
      <trkpt lat="44.81451" lon="4.62121">
        <ele>278.17</ele>
        <time>2022-03-22T17:43:30Z</time>
      </trkpt>
      <trkpt lat="44.81472" lon="4.62149">
        <ele>287.63</ele>
        <time>2022-03-22T17:43:32Z</time>
      </trkpt>
      <trkpt lat="44.81494" lon="4.62162">
        <ele>287.26</ele>
        <time>2022-03-22T17:43:33Z</time>
      </trkpt>
      <trkpt lat="44.81508" lon="4.62173">
        <ele>285.8</ele>
        <time>2022-03-22T17:43:35Z</time>
      </trkpt>
      <trkpt lat="44.81515" lon="4.62184">
        <ele>286.14</ele>
        <time>2022-03-22T17:43:36Z</time>
      </trkpt>
      <trkpt lat="44.81523" lon="4.62208">
        <ele>292.19</ele>
        <time>2022-03-22T17:43:38Z</time>
      </trkpt>
      <trkpt lat="44.81531" lon="4.62216">
        <ele>292.27</ele>
        <time>2022-03-22T17:43:40Z</time>
      </trkpt>
      <trkpt lat="44.81581" lon="4.6224">
        <ele>294.67</ele>
        <time>2022-03-22T17:43:41Z</time>
      </trkpt>
      <trkpt lat="44.81606" lon="4.62245">
        <ele>294.13</ele>
        <time>2022-03-22T17:43:43Z</time>
      </trkpt>
      <trkpt lat="44.81616" lon="4.62254">
        <ele>297.09</ele>
        <time>2022-03-22T17:43:44Z</time>
      </trkpt>
      <trkpt lat="44.81623" lon="4.62265">
        <ele>301.71</ele>
        <time>2022-03-22T17:43:46Z</time>
      </trkpt>
      <trkpt lat="44.81632" lon="4.62291">
        <ele>310.61</ele>
        <time>2022-03-22T17:43:47Z</time>
      </trkpt>
      <trkpt lat="44.81637" lon="4.62299">
        <ele>311.34</ele>
        <time>2022-03-22T17:43:49Z</time>
      </trkpt>
      <trkpt lat="44.81674" lon="4.62338">
        <ele>315.65</ele>
        <time>2022-03-22T17:43:51Z</time>
      </trkpt>
      <trkpt lat="44.81681" lon="4.62338">
        <ele>316.92</ele>
        <time>2022-03-22T17:43:52Z</time>
      </trkpt>
      <trkpt lat="44.81689" lon="4.62333">
        <ele>316.01</ele>
        <time>2022-03-22T17:43:54Z</time>
      </trkpt>
      <trkpt lat="44.8172" lon="4.62254">
        <ele>296.8</ele>
        <time>2022-03-22T17:43:55Z</time>
      </trkpt>
      <trkpt lat="44.81726" lon="4.62248">
        <ele>295.94</ele>
        <time>2022-03-22T17:43:57Z</time>
      </trkpt>
      <trkpt lat="44.81733" lon="4.62247">
        <ele>297.03</ele>
        <time>2022-03-22T17:43:59Z</time>
      </trkpt>
      <trkpt lat="44.81752" lon="4.62262">
        <ele>305.8</ele>
        <time>2022-03-22T17:44:00Z</time>
      </trkpt>
      <trkpt lat="44.81778" lon="4.62275">
        <ele>319.65</ele>
        <time>2022-03-22T17:44:02Z</time>
      </trkpt>
      <trkpt lat="44.81792" lon="4.62272">
        <ele>321.98</ele>
        <time>2022-03-22T17:44:03Z</time>
      </trkpt>
      <trkpt lat="44.81801" lon="4.62262">
        <ele>320.01</ele>
        <time>2022-03-22T17:44:05Z</time>
      </trkpt>
      <trkpt lat="44.81819" lon="4.62233">
        <ele>314.62</ele>
        <time>2022-03-22T17:44:06Z</time>
      </trkpt>
      <trkpt lat="44.81844" lon="4.62181">
        <ele>301.88</ele>
        <time>2022-03-22T17:44:08Z</time>
      </trkpt>
      <trkpt lat="44.81854" lon="4.62175">
        <ele>301.8</ele>
        <time>2022-03-22T17:44:10Z</time>
      </trkpt>
      <trkpt lat="44.81865" lon="4.62179">
        <ele>303.55</ele>
        <time>2022-03-22T17:44:11Z</time>
      </trkpt>
      <trkpt lat="44.81873" lon="4.62187">
        <ele>305.07</ele>
        <time>2022-03-22T17:44:13Z</time>
      </trkpt>
      <trkpt lat="44.8188" lon="4.62199">
        <ele>308.38</ele>
        <time>2022-03-22T17:44:14Z</time>
      </trkpt>
      <trkpt lat="44.81934" lon="4.62342">
        <ele>325.93</ele>
        <time>2022-03-22T17:44:16Z</time>
      </trkpt>
      <trkpt lat="44.81959" lon="4.62378">
        <ele>321.85</ele>
        <time>2022-03-22T17:44:18Z</time>
      </trkpt>
      <trkpt lat="44.81973" lon="4.62413">
        <ele>328.6</ele>
        <time>2022-03-22T17:44:19Z</time>
      </trkpt>
      <trkpt lat="44.82029" lon="4.62472">
        <ele>345.83</ele>
        <time>2022-03-22T17:44:21Z</time>
      </trkpt>
      <trkpt lat="44.82036" lon="4.62472">
        <ele>347.14</ele>
        <time>2022-03-22T17:44:22Z</time>
      </trkpt>
      <trkpt lat="44.82043" lon="4.62468">
        <ele>346.84</ele>
        <time>2022-03-22T17:44:24Z</time>
      </trkpt>
      <trkpt lat="44.82061" lon="4.62439">
        <ele>343.28</ele>
        <time>2022-03-22T17:44:25Z</time>
      </trkpt>
      <trkpt lat="44.82081" lon="4.62417">
        <ele>339.5</ele>
        <time>2022-03-22T17:44:27Z</time>
      </trkpt>
      <trkpt lat="44.82082" lon="4.62404">
        <ele>338.7</ele>
        <time>2022-03-22T17:44:29Z</time>
      </trkpt>
      <trkpt lat="44.82075" lon="4.62366">
        <ele>333.83</ele>
        <time>2022-03-22T17:44:30Z</time>
      </trkpt>
      <trkpt lat="44.82077" lon="4.62351">
        <ele>334.58</ele>
        <time>2022-03-22T17:44:32Z</time>
      </trkpt>
      <trkpt lat="44.82101" lon="4.62265">
        <ele>338.87</ele>
        <time>2022-03-22T17:44:33Z</time>
      </trkpt>
      <trkpt lat="44.8211" lon="4.62223">
        <ele>331.52</ele>
        <time>2022-03-22T17:44:35Z</time>
      </trkpt>
      <trkpt lat="44.82118" lon="4.62205">
        <ele>332.2</ele>
        <time>2022-03-22T17:44:37Z</time>
      </trkpt>
      <trkpt lat="44.82129" lon="4.6219">
        <ele>336.37</ele>
        <time>2022-03-22T17:44:38Z</time>
      </trkpt>
      <trkpt lat="44.82139" lon="4.62179">
        <ele>341.3</ele>
        <time>2022-03-22T17:44:40Z</time>
      </trkpt>
      <trkpt lat="44.82153" lon="4.62163">
        <ele>349.62</ele>
        <time>2022-03-22T17:44:41Z</time>
      </trkpt>
      <trkpt lat="44.82154" lon="4.6211">
        <ele>338.1</ele>
        <time>2022-03-22T17:44:43Z</time>
      </trkpt>
      <trkpt lat="44.82162" lon="4.62074">
        <ele>340.69</ele>
        <time>2022-03-22T17:44:44Z</time>
      </trkpt>
      <trkpt lat="44.82178" lon="4.62043">
        <ele>345.88</ele>
        <time>2022-03-22T17:44:46Z</time>
      </trkpt>
      <trkpt lat="44.82188" lon="4.62028">
        <ele>350.58</ele>
        <time>2022-03-22T17:44:48Z</time>
      </trkpt>
      <trkpt lat="44.82227" lon="4.61995">
        <ele>352.26</ele>
        <time>2022-03-22T17:44:49Z</time>
      </trkpt>
      <trkpt lat="44.82258" lon="4.61988">
        <ele>354.51</ele>
        <time>2022-03-22T17:44:51Z</time>
      </trkpt>
      <trkpt lat="44.8228" lon="4.61998">
        <ele>365.06</ele>
        <time>2022-03-22T17:44:52Z</time>
      </trkpt>
      <trkpt lat="44.82297" lon="4.61998">
        <ele>369.8</ele>
        <time>2022-03-22T17:44:54Z</time>
      </trkpt>
      <trkpt lat="44.82338" lon="4.61947">
        <ele>372.65</ele>
        <time>2022-03-22T17:44:55Z</time>
      </trkpt>
      <trkpt lat="44.82347" lon="4.61924">
        <ele>368.36</ele>
        <time>2022-03-22T17:44:57Z</time>
      </trkpt>
      <trkpt lat="44.82352" lon="4.61892">
        <ele>359.11</ele>
        <time>2022-03-22T17:44:59Z</time>
      </trkpt>
      <trkpt lat="44.82376" lon="4.61841">
        <ele>365.75</ele>
        <time>2022-03-22T17:45:00Z</time>
      </trkpt>
      <trkpt lat="44.82402" lon="4.61801">
        <ele>374.57</ele>
        <time>2022-03-22T17:45:02Z</time>
      </trkpt>
      <trkpt lat="44.82411" lon="4.61774">
        <ele>371.26</ele>
        <time>2022-03-22T17:45:03Z</time>
      </trkpt>
      <trkpt lat="44.8244" lon="4.61742">
        <ele>373.68</ele>
        <time>2022-03-22T17:45:05Z</time>
      </trkpt>
      <trkpt lat="44.82457" lon="4.61715">
        <ele>368.43</ele>
        <time>2022-03-22T17:45:07Z</time>
      </trkpt>
      <trkpt lat="44.82471" lon="4.61713">
        <ele>372.26</ele>
        <time>2022-03-22T17:45:08Z</time>
      </trkpt>
      <trkpt lat="44.82488" lon="4.61724">
        <ele>376.51</ele>
        <time>2022-03-22T17:45:10Z</time>
      </trkpt>
      <trkpt lat="44.82513" lon="4.61761">
        <ele>387.48</ele>
        <time>2022-03-22T17:45:11Z</time>
      </trkpt>
      <trkpt lat="44.82522" lon="4.61764">
        <ele>388.85</ele>
        <time>2022-03-22T17:45:13Z</time>
      </trkpt>
      <trkpt lat="44.82529" lon="4.61761">
        <ele>388.52</ele>
        <time>2022-03-22T17:45:14Z</time>
      </trkpt>
      <trkpt lat="44.82535" lon="4.61753">
        <ele>388</ele>
        <time>2022-03-22T17:45:16Z</time>
      </trkpt>
      <trkpt lat="44.82595" lon="4.61635">
        <ele>378.61</ele>
        <time>2022-03-22T17:45:18Z</time>
      </trkpt>
      <trkpt lat="44.82661" lon="4.61562">
        <ele>388.35</ele>
        <time>2022-03-22T17:45:19Z</time>
      </trkpt>
      <trkpt lat="44.82673" lon="4.61544">
        <ele>391.35</ele>
        <time>2022-03-22T17:45:21Z</time>
      </trkpt>
      <trkpt lat="44.82676" lon="4.61536">
        <ele>391.84</ele>
        <time>2022-03-22T17:45:22Z</time>
      </trkpt>
      <trkpt lat="44.82676" lon="4.61529">
        <ele>391</ele>
        <time>2022-03-22T17:45:24Z</time>
      </trkpt>
      <trkpt lat="44.82665" lon="4.61498">
        <ele>387.64</ele>
        <time>2022-03-22T17:45:26Z</time>
      </trkpt>
      <trkpt lat="44.82662" lon="4.61481">
        <ele>390.14</ele>
        <time>2022-03-22T17:45:27Z</time>
      </trkpt>
      <trkpt lat="44.82663" lon="4.61444">
        <ele>399.2</ele>
        <time>2022-03-22T17:45:29Z</time>
      </trkpt>
      <trkpt lat="44.8266" lon="4.61435">
        <ele>399.52</ele>
        <time>2022-03-22T17:45:30Z</time>
      </trkpt>
      <trkpt lat="44.82654" lon="4.61428">
        <ele>398.25</ele>
        <time>2022-03-22T17:45:32Z</time>
      </trkpt>
      <trkpt lat="44.82633" lon="4.61421">
        <ele>390.02</ele>
        <time>2022-03-22T17:45:33Z</time>
      </trkpt>
      <trkpt lat="44.82615" lon="4.61402">
        <ele>387.43</ele>
        <time>2022-03-22T17:45:35Z</time>
      </trkpt>
      <trkpt lat="44.82612" lon="4.61391">
        <ele>389.61</ele>
        <time>2022-03-22T17:45:37Z</time>
      </trkpt>
      <trkpt lat="44.82609" lon="4.61355">
        <ele>395.98</ele>
        <time>2022-03-22T17:45:38Z</time>
      </trkpt>
      <trkpt lat="44.82594" lon="4.61304">
        <ele>394.98</ele>
        <time>2022-03-22T17:45:40Z</time>
      </trkpt>
      <trkpt lat="44.82596" lon="4.61291">
        <ele>395.46</ele>
        <time>2022-03-22T17:45:41Z</time>
      </trkpt>
      <trkpt lat="44.82604" lon="4.61274">
        <ele>398.72</ele>
        <time>2022-03-22T17:45:43Z</time>
      </trkpt>
      <trkpt lat="44.82609" lon="4.61258">
        <ele>399.51</ele>
        <time>2022-03-22T17:45:45Z</time>
      </trkpt>
      <trkpt lat="44.82608" lon="4.6122">
        <ele>403.57</ele>
        <time>2022-03-22T17:45:46Z</time>
      </trkpt>
      <trkpt lat="44.82602" lon="4.61193">
        <ele>407.49</ele>
        <time>2022-03-22T17:45:48Z</time>
      </trkpt>
      <trkpt lat="44.82593" lon="4.61168">
        <ele>409.03</ele>
        <time>2022-03-22T17:45:49Z</time>
      </trkpt>
      <trkpt lat="44.82585" lon="4.61108">
        <ele>412.57</ele>
        <time>2022-03-22T17:45:51Z</time>
      </trkpt>
      <trkpt lat="44.82584" lon="4.6109">
        <ele>411.64</ele>
        <time>2022-03-22T17:45:52Z</time>
      </trkpt>
      <trkpt lat="44.82587" lon="4.6106">
        <ele>411.85</ele>
        <time>2022-03-22T17:45:54Z</time>
      </trkpt>
      <trkpt lat="44.8258" lon="4.61028">
        <ele>407.2</ele>
        <time>2022-03-22T17:45:56Z</time>
      </trkpt>
      <trkpt lat="44.82579" lon="4.61014">
        <ele>406.38</ele>
        <time>2022-03-22T17:45:57Z</time>
      </trkpt>
      <trkpt lat="44.82595" lon="4.60969">
        <ele>413.43</ele>
        <time>2022-03-22T17:45:59Z</time>
      </trkpt>
      <trkpt lat="44.82596" lon="4.60959">
        <ele>412.67</ele>
        <time>2022-03-22T17:46:00Z</time>
      </trkpt>
      <trkpt lat="44.82592" lon="4.60933">
        <ele>407.76</ele>
        <time>2022-03-22T17:46:02Z</time>
      </trkpt>
      <trkpt lat="44.82595" lon="4.60915">
        <ele>406.32</ele>
        <time>2022-03-22T17:46:04Z</time>
      </trkpt>
      <trkpt lat="44.82599" lon="4.60909">
        <ele>407.13</ele>
        <time>2022-03-22T17:46:05Z</time>
      </trkpt>
      <trkpt lat="44.82609" lon="4.60905">
        <ele>409.91</ele>
        <time>2022-03-22T17:46:07Z</time>
      </trkpt>
      <trkpt lat="44.82669" lon="4.60907">
        <ele>417.45</ele>
        <time>2022-03-22T17:46:08Z</time>
      </trkpt>
      <trkpt lat="44.82742" lon="4.60975">
        <ele>430.97</ele>
        <time>2022-03-22T17:46:10Z</time>
      </trkpt>
      <trkpt lat="44.82777" lon="4.60967">
        <ele>433.39</ele>
        <time>2022-03-22T17:46:11Z</time>
      </trkpt>
      <trkpt lat="44.8279" lon="4.60953">
        <ele>432.61</ele>
        <time>2022-03-22T17:46:13Z</time>
      </trkpt>
      <trkpt lat="44.82803" lon="4.60933">
        <ele>428.26</ele>
        <time>2022-03-22T17:46:15Z</time>
      </trkpt>
      <trkpt lat="44.82818" lon="4.60916">
        <ele>424.52</ele>
        <time>2022-03-22T17:46:16Z</time>
      </trkpt>
      <trkpt lat="44.82834" lon="4.60912">
        <ele>428.11</ele>
        <time>2022-03-22T17:46:18Z</time>
      </trkpt>
      <trkpt lat="44.82847" lon="4.60917">
        <ele>430.01</ele>
        <time>2022-03-22T17:46:19Z</time>
      </trkpt>
      <trkpt lat="44.82968" lon="4.61051">
        <ele>441.28</ele>
        <time>2022-03-22T17:46:21Z</time>
      </trkpt>
      <trkpt lat="44.83015" lon="4.61083">
        <ele>443.42</ele>
        <time>2022-03-22T17:46:23Z</time>
      </trkpt>
      <trkpt lat="44.83047" lon="4.61127">
        <ele>456.4</ele>
        <time>2022-03-22T17:46:24Z</time>
      </trkpt>
      <trkpt lat="44.83056" lon="4.61126">
        <ele>456.77</ele>
        <time>2022-03-22T17:46:26Z</time>
      </trkpt>
      <trkpt lat="44.83063" lon="4.61122">
        <ele>457.13</ele>
        <time>2022-03-22T17:46:27Z</time>
      </trkpt>
      <trkpt lat="44.83069" lon="4.61113">
        <ele>456.13</ele>
        <time>2022-03-22T17:46:29Z</time>
      </trkpt>
      <trkpt lat="44.83071" lon="4.61101">
        <ele>455.78</ele>
        <time>2022-03-22T17:46:30Z</time>
      </trkpt>
      <trkpt lat="44.83071" lon="4.61071">
        <ele>453.76</ele>
        <time>2022-03-22T17:46:32Z</time>
      </trkpt>
      <trkpt lat="44.8308" lon="4.61033">
        <ele>456.36</ele>
        <time>2022-03-22T17:46:34Z</time>
      </trkpt>
      <trkpt lat="44.83079" lon="4.6102">
        <ele>455.05</ele>
        <time>2022-03-22T17:46:35Z</time>
      </trkpt>
      <trkpt lat="44.83067" lon="4.60973">
        <ele>447.7</ele>
        <time>2022-03-22T17:46:37Z</time>
      </trkpt>
      <trkpt lat="44.83065" lon="4.60953">
        <ele>448.6</ele>
        <time>2022-03-22T17:46:38Z</time>
      </trkpt>
      <trkpt lat="44.83067" lon="4.60902">
        <ele>453.88</ele>
        <time>2022-03-22T17:46:40Z</time>
      </trkpt>
      <trkpt lat="44.83062" lon="4.60843">
        <ele>458.5</ele>
        <time>2022-03-22T17:46:42Z</time>
      </trkpt>
      <trkpt lat="44.83063" lon="4.60786">
        <ele>459.52</ele>
        <time>2022-03-22T17:46:43Z</time>
      </trkpt>
      <trkpt lat="44.8309" lon="4.60756">
        <ele>464.32</ele>
        <time>2022-03-22T17:46:45Z</time>
      </trkpt>
      <trkpt lat="44.83109" lon="4.60706">
        <ele>464.02</ele>
        <time>2022-03-22T17:46:46Z</time>
      </trkpt>
      <trkpt lat="44.83128" lon="4.60676">
        <ele>462.36</ele>
        <time>2022-03-22T17:46:48Z</time>
      </trkpt>
      <trkpt lat="44.83155" lon="4.60676">
        <ele>466.7</ele>
        <time>2022-03-22T17:46:49Z</time>
      </trkpt>
      <trkpt lat="44.83182" lon="4.6069">
        <ele>469.78</ele>
        <time>2022-03-22T17:46:51Z</time>
      </trkpt>
      <trkpt lat="44.83216" lon="4.60728">
        <ele>471.04</ele>
        <time>2022-03-22T17:46:53Z</time>
      </trkpt>
      <trkpt lat="44.83265" lon="4.608">
        <ele>476.78</ele>
        <time>2022-03-22T17:46:54Z</time>
      </trkpt>
      <trkpt lat="44.83289" lon="4.60848">
        <ele>487.12</ele>
        <time>2022-03-22T17:46:56Z</time>
      </trkpt>
      <trkpt lat="44.83304" lon="4.60861">
        <ele>488.15</ele>
        <time>2022-03-22T17:46:57Z</time>
      </trkpt>
      <trkpt lat="44.8332" lon="4.60861">
        <ele>488.89</ele>
        <time>2022-03-22T17:46:59Z</time>
      </trkpt>
      <trkpt lat="44.83351" lon="4.60814">
        <ele>482.99</ele>
        <time>2022-03-22T17:47:01Z</time>
      </trkpt>
      <trkpt lat="44.83366" lon="4.60796">
        <ele>479.67</ele>
        <time>2022-03-22T17:47:02Z</time>
      </trkpt>
      <trkpt lat="44.83375" lon="4.60794">
        <ele>480.38</ele>
        <time>2022-03-22T17:47:04Z</time>
      </trkpt>
      <trkpt lat="44.83433" lon="4.60799">
        <ele>490.71</ele>
        <time>2022-03-22T17:47:05Z</time>
      </trkpt>
      <trkpt lat="44.83447" lon="4.60797">
        <ele>492.44</ele>
        <time>2022-03-22T17:47:07Z</time>
      </trkpt>
      <trkpt lat="44.83459" lon="4.60792">
        <ele>493.59</ele>
        <time>2022-03-22T17:47:08Z</time>
      </trkpt>
      <trkpt lat="44.83467" lon="4.60782">
        <ele>493.56</ele>
        <time>2022-03-22T17:47:10Z</time>
      </trkpt>
      <trkpt lat="44.83473" lon="4.60768">
        <ele>492.38</ele>
        <time>2022-03-22T17:47:12Z</time>
      </trkpt>
      <trkpt lat="44.83486" lon="4.60726">
        <ele>486.53</ele>
        <time>2022-03-22T17:47:13Z</time>
      </trkpt>
      <trkpt lat="44.83497" lon="4.60701">
        <ele>486.81</ele>
        <time>2022-03-22T17:47:15Z</time>
      </trkpt>
      <trkpt lat="44.83532" lon="4.60652">
        <ele>494.37</ele>
        <time>2022-03-22T17:47:16Z</time>
      </trkpt>
      <trkpt lat="44.83549" lon="4.6064">
        <ele>500.12</ele>
        <time>2022-03-22T17:47:18Z</time>
      </trkpt>
      <trkpt lat="44.83563" lon="4.60638">
        <ele>503.28</ele>
        <time>2022-03-22T17:47:20Z</time>
      </trkpt>
      <trkpt lat="44.83589" lon="4.60637">
        <ele>506.08</ele>
        <time>2022-03-22T17:47:21Z</time>
      </trkpt>
      <trkpt lat="44.83625" lon="4.6065">
        <ele>502.11</ele>
        <time>2022-03-22T17:47:23Z</time>
      </trkpt>
      <trkpt lat="44.83637" lon="4.60651">
        <ele>501.45</ele>
        <time>2022-03-22T17:47:24Z</time>
      </trkpt>
      <trkpt lat="44.8366" lon="4.60649">
        <ele>503.94</ele>
        <time>2022-03-22T17:47:26Z</time>
      </trkpt>
      <trkpt lat="44.83674" lon="4.60639">
        <ele>506.52</ele>
        <time>2022-03-22T17:47:27Z</time>
      </trkpt>
      <trkpt lat="44.83689" lon="4.60611">
        <ele>506.92</ele>
        <time>2022-03-22T17:47:29Z</time>
      </trkpt>
      <trkpt lat="44.83694" lon="4.60592">
        <ele>507.49</ele>
        <time>2022-03-22T17:47:31Z</time>
      </trkpt>
      <trkpt lat="44.83694" lon="4.60569">
        <ele>508.64</ele>
        <time>2022-03-22T17:47:32Z</time>
      </trkpt>
      <trkpt lat="44.83646" lon="4.60433">
        <ele>514.37</ele>
        <time>2022-03-22T17:47:34Z</time>
      </trkpt>
      <trkpt lat="44.83627" lon="4.60354">
        <ele>519.78</ele>
        <time>2022-03-22T17:47:35Z</time>
      </trkpt>
      <trkpt lat="44.83608" lon="4.60297">
        <ele>521.93</ele>
        <time>2022-03-22T17:47:37Z</time>
      </trkpt>
      <trkpt lat="44.83605" lon="4.60279">
        <ele>522.18</ele>
        <time>2022-03-22T17:47:39Z</time>
      </trkpt>
      <trkpt lat="44.83607" lon="4.60261">
        <ele>522.11</ele>
        <time>2022-03-22T17:47:40Z</time>
      </trkpt>
      <trkpt lat="44.83613" lon="4.60245">
        <ele>522.28</ele>
        <time>2022-03-22T17:47:42Z</time>
      </trkpt>
      <trkpt lat="44.83642" lon="4.60182">
        <ele>529.95</ele>
        <time>2022-03-22T17:47:43Z</time>
      </trkpt>
      <trkpt lat="44.83648" lon="4.60173">
        <ele>531.03</ele>
        <time>2022-03-22T17:47:45Z</time>
      </trkpt>
      <trkpt lat="44.83656" lon="4.6017">
        <ele>531.78</ele>
        <time>2022-03-22T17:47:46Z</time>
      </trkpt>
      <trkpt lat="44.83675" lon="4.60176">
        <ele>531.81</ele>
        <time>2022-03-22T17:47:48Z</time>
      </trkpt>
      <trkpt lat="44.83705" lon="4.60195">
        <ele>531.12</ele>
        <time>2022-03-22T17:47:50Z</time>
      </trkpt>
      <trkpt lat="44.83794" lon="4.60234">
        <ele>534.23</ele>
        <time>2022-03-22T17:47:51Z</time>
      </trkpt>
      <trkpt lat="44.83825" lon="4.60257">
        <ele>535.72</ele>
        <time>2022-03-22T17:47:53Z</time>
      </trkpt>
      <trkpt lat="44.83835" lon="4.60259">
        <ele>536.86</ele>
        <time>2022-03-22T17:47:54Z</time>
      </trkpt>
      <trkpt lat="44.83906" lon="4.60257">
        <ele>541.1</ele>
        <time>2022-03-22T17:47:56Z</time>
      </trkpt>
      <trkpt lat="44.83957" lon="4.60233">
        <ele>544.19</ele>
        <time>2022-03-22T17:47:58Z</time>
      </trkpt>
      <trkpt lat="44.83989" lon="4.60243">
        <ele>545.92</ele>
        <time>2022-03-22T17:47:59Z</time>
      </trkpt>
      <trkpt lat="44.84009" lon="4.60245">
        <ele>547.33</ele>
        <time>2022-03-22T17:48:01Z</time>
      </trkpt>
      <trkpt lat="44.84025" lon="4.60242">
        <ele>547.91</ele>
        <time>2022-03-22T17:48:02Z</time>
      </trkpt>
      <trkpt lat="44.84062" lon="4.60202">
        <ele>548.71</ele>
        <time>2022-03-22T17:48:04Z</time>
      </trkpt>
      <trkpt lat="44.84133" lon="4.60138">
        <ele>549.38</ele>
        <time>2022-03-22T17:48:05Z</time>
      </trkpt>
      <trkpt lat="44.84149" lon="4.60128">
        <ele>549.68</ele>
        <time>2022-03-22T17:48:07Z</time>
      </trkpt>
      <trkpt lat="44.84188" lon="4.60112">
        <ele>547.67</ele>
        <time>2022-03-22T17:48:09Z</time>
      </trkpt>
      <trkpt lat="44.84205" lon="4.60103">
        <ele>546.78</ele>
        <time>2022-03-22T17:48:10Z</time>
      </trkpt>
      <trkpt lat="44.84232" lon="4.6007">
        <ele>546.67</ele>
        <time>2022-03-22T17:48:12Z</time>
      </trkpt>
      <trkpt lat="44.84242" lon="4.60053">
        <ele>547.86</ele>
        <time>2022-03-22T17:48:13Z</time>
      </trkpt>
      <trkpt lat="44.84253" lon="4.60021">
        <ele>550.16</ele>
        <time>2022-03-22T17:48:15Z</time>
      </trkpt>
      <trkpt lat="44.8426" lon="4.59995">
        <ele>551.82</ele>
        <time>2022-03-22T17:48:17Z</time>
      </trkpt>
      <trkpt lat="44.84265" lon="4.59956">
        <ele>554.54</ele>
        <time>2022-03-22T17:48:18Z</time>
      </trkpt>
      <trkpt lat="44.84271" lon="4.59933">
        <ele>555.34</ele>
        <time>2022-03-22T17:48:20Z</time>
      </trkpt>
      <trkpt lat="44.84308" lon="4.59848">
        <ele>561.72</ele>
        <time>2022-03-22T17:48:21Z</time>
      </trkpt>
      <trkpt lat="44.84317" lon="4.59823">
        <ele>561.17</ele>
        <time>2022-03-22T17:48:23Z</time>
      </trkpt>
      <trkpt lat="44.84322" lon="4.59802">
        <ele>560.22</ele>
        <time>2022-03-22T17:48:24Z</time>
      </trkpt>
      <trkpt lat="44.84322" lon="4.5978">
        <ele>559.73</ele>
        <time>2022-03-22T17:48:26Z</time>
      </trkpt>
      <trkpt lat="44.84318" lon="4.59754">
        <ele>560.6</ele>
        <time>2022-03-22T17:48:28Z</time>
      </trkpt>
      <trkpt lat="44.8432" lon="4.59717">
        <ele>559.68</ele>
        <time>2022-03-22T17:48:29Z</time>
      </trkpt>
      <trkpt lat="44.84324" lon="4.59703">
        <ele>558.48</ele>
        <time>2022-03-22T17:48:31Z</time>
      </trkpt>
      <trkpt lat="44.8433" lon="4.59691">
        <ele>557.39</ele>
        <time>2022-03-22T17:48:32Z</time>
      </trkpt>
      <trkpt lat="44.84375" lon="4.59675">
        <ele>556.04</ele>
        <time>2022-03-22T17:48:34Z</time>
      </trkpt>
      <trkpt lat="44.84419" lon="4.59664">
        <ele>553.45</ele>
        <time>2022-03-22T17:48:36Z</time>
      </trkpt>
      <trkpt lat="44.84442" lon="4.59675">
        <ele>554.9</ele>
        <time>2022-03-22T17:48:37Z</time>
      </trkpt>
      <trkpt lat="44.84456" lon="4.59691">
        <ele>554.16</ele>
        <time>2022-03-22T17:48:39Z</time>
      </trkpt>
      <trkpt lat="44.84465" lon="4.5971">
        <ele>553.38</ele>
        <time>2022-03-22T17:48:40Z</time>
      </trkpt>
      <trkpt lat="44.84471" lon="4.59727">
        <ele>552.9</ele>
        <time>2022-03-22T17:48:42Z</time>
      </trkpt>
      <trkpt lat="44.84474" lon="4.59748">
        <ele>553.15</ele>
        <time>2022-03-22T17:48:43Z</time>
      </trkpt>
      <trkpt lat="44.84475" lon="4.59787">
        <ele>552.33</ele>
        <time>2022-03-22T17:48:45Z</time>
      </trkpt>
      <trkpt lat="44.84478" lon="4.59798">
        <ele>552.57</ele>
        <time>2022-03-22T17:48:47Z</time>
      </trkpt>
      <trkpt lat="44.84492" lon="4.59832">
        <ele>554.84</ele>
        <time>2022-03-22T17:48:48Z</time>
      </trkpt>
      <trkpt lat="44.8452" lon="4.59875">
        <ele>555.26</ele>
        <time>2022-03-22T17:48:50Z</time>
      </trkpt>
      <trkpt lat="44.84575" lon="4.59913">
        <ele>556.51</ele>
        <time>2022-03-22T17:48:51Z</time>
      </trkpt>
      <trkpt lat="44.84589" lon="4.59919">
        <ele>557.16</ele>
        <time>2022-03-22T17:48:53Z</time>
      </trkpt>
      <trkpt lat="44.84636" lon="4.59917">
        <ele>559.89</ele>
        <time>2022-03-22T17:48:55Z</time>
      </trkpt>
      <trkpt lat="44.84654" lon="4.59914">
        <ele>560.41</ele>
        <time>2022-03-22T17:48:56Z</time>
      </trkpt>
      <trkpt lat="44.84667" lon="4.59902">
        <ele>561.53</ele>
        <time>2022-03-22T17:48:58Z</time>
      </trkpt>
      <trkpt lat="44.84692" lon="4.59848">
        <ele>564.37</ele>
        <time>2022-03-22T17:48:59Z</time>
      </trkpt>
      <trkpt lat="44.84708" lon="4.59829">
        <ele>565.09</ele>
        <time>2022-03-22T17:49:01Z</time>
      </trkpt>
      <trkpt lat="44.84764" lon="4.59722">
        <ele>582.46</ele>
        <time>2022-03-22T17:49:02Z</time>
      </trkpt>
      <trkpt lat="44.84778" lon="4.59723">
        <ele>580.94</ele>
        <time>2022-03-22T17:49:04Z</time>
      </trkpt>
      <trkpt lat="44.84787" lon="4.59736">
        <ele>579.38</ele>
        <time>2022-03-22T17:49:06Z</time>
      </trkpt>
      <trkpt lat="44.84831" lon="4.59869">
        <ele>570.73</ele>
        <time>2022-03-22T17:49:07Z</time>
      </trkpt>
      <trkpt lat="44.84842" lon="4.59893">
        <ele>572.53</ele>
        <time>2022-03-22T17:49:09Z</time>
      </trkpt>
      <trkpt lat="44.84845" lon="4.59908">
        <ele>572.33</ele>
        <time>2022-03-22T17:49:10Z</time>
      </trkpt>
      <trkpt lat="44.84837" lon="4.59966">
        <ele>565.73</ele>
        <time>2022-03-22T17:49:12Z</time>
      </trkpt>
      <trkpt lat="44.84851" lon="4.6001">
        <ele>566.05</ele>
        <time>2022-03-22T17:49:14Z</time>
      </trkpt>
      <trkpt lat="44.84867" lon="4.60066">
        <ele>565.73</ele>
        <time>2022-03-22T17:49:15Z</time>
      </trkpt>
      <trkpt lat="44.84872" lon="4.60125">
        <ele>565.51</ele>
        <time>2022-03-22T17:49:17Z</time>
      </trkpt>
      <trkpt lat="44.84884" lon="4.60148">
        <ele>566.98</ele>
        <time>2022-03-22T17:49:18Z</time>
      </trkpt>
      <trkpt lat="44.84902" lon="4.60155">
        <ele>568.57</ele>
        <time>2022-03-22T17:49:20Z</time>
      </trkpt>
      <trkpt lat="44.84946" lon="4.6015">
        <ele>570.68</ele>
        <time>2022-03-22T17:49:21Z</time>
      </trkpt>
      <trkpt lat="44.84963" lon="4.60137">
        <ele>571</ele>
        <time>2022-03-22T17:49:23Z</time>
      </trkpt>
      <trkpt lat="44.84972" lon="4.60125">
        <ele>572.41</ele>
        <time>2022-03-22T17:49:25Z</time>
      </trkpt>
      <trkpt lat="44.84979" lon="4.60108">
        <ele>573.68</ele>
        <time>2022-03-22T17:49:26Z</time>
      </trkpt>
      <trkpt lat="44.85003" lon="4.60058">
        <ele>576.92</ele>
        <time>2022-03-22T17:49:28Z</time>
      </trkpt>
      <trkpt lat="44.85059" lon="4.60016">
        <ele>577.88</ele>
        <time>2022-03-22T17:49:29Z</time>
      </trkpt>
      <trkpt lat="44.85082" lon="4.6001">
        <ele>576.3</ele>
        <time>2022-03-22T17:49:31Z</time>
      </trkpt>
      <trkpt lat="44.85129" lon="4.60052">
        <ele>568.41</ele>
        <time>2022-03-22T17:49:33Z</time>
      </trkpt>
      <trkpt lat="44.85167" lon="4.6006">
        <ele>567.56</ele>
        <time>2022-03-22T17:49:34Z</time>
      </trkpt>
      <trkpt lat="44.85214" lon="4.60051">
        <ele>566.28</ele>
        <time>2022-03-22T17:49:36Z</time>
      </trkpt>
      <trkpt lat="44.85232" lon="4.60024">
        <ele>568.29</ele>
        <time>2022-03-22T17:49:37Z</time>
      </trkpt>
      <trkpt lat="44.8524" lon="4.59987">
        <ele>570.98</ele>
        <time>2022-03-22T17:49:39Z</time>
      </trkpt>
      <trkpt lat="44.85301" lon="4.59853">
        <ele>572.47</ele>
        <time>2022-03-22T17:49:40Z</time>
      </trkpt>
      <trkpt lat="44.85313" lon="4.5979">
        <ele>574.82</ele>
        <time>2022-03-22T17:49:42Z</time>
      </trkpt>
      <trkpt lat="44.85383" lon="4.59711">
        <ele>575.96</ele>
        <time>2022-03-22T17:49:44Z</time>
      </trkpt>
      <trkpt lat="44.8543" lon="4.59653">
        <ele>575.48</ele>
        <time>2022-03-22T17:49:45Z</time>
      </trkpt>
      <trkpt lat="44.85447" lon="4.59552">
        <ele>588.18</ele>
        <time>2022-03-22T17:49:47Z</time>
      </trkpt>
      <trkpt lat="44.85483" lon="4.5956">
        <ele>585.93</ele>
        <time>2022-03-22T17:49:48Z</time>
      </trkpt>
      <trkpt lat="44.85492" lon="4.59567">
        <ele>585.15</ele>
        <time>2022-03-22T17:49:50Z</time>
      </trkpt>
      <trkpt lat="44.85524" lon="4.59568">
        <ele>584.01</ele>
        <time>2022-03-22T17:49:52Z</time>
      </trkpt>
      <trkpt lat="44.85574" lon="4.59533">
        <ele>586.41</ele>
        <time>2022-03-22T17:49:53Z</time>
      </trkpt>
      <trkpt lat="44.85692" lon="4.59479">
        <ele>582.96</ele>
        <time>2022-03-22T17:49:55Z</time>
      </trkpt>
      <trkpt lat="44.85734" lon="4.59424">
        <ele>586.82</ele>
        <time>2022-03-22T17:49:56Z</time>
      </trkpt>
      <trkpt lat="44.85781" lon="4.5929">
        <ele>584.21</ele>
        <time>2022-03-22T17:49:58Z</time>
      </trkpt>
      <trkpt lat="44.85803" lon="4.5906">
        <ele>582.48</ele>
        <time>2022-03-22T17:49:59Z</time>
      </trkpt>
      <trkpt lat="44.85841" lon="4.59008">
        <ele>572.77</ele>
        <time>2022-03-22T17:50:01Z</time>
      </trkpt>
      <trkpt lat="44.85866" lon="4.5898">
        <ele>572.45</ele>
        <time>2022-03-22T17:50:03Z</time>
      </trkpt>
      <trkpt lat="44.8589" lon="4.58939">
        <ele>575.27</ele>
        <time>2022-03-22T17:50:04Z</time>
      </trkpt>
      <trkpt lat="44.85901" lon="4.58916">
        <ele>577.37</ele>
        <time>2022-03-22T17:50:06Z</time>
      </trkpt>
      <trkpt lat="44.85917" lon="4.58897">
        <ele>579.74</ele>
        <time>2022-03-22T17:50:07Z</time>
      </trkpt>
      <trkpt lat="44.85974" lon="4.58861">
        <ele>588.03</ele>
        <time>2022-03-22T17:50:09Z</time>
      </trkpt>
      <trkpt lat="44.85998" lon="4.58853">
        <ele>590.33</ele>
        <time>2022-03-22T17:50:11Z</time>
      </trkpt>
      <trkpt lat="44.86013" lon="4.58864">
        <ele>590.21</ele>
        <time>2022-03-22T17:50:12Z</time>
      </trkpt>
      <trkpt lat="44.86054" lon="4.58935">
        <ele>588.47</ele>
        <time>2022-03-22T17:50:14Z</time>
      </trkpt>
      <trkpt lat="44.86069" lon="4.58938">
        <ele>588.59</ele>
        <time>2022-03-22T17:50:15Z</time>
      </trkpt>
      <trkpt lat="44.86149" lon="4.58933">
        <ele>593.44</ele>
        <time>2022-03-22T17:50:17Z</time>
      </trkpt>
      <trkpt lat="44.86179" lon="4.58936">
        <ele>597.9</ele>
        <time>2022-03-22T17:50:18Z</time>
      </trkpt>
      <trkpt lat="44.86295" lon="4.59027">
        <ele>605.98</ele>
        <time>2022-03-22T17:50:20Z</time>
      </trkpt>
      <trkpt lat="44.8634" lon="4.59087">
        <ele>608.06</ele>
        <time>2022-03-22T17:50:22Z</time>
      </trkpt>
      <trkpt lat="44.86392" lon="4.59082">
        <ele>612.49</ele>
        <time>2022-03-22T17:50:23Z</time>
      </trkpt>
      <trkpt lat="44.86415" lon="4.59072">
        <ele>616.32</ele>
        <time>2022-03-22T17:50:25Z</time>
      </trkpt>
      <trkpt lat="44.86487" lon="4.59028">
        <ele>622.82</ele>
        <time>2022-03-22T17:50:26Z</time>
      </trkpt>
      <trkpt lat="44.86517" lon="4.59016">
        <ele>624.05</ele>
        <time>2022-03-22T17:50:28Z</time>
      </trkpt>
      <trkpt lat="44.86546" lon="4.59019">
        <ele>625.12</ele>
        <time>2022-03-22T17:50:30Z</time>
      </trkpt>
      <trkpt lat="44.86554" lon="4.59025">
        <ele>625.13</ele>
        <time>2022-03-22T17:50:31Z</time>
      </trkpt>
      <trkpt lat="44.86587" lon="4.59088">
        <ele>623.96</ele>
        <time>2022-03-22T17:50:33Z</time>
      </trkpt>
      <trkpt lat="44.86617" lon="4.59122">
        <ele>629.69</ele>
        <time>2022-03-22T17:50:34Z</time>
      </trkpt>
      <trkpt lat="44.86645" lon="4.59148">
        <ele>632.29</ele>
        <time>2022-03-22T17:50:36Z</time>
      </trkpt>
      <trkpt lat="44.86701" lon="4.59196">
        <ele>635.27</ele>
        <time>2022-03-22T17:50:37Z</time>
      </trkpt>
      <trkpt lat="44.8683" lon="4.59236">
        <ele>642.14</ele>
        <time>2022-03-22T17:50:39Z</time>
      </trkpt>
      <trkpt lat="44.86867" lon="4.5923">
        <ele>648.91</ele>
        <time>2022-03-22T17:50:41Z</time>
      </trkpt>
      <trkpt lat="44.86874" lon="4.59235">
        <ele>649.21</ele>
        <time>2022-03-22T17:50:42Z</time>
      </trkpt>
      <trkpt lat="44.86897" lon="4.59271">
        <ele>648.3</ele>
        <time>2022-03-22T17:50:44Z</time>
      </trkpt>
      <trkpt lat="44.86906" lon="4.59278">
        <ele>649.02</ele>
        <time>2022-03-22T17:50:45Z</time>
      </trkpt>
      <trkpt lat="44.86985" lon="4.5927">
        <ele>658.92</ele>
        <time>2022-03-22T17:50:47Z</time>
      </trkpt>
      <trkpt lat="44.86997" lon="4.5928">
        <ele>658.74</ele>
        <time>2022-03-22T17:50:49Z</time>
      </trkpt>
      <trkpt lat="44.86999" lon="4.593">
        <ele>658.9</ele>
        <time>2022-03-22T17:50:50Z</time>
      </trkpt>
      <trkpt lat="44.8699" lon="4.59367">
        <ele>657.36</ele>
        <time>2022-03-22T17:50:52Z</time>
      </trkpt>
      <trkpt lat="44.8699" lon="4.59437">
        <ele>657.3</ele>
        <time>2022-03-22T17:50:53Z</time>
      </trkpt>
      <trkpt lat="44.86996" lon="4.5949">
        <ele>659.15</ele>
        <time>2022-03-22T17:50:55Z</time>
      </trkpt>
      <trkpt lat="44.87003" lon="4.59498">
        <ele>660.15</ele>
        <time>2022-03-22T17:50:56Z</time>
      </trkpt>
      <trkpt lat="44.87014" lon="4.595">
        <ele>661.03</ele>
        <time>2022-03-22T17:50:58Z</time>
      </trkpt>
      <trkpt lat="44.87034" lon="4.59498">
        <ele>662.24</ele>
        <time>2022-03-22T17:51:00Z</time>
      </trkpt>
      <trkpt lat="44.8709" lon="4.59445">
        <ele>668.19</ele>
        <time>2022-03-22T17:51:01Z</time>
      </trkpt>
      <trkpt lat="44.87111" lon="4.59438">
        <ele>669.99</ele>
        <time>2022-03-22T17:51:03Z</time>
      </trkpt>
      <trkpt lat="44.87139" lon="4.59441">
        <ele>672.64</ele>
        <time>2022-03-22T17:51:04Z</time>
      </trkpt>
      <trkpt lat="44.87185" lon="4.59425">
        <ele>680.18</ele>
        <time>2022-03-22T17:51:06Z</time>
      </trkpt>
      <trkpt lat="44.87212" lon="4.59422">
        <ele>681.28</ele>
        <time>2022-03-22T17:51:08Z</time>
      </trkpt>
      <trkpt lat="44.87322" lon="4.59465">
        <ele>680.01</ele>
        <time>2022-03-22T17:51:09Z</time>
      </trkpt>
      <trkpt lat="44.87342" lon="4.59463">
        <ele>680.76</ele>
        <time>2022-03-22T17:51:11Z</time>
      </trkpt>
      <trkpt lat="44.87351" lon="4.59459">
        <ele>680.56</ele>
        <time>2022-03-22T17:51:12Z</time>
      </trkpt>
      <trkpt lat="44.87359" lon="4.59453">
        <ele>679.99</ele>
        <time>2022-03-22T17:51:14Z</time>
      </trkpt>
      <trkpt lat="44.87369" lon="4.59442">
        <ele>678.43</ele>
        <time>2022-03-22T17:51:15Z</time>
      </trkpt>
      <trkpt lat="44.87412" lon="4.59375">
        <ele>678.81</ele>
        <time>2022-03-22T17:51:17Z</time>
      </trkpt>
      <trkpt lat="44.87438" lon="4.5932">
        <ele>673.22</ele>
        <time>2022-03-22T17:51:19Z</time>
      </trkpt>
      <trkpt lat="44.87434" lon="4.59254">
        <ele>674.93</ele>
        <time>2022-03-22T17:51:20Z</time>
      </trkpt>
      <trkpt lat="44.87445" lon="4.59189">
        <ele>668.73</ele>
        <time>2022-03-22T17:51:22Z</time>
      </trkpt>
      <trkpt lat="44.87432" lon="4.59141">
        <ele>670.31</ele>
        <time>2022-03-22T17:51:23Z</time>
      </trkpt>
      <trkpt lat="44.87435" lon="4.59134">
        <ele>669.55</ele>
        <time>2022-03-22T17:51:25Z</time>
      </trkpt>
      <trkpt lat="44.8744" lon="4.59134">
        <ele>668.45</ele>
        <time>2022-03-22T17:51:27Z</time>
      </trkpt>
      <trkpt lat="44.87447" lon="4.59148">
        <ele>667.42</ele>
        <time>2022-03-22T17:51:29Z</time>
      </trkpt>
      <trkpt lat="44.87455" lon="4.59175">
        <ele>666.57</ele>
        <time>2022-03-22T17:51:31Z</time>
      </trkpt>
      <trkpt lat="44.87455" lon="4.59199">
        <ele>667.66</ele>
        <time>2022-03-22T17:51:33Z</time>
      </trkpt>
      <trkpt lat="44.87449" lon="4.59255">
        <ele>670.89</ele>
        <time>2022-03-22T17:51:35Z</time>
      </trkpt>
      <trkpt lat="44.87459" lon="4.59312">
        <ele>666.64</ele>
        <time>2022-03-22T17:51:37Z</time>
      </trkpt>
      <trkpt lat="44.87476" lon="4.59328">
        <ele>663.39</ele>
        <time>2022-03-22T17:51:39Z</time>
      </trkpt>
      <trkpt lat="44.87509" lon="4.59328">
        <ele>662.44</ele>
        <time>2022-03-22T17:51:41Z</time>
      </trkpt>
      <trkpt lat="44.87554" lon="4.59323">
        <ele>664.85</ele>
        <time>2022-03-22T17:51:43Z</time>
      </trkpt>
      <trkpt lat="44.87605" lon="4.59299">
        <ele>666.04</ele>
        <time>2022-03-22T17:51:45Z</time>
      </trkpt>
      <trkpt lat="44.87653" lon="4.59279">
        <ele>668.37</ele>
        <time>2022-03-22T17:51:47Z</time>
      </trkpt>
      <trkpt lat="44.87709" lon="4.59261">
        <ele>667.51</ele>
        <time>2022-03-22T17:51:49Z</time>
      </trkpt>
      <trkpt lat="44.87744" lon="4.59274">
        <ele>668.64</ele>
        <time>2022-03-22T17:51:51Z</time>
      </trkpt>
      <trkpt lat="44.87798" lon="4.59305">
        <ele>662.57</ele>
        <time>2022-03-22T17:51:53Z</time>
      </trkpt>
      <trkpt lat="44.87809" lon="4.59321">
        <ele>662.09</ele>
        <time>2022-03-22T17:51:55Z</time>
      </trkpt>
      <trkpt lat="44.87819" lon="4.59338">
        <ele>662.13</ele>
        <time>2022-03-22T17:51:57Z</time>
      </trkpt>
      <trkpt lat="44.87817" lon="4.59389">
        <ele>664.96</ele>
        <time>2022-03-22T17:51:59Z</time>
      </trkpt>
      <trkpt lat="44.87822" lon="4.59448">
        <ele>659.33</ele>
        <time>2022-03-22T17:52:01Z</time>
      </trkpt>
      <trkpt lat="44.87855" lon="4.59525">
        <ele>656.57</ele>
        <time>2022-03-22T17:52:03Z</time>
      </trkpt>
      <trkpt lat="44.87886" lon="4.59643">
        <ele>641.73</ele>
        <time>2022-03-22T17:52:05Z</time>
      </trkpt>
      <trkpt lat="44.87909" lon="4.5968">
        <ele>641.52</ele>
        <time>2022-03-22T17:52:08Z</time>
      </trkpt>
      <trkpt lat="44.87938" lon="4.59735">
        <ele>645.74</ele>
        <time>2022-03-22T17:52:10Z</time>
      </trkpt>
      <trkpt lat="44.87951" lon="4.5983">
        <ele>641.86</ele>
        <time>2022-03-22T17:52:12Z</time>
      </trkpt>
      <trkpt lat="44.88009" lon="4.59974">
        <ele>633.17</ele>
        <time>2022-03-22T17:52:14Z</time>
      </trkpt>
      <trkpt lat="44.88026" lon="4.59999">
        <ele>631.99</ele>
        <time>2022-03-22T17:52:16Z</time>
      </trkpt>
      <trkpt lat="44.8805" lon="4.60014">
        <ele>629.45</ele>
        <time>2022-03-22T17:52:18Z</time>
      </trkpt>
      <trkpt lat="44.88109" lon="4.60042">
        <ele>626.95</ele>
        <time>2022-03-22T17:52:20Z</time>
      </trkpt>
      <trkpt lat="44.88127" lon="4.60077">
        <ele>624.31</ele>
        <time>2022-03-22T17:52:22Z</time>
      </trkpt>
      <trkpt lat="44.88138" lon="4.60144">
        <ele>622.05</ele>
        <time>2022-03-22T17:52:24Z</time>
      </trkpt>
      <trkpt lat="44.8813" lon="4.6026">
        <ele>621.17</ele>
        <time>2022-03-22T17:52:26Z</time>
      </trkpt>
      <trkpt lat="44.88119" lon="4.60343">
        <ele>612.42</ele>
        <time>2022-03-22T17:52:28Z</time>
      </trkpt>
      <trkpt lat="44.88116" lon="4.604">
        <ele>608.85</ele>
        <time>2022-03-22T17:52:30Z</time>
      </trkpt>
      <trkpt lat="44.88142" lon="4.60573">
        <ele>602.82</ele>
        <time>2022-03-22T17:52:32Z</time>
      </trkpt>
      <trkpt lat="44.88159" lon="4.60633">
        <ele>598.75</ele>
        <time>2022-03-22T17:52:34Z</time>
      </trkpt>
      <trkpt lat="44.88168" lon="4.60649">
        <ele>597.59</ele>
        <time>2022-03-22T17:52:36Z</time>
      </trkpt>
      <trkpt lat="44.88175" lon="4.60658">
        <ele>597.38</ele>
        <time>2022-03-22T17:52:38Z</time>
      </trkpt>
      <trkpt lat="44.88205" lon="4.60675">
        <ele>597.59</ele>
        <time>2022-03-22T17:52:40Z</time>
      </trkpt>
      <trkpt lat="44.88221" lon="4.60689">
        <ele>595.1</ele>
        <time>2022-03-22T17:52:42Z</time>
      </trkpt>
      <trkpt lat="44.88244" lon="4.60699">
        <ele>593.03</ele>
        <time>2022-03-22T17:52:44Z</time>
      </trkpt>
      <trkpt lat="44.8832" lon="4.60708">
        <ele>592.58</ele>
        <time>2022-03-22T17:52:46Z</time>
      </trkpt>
      <trkpt lat="44.8834" lon="4.60717">
        <ele>592.64</ele>
        <time>2022-03-22T17:52:48Z</time>
      </trkpt>
      <trkpt lat="44.88367" lon="4.60765">
        <ele>588.71</ele>
        <time>2022-03-22T17:52:50Z</time>
      </trkpt>
      <trkpt lat="44.88398" lon="4.60824">
        <ele>585.24</ele>
        <time>2022-03-22T17:52:52Z</time>
      </trkpt>
      <trkpt lat="44.88423" lon="4.60858">
        <ele>583.56</ele>
        <time>2022-03-22T17:52:54Z</time>
      </trkpt>
      <trkpt lat="44.88434" lon="4.60882">
        <ele>581.26</ele>
        <time>2022-03-22T17:52:56Z</time>
      </trkpt>
      <trkpt lat="44.88449" lon="4.60947">
        <ele>572.48</ele>
        <time>2022-03-22T17:52:58Z</time>
      </trkpt>
      <trkpt lat="44.88463" lon="4.60974">
        <ele>569.77</ele>
        <time>2022-03-22T17:53:00Z</time>
      </trkpt>
      <trkpt lat="44.88529" lon="4.61007">
        <ele>571.64</ele>
        <time>2022-03-22T17:53:02Z</time>
      </trkpt>
      <trkpt lat="44.88612" lon="4.61105">
        <ele>565.37</ele>
        <time>2022-03-22T17:53:04Z</time>
      </trkpt>
      <trkpt lat="44.88644" lon="4.61113">
        <ele>565.48</ele>
        <time>2022-03-22T17:53:06Z</time>
      </trkpt>
      <trkpt lat="44.8866" lon="4.61127">
        <ele>562.73</ele>
        <time>2022-03-22T17:53:08Z</time>
      </trkpt>
      <trkpt lat="44.88668" lon="4.61146">
        <ele>560.32</ele>
        <time>2022-03-22T17:53:10Z</time>
      </trkpt>
      <trkpt lat="44.8867" lon="4.61202">
        <ele>556.8</ele>
        <time>2022-03-22T17:53:12Z</time>
      </trkpt>
      <trkpt lat="44.88684" lon="4.61279">
        <ele>554.44</ele>
        <time>2022-03-22T17:53:14Z</time>
      </trkpt>
      <trkpt lat="44.88706" lon="4.6134">
        <ele>552.94</ele>
        <time>2022-03-22T17:53:16Z</time>
      </trkpt>
      <trkpt lat="44.88727" lon="4.6144">
        <ele>547.06</ele>
        <time>2022-03-22T17:53:18Z</time>
      </trkpt>
      <trkpt lat="44.88736" lon="4.61476">
        <ele>544.61</ele>
        <time>2022-03-22T17:53:20Z</time>
      </trkpt>
      <trkpt lat="44.88774" lon="4.61546">
        <ele>545.07</ele>
        <time>2022-03-22T17:53:22Z</time>
      </trkpt>
      <trkpt lat="44.88772" lon="4.6162">
        <ele>543.8</ele>
        <time>2022-03-22T17:53:24Z</time>
      </trkpt>
      <trkpt lat="44.88768" lon="4.61656">
        <ele>543.69</ele>
        <time>2022-03-22T17:53:26Z</time>
      </trkpt>
      <trkpt lat="44.88772" lon="4.61694">
        <ele>542.23</ele>
        <time>2022-03-22T17:53:28Z</time>
      </trkpt>
      <trkpt lat="44.88791" lon="4.61724">
        <ele>541.7</ele>
        <time>2022-03-22T17:53:30Z</time>
      </trkpt>
      <trkpt lat="44.88826" lon="4.61747">
        <ele>542.94</ele>
        <time>2022-03-22T17:53:32Z</time>
      </trkpt>
      <trkpt lat="44.88838" lon="4.61787">
        <ele>538.55</ele>
        <time>2022-03-22T17:53:34Z</time>
      </trkpt>
      <trkpt lat="44.88854" lon="4.61876">
        <ele>532.28</ele>
        <time>2022-03-22T17:53:36Z</time>
      </trkpt>
      <trkpt lat="44.88857" lon="4.61939">
        <ele>528.11</ele>
        <time>2022-03-22T17:53:38Z</time>
      </trkpt>
      <trkpt lat="44.8887" lon="4.62048">
        <ele>522.45</ele>
        <time>2022-03-22T17:53:40Z</time>
      </trkpt>
      <trkpt lat="44.8887" lon="4.62063">
        <ele>522.05</ele>
        <time>2022-03-22T17:53:42Z</time>
      </trkpt>
      <trkpt lat="44.88867" lon="4.62078">
        <ele>521.02</ele>
        <time>2022-03-22T17:53:44Z</time>
      </trkpt>
      <trkpt lat="44.88846" lon="4.62111">
        <ele>517.84</ele>
        <time>2022-03-22T17:53:46Z</time>
      </trkpt>
      <trkpt lat="44.8884" lon="4.6214">
        <ele>516.89</ele>
        <time>2022-03-22T17:53:49Z</time>
      </trkpt>
      <trkpt lat="44.88844" lon="4.62161">
        <ele>516.18</ele>
        <time>2022-03-22T17:53:51Z</time>
      </trkpt>
      <trkpt lat="44.8885" lon="4.62187">
        <ele>514.85</ele>
        <time>2022-03-22T17:53:53Z</time>
      </trkpt>
      <trkpt lat="44.88882" lon="4.62254">
        <ele>508.48</ele>
        <time>2022-03-22T17:53:55Z</time>
      </trkpt>
      <trkpt lat="44.88902" lon="4.62274">
        <ele>507.84</ele>
        <time>2022-03-22T17:53:57Z</time>
      </trkpt>
      <trkpt lat="44.88941" lon="4.62297">
        <ele>506.06</ele>
        <time>2022-03-22T17:53:59Z</time>
      </trkpt>
      <trkpt lat="44.89004" lon="4.62305">
        <ele>503.06</ele>
        <time>2022-03-22T17:54:01Z</time>
      </trkpt>
      <trkpt lat="44.8904" lon="4.62325">
        <ele>496.13</ele>
        <time>2022-03-22T17:54:03Z</time>
      </trkpt>
      <trkpt lat="44.8907" lon="4.62358">
        <ele>489.93</ele>
        <time>2022-03-22T17:54:05Z</time>
      </trkpt>
      <trkpt lat="44.89083" lon="4.62365">
        <ele>490.19</ele>
        <time>2022-03-22T17:54:07Z</time>
      </trkpt>
      <trkpt lat="44.89101" lon="4.62359">
        <ele>492.78</ele>
        <time>2022-03-22T17:54:09Z</time>
      </trkpt>
      <trkpt lat="44.89129" lon="4.62329">
        <ele>499.87</ele>
        <time>2022-03-22T17:54:11Z</time>
      </trkpt>
      <trkpt lat="44.89147" lon="4.62319">
        <ele>502.24</ele>
        <time>2022-03-22T17:54:13Z</time>
      </trkpt>
      <trkpt lat="44.89169" lon="4.62318">
        <ele>501.91</ele>
        <time>2022-03-22T17:54:15Z</time>
      </trkpt>
      <trkpt lat="44.89236" lon="4.62352">
        <ele>493.71</ele>
        <time>2022-03-22T17:54:17Z</time>
      </trkpt>
      <trkpt lat="44.89259" lon="4.62365">
        <ele>491.49</ele>
        <time>2022-03-22T17:54:19Z</time>
      </trkpt>
      <trkpt lat="44.89296" lon="4.62366">
        <ele>488.64</ele>
        <time>2022-03-22T17:54:21Z</time>
      </trkpt>
      <trkpt lat="44.89302" lon="4.62369">
        <ele>487.36</ele>
        <time>2022-03-22T17:54:23Z</time>
      </trkpt>
      <trkpt lat="44.89307" lon="4.62373">
        <ele>485.69</ele>
        <time>2022-03-22T17:54:25Z</time>
      </trkpt>
      <trkpt lat="44.89312" lon="4.62383">
        <ele>482.89</ele>
        <time>2022-03-22T17:54:27Z</time>
      </trkpt>
      <trkpt lat="44.89321" lon="4.62436">
        <ele>484.57</ele>
        <time>2022-03-22T17:54:29Z</time>
      </trkpt>
      <trkpt lat="44.89314" lon="4.62465">
        <ele>490.04</ele>
        <time>2022-03-22T17:54:31Z</time>
      </trkpt>
      <trkpt lat="44.89302" lon="4.62477">
        <ele>491.68</ele>
        <time>2022-03-22T17:54:33Z</time>
      </trkpt>
      <trkpt lat="44.8929" lon="4.62483">
        <ele>491.76</ele>
        <time>2022-03-22T17:54:35Z</time>
      </trkpt>
      <trkpt lat="44.8923" lon="4.62525">
        <ele>493.89</ele>
        <time>2022-03-22T17:54:37Z</time>
      </trkpt>
      <trkpt lat="44.8917" lon="4.62582">
        <ele>496.12</ele>
        <time>2022-03-22T17:54:39Z</time>
      </trkpt>
      <trkpt lat="44.89124" lon="4.62668">
        <ele>499.01</ele>
        <time>2022-03-22T17:54:41Z</time>
      </trkpt>
      <trkpt lat="44.89099" lon="4.62726">
        <ele>500.41</ele>
        <time>2022-03-22T17:54:43Z</time>
      </trkpt>
      <trkpt lat="44.89096" lon="4.62747">
        <ele>500.66</ele>
        <time>2022-03-22T17:54:45Z</time>
      </trkpt>
      <trkpt lat="44.89104" lon="4.62782">
        <ele>502.29</ele>
        <time>2022-03-22T17:54:47Z</time>
      </trkpt>
      <trkpt lat="44.89147" lon="4.6289">
        <ele>507.55</ele>
        <time>2022-03-22T17:54:49Z</time>
      </trkpt>
      <trkpt lat="44.89161" lon="4.6294">
        <ele>504.89</ele>
        <time>2022-03-22T17:54:51Z</time>
      </trkpt>
      <trkpt lat="44.89162" lon="4.62951">
        <ele>504.27</ele>
        <time>2022-03-22T17:54:53Z</time>
      </trkpt>
      <trkpt lat="44.89161" lon="4.62963">
        <ele>503.9</ele>
        <time>2022-03-22T17:54:55Z</time>
      </trkpt>
      <trkpt lat="44.89157" lon="4.62974">
        <ele>503.33</ele>
        <time>2022-03-22T17:54:57Z</time>
      </trkpt>
      <trkpt lat="44.89151" lon="4.62984">
        <ele>503.15</ele>
        <time>2022-03-22T17:54:59Z</time>
      </trkpt>
      <trkpt lat="44.89142" lon="4.62991">
        <ele>503.35</ele>
        <time>2022-03-22T17:55:01Z</time>
      </trkpt>
      <trkpt lat="44.89133" lon="4.62994">
        <ele>503.97</ele>
        <time>2022-03-22T17:55:03Z</time>
      </trkpt>
      <trkpt lat="44.89123" lon="4.62994">
        <ele>504.55</ele>
        <time>2022-03-22T17:55:05Z</time>
      </trkpt>
      <trkpt lat="44.89104" lon="4.62982">
        <ele>505.35</ele>
        <time>2022-03-22T17:55:07Z</time>
      </trkpt>
      <trkpt lat="44.89081" lon="4.62949">
        <ele>505.14</ele>
        <time>2022-03-22T17:55:09Z</time>
      </trkpt>
      <trkpt lat="44.8905" lon="4.62936">
        <ele>507.89</ele>
        <time>2022-03-22T17:55:11Z</time>
      </trkpt>
      <trkpt lat="44.8904" lon="4.62936">
        <ele>508.61</ele>
        <time>2022-03-22T17:55:13Z</time>
      </trkpt>
      <trkpt lat="44.8903" lon="4.62939">
        <ele>510.31</ele>
        <time>2022-03-22T17:55:15Z</time>
      </trkpt>
      <trkpt lat="44.89017" lon="4.6295">
        <ele>510.58</ele>
        <time>2022-03-22T17:55:17Z</time>
      </trkpt>
      <trkpt lat="44.88986" lon="4.63">
        <ele>512.42</ele>
        <time>2022-03-22T17:55:19Z</time>
      </trkpt>
      <trkpt lat="44.88916" lon="4.63074">
        <ele>515.13</ele>
        <time>2022-03-22T17:55:21Z</time>
      </trkpt>
      <trkpt lat="44.88904" lon="4.63082">
        <ele>515.75</ele>
        <time>2022-03-22T17:55:23Z</time>
      </trkpt>
      <trkpt lat="44.88855" lon="4.63135">
        <ele>521.6</ele>
        <time>2022-03-22T17:55:25Z</time>
      </trkpt>
      <trkpt lat="44.88809" lon="4.63151">
        <ele>518.52</ele>
        <time>2022-03-22T17:55:27Z</time>
      </trkpt>
      <trkpt lat="44.88793" lon="4.63164">
        <ele>519.71</ele>
        <time>2022-03-22T17:55:30Z</time>
      </trkpt>
      <trkpt lat="44.88783" lon="4.63177">
        <ele>521.5</ele>
        <time>2022-03-22T17:55:32Z</time>
      </trkpt>
      <trkpt lat="44.8876" lon="4.63216">
        <ele>527.25</ele>
        <time>2022-03-22T17:55:34Z</time>
      </trkpt>
      <trkpt lat="44.88731" lon="4.63273">
        <ele>532.7</ele>
        <time>2022-03-22T17:55:36Z</time>
      </trkpt>
      <trkpt lat="44.88703" lon="4.63354">
        <ele>533.05</ele>
        <time>2022-03-22T17:55:38Z</time>
      </trkpt>
      <trkpt lat="44.88659" lon="4.63408">
        <ele>529.59</ele>
        <time>2022-03-22T17:55:40Z</time>
      </trkpt>
      <trkpt lat="44.88648" lon="4.63435">
        <ele>530.57</ele>
        <time>2022-03-22T17:55:42Z</time>
      </trkpt>
      <trkpt lat="44.88645" lon="4.63452">
        <ele>531.43</ele>
        <time>2022-03-22T17:55:44Z</time>
      </trkpt>
      <trkpt lat="44.88647" lon="4.63477">
        <ele>533.24</ele>
        <time>2022-03-22T17:55:46Z</time>
      </trkpt>
      <trkpt lat="44.88651" lon="4.6349">
        <ele>534.05</ele>
        <time>2022-03-22T17:55:48Z</time>
      </trkpt>
      <trkpt lat="44.88668" lon="4.6352">
        <ele>535.56</ele>
        <time>2022-03-22T17:55:50Z</time>
      </trkpt>
      <trkpt lat="44.88682" lon="4.63536">
        <ele>536.65</ele>
        <time>2022-03-22T17:55:52Z</time>
      </trkpt>
      <trkpt lat="44.88723" lon="4.63564">
        <ele>541.52</ele>
        <time>2022-03-22T17:55:54Z</time>
      </trkpt>
      <trkpt lat="44.88793" lon="4.6365">
        <ele>547.61</ele>
        <time>2022-03-22T17:55:56Z</time>
      </trkpt>
      <trkpt lat="44.88822" lon="4.63668">
        <ele>547.36</ele>
        <time>2022-03-22T17:55:58Z</time>
      </trkpt>
      <trkpt lat="44.8889" lon="4.63687">
        <ele>550.87</ele>
        <time>2022-03-22T17:56:00Z</time>
      </trkpt>
      <trkpt lat="44.8891" lon="4.63706">
        <ele>551.04</ele>
        <time>2022-03-22T17:56:02Z</time>
      </trkpt>
      <trkpt lat="44.88923" lon="4.63785">
        <ele>552.65</ele>
        <time>2022-03-22T17:56:04Z</time>
      </trkpt>
      <trkpt lat="44.88931" lon="4.63815">
        <ele>555.44</ele>
        <time>2022-03-22T17:56:06Z</time>
      </trkpt>
      <trkpt lat="44.8892" lon="4.63871">
        <ele>556.65</ele>
        <time>2022-03-22T17:56:08Z</time>
      </trkpt>
      <trkpt lat="44.88916" lon="4.63909">
        <ele>558.37</ele>
        <time>2022-03-22T17:56:10Z</time>
      </trkpt>
      <trkpt lat="44.88862" lon="4.64003">
        <ele>562.04</ele>
        <time>2022-03-22T17:56:12Z</time>
      </trkpt>
      <trkpt lat="44.88864" lon="4.64035">
        <ele>562.43</ele>
        <time>2022-03-22T17:56:14Z</time>
      </trkpt>
      <trkpt lat="44.88879" lon="4.64054">
        <ele>564.23</ele>
        <time>2022-03-22T17:56:16Z</time>
      </trkpt>
      <trkpt lat="44.88945" lon="4.64088">
        <ele>568.94</ele>
        <time>2022-03-22T17:56:18Z</time>
      </trkpt>
      <trkpt lat="44.8899" lon="4.6409">
        <ele>573.08</ele>
        <time>2022-03-22T17:56:20Z</time>
      </trkpt>
      <trkpt lat="44.89029" lon="4.6408">
        <ele>572.91</ele>
        <time>2022-03-22T17:56:22Z</time>
      </trkpt>
      <trkpt lat="44.89053" lon="4.64063">
        <ele>572.49</ele>
        <time>2022-03-22T17:56:24Z</time>
      </trkpt>
      <trkpt lat="44.89124" lon="4.64004">
        <ele>576.81</ele>
        <time>2022-03-22T17:56:26Z</time>
      </trkpt>
      <trkpt lat="44.89186" lon="4.63979">
        <ele>576.93</ele>
        <time>2022-03-22T17:56:28Z</time>
      </trkpt>
      <trkpt lat="44.8921" lon="4.63976">
        <ele>577.63</ele>
        <time>2022-03-22T17:56:30Z</time>
      </trkpt>
      <trkpt lat="44.89322" lon="4.64027">
        <ele>576.56</ele>
        <time>2022-03-22T17:56:32Z</time>
      </trkpt>
      <trkpt lat="44.89344" lon="4.64042">
        <ele>578.55</ele>
        <time>2022-03-22T17:56:34Z</time>
      </trkpt>
      <trkpt lat="44.8937" lon="4.64073">
        <ele>579.68</ele>
        <time>2022-03-22T17:56:36Z</time>
      </trkpt>
      <trkpt lat="44.89425" lon="4.64183">
        <ele>580.19</ele>
        <time>2022-03-22T17:56:38Z</time>
      </trkpt>
      <trkpt lat="44.8945" lon="4.6422">
        <ele>582.95</ele>
        <time>2022-03-22T17:56:40Z</time>
      </trkpt>
      <trkpt lat="44.8948" lon="4.64279">
        <ele>585.63</ele>
        <time>2022-03-22T17:56:42Z</time>
      </trkpt>
      <trkpt lat="44.89587" lon="4.64336">
        <ele>590.1</ele>
        <time>2022-03-22T17:56:44Z</time>
      </trkpt>
      <trkpt lat="44.89615" lon="4.64335">
        <ele>590.04</ele>
        <time>2022-03-22T17:56:46Z</time>
      </trkpt>
      <trkpt lat="44.89624" lon="4.64337">
        <ele>590.07</ele>
        <time>2022-03-22T17:56:48Z</time>
      </trkpt>
      <trkpt lat="44.89628" lon="4.64342">
        <ele>590.12</ele>
        <time>2022-03-22T17:56:50Z</time>
      </trkpt>
      <trkpt lat="44.89631" lon="4.64371">
        <ele>590.37</ele>
        <time>2022-03-22T17:56:52Z</time>
      </trkpt>
      <trkpt lat="44.89644" lon="4.64416">
        <ele>590.78</ele>
        <time>2022-03-22T17:56:54Z</time>
      </trkpt>
      <trkpt lat="44.89659" lon="4.64458">
        <ele>591</ele>
        <time>2022-03-22T17:56:56Z</time>
      </trkpt>
      <trkpt lat="44.89677" lon="4.64441">
        <ele>590.12</ele>
        <time>2022-03-22T17:56:59Z</time>
      </trkpt>
      <trkpt lat="44.89679" lon="4.64419">
        <ele>589.19</ele>
        <time>2022-03-22T17:57:01Z</time>
      </trkpt>
      <trkpt lat="44.89702" lon="4.64304">
        <ele>583.99</ele>
        <time>2022-03-22T17:57:04Z</time>
      </trkpt>
      <trkpt lat="44.89712" lon="4.64192">
        <ele>575.92</ele>
        <time>2022-03-22T17:57:06Z</time>
      </trkpt>
      <trkpt lat="44.8972" lon="4.64147">
        <ele>573.35</ele>
        <time>2022-03-22T17:57:09Z</time>
      </trkpt>
      <trkpt lat="44.89732" lon="4.64112">
        <ele>571.63</ele>
        <time>2022-03-22T17:57:11Z</time>
      </trkpt>
      <trkpt lat="44.89763" lon="4.64067">
        <ele>570.64</ele>
        <time>2022-03-22T17:57:14Z</time>
      </trkpt>
      <trkpt lat="44.89793" lon="4.64029">
        <ele>568.72</ele>
        <time>2022-03-22T17:57:16Z</time>
      </trkpt>
      <trkpt lat="44.89845" lon="4.63983">
        <ele>566.05</ele>
        <time>2022-03-22T17:57:19Z</time>
      </trkpt>
      <trkpt lat="44.89876" lon="4.6396">
        <ele>565.04</ele>
        <time>2022-03-22T17:57:22Z</time>
      </trkpt>
      <trkpt lat="44.89892" lon="4.63934">
        <ele>564.34</ele>
        <time>2022-03-22T17:57:24Z</time>
      </trkpt>
      <trkpt lat="44.89894" lon="4.63909">
        <ele>562.91</ele>
        <time>2022-03-22T17:57:27Z</time>
      </trkpt>
      <trkpt lat="44.89886" lon="4.63886">
        <ele>561.86</ele>
        <time>2022-03-22T17:57:29Z</time>
      </trkpt>
      <trkpt lat="44.89868" lon="4.63871">
        <ele>561.64</ele>
        <time>2022-03-22T17:57:32Z</time>
      </trkpt>
      <trkpt lat="44.89827" lon="4.63855">
        <ele>559.24</ele>
        <time>2022-03-22T17:57:34Z</time>
      </trkpt>
      <trkpt lat="44.89822" lon="4.6385">
        <ele>557.94</ele>
        <time>2022-03-22T17:57:37Z</time>
      </trkpt>
      <trkpt lat="44.89822" lon="4.63832">
        <ele>554.39</ele>
        <time>2022-03-22T17:57:39Z</time>
      </trkpt>
      <trkpt lat="44.89833" lon="4.63823">
        <ele>553.89</ele>
        <time>2022-03-22T17:57:42Z</time>
      </trkpt>
      <trkpt lat="44.89849" lon="4.63816">
        <ele>553.65</ele>
        <time>2022-03-22T17:57:45Z</time>
      </trkpt>
      <trkpt lat="44.89865" lon="4.63804">
        <ele>552.82</ele>
        <time>2022-03-22T17:57:47Z</time>
      </trkpt>
      <trkpt lat="44.89885" lon="4.63778">
        <ele>550.04</ele>
        <time>2022-03-22T17:57:50Z</time>
      </trkpt>
      <trkpt lat="44.89931" lon="4.63705">
        <ele>542.84</ele>
        <time>2022-03-22T17:57:52Z</time>
      </trkpt>
      <trkpt lat="44.89948" lon="4.6367">
        <ele>540.41</ele>
        <time>2022-03-22T17:57:55Z</time>
      </trkpt>
      <trkpt lat="44.89959" lon="4.63639">
        <ele>538.03</ele>
        <time>2022-03-22T17:57:57Z</time>
      </trkpt>
      <trkpt lat="44.89984" lon="4.63557">
        <ele>532.67</ele>
        <time>2022-03-22T17:58:00Z</time>
      </trkpt>
      <trkpt lat="44.89992" lon="4.63512">
        <ele>530.43</ele>
        <time>2022-03-22T17:58:02Z</time>
      </trkpt>
      <trkpt lat="44.90003" lon="4.63476">
        <ele>529.92</ele>
        <time>2022-03-22T17:58:05Z</time>
      </trkpt>
      <trkpt lat="44.90006" lon="4.63468">
        <ele>529.77</ele>
        <time>2022-03-22T17:58:08Z</time>
      </trkpt>
      <trkpt lat="44.90029" lon="4.63452">
        <ele>529</ele>
        <time>2022-03-22T17:58:10Z</time>
      </trkpt>
      <trkpt lat="44.90121" lon="4.63417">
        <ele>527.03</ele>
        <time>2022-03-22T17:58:13Z</time>
      </trkpt>
      <trkpt lat="44.90171" lon="4.63428">
        <ele>528.47</ele>
        <time>2022-03-22T17:58:15Z</time>
      </trkpt>
      <trkpt lat="44.90177" lon="4.63424">
        <ele>528.34</ele>
        <time>2022-03-22T17:58:18Z</time>
      </trkpt>
      <trkpt lat="44.90194" lon="4.63398">
        <ele>527.32</ele>
        <time>2022-03-22T17:58:20Z</time>
      </trkpt>
      <trkpt lat="44.90215" lon="4.63377">
        <ele>527.84</ele>
        <time>2022-03-22T17:58:23Z</time>
      </trkpt>
      <trkpt lat="44.90241" lon="4.63373">
        <ele>529.12</ele>
        <time>2022-03-22T17:58:25Z</time>
      </trkpt>
      <trkpt lat="44.90249" lon="4.63357">
        <ele>530.11</ele>
        <time>2022-03-22T17:58:28Z</time>
      </trkpt>
      <trkpt lat="44.90274" lon="4.63245">
        <ele>537.36</ele>
        <time>2022-03-22T17:58:31Z</time>
      </trkpt>
      <trkpt lat="44.90303" lon="4.63144">
        <ele>542.23</ele>
        <time>2022-03-22T17:58:33Z</time>
      </trkpt>
      <trkpt lat="44.90346" lon="4.63024">
        <ele>547.61</ele>
        <time>2022-03-22T17:58:36Z</time>
      </trkpt>
      <trkpt lat="44.90382" lon="4.62944">
        <ele>548.22</ele>
        <time>2022-03-22T17:58:38Z</time>
      </trkpt>
      <trkpt lat="44.9044" lon="4.6286">
        <ele>552.71</ele>
        <time>2022-03-22T17:58:41Z</time>
      </trkpt>
      <trkpt lat="44.90465" lon="4.62828">
        <ele>557.62</ele>
        <time>2022-03-22T17:58:43Z</time>
      </trkpt>
      <trkpt lat="44.90485" lon="4.62793">
        <ele>560.38</ele>
        <time>2022-03-22T17:58:46Z</time>
      </trkpt>
      <trkpt lat="44.90503" lon="4.62772">
        <ele>560.8</ele>
        <time>2022-03-22T17:58:48Z</time>
      </trkpt>
      <trkpt lat="44.90518" lon="4.62761">
        <ele>561.03</ele>
        <time>2022-03-22T17:58:51Z</time>
      </trkpt>
      <trkpt lat="44.90571" lon="4.62735">
        <ele>563.38</ele>
        <time>2022-03-22T17:58:54Z</time>
      </trkpt>
      <trkpt lat="44.90612" lon="4.62705">
        <ele>566.5</ele>
        <time>2022-03-22T17:58:56Z</time>
      </trkpt>
      <trkpt lat="44.90629" lon="4.62697">
        <ele>568.1</ele>
        <time>2022-03-22T17:58:59Z</time>
      </trkpt>
      <trkpt lat="44.90643" lon="4.62696">
        <ele>569.55</ele>
        <time>2022-03-22T17:59:01Z</time>
      </trkpt>
      <trkpt lat="44.90659" lon="4.62699">
        <ele>571.64</ele>
        <time>2022-03-22T17:59:04Z</time>
      </trkpt>
      <trkpt lat="44.90762" lon="4.62739">
        <ele>583.59</ele>
        <time>2022-03-22T17:59:06Z</time>
      </trkpt>
      <trkpt lat="44.90778" lon="4.6274">
        <ele>584.95</ele>
        <time>2022-03-22T17:59:09Z</time>
      </trkpt>
      <trkpt lat="44.90795" lon="4.62737">
        <ele>586.32</ele>
        <time>2022-03-22T17:59:11Z</time>
      </trkpt>
      <trkpt lat="44.90828" lon="4.62725">
        <ele>589.54</ele>
        <time>2022-03-22T17:59:14Z</time>
      </trkpt>
      <trkpt lat="44.90844" lon="4.62723">
        <ele>590.85</ele>
        <time>2022-03-22T17:59:16Z</time>
      </trkpt>
      <trkpt lat="44.90877" lon="4.62725">
        <ele>593.13</ele>
        <time>2022-03-22T17:59:19Z</time>
      </trkpt>
      <trkpt lat="44.90982" lon="4.62754">
        <ele>599.12</ele>
        <time>2022-03-22T17:59:22Z</time>
      </trkpt>
      <trkpt lat="44.91016" lon="4.62761">
        <ele>599.87</ele>
        <time>2022-03-22T17:59:24Z</time>
      </trkpt>
      <trkpt lat="44.91032" lon="4.6276">
        <ele>598.78</ele>
        <time>2022-03-22T17:59:27Z</time>
      </trkpt>
      <trkpt lat="44.91082" lon="4.62743">
        <ele>598.59</ele>
        <time>2022-03-22T17:59:29Z</time>
      </trkpt>
      <trkpt lat="44.91151" lon="4.62715">
        <ele>601.41</ele>
        <time>2022-03-22T17:59:32Z</time>
      </trkpt>
      <trkpt lat="44.91169" lon="4.62705">
        <ele>601.31</ele>
        <time>2022-03-22T17:59:34Z</time>
      </trkpt>
      <trkpt lat="44.91212" lon="4.62689">
        <ele>605.77</ele>
        <time>2022-03-22T17:59:37Z</time>
      </trkpt>
      <trkpt lat="44.91274" lon="4.62661">
        <ele>608.26</ele>
        <time>2022-03-22T17:59:39Z</time>
      </trkpt>
      <trkpt lat="44.91433" lon="4.62572">
        <ele>608.99</ele>
        <time>2022-03-22T17:59:42Z</time>
      </trkpt>
      <trkpt lat="44.9146" lon="4.62551">
        <ele>609.45</ele>
        <time>2022-03-22T17:59:45Z</time>
      </trkpt>
      <trkpt lat="44.91471" lon="4.62538">
        <ele>609.96</ele>
        <time>2022-03-22T17:59:47Z</time>
      </trkpt>
      <trkpt lat="44.91481" lon="4.62524">
        <ele>610.6</ele>
        <time>2022-03-22T17:59:50Z</time>
      </trkpt>
      <trkpt lat="44.91488" lon="4.62509">
        <ele>610.85</ele>
        <time>2022-03-22T17:59:52Z</time>
      </trkpt>
      <trkpt lat="44.91493" lon="4.62493">
        <ele>610.53</ele>
        <time>2022-03-22T17:59:55Z</time>
      </trkpt>
      <trkpt lat="44.91506" lon="4.62439">
        <ele>610.1</ele>
        <time>2022-03-22T17:59:57Z</time>
      </trkpt>
      <trkpt lat="44.91513" lon="4.62422">
        <ele>611.16</ele>
        <time>2022-03-22T18:00:00Z</time>
      </trkpt>
      <trkpt lat="44.91521" lon="4.62406">
        <ele>612.22</ele>
        <time>2022-03-22T18:00:02Z</time>
      </trkpt>
      <trkpt lat="44.91559" lon="4.62353">
        <ele>619.19</ele>
        <time>2022-03-22T18:00:05Z</time>
      </trkpt>
      <trkpt lat="44.91579" lon="4.62331">
        <ele>621.27</ele>
        <time>2022-03-22T18:00:08Z</time>
      </trkpt>
      <trkpt lat="44.91589" lon="4.62322">
        <ele>622.4</ele>
        <time>2022-03-22T18:00:10Z</time>
      </trkpt>
      <trkpt lat="44.91599" lon="4.62315">
        <ele>623.18</ele>
        <time>2022-03-22T18:00:13Z</time>
      </trkpt>
      <trkpt lat="44.91611" lon="4.62312">
        <ele>623.08</ele>
        <time>2022-03-22T18:00:15Z</time>
      </trkpt>
      <trkpt lat="44.91622" lon="4.62314">
        <ele>623.14</ele>
        <time>2022-03-22T18:00:18Z</time>
      </trkpt>
      <trkpt lat="44.91632" lon="4.62321">
        <ele>622.19</ele>
        <time>2022-03-22T18:00:20Z</time>
      </trkpt>
      <trkpt lat="44.91641" lon="4.6233">
        <ele>620.76</ele>
        <time>2022-03-22T18:00:23Z</time>
      </trkpt>
      <trkpt lat="44.91649" lon="4.62344">
        <ele>619.33</ele>
        <time>2022-03-22T18:00:25Z</time>
      </trkpt>
      <trkpt lat="44.91658" lon="4.62353">
        <ele>619.05</ele>
        <time>2022-03-22T18:00:28Z</time>
      </trkpt>
      <trkpt lat="44.9167" lon="4.62358">
        <ele>619.48</ele>
        <time>2022-03-22T18:00:31Z</time>
      </trkpt>
      <trkpt lat="44.91683" lon="4.62357">
        <ele>620.01</ele>
        <time>2022-03-22T18:00:33Z</time>
      </trkpt>
      <trkpt lat="44.91694" lon="4.62351">
        <ele>621.11</ele>
        <time>2022-03-22T18:00:36Z</time>
      </trkpt>
      <trkpt lat="44.91704" lon="4.6234">
        <ele>622.53</ele>
        <time>2022-03-22T18:00:38Z</time>
      </trkpt>
      <trkpt lat="44.91712" lon="4.62326">
        <ele>623.82</ele>
        <time>2022-03-22T18:00:41Z</time>
      </trkpt>
      <trkpt lat="44.91717" lon="4.6231">
        <ele>624.13</ele>
        <time>2022-03-22T18:00:43Z</time>
      </trkpt>
      <trkpt lat="44.91726" lon="4.62254">
        <ele>622.71</ele>
        <time>2022-03-22T18:00:46Z</time>
      </trkpt>
      <trkpt lat="44.91734" lon="4.62217">
        <ele>624.92</ele>
        <time>2022-03-22T18:00:48Z</time>
      </trkpt>
      <trkpt lat="44.91746" lon="4.62185">
        <ele>625.29</ele>
        <time>2022-03-22T18:00:51Z</time>
      </trkpt>
      <trkpt lat="44.91746" lon="4.62185">
        <ele>625.29</ele>
        <time>2022-03-22T18:00:51Z</time>
      </trkpt>
      <trkpt lat="44.91753" lon="4.62164">
        <ele>625.66</ele>
        <time>2022-03-22T18:00:53Z</time>
      </trkpt>
      <trkpt lat="44.91761" lon="4.62152">
        <ele>624.89</ele>
        <time>2022-03-22T18:00:55Z</time>
      </trkpt>
      <trkpt lat="44.91768" lon="4.62135">
        <ele>624.47</ele>
        <time>2022-03-22T18:00:57Z</time>
      </trkpt>
      <trkpt lat="44.9178" lon="4.62101">
        <ele>625.42</ele>
        <time>2022-03-22T18:00:59Z</time>
      </trkpt>
      <trkpt lat="44.91787" lon="4.62088">
        <ele>625.89</ele>
        <time>2022-03-22T18:01:01Z</time>
      </trkpt>
      <trkpt lat="44.91791" lon="4.62072">
        <ele>626.01</ele>
        <time>2022-03-22T18:01:03Z</time>
      </trkpt>
      <trkpt lat="44.91793" lon="4.62052">
        <ele>626.05</ele>
        <time>2022-03-22T18:01:05Z</time>
      </trkpt>
      <trkpt lat="44.91791" lon="4.61966">
        <ele>629.03</ele>
        <time>2022-03-22T18:01:07Z</time>
      </trkpt>
      <trkpt lat="44.91793" lon="4.61938">
        <ele>628.93</ele>
        <time>2022-03-22T18:01:09Z</time>
      </trkpt>
      <trkpt lat="44.91803" lon="4.61911">
        <ele>628.2</ele>
        <time>2022-03-22T18:01:11Z</time>
      </trkpt>
      <trkpt lat="44.91823" lon="4.61875">
        <ele>628.31</ele>
        <time>2022-03-22T18:01:13Z</time>
      </trkpt>
      <trkpt lat="44.91842" lon="4.61857">
        <ele>629.82</ele>
        <time>2022-03-22T18:01:15Z</time>
      </trkpt>
      <trkpt lat="44.91861" lon="4.61834">
        <ele>632.88</ele>
        <time>2022-03-22T18:01:17Z</time>
      </trkpt>
      <trkpt lat="44.91877" lon="4.61828">
        <ele>633.31</ele>
        <time>2022-03-22T18:01:19Z</time>
      </trkpt>
      <trkpt lat="44.91887" lon="4.61828">
        <ele>633.35</ele>
        <time>2022-03-22T18:01:21Z</time>
      </trkpt>
      <trkpt lat="44.91909" lon="4.61824">
        <ele>633.65</ele>
        <time>2022-03-22T18:01:23Z</time>
      </trkpt>
      <trkpt lat="44.91921" lon="4.61817">
        <ele>634.15</ele>
        <time>2022-03-22T18:01:25Z</time>
      </trkpt>
      <trkpt lat="44.91942" lon="4.61795">
        <ele>635.43</ele>
        <time>2022-03-22T18:01:27Z</time>
      </trkpt>
      <trkpt lat="44.91956" lon="4.61782">
        <ele>636.62</ele>
        <time>2022-03-22T18:01:29Z</time>
      </trkpt>
      <trkpt lat="44.92195" lon="4.6148">
        <ele>665.17</ele>
        <time>2022-03-22T18:01:31Z</time>
      </trkpt>
      <trkpt lat="44.92213" lon="4.6146">
        <ele>666.82</ele>
        <time>2022-03-22T18:01:33Z</time>
      </trkpt>
      <trkpt lat="44.92227" lon="4.61457">
        <ele>666.48</ele>
        <time>2022-03-22T18:01:35Z</time>
      </trkpt>
      <trkpt lat="44.92254" lon="4.61462">
        <ele>664.83</ele>
        <time>2022-03-22T18:01:37Z</time>
      </trkpt>
      <trkpt lat="44.92267" lon="4.61462">
        <ele>663.89</ele>
        <time>2022-03-22T18:01:39Z</time>
      </trkpt>
      <trkpt lat="44.92281" lon="4.61458">
        <ele>663.58</ele>
        <time>2022-03-22T18:01:41Z</time>
      </trkpt>
      <trkpt lat="44.92309" lon="4.61444">
        <ele>665.23</ele>
        <time>2022-03-22T18:01:43Z</time>
      </trkpt>
      <trkpt lat="44.92397" lon="4.6139">
        <ele>672.81</ele>
        <time>2022-03-22T18:01:44Z</time>
      </trkpt>
      <trkpt lat="44.92445" lon="4.61389">
        <ele>674.12</ele>
        <time>2022-03-22T18:01:46Z</time>
      </trkpt>
      <trkpt lat="44.92467" lon="4.61406">
        <ele>676.02</ele>
        <time>2022-03-22T18:01:48Z</time>
      </trkpt>
      <trkpt lat="44.92492" lon="4.61475">
        <ele>677.01</ele>
        <time>2022-03-22T18:01:50Z</time>
      </trkpt>
      <trkpt lat="44.92501" lon="4.61485">
        <ele>677.62</ele>
        <time>2022-03-22T18:01:52Z</time>
      </trkpt>
      <trkpt lat="44.92585" lon="4.6155">
        <ele>681.58</ele>
        <time>2022-03-22T18:01:54Z</time>
      </trkpt>
      <trkpt lat="44.92623" lon="4.61569">
        <ele>683.33</ele>
        <time>2022-03-22T18:01:56Z</time>
      </trkpt>
      <trkpt lat="44.92653" lon="4.61576">
        <ele>681.32</ele>
        <time>2022-03-22T18:01:58Z</time>
      </trkpt>
      <trkpt lat="44.92666" lon="4.61591">
        <ele>682.06</ele>
        <time>2022-03-22T18:02:00Z</time>
      </trkpt>
      <trkpt lat="44.9268" lon="4.61614">
        <ele>685.82</ele>
        <time>2022-03-22T18:02:02Z</time>
      </trkpt>
      <trkpt lat="44.92692" lon="4.61622">
        <ele>686.13</ele>
        <time>2022-03-22T18:02:04Z</time>
      </trkpt>
      <trkpt lat="44.92704" lon="4.61623">
        <ele>684.85</ele>
        <time>2022-03-22T18:02:06Z</time>
      </trkpt>
      <trkpt lat="44.92717" lon="4.61618">
        <ele>682.89</ele>
        <time>2022-03-22T18:02:08Z</time>
      </trkpt>
      <trkpt lat="44.9273" lon="4.6161">
        <ele>682.09</ele>
        <time>2022-03-22T18:02:10Z</time>
      </trkpt>
      <trkpt lat="44.92765" lon="4.61581">
        <ele>680.77</ele>
        <time>2022-03-22T18:02:12Z</time>
      </trkpt>
      <trkpt lat="44.92799" lon="4.61561">
        <ele>680.87</ele>
        <time>2022-03-22T18:02:14Z</time>
      </trkpt>
      <trkpt lat="44.92817" lon="4.61538">
        <ele>680.56</ele>
        <time>2022-03-22T18:02:16Z</time>
      </trkpt>
      <trkpt lat="44.92833" lon="4.6151">
        <ele>679.65</ele>
        <time>2022-03-22T18:02:18Z</time>
      </trkpt>
      <trkpt lat="44.92855" lon="4.61494">
        <ele>678.53</ele>
        <time>2022-03-22T18:02:20Z</time>
      </trkpt>
      <trkpt lat="44.92891" lon="4.61479">
        <ele>676.94</ele>
        <time>2022-03-22T18:02:22Z</time>
      </trkpt>
      <trkpt lat="44.92906" lon="4.61477">
        <ele>677.1</ele>
        <time>2022-03-22T18:02:24Z</time>
      </trkpt>
      <trkpt lat="44.9292" lon="4.6148">
        <ele>677.58</ele>
        <time>2022-03-22T18:02:26Z</time>
      </trkpt>
      <trkpt lat="44.92934" lon="4.61486">
        <ele>678</ele>
        <time>2022-03-22T18:02:28Z</time>
      </trkpt>
      <trkpt lat="44.92961" lon="4.61503">
        <ele>678.2</ele>
        <time>2022-03-22T18:02:30Z</time>
      </trkpt>
      <trkpt lat="44.92986" lon="4.61524">
        <ele>678.02</ele>
        <time>2022-03-22T18:02:32Z</time>
      </trkpt>
      <trkpt lat="44.92998" lon="4.61537">
        <ele>677.92</ele>
        <time>2022-03-22T18:02:34Z</time>
      </trkpt>
      <trkpt lat="44.93016" lon="4.61572">
        <ele>681.73</ele>
        <time>2022-03-22T18:02:36Z</time>
      </trkpt>
      <trkpt lat="44.93034" lon="4.61599">
        <ele>683.83</ele>
        <time>2022-03-22T18:02:38Z</time>
      </trkpt>
      <trkpt lat="44.93046" lon="4.61609">
        <ele>682.82</ele>
        <time>2022-03-22T18:02:40Z</time>
      </trkpt>
      <trkpt lat="44.93072" lon="4.61626">
        <ele>681.62</ele>
        <time>2022-03-22T18:02:42Z</time>
      </trkpt>
      <trkpt lat="44.93084" lon="4.61637">
        <ele>681.63</ele>
        <time>2022-03-22T18:02:44Z</time>
      </trkpt>
      <trkpt lat="44.93095" lon="4.61652">
        <ele>680.2</ele>
        <time>2022-03-22T18:02:46Z</time>
      </trkpt>
      <trkpt lat="44.93126" lon="4.61702">
        <ele>676.41</ele>
        <time>2022-03-22T18:02:48Z</time>
      </trkpt>
      <trkpt lat="44.93138" lon="4.61716">
        <ele>675.51</ele>
        <time>2022-03-22T18:02:50Z</time>
      </trkpt>
      <trkpt lat="44.93165" lon="4.6174">
        <ele>674.82</ele>
        <time>2022-03-22T18:02:52Z</time>
      </trkpt>
      <trkpt lat="44.93194" lon="4.61757">
        <ele>673.08</ele>
        <time>2022-03-22T18:02:54Z</time>
      </trkpt>
      <trkpt lat="44.93236" lon="4.61773">
        <ele>671.41</ele>
        <time>2022-03-22T18:02:56Z</time>
      </trkpt>
      <trkpt lat="44.93277" lon="4.61775">
        <ele>672.93</ele>
        <time>2022-03-22T18:02:58Z</time>
      </trkpt>
      <trkpt lat="44.933" lon="4.61774">
        <ele>674.72</ele>
        <time>2022-03-22T18:03:00Z</time>
      </trkpt>
      <trkpt lat="44.93441" lon="4.61751">
        <ele>684.71</ele>
        <time>2022-03-22T18:03:02Z</time>
      </trkpt>
      <trkpt lat="44.935" lon="4.61728">
        <ele>690.24</ele>
        <time>2022-03-22T18:03:04Z</time>
      </trkpt>
      <trkpt lat="44.93514" lon="4.61716">
        <ele>691.09</ele>
        <time>2022-03-22T18:03:06Z</time>
      </trkpt>
      <trkpt lat="44.93528" lon="4.61698">
        <ele>691.27</ele>
        <time>2022-03-22T18:03:08Z</time>
      </trkpt>
      <trkpt lat="44.93619" lon="4.61559">
        <ele>700.6</ele>
        <time>2022-03-22T18:03:10Z</time>
      </trkpt>
      <trkpt lat="44.93627" lon="4.61545">
        <ele>700.49</ele>
        <time>2022-03-22T18:03:12Z</time>
      </trkpt>
      <trkpt lat="44.93634" lon="4.61522">
        <ele>700.53</ele>
        <time>2022-03-22T18:03:14Z</time>
      </trkpt>
      <trkpt lat="44.93638" lon="4.61428">
        <ele>702.81</ele>
        <time>2022-03-22T18:03:16Z</time>
      </trkpt>
      <trkpt lat="44.93646" lon="4.61409">
        <ele>703.76</ele>
        <time>2022-03-22T18:03:18Z</time>
      </trkpt>
      <trkpt lat="44.93654" lon="4.61397">
        <ele>704.27</ele>
        <time>2022-03-22T18:03:20Z</time>
      </trkpt>
      <trkpt lat="44.9369" lon="4.61345">
        <ele>710.08</ele>
        <time>2022-03-22T18:03:22Z</time>
      </trkpt>
      <trkpt lat="44.93699" lon="4.61321">
        <ele>710.37</ele>
        <time>2022-03-22T18:03:24Z</time>
      </trkpt>
      <trkpt lat="44.9371" lon="4.61276">
        <ele>708.22</ele>
        <time>2022-03-22T18:03:26Z</time>
      </trkpt>
      <trkpt lat="44.93716" lon="4.61264">
        <ele>707.92</ele>
        <time>2022-03-22T18:03:28Z</time>
      </trkpt>
      <trkpt lat="44.93723" lon="4.61254">
        <ele>708.04</ele>
        <time>2022-03-22T18:03:30Z</time>
      </trkpt>
      <trkpt lat="44.93746" lon="4.61238">
        <ele>712.05</ele>
        <time>2022-03-22T18:03:32Z</time>
      </trkpt>
      <trkpt lat="44.93771" lon="4.61227">
        <ele>712.76</ele>
        <time>2022-03-22T18:03:34Z</time>
      </trkpt>
      <trkpt lat="44.93793" lon="4.61226">
        <ele>714.47</ele>
        <time>2022-03-22T18:03:35Z</time>
      </trkpt>
      <trkpt lat="44.93804" lon="4.61233">
        <ele>716.01</ele>
        <time>2022-03-22T18:03:37Z</time>
      </trkpt>
      <trkpt lat="44.93824" lon="4.61254">
        <ele>718.96</ele>
        <time>2022-03-22T18:03:39Z</time>
      </trkpt>
      <trkpt lat="44.93841" lon="4.61262">
        <ele>720.88</ele>
        <time>2022-03-22T18:03:41Z</time>
      </trkpt>
      <trkpt lat="44.93849" lon="4.61261">
        <ele>721.78</ele>
        <time>2022-03-22T18:03:43Z</time>
      </trkpt>
      <trkpt lat="44.93856" lon="4.6125">
        <ele>722.25</ele>
        <time>2022-03-22T18:03:45Z</time>
      </trkpt>
      <trkpt lat="44.93861" lon="4.61234">
        <ele>722.48</ele>
        <time>2022-03-22T18:03:47Z</time>
      </trkpt>
      <trkpt lat="44.93871" lon="4.61191">
        <ele>724.12</ele>
        <time>2022-03-22T18:03:49Z</time>
      </trkpt>
      <trkpt lat="44.93885" lon="4.61111">
        <ele>724.4</ele>
        <time>2022-03-22T18:03:51Z</time>
      </trkpt>
      <trkpt lat="44.93896" lon="4.61069">
        <ele>722.6</ele>
        <time>2022-03-22T18:03:53Z</time>
      </trkpt>
      <trkpt lat="44.9392" lon="4.61014">
        <ele>725.55</ele>
        <time>2022-03-22T18:03:55Z</time>
      </trkpt>
      <trkpt lat="44.93936" lon="4.6099">
        <ele>728.45</ele>
        <time>2022-03-22T18:03:57Z</time>
      </trkpt>
      <trkpt lat="44.93966" lon="4.6095">
        <ele>731.04</ele>
        <time>2022-03-22T18:03:59Z</time>
      </trkpt>
      <trkpt lat="44.93979" lon="4.60925">
        <ele>731.41</ele>
        <time>2022-03-22T18:04:01Z</time>
      </trkpt>
      <trkpt lat="44.93984" lon="4.60898">
        <ele>731.43</ele>
        <time>2022-03-22T18:04:03Z</time>
      </trkpt>
      <trkpt lat="44.93983" lon="4.60881">
        <ele>731.3</ele>
        <time>2022-03-22T18:04:05Z</time>
      </trkpt>
      <trkpt lat="44.93972" lon="4.60822">
        <ele>732.99</ele>
        <time>2022-03-22T18:04:07Z</time>
      </trkpt>
      <trkpt lat="44.93972" lon="4.60807">
        <ele>734.61</ele>
        <time>2022-03-22T18:04:09Z</time>
      </trkpt>
      <trkpt lat="44.93974" lon="4.6079">
        <ele>736.59</ele>
        <time>2022-03-22T18:04:11Z</time>
      </trkpt>
      <trkpt lat="44.94031" lon="4.60686">
        <ele>743.07</ele>
        <time>2022-03-22T18:04:13Z</time>
      </trkpt>
      <trkpt lat="44.94047" lon="4.60651">
        <ele>740.2</ele>
        <time>2022-03-22T18:04:15Z</time>
      </trkpt>
      <trkpt lat="44.94062" lon="4.60633">
        <ele>740</ele>
        <time>2022-03-22T18:04:17Z</time>
      </trkpt>
      <trkpt lat="44.94085" lon="4.60608">
        <ele>739.74</ele>
        <time>2022-03-22T18:04:19Z</time>
      </trkpt>
      <trkpt lat="44.94109" lon="4.60588">
        <ele>739.66</ele>
        <time>2022-03-22T18:04:21Z</time>
      </trkpt>
      <trkpt lat="44.94221" lon="4.6056">
        <ele>744.59</ele>
        <time>2022-03-22T18:04:23Z</time>
      </trkpt>
      <trkpt lat="44.94245" lon="4.60549">
        <ele>747.54</ele>
        <time>2022-03-22T18:04:25Z</time>
      </trkpt>
      <trkpt lat="44.94286" lon="4.60517">
        <ele>749.39</ele>
        <time>2022-03-22T18:04:27Z</time>
      </trkpt>
      <trkpt lat="44.94299" lon="4.6051">
        <ele>750.18</ele>
        <time>2022-03-22T18:04:29Z</time>
      </trkpt>
      <trkpt lat="44.94335" lon="4.60503">
        <ele>753.78</ele>
        <time>2022-03-22T18:04:31Z</time>
      </trkpt>
      <trkpt lat="44.94357" lon="4.60508">
        <ele>755.73</ele>
        <time>2022-03-22T18:04:33Z</time>
      </trkpt>
      <trkpt lat="44.94367" lon="4.60514">
        <ele>755.77</ele>
        <time>2022-03-22T18:04:35Z</time>
      </trkpt>
      <trkpt lat="44.94399" lon="4.60548">
        <ele>753.2</ele>
        <time>2022-03-22T18:04:37Z</time>
      </trkpt>
      <trkpt lat="44.94421" lon="4.60561">
        <ele>751.05</ele>
        <time>2022-03-22T18:04:39Z</time>
      </trkpt>
      <trkpt lat="44.94433" lon="4.60564">
        <ele>751.47</ele>
        <time>2022-03-22T18:04:41Z</time>
      </trkpt>
      <trkpt lat="44.94449" lon="4.60562">
        <ele>751.72</ele>
        <time>2022-03-22T18:04:43Z</time>
      </trkpt>
      <trkpt lat="44.94456" lon="4.60558">
        <ele>752.06</ele>
        <time>2022-03-22T18:04:45Z</time>
      </trkpt>
      <trkpt lat="44.94467" lon="4.60544">
        <ele>752.35</ele>
        <time>2022-03-22T18:04:47Z</time>
      </trkpt>
      <trkpt lat="44.94472" lon="4.60533">
        <ele>752.24</ele>
        <time>2022-03-22T18:04:49Z</time>
      </trkpt>
      <trkpt lat="44.94474" lon="4.60518">
        <ele>751.55</ele>
        <time>2022-03-22T18:04:51Z</time>
      </trkpt>
      <trkpt lat="44.94482" lon="4.60427">
        <ele>753.69</ele>
        <time>2022-03-22T18:04:53Z</time>
      </trkpt>
      <trkpt lat="44.94481" lon="4.60396">
        <ele>754.91</ele>
        <time>2022-03-22T18:04:55Z</time>
      </trkpt>
      <trkpt lat="44.94467" lon="4.60305">
        <ele>749.22</ele>
        <time>2022-03-22T18:04:57Z</time>
      </trkpt>
      <trkpt lat="44.94466" lon="4.60284">
        <ele>749.03</ele>
        <time>2022-03-22T18:04:59Z</time>
      </trkpt>
      <trkpt lat="44.94468" lon="4.60188">
        <ele>750.28</ele>
        <time>2022-03-22T18:05:01Z</time>
      </trkpt>
      <trkpt lat="44.9447" lon="4.60163">
        <ele>751.6</ele>
        <time>2022-03-22T18:05:03Z</time>
      </trkpt>
      <trkpt lat="44.94488" lon="4.6009">
        <ele>753.33</ele>
        <time>2022-03-22T18:05:05Z</time>
      </trkpt>
      <trkpt lat="44.94494" lon="4.60073">
        <ele>753.64</ele>
        <time>2022-03-22T18:05:07Z</time>
      </trkpt>
      <trkpt lat="44.945" lon="4.60063">
        <ele>754</ele>
        <time>2022-03-22T18:05:09Z</time>
      </trkpt>
      <trkpt lat="44.94514" lon="4.60053">
        <ele>754.82</ele>
        <time>2022-03-22T18:05:11Z</time>
      </trkpt>
      <trkpt lat="44.94523" lon="4.6005">
        <ele>755.29</ele>
        <time>2022-03-22T18:05:13Z</time>
      </trkpt>
      <trkpt lat="44.94539" lon="4.60051">
        <ele>755.54</ele>
        <time>2022-03-22T18:05:15Z</time>
      </trkpt>
      <trkpt lat="44.94638" lon="4.60097">
        <ele>752.21</ele>
        <time>2022-03-22T18:05:17Z</time>
      </trkpt>
      <trkpt lat="44.9465" lon="4.60106">
        <ele>750.45</ele>
        <time>2022-03-22T18:05:19Z</time>
      </trkpt>
      <trkpt lat="44.94661" lon="4.60116">
        <ele>748.97</ele>
        <time>2022-03-22T18:05:21Z</time>
      </trkpt>
      <trkpt lat="44.94691" lon="4.60154">
        <ele>751.54</ele>
        <time>2022-03-22T18:05:23Z</time>
      </trkpt>
      <trkpt lat="44.94698" lon="4.60162">
        <ele>752.48</ele>
        <time>2022-03-22T18:05:24Z</time>
      </trkpt>
      <trkpt lat="44.94705" lon="4.60164">
        <ele>752.91</ele>
        <time>2022-03-22T18:05:26Z</time>
      </trkpt>
      <trkpt lat="44.94717" lon="4.60159">
        <ele>752.52</ele>
        <time>2022-03-22T18:05:28Z</time>
      </trkpt>
      <trkpt lat="44.94751" lon="4.60123">
        <ele>747.01</ele>
        <time>2022-03-22T18:05:30Z</time>
      </trkpt>
      <trkpt lat="44.94766" lon="4.60108">
        <ele>745.08</ele>
        <time>2022-03-22T18:05:32Z</time>
      </trkpt>
      <trkpt lat="44.94777" lon="4.60101">
        <ele>744.44</ele>
        <time>2022-03-22T18:05:34Z</time>
      </trkpt>
      <trkpt lat="44.94802" lon="4.60092">
        <ele>743.4</ele>
        <time>2022-03-22T18:05:36Z</time>
      </trkpt>
      <trkpt lat="44.94815" lon="4.60092">
        <ele>742.98</ele>
        <time>2022-03-22T18:05:38Z</time>
      </trkpt>
      <trkpt lat="44.94825" lon="4.60094">
        <ele>742.86</ele>
        <time>2022-03-22T18:05:40Z</time>
      </trkpt>
      <trkpt lat="44.94835" lon="4.60101">
        <ele>743.36</ele>
        <time>2022-03-22T18:05:42Z</time>
      </trkpt>
      <trkpt lat="44.94845" lon="4.60112">
        <ele>742.33</ele>
        <time>2022-03-22T18:05:44Z</time>
      </trkpt>
      <trkpt lat="44.9486" lon="4.60143">
        <ele>742.94</ele>
        <time>2022-03-22T18:05:46Z</time>
      </trkpt>
      <trkpt lat="44.94884" lon="4.60267">
        <ele>745.52</ele>
        <time>2022-03-22T18:05:48Z</time>
      </trkpt>
      <trkpt lat="44.94891" lon="4.60272">
        <ele>744.63</ele>
        <time>2022-03-22T18:05:50Z</time>
      </trkpt>
      <trkpt lat="44.94905" lon="4.60273">
        <ele>744.83</ele>
        <time>2022-03-22T18:05:52Z</time>
      </trkpt>
      <trkpt lat="44.95009" lon="4.60138">
        <ele>725.76</ele>
        <time>2022-03-22T18:05:54Z</time>
      </trkpt>
      <trkpt lat="44.9504" lon="4.60111">
        <ele>727.99</ele>
        <time>2022-03-22T18:05:56Z</time>
      </trkpt>
      <trkpt lat="44.95092" lon="4.60111">
        <ele>726.44</ele>
        <time>2022-03-22T18:05:58Z</time>
      </trkpt>
      <trkpt lat="44.95134" lon="4.6014">
        <ele>723.98</ele>
        <time>2022-03-22T18:06:00Z</time>
      </trkpt>
      <trkpt lat="44.95218" lon="4.60221">
        <ele>716.2</ele>
        <time>2022-03-22T18:06:02Z</time>
      </trkpt>
      <trkpt lat="44.95223" lon="4.60254">
        <ele>716.47</ele>
        <time>2022-03-22T18:06:04Z</time>
      </trkpt>
      <trkpt lat="44.95208" lon="4.60324">
        <ele>714.13</ele>
        <time>2022-03-22T18:06:06Z</time>
      </trkpt>
      <trkpt lat="44.95223" lon="4.60374">
        <ele>711.35</ele>
        <time>2022-03-22T18:06:08Z</time>
      </trkpt>
      <trkpt lat="44.95233" lon="4.60398">
        <ele>712.53</ele>
        <time>2022-03-22T18:06:10Z</time>
      </trkpt>
      <trkpt lat="44.95264" lon="4.60453">
        <ele>712.81</ele>
        <time>2022-03-22T18:06:12Z</time>
      </trkpt>
      <trkpt lat="44.95285" lon="4.60471">
        <ele>711.3</ele>
        <time>2022-03-22T18:06:14Z</time>
      </trkpt>
      <trkpt lat="44.95348" lon="4.60485">
        <ele>699.4</ele>
        <time>2022-03-22T18:06:16Z</time>
      </trkpt>
      <trkpt lat="44.9541" lon="4.60513">
        <ele>695.45</ele>
        <time>2022-03-22T18:06:18Z</time>
      </trkpt>
      <trkpt lat="44.95431" lon="4.60516">
        <ele>695.3</ele>
        <time>2022-03-22T18:06:20Z</time>
      </trkpt>
      <trkpt lat="44.95447" lon="4.60512">
        <ele>694.82</ele>
        <time>2022-03-22T18:06:22Z</time>
      </trkpt>
      <trkpt lat="44.95458" lon="4.60507">
        <ele>694.66</ele>
        <time>2022-03-22T18:06:24Z</time>
      </trkpt>
      <trkpt lat="44.95505" lon="4.60441">
        <ele>690.08</ele>
        <time>2022-03-22T18:06:26Z</time>
      </trkpt>
      <trkpt lat="44.95523" lon="4.60421">
        <ele>689.78</ele>
        <time>2022-03-22T18:06:28Z</time>
      </trkpt>
      <trkpt lat="44.95563" lon="4.60386">
        <ele>687.8</ele>
        <time>2022-03-22T18:06:30Z</time>
      </trkpt>
      <trkpt lat="44.95604" lon="4.6033">
        <ele>681.03</ele>
        <time>2022-03-22T18:06:32Z</time>
      </trkpt>
      <trkpt lat="44.95634" lon="4.60319">
        <ele>679.05</ele>
        <time>2022-03-22T18:06:34Z</time>
      </trkpt>
      <trkpt lat="44.95731" lon="4.60327">
        <ele>680.41</ele>
        <time>2022-03-22T18:06:36Z</time>
      </trkpt>
      <trkpt lat="44.9575" lon="4.6034">
        <ele>679.8</ele>
        <time>2022-03-22T18:06:38Z</time>
      </trkpt>
      <trkpt lat="44.95764" lon="4.60374">
        <ele>678.77</ele>
        <time>2022-03-22T18:06:40Z</time>
      </trkpt>
      <trkpt lat="44.95781" lon="4.60426">
        <ele>680.67</ele>
        <time>2022-03-22T18:06:42Z</time>
      </trkpt>
      <trkpt lat="44.95795" lon="4.60455">
        <ele>682.08</ele>
        <time>2022-03-22T18:06:44Z</time>
      </trkpt>
      <trkpt lat="44.95806" lon="4.60472">
        <ele>681.83</ele>
        <time>2022-03-22T18:06:46Z</time>
      </trkpt>
      <trkpt lat="44.95817" lon="4.60483">
        <ele>682.65</ele>
        <time>2022-03-22T18:06:48Z</time>
      </trkpt>
      <trkpt lat="44.95829" lon="4.60486">
        <ele>681.46</ele>
        <time>2022-03-22T18:06:50Z</time>
      </trkpt>
      <trkpt lat="44.95838" lon="4.60475">
        <ele>679.64</ele>
        <time>2022-03-22T18:06:52Z</time>
      </trkpt>
      <trkpt lat="44.95868" lon="4.60391">
        <ele>670.23</ele>
        <time>2022-03-22T18:06:54Z</time>
      </trkpt>
      <trkpt lat="44.95891" lon="4.60343">
        <ele>671.74</ele>
        <time>2022-03-22T18:06:56Z</time>
      </trkpt>
      <trkpt lat="44.95912" lon="4.60273">
        <ele>667.89</ele>
        <time>2022-03-22T18:06:58Z</time>
      </trkpt>
      <trkpt lat="44.95925" lon="4.60211">
        <ele>661.79</ele>
        <time>2022-03-22T18:07:00Z</time>
      </trkpt>
      <trkpt lat="44.95934" lon="4.60181">
        <ele>658.36</ele>
        <time>2022-03-22T18:07:02Z</time>
      </trkpt>
      <trkpt lat="44.95947" lon="4.60165">
        <ele>656.77</ele>
        <time>2022-03-22T18:07:04Z</time>
      </trkpt>
      <trkpt lat="44.95961" lon="4.60156">
        <ele>655.92</ele>
        <time>2022-03-22T18:07:06Z</time>
      </trkpt>
      <trkpt lat="44.95984" lon="4.60146">
        <ele>654.6</ele>
        <time>2022-03-22T18:07:08Z</time>
      </trkpt>
      <trkpt lat="44.96001" lon="4.60144">
        <ele>653.07</ele>
        <time>2022-03-22T18:07:10Z</time>
      </trkpt>
      <trkpt lat="44.96016" lon="4.60153">
        <ele>650.84</ele>
        <time>2022-03-22T18:07:12Z</time>
      </trkpt>
      <trkpt lat="44.96027" lon="4.60169">
        <ele>650.86</ele>
        <time>2022-03-22T18:07:14Z</time>
      </trkpt>
      <trkpt lat="44.96033" lon="4.60187">
        <ele>651.01</ele>
        <time>2022-03-22T18:07:15Z</time>
      </trkpt>
      <trkpt lat="44.96041" lon="4.60246">
        <ele>654.33</ele>
        <time>2022-03-22T18:07:17Z</time>
      </trkpt>
      <trkpt lat="44.96048" lon="4.60258">
        <ele>653.38</ele>
        <time>2022-03-22T18:07:19Z</time>
      </trkpt>
      <trkpt lat="44.96063" lon="4.60265">
        <ele>650.61</ele>
        <time>2022-03-22T18:07:21Z</time>
      </trkpt>
      <trkpt lat="44.96117" lon="4.60255">
        <ele>645.33</ele>
        <time>2022-03-22T18:07:23Z</time>
      </trkpt>
      <trkpt lat="44.9613" lon="4.60249">
        <ele>643.98</ele>
        <time>2022-03-22T18:07:25Z</time>
      </trkpt>
      <trkpt lat="44.96142" lon="4.60239">
        <ele>642.85</ele>
        <time>2022-03-22T18:07:27Z</time>
      </trkpt>
      <trkpt lat="44.96171" lon="4.60186">
        <ele>636.15</ele>
        <time>2022-03-22T18:07:29Z</time>
      </trkpt>
      <trkpt lat="44.96183" lon="4.60177">
        <ele>635.88</ele>
        <time>2022-03-22T18:07:31Z</time>
      </trkpt>
      <trkpt lat="44.96201" lon="4.60175">
        <ele>637.82</ele>
        <time>2022-03-22T18:07:33Z</time>
      </trkpt>
      <trkpt lat="44.96219" lon="4.60183">
        <ele>640.43</ele>
        <time>2022-03-22T18:07:35Z</time>
      </trkpt>
      <trkpt lat="44.96238" lon="4.60196">
        <ele>641.57</ele>
        <time>2022-03-22T18:07:37Z</time>
      </trkpt>
      <trkpt lat="44.96266" lon="4.60226">
        <ele>643.19</ele>
        <time>2022-03-22T18:07:39Z</time>
      </trkpt>
      <trkpt lat="44.96275" lon="4.60225">
        <ele>642.34</ele>
        <time>2022-03-22T18:07:41Z</time>
      </trkpt>
      <trkpt lat="44.96282" lon="4.60219">
        <ele>642.46</ele>
        <time>2022-03-22T18:07:43Z</time>
      </trkpt>
      <trkpt lat="44.96291" lon="4.60196">
        <ele>641.56</ele>
        <time>2022-03-22T18:07:45Z</time>
      </trkpt>
      <trkpt lat="44.96289" lon="4.60118">
        <ele>639.2</ele>
        <time>2022-03-22T18:07:47Z</time>
      </trkpt>
      <trkpt lat="44.96279" lon="4.60051">
        <ele>631.58</ele>
        <time>2022-03-22T18:07:49Z</time>
      </trkpt>
      <trkpt lat="44.96262" lon="4.59955">
        <ele>620.95</ele>
        <time>2022-03-22T18:07:51Z</time>
      </trkpt>
      <trkpt lat="44.96266" lon="4.59907">
        <ele>618.47</ele>
        <time>2022-03-22T18:07:53Z</time>
      </trkpt>
      <trkpt lat="44.96275" lon="4.59878">
        <ele>616.8</ele>
        <time>2022-03-22T18:07:55Z</time>
      </trkpt>
      <trkpt lat="44.9629" lon="4.59859">
        <ele>618.25</ele>
        <time>2022-03-22T18:07:57Z</time>
      </trkpt>
      <trkpt lat="44.9631" lon="4.59845">
        <ele>620.57</ele>
        <time>2022-03-22T18:07:59Z</time>
      </trkpt>
      <trkpt lat="44.96332" lon="4.59838">
        <ele>621.81</ele>
        <time>2022-03-22T18:08:01Z</time>
      </trkpt>
      <trkpt lat="44.96357" lon="4.59823">
        <ele>618.73</ele>
        <time>2022-03-22T18:08:03Z</time>
      </trkpt>
      <trkpt lat="44.96378" lon="4.59799">
        <ele>616.77</ele>
        <time>2022-03-22T18:08:05Z</time>
      </trkpt>
      <trkpt lat="44.96404" lon="4.59762">
        <ele>612.33</ele>
        <time>2022-03-22T18:08:07Z</time>
      </trkpt>
      <trkpt lat="44.96453" lon="4.59684">
        <ele>599.2</ele>
        <time>2022-03-22T18:08:09Z</time>
      </trkpt>
      <trkpt lat="44.96472" lon="4.59668">
        <ele>597.68</ele>
        <time>2022-03-22T18:08:11Z</time>
      </trkpt>
      <trkpt lat="44.96485" lon="4.59667">
        <ele>596.68</ele>
        <time>2022-03-22T18:08:13Z</time>
      </trkpt>
      <trkpt lat="44.96497" lon="4.5967">
        <ele>597.59</ele>
        <time>2022-03-22T18:08:15Z</time>
      </trkpt>
      <trkpt lat="44.96523" lon="4.59689">
        <ele>599.63</ele>
        <time>2022-03-22T18:08:17Z</time>
      </trkpt>
      <trkpt lat="44.96542" lon="4.59714">
        <ele>599.51</ele>
        <time>2022-03-22T18:08:19Z</time>
      </trkpt>
      <trkpt lat="44.96551" lon="4.59731">
        <ele>599.32</ele>
        <time>2022-03-22T18:08:21Z</time>
      </trkpt>
      <trkpt lat="44.96557" lon="4.59751">
        <ele>599.36</ele>
        <time>2022-03-22T18:08:23Z</time>
      </trkpt>
      <trkpt lat="44.96568" lon="4.598">
        <ele>602.63</ele>
        <time>2022-03-22T18:08:25Z</time>
      </trkpt>
      <trkpt lat="44.96581" lon="4.59831">
        <ele>599.73</ele>
        <time>2022-03-22T18:08:27Z</time>
      </trkpt>
      <trkpt lat="44.96593" lon="4.59855">
        <ele>599.66</ele>
        <time>2022-03-22T18:08:29Z</time>
      </trkpt>
      <trkpt lat="44.96607" lon="4.59879">
        <ele>600.09</ele>
        <time>2022-03-22T18:08:31Z</time>
      </trkpt>
      <trkpt lat="44.9662" lon="4.59891">
        <ele>601.21</ele>
        <time>2022-03-22T18:08:33Z</time>
      </trkpt>
      <trkpt lat="44.9663" lon="4.59891">
        <ele>600.84</ele>
        <time>2022-03-22T18:08:35Z</time>
      </trkpt>
      <trkpt lat="44.96639" lon="4.59887">
        <ele>599.51</ele>
        <time>2022-03-22T18:08:37Z</time>
      </trkpt>
      <trkpt lat="44.96652" lon="4.59873">
        <ele>597.32</ele>
        <time>2022-03-22T18:08:39Z</time>
      </trkpt>
      <trkpt lat="44.96671" lon="4.59839">
        <ele>590.39</ele>
        <time>2022-03-22T18:08:41Z</time>
      </trkpt>
      <trkpt lat="44.96691" lon="4.59815">
        <ele>587.65</ele>
        <time>2022-03-22T18:08:43Z</time>
      </trkpt>
      <trkpt lat="44.96729" lon="4.59781">
        <ele>585.65</ele>
        <time>2022-03-22T18:08:45Z</time>
      </trkpt>
      <trkpt lat="44.96809" lon="4.59759">
        <ele>580.02</ele>
        <time>2022-03-22T18:08:47Z</time>
      </trkpt>
      <trkpt lat="44.96842" lon="4.59766">
        <ele>580.4</ele>
        <time>2022-03-22T18:08:49Z</time>
      </trkpt>
      <trkpt lat="44.96873" lon="4.59777">
        <ele>579.99</ele>
        <time>2022-03-22T18:08:51Z</time>
      </trkpt>
      <trkpt lat="44.96907" lon="4.59797">
        <ele>578.17</ele>
        <time>2022-03-22T18:08:53Z</time>
      </trkpt>
      <trkpt lat="44.9694" lon="4.5982">
        <ele>579.92</ele>
        <time>2022-03-22T18:08:55Z</time>
      </trkpt>
      <trkpt lat="44.96948" lon="4.59819">
        <ele>580.3</ele>
        <time>2022-03-22T18:08:57Z</time>
      </trkpt>
      <trkpt lat="44.96959" lon="4.59806">
        <ele>580.9</ele>
        <time>2022-03-22T18:08:59Z</time>
      </trkpt>
      <trkpt lat="44.96971" lon="4.59731">
        <ele>573.4</ele>
        <time>2022-03-22T18:09:01Z</time>
      </trkpt>
      <trkpt lat="44.9697" lon="4.59674">
        <ele>565.95</ele>
        <time>2022-03-22T18:09:03Z</time>
      </trkpt>
      <trkpt lat="44.96967" lon="4.59622">
        <ele>558.48</ele>
        <time>2022-03-22T18:09:05Z</time>
      </trkpt>
      <trkpt lat="44.96971" lon="4.59577">
        <ele>556.41</ele>
        <time>2022-03-22T18:09:06Z</time>
      </trkpt>
      <trkpt lat="44.96976" lon="4.59539">
        <ele>553.64</ele>
        <time>2022-03-22T18:09:08Z</time>
      </trkpt>
      <trkpt lat="44.96988" lon="4.59484">
        <ele>551.71</ele>
        <time>2022-03-22T18:09:10Z</time>
      </trkpt>
      <trkpt lat="44.96993" lon="4.59454">
        <ele>548.77</ele>
        <time>2022-03-22T18:09:12Z</time>
      </trkpt>
      <trkpt lat="44.97003" lon="4.59437">
        <ele>548.29</ele>
        <time>2022-03-22T18:09:14Z</time>
      </trkpt>
      <trkpt lat="44.97016" lon="4.59431">
        <ele>548.1</ele>
        <time>2022-03-22T18:09:16Z</time>
      </trkpt>
      <trkpt lat="44.97027" lon="4.59439">
        <ele>549.91</ele>
        <time>2022-03-22T18:09:18Z</time>
      </trkpt>
      <trkpt lat="44.97034" lon="4.59445">
        <ele>549.41</ele>
        <time>2022-03-22T18:09:20Z</time>
      </trkpt>
      <trkpt lat="44.97041" lon="4.5946">
        <ele>550.62</ele>
        <time>2022-03-22T18:09:22Z</time>
      </trkpt>
      <trkpt lat="44.97057" lon="4.59485">
        <ele>552.53</ele>
        <time>2022-03-22T18:09:24Z</time>
      </trkpt>
      <trkpt lat="44.97108" lon="4.59519">
        <ele>545</ele>
        <time>2022-03-22T18:09:26Z</time>
      </trkpt>
      <trkpt lat="44.97156" lon="4.59586">
        <ele>542.8</ele>
        <time>2022-03-22T18:09:28Z</time>
      </trkpt>
      <trkpt lat="44.97206" lon="4.59676">
        <ele>539.5</ele>
        <time>2022-03-22T18:09:30Z</time>
      </trkpt>
      <trkpt lat="44.97254" lon="4.59757">
        <ele>537.46</ele>
        <time>2022-03-22T18:09:32Z</time>
      </trkpt>
      <trkpt lat="44.97272" lon="4.59784">
        <ele>538.92</ele>
        <time>2022-03-22T18:09:34Z</time>
      </trkpt>
      <trkpt lat="44.9728" lon="4.59791">
        <ele>539.28</ele>
        <time>2022-03-22T18:09:36Z</time>
      </trkpt>
      <trkpt lat="44.97297" lon="4.59793">
        <ele>538.6</ele>
        <time>2022-03-22T18:09:38Z</time>
      </trkpt>
      <trkpt lat="44.97316" lon="4.59773">
        <ele>538.32</ele>
        <time>2022-03-22T18:09:40Z</time>
      </trkpt>
      <trkpt lat="44.9732" lon="4.59762">
        <ele>538.71</ele>
        <time>2022-03-22T18:09:42Z</time>
      </trkpt>
      <trkpt lat="44.97322" lon="4.5975">
        <ele>538.56</ele>
        <time>2022-03-22T18:09:44Z</time>
      </trkpt>
      <trkpt lat="44.97321" lon="4.59737">
        <ele>538.04</ele>
        <time>2022-03-22T18:09:46Z</time>
      </trkpt>
      <trkpt lat="44.97302" lon="4.59641">
        <ele>528.99</ele>
        <time>2022-03-22T18:09:48Z</time>
      </trkpt>
      <trkpt lat="44.97298" lon="4.59613">
        <ele>525.98</ele>
        <time>2022-03-22T18:09:50Z</time>
      </trkpt>
      <trkpt lat="44.97296" lon="4.59585">
        <ele>522.81</ele>
        <time>2022-03-22T18:09:52Z</time>
      </trkpt>
      <trkpt lat="44.97301" lon="4.59447">
        <ele>513.94</ele>
        <time>2022-03-22T18:09:54Z</time>
      </trkpt>
      <trkpt lat="44.97311" lon="4.59416">
        <ele>513.36</ele>
        <time>2022-03-22T18:09:56Z</time>
      </trkpt>
      <trkpt lat="44.97319" lon="4.594">
        <ele>513.22</ele>
        <time>2022-03-22T18:09:58Z</time>
      </trkpt>
      <trkpt lat="44.97339" lon="4.5938">
        <ele>516.27</ele>
        <time>2022-03-22T18:10:00Z</time>
      </trkpt>
      <trkpt lat="44.97345" lon="4.59369">
        <ele>516.45</ele>
        <time>2022-03-22T18:10:02Z</time>
      </trkpt>
      <trkpt lat="44.97348" lon="4.59358">
        <ele>515.79</ele>
        <time>2022-03-22T18:10:04Z</time>
      </trkpt>
      <trkpt lat="44.97343" lon="4.59193">
        <ele>504.03</ele>
        <time>2022-03-22T18:10:06Z</time>
      </trkpt>
      <trkpt lat="44.97332" lon="4.59117">
        <ele>498.5</ele>
        <time>2022-03-22T18:10:08Z</time>
      </trkpt>
      <trkpt lat="44.97328" lon="4.59075">
        <ele>497.8</ele>
        <time>2022-03-22T18:10:10Z</time>
      </trkpt>
      <trkpt lat="44.9733" lon="4.59039">
        <ele>495</ele>
        <time>2022-03-22T18:10:12Z</time>
      </trkpt>
      <trkpt lat="44.97357" lon="4.58938">
        <ele>492.83</ele>
        <time>2022-03-22T18:10:14Z</time>
      </trkpt>
      <trkpt lat="44.97359" lon="4.58915">
        <ele>491.17</ele>
        <time>2022-03-22T18:10:16Z</time>
      </trkpt>
      <trkpt lat="44.97358" lon="4.58808">
        <ele>486.89</ele>
        <time>2022-03-22T18:10:18Z</time>
      </trkpt>
      <trkpt lat="44.97355" lon="4.5874">
        <ele>482.77</ele>
        <time>2022-03-22T18:10:20Z</time>
      </trkpt>
      <trkpt lat="44.97356" lon="4.58711">
        <ele>481.11</ele>
        <time>2022-03-22T18:10:22Z</time>
      </trkpt>
      <trkpt lat="44.97365" lon="4.58644">
        <ele>476.8</ele>
        <time>2022-03-22T18:10:24Z</time>
      </trkpt>
      <trkpt lat="44.97369" lon="4.58631">
        <ele>475.49</ele>
        <time>2022-03-22T18:10:26Z</time>
      </trkpt>
      <trkpt lat="44.97377" lon="4.58623">
        <ele>474.49</ele>
        <time>2022-03-22T18:10:28Z</time>
      </trkpt>
      <trkpt lat="44.97385" lon="4.58622">
        <ele>474.14</ele>
        <time>2022-03-22T18:10:30Z</time>
      </trkpt>
      <trkpt lat="44.97393" lon="4.58628">
        <ele>474.48</ele>
        <time>2022-03-22T18:10:32Z</time>
      </trkpt>
      <trkpt lat="44.97409" lon="4.58653">
        <ele>478.84</ele>
        <time>2022-03-22T18:10:34Z</time>
      </trkpt>
      <trkpt lat="44.97418" lon="4.58661">
        <ele>480.61</ele>
        <time>2022-03-22T18:10:36Z</time>
      </trkpt>
      <trkpt lat="44.97426" lon="4.58665">
        <ele>480.5</ele>
        <time>2022-03-22T18:10:38Z</time>
      </trkpt>
      <trkpt lat="44.97459" lon="4.58668">
        <ele>477.58</ele>
        <time>2022-03-22T18:10:40Z</time>
      </trkpt>
      <trkpt lat="44.97505" lon="4.58687">
        <ele>478.76</ele>
        <time>2022-03-22T18:10:42Z</time>
      </trkpt>
      <trkpt lat="44.97512" lon="4.58695">
        <ele>479.31</ele>
        <time>2022-03-22T18:10:44Z</time>
      </trkpt>
      <trkpt lat="44.97539" lon="4.58754">
        <ele>478</ele>
        <time>2022-03-22T18:10:46Z</time>
      </trkpt>
      <trkpt lat="44.97548" lon="4.58762">
        <ele>475.26</ele>
        <time>2022-03-22T18:10:48Z</time>
      </trkpt>
      <trkpt lat="44.97561" lon="4.58769">
        <ele>472.41</ele>
        <time>2022-03-22T18:10:50Z</time>
      </trkpt>
      <trkpt lat="44.97566" lon="4.58768">
        <ele>471.47</ele>
        <time>2022-03-22T18:10:52Z</time>
      </trkpt>
      <trkpt lat="44.97576" lon="4.58762">
        <ele>468.49</ele>
        <time>2022-03-22T18:10:54Z</time>
      </trkpt>
      <trkpt lat="44.97604" lon="4.58719">
        <ele>462.32</ele>
        <time>2022-03-22T18:10:55Z</time>
      </trkpt>
      <trkpt lat="44.97623" lon="4.58708">
        <ele>461.56</ele>
        <time>2022-03-22T18:10:57Z</time>
      </trkpt>
      <trkpt lat="44.97674" lon="4.58692">
        <ele>456.65</ele>
        <time>2022-03-22T18:10:59Z</time>
      </trkpt>
      <trkpt lat="44.97695" lon="4.58693">
        <ele>456.75</ele>
        <time>2022-03-22T18:11:01Z</time>
      </trkpt>
      <trkpt lat="44.97728" lon="4.58704">
        <ele>464.51</ele>
        <time>2022-03-22T18:11:03Z</time>
      </trkpt>
      <trkpt lat="44.97747" lon="4.58702">
        <ele>466.4</ele>
        <time>2022-03-22T18:11:05Z</time>
      </trkpt>
      <trkpt lat="44.97755" lon="4.58694">
        <ele>466.61</ele>
        <time>2022-03-22T18:11:07Z</time>
      </trkpt>
      <trkpt lat="44.97762" lon="4.58683">
        <ele>465.6</ele>
        <time>2022-03-22T18:11:09Z</time>
      </trkpt>
      <trkpt lat="44.97785" lon="4.58631">
        <ele>466.64</ele>
        <time>2022-03-22T18:11:11Z</time>
      </trkpt>
      <trkpt lat="44.97801" lon="4.58589">
        <ele>464.47</ele>
        <time>2022-03-22T18:11:13Z</time>
      </trkpt>
      <trkpt lat="44.97807" lon="4.58561">
        <ele>457.94</ele>
        <time>2022-03-22T18:11:15Z</time>
      </trkpt>
      <trkpt lat="44.97809" lon="4.58539">
        <ele>453.58</ele>
        <time>2022-03-22T18:11:17Z</time>
      </trkpt>
      <trkpt lat="44.97808" lon="4.58515">
        <ele>448.85</ele>
        <time>2022-03-22T18:11:19Z</time>
      </trkpt>
      <trkpt lat="44.97809" lon="4.58494">
        <ele>445.56</ele>
        <time>2022-03-22T18:11:21Z</time>
      </trkpt>
      <trkpt lat="44.97815" lon="4.58483">
        <ele>444.14</ele>
        <time>2022-03-22T18:11:23Z</time>
      </trkpt>
      <trkpt lat="44.97822" lon="4.58474">
        <ele>442.7</ele>
        <time>2022-03-22T18:11:25Z</time>
      </trkpt>
      <trkpt lat="44.97833" lon="4.58471">
        <ele>441.82</ele>
        <time>2022-03-22T18:11:27Z</time>
      </trkpt>
      <trkpt lat="44.97846" lon="4.58473">
        <ele>442.09</ele>
        <time>2022-03-22T18:11:29Z</time>
      </trkpt>
      <trkpt lat="44.97877" lon="4.58487">
        <ele>446.42</ele>
        <time>2022-03-22T18:11:31Z</time>
      </trkpt>
      <trkpt lat="44.97899" lon="4.58487">
        <ele>447.67</ele>
        <time>2022-03-22T18:11:33Z</time>
      </trkpt>
      <trkpt lat="44.9792" lon="4.58479">
        <ele>447.39</ele>
        <time>2022-03-22T18:11:35Z</time>
      </trkpt>
      <trkpt lat="44.9794" lon="4.58458">
        <ele>442.7</ele>
        <time>2022-03-22T18:11:37Z</time>
      </trkpt>
      <trkpt lat="44.97951" lon="4.58425">
        <ele>438.6</ele>
        <time>2022-03-22T18:11:39Z</time>
      </trkpt>
      <trkpt lat="44.97953" lon="4.5838">
        <ele>431.18</ele>
        <time>2022-03-22T18:11:41Z</time>
      </trkpt>
      <trkpt lat="44.97957" lon="4.58354">
        <ele>429.23</ele>
        <time>2022-03-22T18:11:43Z</time>
      </trkpt>
      <trkpt lat="44.97965" lon="4.5833">
        <ele>429.85</ele>
        <time>2022-03-22T18:11:45Z</time>
      </trkpt>
      <trkpt lat="44.97974" lon="4.5832">
        <ele>430.06</ele>
        <time>2022-03-22T18:11:47Z</time>
      </trkpt>
      <trkpt lat="44.97984" lon="4.58313">
        <ele>430.24</ele>
        <time>2022-03-22T18:11:49Z</time>
      </trkpt>
      <trkpt lat="44.9803" lon="4.58301">
        <ele>431.07</ele>
        <time>2022-03-22T18:11:51Z</time>
      </trkpt>
      <trkpt lat="44.98047" lon="4.58283">
        <ele>433.54</ele>
        <time>2022-03-22T18:11:53Z</time>
      </trkpt>
      <trkpt lat="44.9806" lon="4.58249">
        <ele>434.36</ele>
        <time>2022-03-22T18:11:55Z</time>
      </trkpt>
      <trkpt lat="44.9807" lon="4.58189">
        <ele>429.75</ele>
        <time>2022-03-22T18:11:57Z</time>
      </trkpt>
      <trkpt lat="44.98094" lon="4.58106">
        <ele>420.38</ele>
        <time>2022-03-22T18:11:59Z</time>
      </trkpt>
      <trkpt lat="44.98097" lon="4.58071">
        <ele>419.67</ele>
        <time>2022-03-22T18:12:01Z</time>
      </trkpt>
      <trkpt lat="44.98102" lon="4.58059">
        <ele>419.92</ele>
        <time>2022-03-22T18:12:03Z</time>
      </trkpt>
      <trkpt lat="44.98112" lon="4.58052">
        <ele>419.22</ele>
        <time>2022-03-22T18:12:05Z</time>
      </trkpt>
      <trkpt lat="44.98128" lon="4.58044">
        <ele>417.95</ele>
        <time>2022-03-22T18:12:07Z</time>
      </trkpt>
      <trkpt lat="44.98153" lon="4.58023">
        <ele>411.65</ele>
        <time>2022-03-22T18:12:09Z</time>
      </trkpt>
      <trkpt lat="44.98162" lon="4.58024">
        <ele>409.86</ele>
        <time>2022-03-22T18:12:11Z</time>
      </trkpt>
      <trkpt lat="44.98191" lon="4.58055">
        <ele>409.75</ele>
        <time>2022-03-22T18:12:13Z</time>
      </trkpt>
      <trkpt lat="44.98231" lon="4.58079">
        <ele>408.05</ele>
        <time>2022-03-22T18:12:15Z</time>
      </trkpt>
      <trkpt lat="44.98267" lon="4.58076">
        <ele>398.39</ele>
        <time>2022-03-22T18:12:17Z</time>
      </trkpt>
      <trkpt lat="44.98291" lon="4.58077">
        <ele>394.71</ele>
        <time>2022-03-22T18:12:19Z</time>
      </trkpt>
      <trkpt lat="44.98316" lon="4.58105">
        <ele>398.89</ele>
        <time>2022-03-22T18:12:21Z</time>
      </trkpt>
      <trkpt lat="44.98361" lon="4.58135">
        <ele>394.58</ele>
        <time>2022-03-22T18:12:23Z</time>
      </trkpt>
      <trkpt lat="44.98376" lon="4.5815">
        <ele>394.57</ele>
        <time>2022-03-22T18:12:25Z</time>
      </trkpt>
      <trkpt lat="44.98503" lon="4.58225">
        <ele>391.27</ele>
        <time>2022-03-22T18:12:27Z</time>
      </trkpt>
      <trkpt lat="44.98539" lon="4.58219">
        <ele>385.41</ele>
        <time>2022-03-22T18:12:29Z</time>
      </trkpt>
      <trkpt lat="44.9855" lon="4.58209">
        <ele>383.08</ele>
        <time>2022-03-22T18:12:31Z</time>
      </trkpt>
      <trkpt lat="44.98557" lon="4.58193">
        <ele>380.93</ele>
        <time>2022-03-22T18:12:33Z</time>
      </trkpt>
      <trkpt lat="44.98565" lon="4.582">
        <ele>381.51</ele>
        <time>2022-03-22T18:12:37Z</time>
      </trkpt>
      <trkpt lat="44.98608" lon="4.58216">
        <ele>381.88</ele>
        <time>2022-03-22T18:12:41Z</time>
      </trkpt>
      <trkpt lat="44.98642" lon="4.58228">
        <ele>381.08</ele>
        <time>2022-03-22T18:12:45Z</time>
      </trkpt>
      <trkpt lat="44.98655" lon="4.58256">
        <ele>381.62</ele>
        <time>2022-03-22T18:12:49Z</time>
      </trkpt>
      <trkpt lat="44.98676" lon="4.58308">
        <ele>380.71</ele>
        <time>2022-03-22T18:12:53Z</time>
      </trkpt>
      <trkpt lat="44.98698" lon="4.58296">
        <ele>377.13</ele>
        <time>2022-03-22T18:12:55Z</time>
      </trkpt>
      <trkpt lat="44.98703" lon="4.58296">
        <ele>376.54</ele>
        <time>2022-03-22T18:12:57Z</time>
      </trkpt>
      <trkpt lat="44.98706" lon="4.58302">
        <ele>376.21</ele>
        <time>2022-03-22T18:12:58Z</time>
      </trkpt>
      <trkpt lat="44.98708" lon="4.58309">
        <ele>376.73</ele>
        <time>2022-03-22T18:12:58Z</time>
      </trkpt>
      <trkpt lat="44.98708" lon="4.58309">
        <ele>376.73</ele>
        <time>2022-03-22T18:12:58Z</time>
      </trkpt>
      <trkpt lat="44.98706" lon="4.58302">
        <ele>376.21</ele>
        <time>2022-03-22T18:12:59Z</time>
      </trkpt>
      <trkpt lat="44.98703" lon="4.58296">
        <ele>376.54</ele>
        <time>2022-03-22T18:13:00Z</time>
      </trkpt>
      <trkpt lat="44.98703" lon="4.58268">
        <ele>375.92</ele>
        <time>2022-03-22T18:13:05Z</time>
      </trkpt>
      <trkpt lat="44.98673" lon="4.58136">
        <ele>374.65</ele>
        <time>2022-03-22T18:13:11Z</time>
      </trkpt>
      <trkpt lat="44.9865" lon="4.58088">
        <ele>373.61</ele>
        <time>2022-03-22T18:13:16Z</time>
      </trkpt>
      <trkpt lat="44.98631" lon="4.58051">
        <ele>375.74</ele>
        <time>2022-03-22T18:13:22Z</time>
      </trkpt>
      <trkpt lat="44.98612" lon="4.58009">
        <ele>377.3</ele>
        <time>2022-03-22T18:13:28Z</time>
      </trkpt>
      <trkpt lat="44.98646" lon="4.58016">
        <ele>375.06</ele>
        <time>2022-03-22T18:13:31Z</time>
      </trkpt>
      <trkpt lat="44.98697" lon="4.5799">
        <ele>373.03</ele>
        <time>2022-03-22T18:13:35Z</time>
      </trkpt>
      <trkpt lat="44.98701" lon="4.5798">
        <ele>373.18</ele>
        <time>2022-03-22T18:13:38Z</time>
      </trkpt>
      <trkpt lat="44.98702" lon="4.57918">
        <ele>373.95</ele>
        <time>2022-03-22T18:13:42Z</time>
      </trkpt>
      <trkpt lat="44.98703" lon="4.57869">
        <ele>373.72</ele>
        <time>2022-03-22T18:13:46Z</time>
      </trkpt>
      <trkpt lat="44.98699" lon="4.57863">
        <ele>373.92</ele>
        <time>2022-03-22T18:13:47Z</time>
      </trkpt>
      <trkpt lat="44.98684" lon="4.57862">
        <ele>373.99</ele>
        <time>2022-03-22T18:13:47Z</time>
      </trkpt>
      <trkpt lat="44.98679" lon="4.57855">
        <ele>374</ele>
        <time>2022-03-22T18:13:48Z</time>
      </trkpt>
      <trkpt lat="44.9868" lon="4.57849">
        <ele>374</ele>
        <time>2022-03-22T18:13:49Z</time>
      </trkpt>
      <trkpt lat="44.987" lon="4.57834">
        <ele>374.19</ele>
        <time>2022-03-22T18:13:51Z</time>
      </trkpt>
      <trkpt lat="44.98797" lon="4.57762">
        <ele>373.48</ele>
        <time>2022-03-22T18:13:53Z</time>
      </trkpt>
      <trkpt lat="44.98801" lon="4.5775">
        <ele>373.7</ele>
        <time>2022-03-22T18:13:56Z</time>
      </trkpt>
      <trkpt lat="44.98803" lon="4.57732">
        <ele>374.96</ele>
        <time>2022-03-22T18:13:58Z</time>
      </trkpt>
      <trkpt lat="44.98727" lon="4.57395">
        <ele>393.01</ele>
        <time>2022-03-22T18:14:00Z</time>
      </trkpt>
      <trkpt lat="44.9871" lon="4.5733">
        <ele>397.19</ele>
        <time>2022-03-22T18:14:02Z</time>
      </trkpt>
      <trkpt lat="44.98681" lon="4.5726">
        <ele>401.8</ele>
        <time>2022-03-22T18:14:04Z</time>
      </trkpt>
      <trkpt lat="44.98666" lon="4.5724">
        <ele>403.65</ele>
        <time>2022-03-22T18:14:07Z</time>
      </trkpt>
      <trkpt lat="44.98609" lon="4.57204">
        <ele>395.44</ele>
        <time>2022-03-22T18:14:09Z</time>
      </trkpt>
      <trkpt lat="44.986" lon="4.57188">
        <ele>394.74</ele>
        <time>2022-03-22T18:14:11Z</time>
      </trkpt>
      <trkpt lat="44.98598" lon="4.57151">
        <ele>397.45</ele>
        <time>2022-03-22T18:14:13Z</time>
      </trkpt>
      <trkpt lat="44.98604" lon="4.57124">
        <ele>400.14</ele>
        <time>2022-03-22T18:14:16Z</time>
      </trkpt>
      <trkpt lat="44.98616" lon="4.57111">
        <ele>404.31</ele>
        <time>2022-03-22T18:14:18Z</time>
      </trkpt>
      <trkpt lat="44.9863" lon="4.57108">
        <ele>407.47</ele>
        <time>2022-03-22T18:14:20Z</time>
      </trkpt>
      <trkpt lat="44.98684" lon="4.5714">
        <ele>416.93</ele>
        <time>2022-03-22T18:14:22Z</time>
      </trkpt>
      <trkpt lat="44.98711" lon="4.57145">
        <ele>417.27</ele>
        <time>2022-03-22T18:14:25Z</time>
      </trkpt>
      <trkpt lat="44.98776" lon="4.5716">
        <ele>420.9</ele>
        <time>2022-03-22T18:14:27Z</time>
      </trkpt>
      <trkpt lat="44.98794" lon="4.57146">
        <ele>423.85</ele>
        <time>2022-03-22T18:14:29Z</time>
      </trkpt>
      <trkpt lat="44.98799" lon="4.57127">
        <ele>425.08</ele>
        <time>2022-03-22T18:14:31Z</time>
      </trkpt>
      <trkpt lat="44.98804" lon="4.57047">
        <ele>427.01</ele>
        <time>2022-03-22T18:14:33Z</time>
      </trkpt>
      <trkpt lat="44.98815" lon="4.57018">
        <ele>431.34</ele>
        <time>2022-03-22T18:14:36Z</time>
      </trkpt>
      <trkpt lat="44.98908" lon="4.56887">
        <ele>441.91</ele>
        <time>2022-03-22T18:14:38Z</time>
      </trkpt>
      <trkpt lat="44.9893" lon="4.56865">
        <ele>442.5</ele>
        <time>2022-03-22T18:14:40Z</time>
      </trkpt>
      <trkpt lat="44.98951" lon="4.56859">
        <ele>444.35</ele>
        <time>2022-03-22T18:14:42Z</time>
      </trkpt>
      <trkpt lat="44.99004" lon="4.56859">
        <ele>450.76</ele>
        <time>2022-03-22T18:14:45Z</time>
      </trkpt>
      <trkpt lat="44.99051" lon="4.56866">
        <ele>452.7</ele>
        <time>2022-03-22T18:14:47Z</time>
      </trkpt>
      <trkpt lat="44.99093" lon="4.56871">
        <ele>457.5</ele>
        <time>2022-03-22T18:14:49Z</time>
      </trkpt>
      <trkpt lat="44.991" lon="4.56868">
        <ele>458.29</ele>
        <time>2022-03-22T18:14:51Z</time>
      </trkpt>
      <trkpt lat="44.99104" lon="4.5686">
        <ele>458.73</ele>
        <time>2022-03-22T18:14:53Z</time>
      </trkpt>
      <trkpt lat="44.99107" lon="4.56855">
        <ele>459.26</ele>
        <time>2022-03-22T18:14:56Z</time>
      </trkpt>
      <trkpt lat="44.99109" lon="4.56837">
        <ele>459.68</ele>
        <time>2022-03-22T18:14:58Z</time>
      </trkpt>
      <trkpt lat="44.99108" lon="4.56808">
        <ele>460.26</ele>
        <time>2022-03-22T18:15:00Z</time>
      </trkpt>
      <trkpt lat="44.99112" lon="4.56792">
        <ele>461.09</ele>
        <time>2022-03-22T18:15:02Z</time>
      </trkpt>
      <trkpt lat="44.99127" lon="4.56787">
        <ele>462.35</ele>
        <time>2022-03-22T18:15:05Z</time>
      </trkpt>
      <trkpt lat="44.99152" lon="4.5679">
        <ele>462.83</ele>
        <time>2022-03-22T18:15:07Z</time>
      </trkpt>
      <trkpt lat="44.99173" lon="4.56798">
        <ele>463.49</ele>
        <time>2022-03-22T18:15:09Z</time>
      </trkpt>
      <trkpt lat="44.99199" lon="4.56812">
        <ele>465.29</ele>
        <time>2022-03-22T18:15:11Z</time>
      </trkpt>
      <trkpt lat="44.99217" lon="4.56817">
        <ele>467.64</ele>
        <time>2022-03-22T18:15:14Z</time>
      </trkpt>
      <trkpt lat="44.99256" lon="4.56817">
        <ele>475.04</ele>
        <time>2022-03-22T18:15:16Z</time>
      </trkpt>
      <trkpt lat="44.9927" lon="4.56811">
        <ele>478.21</ele>
        <time>2022-03-22T18:15:18Z</time>
      </trkpt>
      <trkpt lat="44.99282" lon="4.56798">
        <ele>479.16</ele>
        <time>2022-03-22T18:15:20Z</time>
      </trkpt>
      <trkpt lat="44.99318" lon="4.56737">
        <ele>473.1</ele>
        <time>2022-03-22T18:15:22Z</time>
      </trkpt>
      <trkpt lat="44.99332" lon="4.56722">
        <ele>472.37</ele>
        <time>2022-03-22T18:15:25Z</time>
      </trkpt>
      <trkpt lat="44.99349" lon="4.56715">
        <ele>476.46</ele>
        <time>2022-03-22T18:15:27Z</time>
      </trkpt>
      <trkpt lat="44.99396" lon="4.5672">
        <ele>491.3</ele>
        <time>2022-03-22T18:15:29Z</time>
      </trkpt>
      <trkpt lat="44.99412" lon="4.56706">
        <ele>492.49</ele>
        <time>2022-03-22T18:15:31Z</time>
      </trkpt>
      <trkpt lat="44.99421" lon="4.56682">
        <ele>489.21</ele>
        <time>2022-03-22T18:15:34Z</time>
      </trkpt>
      <trkpt lat="44.99429" lon="4.56628">
        <ele>482.26</ele>
        <time>2022-03-22T18:15:36Z</time>
      </trkpt>
      <trkpt lat="44.99439" lon="4.56615">
        <ele>483.8</ele>
        <time>2022-03-22T18:15:38Z</time>
      </trkpt>
      <trkpt lat="44.99452" lon="4.56612">
        <ele>486.27</ele>
        <time>2022-03-22T18:15:40Z</time>
      </trkpt>
      <trkpt lat="44.99506" lon="4.56631">
        <ele>499.87</ele>
        <time>2022-03-22T18:15:42Z</time>
      </trkpt>
      <trkpt lat="44.9952" lon="4.56633">
        <ele>501.79</ele>
        <time>2022-03-22T18:15:45Z</time>
      </trkpt>
      <trkpt lat="44.99536" lon="4.5663">
        <ele>502.19</ele>
        <time>2022-03-22T18:15:47Z</time>
      </trkpt>
      <trkpt lat="44.99549" lon="4.56632">
        <ele>503.16</ele>
        <time>2022-03-22T18:15:49Z</time>
      </trkpt>
      <trkpt lat="44.99562" lon="4.56644">
        <ele>506.11</ele>
        <time>2022-03-22T18:15:51Z</time>
      </trkpt>
      <trkpt lat="44.99571" lon="4.56665">
        <ele>508.2</ele>
        <time>2022-03-22T18:15:54Z</time>
      </trkpt>
      <trkpt lat="44.99584" lon="4.56679">
        <ele>508.81</ele>
        <time>2022-03-22T18:15:56Z</time>
      </trkpt>
      <trkpt lat="44.99593" lon="4.56683">
        <ele>510.5</ele>
        <time>2022-03-22T18:15:58Z</time>
      </trkpt>
      <trkpt lat="44.99601" lon="4.5668">
        <ele>511.48</ele>
        <time>2022-03-22T18:16:00Z</time>
      </trkpt>
      <trkpt lat="44.99609" lon="4.56669">
        <ele>512.5</ele>
        <time>2022-03-22T18:16:03Z</time>
      </trkpt>
      <trkpt lat="44.99623" lon="4.56556">
        <ele>514.51</ele>
        <time>2022-03-22T18:16:05Z</time>
      </trkpt>
      <trkpt lat="44.99621" lon="4.5653">
        <ele>517.74</ele>
        <time>2022-03-22T18:16:07Z</time>
      </trkpt>
      <trkpt lat="44.99604" lon="4.56497">
        <ele>514.18</ele>
        <time>2022-03-22T18:16:09Z</time>
      </trkpt>
      <trkpt lat="44.99601" lon="4.56482">
        <ele>515</ele>
        <time>2022-03-22T18:16:11Z</time>
      </trkpt>
      <trkpt lat="44.99603" lon="4.56466">
        <ele>516.83</ele>
        <time>2022-03-22T18:16:14Z</time>
      </trkpt>
      <trkpt lat="44.99608" lon="4.56455">
        <ele>517.7</ele>
        <time>2022-03-22T18:16:16Z</time>
      </trkpt>
      <trkpt lat="44.99615" lon="4.56446">
        <ele>519.43</ele>
        <time>2022-03-22T18:16:18Z</time>
      </trkpt>
      <trkpt lat="44.99628" lon="4.56437">
        <ele>520.97</ele>
        <time>2022-03-22T18:16:20Z</time>
      </trkpt>
      <trkpt lat="44.99647" lon="4.56433">
        <ele>523</ele>
        <time>2022-03-22T18:16:23Z</time>
      </trkpt>
      <trkpt lat="44.99667" lon="4.56433">
        <ele>524.23</ele>
        <time>2022-03-22T18:16:25Z</time>
      </trkpt>
      <trkpt lat="44.99683" lon="4.56438">
        <ele>525.63</ele>
        <time>2022-03-22T18:16:27Z</time>
      </trkpt>
      <trkpt lat="44.99747" lon="4.56479">
        <ele>536.72</ele>
        <time>2022-03-22T18:16:29Z</time>
      </trkpt>
      <trkpt lat="44.99765" lon="4.56496">
        <ele>535.53</ele>
        <time>2022-03-22T18:16:31Z</time>
      </trkpt>
      <trkpt lat="44.99775" lon="4.5652">
        <ele>537.14</ele>
        <time>2022-03-22T18:16:34Z</time>
      </trkpt>
      <trkpt lat="44.99782" lon="4.56529">
        <ele>537.89</ele>
        <time>2022-03-22T18:16:36Z</time>
      </trkpt>
      <trkpt lat="44.99797" lon="4.56541">
        <ele>539.9</ele>
        <time>2022-03-22T18:16:38Z</time>
      </trkpt>
      <trkpt lat="44.99817" lon="4.56563">
        <ele>543.62</ele>
        <time>2022-03-22T18:16:40Z</time>
      </trkpt>
      <trkpt lat="44.9989" lon="4.56662">
        <ele>554.74</ele>
        <time>2022-03-22T18:16:43Z</time>
      </trkpt>
      <trkpt lat="44.99902" lon="4.5667">
        <ele>555.14</ele>
        <time>2022-03-22T18:16:45Z</time>
      </trkpt>
      <trkpt lat="44.99919" lon="4.56672">
        <ele>553.5</ele>
        <time>2022-03-22T18:16:47Z</time>
      </trkpt>
      <trkpt lat="44.99936" lon="4.56678">
        <ele>552.52</ele>
        <time>2022-03-22T18:16:49Z</time>
      </trkpt>
      <trkpt lat="44.99948" lon="4.5669">
        <ele>553.35</ele>
        <time>2022-03-22T18:16:52Z</time>
      </trkpt>
      <trkpt lat="44.99972" lon="4.56743">
        <ele>561.65</ele>
        <time>2022-03-22T18:16:54Z</time>
      </trkpt>
      <trkpt lat="44.99983" lon="4.56752">
        <ele>564.45</ele>
        <time>2022-03-22T18:16:56Z</time>
      </trkpt>
      <trkpt lat="44.99993" lon="4.56753">
        <ele>565.52</ele>
        <time>2022-03-22T18:16:58Z</time>
      </trkpt>
      <trkpt lat="45.00002" lon="4.56749">
        <ele>565.27</ele>
        <time>2022-03-22T18:17:00Z</time>
      </trkpt>
      <trkpt lat="45.00031" lon="4.56715">
        <ele>562.06</ele>
        <time>2022-03-22T18:17:03Z</time>
      </trkpt>
      <trkpt lat="45.00046" lon="4.56708">
        <ele>564.09</ele>
        <time>2022-03-22T18:17:05Z</time>
      </trkpt>
      <trkpt lat="45.00083" lon="4.56703">
        <ele>569.32</ele>
        <time>2022-03-22T18:17:07Z</time>
      </trkpt>
      <trkpt lat="45.00094" lon="4.56699">
        <ele>571.48</ele>
        <time>2022-03-22T18:17:09Z</time>
      </trkpt>
      <trkpt lat="45.00101" lon="4.56688">
        <ele>572.45</ele>
        <time>2022-03-22T18:17:12Z</time>
      </trkpt>
      <trkpt lat="45.00105" lon="4.56672">
        <ele>572.67</ele>
        <time>2022-03-22T18:17:14Z</time>
      </trkpt>
      <trkpt lat="45.00102" lon="4.5665">
        <ele>572.27</ele>
        <time>2022-03-22T18:17:16Z</time>
      </trkpt>
      <trkpt lat="45.00082" lon="4.56593">
        <ele>571.51</ele>
        <time>2022-03-22T18:17:18Z</time>
      </trkpt>
      <trkpt lat="45.00077" lon="4.56563">
        <ele>571.43</ele>
        <time>2022-03-22T18:17:21Z</time>
      </trkpt>
      <trkpt lat="45.0008" lon="4.56523">
        <ele>573.78</ele>
        <time>2022-03-22T18:17:23Z</time>
      </trkpt>
      <trkpt lat="45.00095" lon="4.56491">
        <ele>577.49</ele>
        <time>2022-03-22T18:17:25Z</time>
      </trkpt>
      <trkpt lat="45.00113" lon="4.56478">
        <ele>581.49</ele>
        <time>2022-03-22T18:17:27Z</time>
      </trkpt>
      <trkpt lat="45.00166" lon="4.56457">
        <ele>590.12</ele>
        <time>2022-03-22T18:17:29Z</time>
      </trkpt>
      <trkpt lat="45.00184" lon="4.56455">
        <ele>589.7</ele>
        <time>2022-03-22T18:17:32Z</time>
      </trkpt>
      <trkpt lat="45.00194" lon="4.56459">
        <ele>590.6</ele>
        <time>2022-03-22T18:17:34Z</time>
      </trkpt>
      <trkpt lat="45.00214" lon="4.56473">
        <ele>592</ele>
        <time>2022-03-22T18:17:36Z</time>
      </trkpt>
      <trkpt lat="45.00233" lon="4.56476">
        <ele>593.82</ele>
        <time>2022-03-22T18:17:38Z</time>
      </trkpt>
      <trkpt lat="45.0025" lon="4.56475">
        <ele>594.91</ele>
        <time>2022-03-22T18:17:41Z</time>
      </trkpt>
      <trkpt lat="45.00271" lon="4.56462">
        <ele>598.05</ele>
        <time>2022-03-22T18:17:43Z</time>
      </trkpt>
      <trkpt lat="45.00288" lon="4.56444">
        <ele>599.86</ele>
        <time>2022-03-22T18:17:45Z</time>
      </trkpt>
      <trkpt lat="45.00295" lon="4.56431">
        <ele>601.71</ele>
        <time>2022-03-22T18:17:47Z</time>
      </trkpt>
      <trkpt lat="45.00298" lon="4.56415">
        <ele>601.77</ele>
        <time>2022-03-22T18:17:49Z</time>
      </trkpt>
      <trkpt lat="45.00291" lon="4.56388">
        <ele>602.55</ele>
        <time>2022-03-22T18:17:52Z</time>
      </trkpt>
      <trkpt lat="45.00271" lon="4.56344">
        <ele>603.81</ele>
        <time>2022-03-22T18:17:54Z</time>
      </trkpt>
      <trkpt lat="45.0024" lon="4.56264">
        <ele>611.18</ele>
        <time>2022-03-22T18:17:56Z</time>
      </trkpt>
      <trkpt lat="45.00228" lon="4.56241">
        <ele>611.73</ele>
        <time>2022-03-22T18:17:58Z</time>
      </trkpt>
      <trkpt lat="45.00218" lon="4.56213">
        <ele>616.35</ele>
        <time>2022-03-22T18:18:01Z</time>
      </trkpt>
      <trkpt lat="45.00199" lon="4.56147">
        <ele>620.87</ele>
        <time>2022-03-22T18:18:03Z</time>
      </trkpt>
      <trkpt lat="45.0019" lon="4.56126">
        <ele>621.13</ele>
        <time>2022-03-22T18:18:05Z</time>
      </trkpt>
      <trkpt lat="45.00176" lon="4.56107">
        <ele>619.34</ele>
        <time>2022-03-22T18:18:07Z</time>
      </trkpt>
      <trkpt lat="45.0017" lon="4.56095">
        <ele>618.52</ele>
        <time>2022-03-22T18:18:10Z</time>
      </trkpt>
      <trkpt lat="45.00167" lon="4.56078">
        <ele>619.83</ele>
        <time>2022-03-22T18:18:12Z</time>
      </trkpt>
      <trkpt lat="45.00168" lon="4.56027">
        <ele>625.31</ele>
        <time>2022-03-22T18:18:14Z</time>
      </trkpt>
      <trkpt lat="45.00162" lon="4.55937">
        <ele>631.41</ele>
        <time>2022-03-22T18:18:16Z</time>
      </trkpt>
      <trkpt lat="45.00164" lon="4.55909">
        <ele>635.56</ele>
        <time>2022-03-22T18:18:18Z</time>
      </trkpt>
      <trkpt lat="45.0017" lon="4.55877">
        <ele>639.68</ele>
        <time>2022-03-22T18:18:21Z</time>
      </trkpt>
      <trkpt lat="45.00179" lon="4.55855">
        <ele>641.99</ele>
        <time>2022-03-22T18:18:23Z</time>
      </trkpt>
      <trkpt lat="45.00213" lon="4.55785">
        <ele>643.66</ele>
        <time>2022-03-22T18:18:25Z</time>
      </trkpt>
      <trkpt lat="45.00226" lon="4.55768">
        <ele>643.61</ele>
        <time>2022-03-22T18:18:27Z</time>
      </trkpt>
      <trkpt lat="45.00239" lon="4.55754">
        <ele>644.57</ele>
        <time>2022-03-22T18:18:30Z</time>
      </trkpt>
      <trkpt lat="45.00259" lon="4.55747">
        <ele>646.22</ele>
        <time>2022-03-22T18:18:32Z</time>
      </trkpt>
      <trkpt lat="45.00291" lon="4.55749">
        <ele>648.82</ele>
        <time>2022-03-22T18:18:34Z</time>
      </trkpt>
      <trkpt lat="45.00321" lon="4.55755">
        <ele>653.38</ele>
        <time>2022-03-22T18:18:36Z</time>
      </trkpt>
      <trkpt lat="45.00346" lon="4.55755">
        <ele>656.71</ele>
        <time>2022-03-22T18:18:38Z</time>
      </trkpt>
      <trkpt lat="45.00378" lon="4.55743">
        <ele>657.09</ele>
        <time>2022-03-22T18:18:41Z</time>
      </trkpt>
      <trkpt lat="45.00397" lon="4.55741">
        <ele>657.15</ele>
        <time>2022-03-22T18:18:43Z</time>
      </trkpt>
      <trkpt lat="45.00419" lon="4.55742">
        <ele>657.91</ele>
        <time>2022-03-22T18:18:45Z</time>
      </trkpt>
      <trkpt lat="45.0044" lon="4.55749">
        <ele>659.71</ele>
        <time>2022-03-22T18:18:47Z</time>
      </trkpt>
      <trkpt lat="45.0046" lon="4.55759">
        <ele>662.77</ele>
        <time>2022-03-22T18:18:50Z</time>
      </trkpt>
      <trkpt lat="45.00563" lon="4.55841">
        <ele>671.93</ele>
        <time>2022-03-22T18:18:52Z</time>
      </trkpt>
      <trkpt lat="45.00583" lon="4.55864">
        <ele>673.64</ele>
        <time>2022-03-22T18:18:54Z</time>
      </trkpt>
      <trkpt lat="45.00593" lon="4.55882">
        <ele>675.34</ele>
        <time>2022-03-22T18:18:56Z</time>
      </trkpt>
      <trkpt lat="45.00601" lon="4.55901">
        <ele>675.78</ele>
        <time>2022-03-22T18:18:59Z</time>
      </trkpt>
      <trkpt lat="45.00607" lon="4.55926">
        <ele>675.95</ele>
        <time>2022-03-22T18:19:01Z</time>
      </trkpt>
      <trkpt lat="45.00616" lon="4.55945">
        <ele>675.31</ele>
        <time>2022-03-22T18:19:03Z</time>
      </trkpt>
      <trkpt lat="45.00636" lon="4.55982">
        <ele>676.99</ele>
        <time>2022-03-22T18:19:05Z</time>
      </trkpt>
      <trkpt lat="45.0065" lon="4.56017">
        <ele>681.85</ele>
        <time>2022-03-22T18:19:07Z</time>
      </trkpt>
      <trkpt lat="45.00662" lon="4.56056">
        <ele>686.26</ele>
        <time>2022-03-22T18:19:10Z</time>
      </trkpt>
      <trkpt lat="45.00667" lon="4.56096">
        <ele>688.22</ele>
        <time>2022-03-22T18:19:12Z</time>
      </trkpt>
      <trkpt lat="45.00673" lon="4.56114">
        <ele>688.76</ele>
        <time>2022-03-22T18:19:14Z</time>
      </trkpt>
      <trkpt lat="45.00684" lon="4.5613">
        <ele>689.12</ele>
        <time>2022-03-22T18:19:16Z</time>
      </trkpt>
      <trkpt lat="45.00704" lon="4.56143">
        <ele>687.55</ele>
        <time>2022-03-22T18:19:19Z</time>
      </trkpt>
      <trkpt lat="45.00731" lon="4.56164">
        <ele>689.86</ele>
        <time>2022-03-22T18:19:21Z</time>
      </trkpt>
      <trkpt lat="45.00774" lon="4.56225">
        <ele>694.89</ele>
        <time>2022-03-22T18:19:23Z</time>
      </trkpt>
      <trkpt lat="45.00821" lon="4.56264">
        <ele>698.27</ele>
        <time>2022-03-22T18:19:25Z</time>
      </trkpt>
      <trkpt lat="45.00833" lon="4.5627">
        <ele>698.48</ele>
        <time>2022-03-22T18:19:28Z</time>
      </trkpt>
      <trkpt lat="45.00847" lon="4.56274">
        <ele>698.84</ele>
        <time>2022-03-22T18:19:30Z</time>
      </trkpt>
      <trkpt lat="45.00858" lon="4.56272">
        <ele>698.37</ele>
        <time>2022-03-22T18:19:32Z</time>
      </trkpt>
      <trkpt lat="45.00866" lon="4.5626">
        <ele>697.91</ele>
        <time>2022-03-22T18:19:34Z</time>
      </trkpt>
      <trkpt lat="45.00872" lon="4.56235">
        <ele>696.94</ele>
        <time>2022-03-22T18:19:36Z</time>
      </trkpt>
      <trkpt lat="45.00876" lon="4.56174">
        <ele>697.96</ele>
        <time>2022-03-22T18:19:39Z</time>
      </trkpt>
      <trkpt lat="45.00874" lon="4.56141">
        <ele>700.88</ele>
        <time>2022-03-22T18:19:41Z</time>
      </trkpt>
      <trkpt lat="45.00866" lon="4.56077">
        <ele>702.92</ele>
        <time>2022-03-22T18:19:43Z</time>
      </trkpt>
      <trkpt lat="45.00865" lon="4.56035">
        <ele>705.32</ele>
        <time>2022-03-22T18:19:45Z</time>
      </trkpt>
      <trkpt lat="45.00859" lon="4.5601">
        <ele>703.76</ele>
        <time>2022-03-22T18:19:48Z</time>
      </trkpt>
      <trkpt lat="45.00858" lon="4.55985">
        <ele>703.2</ele>
        <time>2022-03-22T18:19:50Z</time>
      </trkpt>
      <trkpt lat="45.00863" lon="4.55953">
        <ele>702.52</ele>
        <time>2022-03-22T18:19:52Z</time>
      </trkpt>
      <trkpt lat="45.00869" lon="4.55934">
        <ele>703.39</ele>
        <time>2022-03-22T18:19:54Z</time>
      </trkpt>
      <trkpt lat="45.00897" lon="4.55889">
        <ele>709.42</ele>
        <time>2022-03-22T18:19:56Z</time>
      </trkpt>
      <trkpt lat="45.00907" lon="4.55864">
        <ele>711.23</ele>
        <time>2022-03-22T18:19:59Z</time>
      </trkpt>
      <trkpt lat="45.00912" lon="4.55842">
        <ele>710.58</ele>
        <time>2022-03-22T18:20:01Z</time>
      </trkpt>
      <trkpt lat="45.00915" lon="4.55817">
        <ele>709.95</ele>
        <time>2022-03-22T18:20:03Z</time>
      </trkpt>
      <trkpt lat="45.00917" lon="4.5576">
        <ele>713.38</ele>
        <time>2022-03-22T18:20:05Z</time>
      </trkpt>
      <trkpt lat="45.00921" lon="4.55733">
        <ele>716.08</ele>
        <time>2022-03-22T18:20:08Z</time>
      </trkpt>
      <trkpt lat="45.00951" lon="4.55611">
        <ele>722.21</ele>
        <time>2022-03-22T18:20:10Z</time>
      </trkpt>
      <trkpt lat="45.00963" lon="4.55575">
        <ele>725.28</ele>
        <time>2022-03-22T18:20:12Z</time>
      </trkpt>
      <trkpt lat="45.00977" lon="4.55541">
        <ele>727.31</ele>
        <time>2022-03-22T18:20:14Z</time>
      </trkpt>
      <trkpt lat="45.01003" lon="4.55496">
        <ele>728.34</ele>
        <time>2022-03-22T18:20:17Z</time>
      </trkpt>
      <trkpt lat="45.01091" lon="4.55381">
        <ele>732.89</ele>
        <time>2022-03-22T18:20:19Z</time>
      </trkpt>
      <trkpt lat="45.01118" lon="4.55332">
        <ele>740.7</ele>
        <time>2022-03-22T18:20:21Z</time>
      </trkpt>
      <trkpt lat="45.0114" lon="4.5528">
        <ele>740</ele>
        <time>2022-03-22T18:20:23Z</time>
      </trkpt>
      <trkpt lat="45.01164" lon="4.55219">
        <ele>739.61</ele>
        <time>2022-03-22T18:20:25Z</time>
      </trkpt>
      <trkpt lat="45.0119" lon="4.55168">
        <ele>744.47</ele>
        <time>2022-03-22T18:20:28Z</time>
      </trkpt>
      <trkpt lat="45.01236" lon="4.55096">
        <ele>746.45</ele>
        <time>2022-03-22T18:20:30Z</time>
      </trkpt>
      <trkpt lat="45.01257" lon="4.55076">
        <ele>748.43</ele>
        <time>2022-03-22T18:20:32Z</time>
      </trkpt>
      <trkpt lat="45.01288" lon="4.55055">
        <ele>749.69</ele>
        <time>2022-03-22T18:20:34Z</time>
      </trkpt>
      <trkpt lat="45.01329" lon="4.55047">
        <ele>751.23</ele>
        <time>2022-03-22T18:20:37Z</time>
      </trkpt>
      <trkpt lat="45.01344" lon="4.55046">
        <ele>751.63</ele>
        <time>2022-03-22T18:20:39Z</time>
      </trkpt>
      <trkpt lat="45.01366" lon="4.55033">
        <ele>753.77</ele>
        <time>2022-03-22T18:20:41Z</time>
      </trkpt>
      <trkpt lat="45.01394" lon="4.55009">
        <ele>759.31</ele>
        <time>2022-03-22T18:20:43Z</time>
      </trkpt>
      <trkpt lat="45.01407" lon="4.55008">
        <ele>760.41</ele>
        <time>2022-03-22T18:20:45Z</time>
      </trkpt>
      <trkpt lat="45.01437" lon="4.55016">
        <ele>759.72</ele>
        <time>2022-03-22T18:20:48Z</time>
      </trkpt>
      <trkpt lat="45.01458" lon="4.55015">
        <ele>760.55</ele>
        <time>2022-03-22T18:20:50Z</time>
      </trkpt>
      <trkpt lat="45.01469" lon="4.55011">
        <ele>762.21</ele>
        <time>2022-03-22T18:20:52Z</time>
      </trkpt>
      <trkpt lat="45.01487" lon="4.54997">
        <ele>764.36</ele>
        <time>2022-03-22T18:20:54Z</time>
      </trkpt>
      <trkpt lat="45.01549" lon="4.54931">
        <ele>770.92</ele>
        <time>2022-03-22T18:20:57Z</time>
      </trkpt>
      <trkpt lat="45.01563" lon="4.54915">
        <ele>772.14</ele>
        <time>2022-03-22T18:20:59Z</time>
      </trkpt>
      <trkpt lat="45.01593" lon="4.54872">
        <ele>782.34</ele>
        <time>2022-03-22T18:21:01Z</time>
      </trkpt>
      <trkpt lat="45.01664" lon="4.54842">
        <ele>784.83</ele>
        <time>2022-03-22T18:21:03Z</time>
      </trkpt>
      <trkpt lat="45.01686" lon="4.54836">
        <ele>789.24</ele>
        <time>2022-03-22T18:21:06Z</time>
      </trkpt>
      <trkpt lat="45.01713" lon="4.54834">
        <ele>797.3</ele>
        <time>2022-03-22T18:21:08Z</time>
      </trkpt>
      <trkpt lat="45.01721" lon="4.54838">
        <ele>799.48</ele>
        <time>2022-03-22T18:21:10Z</time>
      </trkpt>
      <trkpt lat="45.01728" lon="4.54847">
        <ele>799.97</ele>
        <time>2022-03-22T18:21:12Z</time>
      </trkpt>
      <trkpt lat="45.01767" lon="4.54926">
        <ele>802.99</ele>
        <time>2022-03-22T18:21:14Z</time>
      </trkpt>
      <trkpt lat="45.01773" lon="4.54942">
        <ele>804.67</ele>
        <time>2022-03-22T18:21:17Z</time>
      </trkpt>
      <trkpt lat="45.01778" lon="4.5499">
        <ele>805.62</ele>
        <time>2022-03-22T18:21:19Z</time>
      </trkpt>
      <trkpt lat="45.01781" lon="4.55012">
        <ele>804.73</ele>
        <time>2022-03-22T18:21:21Z</time>
      </trkpt>
      <trkpt lat="45.01788" lon="4.55033">
        <ele>803.61</ele>
        <time>2022-03-22T18:21:23Z</time>
      </trkpt>
      <trkpt lat="45.01806" lon="4.5506">
        <ele>805.06</ele>
        <time>2022-03-22T18:21:26Z</time>
      </trkpt>
      <trkpt lat="45.01818" lon="4.55072">
        <ele>805.52</ele>
        <time>2022-03-22T18:21:28Z</time>
      </trkpt>
      <trkpt lat="45.01853" lon="4.55092">
        <ele>811.9</ele>
        <time>2022-03-22T18:21:30Z</time>
      </trkpt>
      <trkpt lat="45.01892" lon="4.55118">
        <ele>816.11</ele>
        <time>2022-03-22T18:21:32Z</time>
      </trkpt>
      <trkpt lat="45.01907" lon="4.55131">
        <ele>817.33</ele>
        <time>2022-03-22T18:21:35Z</time>
      </trkpt>
      <trkpt lat="45.01929" lon="4.55156">
        <ele>816.41</ele>
        <time>2022-03-22T18:21:37Z</time>
      </trkpt>
      <trkpt lat="45.01945" lon="4.55172">
        <ele>816.66</ele>
        <time>2022-03-22T18:21:39Z</time>
      </trkpt>
      <trkpt lat="45.01961" lon="4.55185">
        <ele>815.82</ele>
        <time>2022-03-22T18:21:41Z</time>
      </trkpt>
      <trkpt lat="45.01975" lon="4.5519">
        <ele>816.21</ele>
        <time>2022-03-22T18:21:43Z</time>
      </trkpt>
      <trkpt lat="45.01987" lon="4.5519">
        <ele>816.53</ele>
        <time>2022-03-22T18:21:46Z</time>
      </trkpt>
      <trkpt lat="45.01994" lon="4.55186">
        <ele>817.53</ele>
        <time>2022-03-22T18:21:48Z</time>
      </trkpt>
      <trkpt lat="45.02001" lon="4.55177">
        <ele>818.89</ele>
        <time>2022-03-22T18:21:50Z</time>
      </trkpt>
      <trkpt lat="45.02036" lon="4.55089">
        <ele>827.96</ele>
        <time>2022-03-22T18:21:52Z</time>
      </trkpt>
      <trkpt lat="45.02055" lon="4.55048">
        <ele>835.49</ele>
        <time>2022-03-22T18:21:55Z</time>
      </trkpt>
      <trkpt lat="45.02066" lon="4.55032">
        <ele>835.46</ele>
        <time>2022-03-22T18:21:57Z</time>
      </trkpt>
      <trkpt lat="45.02094" lon="4.54995">
        <ele>835.13</ele>
        <time>2022-03-22T18:21:59Z</time>
      </trkpt>
      <trkpt lat="45.02106" lon="4.54981">
        <ele>837.89</ele>
        <time>2022-03-22T18:22:01Z</time>
      </trkpt>
      <trkpt lat="45.02156" lon="4.5494">
        <ele>840.17</ele>
        <time>2022-03-22T18:22:03Z</time>
      </trkpt>
      <trkpt lat="45.02202" lon="4.54895">
        <ele>846.39</ele>
        <time>2022-03-22T18:22:06Z</time>
      </trkpt>
      <trkpt lat="45.02215" lon="4.54891">
        <ele>848.58</ele>
        <time>2022-03-22T18:22:08Z</time>
      </trkpt>
      <trkpt lat="45.02223" lon="4.54895">
        <ele>848.78</ele>
        <time>2022-03-22T18:22:10Z</time>
      </trkpt>
      <trkpt lat="45.02232" lon="4.54903">
        <ele>848.45</ele>
        <time>2022-03-22T18:22:12Z</time>
      </trkpt>
      <trkpt lat="45.02244" lon="4.54925">
        <ele>845.92</ele>
        <time>2022-03-22T18:22:15Z</time>
      </trkpt>
      <trkpt lat="45.02255" lon="4.54935">
        <ele>845.48</ele>
        <time>2022-03-22T18:22:17Z</time>
      </trkpt>
      <trkpt lat="45.0226" lon="4.54937">
        <ele>845.5</ele>
        <time>2022-03-22T18:22:19Z</time>
      </trkpt>
      <trkpt lat="45.02281" lon="4.54935">
        <ele>847.49</ele>
        <time>2022-03-22T18:22:21Z</time>
      </trkpt>
      <trkpt lat="45.02293" lon="4.54924">
        <ele>849.61</ele>
        <time>2022-03-22T18:22:24Z</time>
      </trkpt>
      <trkpt lat="45.02307" lon="4.54905">
        <ele>852.16</ele>
        <time>2022-03-22T18:22:26Z</time>
      </trkpt>
      <trkpt lat="45.02322" lon="4.54872">
        <ele>854.11</ele>
        <time>2022-03-22T18:22:28Z</time>
      </trkpt>
      <trkpt lat="45.02333" lon="4.5484">
        <ele>857.85</ele>
        <time>2022-03-22T18:22:30Z</time>
      </trkpt>
      <trkpt lat="45.02339" lon="4.54829">
        <ele>859.83</ele>
        <time>2022-03-22T18:22:32Z</time>
      </trkpt>
      <trkpt lat="45.02348" lon="4.54821">
        <ele>861.59</ele>
        <time>2022-03-22T18:22:35Z</time>
      </trkpt>
      <trkpt lat="45.02356" lon="4.54815">
        <ele>863.09</ele>
        <time>2022-03-22T18:22:37Z</time>
      </trkpt>
      <trkpt lat="45.02365" lon="4.54812">
        <ele>864.26</ele>
        <time>2022-03-22T18:22:39Z</time>
      </trkpt>
      <trkpt lat="45.02378" lon="4.54813">
        <ele>865.08</ele>
        <time>2022-03-22T18:22:41Z</time>
      </trkpt>
      <trkpt lat="45.02414" lon="4.54823">
        <ele>862.8</ele>
        <time>2022-03-22T18:22:44Z</time>
      </trkpt>
      <trkpt lat="45.02433" lon="4.54822">
        <ele>862.66</ele>
        <time>2022-03-22T18:22:46Z</time>
      </trkpt>
      <trkpt lat="45.02455" lon="4.54808">
        <ele>865.52</ele>
        <time>2022-03-22T18:22:48Z</time>
      </trkpt>
      <trkpt lat="45.02473" lon="4.54788">
        <ele>869.86</ele>
        <time>2022-03-22T18:22:50Z</time>
      </trkpt>
      <trkpt lat="45.02565" lon="4.54659">
        <ele>886.54</ele>
        <time>2022-03-22T18:22:52Z</time>
      </trkpt>
      <trkpt lat="45.02585" lon="4.54619">
        <ele>889.29</ele>
        <time>2022-03-22T18:22:55Z</time>
      </trkpt>
      <trkpt lat="45.02596" lon="4.54591">
        <ele>891.01</ele>
        <time>2022-03-22T18:22:57Z</time>
      </trkpt>
      <trkpt lat="45.02643" lon="4.5444">
        <ele>900.46</ele>
        <time>2022-03-22T18:22:59Z</time>
      </trkpt>
      <trkpt lat="45.02661" lon="4.54392">
        <ele>905.03</ele>
        <time>2022-03-22T18:23:01Z</time>
      </trkpt>
      <trkpt lat="45.02676" lon="4.5437">
        <ele>907.05</ele>
        <time>2022-03-22T18:23:04Z</time>
      </trkpt>
      <trkpt lat="45.02694" lon="4.54359">
        <ele>907.48</ele>
        <time>2022-03-22T18:23:06Z</time>
      </trkpt>
      <trkpt lat="45.02731" lon="4.54346">
        <ele>911.92</ele>
        <time>2022-03-22T18:23:08Z</time>
      </trkpt>
      <trkpt lat="45.02794" lon="4.54327">
        <ele>915.45</ele>
        <time>2022-03-22T18:23:10Z</time>
      </trkpt>
      <trkpt lat="45.02825" lon="4.54298">
        <ele>920.07</ele>
        <time>2022-03-22T18:23:13Z</time>
      </trkpt>
      <trkpt lat="45.02836" lon="4.54294">
        <ele>920.52</ele>
        <time>2022-03-22T18:23:15Z</time>
      </trkpt>
      <trkpt lat="45.02846" lon="4.54292">
        <ele>920.97</ele>
        <time>2022-03-22T18:23:17Z</time>
      </trkpt>
      <trkpt lat="45.02854" lon="4.54293">
        <ele>921.26</ele>
        <time>2022-03-22T18:23:19Z</time>
      </trkpt>
      <trkpt lat="45.02876" lon="4.54313">
        <ele>923.13</ele>
        <time>2022-03-22T18:23:22Z</time>
      </trkpt>
      <trkpt lat="45.02919" lon="4.54297">
        <ele>925.29</ele>
        <time>2022-03-22T18:23:24Z</time>
      </trkpt>
      <trkpt lat="45.02959" lon="4.54271">
        <ele>923.85</ele>
        <time>2022-03-22T18:23:27Z</time>
      </trkpt>
      <trkpt lat="45.0298" lon="4.54251">
        <ele>924.08</ele>
        <time>2022-03-22T18:23:30Z</time>
      </trkpt>
      <trkpt lat="45.02989" lon="4.54237">
        <ele>925.69</ele>
        <time>2022-03-22T18:23:33Z</time>
      </trkpt>
      <trkpt lat="45.02998" lon="4.5422">
        <ele>927.24</ele>
        <time>2022-03-22T18:23:35Z</time>
      </trkpt>
      <trkpt lat="45.03021" lon="4.54154">
        <ele>933.71</ele>
        <time>2022-03-22T18:23:38Z</time>
      </trkpt>
      <trkpt lat="45.03031" lon="4.54124">
        <ele>936.47</ele>
        <time>2022-03-22T18:23:41Z</time>
      </trkpt>
      <trkpt lat="45.03035" lon="4.54107">
        <ele>938.06</ele>
        <time>2022-03-22T18:23:44Z</time>
      </trkpt>
      <trkpt lat="45.03031" lon="4.54086">
        <ele>937.77</ele>
        <time>2022-03-22T18:23:47Z</time>
      </trkpt>
      <trkpt lat="45.03025" lon="4.54075">
        <ele>937.61</ele>
        <time>2022-03-22T18:23:49Z</time>
      </trkpt>
      <trkpt lat="45.02999" lon="4.54058">
        <ele>935.26</ele>
        <time>2022-03-22T18:23:52Z</time>
      </trkpt>
      <trkpt lat="45.02982" lon="4.54035">
        <ele>935.32</ele>
        <time>2022-03-22T18:23:55Z</time>
      </trkpt>
      <trkpt lat="45.02965" lon="4.54">
        <ele>938.95</ele>
        <time>2022-03-22T18:23:58Z</time>
      </trkpt>
      <trkpt lat="45.02934" lon="4.53929">
        <ele>942.17</ele>
        <time>2022-03-22T18:24:00Z</time>
      </trkpt>
      <trkpt lat="45.02927" lon="4.53893">
        <ele>942.98</ele>
        <time>2022-03-22T18:24:03Z</time>
      </trkpt>
      <trkpt lat="45.02929" lon="4.53873">
        <ele>943.37</ele>
        <time>2022-03-22T18:24:06Z</time>
      </trkpt>
      <trkpt lat="45.02936" lon="4.53854">
        <ele>944.24</ele>
        <time>2022-03-22T18:24:09Z</time>
      </trkpt>
      <trkpt lat="45.02947" lon="4.53841">
        <ele>945.22</ele>
        <time>2022-03-22T18:24:11Z</time>
      </trkpt>
      <trkpt lat="45.02957" lon="4.53834">
        <ele>946.32</ele>
        <time>2022-03-22T18:24:14Z</time>
      </trkpt>
      <trkpt lat="45.02977" lon="4.5383">
        <ele>948.75</ele>
        <time>2022-03-22T18:24:17Z</time>
      </trkpt>
      <trkpt lat="45.03005" lon="4.53829">
        <ele>949.42</ele>
        <time>2022-03-22T18:24:20Z</time>
      </trkpt>
      <trkpt lat="45.03091" lon="4.53804">
        <ele>950.78</ele>
        <time>2022-03-22T18:24:23Z</time>
      </trkpt>
      <trkpt lat="45.03127" lon="4.53802">
        <ele>953.98</ele>
        <time>2022-03-22T18:24:25Z</time>
      </trkpt>
      <trkpt lat="45.03148" lon="4.53794">
        <ele>954.79</ele>
        <time>2022-03-22T18:24:28Z</time>
      </trkpt>
      <trkpt lat="45.03164" lon="4.53775">
        <ele>954.52</ele>
        <time>2022-03-22T18:24:31Z</time>
      </trkpt>
      <trkpt lat="45.03187" lon="4.53743">
        <ele>956.54</ele>
        <time>2022-03-22T18:24:34Z</time>
      </trkpt>
      <trkpt lat="45.03224" lon="4.53683">
        <ele>963.08</ele>
        <time>2022-03-22T18:24:36Z</time>
      </trkpt>
      <trkpt lat="45.03256" lon="4.53623">
        <ele>965.45</ele>
        <time>2022-03-22T18:24:39Z</time>
      </trkpt>
      <trkpt lat="45.03278" lon="4.53513">
        <ele>969.54</ele>
        <time>2022-03-22T18:24:42Z</time>
      </trkpt>
      <trkpt lat="45.03284" lon="4.53503">
        <ele>969.95</ele>
        <time>2022-03-22T18:24:45Z</time>
      </trkpt>
      <trkpt lat="45.03301" lon="4.53458">
        <ele>968.55</ele>
        <time>2022-03-22T18:24:47Z</time>
      </trkpt>
      <trkpt lat="45.03326" lon="4.5345">
        <ele>969.72</ele>
        <time>2022-03-22T18:24:50Z</time>
      </trkpt>
      <trkpt lat="45.03345" lon="4.53455">
        <ele>970.25</ele>
        <time>2022-03-22T18:24:53Z</time>
      </trkpt>
      <trkpt lat="45.03393" lon="4.53479">
        <ele>968.55</ele>
        <time>2022-03-22T18:24:56Z</time>
      </trkpt>
      <trkpt lat="45.03503" lon="4.53516">
        <ele>972.73</ele>
        <time>2022-03-22T18:24:59Z</time>
      </trkpt>
      <trkpt lat="45.03538" lon="4.53534">
        <ele>972.65</ele>
        <time>2022-03-22T18:25:01Z</time>
      </trkpt>
      <trkpt lat="45.03594" lon="4.53568">
        <ele>970.53</ele>
        <time>2022-03-22T18:25:04Z</time>
      </trkpt>
      <trkpt lat="45.03665" lon="4.53578">
        <ele>967.19</ele>
        <time>2022-03-22T18:25:07Z</time>
      </trkpt>
      <trkpt lat="45.03686" lon="4.5359">
        <ele>967.27</ele>
        <time>2022-03-22T18:25:10Z</time>
      </trkpt>
      <trkpt lat="45.03723" lon="4.53637">
        <ele>966.67</ele>
        <time>2022-03-22T18:25:12Z</time>
      </trkpt>
      <trkpt lat="45.03745" lon="4.53677">
        <ele>970.53</ele>
        <time>2022-03-22T18:25:15Z</time>
      </trkpt>
      <trkpt lat="45.03762" lon="4.53696">
        <ele>971.89</ele>
        <time>2022-03-22T18:25:18Z</time>
      </trkpt>
      <trkpt lat="45.03793" lon="4.537">
        <ele>969.65</ele>
        <time>2022-03-22T18:25:21Z</time>
      </trkpt>
      <trkpt lat="45.03825" lon="4.53699">
        <ele>967.72</ele>
        <time>2022-03-22T18:25:23Z</time>
      </trkpt>
      <trkpt lat="45.03855" lon="4.53687">
        <ele>968.16</ele>
        <time>2022-03-22T18:25:26Z</time>
      </trkpt>
      <trkpt lat="45.03872" lon="4.53672">
        <ele>968.9</ele>
        <time>2022-03-22T18:25:29Z</time>
      </trkpt>
      <trkpt lat="45.03897" lon="4.53628">
        <ele>969.22</ele>
        <time>2022-03-22T18:25:32Z</time>
      </trkpt>
      <trkpt lat="45.03919" lon="4.53574">
        <ele>967.18</ele>
        <time>2022-03-22T18:25:35Z</time>
      </trkpt>
      <trkpt lat="45.03937" lon="4.53542">
        <ele>968.45</ele>
        <time>2022-03-22T18:25:37Z</time>
      </trkpt>
      <trkpt lat="45.03967" lon="4.53509">
        <ele>971.14</ele>
        <time>2022-03-22T18:25:40Z</time>
      </trkpt>
      <trkpt lat="45.03984" lon="4.53484">
        <ele>970.67</ele>
        <time>2022-03-22T18:25:43Z</time>
      </trkpt>
      <trkpt lat="45.03999" lon="4.53445">
        <ele>971.75</ele>
        <time>2022-03-22T18:25:46Z</time>
      </trkpt>
      <trkpt lat="45.0401" lon="4.53396">
        <ele>974.52</ele>
        <time>2022-03-22T18:25:48Z</time>
      </trkpt>
      <trkpt lat="45.04005" lon="4.53334">
        <ele>974.46</ele>
        <time>2022-03-22T18:25:51Z</time>
      </trkpt>
      <trkpt lat="45.03993" lon="4.53288">
        <ele>973.42</ele>
        <time>2022-03-22T18:25:54Z</time>
      </trkpt>
      <trkpt lat="45.03953" lon="4.53182">
        <ele>968.12</ele>
        <time>2022-03-22T18:25:57Z</time>
      </trkpt>
      <trkpt lat="45.03941" lon="4.53096">
        <ele>967.16</ele>
        <time>2022-03-22T18:25:59Z</time>
      </trkpt>
      <trkpt lat="45.03947" lon="4.52968">
        <ele>969.29</ele>
        <time>2022-03-22T18:26:02Z</time>
      </trkpt>
      <trkpt lat="45.03961" lon="4.52898">
        <ele>970.55</ele>
        <time>2022-03-22T18:26:05Z</time>
      </trkpt>
      <trkpt lat="45.03968" lon="4.52826">
        <ele>975.86</ele>
        <time>2022-03-22T18:26:08Z</time>
      </trkpt>
      <trkpt lat="45.03962" lon="4.52729">
        <ele>971.95</ele>
        <time>2022-03-22T18:26:11Z</time>
      </trkpt>
      <trkpt lat="45.03963" lon="4.52691">
        <ele>971.32</ele>
        <time>2022-03-22T18:26:13Z</time>
      </trkpt>
      <trkpt lat="45.03979" lon="4.52634">
        <ele>974.53</ele>
        <time>2022-03-22T18:26:16Z</time>
      </trkpt>
      <trkpt lat="45.03989" lon="4.52562">
        <ele>980.18</ele>
        <time>2022-03-22T18:26:19Z</time>
      </trkpt>
      <trkpt lat="45.03979" lon="4.5252">
        <ele>976.27</ele>
        <time>2022-03-22T18:26:22Z</time>
      </trkpt>
      <trkpt lat="45.03972" lon="4.52475">
        <ele>974.71</ele>
        <time>2022-03-22T18:26:24Z</time>
      </trkpt>
      <trkpt lat="45.03936" lon="4.52403">
        <ele>964.74</ele>
        <time>2022-03-22T18:26:27Z</time>
      </trkpt>
      <trkpt lat="45.03932" lon="4.52365">
        <ele>964.38</ele>
        <time>2022-03-22T18:26:30Z</time>
      </trkpt>
      <trkpt lat="45.03945" lon="4.52327">
        <ele>967.56</ele>
        <time>2022-03-22T18:26:33Z</time>
      </trkpt>
      <trkpt lat="45.03956" lon="4.52317">
        <ele>967.65</ele>
        <time>2022-03-22T18:26:35Z</time>
      </trkpt>
      <trkpt lat="45.03966" lon="4.52312">
        <ele>967.97</ele>
        <time>2022-03-22T18:26:38Z</time>
      </trkpt>
      <trkpt lat="45.03993" lon="4.52318">
        <ele>966.22</ele>
        <time>2022-03-22T18:26:41Z</time>
      </trkpt>
      <trkpt lat="45.04115" lon="4.52393">
        <ele>968.72</ele>
        <time>2022-03-22T18:26:44Z</time>
      </trkpt>
      <trkpt lat="45.04151" lon="4.5241">
        <ele>969.33</ele>
        <time>2022-03-22T18:26:47Z</time>
      </trkpt>
      <trkpt lat="45.04184" lon="4.52413">
        <ele>965.84</ele>
        <time>2022-03-22T18:26:49Z</time>
      </trkpt>
      <trkpt lat="45.0424" lon="4.52429">
        <ele>966.41</ele>
        <time>2022-03-22T18:26:52Z</time>
      </trkpt>
      <trkpt lat="45.04277" lon="4.52426">
        <ele>963.5</ele>
        <time>2022-03-22T18:26:55Z</time>
      </trkpt>
      <trkpt lat="45.04309" lon="4.52439">
        <ele>960.11</ele>
        <time>2022-03-22T18:26:58Z</time>
      </trkpt>
      <trkpt lat="45.04365" lon="4.52488">
        <ele>962.2</ele>
        <time>2022-03-22T18:27:00Z</time>
      </trkpt>
      <trkpt lat="45.04378" lon="4.52521">
        <ele>962.54</ele>
        <time>2022-03-22T18:27:03Z</time>
      </trkpt>
      <trkpt lat="45.04377" lon="4.5257">
        <ele>966.2</ele>
        <time>2022-03-22T18:27:06Z</time>
      </trkpt>
      <trkpt lat="45.04389" lon="4.52582">
        <ele>963.96</ele>
        <time>2022-03-22T18:27:09Z</time>
      </trkpt>
      <trkpt lat="45.04399" lon="4.52579">
        <ele>962.81</ele>
        <time>2022-03-22T18:27:11Z</time>
      </trkpt>
      <trkpt lat="45.04422" lon="4.52566">
        <ele>959.9</ele>
        <time>2022-03-22T18:27:14Z</time>
      </trkpt>
      <trkpt lat="45.04508" lon="4.52487">
        <ele>958.09</ele>
        <time>2022-03-22T18:27:17Z</time>
      </trkpt>
      <trkpt lat="45.04531" lon="4.52474">
        <ele>958.91</ele>
        <time>2022-03-22T18:27:20Z</time>
      </trkpt>
      <trkpt lat="45.04555" lon="4.52469">
        <ele>961.83</ele>
        <time>2022-03-22T18:27:23Z</time>
      </trkpt>
      <trkpt lat="45.04588" lon="4.52458">
        <ele>958.91</ele>
        <time>2022-03-22T18:27:25Z</time>
      </trkpt>
      <trkpt lat="45.04654" lon="4.52422">
        <ele>959.51</ele>
        <time>2022-03-22T18:27:28Z</time>
      </trkpt>
      <trkpt lat="45.04689" lon="4.52401">
        <ele>959.55</ele>
        <time>2022-03-22T18:27:31Z</time>
      </trkpt>
      <trkpt lat="45.04729" lon="4.52358">
        <ele>954.02</ele>
        <time>2022-03-22T18:27:34Z</time>
      </trkpt>
      <trkpt lat="45.04746" lon="4.52353">
        <ele>954.54</ele>
        <time>2022-03-22T18:27:36Z</time>
      </trkpt>
      <trkpt lat="45.04767" lon="4.52376">
        <ele>959.46</ele>
        <time>2022-03-22T18:27:39Z</time>
      </trkpt>
      <trkpt lat="45.04788" lon="4.52394">
        <ele>961.56</ele>
        <time>2022-03-22T18:27:42Z</time>
      </trkpt>
      <trkpt lat="45.04814" lon="4.52406">
        <ele>959.33</ele>
        <time>2022-03-22T18:27:45Z</time>
      </trkpt>
      <trkpt lat="45.04828" lon="4.5243">
        <ele>958.43</ele>
        <time>2022-03-22T18:27:47Z</time>
      </trkpt>
      <trkpt lat="45.04835" lon="4.52477">
        <ele>958.28</ele>
        <time>2022-03-22T18:27:50Z</time>
      </trkpt>
      <trkpt lat="45.04827" lon="4.52561">
        <ele>961.93</ele>
        <time>2022-03-22T18:27:53Z</time>
      </trkpt>
      <trkpt lat="45.04808" lon="4.52647">
        <ele>963.21</ele>
        <time>2022-03-22T18:27:56Z</time>
      </trkpt>
      <trkpt lat="45.04799" lon="4.52704">
        <ele>965.2</ele>
        <time>2022-03-22T18:27:59Z</time>
      </trkpt>
      <trkpt lat="45.04805" lon="4.52732">
        <ele>966.43</ele>
        <time>2022-03-22T18:28:01Z</time>
      </trkpt>
      <trkpt lat="45.04842" lon="4.5277">
        <ele>959.66</ele>
        <time>2022-03-22T18:28:04Z</time>
      </trkpt>
      <trkpt lat="45.04895" lon="4.52805">
        <ele>950.44</ele>
        <time>2022-03-22T18:28:07Z</time>
      </trkpt>
      <trkpt lat="45.04925" lon="4.52845">
        <ele>952.51</ele>
        <time>2022-03-22T18:28:10Z</time>
      </trkpt>
      <trkpt lat="45.04968" lon="4.52883">
        <ele>948.92</ele>
        <time>2022-03-22T18:28:12Z</time>
      </trkpt>
      <trkpt lat="45.04989" lon="4.52925">
        <ele>950.3</ele>
        <time>2022-03-22T18:28:15Z</time>
      </trkpt>
      <trkpt lat="45.05001" lon="4.52969">
        <ele>952.35</ele>
        <time>2022-03-22T18:28:18Z</time>
      </trkpt>
      <trkpt lat="45.05044" lon="4.53031">
        <ele>956.53</ele>
        <time>2022-03-22T18:28:21Z</time>
      </trkpt>
      <trkpt lat="45.05078" lon="4.53125">
        <ele>947.09</ele>
        <time>2022-03-22T18:28:24Z</time>
      </trkpt>
      <trkpt lat="45.05109" lon="4.53279">
        <ele>946.34</ele>
        <time>2022-03-22T18:28:26Z</time>
      </trkpt>
      <trkpt lat="45.05122" lon="4.53324">
        <ele>950.82</ele>
        <time>2022-03-22T18:28:29Z</time>
      </trkpt>
      <trkpt lat="45.05229" lon="4.53381">
        <ele>941.43</ele>
        <time>2022-03-22T18:28:32Z</time>
      </trkpt>
      <trkpt lat="45.05258" lon="4.53404">
        <ele>945.76</ele>
        <time>2022-03-22T18:28:35Z</time>
      </trkpt>
      <trkpt lat="45.05275" lon="4.53402">
        <ele>944.04</ele>
        <time>2022-03-22T18:28:37Z</time>
      </trkpt>
      <trkpt lat="45.05295" lon="4.53383">
        <ele>937.89</ele>
        <time>2022-03-22T18:28:40Z</time>
      </trkpt>
      <trkpt lat="45.05345" lon="4.53375">
        <ele>939.99</ele>
        <time>2022-03-22T18:28:43Z</time>
      </trkpt>
      <trkpt lat="45.05407" lon="4.53353">
        <ele>941.15</ele>
        <time>2022-03-22T18:28:46Z</time>
      </trkpt>
      <trkpt lat="45.05447" lon="4.53311">
        <ele>938.83</ele>
        <time>2022-03-22T18:28:48Z</time>
      </trkpt>
      <trkpt lat="45.0547" lon="4.53251">
        <ele>930.43</ele>
        <time>2022-03-22T18:28:51Z</time>
      </trkpt>
      <trkpt lat="45.05499" lon="4.53201">
        <ele>927.72</ele>
        <time>2022-03-22T18:28:54Z</time>
      </trkpt>
      <trkpt lat="45.05526" lon="4.53178">
        <ele>927</ele>
        <time>2022-03-22T18:28:57Z</time>
      </trkpt>
      <trkpt lat="45.05552" lon="4.53177">
        <ele>926.66</ele>
        <time>2022-03-22T18:29:00Z</time>
      </trkpt>
      <trkpt lat="45.05632" lon="4.53215">
        <ele>930</ele>
        <time>2022-03-22T18:29:02Z</time>
      </trkpt>
      <trkpt lat="45.05666" lon="4.53245">
        <ele>924.76</ele>
        <time>2022-03-22T18:29:05Z</time>
      </trkpt>
      <trkpt lat="45.05694" lon="4.53275">
        <ele>921.59</ele>
        <time>2022-03-22T18:29:08Z</time>
      </trkpt>
      <trkpt lat="45.05751" lon="4.53311">
        <ele>923.57</ele>
        <time>2022-03-22T18:29:11Z</time>
      </trkpt>
      <trkpt lat="45.05784" lon="4.53314">
        <ele>922.77</ele>
        <time>2022-03-22T18:29:13Z</time>
      </trkpt>
      <trkpt lat="45.05819" lon="4.53293">
        <ele>917.16</ele>
        <time>2022-03-22T18:29:16Z</time>
      </trkpt>
      <trkpt lat="45.05896" lon="4.53284">
        <ele>918.75</ele>
        <time>2022-03-22T18:29:19Z</time>
      </trkpt>
      <trkpt lat="45.05909" lon="4.53257">
        <ele>918.41</ele>
        <time>2022-03-22T18:29:21Z</time>
      </trkpt>
      <trkpt lat="45.0593" lon="4.53191">
        <ele>919.16</ele>
        <time>2022-03-22T18:29:23Z</time>
      </trkpt>
      <trkpt lat="45.0595" lon="4.53143">
        <ele>920.09</ele>
        <time>2022-03-22T18:29:25Z</time>
      </trkpt>
      <trkpt lat="45.05979" lon="4.53099">
        <ele>924.38</ele>
        <time>2022-03-22T18:29:27Z</time>
      </trkpt>
      <trkpt lat="45.05991" lon="4.53061">
        <ele>925.65</ele>
        <time>2022-03-22T18:29:30Z</time>
      </trkpt>
      <trkpt lat="45.05991" lon="4.53013">
        <ele>922.63</ele>
        <time>2022-03-22T18:29:32Z</time>
      </trkpt>
      <trkpt lat="45.06011" lon="4.5294">
        <ele>929.92</ele>
        <time>2022-03-22T18:29:34Z</time>
      </trkpt>
      <trkpt lat="45.06014" lon="4.5292">
        <ele>931.28</ele>
        <time>2022-03-22T18:29:36Z</time>
      </trkpt>
      <trkpt lat="45.0601" lon="4.52849">
        <ele>930.07</ele>
        <time>2022-03-22T18:29:38Z</time>
      </trkpt>
      <trkpt lat="45.06006" lon="4.5282">
        <ele>930.91</ele>
        <time>2022-03-22T18:29:40Z</time>
      </trkpt>
      <trkpt lat="45.05973" lon="4.52711">
        <ele>924.3</ele>
        <time>2022-03-22T18:29:42Z</time>
      </trkpt>
      <trkpt lat="45.05955" lon="4.52684">
        <ele>919.08</ele>
        <time>2022-03-22T18:29:44Z</time>
      </trkpt>
      <trkpt lat="45.05943" lon="4.52663">
        <ele>916.4</ele>
        <time>2022-03-22T18:29:47Z</time>
      </trkpt>
      <trkpt lat="45.05939" lon="4.52646">
        <ele>916.02</ele>
        <time>2022-03-22T18:29:49Z</time>
      </trkpt>
      <trkpt lat="45.05939" lon="4.52629">
        <ele>916.6</ele>
        <time>2022-03-22T18:29:51Z</time>
      </trkpt>
      <trkpt lat="45.05941" lon="4.52619">
        <ele>917.72</ele>
        <time>2022-03-22T18:29:53Z</time>
      </trkpt>
      <trkpt lat="45.0595" lon="4.52604">
        <ele>920.13</ele>
        <time>2022-03-22T18:29:55Z</time>
      </trkpt>
      <trkpt lat="45.06014" lon="4.52544">
        <ele>926.15</ele>
        <time>2022-03-22T18:29:57Z</time>
      </trkpt>
      <trkpt lat="45.06035" lon="4.52515">
        <ele>926.78</ele>
        <time>2022-03-22T18:29:59Z</time>
      </trkpt>
      <trkpt lat="45.06046" lon="4.52502">
        <ele>927.2</ele>
        <time>2022-03-22T18:30:01Z</time>
      </trkpt>
      <trkpt lat="45.06057" lon="4.52492">
        <ele>927.4</ele>
        <time>2022-03-22T18:30:04Z</time>
      </trkpt>
      <trkpt lat="45.0607" lon="4.52482">
        <ele>926.42</ele>
        <time>2022-03-22T18:30:06Z</time>
      </trkpt>
      <trkpt lat="45.06113" lon="4.52473">
        <ele>926.6</ele>
        <time>2022-03-22T18:30:08Z</time>
      </trkpt>
      <trkpt lat="45.06162" lon="4.52434">
        <ele>927.67</ele>
        <time>2022-03-22T18:30:10Z</time>
      </trkpt>
      <trkpt lat="45.06176" lon="4.52418">
        <ele>929.51</ele>
        <time>2022-03-22T18:30:12Z</time>
      </trkpt>
      <trkpt lat="45.0619" lon="4.52394">
        <ele>929.45</ele>
        <time>2022-03-22T18:30:14Z</time>
      </trkpt>
      <trkpt lat="45.062" lon="4.52361">
        <ele>926.65</ele>
        <time>2022-03-22T18:30:16Z</time>
      </trkpt>
      <trkpt lat="45.06219" lon="4.52325">
        <ele>926.9</ele>
        <time>2022-03-22T18:30:18Z</time>
      </trkpt>
      <trkpt lat="45.06237" lon="4.523">
        <ele>926.59</ele>
        <time>2022-03-22T18:30:21Z</time>
      </trkpt>
      <trkpt lat="45.06251" lon="4.52288">
        <ele>926.53</ele>
        <time>2022-03-22T18:30:23Z</time>
      </trkpt>
      <trkpt lat="45.06265" lon="4.52282">
        <ele>926.18</ele>
        <time>2022-03-22T18:30:25Z</time>
      </trkpt>
      <trkpt lat="45.06281" lon="4.52283">
        <ele>927.14</ele>
        <time>2022-03-22T18:30:27Z</time>
      </trkpt>
      <trkpt lat="45.06296" lon="4.52288">
        <ele>926.49</ele>
        <time>2022-03-22T18:30:29Z</time>
      </trkpt>
      <trkpt lat="45.06311" lon="4.52296">
        <ele>926.34</ele>
        <time>2022-03-22T18:30:31Z</time>
      </trkpt>
      <trkpt lat="45.0632" lon="4.52305">
        <ele>926.4</ele>
        <time>2022-03-22T18:30:33Z</time>
      </trkpt>
      <trkpt lat="45.06343" lon="4.52348">
        <ele>931.05</ele>
        <time>2022-03-22T18:30:35Z</time>
      </trkpt>
      <trkpt lat="45.06394" lon="4.52404">
        <ele>937.27</ele>
        <time>2022-03-22T18:30:38Z</time>
      </trkpt>
      <trkpt lat="45.06404" lon="4.52414">
        <ele>939.62</ele>
        <time>2022-03-22T18:30:40Z</time>
      </trkpt>
      <trkpt lat="45.06409" lon="4.52416">
        <ele>940.13</ele>
        <time>2022-03-22T18:30:42Z</time>
      </trkpt>
      <trkpt lat="45.06422" lon="4.52415">
        <ele>939.95</ele>
        <time>2022-03-22T18:30:44Z</time>
      </trkpt>
      <trkpt lat="45.0643" lon="4.52409">
        <ele>939.79</ele>
        <time>2022-03-22T18:30:46Z</time>
      </trkpt>
      <trkpt lat="45.06437" lon="4.524">
        <ele>938.87</ele>
        <time>2022-03-22T18:30:48Z</time>
      </trkpt>
      <trkpt lat="45.06455" lon="4.52359">
        <ele>934.49</ele>
        <time>2022-03-22T18:30:50Z</time>
      </trkpt>
      <trkpt lat="45.06483" lon="4.52301">
        <ele>930.62</ele>
        <time>2022-03-22T18:30:53Z</time>
      </trkpt>
      <trkpt lat="45.06488" lon="4.52293">
        <ele>930.76</ele>
        <time>2022-03-22T18:30:55Z</time>
      </trkpt>
      <trkpt lat="45.06498" lon="4.52283">
        <ele>931.47</ele>
        <time>2022-03-22T18:30:57Z</time>
      </trkpt>
      <trkpt lat="45.06565" lon="4.52249">
        <ele>934.89</ele>
        <time>2022-03-22T18:30:59Z</time>
      </trkpt>
      <trkpt lat="45.06586" lon="4.52243">
        <ele>932.54</ele>
        <time>2022-03-22T18:31:01Z</time>
      </trkpt>
      <trkpt lat="45.06607" lon="4.52244">
        <ele>928.65</ele>
        <time>2022-03-22T18:31:03Z</time>
      </trkpt>
      <trkpt lat="45.06621" lon="4.5225">
        <ele>928.7</ele>
        <time>2022-03-22T18:31:05Z</time>
      </trkpt>
      <trkpt lat="45.06635" lon="4.52264">
        <ele>932.22</ele>
        <time>2022-03-22T18:31:07Z</time>
      </trkpt>
      <trkpt lat="45.06668" lon="4.52309">
        <ele>939.51</ele>
        <time>2022-03-22T18:31:10Z</time>
      </trkpt>
      <trkpt lat="45.06707" lon="4.52357">
        <ele>935.09</ele>
        <time>2022-03-22T18:31:12Z</time>
      </trkpt>
      <trkpt lat="45.06818" lon="4.52515">
        <ele>938.12</ele>
        <time>2022-03-22T18:31:14Z</time>
      </trkpt>
      <trkpt lat="45.06831" lon="4.5253">
        <ele>938.07</ele>
        <time>2022-03-22T18:31:16Z</time>
      </trkpt>
      <trkpt lat="45.06842" lon="4.52536">
        <ele>940.47</ele>
        <time>2022-03-22T18:31:18Z</time>
      </trkpt>
      <trkpt lat="45.06855" lon="4.52535">
        <ele>941.65</ele>
        <time>2022-03-22T18:31:20Z</time>
      </trkpt>
      <trkpt lat="45.06866" lon="4.52531">
        <ele>942.62</ele>
        <time>2022-03-22T18:31:22Z</time>
      </trkpt>
      <trkpt lat="45.06887" lon="4.52514">
        <ele>946.44</ele>
        <time>2022-03-22T18:31:24Z</time>
      </trkpt>
      <trkpt lat="45.06898" lon="4.52498">
        <ele>948.12</ele>
        <time>2022-03-22T18:31:27Z</time>
      </trkpt>
      <trkpt lat="45.06919" lon="4.52431">
        <ele>946.03</ele>
        <time>2022-03-22T18:31:29Z</time>
      </trkpt>
      <trkpt lat="45.0694" lon="4.52348">
        <ele>946.9</ele>
        <time>2022-03-22T18:31:31Z</time>
      </trkpt>
      <trkpt lat="45.06952" lon="4.52246">
        <ele>949.45</ele>
        <time>2022-03-22T18:31:33Z</time>
      </trkpt>
      <trkpt lat="45.06951" lon="4.5222">
        <ele>947.3</ele>
        <time>2022-03-22T18:31:35Z</time>
      </trkpt>
      <trkpt lat="45.06944" lon="4.52148">
        <ele>941.39</ele>
        <time>2022-03-22T18:31:37Z</time>
      </trkpt>
      <trkpt lat="45.06938" lon="4.5207">
        <ele>941.42</ele>
        <time>2022-03-22T18:31:39Z</time>
      </trkpt>
      <trkpt lat="45.06938" lon="4.51982">
        <ele>944.46</ele>
        <time>2022-03-22T18:31:41Z</time>
      </trkpt>
      <trkpt lat="45.06946" lon="4.51932">
        <ele>943.55</ele>
        <time>2022-03-22T18:31:44Z</time>
      </trkpt>
      <trkpt lat="45.06953" lon="4.51913">
        <ele>943.23</ele>
        <time>2022-03-22T18:31:46Z</time>
      </trkpt>
      <trkpt lat="45.06962" lon="4.51895">
        <ele>943.32</ele>
        <time>2022-03-22T18:31:48Z</time>
      </trkpt>
      <trkpt lat="45.07003" lon="4.5183">
        <ele>945.75</ele>
        <time>2022-03-22T18:31:50Z</time>
      </trkpt>
      <trkpt lat="45.07013" lon="4.51805">
        <ele>945.63</ele>
        <time>2022-03-22T18:31:52Z</time>
      </trkpt>
      <trkpt lat="45.07051" lon="4.51727">
        <ele>949.2</ele>
        <time>2022-03-22T18:31:54Z</time>
      </trkpt>
      <trkpt lat="45.07064" lon="4.51679">
        <ele>947.08</ele>
        <time>2022-03-22T18:31:56Z</time>
      </trkpt>
      <trkpt lat="45.07072" lon="4.51636">
        <ele>946.27</ele>
        <time>2022-03-22T18:31:58Z</time>
      </trkpt>
      <trkpt lat="45.07073" lon="4.51606">
        <ele>946.04</ele>
        <time>2022-03-22T18:32:01Z</time>
      </trkpt>
      <trkpt lat="45.07071" lon="4.51562">
        <ele>946.5</ele>
        <time>2022-03-22T18:32:03Z</time>
      </trkpt>
      <trkpt lat="45.07057" lon="4.51496">
        <ele>940.4</ele>
        <time>2022-03-22T18:32:05Z</time>
      </trkpt>
      <trkpt lat="45.07054" lon="4.51474">
        <ele>938.66</ele>
        <time>2022-03-22T18:32:07Z</time>
      </trkpt>
      <trkpt lat="45.07056" lon="4.51458">
        <ele>940.28</ele>
        <time>2022-03-22T18:32:09Z</time>
      </trkpt>
      <trkpt lat="45.0708" lon="4.51416">
        <ele>943.01</ele>
        <time>2022-03-22T18:32:11Z</time>
      </trkpt>
      <trkpt lat="45.07104" lon="4.5138">
        <ele>943.39</ele>
        <time>2022-03-22T18:32:13Z</time>
      </trkpt>
      <trkpt lat="45.07134" lon="4.5136">
        <ele>946.17</ele>
        <time>2022-03-22T18:32:15Z</time>
      </trkpt>
      <trkpt lat="45.07146" lon="4.51361">
        <ele>946.43</ele>
        <time>2022-03-22T18:32:18Z</time>
      </trkpt>
      <trkpt lat="45.07155" lon="4.51366">
        <ele>946.29</ele>
        <time>2022-03-22T18:32:20Z</time>
      </trkpt>
      <trkpt lat="45.0717" lon="4.51392">
        <ele>946.6</ele>
        <time>2022-03-22T18:32:22Z</time>
      </trkpt>
      <trkpt lat="45.07176" lon="4.51411">
        <ele>946.26</ele>
        <time>2022-03-22T18:32:24Z</time>
      </trkpt>
      <trkpt lat="45.07195" lon="4.51555">
        <ele>954.55</ele>
        <time>2022-03-22T18:32:26Z</time>
      </trkpt>
      <trkpt lat="45.07203" lon="4.51584">
        <ele>953.47</ele>
        <time>2022-03-22T18:32:28Z</time>
      </trkpt>
      <trkpt lat="45.07235" lon="4.51674">
        <ele>951.34</ele>
        <time>2022-03-22T18:32:30Z</time>
      </trkpt>
      <trkpt lat="45.07261" lon="4.51754">
        <ele>952.28</ele>
        <time>2022-03-22T18:32:32Z</time>
      </trkpt>
      <trkpt lat="45.07276" lon="4.51932">
        <ele>949.45</ele>
        <time>2022-03-22T18:32:35Z</time>
      </trkpt>
      <trkpt lat="45.07275" lon="4.51992">
        <ele>948.71</ele>
        <time>2022-03-22T18:32:37Z</time>
      </trkpt>
      <trkpt lat="45.07262" lon="4.52081">
        <ele>959.03</ele>
        <time>2022-03-22T18:32:39Z</time>
      </trkpt>
      <trkpt lat="45.0726" lon="4.52154">
        <ele>956.05</ele>
        <time>2022-03-22T18:32:41Z</time>
      </trkpt>
      <trkpt lat="45.07274" lon="4.52328">
        <ele>957.39</ele>
        <time>2022-03-22T18:32:43Z</time>
      </trkpt>
      <trkpt lat="45.07284" lon="4.52366">
        <ele>954.74</ele>
        <time>2022-03-22T18:32:45Z</time>
      </trkpt>
      <trkpt lat="45.073" lon="4.52418">
        <ele>954.06</ele>
        <time>2022-03-22T18:32:47Z</time>
      </trkpt>
      <trkpt lat="45.07306" lon="4.52428">
        <ele>954.74</ele>
        <time>2022-03-22T18:32:49Z</time>
      </trkpt>
      <trkpt lat="45.07314" lon="4.52434">
        <ele>956.1</ele>
        <time>2022-03-22T18:32:52Z</time>
      </trkpt>
      <trkpt lat="45.07324" lon="4.52433">
        <ele>955.44</ele>
        <time>2022-03-22T18:32:54Z</time>
      </trkpt>
      <trkpt lat="45.07339" lon="4.52426">
        <ele>954.26</ele>
        <time>2022-03-22T18:32:56Z</time>
      </trkpt>
      <trkpt lat="45.07369" lon="4.524">
        <ele>952.63</ele>
        <time>2022-03-22T18:32:58Z</time>
      </trkpt>
      <trkpt lat="45.07384" lon="4.5239">
        <ele>955.25</ele>
        <time>2022-03-22T18:33:00Z</time>
      </trkpt>
      <trkpt lat="45.07412" lon="4.52378">
        <ele>960</ele>
        <time>2022-03-22T18:33:02Z</time>
      </trkpt>
      <trkpt lat="45.07424" lon="4.52371">
        <ele>960.59</ele>
        <time>2022-03-22T18:33:04Z</time>
      </trkpt>
      <trkpt lat="45.07438" lon="4.52352">
        <ele>957.29</ele>
        <time>2022-03-22T18:33:07Z</time>
      </trkpt>
      <trkpt lat="45.07469" lon="4.52319">
        <ele>951.78</ele>
        <time>2022-03-22T18:33:09Z</time>
      </trkpt>
      <trkpt lat="45.07487" lon="4.52308">
        <ele>950.95</ele>
        <time>2022-03-22T18:33:11Z</time>
      </trkpt>
      <trkpt lat="45.07506" lon="4.52304">
        <ele>952.68</ele>
        <time>2022-03-22T18:33:13Z</time>
      </trkpt>
      <trkpt lat="45.07525" lon="4.52306">
        <ele>954.87</ele>
        <time>2022-03-22T18:33:15Z</time>
      </trkpt>
      <trkpt lat="45.07533" lon="4.5231">
        <ele>956.3</ele>
        <time>2022-03-22T18:33:17Z</time>
      </trkpt>
      <trkpt lat="45.07541" lon="4.52317">
        <ele>957.97</ele>
        <time>2022-03-22T18:33:19Z</time>
      </trkpt>
      <trkpt lat="45.07594" lon="4.52396">
        <ele>961.18</ele>
        <time>2022-03-22T18:33:21Z</time>
      </trkpt>
      <trkpt lat="45.07605" lon="4.52419">
        <ele>960</ele>
        <time>2022-03-22T18:33:24Z</time>
      </trkpt>
      <trkpt lat="45.07611" lon="4.52447">
        <ele>963.7</ele>
        <time>2022-03-22T18:33:26Z</time>
      </trkpt>
      <trkpt lat="45.07614" lon="4.52458">
        <ele>965.11</ele>
        <time>2022-03-22T18:33:28Z</time>
      </trkpt>
      <trkpt lat="45.0762" lon="4.52463">
        <ele>964.99</ele>
        <time>2022-03-22T18:33:30Z</time>
      </trkpt>
      <trkpt lat="45.07627" lon="4.52464">
        <ele>963.86</ele>
        <time>2022-03-22T18:33:32Z</time>
      </trkpt>
      <trkpt lat="45.07633" lon="4.52462">
        <ele>961.92</ele>
        <time>2022-03-22T18:33:34Z</time>
      </trkpt>
      <trkpt lat="45.07644" lon="4.52452">
        <ele>956.42</ele>
        <time>2022-03-22T18:33:36Z</time>
      </trkpt>
      <trkpt lat="45.07655" lon="4.52449">
        <ele>953.64</ele>
        <time>2022-03-22T18:33:38Z</time>
      </trkpt>
      <trkpt lat="45.07672" lon="4.52452">
        <ele>951.86</ele>
        <time>2022-03-22T18:33:41Z</time>
      </trkpt>
      <trkpt lat="45.07702" lon="4.5246">
        <ele>952.34</ele>
        <time>2022-03-22T18:33:43Z</time>
      </trkpt>
      <trkpt lat="45.07714" lon="4.52466">
        <ele>952.83</ele>
        <time>2022-03-22T18:33:45Z</time>
      </trkpt>
      <trkpt lat="45.07734" lon="4.52482">
        <ele>953.59</ele>
        <time>2022-03-22T18:33:47Z</time>
      </trkpt>
      <trkpt lat="45.07748" lon="4.52499">
        <ele>954.07</ele>
        <time>2022-03-22T18:33:49Z</time>
      </trkpt>
      <trkpt lat="45.07764" lon="4.5252">
        <ele>954.13</ele>
        <time>2022-03-22T18:33:51Z</time>
      </trkpt>
      <trkpt lat="45.07784" lon="4.52551">
        <ele>953.4</ele>
        <time>2022-03-22T18:33:53Z</time>
      </trkpt>
      <trkpt lat="45.07792" lon="4.52574">
        <ele>952.53</ele>
        <time>2022-03-22T18:33:55Z</time>
      </trkpt>
      <trkpt lat="45.07794" lon="4.52599">
        <ele>953.33</ele>
        <time>2022-03-22T18:33:58Z</time>
      </trkpt>
      <trkpt lat="45.07788" lon="4.52633">
        <ele>958.33</ele>
        <time>2022-03-22T18:34:00Z</time>
      </trkpt>
      <trkpt lat="45.07788" lon="4.52655">
        <ele>962.1</ele>
        <time>2022-03-22T18:34:02Z</time>
      </trkpt>
      <trkpt lat="45.07795" lon="4.52681">
        <ele>964.6</ele>
        <time>2022-03-22T18:34:04Z</time>
      </trkpt>
      <trkpt lat="45.07802" lon="4.52696">
        <ele>965.75</ele>
        <time>2022-03-22T18:34:06Z</time>
      </trkpt>
      <trkpt lat="45.07807" lon="4.52704">
        <ele>966.51</ele>
        <time>2022-03-22T18:34:08Z</time>
      </trkpt>
      <trkpt lat="45.07812" lon="4.52707">
        <ele>966.35</ele>
        <time>2022-03-22T18:34:10Z</time>
      </trkpt>
      <trkpt lat="45.07823" lon="4.52706">
        <ele>964.39</ele>
        <time>2022-03-22T18:34:12Z</time>
      </trkpt>
      <trkpt lat="45.07834" lon="4.52698">
        <ele>960.32</ele>
        <time>2022-03-22T18:34:15Z</time>
      </trkpt>
      <trkpt lat="45.07848" lon="4.52694">
        <ele>959.22</ele>
        <time>2022-03-22T18:34:17Z</time>
      </trkpt>
      <trkpt lat="45.07879" lon="4.52688">
        <ele>957.82</ele>
        <time>2022-03-22T18:34:19Z</time>
      </trkpt>
      <trkpt lat="45.07923" lon="4.52673">
        <ele>953.33</ele>
        <time>2022-03-22T18:34:21Z</time>
      </trkpt>
      <trkpt lat="45.07931" lon="4.52672">
        <ele>954.55</ele>
        <time>2022-03-22T18:34:23Z</time>
      </trkpt>
      <trkpt lat="45.07954" lon="4.5268">
        <ele>960.82</ele>
        <time>2022-03-22T18:34:25Z</time>
      </trkpt>
      <trkpt lat="45.07992" lon="4.52711">
        <ele>968.62</ele>
        <time>2022-03-22T18:34:27Z</time>
      </trkpt>
      <trkpt lat="45.08" lon="4.52711">
        <ele>968.25</ele>
        <time>2022-03-22T18:34:29Z</time>
      </trkpt>
      <trkpt lat="45.08007" lon="4.52705">
        <ele>968.21</ele>
        <time>2022-03-22T18:34:32Z</time>
      </trkpt>
      <trkpt lat="45.08016" lon="4.52689">
        <ele>965.86</ele>
        <time>2022-03-22T18:34:34Z</time>
      </trkpt>
      <trkpt lat="45.08032" lon="4.52641">
        <ele>957.83</ele>
        <time>2022-03-22T18:34:36Z</time>
      </trkpt>
      <trkpt lat="45.08135" lon="4.52528">
        <ele>963.73</ele>
        <time>2022-03-22T18:34:38Z</time>
      </trkpt>
      <trkpt lat="45.08158" lon="4.52508">
        <ele>964.97</ele>
        <time>2022-03-22T18:34:40Z</time>
      </trkpt>
      <trkpt lat="45.08163" lon="4.52495">
        <ele>964.61</ele>
        <time>2022-03-22T18:34:42Z</time>
      </trkpt>
      <trkpt lat="45.08163" lon="4.52478">
        <ele>963.32</ele>
        <time>2022-03-22T18:34:44Z</time>
      </trkpt>
      <trkpt lat="45.08148" lon="4.52461">
        <ele>960.03</ele>
        <time>2022-03-22T18:34:46Z</time>
      </trkpt>
      <trkpt lat="45.08125" lon="4.5245">
        <ele>957.49</ele>
        <time>2022-03-22T18:34:49Z</time>
      </trkpt>
      <trkpt lat="45.08082" lon="4.52452">
        <ele>952.63</ele>
        <time>2022-03-22T18:34:51Z</time>
      </trkpt>
      <trkpt lat="45.08067" lon="4.52433">
        <ele>949.56</ele>
        <time>2022-03-22T18:34:53Z</time>
      </trkpt>
      <trkpt lat="45.08057" lon="4.52403">
        <ele>947.43</ele>
        <time>2022-03-22T18:34:55Z</time>
      </trkpt>
      <trkpt lat="45.0806" lon="4.52388">
        <ele>948.39</ele>
        <time>2022-03-22T18:34:57Z</time>
      </trkpt>
      <trkpt lat="45.08068" lon="4.5238">
        <ele>949.4</ele>
        <time>2022-03-22T18:34:59Z</time>
      </trkpt>
      <trkpt lat="45.08089" lon="4.52371">
        <ele>953.49</ele>
        <time>2022-03-22T18:35:01Z</time>
      </trkpt>
      <trkpt lat="45.08207" lon="4.52351">
        <ele>961.95</ele>
        <time>2022-03-22T18:35:03Z</time>
      </trkpt>
      <trkpt lat="45.08259" lon="4.52283">
        <ele>959.22</ele>
        <time>2022-03-22T18:35:06Z</time>
      </trkpt>
      <trkpt lat="45.08297" lon="4.52245">
        <ele>960.33</ele>
        <time>2022-03-22T18:35:08Z</time>
      </trkpt>
      <trkpt lat="45.08332" lon="4.52223">
        <ele>961.2</ele>
        <time>2022-03-22T18:35:10Z</time>
      </trkpt>
      <trkpt lat="45.08369" lon="4.52227">
        <ele>963.51</ele>
        <time>2022-03-22T18:35:12Z</time>
      </trkpt>
      <trkpt lat="45.08406" lon="4.52255">
        <ele>967.95</ele>
        <time>2022-03-22T18:35:14Z</time>
      </trkpt>
      <trkpt lat="45.08444" lon="4.52262">
        <ele>963.33</ele>
        <time>2022-03-22T18:35:16Z</time>
      </trkpt>
      <trkpt lat="45.08472" lon="4.52289">
        <ele>960.04</ele>
        <time>2022-03-22T18:35:18Z</time>
      </trkpt>
      <trkpt lat="45.08476" lon="4.52319">
        <ele>961.62</ele>
        <time>2022-03-22T18:35:21Z</time>
      </trkpt>
      <trkpt lat="45.08477" lon="4.52394">
        <ele>972.53</ele>
        <time>2022-03-22T18:35:23Z</time>
      </trkpt>
      <trkpt lat="45.08487" lon="4.52429">
        <ele>976.18</ele>
        <time>2022-03-22T18:35:25Z</time>
      </trkpt>
      <trkpt lat="45.08503" lon="4.52439">
        <ele>973.56</ele>
        <time>2022-03-22T18:35:27Z</time>
      </trkpt>
      <trkpt lat="45.08546" lon="4.52447">
        <ele>965.01</ele>
        <time>2022-03-22T18:35:29Z</time>
      </trkpt>
      <trkpt lat="45.08641" lon="4.52493">
        <ele>968.16</ele>
        <time>2022-03-22T18:35:31Z</time>
      </trkpt>
      <trkpt lat="45.08743" lon="4.52488">
        <ele>962.74</ele>
        <time>2022-03-22T18:35:33Z</time>
      </trkpt>
      <trkpt lat="45.08831" lon="4.52535">
        <ele>971.58</ele>
        <time>2022-03-22T18:35:35Z</time>
      </trkpt>
      <trkpt lat="45.08888" lon="4.52547">
        <ele>966.87</ele>
        <time>2022-03-22T18:35:38Z</time>
      </trkpt>
      <trkpt lat="45.08925" lon="4.52568">
        <ele>971.29</ele>
        <time>2022-03-22T18:35:40Z</time>
      </trkpt>
      <trkpt lat="45.08961" lon="4.5258">
        <ele>972.67</ele>
        <time>2022-03-22T18:35:42Z</time>
      </trkpt>
      <trkpt lat="45.09033" lon="4.52562">
        <ele>966.76</ele>
        <time>2022-03-22T18:35:44Z</time>
      </trkpt>
      <trkpt lat="45.09058" lon="4.52529">
        <ele>960.84</ele>
        <time>2022-03-22T18:35:46Z</time>
      </trkpt>
      <trkpt lat="45.0909" lon="4.52467">
        <ele>960.37</ele>
        <time>2022-03-22T18:35:48Z</time>
      </trkpt>
      <trkpt lat="45.09103" lon="4.52412">
        <ele>953.82</ele>
        <time>2022-03-22T18:35:50Z</time>
      </trkpt>
      <trkpt lat="45.09118" lon="4.52391">
        <ele>953.85</ele>
        <time>2022-03-22T18:35:52Z</time>
      </trkpt>
      <trkpt lat="45.09131" lon="4.52398">
        <ele>953.61</ele>
        <time>2022-03-22T18:35:55Z</time>
      </trkpt>
      <trkpt lat="45.09142" lon="4.52425">
        <ele>953.97</ele>
        <time>2022-03-22T18:35:57Z</time>
      </trkpt>
      <trkpt lat="45.09142" lon="4.52522">
        <ele>962.73</ele>
        <time>2022-03-22T18:35:59Z</time>
      </trkpt>
      <trkpt lat="45.09146" lon="4.52561">
        <ele>963.42</ele>
        <time>2022-03-22T18:36:01Z</time>
      </trkpt>
      <trkpt lat="45.09145" lon="4.52589">
        <ele>964.71</ele>
        <time>2022-03-22T18:36:03Z</time>
      </trkpt>
      <trkpt lat="45.0915" lon="4.52664">
        <ele>970.09</ele>
        <time>2022-03-22T18:36:05Z</time>
      </trkpt>
      <trkpt lat="45.09186" lon="4.5273">
        <ele>971.1</ele>
        <time>2022-03-22T18:36:07Z</time>
      </trkpt>
      <trkpt lat="45.092" lon="4.52748">
        <ele>971.99</ele>
        <time>2022-03-22T18:36:09Z</time>
      </trkpt>
      <trkpt lat="45.09259" lon="4.52776">
        <ele>971</ele>
        <time>2022-03-22T18:36:12Z</time>
      </trkpt>
      <trkpt lat="45.09272" lon="4.52786">
        <ele>970.39</ele>
        <time>2022-03-22T18:36:14Z</time>
      </trkpt>
      <trkpt lat="45.09282" lon="4.52798">
        <ele>970.82</ele>
        <time>2022-03-22T18:36:16Z</time>
      </trkpt>
      <trkpt lat="45.09292" lon="4.52814">
        <ele>972.1</ele>
        <time>2022-03-22T18:36:18Z</time>
      </trkpt>
      <trkpt lat="45.09311" lon="4.52857">
        <ele>975.8</ele>
        <time>2022-03-22T18:36:20Z</time>
      </trkpt>
      <trkpt lat="45.09318" lon="4.52878">
        <ele>975.17</ele>
        <time>2022-03-22T18:36:22Z</time>
      </trkpt>
      <trkpt lat="45.09317" lon="4.52892">
        <ele>974.75</ele>
        <time>2022-03-22T18:36:24Z</time>
      </trkpt>
      <trkpt lat="45.09315" lon="4.52899">
        <ele>974.02</ele>
        <time>2022-03-22T18:36:26Z</time>
      </trkpt>
      <trkpt lat="45.0931" lon="4.52905">
        <ele>973.75</ele>
        <time>2022-03-22T18:36:29Z</time>
      </trkpt>
      <trkpt lat="45.09303" lon="4.52908">
        <ele>974.29</ele>
        <time>2022-03-22T18:36:31Z</time>
      </trkpt>
      <trkpt lat="45.09283" lon="4.52908">
        <ele>977.36</ele>
        <time>2022-03-22T18:36:33Z</time>
      </trkpt>
      <trkpt lat="45.09263" lon="4.52912">
        <ele>980.76</ele>
        <time>2022-03-22T18:36:35Z</time>
      </trkpt>
      <trkpt lat="45.09245" lon="4.5292">
        <ele>983.3</ele>
        <time>2022-03-22T18:36:37Z</time>
      </trkpt>
      <trkpt lat="45.0922" lon="4.52937">
        <ele>985.41</ele>
        <time>2022-03-22T18:36:39Z</time>
      </trkpt>
      <trkpt lat="45.0921" lon="4.52953">
        <ele>986.64</ele>
        <time>2022-03-22T18:36:41Z</time>
      </trkpt>
      <trkpt lat="45.09199" lon="4.52988">
        <ele>989.43</ele>
        <time>2022-03-22T18:36:43Z</time>
      </trkpt>
      <trkpt lat="45.09197" lon="4.53007">
        <ele>990.17</ele>
        <time>2022-03-22T18:36:46Z</time>
      </trkpt>
      <trkpt lat="45.09202" lon="4.53027">
        <ele>988.9</ele>
        <time>2022-03-22T18:36:48Z</time>
      </trkpt>
      <trkpt lat="45.0924" lon="4.53079">
        <ele>983.8</ele>
        <time>2022-03-22T18:36:50Z</time>
      </trkpt>
      <trkpt lat="45.09254" lon="4.53105">
        <ele>986.03</ele>
        <time>2022-03-22T18:36:52Z</time>
      </trkpt>
      <trkpt lat="45.09284" lon="4.53183">
        <ele>994.66</ele>
        <time>2022-03-22T18:36:54Z</time>
      </trkpt>
      <trkpt lat="45.09312" lon="4.53269">
        <ele>992.15</ele>
        <time>2022-03-22T18:36:56Z</time>
      </trkpt>
      <trkpt lat="45.09319" lon="4.53304">
        <ele>992.97</ele>
        <time>2022-03-22T18:36:58Z</time>
      </trkpt>
      <trkpt lat="45.09326" lon="4.5337">
        <ele>1000.7</ele>
        <time>2022-03-22T18:37:00Z</time>
      </trkpt>
      <trkpt lat="45.09325" lon="4.53414">
        <ele>1008</ele>
        <time>2022-03-22T18:37:03Z</time>
      </trkpt>
      <trkpt lat="45.09332" lon="4.53424">
        <ele>1006.6</ele>
        <time>2022-03-22T18:37:05Z</time>
      </trkpt>
      <trkpt lat="45.09435" lon="4.5347">
        <ele>1003.64</ele>
        <time>2022-03-22T18:37:07Z</time>
      </trkpt>
      <trkpt lat="45.09462" lon="4.53486">
        <ele>1004.14</ele>
        <time>2022-03-22T18:37:09Z</time>
      </trkpt>
      <trkpt lat="45.09481" lon="4.53499">
        <ele>1003.96</ele>
        <time>2022-03-22T18:37:11Z</time>
      </trkpt>
      <trkpt lat="45.09503" lon="4.5353">
        <ele>1004.57</ele>
        <time>2022-03-22T18:37:13Z</time>
      </trkpt>
      <trkpt lat="45.09517" lon="4.53558">
        <ele>1005.94</ele>
        <time>2022-03-22T18:37:15Z</time>
      </trkpt>
      <trkpt lat="45.09526" lon="4.53599">
        <ele>1008.6</ele>
        <time>2022-03-22T18:37:17Z</time>
      </trkpt>
      <trkpt lat="45.09534" lon="4.53679">
        <ele>1014.29</ele>
        <time>2022-03-22T18:37:20Z</time>
      </trkpt>
      <trkpt lat="45.0954" lon="4.53695">
        <ele>1013.22</ele>
        <time>2022-03-22T18:37:22Z</time>
      </trkpt>
      <trkpt lat="45.09556" lon="4.53718">
        <ele>1011.13</ele>
        <time>2022-03-22T18:37:24Z</time>
      </trkpt>
      <trkpt lat="45.09581" lon="4.53732">
        <ele>1010.42</ele>
        <time>2022-03-22T18:37:26Z</time>
      </trkpt>
      <trkpt lat="45.09605" lon="4.53743">
        <ele>1012.98</ele>
        <time>2022-03-22T18:37:28Z</time>
      </trkpt>
      <trkpt lat="45.09643" lon="4.53745">
        <ele>1009.18</ele>
        <time>2022-03-22T18:37:30Z</time>
      </trkpt>
      <trkpt lat="45.09684" lon="4.53742">
        <ele>1008.53</ele>
        <time>2022-03-22T18:37:32Z</time>
      </trkpt>
      <trkpt lat="45.0973" lon="4.53746">
        <ele>1012.46</ele>
        <time>2022-03-22T18:37:35Z</time>
      </trkpt>
      <trkpt lat="45.09765" lon="4.53762">
        <ele>1012.63</ele>
        <time>2022-03-22T18:37:37Z</time>
      </trkpt>
      <trkpt lat="45.0978" lon="4.5377">
        <ele>1013.04</ele>
        <time>2022-03-22T18:37:39Z</time>
      </trkpt>
      <trkpt lat="45.09807" lon="4.53797">
        <ele>1018.95</ele>
        <time>2022-03-22T18:37:41Z</time>
      </trkpt>
      <trkpt lat="45.09854" lon="4.53848">
        <ele>1018.42</ele>
        <time>2022-03-22T18:37:43Z</time>
      </trkpt>
      <trkpt lat="45.09883" lon="4.53886">
        <ele>1018.48</ele>
        <time>2022-03-22T18:37:45Z</time>
      </trkpt>
      <trkpt lat="45.09914" lon="4.53932">
        <ele>1021.46</ele>
        <time>2022-03-22T18:37:47Z</time>
      </trkpt>
      <trkpt lat="45.09951" lon="4.54006">
        <ele>1024.93</ele>
        <time>2022-03-22T18:37:49Z</time>
      </trkpt>
      <trkpt lat="45.09972" lon="4.5405">
        <ele>1025.33</ele>
        <time>2022-03-22T18:37:52Z</time>
      </trkpt>
      <trkpt lat="45.09991" lon="4.54067">
        <ele>1023.33</ele>
        <time>2022-03-22T18:37:54Z</time>
      </trkpt>
      <trkpt lat="45.10011" lon="4.54079">
        <ele>1022.46</ele>
        <time>2022-03-22T18:37:56Z</time>
      </trkpt>
      <trkpt lat="45.10032" lon="4.54086">
        <ele>1022.47</ele>
        <time>2022-03-22T18:37:58Z</time>
      </trkpt>
      <trkpt lat="45.10065" lon="4.54092">
        <ele>1024.74</ele>
        <time>2022-03-22T18:38:00Z</time>
      </trkpt>
      <trkpt lat="45.10082" lon="4.541">
        <ele>1026.18</ele>
        <time>2022-03-22T18:38:02Z</time>
      </trkpt>
      <trkpt lat="45.10115" lon="4.54129">
        <ele>1027.45</ele>
        <time>2022-03-22T18:38:04Z</time>
      </trkpt>
      <trkpt lat="45.1014" lon="4.54143">
        <ele>1026.23</ele>
        <time>2022-03-22T18:38:06Z</time>
      </trkpt>
      <trkpt lat="45.10156" lon="4.54147">
        <ele>1025.75</ele>
        <time>2022-03-22T18:38:09Z</time>
      </trkpt>
      <trkpt lat="45.10184" lon="4.54147">
        <ele>1026.03</ele>
        <time>2022-03-22T18:38:11Z</time>
      </trkpt>
      <trkpt lat="45.10201" lon="4.54153">
        <ele>1025.29</ele>
        <time>2022-03-22T18:38:13Z</time>
      </trkpt>
      <trkpt lat="45.10205" lon="4.54161">
        <ele>1023.41</ele>
        <time>2022-03-22T18:38:15Z</time>
      </trkpt>
      <trkpt lat="45.10205" lon="4.54167">
        <ele>1021.62</ele>
        <time>2022-03-22T18:38:17Z</time>
      </trkpt>
      <trkpt lat="45.10216" lon="4.5417">
        <ele>1022</ele>
        <time>2022-03-22T18:38:20Z</time>
      </trkpt>
      <trkpt lat="45.10244" lon="4.5419">
        <ele>1023.1</ele>
        <time>2022-03-22T18:38:22Z</time>
      </trkpt>
      <trkpt lat="45.10326" lon="4.54257">
        <ele>1014.67</ele>
        <time>2022-03-22T18:38:24Z</time>
      </trkpt>
      <trkpt lat="45.10338" lon="4.54263">
        <ele>1012.39</ele>
        <time>2022-03-22T18:38:26Z</time>
      </trkpt>
      <trkpt lat="45.10353" lon="4.54266">
        <ele>1010.24</ele>
        <time>2022-03-22T18:38:28Z</time>
      </trkpt>
      <trkpt lat="45.10365" lon="4.54263">
        <ele>1010</ele>
        <time>2022-03-22T18:38:31Z</time>
      </trkpt>
      <trkpt lat="45.10379" lon="4.54253">
        <ele>1011.46</ele>
        <time>2022-03-22T18:38:33Z</time>
      </trkpt>
      <trkpt lat="45.10408" lon="4.54218">
        <ele>1016.74</ele>
        <time>2022-03-22T18:38:35Z</time>
      </trkpt>
      <trkpt lat="45.10419" lon="4.54207">
        <ele>1016.87</ele>
        <time>2022-03-22T18:38:37Z</time>
      </trkpt>
      <trkpt lat="45.10431" lon="4.542">
        <ele>1015.96</ele>
        <time>2022-03-22T18:38:39Z</time>
      </trkpt>
      <trkpt lat="45.10455" lon="4.54192">
        <ele>1012.47</ele>
        <time>2022-03-22T18:38:42Z</time>
      </trkpt>
      <trkpt lat="45.10473" lon="4.54191">
        <ele>1009.75</ele>
        <time>2022-03-22T18:38:44Z</time>
      </trkpt>
      <trkpt lat="45.10545" lon="4.54194">
        <ele>1010.26</ele>
        <time>2022-03-22T18:38:46Z</time>
      </trkpt>
      <trkpt lat="45.1057" lon="4.54198">
        <ele>1009.72</ele>
        <time>2022-03-22T18:38:48Z</time>
      </trkpt>
      <trkpt lat="45.10617" lon="4.54212">
        <ele>1009.89</ele>
        <time>2022-03-22T18:38:50Z</time>
      </trkpt>
      <trkpt lat="45.10663" lon="4.54229">
        <ele>1013.42</ele>
        <time>2022-03-22T18:38:53Z</time>
      </trkpt>
      <trkpt lat="45.10715" lon="4.54256">
        <ele>1020.36</ele>
        <time>2022-03-22T18:38:55Z</time>
      </trkpt>
      <trkpt lat="45.10826" lon="4.54342">
        <ele>1036.11</ele>
        <time>2022-03-22T18:38:57Z</time>
      </trkpt>
      <trkpt lat="45.10843" lon="4.54351">
        <ele>1036.86</ele>
        <time>2022-03-22T18:38:59Z</time>
      </trkpt>
      <trkpt lat="45.10853" lon="4.54351">
        <ele>1037.72</ele>
        <time>2022-03-22T18:39:01Z</time>
      </trkpt>
      <trkpt lat="45.10863" lon="4.54348">
        <ele>1039.16</ele>
        <time>2022-03-22T18:39:04Z</time>
      </trkpt>
      <trkpt lat="45.10874" lon="4.54338">
        <ele>1040.67</ele>
        <time>2022-03-22T18:39:06Z</time>
      </trkpt>
      <trkpt lat="45.1089" lon="4.54319">
        <ele>1044.33</ele>
        <time>2022-03-22T18:39:08Z</time>
      </trkpt>
      <trkpt lat="45.10932" lon="4.5429">
        <ele>1043.79</ele>
        <time>2022-03-22T18:39:10Z</time>
      </trkpt>
      <trkpt lat="45.10979" lon="4.54241">
        <ele>1050.22</ele>
        <time>2022-03-22T18:39:13Z</time>
      </trkpt>
      <trkpt lat="45.11054" lon="4.54195">
        <ele>1053.15</ele>
        <time>2022-03-22T18:39:15Z</time>
      </trkpt>
      <trkpt lat="45.11092" lon="4.54178">
        <ele>1058.21</ele>
        <time>2022-03-22T18:39:17Z</time>
      </trkpt>
      <trkpt lat="45.11134" lon="4.54162">
        <ele>1064.9</ele>
        <time>2022-03-22T18:39:19Z</time>
      </trkpt>
      <trkpt lat="45.11148" lon="4.54167">
        <ele>1066.34</ele>
        <time>2022-03-22T18:39:21Z</time>
      </trkpt>
      <trkpt lat="45.11156" lon="4.54174">
        <ele>1066.43</ele>
        <time>2022-03-22T18:39:24Z</time>
      </trkpt>
      <trkpt lat="45.1116" lon="4.54193">
        <ele>1063.06</ele>
        <time>2022-03-22T18:39:26Z</time>
      </trkpt>
      <trkpt lat="45.11163" lon="4.5423">
        <ele>1056.87</ele>
        <time>2022-03-22T18:39:28Z</time>
      </trkpt>
      <trkpt lat="45.11163" lon="4.54314">
        <ele>1054.25</ele>
        <time>2022-03-22T18:39:30Z</time>
      </trkpt>
      <trkpt lat="45.11194" lon="4.54414">
        <ele>1062.2</ele>
        <time>2022-03-22T18:39:32Z</time>
      </trkpt>
      <trkpt lat="45.11204" lon="4.54469">
        <ele>1055.68</ele>
        <time>2022-03-22T18:39:35Z</time>
      </trkpt>
      <trkpt lat="45.11222" lon="4.54494">
        <ele>1055.52</ele>
        <time>2022-03-22T18:39:37Z</time>
      </trkpt>
      <trkpt lat="45.11235" lon="4.54496">
        <ele>1054.92</ele>
        <time>2022-03-22T18:39:39Z</time>
      </trkpt>
      <trkpt lat="45.11249" lon="4.54496">
        <ele>1055.11</ele>
        <time>2022-03-22T18:39:41Z</time>
      </trkpt>
      <trkpt lat="45.11275" lon="4.54468">
        <ele>1055.54</ele>
        <time>2022-03-22T18:39:43Z</time>
      </trkpt>
      <trkpt lat="45.11303" lon="4.54424">
        <ele>1073.4</ele>
        <time>2022-03-22T18:39:46Z</time>
      </trkpt>
      <trkpt lat="45.11322" lon="4.54398">
        <ele>1081.21</ele>
        <time>2022-03-22T18:39:48Z</time>
      </trkpt>
      <trkpt lat="45.11342" lon="4.54384">
        <ele>1082.7</ele>
        <time>2022-03-22T18:39:50Z</time>
      </trkpt>
      <trkpt lat="45.1138" lon="4.54365">
        <ele>1083.73</ele>
        <time>2022-03-22T18:39:52Z</time>
      </trkpt>
      <trkpt lat="45.11422" lon="4.54355">
        <ele>1081.39</ele>
        <time>2022-03-22T18:39:54Z</time>
      </trkpt>
      <trkpt lat="45.1144" lon="4.54356">
        <ele>1080.21</ele>
        <time>2022-03-22T18:39:57Z</time>
      </trkpt>
      <trkpt lat="45.1149" lon="4.5438">
        <ele>1071.68</ele>
        <time>2022-03-22T18:39:59Z</time>
      </trkpt>
      <trkpt lat="45.11507" lon="4.54382">
        <ele>1072.03</ele>
        <time>2022-03-22T18:40:01Z</time>
      </trkpt>
      <trkpt lat="45.11524" lon="4.54381">
        <ele>1072.57</ele>
        <time>2022-03-22T18:40:03Z</time>
      </trkpt>
      <trkpt lat="45.11538" lon="4.54371">
        <ele>1072.74</ele>
        <time>2022-03-22T18:40:06Z</time>
      </trkpt>
      <trkpt lat="45.11552" lon="4.54358">
        <ele>1073.49</ele>
        <time>2022-03-22T18:40:08Z</time>
      </trkpt>
      <trkpt lat="45.1159" lon="4.54313">
        <ele>1076.85</ele>
        <time>2022-03-22T18:40:10Z</time>
      </trkpt>
      <trkpt lat="45.1159" lon="4.54313">
        <ele>1076.85</ele>
        <time>2022-03-22T18:40:10Z</time>
      </trkpt>
      <trkpt lat="45.11596" lon="4.54306">
        <ele>1080.2</ele>
        <time>2022-03-22T18:40:13Z</time>
      </trkpt>
      <trkpt lat="45.11617" lon="4.54289">
        <ele>1084</ele>
        <time>2022-03-22T18:40:16Z</time>
      </trkpt>
      <trkpt lat="45.11627" lon="4.54284">
        <ele>1084.8</ele>
        <time>2022-03-22T18:40:20Z</time>
      </trkpt>
      <trkpt lat="45.11684" lon="4.54277">
        <ele>1077.79</ele>
        <time>2022-03-22T18:40:23Z</time>
      </trkpt>
      <trkpt lat="45.11702" lon="4.54271">
        <ele>1076.43</ele>
        <time>2022-03-22T18:40:26Z</time>
      </trkpt>
      <trkpt lat="45.11708" lon="4.54266">
        <ele>1076.36</ele>
        <time>2022-03-22T18:40:29Z</time>
      </trkpt>
      <trkpt lat="45.11717" lon="4.54251">
        <ele>1076.12</ele>
        <time>2022-03-22T18:40:32Z</time>
      </trkpt>
      <trkpt lat="45.1172" lon="4.54244">
        <ele>1076.09</ele>
        <time>2022-03-22T18:40:36Z</time>
      </trkpt>
      <trkpt lat="45.11724" lon="4.54218">
        <ele>1075.99</ele>
        <time>2022-03-22T18:40:39Z</time>
      </trkpt>
      <trkpt lat="45.11724" lon="4.54169">
        <ele>1074.07</ele>
        <time>2022-03-22T18:40:42Z</time>
      </trkpt>
      <trkpt lat="45.11719" lon="4.54009">
        <ele>1078.56</ele>
        <time>2022-03-22T18:40:45Z</time>
      </trkpt>
      <trkpt lat="45.11716" lon="4.53978">
        <ele>1079.43</ele>
        <time>2022-03-22T18:40:48Z</time>
      </trkpt>
      <trkpt lat="45.1168" lon="4.5386">
        <ele>1080.2</ele>
        <time>2022-03-22T18:40:51Z</time>
      </trkpt>
      <trkpt lat="45.1167" lon="4.53816">
        <ele>1083.88</ele>
        <time>2022-03-22T18:40:55Z</time>
      </trkpt>
      <trkpt lat="45.11669" lon="4.53798">
        <ele>1083.76</ele>
        <time>2022-03-22T18:40:58Z</time>
      </trkpt>
      <trkpt lat="45.1167" lon="4.53779">
        <ele>1084.1</ele>
        <time>2022-03-22T18:41:01Z</time>
      </trkpt>
      <trkpt lat="45.11683" lon="4.53723">
        <ele>1087.98</ele>
        <time>2022-03-22T18:41:04Z</time>
      </trkpt>
      <trkpt lat="45.11697" lon="4.5368">
        <ele>1086.01</ele>
        <time>2022-03-22T18:41:07Z</time>
      </trkpt>
      <trkpt lat="45.11709" lon="4.5366">
        <ele>1085.67</ele>
        <time>2022-03-22T18:41:11Z</time>
      </trkpt>
      <trkpt lat="45.11718" lon="4.5365">
        <ele>1085.06</ele>
        <time>2022-03-22T18:41:14Z</time>
      </trkpt>
      <trkpt lat="45.11743" lon="4.53631">
        <ele>1084.65</ele>
        <time>2022-03-22T18:41:17Z</time>
      </trkpt>
      <trkpt lat="45.11759" lon="4.53623">
        <ele>1084.4</ele>
        <time>2022-03-22T18:41:20Z</time>
      </trkpt>
      <trkpt lat="45.11772" lon="4.53619">
        <ele>1083.49</ele>
        <time>2022-03-22T18:41:23Z</time>
      </trkpt>
      <trkpt lat="45.11797" lon="4.53615">
        <ele>1082.76</ele>
        <time>2022-03-22T18:41:27Z</time>
      </trkpt>
      <trkpt lat="45.11851" lon="4.53596">
        <ele>1084.54</ele>
        <time>2022-03-22T18:41:30Z</time>
      </trkpt>
      <trkpt lat="45.1191" lon="4.53572">
        <ele>1084.15</ele>
        <time>2022-03-22T18:41:33Z</time>
      </trkpt>
      <trkpt lat="45.11918" lon="4.53617">
        <ele>1082.64</ele>
        <time>2022-03-22T18:41:35Z</time>
      </trkpt>
      <trkpt lat="45.11923" lon="4.53624">
        <ele>1082.22</ele>
        <time>2022-03-22T18:41:37Z</time>
      </trkpt>
      <trkpt lat="45.11987" lon="4.53671">
        <ele>1077.64</ele>
        <time>2022-03-22T18:41:39Z</time>
      </trkpt>
      <trkpt lat="45.12013" lon="4.53695">
        <ele>1073.17</ele>
        <time>2022-03-22T18:41:41Z</time>
      </trkpt>
      <trkpt lat="45.12095" lon="4.53813">
        <ele>1067.98</ele>
        <time>2022-03-22T18:41:43Z</time>
      </trkpt>
      <trkpt lat="45.12106" lon="4.53827">
        <ele>1066.44</ele>
        <time>2022-03-22T18:41:44Z</time>
      </trkpt>
      <trkpt lat="45.12115" lon="4.53834">
        <ele>1066.52</ele>
        <time>2022-03-22T18:41:46Z</time>
      </trkpt>
      <trkpt lat="45.12165" lon="4.53844">
        <ele>1071.24</ele>
        <time>2022-03-22T18:41:48Z</time>
      </trkpt>
      <trkpt lat="45.12175" lon="4.53849">
        <ele>1071.06</ele>
        <time>2022-03-22T18:41:50Z</time>
      </trkpt>
      <trkpt lat="45.12181" lon="4.53854">
        <ele>1070.29</ele>
        <time>2022-03-22T18:41:52Z</time>
      </trkpt>
      <trkpt lat="45.12188" lon="4.53864">
        <ele>1068.39</ele>
        <time>2022-03-22T18:41:54Z</time>
      </trkpt>
      <trkpt lat="45.12215" lon="4.53931">
        <ele>1052.13</ele>
        <time>2022-03-22T18:41:56Z</time>
      </trkpt>
      <trkpt lat="45.12224" lon="4.53944">
        <ele>1050.36</ele>
        <time>2022-03-22T18:41:58Z</time>
      </trkpt>
      <trkpt lat="45.12236" lon="4.53955">
        <ele>1049.44</ele>
        <time>2022-03-22T18:42:00Z</time>
      </trkpt>
      <trkpt lat="45.12246" lon="4.5396">
        <ele>1049.78</ele>
        <time>2022-03-22T18:42:02Z</time>
      </trkpt>
      <trkpt lat="45.12255" lon="4.53962">
        <ele>1049.26</ele>
        <time>2022-03-22T18:42:04Z</time>
      </trkpt>
      <trkpt lat="45.12263" lon="4.5396">
        <ele>1048.67</ele>
        <time>2022-03-22T18:42:06Z</time>
      </trkpt>
      <trkpt lat="45.12271" lon="4.53955">
        <ele>1048.4</ele>
        <time>2022-03-22T18:42:08Z</time>
      </trkpt>
      <trkpt lat="45.12288" lon="4.53939">
        <ele>1047.81</ele>
        <time>2022-03-22T18:42:09Z</time>
      </trkpt>
      <trkpt lat="45.12357" lon="4.53897">
        <ele>1051.4</ele>
        <time>2022-03-22T18:42:11Z</time>
      </trkpt>
      <trkpt lat="45.12374" lon="4.53898">
        <ele>1052.64</ele>
        <time>2022-03-22T18:42:13Z</time>
      </trkpt>
      <trkpt lat="45.12389" lon="4.53907">
        <ele>1052.48</ele>
        <time>2022-03-22T18:42:15Z</time>
      </trkpt>
      <trkpt lat="45.12399" lon="4.53923">
        <ele>1051.53</ele>
        <time>2022-03-22T18:42:17Z</time>
      </trkpt>
      <trkpt lat="45.12419" lon="4.53977">
        <ele>1039.32</ele>
        <time>2022-03-22T18:42:19Z</time>
      </trkpt>
      <trkpt lat="45.12431" lon="4.5399">
        <ele>1038.32</ele>
        <time>2022-03-22T18:42:21Z</time>
      </trkpt>
      <trkpt lat="45.1247" lon="4.54015">
        <ele>1042.59</ele>
        <time>2022-03-22T18:42:23Z</time>
      </trkpt>
      <trkpt lat="45.12477" lon="4.54024">
        <ele>1042.17</ele>
        <time>2022-03-22T18:42:25Z</time>
      </trkpt>
      <trkpt lat="45.1248" lon="4.54034">
        <ele>1041.51</ele>
        <time>2022-03-22T18:42:27Z</time>
      </trkpt>
      <trkpt lat="45.12486" lon="4.54083">
        <ele>1035.99</ele>
        <time>2022-03-22T18:42:29Z</time>
      </trkpt>
      <trkpt lat="45.12489" lon="4.54096">
        <ele>1034.27</ele>
        <time>2022-03-22T18:42:31Z</time>
      </trkpt>
      <trkpt lat="45.1251" lon="4.54141">
        <ele>1035.74</ele>
        <time>2022-03-22T18:42:33Z</time>
      </trkpt>
      <trkpt lat="45.12512" lon="4.54155">
        <ele>1035.41</ele>
        <time>2022-03-22T18:42:34Z</time>
      </trkpt>
      <trkpt lat="45.12512" lon="4.54167">
        <ele>1034.31</ele>
        <time>2022-03-22T18:42:36Z</time>
      </trkpt>
      <trkpt lat="45.1251" lon="4.54179">
        <ele>1032.75</ele>
        <time>2022-03-22T18:42:38Z</time>
      </trkpt>
      <trkpt lat="45.12496" lon="4.5422">
        <ele>1024.08</ele>
        <time>2022-03-22T18:42:40Z</time>
      </trkpt>
      <trkpt lat="45.12491" lon="4.54245">
        <ele>1022.96</ele>
        <time>2022-03-22T18:42:42Z</time>
      </trkpt>
      <trkpt lat="45.12487" lon="4.54271">
        <ele>1021.63</ele>
        <time>2022-03-22T18:42:44Z</time>
      </trkpt>
      <trkpt lat="45.12485" lon="4.54309">
        <ele>1019.17</ele>
        <time>2022-03-22T18:42:46Z</time>
      </trkpt>
      <trkpt lat="45.12485" lon="4.54345">
        <ele>1018.37</ele>
        <time>2022-03-22T18:42:48Z</time>
      </trkpt>
      <trkpt lat="45.12486" lon="4.54374">
        <ele>1016.54</ele>
        <time>2022-03-22T18:42:50Z</time>
      </trkpt>
      <trkpt lat="45.12491" lon="4.54399">
        <ele>1014.52</ele>
        <time>2022-03-22T18:42:52Z</time>
      </trkpt>
      <trkpt lat="45.12496" lon="4.54417">
        <ele>1013.8</ele>
        <time>2022-03-22T18:42:54Z</time>
      </trkpt>
      <trkpt lat="45.12504" lon="4.54439">
        <ele>1010.54</ele>
        <time>2022-03-22T18:42:56Z</time>
      </trkpt>
      <trkpt lat="45.12516" lon="4.54455">
        <ele>1010.97</ele>
        <time>2022-03-22T18:42:57Z</time>
      </trkpt>
      <trkpt lat="45.12526" lon="4.54465">
        <ele>1012.52</ele>
        <time>2022-03-22T18:42:59Z</time>
      </trkpt>
      <trkpt lat="45.12539" lon="4.54473">
        <ele>1013.96</ele>
        <time>2022-03-22T18:43:01Z</time>
      </trkpt>
      <trkpt lat="45.12612" lon="4.54498">
        <ele>1013.25</ele>
        <time>2022-03-22T18:43:03Z</time>
      </trkpt>
      <trkpt lat="45.12622" lon="4.54505">
        <ele>1015.32</ele>
        <time>2022-03-22T18:43:05Z</time>
      </trkpt>
      <trkpt lat="45.1263" lon="4.54516">
        <ele>1015.75</ele>
        <time>2022-03-22T18:43:07Z</time>
      </trkpt>
      <trkpt lat="45.12634" lon="4.54529">
        <ele>1014.95</ele>
        <time>2022-03-22T18:43:09Z</time>
      </trkpt>
      <trkpt lat="45.12636" lon="4.54543">
        <ele>1014.62</ele>
        <time>2022-03-22T18:43:11Z</time>
      </trkpt>
      <trkpt lat="45.12635" lon="4.54556">
        <ele>1012.9</ele>
        <time>2022-03-22T18:43:13Z</time>
      </trkpt>
      <trkpt lat="45.12627" lon="4.54598">
        <ele>1006.16</ele>
        <time>2022-03-22T18:43:15Z</time>
      </trkpt>
      <trkpt lat="45.12618" lon="4.54655">
        <ele>1003.1</ele>
        <time>2022-03-22T18:43:17Z</time>
      </trkpt>
      <trkpt lat="45.12602" lon="4.54732">
        <ele>996.38</ele>
        <time>2022-03-22T18:43:19Z</time>
      </trkpt>
      <trkpt lat="45.12596" lon="4.54792">
        <ele>990.28</ele>
        <time>2022-03-22T18:43:21Z</time>
      </trkpt>
      <trkpt lat="45.12597" lon="4.54824">
        <ele>989.3</ele>
        <time>2022-03-22T18:43:22Z</time>
      </trkpt>
      <trkpt lat="45.12606" lon="4.54867">
        <ele>989.99</ele>
        <time>2022-03-22T18:43:24Z</time>
      </trkpt>
      <trkpt lat="45.12619" lon="4.54896">
        <ele>989.82</ele>
        <time>2022-03-22T18:43:26Z</time>
      </trkpt>
      <trkpt lat="45.12637" lon="4.54924">
        <ele>989.23</ele>
        <time>2022-03-22T18:43:28Z</time>
      </trkpt>
      <trkpt lat="45.12678" lon="4.54972">
        <ele>990.81</ele>
        <time>2022-03-22T18:43:30Z</time>
      </trkpt>
      <trkpt lat="45.12686" lon="4.5499">
        <ele>990.45</ele>
        <time>2022-03-22T18:43:32Z</time>
      </trkpt>
      <trkpt lat="45.12691" lon="4.55015">
        <ele>987.51</ele>
        <time>2022-03-22T18:43:34Z</time>
      </trkpt>
      <trkpt lat="45.12692" lon="4.55038">
        <ele>983.38</ele>
        <time>2022-03-22T18:43:36Z</time>
      </trkpt>
      <trkpt lat="45.12691" lon="4.55097">
        <ele>975.09</ele>
        <time>2022-03-22T18:43:38Z</time>
      </trkpt>
      <trkpt lat="45.12693" lon="4.55117">
        <ele>973.31</ele>
        <time>2022-03-22T18:43:40Z</time>
      </trkpt>
      <trkpt lat="45.12701" lon="4.5516">
        <ele>970.88</ele>
        <time>2022-03-22T18:43:42Z</time>
      </trkpt>
      <trkpt lat="45.12708" lon="4.55183">
        <ele>967.89</ele>
        <time>2022-03-22T18:43:44Z</time>
      </trkpt>
      <trkpt lat="45.12719" lon="4.55209">
        <ele>967</ele>
        <time>2022-03-22T18:43:46Z</time>
      </trkpt>
      <trkpt lat="45.12765" lon="4.55278">
        <ele>969.22</ele>
        <time>2022-03-22T18:43:47Z</time>
      </trkpt>
      <trkpt lat="45.12813" lon="4.55367">
        <ele>961.02</ele>
        <time>2022-03-22T18:43:49Z</time>
      </trkpt>
      <trkpt lat="45.12849" lon="4.55417">
        <ele>953.91</ele>
        <time>2022-03-22T18:43:51Z</time>
      </trkpt>
      <trkpt lat="45.12875" lon="4.55447">
        <ele>953.35</ele>
        <time>2022-03-22T18:43:53Z</time>
      </trkpt>
      <trkpt lat="45.12883" lon="4.55453">
        <ele>953.87</ele>
        <time>2022-03-22T18:43:55Z</time>
      </trkpt>
      <trkpt lat="45.12902" lon="4.55465">
        <ele>953.96</ele>
        <time>2022-03-22T18:43:57Z</time>
      </trkpt>
      <trkpt lat="45.12926" lon="4.55475">
        <ele>950.88</ele>
        <time>2022-03-22T18:43:59Z</time>
      </trkpt>
      <trkpt lat="45.12962" lon="4.55481">
        <ele>947.24</ele>
        <time>2022-03-22T18:44:01Z</time>
      </trkpt>
      <trkpt lat="45.12992" lon="4.55481">
        <ele>945.79</ele>
        <time>2022-03-22T18:44:03Z</time>
      </trkpt>
      <trkpt lat="45.13022" lon="4.55476">
        <ele>944.69</ele>
        <time>2022-03-22T18:44:05Z</time>
      </trkpt>
      <trkpt lat="45.1304" lon="4.5547">
        <ele>943.25</ele>
        <time>2022-03-22T18:44:07Z</time>
      </trkpt>
      <trkpt lat="45.13057" lon="4.55458">
        <ele>942.31</ele>
        <time>2022-03-22T18:44:09Z</time>
      </trkpt>
      <trkpt lat="45.13076" lon="4.5544">
        <ele>942.7</ele>
        <time>2022-03-22T18:44:10Z</time>
      </trkpt>
      <trkpt lat="45.13087" lon="4.55425">
        <ele>942.38</ele>
        <time>2022-03-22T18:44:12Z</time>
      </trkpt>
      <trkpt lat="45.13119" lon="4.55374">
        <ele>939.63</ele>
        <time>2022-03-22T18:44:14Z</time>
      </trkpt>
      <trkpt lat="45.13141" lon="4.55347">
        <ele>937.38</ele>
        <time>2022-03-22T18:44:16Z</time>
      </trkpt>
      <trkpt lat="45.1315" lon="4.55341">
        <ele>937.72</ele>
        <time>2022-03-22T18:44:18Z</time>
      </trkpt>
      <trkpt lat="45.13159" lon="4.55339">
        <ele>937.23</ele>
        <time>2022-03-22T18:44:20Z</time>
      </trkpt>
      <trkpt lat="45.1317" lon="4.55342">
        <ele>935.61</ele>
        <time>2022-03-22T18:44:22Z</time>
      </trkpt>
      <trkpt lat="45.13181" lon="4.55351">
        <ele>934.1</ele>
        <time>2022-03-22T18:44:24Z</time>
      </trkpt>
      <trkpt lat="45.1322" lon="4.55395">
        <ele>929.75</ele>
        <time>2022-03-22T18:44:26Z</time>
      </trkpt>
      <trkpt lat="45.13256" lon="4.55446">
        <ele>922.88</ele>
        <time>2022-03-22T18:44:28Z</time>
      </trkpt>
      <trkpt lat="45.13276" lon="4.55464">
        <ele>921.25</ele>
        <time>2022-03-22T18:44:30Z</time>
      </trkpt>
      <trkpt lat="45.13296" lon="4.55474">
        <ele>920.27</ele>
        <time>2022-03-22T18:44:32Z</time>
      </trkpt>
      <trkpt lat="45.13345" lon="4.55488">
        <ele>914.41</ele>
        <time>2022-03-22T18:44:34Z</time>
      </trkpt>
      <trkpt lat="45.13369" lon="4.55491">
        <ele>913.55</ele>
        <time>2022-03-22T18:44:35Z</time>
      </trkpt>
      <trkpt lat="45.13394" lon="4.55491">
        <ele>918.46</ele>
        <time>2022-03-22T18:44:37Z</time>
      </trkpt>
      <trkpt lat="45.13407" lon="4.55494">
        <ele>919.44</ele>
        <time>2022-03-22T18:44:39Z</time>
      </trkpt>
      <trkpt lat="45.13421" lon="4.55508">
        <ele>917.17</ele>
        <time>2022-03-22T18:44:41Z</time>
      </trkpt>
      <trkpt lat="45.13443" lon="4.55555">
        <ele>911.63</ele>
        <time>2022-03-22T18:44:43Z</time>
      </trkpt>
      <trkpt lat="45.13448" lon="4.55573">
        <ele>912.58</ele>
        <time>2022-03-22T18:44:45Z</time>
      </trkpt>
      <trkpt lat="45.13448" lon="4.55582">
        <ele>912.31</ele>
        <time>2022-03-22T18:44:47Z</time>
      </trkpt>
      <trkpt lat="45.13446" lon="4.55595">
        <ele>912.27</ele>
        <time>2022-03-22T18:44:49Z</time>
      </trkpt>
      <trkpt lat="45.13417" lon="4.55648">
        <ele>905.32</ele>
        <time>2022-03-22T18:44:51Z</time>
      </trkpt>
      <trkpt lat="45.13366" lon="4.55731">
        <ele>898.84</ele>
        <time>2022-03-22T18:44:53Z</time>
      </trkpt>
      <trkpt lat="45.13313" lon="4.55853">
        <ele>895.99</ele>
        <time>2022-03-22T18:44:55Z</time>
      </trkpt>
      <trkpt lat="45.13275" lon="4.55928">
        <ele>891.08</ele>
        <time>2022-03-22T18:44:57Z</time>
      </trkpt>
      <trkpt lat="45.13232" lon="4.55993">
        <ele>885.95</ele>
        <time>2022-03-22T18:44:58Z</time>
      </trkpt>
      <trkpt lat="45.13204" lon="4.56046">
        <ele>883.32</ele>
        <time>2022-03-22T18:45:00Z</time>
      </trkpt>
      <trkpt lat="45.13178" lon="4.56106">
        <ele>882.04</ele>
        <time>2022-03-22T18:45:02Z</time>
      </trkpt>
      <trkpt lat="45.1317" lon="4.5612">
        <ele>881.25</ele>
        <time>2022-03-22T18:45:04Z</time>
      </trkpt>
      <trkpt lat="45.13156" lon="4.5614">
        <ele>878.29</ele>
        <time>2022-03-22T18:45:06Z</time>
      </trkpt>
      <trkpt lat="45.13137" lon="4.56163">
        <ele>874.28</ele>
        <time>2022-03-22T18:45:08Z</time>
      </trkpt>
      <trkpt lat="45.13126" lon="4.56187">
        <ele>872.05</ele>
        <time>2022-03-22T18:45:10Z</time>
      </trkpt>
      <trkpt lat="45.13121" lon="4.56209">
        <ele>870.6</ele>
        <time>2022-03-22T18:45:12Z</time>
      </trkpt>
      <trkpt lat="45.13122" lon="4.56227">
        <ele>869.69</ele>
        <time>2022-03-22T18:45:14Z</time>
      </trkpt>
      <trkpt lat="45.13125" lon="4.56238">
        <ele>868.71</ele>
        <time>2022-03-22T18:45:16Z</time>
      </trkpt>
      <trkpt lat="45.13129" lon="4.56247">
        <ele>868.01</ele>
        <time>2022-03-22T18:45:18Z</time>
      </trkpt>
      <trkpt lat="45.13151" lon="4.56283">
        <ele>865.92</ele>
        <time>2022-03-22T18:45:20Z</time>
      </trkpt>
      <trkpt lat="45.13183" lon="4.56359">
        <ele>860.84</ele>
        <time>2022-03-22T18:45:22Z</time>
      </trkpt>
      <trkpt lat="45.13213" lon="4.56422">
        <ele>859.22</ele>
        <time>2022-03-22T18:45:23Z</time>
      </trkpt>
      <trkpt lat="45.13223" lon="4.56447">
        <ele>856.51</ele>
        <time>2022-03-22T18:45:25Z</time>
      </trkpt>
      <trkpt lat="45.1323" lon="4.56478">
        <ele>851.71</ele>
        <time>2022-03-22T18:45:27Z</time>
      </trkpt>
      <trkpt lat="45.13233" lon="4.56508">
        <ele>850.33</ele>
        <time>2022-03-22T18:45:29Z</time>
      </trkpt>
      <trkpt lat="45.13231" lon="4.56535">
        <ele>850.68</ele>
        <time>2022-03-22T18:45:31Z</time>
      </trkpt>
      <trkpt lat="45.13227" lon="4.56569">
        <ele>851.15</ele>
        <time>2022-03-22T18:45:33Z</time>
      </trkpt>
      <trkpt lat="45.1322" lon="4.566">
        <ele>850.75</ele>
        <time>2022-03-22T18:45:35Z</time>
      </trkpt>
      <trkpt lat="45.13188" lon="4.56689">
        <ele>843.57</ele>
        <time>2022-03-22T18:45:37Z</time>
      </trkpt>
      <trkpt lat="45.13182" lon="4.56711">
        <ele>843.63</ele>
        <time>2022-03-22T18:45:39Z</time>
      </trkpt>
      <trkpt lat="45.13178" lon="4.5674">
        <ele>843.91</ele>
        <time>2022-03-22T18:45:41Z</time>
      </trkpt>
      <trkpt lat="45.13176" lon="4.56771">
        <ele>842.83</ele>
        <time>2022-03-22T18:45:43Z</time>
      </trkpt>
      <trkpt lat="45.1318" lon="4.5681">
        <ele>841.43</ele>
        <time>2022-03-22T18:45:45Z</time>
      </trkpt>
      <trkpt lat="45.1319" lon="4.56867">
        <ele>839.26</ele>
        <time>2022-03-22T18:45:47Z</time>
      </trkpt>
      <trkpt lat="45.13205" lon="4.56924">
        <ele>836.4</ele>
        <time>2022-03-22T18:45:48Z</time>
      </trkpt>
      <trkpt lat="45.13226" lon="4.56981">
        <ele>833.64</ele>
        <time>2022-03-22T18:45:50Z</time>
      </trkpt>
      <trkpt lat="45.13242" lon="4.57042">
        <ele>829.04</ele>
        <time>2022-03-22T18:45:52Z</time>
      </trkpt>
      <trkpt lat="45.13246" lon="4.57051">
        <ele>828.66</ele>
        <time>2022-03-22T18:45:54Z</time>
      </trkpt>
      <trkpt lat="45.13256" lon="4.57068">
        <ele>827.06</ele>
        <time>2022-03-22T18:45:56Z</time>
      </trkpt>
      <trkpt lat="45.1327" lon="4.5708">
        <ele>825.99</ele>
        <time>2022-03-22T18:45:58Z</time>
      </trkpt>
      <trkpt lat="45.13278" lon="4.57083">
        <ele>826.04</ele>
        <time>2022-03-22T18:46:00Z</time>
      </trkpt>
      <trkpt lat="45.13286" lon="4.57084">
        <ele>825.67</ele>
        <time>2022-03-22T18:46:02Z</time>
      </trkpt>
      <trkpt lat="45.13301" lon="4.5708">
        <ele>825.58</ele>
        <time>2022-03-22T18:46:04Z</time>
      </trkpt>
      <trkpt lat="45.13314" lon="4.57071">
        <ele>824.54</ele>
        <time>2022-03-22T18:46:06Z</time>
      </trkpt>
      <trkpt lat="45.13328" lon="4.57054">
        <ele>822.8</ele>
        <time>2022-03-22T18:46:08Z</time>
      </trkpt>
      <trkpt lat="45.13366" lon="4.56991">
        <ele>818.66</ele>
        <time>2022-03-22T18:46:10Z</time>
      </trkpt>
      <trkpt lat="45.13394" lon="4.5694">
        <ele>818.6</ele>
        <time>2022-03-22T18:46:11Z</time>
      </trkpt>
      <trkpt lat="45.13435" lon="4.56859">
        <ele>812.93</ele>
        <time>2022-03-22T18:46:13Z</time>
      </trkpt>
      <trkpt lat="45.13456" lon="4.56825">
        <ele>808.84</ele>
        <time>2022-03-22T18:46:15Z</time>
      </trkpt>
      <trkpt lat="45.13479" lon="4.56792">
        <ele>806.6</ele>
        <time>2022-03-22T18:46:17Z</time>
      </trkpt>
      <trkpt lat="45.13487" lon="4.56784">
        <ele>805.03</ele>
        <time>2022-03-22T18:46:19Z</time>
      </trkpt>
      <trkpt lat="45.13527" lon="4.56757">
        <ele>803.86</ele>
        <time>2022-03-22T18:46:21Z</time>
      </trkpt>
      <trkpt lat="45.13541" lon="4.56742">
        <ele>806.16</ele>
        <time>2022-03-22T18:46:23Z</time>
      </trkpt>
      <trkpt lat="45.13555" lon="4.56719">
        <ele>809.61</ele>
        <time>2022-03-22T18:46:25Z</time>
      </trkpt>
      <trkpt lat="45.13562" lon="4.56699">
        <ele>808.85</ele>
        <time>2022-03-22T18:46:27Z</time>
      </trkpt>
      <trkpt lat="45.13572" lon="4.56662">
        <ele>804.39</ele>
        <time>2022-03-22T18:46:29Z</time>
      </trkpt>
      <trkpt lat="45.13577" lon="4.56627">
        <ele>801.07</ele>
        <time>2022-03-22T18:46:31Z</time>
      </trkpt>
      <trkpt lat="45.13577" lon="4.56611">
        <ele>799.73</ele>
        <time>2022-03-22T18:46:33Z</time>
      </trkpt>
      <trkpt lat="45.13576" lon="4.56585">
        <ele>797.38</ele>
        <time>2022-03-22T18:46:35Z</time>
      </trkpt>
      <trkpt lat="45.13573" lon="4.56558">
        <ele>798</ele>
        <time>2022-03-22T18:46:36Z</time>
      </trkpt>
      <trkpt lat="45.13562" lon="4.5652">
        <ele>801.02</ele>
        <time>2022-03-22T18:46:38Z</time>
      </trkpt>
      <trkpt lat="45.13557" lon="4.56495">
        <ele>801.77</ele>
        <time>2022-03-22T18:46:40Z</time>
      </trkpt>
      <trkpt lat="45.13557" lon="4.56487">
        <ele>801.81</ele>
        <time>2022-03-22T18:46:42Z</time>
      </trkpt>
      <trkpt lat="45.13558" lon="4.5648">
        <ele>801.53</ele>
        <time>2022-03-22T18:46:44Z</time>
      </trkpt>
      <trkpt lat="45.13564" lon="4.56468">
        <ele>800.85</ele>
        <time>2022-03-22T18:46:46Z</time>
      </trkpt>
      <trkpt lat="45.13573" lon="4.5646">
        <ele>800.27</ele>
        <time>2022-03-22T18:46:48Z</time>
      </trkpt>
      <trkpt lat="45.13589" lon="4.56456">
        <ele>798.84</ele>
        <time>2022-03-22T18:46:50Z</time>
      </trkpt>
      <trkpt lat="45.13627" lon="4.56467">
        <ele>794.12</ele>
        <time>2022-03-22T18:46:52Z</time>
      </trkpt>
      <trkpt lat="45.1368" lon="4.56487">
        <ele>788.62</ele>
        <time>2022-03-22T18:46:54Z</time>
      </trkpt>
      <trkpt lat="45.13703" lon="4.56501">
        <ele>786.33</ele>
        <time>2022-03-22T18:46:56Z</time>
      </trkpt>
      <trkpt lat="45.13725" lon="4.56521">
        <ele>784.78</ele>
        <time>2022-03-22T18:46:58Z</time>
      </trkpt>
      <trkpt lat="45.13769" lon="4.56583">
        <ele>782.14</ele>
        <time>2022-03-22T18:47:00Z</time>
      </trkpt>
      <trkpt lat="45.13789" lon="4.56615">
        <ele>781.62</ele>
        <time>2022-03-22T18:47:01Z</time>
      </trkpt>
      <trkpt lat="45.1382" lon="4.56671">
        <ele>783.58</ele>
        <time>2022-03-22T18:47:03Z</time>
      </trkpt>
      <trkpt lat="45.13834" lon="4.56705">
        <ele>781.94</ele>
        <time>2022-03-22T18:47:05Z</time>
      </trkpt>
      <trkpt lat="45.13842" lon="4.56732">
        <ele>778.58</ele>
        <time>2022-03-22T18:47:07Z</time>
      </trkpt>
      <trkpt lat="45.13849" lon="4.56776">
        <ele>774.94</ele>
        <time>2022-03-22T18:47:09Z</time>
      </trkpt>
      <trkpt lat="45.13858" lon="4.56818">
        <ele>772.91</ele>
        <time>2022-03-22T18:47:11Z</time>
      </trkpt>
      <trkpt lat="45.13867" lon="4.56888">
        <ele>762.94</ele>
        <time>2022-03-22T18:47:13Z</time>
      </trkpt>
      <trkpt lat="45.1387" lon="4.56903">
        <ele>761.96</ele>
        <time>2022-03-22T18:47:15Z</time>
      </trkpt>
      <trkpt lat="45.1388" lon="4.56924">
        <ele>761.45</ele>
        <time>2022-03-22T18:47:17Z</time>
      </trkpt>
      <trkpt lat="45.13894" lon="4.56938">
        <ele>761.05</ele>
        <time>2022-03-22T18:47:19Z</time>
      </trkpt>
      <trkpt lat="45.13913" lon="4.5695">
        <ele>760.12</ele>
        <time>2022-03-22T18:47:21Z</time>
      </trkpt>
      <trkpt lat="45.13924" lon="4.56953">
        <ele>760.06</ele>
        <time>2022-03-22T18:47:23Z</time>
      </trkpt>
      <trkpt lat="45.13959" lon="4.56952">
        <ele>761.36</ele>
        <time>2022-03-22T18:47:24Z</time>
      </trkpt>
      <trkpt lat="45.14017" lon="4.56955">
        <ele>758.1</ele>
        <time>2022-03-22T18:47:26Z</time>
      </trkpt>
      <trkpt lat="45.14045" lon="4.56961">
        <ele>755.73</ele>
        <time>2022-03-22T18:47:28Z</time>
      </trkpt>
      <trkpt lat="45.14051" lon="4.56965">
        <ele>754.87</ele>
        <time>2022-03-22T18:47:30Z</time>
      </trkpt>
      <trkpt lat="45.14062" lon="4.56976">
        <ele>752.99</ele>
        <time>2022-03-22T18:47:32Z</time>
      </trkpt>
      <trkpt lat="45.14078" lon="4.57008">
        <ele>748.44</ele>
        <time>2022-03-22T18:47:34Z</time>
      </trkpt>
      <trkpt lat="45.14091" lon="4.57025">
        <ele>744.85</ele>
        <time>2022-03-22T18:47:36Z</time>
      </trkpt>
      <trkpt lat="45.14104" lon="4.57034">
        <ele>743.09</ele>
        <time>2022-03-22T18:47:38Z</time>
      </trkpt>
      <trkpt lat="45.14112" lon="4.57036">
        <ele>742.47</ele>
        <time>2022-03-22T18:47:40Z</time>
      </trkpt>
      <trkpt lat="45.14127" lon="4.57036">
        <ele>741.38</ele>
        <time>2022-03-22T18:47:42Z</time>
      </trkpt>
      <trkpt lat="45.14141" lon="4.57031">
        <ele>741.93</ele>
        <time>2022-03-22T18:47:44Z</time>
      </trkpt>
      <trkpt lat="45.14159" lon="4.57014">
        <ele>744.66</ele>
        <time>2022-03-22T18:47:46Z</time>
      </trkpt>
      <trkpt lat="45.14172" lon="4.56998">
        <ele>746.43</ele>
        <time>2022-03-22T18:47:48Z</time>
      </trkpt>
      <trkpt lat="45.14232" lon="4.56902">
        <ele>739.83</ele>
        <time>2022-03-22T18:47:49Z</time>
      </trkpt>
      <trkpt lat="45.14273" lon="4.56864">
        <ele>736.29</ele>
        <time>2022-03-22T18:47:51Z</time>
      </trkpt>
      <trkpt lat="45.14299" lon="4.56844">
        <ele>736.41</ele>
        <time>2022-03-22T18:47:53Z</time>
      </trkpt>
      <trkpt lat="45.14309" lon="4.56843">
        <ele>735.91</ele>
        <time>2022-03-22T18:47:55Z</time>
      </trkpt>
      <trkpt lat="45.14321" lon="4.56846">
        <ele>735.31</ele>
        <time>2022-03-22T18:47:57Z</time>
      </trkpt>
      <trkpt lat="45.14327" lon="4.56851">
        <ele>734.79</ele>
        <time>2022-03-22T18:47:59Z</time>
      </trkpt>
      <trkpt lat="45.14336" lon="4.56864">
        <ele>734.4</ele>
        <time>2022-03-22T18:48:01Z</time>
      </trkpt>
      <trkpt lat="45.14339" lon="4.56878">
        <ele>735.43</ele>
        <time>2022-03-22T18:48:03Z</time>
      </trkpt>
      <trkpt lat="45.14339" lon="4.56887">
        <ele>735.84</ele>
        <time>2022-03-22T18:48:05Z</time>
      </trkpt>
      <trkpt lat="45.14335" lon="4.56904">
        <ele>736.42</ele>
        <time>2022-03-22T18:48:07Z</time>
      </trkpt>
      <trkpt lat="45.14284" lon="4.57003">
        <ele>733.14</ele>
        <time>2022-03-22T18:48:09Z</time>
      </trkpt>
      <trkpt lat="45.14273" lon="4.57034">
        <ele>733.07</ele>
        <time>2022-03-22T18:48:11Z</time>
      </trkpt>
      <trkpt lat="45.14252" lon="4.57107">
        <ele>729.45</ele>
        <time>2022-03-22T18:48:13Z</time>
      </trkpt>
      <trkpt lat="45.14241" lon="4.57128">
        <ele>726.71</ele>
        <time>2022-03-22T18:48:14Z</time>
      </trkpt>
      <trkpt lat="45.14225" lon="4.57148">
        <ele>722.77</ele>
        <time>2022-03-22T18:48:16Z</time>
      </trkpt>
      <trkpt lat="45.14172" lon="4.572">
        <ele>717.87</ele>
        <time>2022-03-22T18:48:18Z</time>
      </trkpt>
      <trkpt lat="45.14154" lon="4.57215">
        <ele>717.98</ele>
        <time>2022-03-22T18:48:20Z</time>
      </trkpt>
      <trkpt lat="45.14133" lon="4.57229">
        <ele>715.83</ele>
        <time>2022-03-22T18:48:22Z</time>
      </trkpt>
      <trkpt lat="45.14081" lon="4.5725">
        <ele>705.74</ele>
        <time>2022-03-22T18:48:24Z</time>
      </trkpt>
      <trkpt lat="45.14022" lon="4.57278">
        <ele>704.66</ele>
        <time>2022-03-22T18:48:26Z</time>
      </trkpt>
      <trkpt lat="45.13992" lon="4.57299">
        <ele>701.23</ele>
        <time>2022-03-22T18:48:28Z</time>
      </trkpt>
      <trkpt lat="45.13959" lon="4.57328">
        <ele>696.67</ele>
        <time>2022-03-22T18:48:30Z</time>
      </trkpt>
      <trkpt lat="45.13948" lon="4.57343">
        <ele>696.14</ele>
        <time>2022-03-22T18:48:32Z</time>
      </trkpt>
      <trkpt lat="45.13943" lon="4.57352">
        <ele>696.46</ele>
        <time>2022-03-22T18:48:34Z</time>
      </trkpt>
      <trkpt lat="45.13931" lon="4.57385">
        <ele>697.84</ele>
        <time>2022-03-22T18:48:36Z</time>
      </trkpt>
      <trkpt lat="45.13903" lon="4.57438">
        <ele>689.29</ele>
        <time>2022-03-22T18:48:37Z</time>
      </trkpt>
      <trkpt lat="45.13898" lon="4.57453">
        <ele>688.14</ele>
        <time>2022-03-22T18:48:39Z</time>
      </trkpt>
      <trkpt lat="45.13895" lon="4.57486">
        <ele>688.69</ele>
        <time>2022-03-22T18:48:41Z</time>
      </trkpt>
      <trkpt lat="45.13895" lon="4.57746">
        <ele>675.32</ele>
        <time>2022-03-22T18:48:43Z</time>
      </trkpt>
      <trkpt lat="45.13897" lon="4.57781">
        <ele>672.8</ele>
        <time>2022-03-22T18:48:45Z</time>
      </trkpt>
      <trkpt lat="45.13894" lon="4.57802">
        <ele>671.35</ele>
        <time>2022-03-22T18:48:47Z</time>
      </trkpt>
      <trkpt lat="45.13883" lon="4.57854">
        <ele>664.38</ele>
        <time>2022-03-22T18:48:49Z</time>
      </trkpt>
      <trkpt lat="45.13882" lon="4.57865">
        <ele>663.13</ele>
        <time>2022-03-22T18:48:51Z</time>
      </trkpt>
      <trkpt lat="45.13884" lon="4.57878">
        <ele>662.22</ele>
        <time>2022-03-22T18:48:53Z</time>
      </trkpt>
      <trkpt lat="45.1389" lon="4.57891">
        <ele>661.74</ele>
        <time>2022-03-22T18:48:55Z</time>
      </trkpt>
      <trkpt lat="45.13894" lon="4.57896">
        <ele>661.15</ele>
        <time>2022-03-22T18:48:57Z</time>
      </trkpt>
      <trkpt lat="45.1391" lon="4.57909">
        <ele>660.08</ele>
        <time>2022-03-22T18:48:59Z</time>
      </trkpt>
      <trkpt lat="45.1393" lon="4.57921">
        <ele>658.4</ele>
        <time>2022-03-22T18:49:01Z</time>
      </trkpt>
      <trkpt lat="45.13962" lon="4.57933">
        <ele>660.63</ele>
        <time>2022-03-22T18:49:02Z</time>
      </trkpt>
      <trkpt lat="45.13969" lon="4.57941">
        <ele>660.75</ele>
        <time>2022-03-22T18:49:04Z</time>
      </trkpt>
      <trkpt lat="45.13974" lon="4.57954">
        <ele>660.92</ele>
        <time>2022-03-22T18:49:06Z</time>
      </trkpt>
      <trkpt lat="45.13975" lon="4.57969">
        <ele>660.21</ele>
        <time>2022-03-22T18:49:08Z</time>
      </trkpt>
      <trkpt lat="45.13962" lon="4.58031">
        <ele>659.21</ele>
        <time>2022-03-22T18:49:10Z</time>
      </trkpt>
      <trkpt lat="45.13959" lon="4.58095">
        <ele>658.29</ele>
        <time>2022-03-22T18:49:12Z</time>
      </trkpt>
      <trkpt lat="45.13959" lon="4.58212">
        <ele>646.8</ele>
        <time>2022-03-22T18:49:14Z</time>
      </trkpt>
      <trkpt lat="45.13963" lon="4.58237">
        <ele>643.8</ele>
        <time>2022-03-22T18:49:16Z</time>
      </trkpt>
      <trkpt lat="45.13971" lon="4.58256">
        <ele>643.15</ele>
        <time>2022-03-22T18:49:18Z</time>
      </trkpt>
      <trkpt lat="45.13982" lon="4.5827">
        <ele>644.16</ele>
        <time>2022-03-22T18:49:20Z</time>
      </trkpt>
      <trkpt lat="45.14008" lon="4.58287">
        <ele>644.1</ele>
        <time>2022-03-22T18:49:22Z</time>
      </trkpt>
      <trkpt lat="45.14027" lon="4.58294">
        <ele>643.49</ele>
        <time>2022-03-22T18:49:24Z</time>
      </trkpt>
      <trkpt lat="45.14051" lon="4.58296">
        <ele>642.26</ele>
        <time>2022-03-22T18:49:26Z</time>
      </trkpt>
      <trkpt lat="45.14143" lon="4.58258">
        <ele>643.29</ele>
        <time>2022-03-22T18:49:27Z</time>
      </trkpt>
      <trkpt lat="45.14153" lon="4.5826">
        <ele>643.22</ele>
        <time>2022-03-22T18:49:29Z</time>
      </trkpt>
      <trkpt lat="45.14161" lon="4.58266">
        <ele>642.33</ele>
        <time>2022-03-22T18:49:31Z</time>
      </trkpt>
      <trkpt lat="45.14165" lon="4.58272">
        <ele>641.74</ele>
        <time>2022-03-22T18:49:33Z</time>
      </trkpt>
      <trkpt lat="45.14169" lon="4.58286">
        <ele>641.24</ele>
        <time>2022-03-22T18:49:35Z</time>
      </trkpt>
      <trkpt lat="45.14169" lon="4.583">
        <ele>640.23</ele>
        <time>2022-03-22T18:49:37Z</time>
      </trkpt>
      <trkpt lat="45.14164" lon="4.5832">
        <ele>638.49</ele>
        <time>2022-03-22T18:49:39Z</time>
      </trkpt>
      <trkpt lat="45.14122" lon="4.58409">
        <ele>638.66</ele>
        <time>2022-03-22T18:49:41Z</time>
      </trkpt>
      <trkpt lat="45.14118" lon="4.5842">
        <ele>638.18</ele>
        <time>2022-03-22T18:49:43Z</time>
      </trkpt>
      <trkpt lat="45.14116" lon="4.58443">
        <ele>636.67</ele>
        <time>2022-03-22T18:49:45Z</time>
      </trkpt>
      <trkpt lat="45.14123" lon="4.58548">
        <ele>633.31</ele>
        <time>2022-03-22T18:49:47Z</time>
      </trkpt>
      <trkpt lat="45.14121" lon="4.58627">
        <ele>627.25</ele>
        <time>2022-03-22T18:49:49Z</time>
      </trkpt>
      <trkpt lat="45.14129" lon="4.58707">
        <ele>625.1</ele>
        <time>2022-03-22T18:49:50Z</time>
      </trkpt>
      <trkpt lat="45.14129" lon="4.58792">
        <ele>615.6</ele>
        <time>2022-03-22T18:49:52Z</time>
      </trkpt>
      <trkpt lat="45.14131" lon="4.58815">
        <ele>612.41</ele>
        <time>2022-03-22T18:49:54Z</time>
      </trkpt>
      <trkpt lat="45.14134" lon="4.58825">
        <ele>610.99</ele>
        <time>2022-03-22T18:49:56Z</time>
      </trkpt>
      <trkpt lat="45.14142" lon="4.58844">
        <ele>609.77</ele>
        <time>2022-03-22T18:49:58Z</time>
      </trkpt>
      <trkpt lat="45.14174" lon="4.58888">
        <ele>609.62</ele>
        <time>2022-03-22T18:50:00Z</time>
      </trkpt>
      <trkpt lat="45.14183" lon="4.58904">
        <ele>609.54</ele>
        <time>2022-03-22T18:50:02Z</time>
      </trkpt>
      <trkpt lat="45.1419" lon="4.58922">
        <ele>609.03</ele>
        <time>2022-03-22T18:50:04Z</time>
      </trkpt>
      <trkpt lat="45.14193" lon="4.5895">
        <ele>607.56</ele>
        <time>2022-03-22T18:50:06Z</time>
      </trkpt>
      <trkpt lat="45.14192" lon="4.58988">
        <ele>606.76</ele>
        <time>2022-03-22T18:50:08Z</time>
      </trkpt>
      <trkpt lat="45.14194" lon="4.59017">
        <ele>604.46</ele>
        <time>2022-03-22T18:50:10Z</time>
      </trkpt>
      <trkpt lat="45.14204" lon="4.59076">
        <ele>600.23</ele>
        <time>2022-03-22T18:50:12Z</time>
      </trkpt>
      <trkpt lat="45.14244" lon="4.59208">
        <ele>593.48</ele>
        <time>2022-03-22T18:50:14Z</time>
      </trkpt>
      <trkpt lat="45.14258" lon="4.59237">
        <ele>592.24</ele>
        <time>2022-03-22T18:50:15Z</time>
      </trkpt>
      <trkpt lat="45.14267" lon="4.59252">
        <ele>591.19</ele>
        <time>2022-03-22T18:50:17Z</time>
      </trkpt>
      <trkpt lat="45.14283" lon="4.59274">
        <ele>588.41</ele>
        <time>2022-03-22T18:50:19Z</time>
      </trkpt>
      <trkpt lat="45.14299" lon="4.59291">
        <ele>586.53</ele>
        <time>2022-03-22T18:50:21Z</time>
      </trkpt>
      <trkpt lat="45.14311" lon="4.59296">
        <ele>586.03</ele>
        <time>2022-03-22T18:50:23Z</time>
      </trkpt>
      <trkpt lat="45.14319" lon="4.59296">
        <ele>585.79</ele>
        <time>2022-03-22T18:50:25Z</time>
      </trkpt>
      <trkpt lat="45.14333" lon="4.59292">
        <ele>586.56</ele>
        <time>2022-03-22T18:50:27Z</time>
      </trkpt>
      <trkpt lat="45.1439" lon="4.59261">
        <ele>593.38</ele>
        <time>2022-03-22T18:50:29Z</time>
      </trkpt>
      <trkpt lat="45.14398" lon="4.59263">
        <ele>593.08</ele>
        <time>2022-03-22T18:50:31Z</time>
      </trkpt>
      <trkpt lat="45.14405" lon="4.59272">
        <ele>592.2</ele>
        <time>2022-03-22T18:50:33Z</time>
      </trkpt>
      <trkpt lat="45.14407" lon="4.59278">
        <ele>591.63</ele>
        <time>2022-03-22T18:50:35Z</time>
      </trkpt>
      <trkpt lat="45.14405" lon="4.59298">
        <ele>590.68</ele>
        <time>2022-03-22T18:50:37Z</time>
      </trkpt>
      <trkpt lat="45.14396" lon="4.59326">
        <ele>587.49</ele>
        <time>2022-03-22T18:50:39Z</time>
      </trkpt>
      <trkpt lat="45.14388" lon="4.59361">
        <ele>583.74</ele>
        <time>2022-03-22T18:50:40Z</time>
      </trkpt>
      <trkpt lat="45.14381" lon="4.59374">
        <ele>582.08</ele>
        <time>2022-03-22T18:50:42Z</time>
      </trkpt>
      <trkpt lat="45.14314" lon="4.59433">
        <ele>573.6</ele>
        <time>2022-03-22T18:50:44Z</time>
      </trkpt>
      <trkpt lat="45.14284" lon="4.59456">
        <ele>571.01</ele>
        <time>2022-03-22T18:50:46Z</time>
      </trkpt>
      <trkpt lat="45.14257" lon="4.59472">
        <ele>566.76</ele>
        <time>2022-03-22T18:50:48Z</time>
      </trkpt>
      <trkpt lat="45.14243" lon="4.59482">
        <ele>564.91</ele>
        <time>2022-03-22T18:50:50Z</time>
      </trkpt>
      <trkpt lat="45.1416" lon="4.59579">
        <ele>558.41</ele>
        <time>2022-03-22T18:50:52Z</time>
      </trkpt>
      <trkpt lat="45.14151" lon="4.59594">
        <ele>556.5</ele>
        <time>2022-03-22T18:50:54Z</time>
      </trkpt>
      <trkpt lat="45.14147" lon="4.5961">
        <ele>556.32</ele>
        <time>2022-03-22T18:50:56Z</time>
      </trkpt>
      <trkpt lat="45.1415" lon="4.59631">
        <ele>556.1</ele>
        <time>2022-03-22T18:50:58Z</time>
      </trkpt>
      <trkpt lat="45.14165" lon="4.59672">
        <ele>556.73</ele>
        <time>2022-03-22T18:51:00Z</time>
      </trkpt>
      <trkpt lat="45.14182" lon="4.59735">
        <ele>553.19</ele>
        <time>2022-03-22T18:51:02Z</time>
      </trkpt>
      <trkpt lat="45.14216" lon="4.59821">
        <ele>547.19</ele>
        <time>2022-03-22T18:51:03Z</time>
      </trkpt>
      <trkpt lat="45.14227" lon="4.59854">
        <ele>546.28</ele>
        <time>2022-03-22T18:51:05Z</time>
      </trkpt>
      <trkpt lat="45.14239" lon="4.59907">
        <ele>541.22</ele>
        <time>2022-03-22T18:51:07Z</time>
      </trkpt>
      <trkpt lat="45.14254" lon="4.59958">
        <ele>538.73</ele>
        <time>2022-03-22T18:51:09Z</time>
      </trkpt>
      <trkpt lat="45.14268" lon="4.59991">
        <ele>539.36</ele>
        <time>2022-03-22T18:51:11Z</time>
      </trkpt>
      <trkpt lat="45.1428" lon="4.60014">
        <ele>539.11</ele>
        <time>2022-03-22T18:51:13Z</time>
      </trkpt>
      <trkpt lat="45.14284" lon="4.60026">
        <ele>537.93</ele>
        <time>2022-03-22T18:51:15Z</time>
      </trkpt>
      <trkpt lat="45.14287" lon="4.60057">
        <ele>532.58</ele>
        <time>2022-03-22T18:51:17Z</time>
      </trkpt>
      <trkpt lat="45.14292" lon="4.60085">
        <ele>531.21</ele>
        <time>2022-03-22T18:51:19Z</time>
      </trkpt>
      <trkpt lat="45.14355" lon="4.60221">
        <ele>522.04</ele>
        <time>2022-03-22T18:51:21Z</time>
      </trkpt>
      <trkpt lat="45.14369" lon="4.6024">
        <ele>521.56</ele>
        <time>2022-03-22T18:51:23Z</time>
      </trkpt>
      <trkpt lat="45.14398" lon="4.60266">
        <ele>522.32</ele>
        <time>2022-03-22T18:51:25Z</time>
      </trkpt>
      <trkpt lat="45.14422" lon="4.60308">
        <ele>519.03</ele>
        <time>2022-03-22T18:51:27Z</time>
      </trkpt>
      <trkpt lat="45.14434" lon="4.60335">
        <ele>518.57</ele>
        <time>2022-03-22T18:51:28Z</time>
      </trkpt>
      <trkpt lat="45.1445" lon="4.60374">
        <ele>515.98</ele>
        <time>2022-03-22T18:51:30Z</time>
      </trkpt>
      <trkpt lat="45.14489" lon="4.60461">
        <ele>510.55</ele>
        <time>2022-03-22T18:51:32Z</time>
      </trkpt>
      <trkpt lat="45.14512" lon="4.60497">
        <ele>509.97</ele>
        <time>2022-03-22T18:51:34Z</time>
      </trkpt>
      <trkpt lat="45.14584" lon="4.6062">
        <ele>511.21</ele>
        <time>2022-03-22T18:51:36Z</time>
      </trkpt>
      <trkpt lat="45.14659" lon="4.60729">
        <ele>504.68</ele>
        <time>2022-03-22T18:51:38Z</time>
      </trkpt>
      <trkpt lat="45.14728" lon="4.60824">
        <ele>506.52</ele>
        <time>2022-03-22T18:51:40Z</time>
      </trkpt>
      <trkpt lat="45.1476" lon="4.60886">
        <ele>504.81</ele>
        <time>2022-03-22T18:51:42Z</time>
      </trkpt>
      <trkpt lat="45.14808" lon="4.60994">
        <ele>496.36</ele>
        <time>2022-03-22T18:51:44Z</time>
      </trkpt>
      <trkpt lat="45.14815" lon="4.61006">
        <ele>497.24</ele>
        <time>2022-03-22T18:51:46Z</time>
      </trkpt>
      <trkpt lat="45.1485" lon="4.61045">
        <ele>502.21</ele>
        <time>2022-03-22T18:51:48Z</time>
      </trkpt>
      <trkpt lat="45.14862" lon="4.61062">
        <ele>502.41</ele>
        <time>2022-03-22T18:51:50Z</time>
      </trkpt>
      <trkpt lat="45.14875" lon="4.61086">
        <ele>500.71</ele>
        <time>2022-03-22T18:51:52Z</time>
      </trkpt>
      <trkpt lat="45.1488" lon="4.611">
        <ele>499.17</ele>
        <time>2022-03-22T18:51:53Z</time>
      </trkpt>
      <trkpt lat="45.14899" lon="4.61173">
        <ele>490.8</ele>
        <time>2022-03-22T18:51:55Z</time>
      </trkpt>
      <trkpt lat="45.1491" lon="4.61217">
        <ele>486.47</ele>
        <time>2022-03-22T18:51:57Z</time>
      </trkpt>
      <trkpt lat="45.14922" lon="4.61247">
        <ele>484.4</ele>
        <time>2022-03-22T18:51:59Z</time>
      </trkpt>
      <trkpt lat="45.14932" lon="4.61266">
        <ele>484.25</ele>
        <time>2022-03-22T18:52:01Z</time>
      </trkpt>
      <trkpt lat="45.14947" lon="4.61286">
        <ele>484.4</ele>
        <time>2022-03-22T18:52:03Z</time>
      </trkpt>
      <trkpt lat="45.14972" lon="4.61337">
        <ele>485.7</ele>
        <time>2022-03-22T18:52:05Z</time>
      </trkpt>
      <trkpt lat="45.14986" lon="4.61354">
        <ele>484.76</ele>
        <time>2022-03-22T18:52:07Z</time>
      </trkpt>
      <trkpt lat="45.15015" lon="4.61383">
        <ele>484.88</ele>
        <time>2022-03-22T18:52:09Z</time>
      </trkpt>
      <trkpt lat="45.1503" lon="4.61404">
        <ele>486.4</ele>
        <time>2022-03-22T18:52:11Z</time>
      </trkpt>
      <trkpt lat="45.15037" lon="4.61416">
        <ele>487.27</ele>
        <time>2022-03-22T18:52:13Z</time>
      </trkpt>
      <trkpt lat="45.15064" lon="4.61491">
        <ele>481.07</ele>
        <time>2022-03-22T18:52:15Z</time>
      </trkpt>
      <trkpt lat="45.15096" lon="4.61547">
        <ele>477.61</ele>
        <time>2022-03-22T18:52:16Z</time>
      </trkpt>
      <trkpt lat="45.15105" lon="4.6157">
        <ele>476.88</ele>
        <time>2022-03-22T18:52:18Z</time>
      </trkpt>
      <trkpt lat="45.15107" lon="4.61579">
        <ele>476.88</ele>
        <time>2022-03-22T18:52:20Z</time>
      </trkpt>
      <trkpt lat="45.15112" lon="4.61611">
        <ele>477.04</ele>
        <time>2022-03-22T18:52:22Z</time>
      </trkpt>
      <trkpt lat="45.15116" lon="4.61628">
        <ele>477.45</ele>
        <time>2022-03-22T18:52:24Z</time>
      </trkpt>
      <trkpt lat="45.15139" lon="4.61695">
        <ele>479.05</ele>
        <time>2022-03-22T18:52:26Z</time>
      </trkpt>
      <trkpt lat="45.15147" lon="4.61725">
        <ele>478.23</ele>
        <time>2022-03-22T18:52:28Z</time>
      </trkpt>
      <trkpt lat="45.15151" lon="4.61746">
        <ele>476.97</ele>
        <time>2022-03-22T18:52:30Z</time>
      </trkpt>
      <trkpt lat="45.1516" lon="4.6177">
        <ele>476.34</ele>
        <time>2022-03-22T18:52:32Z</time>
      </trkpt>
      <trkpt lat="45.15172" lon="4.61794">
        <ele>476.31</ele>
        <time>2022-03-22T18:52:34Z</time>
      </trkpt>
      <trkpt lat="45.15226" lon="4.61878">
        <ele>476.75</ele>
        <time>2022-03-22T18:52:36Z</time>
      </trkpt>
      <trkpt lat="45.15263" lon="4.6194">
        <ele>479.4</ele>
        <time>2022-03-22T18:52:38Z</time>
      </trkpt>
      <trkpt lat="45.1532" lon="4.62046">
        <ele>473.17</ele>
        <time>2022-03-22T18:52:40Z</time>
      </trkpt>
      <trkpt lat="45.1544" lon="4.6224">
        <ele>470.49</ele>
        <time>2022-03-22T18:52:41Z</time>
      </trkpt>
      <trkpt lat="45.15479" lon="4.62307">
        <ele>467.86</ele>
        <time>2022-03-22T18:52:43Z</time>
      </trkpt>
      <trkpt lat="45.15573" lon="4.62465">
        <ele>467.42</ele>
        <time>2022-03-22T18:52:45Z</time>
      </trkpt>
      <trkpt lat="45.15585" lon="4.62489">
        <ele>466.99</ele>
        <time>2022-03-22T18:52:47Z</time>
      </trkpt>
      <trkpt lat="45.15595" lon="4.62532">
        <ele>465.43</ele>
        <time>2022-03-22T18:52:49Z</time>
      </trkpt>
      <trkpt lat="45.15604" lon="4.62559">
        <ele>465.38</ele>
        <time>2022-03-22T18:52:51Z</time>
      </trkpt>
      <trkpt lat="45.15748" lon="4.62848">
        <ele>456.27</ele>
        <time>2022-03-22T18:52:53Z</time>
      </trkpt>
      <trkpt lat="45.15754" lon="4.62863">
        <ele>456.79</ele>
        <time>2022-03-22T18:52:55Z</time>
      </trkpt>
      <trkpt lat="45.15759" lon="4.62881">
        <ele>457.84</ele>
        <time>2022-03-22T18:52:57Z</time>
      </trkpt>
      <trkpt lat="45.15759" lon="4.62907">
        <ele>458.41</ele>
        <time>2022-03-22T18:52:59Z</time>
      </trkpt>
      <trkpt lat="45.15743" lon="4.62985">
        <ele>458.88</ele>
        <time>2022-03-22T18:53:01Z</time>
      </trkpt>
      <trkpt lat="45.15741" lon="4.63008">
        <ele>458.57</ele>
        <time>2022-03-22T18:53:03Z</time>
      </trkpt>
      <trkpt lat="45.15745" lon="4.63038">
        <ele>457.76</ele>
        <time>2022-03-22T18:53:05Z</time>
      </trkpt>
      <trkpt lat="45.1575" lon="4.63068">
        <ele>456.53</ele>
        <time>2022-03-22T18:53:06Z</time>
      </trkpt>
      <trkpt lat="45.15757" lon="4.63087">
        <ele>457.22</ele>
        <time>2022-03-22T18:53:08Z</time>
      </trkpt>
      <trkpt lat="45.15761" lon="4.63093">
        <ele>457.59</ele>
        <time>2022-03-22T18:53:10Z</time>
      </trkpt>
      <trkpt lat="45.15779" lon="4.63113">
        <ele>460.02</ele>
        <time>2022-03-22T18:53:12Z</time>
      </trkpt>
      <trkpt lat="45.15798" lon="4.63128">
        <ele>460.93</ele>
        <time>2022-03-22T18:53:14Z</time>
      </trkpt>
      <trkpt lat="45.15814" lon="4.63164">
        <ele>457.67</ele>
        <time>2022-03-22T18:53:16Z</time>
      </trkpt>
      <trkpt lat="45.15823" lon="4.63177">
        <ele>456.9</ele>
        <time>2022-03-22T18:53:19Z</time>
      </trkpt>
      <trkpt lat="45.15827" lon="4.63182">
        <ele>456.53</ele>
        <time>2022-03-22T18:53:21Z</time>
      </trkpt>
      <trkpt lat="45.15834" lon="4.63186">
        <ele>456.56</ele>
        <time>2022-03-22T18:53:23Z</time>
      </trkpt>
      <trkpt lat="45.15873" lon="4.63191">
        <ele>459.42</ele>
        <time>2022-03-22T18:53:25Z</time>
      </trkpt>
      <trkpt lat="45.15882" lon="4.63195">
        <ele>459.89</ele>
        <time>2022-03-22T18:53:28Z</time>
      </trkpt>
      <trkpt lat="45.15908" lon="4.63216">
        <ele>459.72</ele>
        <time>2022-03-22T18:53:30Z</time>
      </trkpt>
      <trkpt lat="45.15922" lon="4.63235">
        <ele>458.72</ele>
        <time>2022-03-22T18:53:32Z</time>
      </trkpt>
      <trkpt lat="45.15929" lon="4.63252">
        <ele>457.27</ele>
        <time>2022-03-22T18:53:34Z</time>
      </trkpt>
      <trkpt lat="45.15938" lon="4.63294">
        <ele>456.72</ele>
        <time>2022-03-22T18:53:37Z</time>
      </trkpt>
      <trkpt lat="45.15947" lon="4.6331">
        <ele>457.09</ele>
        <time>2022-03-22T18:53:39Z</time>
      </trkpt>
      <trkpt lat="45.15959" lon="4.63323">
        <ele>458.79</ele>
        <time>2022-03-22T18:53:41Z</time>
      </trkpt>
      <trkpt lat="45.15993" lon="4.63351">
        <ele>461.11</ele>
        <time>2022-03-22T18:53:43Z</time>
      </trkpt>
      <trkpt lat="45.16027" lon="4.63398">
        <ele>454.93</ele>
        <time>2022-03-22T18:53:45Z</time>
      </trkpt>
      <trkpt lat="45.16053" lon="4.63437">
        <ele>452.35</ele>
        <time>2022-03-22T18:53:48Z</time>
      </trkpt>
      <trkpt lat="45.16185" lon="4.63608">
        <ele>453.24</ele>
        <time>2022-03-22T18:53:50Z</time>
      </trkpt>
      <trkpt lat="45.16203" lon="4.63647">
        <ele>453.12</ele>
        <time>2022-03-22T18:53:52Z</time>
      </trkpt>
      <trkpt lat="45.16241" lon="4.63758">
        <ele>451.11</ele>
        <time>2022-03-22T18:53:54Z</time>
      </trkpt>
      <trkpt lat="45.16245" lon="4.63783">
        <ele>451.5</ele>
        <time>2022-03-22T18:53:57Z</time>
      </trkpt>
      <trkpt lat="45.16256" lon="4.63949">
        <ele>446.21</ele>
        <time>2022-03-22T18:53:59Z</time>
      </trkpt>
      <trkpt lat="45.16265" lon="4.63993">
        <ele>446.65</ele>
        <time>2022-03-22T18:54:01Z</time>
      </trkpt>
      <trkpt lat="45.16293" lon="4.64095">
        <ele>442.2</ele>
        <time>2022-03-22T18:54:03Z</time>
      </trkpt>
      <trkpt lat="45.16305" lon="4.64118">
        <ele>441.45</ele>
        <time>2022-03-22T18:54:06Z</time>
      </trkpt>
      <trkpt lat="45.16338" lon="4.64159">
        <ele>442.61</ele>
        <time>2022-03-22T18:54:08Z</time>
      </trkpt>
      <trkpt lat="45.16349" lon="4.64181">
        <ele>443.1</ele>
        <time>2022-03-22T18:54:10Z</time>
      </trkpt>
      <trkpt lat="45.16355" lon="4.64203">
        <ele>442.25</ele>
        <time>2022-03-22T18:54:12Z</time>
      </trkpt>
      <trkpt lat="45.16357" lon="4.64224">
        <ele>441.14</ele>
        <time>2022-03-22T18:54:15Z</time>
      </trkpt>
      <trkpt lat="45.16358" lon="4.64258">
        <ele>439.28</ele>
        <time>2022-03-22T18:54:17Z</time>
      </trkpt>
      <trkpt lat="45.1635" lon="4.6432">
        <ele>436.69</ele>
        <time>2022-03-22T18:54:19Z</time>
      </trkpt>
      <trkpt lat="45.16339" lon="4.6438">
        <ele>436.89</ele>
        <time>2022-03-22T18:54:21Z</time>
      </trkpt>
      <trkpt lat="45.16328" lon="4.64435">
        <ele>441.14</ele>
        <time>2022-03-22T18:54:24Z</time>
      </trkpt>
      <trkpt lat="45.16302" lon="4.64526">
        <ele>441.89</ele>
        <time>2022-03-22T18:54:26Z</time>
      </trkpt>
      <trkpt lat="45.16296" lon="4.64554">
        <ele>442.17</ele>
        <time>2022-03-22T18:54:28Z</time>
      </trkpt>
      <trkpt lat="45.16294" lon="4.6459">
        <ele>440.39</ele>
        <time>2022-03-22T18:54:30Z</time>
      </trkpt>
      <trkpt lat="45.16302" lon="4.64633">
        <ele>440.07</ele>
        <time>2022-03-22T18:54:32Z</time>
      </trkpt>
      <trkpt lat="45.16303" lon="4.6469">
        <ele>437.79</ele>
        <time>2022-03-22T18:54:35Z</time>
      </trkpt>
      <trkpt lat="45.16311" lon="4.64713">
        <ele>439.12</ele>
        <time>2022-03-22T18:54:37Z</time>
      </trkpt>
      <trkpt lat="45.1633" lon="4.64757">
        <ele>442.1</ele>
        <time>2022-03-22T18:54:39Z</time>
      </trkpt>
      <trkpt lat="45.16333" lon="4.64776">
        <ele>442.98</ele>
        <time>2022-03-22T18:54:41Z</time>
      </trkpt>
      <trkpt lat="45.16332" lon="4.64804">
        <ele>443.61</ele>
        <time>2022-03-22T18:54:44Z</time>
      </trkpt>
      <trkpt lat="45.16324" lon="4.64846">
        <ele>441.31</ele>
        <time>2022-03-22T18:54:46Z</time>
      </trkpt>
      <trkpt lat="45.16323" lon="4.64875">
        <ele>441.35</ele>
        <time>2022-03-22T18:54:48Z</time>
      </trkpt>
      <trkpt lat="45.16338" lon="4.6497">
        <ele>442.11</ele>
        <time>2022-03-22T18:54:50Z</time>
      </trkpt>
      <trkpt lat="45.16345" lon="4.6503">
        <ele>443.57</ele>
        <time>2022-03-22T18:54:53Z</time>
      </trkpt>
      <trkpt lat="45.1634" lon="4.6508">
        <ele>439.41</ele>
        <time>2022-03-22T18:54:55Z</time>
      </trkpt>
      <trkpt lat="45.1634" lon="4.65099">
        <ele>439.11</ele>
        <time>2022-03-22T18:54:57Z</time>
      </trkpt>
      <trkpt lat="45.16345" lon="4.65126">
        <ele>439.46</ele>
        <time>2022-03-22T18:54:59Z</time>
      </trkpt>
      <trkpt lat="45.16355" lon="4.65157">
        <ele>439.76</ele>
        <time>2022-03-22T18:55:02Z</time>
      </trkpt>
      <trkpt lat="45.16488" lon="4.6543">
        <ele>437.16</ele>
        <time>2022-03-22T18:55:04Z</time>
      </trkpt>
      <trkpt lat="45.16505" lon="4.65454">
        <ele>436.56</ele>
        <time>2022-03-22T18:55:06Z</time>
      </trkpt>
      <trkpt lat="45.16525" lon="4.65466">
        <ele>436.59</ele>
        <time>2022-03-22T18:55:08Z</time>
      </trkpt>
      <trkpt lat="45.16582" lon="4.65465">
        <ele>437.12</ele>
        <time>2022-03-22T18:55:11Z</time>
      </trkpt>
      <trkpt lat="45.166" lon="4.65471">
        <ele>435.58</ele>
        <time>2022-03-22T18:55:13Z</time>
      </trkpt>
      <trkpt lat="45.1661" lon="4.65484">
        <ele>434.98</ele>
        <time>2022-03-22T18:55:15Z</time>
      </trkpt>
      <trkpt lat="45.16614" lon="4.65498">
        <ele>435.35</ele>
        <time>2022-03-22T18:55:17Z</time>
      </trkpt>
      <trkpt lat="45.16615" lon="4.65513">
        <ele>436.52</ele>
        <time>2022-03-22T18:55:19Z</time>
      </trkpt>
      <trkpt lat="45.16612" lon="4.65532">
        <ele>437.61</ele>
        <time>2022-03-22T18:55:22Z</time>
      </trkpt>
      <trkpt lat="45.16605" lon="4.65547">
        <ele>438.45</ele>
        <time>2022-03-22T18:55:24Z</time>
      </trkpt>
      <trkpt lat="45.16552" lon="4.65607">
        <ele>439.34</ele>
        <time>2022-03-22T18:55:26Z</time>
      </trkpt>
      <trkpt lat="45.16532" lon="4.65632">
        <ele>440.7</ele>
        <time>2022-03-22T18:55:28Z</time>
      </trkpt>
      <trkpt lat="45.16527" lon="4.65643">
        <ele>441.38</ele>
        <time>2022-03-22T18:55:31Z</time>
      </trkpt>
      <trkpt lat="45.16524" lon="4.65658">
        <ele>442.76</ele>
        <time>2022-03-22T18:55:33Z</time>
      </trkpt>
      <trkpt lat="45.16528" lon="4.65721">
        <ele>446.93</ele>
        <time>2022-03-22T18:55:35Z</time>
      </trkpt>
      <trkpt lat="45.16526" lon="4.65729">
        <ele>447.02</ele>
        <time>2022-03-22T18:55:37Z</time>
      </trkpt>
      <trkpt lat="45.16516" lon="4.65759">
        <ele>446.57</ele>
        <time>2022-03-22T18:55:40Z</time>
      </trkpt>
      <trkpt lat="45.16474" lon="4.65856">
        <ele>450.6</ele>
        <time>2022-03-22T18:55:42Z</time>
      </trkpt>
      <trkpt lat="45.16433" lon="4.66003">
        <ele>455.71</ele>
        <time>2022-03-22T18:55:44Z</time>
      </trkpt>
      <trkpt lat="45.1643" lon="4.66027">
        <ele>456.46</ele>
        <time>2022-03-22T18:55:46Z</time>
      </trkpt>
      <trkpt lat="45.16431" lon="4.66066">
        <ele>455.33</ele>
        <time>2022-03-22T18:55:49Z</time>
      </trkpt>
      <trkpt lat="45.1644" lon="4.66148">
        <ele>454.27</ele>
        <time>2022-03-22T18:55:51Z</time>
      </trkpt>
      <trkpt lat="45.16445" lon="4.66301">
        <ele>449.21</ele>
        <time>2022-03-22T18:55:53Z</time>
      </trkpt>
      <trkpt lat="45.1645" lon="4.66386">
        <ele>449.1</ele>
        <time>2022-03-22T18:55:55Z</time>
      </trkpt>
      <trkpt lat="45.16449" lon="4.66433">
        <ele>447.8</ele>
        <time>2022-03-22T18:55:58Z</time>
      </trkpt>
      <trkpt lat="45.16458" lon="4.6652">
        <ele>447.93</ele>
        <time>2022-03-22T18:56:00Z</time>
      </trkpt>
      <trkpt lat="45.16472" lon="4.66617">
        <ele>452.19</ele>
        <time>2022-03-22T18:56:02Z</time>
      </trkpt>
      <trkpt lat="45.16474" lon="4.66664">
        <ele>454</ele>
        <time>2022-03-22T18:56:04Z</time>
      </trkpt>
      <trkpt lat="45.16463" lon="4.66721">
        <ele>455.96</ele>
        <time>2022-03-22T18:56:06Z</time>
      </trkpt>
      <trkpt lat="45.16462" lon="4.66749">
        <ele>456.96</ele>
        <time>2022-03-22T18:56:09Z</time>
      </trkpt>
      <trkpt lat="45.16463" lon="4.66776">
        <ele>457.63</ele>
        <time>2022-03-22T18:56:11Z</time>
      </trkpt>
      <trkpt lat="45.16471" lon="4.66828">
        <ele>457.19</ele>
        <time>2022-03-22T18:56:13Z</time>
      </trkpt>
      <trkpt lat="45.16481" lon="4.6687">
        <ele>454.87</ele>
        <time>2022-03-22T18:56:15Z</time>
      </trkpt>
      <trkpt lat="45.16491" lon="4.66935">
        <ele>455.32</ele>
        <time>2022-03-22T18:56:18Z</time>
      </trkpt>
      <trkpt lat="45.16497" lon="4.67001">
        <ele>455.66</ele>
        <time>2022-03-22T18:56:20Z</time>
      </trkpt>
      <trkpt lat="45.165" lon="4.67052">
        <ele>455</ele>
        <time>2022-03-22T18:56:22Z</time>
      </trkpt>
      <trkpt lat="45.16501" lon="4.67186">
        <ele>457.73</ele>
        <time>2022-03-22T18:56:24Z</time>
      </trkpt>
      <trkpt lat="45.16496" lon="4.67264">
        <ele>457.78</ele>
        <time>2022-03-22T18:56:27Z</time>
      </trkpt>
      <trkpt lat="45.16499" lon="4.67292">
        <ele>457.89</ele>
        <time>2022-03-22T18:56:29Z</time>
      </trkpt>
      <trkpt lat="45.165" lon="4.67306">
        <ele>458.01</ele>
        <time>2022-03-22T18:56:31Z</time>
      </trkpt>
      <trkpt lat="45.16515" lon="4.67347">
        <ele>457.81</ele>
        <time>2022-03-22T18:56:33Z</time>
      </trkpt>
      <trkpt lat="45.16568" lon="4.67481">
        <ele>453.16</ele>
        <time>2022-03-22T18:56:36Z</time>
      </trkpt>
      <trkpt lat="45.1659" lon="4.67513">
        <ele>452.41</ele>
        <time>2022-03-22T18:56:38Z</time>
      </trkpt>
      <trkpt lat="45.16606" lon="4.6753">
        <ele>450.93</ele>
        <time>2022-03-22T18:56:40Z</time>
      </trkpt>
      <trkpt lat="45.16653" lon="4.67568">
        <ele>446.57</ele>
        <time>2022-03-22T18:56:42Z</time>
      </trkpt>
      <trkpt lat="45.16693" lon="4.67616">
        <ele>445</ele>
        <time>2022-03-22T18:56:45Z</time>
      </trkpt>
      <trkpt lat="45.16728" lon="4.67663">
        <ele>443.83</ele>
        <time>2022-03-22T18:56:47Z</time>
      </trkpt>
      <trkpt lat="45.1682" lon="4.6784">
        <ele>440.59</ele>
        <time>2022-03-22T18:56:49Z</time>
      </trkpt>
      <trkpt lat="45.16829" lon="4.67864">
        <ele>441</ele>
        <time>2022-03-22T18:56:51Z</time>
      </trkpt>
      <trkpt lat="45.16832" lon="4.67888">
        <ele>441</ele>
        <time>2022-03-22T18:56:53Z</time>
      </trkpt>
      <trkpt lat="45.1683" lon="4.67916">
        <ele>439.92</ele>
        <time>2022-03-22T18:56:56Z</time>
      </trkpt>
      <trkpt lat="45.16824" lon="4.6795">
        <ele>437.33</ele>
        <time>2022-03-22T18:56:58Z</time>
      </trkpt>
      <trkpt lat="45.16812" lon="4.6799">
        <ele>435.38</ele>
        <time>2022-03-22T18:57:00Z</time>
      </trkpt>
      <trkpt lat="45.16808" lon="4.68016">
        <ele>435</ele>
        <time>2022-03-22T18:57:02Z</time>
      </trkpt>
      <trkpt lat="45.1681" lon="4.68071">
        <ele>435.09</ele>
        <time>2022-03-22T18:57:05Z</time>
      </trkpt>
      <trkpt lat="45.16834" lon="4.68176">
        <ele>433.65</ele>
        <time>2022-03-22T18:57:07Z</time>
      </trkpt>
      <trkpt lat="45.16851" lon="4.68238">
        <ele>431.3</ele>
        <time>2022-03-22T18:57:09Z</time>
      </trkpt>
      <trkpt lat="45.16888" lon="4.68352">
        <ele>429.02</ele>
        <time>2022-03-22T18:57:11Z</time>
      </trkpt>
      <trkpt lat="45.16914" lon="4.68409">
        <ele>428.29</ele>
        <time>2022-03-22T18:57:14Z</time>
      </trkpt>
      <trkpt lat="45.16926" lon="4.6846">
        <ele>426.2</ele>
        <time>2022-03-22T18:57:16Z</time>
      </trkpt>
      <trkpt lat="45.16947" lon="4.68597">
        <ele>422.47</ele>
        <time>2022-03-22T18:57:18Z</time>
      </trkpt>
      <trkpt lat="45.1695" lon="4.68628">
        <ele>422.13</ele>
        <time>2022-03-22T18:57:20Z</time>
      </trkpt>
      <trkpt lat="45.16943" lon="4.68712">
        <ele>421.56</ele>
        <time>2022-03-22T18:57:23Z</time>
      </trkpt>
      <trkpt lat="45.1694" lon="4.688">
        <ele>423.54</ele>
        <time>2022-03-22T18:57:25Z</time>
      </trkpt>
      <trkpt lat="45.16908" lon="4.68884">
        <ele>417.91</ele>
        <time>2022-03-22T18:57:27Z</time>
      </trkpt>
      <trkpt lat="45.16863" lon="4.69093">
        <ele>409.48</ele>
        <time>2022-03-22T18:57:29Z</time>
      </trkpt>
      <trkpt lat="45.16859" lon="4.69141">
        <ele>409.91</ele>
        <time>2022-03-22T18:57:32Z</time>
      </trkpt>
      <trkpt lat="45.16871" lon="4.69319">
        <ele>404.51</ele>
        <time>2022-03-22T18:57:34Z</time>
      </trkpt>
      <trkpt lat="45.16869" lon="4.69356">
        <ele>403.18</ele>
        <time>2022-03-22T18:57:36Z</time>
      </trkpt>
      <trkpt lat="45.16866" lon="4.69378">
        <ele>403</ele>
        <time>2022-03-22T18:57:38Z</time>
      </trkpt>
      <trkpt lat="45.16866" lon="4.69389">
        <ele>403</ele>
        <time>2022-03-22T18:57:41Z</time>
      </trkpt>
      <trkpt lat="45.16921" lon="4.69404">
        <ele>403.17</ele>
        <time>2022-03-22T18:57:47Z</time>
      </trkpt>
      <trkpt lat="45.16972" lon="4.69414">
        <ele>404</ele>
        <time>2022-03-22T18:57:53Z</time>
      </trkpt>
      <trkpt lat="45.1734" lon="4.69507">
        <ele>400.23</ele>
        <time>2022-03-22T18:57:59Z</time>
      </trkpt>
      <trkpt lat="45.17565" lon="4.69567">
        <ele>397.98</ele>
        <time>2022-03-22T18:58:05Z</time>
      </trkpt>
      <trkpt lat="45.17578" lon="4.69567">
        <ele>397.7</ele>
        <time>2022-03-22T18:58:11Z</time>
      </trkpt>
      <trkpt lat="45.17595" lon="4.69561">
        <ele>397.07</ele>
        <time>2022-03-22T18:58:17Z</time>
      </trkpt>
      <trkpt lat="45.17612" lon="4.69551">
        <ele>395.95</ele>
        <time>2022-03-22T18:58:23Z</time>
      </trkpt>
      <trkpt lat="45.17626" lon="4.69539">
        <ele>395.23</ele>
        <time>2022-03-22T18:58:29Z</time>
      </trkpt>
      <trkpt lat="45.17748" lon="4.69404">
        <ele>391.1</ele>
        <time>2022-03-22T18:58:35Z</time>
      </trkpt>
      <trkpt lat="45.17791" lon="4.69333">
        <ele>390.54</ele>
        <time>2022-03-22T18:58:42Z</time>
      </trkpt>
      <trkpt lat="45.17813" lon="4.69311">
        <ele>390.3</ele>
        <time>2022-03-22T18:58:48Z</time>
      </trkpt>
      <trkpt lat="45.17964" lon="4.69225">
        <ele>379.67</ele>
        <time>2022-03-22T18:58:54Z</time>
      </trkpt>
      <trkpt lat="45.18019" lon="4.69189">
        <ele>376.25</ele>
        <time>2022-03-22T18:59:00Z</time>
      </trkpt>
      <trkpt lat="45.18069" lon="4.69168">
        <ele>372.97</ele>
        <time>2022-03-22T18:59:06Z</time>
      </trkpt>
      <trkpt lat="45.18307" lon="4.69078">
        <ele>369.04</ele>
        <time>2022-03-22T18:59:12Z</time>
      </trkpt>
      <trkpt lat="45.18339" lon="4.69079">
        <ele>370.23</ele>
        <time>2022-03-22T18:59:18Z</time>
      </trkpt>
      <trkpt lat="45.1838" lon="4.69094">
        <ele>371.05</ele>
        <time>2022-03-22T18:59:24Z</time>
      </trkpt>
      <trkpt lat="45.18395" lon="4.69097">
        <ele>371.22</ele>
        <time>2022-03-22T18:59:30Z</time>
      </trkpt>
      <trkpt lat="45.18417" lon="4.69096">
        <ele>372.12</ele>
        <time>2022-03-22T18:59:37Z</time>
      </trkpt>
      <trkpt lat="45.18681" lon="4.69022">
        <ele>391.73</ele>
        <time>2022-03-22T18:59:43Z</time>
      </trkpt>
      <trkpt lat="45.18708" lon="4.69011">
        <ele>393.29</ele>
        <time>2022-03-22T18:59:49Z</time>
      </trkpt>
      <trkpt lat="45.18725" lon="4.69">
        <ele>394.09</ele>
        <time>2022-03-22T18:59:55Z</time>
      </trkpt>
      <trkpt lat="45.18742" lon="4.68993">
        <ele>394.97</ele>
        <time>2022-03-22T19:00:01Z</time>
      </trkpt>
      <trkpt lat="45.18757" lon="4.69001">
        <ele>395.24</ele>
        <time>2022-03-22T19:00:07Z</time>
      </trkpt>
      <trkpt lat="45.18759" lon="4.69004">
        <ele>395.28</ele>
        <time>2022-03-22T19:00:09Z</time>
      </trkpt>
      <trkpt lat="45.18765" lon="4.69007">
        <ele>395.4</ele>
        <time>2022-03-22T19:00:10Z</time>
      </trkpt>
      <trkpt lat="45.18771" lon="4.69004">
        <ele>395.62</ele>
        <time>2022-03-22T19:00:11Z</time>
      </trkpt>
      <trkpt lat="45.18774" lon="4.68997">
        <ele>395.96</ele>
        <time>2022-03-22T19:00:13Z</time>
      </trkpt>
      <trkpt lat="45.18797" lon="4.69002">
        <ele>395.94</ele>
        <time>2022-03-22T19:00:14Z</time>
      </trkpt>
      <trkpt lat="45.18822" lon="4.69003">
        <ele>395.88</ele>
        <time>2022-03-22T19:00:16Z</time>
      </trkpt>
      <trkpt lat="45.18841" lon="4.69001">
        <ele>395.71</ele>
        <time>2022-03-22T19:00:17Z</time>
      </trkpt>
      <trkpt lat="45.18907" lon="4.68977">
        <ele>395.64</ele>
        <time>2022-03-22T19:00:19Z</time>
      </trkpt>
      <trkpt lat="45.18931" lon="4.68961">
        <ele>396</ele>
        <time>2022-03-22T19:00:20Z</time>
      </trkpt>
      <trkpt lat="45.18948" lon="4.68946">
        <ele>395.99</ele>
        <time>2022-03-22T19:00:22Z</time>
      </trkpt>
      <trkpt lat="45.18965" lon="4.68927">
        <ele>397.09</ele>
        <time>2022-03-22T19:00:23Z</time>
      </trkpt>
      <trkpt lat="45.18994" lon="4.68886">
        <ele>397.1</ele>
        <time>2022-03-22T19:00:24Z</time>
      </trkpt>
      <trkpt lat="45.19061" lon="4.68755">
        <ele>394.97</ele>
        <time>2022-03-22T19:00:26Z</time>
      </trkpt>
      <trkpt lat="45.19071" lon="4.68705">
        <ele>394.45</ele>
        <time>2022-03-22T19:00:27Z</time>
      </trkpt>
      <trkpt lat="45.19078" lon="4.68691">
        <ele>394.21</ele>
        <time>2022-03-22T19:00:29Z</time>
      </trkpt>
      <trkpt lat="45.19084" lon="4.68687">
        <ele>393.97</ele>
        <time>2022-03-22T19:00:34Z</time>
      </trkpt>
      <trkpt lat="45.19088" lon="4.68678">
        <ele>393.85</ele>
        <time>2022-03-22T19:00:40Z</time>
      </trkpt>
      <trkpt lat="45.19098" lon="4.6867">
        <ele>393.48</ele>
        <time>2022-03-22T19:00:45Z</time>
      </trkpt>
      <trkpt lat="45.1949" lon="4.6849">
        <ele>398.23</ele>
        <time>2022-03-22T19:00:51Z</time>
      </trkpt>
      <trkpt lat="45.19509" lon="4.6849">
        <ele>398.25</ele>
        <time>2022-03-22T19:00:56Z</time>
      </trkpt>
      <trkpt lat="45.19513" lon="4.68492">
        <ele>398.16</ele>
        <time>2022-03-22T19:00:58Z</time>
      </trkpt>
      <trkpt lat="45.19521" lon="4.6849">
        <ele>398.08</ele>
        <time>2022-03-22T19:01:01Z</time>
      </trkpt>
      <trkpt lat="45.19525" lon="4.68485">
        <ele>398.05</ele>
        <time>2022-03-22T19:01:03Z</time>
      </trkpt>
      <trkpt lat="45.19526" lon="4.6848">
        <ele>398.04</ele>
        <time>2022-03-22T19:01:06Z</time>
      </trkpt>
      <trkpt lat="45.19541" lon="4.68467">
        <ele>397.29</ele>
        <time>2022-03-22T19:01:08Z</time>
      </trkpt>
      <trkpt lat="45.19774" lon="4.68358">
        <ele>407.87</ele>
        <time>2022-03-22T19:01:10Z</time>
      </trkpt>
      <trkpt lat="45.19844" lon="4.68324">
        <ele>410.71</ele>
        <time>2022-03-22T19:01:13Z</time>
      </trkpt>
      <trkpt lat="45.19873" lon="4.68299">
        <ele>412.24</ele>
        <time>2022-03-22T19:01:15Z</time>
      </trkpt>
      <trkpt lat="45.19895" lon="4.68267">
        <ele>413.62</ele>
        <time>2022-03-22T19:01:17Z</time>
      </trkpt>
      <trkpt lat="45.19915" lon="4.68229">
        <ele>414.98</ele>
        <time>2022-03-22T19:01:20Z</time>
      </trkpt>
      <trkpt lat="45.19987" lon="4.68072">
        <ele>407.4</ele>
        <time>2022-03-22T19:01:22Z</time>
      </trkpt>
      <trkpt lat="45.20008" lon="4.68037">
        <ele>407.01</ele>
        <time>2022-03-22T19:01:25Z</time>
      </trkpt>
      <trkpt lat="45.20027" lon="4.68017">
        <ele>407.43</ele>
        <time>2022-03-22T19:01:27Z</time>
      </trkpt>
      <trkpt lat="45.20059" lon="4.67993">
        <ele>405.61</ele>
        <time>2022-03-22T19:01:29Z</time>
      </trkpt>
      <trkpt lat="45.2023" lon="4.67943">
        <ele>396.32</ele>
        <time>2022-03-22T19:01:32Z</time>
      </trkpt>
      <trkpt lat="45.20273" lon="4.67922">
        <ele>393.06</ele>
        <time>2022-03-22T19:01:34Z</time>
      </trkpt>
      <trkpt lat="45.2029" lon="4.67909">
        <ele>392.62</ele>
        <time>2022-03-22T19:01:36Z</time>
      </trkpt>
      <trkpt lat="45.20344" lon="4.67857">
        <ele>392.85</ele>
        <time>2022-03-22T19:01:39Z</time>
      </trkpt>
      <trkpt lat="45.20364" lon="4.67834">
        <ele>392.88</ele>
        <time>2022-03-22T19:01:41Z</time>
      </trkpt>
      <trkpt lat="45.20377" lon="4.67812">
        <ele>392.76</ele>
        <time>2022-03-22T19:01:44Z</time>
      </trkpt>
      <trkpt lat="45.20387" lon="4.67779">
        <ele>391.27</ele>
        <time>2022-03-22T19:01:46Z</time>
      </trkpt>
      <trkpt lat="45.2039" lon="4.67748">
        <ele>388.64</ele>
        <time>2022-03-22T19:01:48Z</time>
      </trkpt>
      <trkpt lat="45.20387" lon="4.67708">
        <ele>386.24</ele>
        <time>2022-03-22T19:01:51Z</time>
      </trkpt>
      <trkpt lat="45.20348" lon="4.674">
        <ele>374.36</ele>
        <time>2022-03-22T19:01:53Z</time>
      </trkpt>
      <trkpt lat="45.20343" lon="4.67352">
        <ele>373.07</ele>
        <time>2022-03-22T19:01:56Z</time>
      </trkpt>
      <trkpt lat="45.20346" lon="4.67325">
        <ele>372.38</ele>
        <time>2022-03-22T19:01:58Z</time>
      </trkpt>
      <trkpt lat="45.20352" lon="4.67301">
        <ele>372</ele>
        <time>2022-03-22T19:02:00Z</time>
      </trkpt>
      <trkpt lat="45.20377" lon="4.67232">
        <ele>370.35</ele>
        <time>2022-03-22T19:02:03Z</time>
      </trkpt>
      <trkpt lat="45.20392" lon="4.67202">
        <ele>369.97</ele>
        <time>2022-03-22T19:02:05Z</time>
      </trkpt>
      <trkpt lat="45.20405" lon="4.67177">
        <ele>370</ele>
        <time>2022-03-22T19:02:07Z</time>
      </trkpt>
      <trkpt lat="45.20419" lon="4.67158">
        <ele>370.02</ele>
        <time>2022-03-22T19:02:10Z</time>
      </trkpt>
      <trkpt lat="45.20432" lon="4.67151">
        <ele>370.32</ele>
        <time>2022-03-22T19:02:12Z</time>
      </trkpt>
      <trkpt lat="45.20442" lon="4.67149">
        <ele>370.57</ele>
        <time>2022-03-22T19:02:15Z</time>
      </trkpt>
      <trkpt lat="45.20455" lon="4.67151">
        <ele>370.92</ele>
        <time>2022-03-22T19:02:17Z</time>
      </trkpt>
      <trkpt lat="45.2063" lon="4.67255">
        <ele>372.2</ele>
        <time>2022-03-22T19:02:19Z</time>
      </trkpt>
      <trkpt lat="45.20674" lon="4.67269">
        <ele>375.61</ele>
        <time>2022-03-22T19:02:22Z</time>
      </trkpt>
      <trkpt lat="45.20723" lon="4.67279">
        <ele>377.89</ele>
        <time>2022-03-22T19:02:24Z</time>
      </trkpt>
      <trkpt lat="45.20779" lon="4.67275">
        <ele>377.2</ele>
        <time>2022-03-22T19:02:27Z</time>
      </trkpt>
      <trkpt lat="45.20816" lon="4.67266">
        <ele>377.84</ele>
        <time>2022-03-22T19:02:29Z</time>
      </trkpt>
      <trkpt lat="45.20845" lon="4.67253">
        <ele>378.37</ele>
        <time>2022-03-22T19:02:31Z</time>
      </trkpt>
      <trkpt lat="45.21079" lon="4.67127">
        <ele>386.67</ele>
        <time>2022-03-22T19:02:34Z</time>
      </trkpt>
      <trkpt lat="45.21188" lon="4.67071">
        <ele>389</ele>
        <time>2022-03-22T19:02:36Z</time>
      </trkpt>
      <trkpt lat="45.21494" lon="4.66961">
        <ele>381.93</ele>
        <time>2022-03-22T19:02:38Z</time>
      </trkpt>
      <trkpt lat="45.2152" lon="4.66962">
        <ele>381.49</ele>
        <time>2022-03-22T19:02:41Z</time>
      </trkpt>
      <trkpt lat="45.2153" lon="4.66965">
        <ele>381.15</ele>
        <time>2022-03-22T19:02:43Z</time>
      </trkpt>
      <trkpt lat="45.21549" lon="4.66976">
        <ele>379.43</ele>
        <time>2022-03-22T19:02:46Z</time>
      </trkpt>
      <trkpt lat="45.21566" lon="4.66992">
        <ele>378.74</ele>
        <time>2022-03-22T19:02:48Z</time>
      </trkpt>
      <trkpt lat="45.21577" lon="4.67013">
        <ele>378.12</ele>
        <time>2022-03-22T19:02:50Z</time>
      </trkpt>
      <trkpt lat="45.21611" lon="4.67051">
        <ele>377.17</ele>
        <time>2022-03-22T19:02:53Z</time>
      </trkpt>
      <trkpt lat="45.21643" lon="4.67067">
        <ele>375.21</ele>
        <time>2022-03-22T19:02:55Z</time>
      </trkpt>
      <trkpt lat="45.21663" lon="4.67072">
        <ele>375.36</ele>
        <time>2022-03-22T19:02:58Z</time>
      </trkpt>
      <trkpt lat="45.21701" lon="4.67063">
        <ele>373.73</ele>
        <time>2022-03-22T19:03:00Z</time>
      </trkpt>
      <trkpt lat="45.2172" lon="4.67053">
        <ele>372.45</ele>
        <time>2022-03-22T19:03:02Z</time>
      </trkpt>
      <trkpt lat="45.21738" lon="4.67039">
        <ele>372.42</ele>
        <time>2022-03-22T19:03:05Z</time>
      </trkpt>
      <trkpt lat="45.21758" lon="4.6701">
        <ele>372.66</ele>
        <time>2022-03-22T19:03:07Z</time>
      </trkpt>
      <trkpt lat="45.21781" lon="4.66955">
        <ele>370.61</ele>
        <time>2022-03-22T19:03:09Z</time>
      </trkpt>
      <trkpt lat="45.21787" lon="4.66941">
        <ele>369.67</ele>
        <time>2022-03-22T19:03:12Z</time>
      </trkpt>
      <trkpt lat="45.21797" lon="4.66925">
        <ele>368.22</ele>
        <time>2022-03-22T19:03:14Z</time>
      </trkpt>
      <trkpt lat="45.21846" lon="4.66892">
        <ele>366.58</ele>
        <time>2022-03-22T19:03:17Z</time>
      </trkpt>
      <trkpt lat="45.21882" lon="4.66873">
        <ele>369.38</ele>
        <time>2022-03-22T19:03:19Z</time>
      </trkpt>
      <trkpt lat="45.2192" lon="4.66865">
        <ele>369.98</ele>
        <time>2022-03-22T19:03:21Z</time>
      </trkpt>
      <trkpt lat="45.21951" lon="4.66866">
        <ele>369.41</ele>
        <time>2022-03-22T19:03:24Z</time>
      </trkpt>
      <trkpt lat="45.22024" lon="4.66881">
        <ele>373.34</ele>
        <time>2022-03-22T19:03:26Z</time>
      </trkpt>
      <trkpt lat="45.22065" lon="4.66887">
        <ele>373.41</ele>
        <time>2022-03-22T19:03:28Z</time>
      </trkpt>
      <trkpt lat="45.22125" lon="4.66902">
        <ele>371.28</ele>
        <time>2022-03-22T19:03:31Z</time>
      </trkpt>
      <trkpt lat="45.2214" lon="4.66909">
        <ele>371.63</ele>
        <time>2022-03-22T19:03:33Z</time>
      </trkpt>
      <trkpt lat="45.22151" lon="4.6692">
        <ele>372.14</ele>
        <time>2022-03-22T19:03:36Z</time>
      </trkpt>
      <trkpt lat="45.22161" lon="4.66937">
        <ele>372.02</ele>
        <time>2022-03-22T19:03:38Z</time>
      </trkpt>
      <trkpt lat="45.22167" lon="4.66958">
        <ele>372.08</ele>
        <time>2022-03-22T19:03:40Z</time>
      </trkpt>
      <trkpt lat="45.22175" lon="4.67028">
        <ele>372.42</ele>
        <time>2022-03-22T19:03:43Z</time>
      </trkpt>
      <trkpt lat="45.22181" lon="4.67069">
        <ele>372.07</ele>
        <time>2022-03-22T19:03:45Z</time>
      </trkpt>
      <trkpt lat="45.22205" lon="4.67135">
        <ele>371.41</ele>
        <time>2022-03-22T19:03:48Z</time>
      </trkpt>
      <trkpt lat="45.22226" lon="4.67171">
        <ele>370</ele>
        <time>2022-03-22T19:03:50Z</time>
      </trkpt>
      <trkpt lat="45.2224" lon="4.67186">
        <ele>369.95</ele>
        <time>2022-03-22T19:03:52Z</time>
      </trkpt>
      <trkpt lat="45.22273" lon="4.67202">
        <ele>369.95</ele>
        <time>2022-03-22T19:03:55Z</time>
      </trkpt>
      <trkpt lat="45.22359" lon="4.67209">
        <ele>371.02</ele>
        <time>2022-03-22T19:03:57Z</time>
      </trkpt>
      <trkpt lat="45.22385" lon="4.67216">
        <ele>371.33</ele>
        <time>2022-03-22T19:03:59Z</time>
      </trkpt>
      <trkpt lat="45.22401" lon="4.67231">
        <ele>371.41</ele>
        <time>2022-03-22T19:04:02Z</time>
      </trkpt>
      <trkpt lat="45.22442" lon="4.67281">
        <ele>367.73</ele>
        <time>2022-03-22T19:04:04Z</time>
      </trkpt>
      <trkpt lat="45.22455" lon="4.67292">
        <ele>366.11</ele>
        <time>2022-03-22T19:04:07Z</time>
      </trkpt>
      <trkpt lat="45.22471" lon="4.67302">
        <ele>365.02</ele>
        <time>2022-03-22T19:04:09Z</time>
      </trkpt>
      <trkpt lat="45.22485" lon="4.67306">
        <ele>363.23</ele>
        <time>2022-03-22T19:04:11Z</time>
      </trkpt>
      <trkpt lat="45.22526" lon="4.67305">
        <ele>360.42</ele>
        <time>2022-03-22T19:04:14Z</time>
      </trkpt>
      <trkpt lat="45.22653" lon="4.67295">
        <ele>358.53</ele>
        <time>2022-03-22T19:04:16Z</time>
      </trkpt>
      <trkpt lat="45.22677" lon="4.67282">
        <ele>360.23</ele>
        <time>2022-03-22T19:04:19Z</time>
      </trkpt>
      <trkpt lat="45.22693" lon="4.67268">
        <ele>361.06</ele>
        <time>2022-03-22T19:04:21Z</time>
      </trkpt>
      <trkpt lat="45.22707" lon="4.6726">
        <ele>361.76</ele>
        <time>2022-03-22T19:04:23Z</time>
      </trkpt>
      <trkpt lat="45.22718" lon="4.67255">
        <ele>361.69</ele>
        <time>2022-03-22T19:04:26Z</time>
      </trkpt>
      <trkpt lat="45.22731" lon="4.67255">
        <ele>360.38</ele>
        <time>2022-03-22T19:04:28Z</time>
      </trkpt>
      <trkpt lat="45.22758" lon="4.6727">
        <ele>352.63</ele>
        <time>2022-03-22T19:04:30Z</time>
      </trkpt>
      <trkpt lat="45.22776" lon="4.67273">
        <ele>350.05</ele>
        <time>2022-03-22T19:04:33Z</time>
      </trkpt>
      <trkpt lat="45.22879" lon="4.67247">
        <ele>351.81</ele>
        <time>2022-03-22T19:04:35Z</time>
      </trkpt>
      <trkpt lat="45.22892" lon="4.67247">
        <ele>352.84</ele>
        <time>2022-03-22T19:04:38Z</time>
      </trkpt>
      <trkpt lat="45.22903" lon="4.67253">
        <ele>352.33</ele>
        <time>2022-03-22T19:04:40Z</time>
      </trkpt>
      <trkpt lat="45.22911" lon="4.6726">
        <ele>351.41</ele>
        <time>2022-03-22T19:04:42Z</time>
      </trkpt>
      <trkpt lat="45.22954" lon="4.67364">
        <ele>342.92</ele>
        <time>2022-03-22T19:04:45Z</time>
      </trkpt>
      <trkpt lat="45.22972" lon="4.67401">
        <ele>335.8</ele>
        <time>2022-03-22T19:04:47Z</time>
      </trkpt>
      <trkpt lat="45.2298" lon="4.67412">
        <ele>334.25</ele>
        <time>2022-03-22T19:04:50Z</time>
      </trkpt>
      <trkpt lat="45.22999" lon="4.67422">
        <ele>335.17</ele>
        <time>2022-03-22T19:04:52Z</time>
      </trkpt>
      <trkpt lat="45.23019" lon="4.6742">
        <ele>336.92</ele>
        <time>2022-03-22T19:04:54Z</time>
      </trkpt>
      <trkpt lat="45.23051" lon="4.67412">
        <ele>338.81</ele>
        <time>2022-03-22T19:04:57Z</time>
      </trkpt>
      <trkpt lat="45.23062" lon="4.67414">
        <ele>338.62</ele>
        <time>2022-03-22T19:04:59Z</time>
      </trkpt>
      <trkpt lat="45.23074" lon="4.67421">
        <ele>338.28</ele>
        <time>2022-03-22T19:05:01Z</time>
      </trkpt>
      <trkpt lat="45.23079" lon="4.67427">
        <ele>338.02</ele>
        <time>2022-03-22T19:05:04Z</time>
      </trkpt>
      <trkpt lat="45.23104" lon="4.67466">
        <ele>337.08</ele>
        <time>2022-03-22T19:05:06Z</time>
      </trkpt>
      <trkpt lat="45.23113" lon="4.67475">
        <ele>336.49</ele>
        <time>2022-03-22T19:05:09Z</time>
      </trkpt>
      <trkpt lat="45.23124" lon="4.67482">
        <ele>334.39</ele>
        <time>2022-03-22T19:05:11Z</time>
      </trkpt>
      <trkpt lat="45.23131" lon="4.67483">
        <ele>333.58</ele>
        <time>2022-03-22T19:05:13Z</time>
      </trkpt>
      <trkpt lat="45.23141" lon="4.67479">
        <ele>332.93</ele>
        <time>2022-03-22T19:05:16Z</time>
      </trkpt>
      <trkpt lat="45.23209" lon="4.67426">
        <ele>330.87</ele>
        <time>2022-03-22T19:05:18Z</time>
      </trkpt>
      <trkpt lat="45.23229" lon="4.67406">
        <ele>331</ele>
        <time>2022-03-22T19:05:20Z</time>
      </trkpt>
      <trkpt lat="45.23281" lon="4.67334">
        <ele>333.78</ele>
        <time>2022-03-22T19:05:23Z</time>
      </trkpt>
      <trkpt lat="45.23353" lon="4.67268">
        <ele>324.24</ele>
        <time>2022-03-22T19:05:25Z</time>
      </trkpt>
      <trkpt lat="45.23368" lon="4.67263">
        <ele>323.57</ele>
        <time>2022-03-22T19:05:28Z</time>
      </trkpt>
      <trkpt lat="45.23375" lon="4.67265">
        <ele>322.9</ele>
        <time>2022-03-22T19:05:30Z</time>
      </trkpt>
      <trkpt lat="45.23384" lon="4.6727">
        <ele>321.61</ele>
        <time>2022-03-22T19:05:32Z</time>
      </trkpt>
      <trkpt lat="45.23388" lon="4.67277">
        <ele>320.27</ele>
        <time>2022-03-22T19:05:35Z</time>
      </trkpt>
      <trkpt lat="45.23397" lon="4.6728">
        <ele>319.33</ele>
        <time>2022-03-22T19:05:37Z</time>
      </trkpt>
      <trkpt lat="45.23412" lon="4.67275">
        <ele>319.87</ele>
        <time>2022-03-22T19:05:40Z</time>
      </trkpt>
      <trkpt lat="45.2342" lon="4.67277">
        <ele>318.93</ele>
        <time>2022-03-22T19:05:41Z</time>
      </trkpt>
      <trkpt lat="45.23424" lon="4.67275">
        <ele>319.13</ele>
        <time>2022-03-22T19:05:43Z</time>
      </trkpt>
      <trkpt lat="45.23429" lon="4.67267">
        <ele>320.92</ele>
        <time>2022-03-22T19:05:45Z</time>
      </trkpt>
      <trkpt lat="45.23446" lon="4.6726">
        <ele>321.83</ele>
        <time>2022-03-22T19:05:47Z</time>
      </trkpt>
      <trkpt lat="45.2345" lon="4.67252">
        <ele>322.34</ele>
        <time>2022-03-22T19:05:48Z</time>
      </trkpt>
      <trkpt lat="45.23466" lon="4.67242">
        <ele>320.03</ele>
        <time>2022-03-22T19:05:50Z</time>
      </trkpt>
      <trkpt lat="45.23505" lon="4.67208">
        <ele>318.45</ele>
        <time>2022-03-22T19:05:52Z</time>
      </trkpt>
      <trkpt lat="45.23525" lon="4.67173">
        <ele>323.23</ele>
        <time>2022-03-22T19:05:54Z</time>
      </trkpt>
      <trkpt lat="45.23541" lon="4.67157">
        <ele>321.99</ele>
        <time>2022-03-22T19:05:56Z</time>
      </trkpt>
      <trkpt lat="45.2357" lon="4.6715">
        <ele>315.96</ele>
        <time>2022-03-22T19:05:57Z</time>
      </trkpt>
      <trkpt lat="45.23578" lon="4.6715">
        <ele>314.61</ele>
        <time>2022-03-22T19:05:59Z</time>
      </trkpt>
      <trkpt lat="45.23587" lon="4.67155">
        <ele>312.44</ele>
        <time>2022-03-22T19:06:01Z</time>
      </trkpt>
      <trkpt lat="45.23591" lon="4.6716">
        <ele>311.52</ele>
        <time>2022-03-22T19:06:04Z</time>
      </trkpt>
      <trkpt lat="45.23603" lon="4.67212">
        <ele>307.44</ele>
        <time>2022-03-22T19:06:07Z</time>
      </trkpt>
      <trkpt lat="45.236" lon="4.67219">
        <ele>307.53</ele>
        <time>2022-03-22T19:06:10Z</time>
      </trkpt>
      <trkpt lat="45.236" lon="4.67223">
        <ele>307.67</ele>
        <time>2022-03-22T19:06:13Z</time>
      </trkpt>
      <trkpt lat="45.23605" lon="4.6723">
        <ele>308.5</ele>
        <time>2022-03-22T19:06:16Z</time>
      </trkpt>
      <trkpt lat="45.23608" lon="4.6723">
        <ele>308.68</ele>
        <time>2022-03-22T19:06:19Z</time>
      </trkpt>
      <trkpt lat="45.23613" lon="4.67225">
        <ele>308.58</ele>
        <time>2022-03-22T19:06:22Z</time>
      </trkpt>
      <trkpt lat="45.23625" lon="4.67231">
        <ele>311.01</ele>
        <time>2022-03-22T19:06:25Z</time>
      </trkpt>
      <trkpt lat="45.23669" lon="4.67232">
        <ele>317.55</ele>
        <time>2022-03-22T19:06:28Z</time>
      </trkpt>
      <trkpt lat="45.23703" lon="4.67231">
        <ele>319.56</ele>
        <time>2022-03-22T19:06:31Z</time>
      </trkpt>
      <trkpt lat="45.2373" lon="4.67226">
        <ele>322.35</ele>
        <time>2022-03-22T19:06:34Z</time>
      </trkpt>
      <trkpt lat="45.23757" lon="4.67213">
        <ele>325.56</ele>
        <time>2022-03-22T19:06:37Z</time>
      </trkpt>
      <trkpt lat="45.2379" lon="4.67191">
        <ele>326.97</ele>
        <time>2022-03-22T19:06:40Z</time>
      </trkpt>
      <trkpt lat="45.23823" lon="4.67159">
        <ele>323.98</ele>
        <time>2022-03-22T19:06:43Z</time>
      </trkpt>
      <trkpt lat="45.23842" lon="4.67135">
        <ele>320.14</ele>
        <time>2022-03-22T19:06:46Z</time>
      </trkpt>
      <trkpt lat="45.23865" lon="4.67115">
        <ele>315.79</ele>
        <time>2022-03-22T19:06:49Z</time>
      </trkpt>
      <trkpt lat="45.23875" lon="4.67113">
        <ele>319.18</ele>
        <time>2022-03-22T19:06:52Z</time>
      </trkpt>
      <trkpt lat="45.23936" lon="4.67116">
        <ele>334.71</ele>
        <time>2022-03-22T19:06:55Z</time>
      </trkpt>
      <trkpt lat="45.23937" lon="4.67122">
        <ele>335.13</ele>
        <time>2022-03-22T19:06:58Z</time>
      </trkpt>
      <trkpt lat="45.2394" lon="4.67127">
        <ele>335.51</ele>
        <time>2022-03-22T19:07:01Z</time>
      </trkpt>
      <trkpt lat="45.23936" lon="4.67182">
        <ele>336.98</ele>
        <time>2022-03-22T19:07:03Z</time>
      </trkpt>
      <trkpt lat="45.23937" lon="4.67209">
        <ele>334.52</ele>
        <time>2022-03-22T19:07:06Z</time>
      </trkpt>
      <trkpt lat="45.23943" lon="4.67236">
        <ele>329.12</ele>
        <time>2022-03-22T19:07:09Z</time>
      </trkpt>
      <trkpt lat="45.23953" lon="4.67257">
        <ele>326.2</ele>
        <time>2022-03-22T19:07:12Z</time>
      </trkpt>
      <trkpt lat="45.23976" lon="4.67282">
        <ele>326.5</ele>
        <time>2022-03-22T19:07:15Z</time>
      </trkpt>
      <trkpt lat="45.24007" lon="4.67308">
        <ele>327.45</ele>
        <time>2022-03-22T19:07:17Z</time>
      </trkpt>
      <trkpt lat="45.24006" lon="4.67316">
        <ele>328.41</ele>
        <time>2022-03-22T19:07:21Z</time>
      </trkpt>
      <trkpt lat="45.24009" lon="4.67323">
        <ele>328.4</ele>
        <time>2022-03-22T19:07:25Z</time>
      </trkpt>
      <trkpt lat="45.24008" lon="4.67342">
        <ele>330.8</ele>
        <time>2022-03-22T19:07:29Z</time>
      </trkpt>
      <trkpt lat="45.24011" lon="4.67348">
        <ele>331.23</ele>
        <time>2022-03-22T19:07:33Z</time>
      </trkpt>
      <trkpt lat="45.24028" lon="4.67371">
        <ele>331.07</ele>
        <time>2022-03-22T19:07:37Z</time>
      </trkpt>
      <trkpt lat="45.24052" lon="4.67398">
        <ele>334.36</ele>
        <time>2022-03-22T19:07:41Z</time>
      </trkpt>
      <trkpt lat="45.24083" lon="4.67412">
        <ele>336.91</ele>
        <time>2022-03-22T19:07:45Z</time>
      </trkpt>
      <trkpt lat="45.24115" lon="4.67423">
        <ele>338.49</ele>
        <time>2022-03-22T19:07:49Z</time>
      </trkpt>
      <trkpt lat="45.2416" lon="4.67418">
        <ele>338.88</ele>
        <time>2022-03-22T19:07:53Z</time>
      </trkpt>
      <trkpt lat="45.24279" lon="4.67396">
        <ele>343.87</ele>
        <time>2022-03-22T19:07:57Z</time>
      </trkpt>
      <trkpt lat="45.24438" lon="4.6736">
        <ele>350.77</ele>
        <time>2022-03-22T19:08:01Z</time>
      </trkpt>
      <trkpt lat="45.24451" lon="4.67361">
        <ele>351.23</ele>
        <time>2022-03-22T19:08:05Z</time>
      </trkpt>
      <trkpt lat="45.2447" lon="4.67366">
        <ele>352.1</ele>
        <time>2022-03-22T19:08:09Z</time>
      </trkpt>
      <trkpt lat="45.24482" lon="4.67394">
        <ele>353.58</ele>
        <time>2022-03-22T19:08:12Z</time>
      </trkpt>
      <trkpt lat="45.24486" lon="4.67413">
        <ele>354.8</ele>
        <time>2022-03-22T19:08:14Z</time>
      </trkpt>
      <trkpt lat="45.2449" lon="4.67447">
        <ele>356.79</ele>
        <time>2022-03-22T19:08:16Z</time>
      </trkpt>
      <trkpt lat="45.24487" lon="4.67456">
        <ele>357.3</ele>
        <time>2022-03-22T19:08:18Z</time>
      </trkpt>
      <trkpt lat="45.24487" lon="4.67464">
        <ele>357.88</ele>
        <time>2022-03-22T19:08:21Z</time>
      </trkpt>
      <trkpt lat="45.2449" lon="4.67472">
        <ele>358.3</ele>
        <time>2022-03-22T19:08:23Z</time>
      </trkpt>
      <trkpt lat="45.24497" lon="4.67477">
        <ele>358.54</ele>
        <time>2022-03-22T19:08:25Z</time>
      </trkpt>
      <trkpt lat="45.24505" lon="4.67477">
        <ele>358.09</ele>
        <time>2022-03-22T19:08:28Z</time>
      </trkpt>
      <trkpt lat="45.24543" lon="4.67495">
        <ele>357.81</ele>
        <time>2022-03-22T19:08:30Z</time>
      </trkpt>
      <trkpt lat="45.2463" lon="4.67556">
        <ele>359.02</ele>
        <time>2022-03-22T19:08:33Z</time>
      </trkpt>
      <trkpt lat="45.24668" lon="4.67595">
        <ele>357.07</ele>
        <time>2022-03-22T19:08:35Z</time>
      </trkpt>
      <trkpt lat="45.24691" lon="4.67621">
        <ele>357.81</ele>
        <time>2022-03-22T19:08:37Z</time>
      </trkpt>
      <trkpt lat="45.24711" lon="4.67639">
        <ele>358.74</ele>
        <time>2022-03-22T19:08:40Z</time>
      </trkpt>
      <trkpt lat="45.24739" lon="4.67655">
        <ele>359.23</ele>
        <time>2022-03-22T19:08:42Z</time>
      </trkpt>
      <trkpt lat="45.24761" lon="4.67676">
        <ele>359.47</ele>
        <time>2022-03-22T19:08:45Z</time>
      </trkpt>
      <trkpt lat="45.24762" lon="4.67688">
        <ele>360.55</ele>
        <time>2022-03-22T19:08:47Z</time>
      </trkpt>
      <trkpt lat="45.24765" lon="4.67693">
        <ele>360.73</ele>
        <time>2022-03-22T19:08:50Z</time>
      </trkpt>
      <trkpt lat="45.24772" lon="4.67698">
        <ele>360.24</ele>
        <time>2022-03-22T19:08:53Z</time>
      </trkpt>
      <trkpt lat="45.24776" lon="4.67698">
        <ele>359.57</ele>
        <time>2022-03-22T19:08:56Z</time>
      </trkpt>
      <trkpt lat="45.24783" lon="4.67693">
        <ele>357.51</ele>
        <time>2022-03-22T19:08:59Z</time>
      </trkpt>
      <trkpt lat="45.24786" lon="4.67682">
        <ele>355.29</ele>
        <time>2022-03-22T19:09:02Z</time>
      </trkpt>
      <trkpt lat="45.24786" lon="4.67675">
        <ele>354.72</ele>
        <time>2022-03-22T19:09:05Z</time>
      </trkpt>
      <trkpt lat="45.24797" lon="4.67654">
        <ele>354.79</ele>
        <time>2022-03-22T19:09:08Z</time>
      </trkpt>
      <trkpt lat="45.24866" lon="4.67594">
        <ele>355.08</ele>
        <time>2022-03-22T19:09:11Z</time>
      </trkpt>
      <trkpt lat="45.24886" lon="4.67574">
        <ele>363.95</ele>
        <time>2022-03-22T19:09:14Z</time>
      </trkpt>
      <trkpt lat="45.24903" lon="4.67546">
        <ele>367.74</ele>
        <time>2022-03-22T19:09:17Z</time>
      </trkpt>
      <trkpt lat="45.24907" lon="4.67531">
        <ele>368.09</ele>
        <time>2022-03-22T19:09:20Z</time>
      </trkpt>
      <trkpt lat="45.24916" lon="4.67481">
        <ele>368.05</ele>
        <time>2022-03-22T19:09:22Z</time>
      </trkpt>
      <trkpt lat="45.24922" lon="4.67431">
        <ele>367.02</ele>
        <time>2022-03-22T19:09:25Z</time>
      </trkpt>
      <trkpt lat="45.24944" lon="4.67233">
        <ele>376.53</ele>
        <time>2022-03-22T19:09:28Z</time>
      </trkpt>
      <trkpt lat="45.24953" lon="4.67186">
        <ele>379.29</ele>
        <time>2022-03-22T19:09:31Z</time>
      </trkpt>
      <trkpt lat="45.2498" lon="4.67088">
        <ele>382.69</ele>
        <time>2022-03-22T19:09:34Z</time>
      </trkpt>
      <trkpt lat="45.24992" lon="4.67061">
        <ele>382.64</ele>
        <time>2022-03-22T19:09:37Z</time>
      </trkpt>
      <trkpt lat="45.25012" lon="4.67037">
        <ele>384.03</ele>
        <time>2022-03-22T19:09:40Z</time>
      </trkpt>
      <trkpt lat="45.25021" lon="4.67034">
        <ele>384.66</ele>
        <time>2022-03-22T19:09:43Z</time>
      </trkpt>
      <trkpt lat="45.25039" lon="4.67013">
        <ele>385.59</ele>
        <time>2022-03-22T19:09:46Z</time>
      </trkpt>
      <trkpt lat="45.25045" lon="4.66991">
        <ele>386.94</ele>
        <time>2022-03-22T19:09:49Z</time>
      </trkpt>
      <trkpt lat="45.25048" lon="4.66986">
        <ele>387.63</ele>
        <time>2022-03-22T19:09:50Z</time>
      </trkpt>
      <trkpt lat="45.25051" lon="4.66979">
        <ele>388.32</ele>
        <time>2022-03-22T19:09:52Z</time>
      </trkpt>
      <trkpt lat="45.25078" lon="4.66959">
        <ele>392.15</ele>
        <time>2022-03-22T19:09:54Z</time>
      </trkpt>
      <trkpt lat="45.25095" lon="4.66953">
        <ele>393.24</ele>
        <time>2022-03-22T19:09:55Z</time>
      </trkpt>
      <trkpt lat="45.25109" lon="4.66954">
        <ele>393.3</ele>
        <time>2022-03-22T19:09:57Z</time>
      </trkpt>
      <trkpt lat="45.25129" lon="4.66961">
        <ele>392.81</ele>
        <time>2022-03-22T19:09:59Z</time>
      </trkpt>
      <trkpt lat="45.25139" lon="4.6696">
        <ele>392.9</ele>
        <time>2022-03-22T19:10:00Z</time>
      </trkpt>
      <trkpt lat="45.25146" lon="4.66954">
        <ele>393.81</ele>
        <time>2022-03-22T19:10:02Z</time>
      </trkpt>
      <trkpt lat="45.25149" lon="4.66946">
        <ele>394.61</ele>
        <time>2022-03-22T19:10:04Z</time>
      </trkpt>
      <trkpt lat="45.2515" lon="4.66934">
        <ele>395.77</ele>
        <time>2022-03-22T19:10:05Z</time>
      </trkpt>
      <trkpt lat="45.25159" lon="4.66918">
        <ele>397.6</ele>
        <time>2022-03-22T19:10:09Z</time>
      </trkpt>
      <trkpt lat="45.25202" lon="4.66886">
        <ele>401.1</ele>
        <time>2022-03-22T19:10:13Z</time>
      </trkpt>
      <trkpt lat="45.25257" lon="4.66815">
        <ele>402.92</ele>
        <time>2022-03-22T19:10:18Z</time>
      </trkpt>
      <trkpt lat="45.25302" lon="4.66754">
        <ele>406.71</ele>
        <time>2022-03-22T19:10:22Z</time>
      </trkpt>
      <trkpt lat="45.25322" lon="4.66735">
        <ele>408.74</ele>
        <time>2022-03-22T19:10:26Z</time>
      </trkpt>
      <trkpt lat="45.2533" lon="4.66734">
        <ele>409.45</ele>
        <time>2022-03-22T19:10:30Z</time>
      </trkpt>
      <trkpt lat="45.25344" lon="4.66738">
        <ele>409.68</ele>
        <time>2022-03-22T19:10:34Z</time>
      </trkpt>
      <trkpt lat="45.25413" lon="4.66772">
        <ele>410.99</ele>
        <time>2022-03-22T19:10:38Z</time>
      </trkpt>
      <trkpt lat="45.25474" lon="4.66797">
        <ele>412.07</ele>
        <time>2022-03-22T19:10:42Z</time>
      </trkpt>
      <trkpt lat="45.25533" lon="4.66832">
        <ele>414</ele>
        <time>2022-03-22T19:10:46Z</time>
      </trkpt>
      <trkpt lat="45.2556" lon="4.66862">
        <ele>415.16</ele>
        <time>2022-03-22T19:10:50Z</time>
      </trkpt>
      <trkpt lat="45.2562" lon="4.66938">
        <ele>416.07</ele>
        <time>2022-03-22T19:10:54Z</time>
      </trkpt>
      <trkpt lat="45.25632" lon="4.66963">
        <ele>415.83</ele>
        <time>2022-03-22T19:10:59Z</time>
      </trkpt>
      <trkpt lat="45.25635" lon="4.66976">
        <ele>415.73</ele>
        <time>2022-03-22T19:11:03Z</time>
      </trkpt>
      <trkpt lat="45.25636" lon="4.66991">
        <ele>415.3</ele>
        <time>2022-03-22T19:11:07Z</time>
      </trkpt>
      <trkpt lat="45.25634" lon="4.67003">
        <ele>414.88</ele>
        <time>2022-03-22T19:11:11Z</time>
      </trkpt>
      <trkpt lat="45.25638" lon="4.67014">
        <ele>414.49</ele>
        <time>2022-03-22T19:11:15Z</time>
      </trkpt>
      <trkpt lat="45.25646" lon="4.6702">
        <ele>413.87</ele>
        <time>2022-03-22T19:11:20Z</time>
      </trkpt>
      <trkpt lat="45.25657" lon="4.67013">
        <ele>413.58</ele>
        <time>2022-03-22T19:11:24Z</time>
      </trkpt>
      <trkpt lat="45.25664" lon="4.67011">
        <ele>413.33</ele>
        <time>2022-03-22T19:11:28Z</time>
      </trkpt>
      <trkpt lat="45.25685" lon="4.67011">
        <ele>412.79</ele>
        <time>2022-03-22T19:11:33Z</time>
      </trkpt>
      <trkpt lat="45.25732" lon="4.67029">
        <ele>413.63</ele>
        <time>2022-03-22T19:11:37Z</time>
      </trkpt>
      <trkpt lat="45.25748" lon="4.67031">
        <ele>414.64</ele>
        <time>2022-03-22T19:11:41Z</time>
      </trkpt>
      <trkpt lat="45.25773" lon="4.67024">
        <ele>415.24</ele>
        <time>2022-03-22T19:11:46Z</time>
      </trkpt>
      <trkpt lat="45.25902" lon="4.6696">
        <ele>417.13</ele>
        <time>2022-03-22T19:11:50Z</time>
      </trkpt>
      <trkpt lat="45.26011" lon="4.66877">
        <ele>418.77</ele>
        <time>2022-03-22T19:11:54Z</time>
      </trkpt>
      <trkpt lat="45.26088" lon="4.66808">
        <ele>421.73</ele>
        <time>2022-03-22T19:11:59Z</time>
      </trkpt>
      <trkpt lat="45.26094" lon="4.66811">
        <ele>421.38</ele>
        <time>2022-03-22T19:12:01Z</time>
      </trkpt>
      <trkpt lat="45.26101" lon="4.66811">
        <ele>421.07</ele>
        <time>2022-03-22T19:12:03Z</time>
      </trkpt>
      <trkpt lat="45.26107" lon="4.66808">
        <ele>421.02</ele>
        <time>2022-03-22T19:12:05Z</time>
      </trkpt>
      <trkpt lat="45.26113" lon="4.668">
        <ele>421.15</ele>
        <time>2022-03-22T19:12:07Z</time>
      </trkpt>
      <trkpt lat="45.26116" lon="4.66792">
        <ele>421.35</ele>
        <time>2022-03-22T19:12:09Z</time>
      </trkpt>
      <trkpt lat="45.26125" lon="4.66779">
        <ele>421.43</ele>
        <time>2022-03-22T19:12:12Z</time>
      </trkpt>
      <trkpt lat="45.26147" lon="4.66765">
        <ele>421.34</ele>
        <time>2022-03-22T19:12:14Z</time>
      </trkpt>
      <trkpt lat="45.26257" lon="4.66752">
        <ele>423.98</ele>
        <time>2022-03-22T19:12:16Z</time>
      </trkpt>
      <trkpt lat="45.26271" lon="4.66748">
        <ele>424</ele>
        <time>2022-03-22T19:12:18Z</time>
      </trkpt>
      <trkpt lat="45.26284" lon="4.66738">
        <ele>423.17</ele>
        <time>2022-03-22T19:12:20Z</time>
      </trkpt>
      <trkpt lat="45.26437" lon="4.66558">
        <ele>419.99</ele>
        <time>2022-03-22T19:12:22Z</time>
      </trkpt>
      <trkpt lat="45.26451" lon="4.6654">
        <ele>419.73</ele>
        <time>2022-03-22T19:12:25Z</time>
      </trkpt>
      <trkpt lat="45.26462" lon="4.6652">
        <ele>420.31</ele>
        <time>2022-03-22T19:12:27Z</time>
      </trkpt>
      <trkpt lat="45.26467" lon="4.66495">
        <ele>421.57</ele>
        <time>2022-03-22T19:12:29Z</time>
      </trkpt>
      <trkpt lat="45.2647" lon="4.66336">
        <ele>423.92</ele>
        <time>2022-03-22T19:12:31Z</time>
      </trkpt>
      <trkpt lat="45.26473" lon="4.66304">
        <ele>424.95</ele>
        <time>2022-03-22T19:12:33Z</time>
      </trkpt>
      <trkpt lat="45.26479" lon="4.66281">
        <ele>424.03</ele>
        <time>2022-03-22T19:12:35Z</time>
      </trkpt>
      <trkpt lat="45.26493" lon="4.66255">
        <ele>422.67</ele>
        <time>2022-03-22T19:12:37Z</time>
      </trkpt>
      <trkpt lat="45.26577" lon="4.66121">
        <ele>419.23</ele>
        <time>2022-03-22T19:12:40Z</time>
      </trkpt>
      <trkpt lat="45.26672" lon="4.65991">
        <ele>419.31</ele>
        <time>2022-03-22T19:12:42Z</time>
      </trkpt>
      <trkpt lat="45.26682" lon="4.65964">
        <ele>420</ele>
        <time>2022-03-22T19:12:44Z</time>
      </trkpt>
      <trkpt lat="45.26685" lon="4.6593">
        <ele>419.35</ele>
        <time>2022-03-22T19:12:46Z</time>
      </trkpt>
      <trkpt lat="45.26683" lon="4.65901">
        <ele>418.3</ele>
        <time>2022-03-22T19:12:48Z</time>
      </trkpt>
      <trkpt lat="45.26652" lon="4.6579">
        <ele>416.33</ele>
        <time>2022-03-22T19:12:50Z</time>
      </trkpt>
      <trkpt lat="45.26648" lon="4.65745">
        <ele>416.01</ele>
        <time>2022-03-22T19:12:52Z</time>
      </trkpt>
      <trkpt lat="45.26648" lon="4.6566">
        <ele>417.89</ele>
        <time>2022-03-22T19:12:55Z</time>
      </trkpt>
      <trkpt lat="45.26653" lon="4.6563">
        <ele>418.89</ele>
        <time>2022-03-22T19:12:57Z</time>
      </trkpt>
      <trkpt lat="45.2666" lon="4.65599">
        <ele>419.38</ele>
        <time>2022-03-22T19:12:59Z</time>
      </trkpt>
      <trkpt lat="45.26728" lon="4.65416">
        <ele>415.43</ele>
        <time>2022-03-22T19:13:01Z</time>
      </trkpt>
      <trkpt lat="45.26744" lon="4.65388">
        <ele>411.26</ele>
        <time>2022-03-22T19:13:03Z</time>
      </trkpt>
      <trkpt lat="45.2677" lon="4.65358">
        <ele>411.22</ele>
        <time>2022-03-22T19:13:05Z</time>
      </trkpt>
      <trkpt lat="45.2682" lon="4.65312">
        <ele>413.37</ele>
        <time>2022-03-22T19:13:07Z</time>
      </trkpt>
      <trkpt lat="45.26865" lon="4.65293">
        <ele>409.09</ele>
        <time>2022-03-22T19:13:10Z</time>
      </trkpt>
      <trkpt lat="45.26886" lon="4.65282">
        <ele>407.34</ele>
        <time>2022-03-22T19:13:12Z</time>
      </trkpt>
      <trkpt lat="45.26902" lon="4.65271">
        <ele>406.66</ele>
        <time>2022-03-22T19:13:14Z</time>
      </trkpt>
      <trkpt lat="45.26916" lon="4.65256">
        <ele>406.79</ele>
        <time>2022-03-22T19:13:16Z</time>
      </trkpt>
      <trkpt lat="45.26933" lon="4.65228">
        <ele>407.34</ele>
        <time>2022-03-22T19:13:18Z</time>
      </trkpt>
      <trkpt lat="45.26942" lon="4.65194">
        <ele>407.92</ele>
        <time>2022-03-22T19:13:20Z</time>
      </trkpt>
      <trkpt lat="45.26944" lon="4.65164">
        <ele>407.98</ele>
        <time>2022-03-22T19:13:22Z</time>
      </trkpt>
      <trkpt lat="45.26941" lon="4.65068">
        <ele>408.71</ele>
        <time>2022-03-22T19:13:25Z</time>
      </trkpt>
      <trkpt lat="45.26942" lon="4.6504">
        <ele>408.74</ele>
        <time>2022-03-22T19:13:27Z</time>
      </trkpt>
      <trkpt lat="45.26945" lon="4.65017">
        <ele>409.15</ele>
        <time>2022-03-22T19:13:29Z</time>
      </trkpt>
      <trkpt lat="45.26952" lon="4.64998">
        <ele>410.3</ele>
        <time>2022-03-22T19:13:31Z</time>
      </trkpt>
      <trkpt lat="45.26972" lon="4.64966">
        <ele>411.51</ele>
        <time>2022-03-22T19:13:33Z</time>
      </trkpt>
      <trkpt lat="45.26989" lon="4.64942">
        <ele>411.62</ele>
        <time>2022-03-22T19:13:35Z</time>
      </trkpt>
      <trkpt lat="45.27001" lon="4.64929">
        <ele>411.58</ele>
        <time>2022-03-22T19:13:37Z</time>
      </trkpt>
      <trkpt lat="45.2702" lon="4.64919">
        <ele>412.58</ele>
        <time>2022-03-22T19:13:40Z</time>
      </trkpt>
      <trkpt lat="45.27054" lon="4.64907">
        <ele>415.6</ele>
        <time>2022-03-22T19:13:42Z</time>
      </trkpt>
      <trkpt lat="45.27076" lon="4.64905">
        <ele>417.29</ele>
        <time>2022-03-22T19:13:44Z</time>
      </trkpt>
      <trkpt lat="45.27173" lon="4.64916">
        <ele>415.53</ele>
        <time>2022-03-22T19:13:46Z</time>
      </trkpt>
      <trkpt lat="45.27219" lon="4.6493">
        <ele>415.08</ele>
        <time>2022-03-22T19:13:48Z</time>
      </trkpt>
      <trkpt lat="45.27254" lon="4.6495">
        <ele>416.3</ele>
        <time>2022-03-22T19:13:50Z</time>
      </trkpt>
      <trkpt lat="45.2729" lon="4.64965">
        <ele>417.16</ele>
        <time>2022-03-22T19:13:52Z</time>
      </trkpt>
      <trkpt lat="45.27327" lon="4.64969">
        <ele>416.34</ele>
        <time>2022-03-22T19:13:55Z</time>
      </trkpt>
      <trkpt lat="45.2748" lon="4.64934">
        <ele>416.99</ele>
        <time>2022-03-22T19:13:57Z</time>
      </trkpt>
      <trkpt lat="45.27519" lon="4.64927">
        <ele>417.18</ele>
        <time>2022-03-22T19:13:59Z</time>
      </trkpt>
      <trkpt lat="45.27551" lon="4.64917">
        <ele>417.79</ele>
        <time>2022-03-22T19:14:01Z</time>
      </trkpt>
      <trkpt lat="45.27564" lon="4.64906">
        <ele>416.58</ele>
        <time>2022-03-22T19:14:03Z</time>
      </trkpt>
      <trkpt lat="45.27569" lon="4.64896">
        <ele>415.43</ele>
        <time>2022-03-22T19:14:05Z</time>
      </trkpt>
      <trkpt lat="45.27591" lon="4.64836">
        <ele>413.64</ele>
        <time>2022-03-22T19:14:07Z</time>
      </trkpt>
      <trkpt lat="45.27596" lon="4.64829">
        <ele>413.68</ele>
        <time>2022-03-22T19:14:10Z</time>
      </trkpt>
      <trkpt lat="45.27607" lon="4.64824">
        <ele>414.29</ele>
        <time>2022-03-22T19:14:12Z</time>
      </trkpt>
      <trkpt lat="45.27615" lon="4.64824">
        <ele>414.95</ele>
        <time>2022-03-22T19:14:14Z</time>
      </trkpt>
      <trkpt lat="45.27624" lon="4.64828">
        <ele>415.68</ele>
        <time>2022-03-22T19:14:16Z</time>
      </trkpt>
      <trkpt lat="45.27629" lon="4.64841">
        <ele>416.4</ele>
        <time>2022-03-22T19:14:18Z</time>
      </trkpt>
      <trkpt lat="45.27629" lon="4.64851">
        <ele>416.5</ele>
        <time>2022-03-22T19:14:23Z</time>
      </trkpt>
      <trkpt lat="45.2763" lon="4.64855">
        <ele>416.61</ele>
        <time>2022-03-22T19:14:28Z</time>
      </trkpt>
      <trkpt lat="45.27638" lon="4.64864">
        <ele>416.95</ele>
        <time>2022-03-22T19:14:33Z</time>
      </trkpt>
      <trkpt lat="45.27646" lon="4.64863">
        <ele>418.01</ele>
        <time>2022-03-22T19:14:38Z</time>
      </trkpt>
      <trkpt lat="45.2765" lon="4.6486">
        <ele>418.52</ele>
        <time>2022-03-22T19:14:42Z</time>
      </trkpt>
      <trkpt lat="45.27653" lon="4.64849">
        <ele>419.07</ele>
        <time>2022-03-22T19:14:47Z</time>
      </trkpt>
      <trkpt lat="45.27652" lon="4.64837">
        <ele>418.81</ele>
        <time>2022-03-22T19:14:52Z</time>
      </trkpt>
      <trkpt lat="45.27657" lon="4.64816">
        <ele>418.93</ele>
        <time>2022-03-22T19:14:57Z</time>
      </trkpt>
      <trkpt lat="45.27985" lon="4.64058">
        <ele>425</ele>
        <time>2022-03-22T19:15:02Z</time>
      </trkpt>
      <trkpt lat="45.28051" lon="4.63901">
        <ele>425.54</ele>
        <time>2022-03-22T19:15:07Z</time>
      </trkpt>
      <trkpt lat="45.28095" lon="4.63797">
        <ele>428.95</ele>
        <time>2022-03-22T19:15:11Z</time>
      </trkpt>
      <trkpt lat="45.28174" lon="4.63621">
        <ele>429.93</ele>
        <time>2022-03-22T19:15:16Z</time>
      </trkpt>
      <trkpt lat="45.28192" lon="4.63586">
        <ele>428.15</ele>
        <time>2022-03-22T19:15:21Z</time>
      </trkpt>
      <trkpt lat="45.28256" lon="4.63483">
        <ele>428.08</ele>
        <time>2022-03-22T19:15:26Z</time>
      </trkpt>
      <trkpt lat="45.28279" lon="4.63449">
        <ele>427.3</ele>
        <time>2022-03-22T19:15:31Z</time>
      </trkpt>
      <trkpt lat="45.28305" lon="4.63405">
        <ele>431.32</ele>
        <time>2022-03-22T19:15:36Z</time>
      </trkpt>
      <trkpt lat="45.28323" lon="4.63366">
        <ele>433.45</ele>
        <time>2022-03-22T19:15:40Z</time>
      </trkpt>
      <trkpt lat="45.28341" lon="4.63317">
        <ele>432.05</ele>
        <time>2022-03-22T19:15:45Z</time>
      </trkpt>
      <trkpt lat="45.28379" lon="4.63226">
        <ele>432.15</ele>
        <time>2022-03-22T19:15:50Z</time>
      </trkpt>
      <trkpt lat="45.28395" lon="4.63208">
        <ele>432.57</ele>
        <time>2022-03-22T19:15:55Z</time>
      </trkpt>
      <trkpt lat="45.28419" lon="4.63188">
        <ele>433.73</ele>
        <time>2022-03-22T19:16:00Z</time>
      </trkpt>
      <trkpt lat="45.28527" lon="4.63115">
        <ele>435.26</ele>
        <time>2022-03-22T19:16:05Z</time>
      </trkpt>
      <trkpt lat="45.28539" lon="4.63109">
        <ele>435.29</ele>
        <time>2022-03-22T19:16:09Z</time>
      </trkpt>
      <trkpt lat="45.28554" lon="4.63103">
        <ele>435.36</ele>
        <time>2022-03-22T19:16:14Z</time>
      </trkpt>
      <trkpt lat="45.28612" lon="4.63087">
        <ele>438.54</ele>
        <time>2022-03-22T19:16:19Z</time>
      </trkpt>
      <trkpt lat="45.28669" lon="4.6308">
        <ele>439.63</ele>
        <time>2022-03-22T19:16:24Z</time>
      </trkpt>
      <trkpt lat="45.28827" lon="4.63038">
        <ele>442.94</ele>
        <time>2022-03-22T19:16:29Z</time>
      </trkpt>
      <trkpt lat="45.28848" lon="4.63027">
        <ele>442.55</ele>
        <time>2022-03-22T19:16:34Z</time>
      </trkpt>
      <trkpt lat="45.28891" lon="4.62998">
        <ele>441.96</ele>
        <time>2022-03-22T19:16:38Z</time>
      </trkpt>
      <trkpt lat="45.28907" lon="4.6299">
        <ele>442.49</ele>
        <time>2022-03-22T19:16:43Z</time>
      </trkpt>
      <trkpt lat="45.28929" lon="4.62987">
        <ele>443.46</ele>
        <time>2022-03-22T19:16:48Z</time>
      </trkpt>
      <trkpt lat="45.28954" lon="4.62983">
        <ele>444.95</ele>
        <time>2022-03-22T19:16:53Z</time>
      </trkpt>
      <trkpt lat="45.29012" lon="4.62951">
        <ele>444.84</ele>
        <time>2022-03-22T19:16:58Z</time>
      </trkpt>
      <trkpt lat="45.29035" lon="4.62937">
        <ele>445.8</ele>
        <time>2022-03-22T19:17:03Z</time>
      </trkpt>
      <trkpt lat="45.29058" lon="4.62918">
        <ele>445.32</ele>
        <time>2022-03-22T19:17:07Z</time>
      </trkpt>
      <trkpt lat="45.29079" lon="4.62891">
        <ele>443.95</ele>
        <time>2022-03-22T19:17:12Z</time>
      </trkpt>
      <trkpt lat="45.29123" lon="4.62823">
        <ele>444.26</ele>
        <time>2022-03-22T19:17:17Z</time>
      </trkpt>
      <trkpt lat="45.29174" lon="4.62725">
        <ele>444.72</ele>
        <time>2022-03-22T19:17:22Z</time>
      </trkpt>
      <trkpt lat="45.29182" lon="4.62707">
        <ele>445.87</ele>
        <time>2022-03-22T19:17:27Z</time>
      </trkpt>
      <trkpt lat="45.29197" lon="4.62663">
        <ele>447.42</ele>
        <time>2022-03-22T19:17:32Z</time>
      </trkpt>
      <trkpt lat="45.29212" lon="4.62604">
        <ele>450.13</ele>
        <time>2022-03-22T19:17:36Z</time>
      </trkpt>
      <trkpt lat="45.29219" lon="4.62563">
        <ele>451.48</ele>
        <time>2022-03-22T19:17:41Z</time>
      </trkpt>
      <trkpt lat="45.29227" lon="4.62501">
        <ele>451.4</ele>
        <time>2022-03-22T19:17:46Z</time>
      </trkpt>
      <trkpt lat="45.2923" lon="4.62455">
        <ele>450.82</ele>
        <time>2022-03-22T19:17:51Z</time>
      </trkpt>
      <trkpt lat="45.2923" lon="4.62417">
        <ele>449.9</ele>
        <time>2022-03-22T19:17:56Z</time>
      </trkpt>
      <trkpt lat="45.29228" lon="4.62351">
        <ele>447.51</ele>
        <time>2022-03-22T19:18:01Z</time>
      </trkpt>
      <trkpt lat="45.29229" lon="4.62336">
        <ele>447.96</ele>
        <time>2022-03-22T19:18:05Z</time>
      </trkpt>
      <trkpt lat="45.29235" lon="4.62297">
        <ele>449.77</ele>
        <time>2022-03-22T19:18:10Z</time>
      </trkpt>
      <trkpt lat="45.29215" lon="4.62293">
        <ele>448</ele>
        <time>2022-03-22T19:18:15Z</time>
      </trkpt>
      <trkpt lat="45.29215" lon="4.62293">
        <ele>448</ele>
        <time>2022-03-22T19:18:15Z</time>
      </trkpt>
      <trkpt lat="45.29235" lon="4.62297">
        <ele>449.77</ele>
        <time>2022-03-22T19:18:19Z</time>
      </trkpt>
      <trkpt lat="45.29238" lon="4.62275">
        <ele>450.18</ele>
        <time>2022-03-22T19:18:23Z</time>
      </trkpt>
      <trkpt lat="45.29309" lon="4.618">
        <ele>454.85</ele>
        <time>2022-03-22T19:18:27Z</time>
      </trkpt>
      <trkpt lat="45.29313" lon="4.6176">
        <ele>455.98</ele>
        <time>2022-03-22T19:18:31Z</time>
      </trkpt>
      <trkpt lat="45.29314" lon="4.61736">
        <ele>456.5</ele>
        <time>2022-03-22T19:18:34Z</time>
      </trkpt>
      <trkpt lat="45.29313" lon="4.61707">
        <ele>457.36</ele>
        <time>2022-03-22T19:18:38Z</time>
      </trkpt>
      <trkpt lat="45.29309" lon="4.61684">
        <ele>457.75</ele>
        <time>2022-03-22T19:18:42Z</time>
      </trkpt>
      <trkpt lat="45.29237" lon="4.61425">
        <ele>464.45</ele>
        <time>2022-03-22T19:18:46Z</time>
      </trkpt>
      <trkpt lat="45.29225" lon="4.61377">
        <ele>463.87</ele>
        <time>2022-03-22T19:18:49Z</time>
      </trkpt>
      <trkpt lat="45.29222" lon="4.61348">
        <ele>462.87</ele>
        <time>2022-03-22T19:18:53Z</time>
      </trkpt>
      <trkpt lat="45.29223" lon="4.61317">
        <ele>463.19</ele>
        <time>2022-03-22T19:18:57Z</time>
      </trkpt>
      <trkpt lat="45.29231" lon="4.61245">
        <ele>460.92</ele>
        <time>2022-03-22T19:19:00Z</time>
      </trkpt>
      <trkpt lat="45.29235" lon="4.61229">
        <ele>461.08</ele>
        <time>2022-03-22T19:19:04Z</time>
      </trkpt>
      <trkpt lat="45.29243" lon="4.61208">
        <ele>462</ele>
        <time>2022-03-22T19:19:08Z</time>
      </trkpt>
      <trkpt lat="45.29259" lon="4.61173">
        <ele>464.32</ele>
        <time>2022-03-22T19:19:12Z</time>
      </trkpt>
      <trkpt lat="45.29271" lon="4.61143">
        <ele>465.05</ele>
        <time>2022-03-22T19:19:15Z</time>
      </trkpt>
      <trkpt lat="45.29276" lon="4.61125">
        <ele>465.64</ele>
        <time>2022-03-22T19:19:19Z</time>
      </trkpt>
      <trkpt lat="45.2928" lon="4.611">
        <ele>466.74</ele>
        <time>2022-03-22T19:19:23Z</time>
      </trkpt>
      <trkpt lat="45.29283" lon="4.61063">
        <ele>468.1</ele>
        <time>2022-03-22T19:19:27Z</time>
      </trkpt>
      <trkpt lat="45.29284" lon="4.60884">
        <ele>466.85</ele>
        <time>2022-03-22T19:19:30Z</time>
      </trkpt>
      <trkpt lat="45.29281" lon="4.6086">
        <ele>467.33</ele>
        <time>2022-03-22T19:19:34Z</time>
      </trkpt>
      <trkpt lat="45.29275" lon="4.60835">
        <ele>467.64</ele>
        <time>2022-03-22T19:19:38Z</time>
      </trkpt>
      <trkpt lat="45.29243" lon="4.60735">
        <ele>467.54</ele>
        <time>2022-03-22T19:19:42Z</time>
      </trkpt>
      <trkpt lat="45.29237" lon="4.60715">
        <ele>468.48</ele>
        <time>2022-03-22T19:19:45Z</time>
      </trkpt>
      <trkpt lat="45.29233" lon="4.60688">
        <ele>469.53</ele>
        <time>2022-03-22T19:19:49Z</time>
      </trkpt>
      <trkpt lat="45.29207" lon="4.60333">
        <ele>474.14</ele>
        <time>2022-03-22T19:19:53Z</time>
      </trkpt>
      <trkpt lat="45.292" lon="4.60191">
        <ele>471.66</ele>
        <time>2022-03-22T19:19:57Z</time>
      </trkpt>
      <trkpt lat="45.29195" lon="4.60155">
        <ele>472.07</ele>
        <time>2022-03-22T19:20:00Z</time>
      </trkpt>
      <trkpt lat="45.29183" lon="4.60111">
        <ele>473.19</ele>
        <time>2022-03-22T19:20:04Z</time>
      </trkpt>
      <trkpt lat="45.29174" lon="4.6009">
        <ele>474.31</ele>
        <time>2022-03-22T19:20:08Z</time>
      </trkpt>
      <trkpt lat="45.29152" lon="4.60054">
        <ele>474.98</ele>
        <time>2022-03-22T19:20:12Z</time>
      </trkpt>
      <trkpt lat="45.29106" lon="4.60001">
        <ele>474.99</ele>
        <time>2022-03-22T19:20:15Z</time>
      </trkpt>
      <trkpt lat="45.29017" lon="4.59909">
        <ele>481.48</ele>
        <time>2022-03-22T19:20:19Z</time>
      </trkpt>
      <trkpt lat="45.2901" lon="4.59899">
        <ele>481.5</ele>
        <time>2022-03-22T19:20:23Z</time>
      </trkpt>
      <trkpt lat="45.28997" lon="4.59877">
        <ele>481.96</ele>
        <time>2022-03-22T19:20:27Z</time>
      </trkpt>
      <trkpt lat="45.28989" lon="4.59851">
        <ele>482.49</ele>
        <time>2022-03-22T19:20:30Z</time>
      </trkpt>
      <trkpt lat="45.28982" lon="4.59804">
        <ele>484.21</ele>
        <time>2022-03-22T19:20:34Z</time>
      </trkpt>
      <trkpt lat="45.28973" lon="4.59704">
        <ele>482.91</ele>
        <time>2022-03-22T19:20:38Z</time>
      </trkpt>
      <trkpt lat="45.2897" lon="4.5967">
        <ele>482.57</ele>
        <time>2022-03-22T19:20:41Z</time>
      </trkpt>
      <trkpt lat="45.28971" lon="4.59656">
        <ele>482.64</ele>
        <time>2022-03-22T19:20:45Z</time>
      </trkpt>
      <trkpt lat="45.28975" lon="4.59629">
        <ele>482.6</ele>
        <time>2022-03-22T19:20:49Z</time>
      </trkpt>
      <trkpt lat="45.2898" lon="4.59617">
        <ele>482.29</ele>
        <time>2022-03-22T19:20:53Z</time>
      </trkpt>
      <trkpt lat="45.28986" lon="4.59607">
        <ele>482.79</ele>
        <time>2022-03-22T19:20:56Z</time>
      </trkpt>
      <trkpt lat="45.2902" lon="4.59576">
        <ele>486.4</ele>
        <time>2022-03-22T19:21:00Z</time>
      </trkpt>
      <trkpt lat="45.29044" lon="4.59547">
        <ele>487.83</ele>
        <time>2022-03-22T19:21:04Z</time>
      </trkpt>
      <trkpt lat="45.29064" lon="4.59511">
        <ele>488.83</ele>
        <time>2022-03-22T19:21:08Z</time>
      </trkpt>
      <trkpt lat="45.29082" lon="4.59475">
        <ele>490.71</ele>
        <time>2022-03-22T19:21:11Z</time>
      </trkpt>
      <trkpt lat="45.29091" lon="4.59449">
        <ele>491.14</ele>
        <time>2022-03-22T19:21:15Z</time>
      </trkpt>
      <trkpt lat="45.29099" lon="4.59422">
        <ele>490.6</ele>
        <time>2022-03-22T19:21:19Z</time>
      </trkpt>
      <trkpt lat="45.29113" lon="4.59352">
        <ele>487.04</ele>
        <time>2022-03-22T19:21:23Z</time>
      </trkpt>
      <trkpt lat="45.29119" lon="4.59332">
        <ele>487.12</ele>
        <time>2022-03-22T19:21:26Z</time>
      </trkpt>
      <trkpt lat="45.29128" lon="4.59311">
        <ele>487.43</ele>
        <time>2022-03-22T19:21:30Z</time>
      </trkpt>
      <trkpt lat="45.29141" lon="4.5929">
        <ele>487.11</ele>
        <time>2022-03-22T19:21:34Z</time>
      </trkpt>
      <trkpt lat="45.29157" lon="4.59275">
        <ele>487.05</ele>
        <time>2022-03-22T19:21:38Z</time>
      </trkpt>
      <trkpt lat="45.29169" lon="4.59266">
        <ele>487.44</ele>
        <time>2022-03-22T19:21:41Z</time>
      </trkpt>
      <trkpt lat="45.29196" lon="4.59257">
        <ele>489.08</ele>
        <time>2022-03-22T19:21:45Z</time>
      </trkpt>
      <trkpt lat="45.2957" lon="4.59219">
        <ele>495.92</ele>
        <time>2022-03-22T19:21:49Z</time>
      </trkpt>
      <trkpt lat="45.29598" lon="4.59213">
        <ele>495.77</ele>
        <time>2022-03-22T19:21:53Z</time>
      </trkpt>
      <trkpt lat="45.29647" lon="4.59189">
        <ele>497.26</ele>
        <time>2022-03-22T19:21:56Z</time>
      </trkpt>
      <trkpt lat="45.29747" lon="4.59135">
        <ele>499.85</ele>
        <time>2022-03-22T19:22:00Z</time>
      </trkpt>
      <trkpt lat="45.29793" lon="4.59104">
        <ele>500.22</ele>
        <time>2022-03-22T19:22:04Z</time>
      </trkpt>
      <trkpt lat="45.29814" lon="4.59086">
        <ele>500.85</ele>
        <time>2022-03-22T19:22:08Z</time>
      </trkpt>
      <trkpt lat="45.29838" lon="4.59056">
        <ele>501.16</ele>
        <time>2022-03-22T19:22:11Z</time>
      </trkpt>
      <trkpt lat="45.29924" lon="4.58927">
        <ele>501.28</ele>
        <time>2022-03-22T19:22:15Z</time>
      </trkpt>
      <trkpt lat="45.29938" lon="4.58898">
        <ele>502.44</ele>
        <time>2022-03-22T19:22:19Z</time>
      </trkpt>
      <trkpt lat="45.29945" lon="4.58874">
        <ele>502.55</ele>
        <time>2022-03-22T19:22:22Z</time>
      </trkpt>
      <trkpt lat="45.29949" lon="4.58849">
        <ele>503.28</ele>
        <time>2022-03-22T19:22:26Z</time>
      </trkpt>
      <trkpt lat="45.2995" lon="4.58828">
        <ele>503.2</ele>
        <time>2022-03-22T19:22:30Z</time>
      </trkpt>
      <trkpt lat="45.29935" lon="4.58617">
        <ele>507.11</ele>
        <time>2022-03-22T19:22:34Z</time>
      </trkpt>
      <trkpt lat="45.29936" lon="4.58568">
        <ele>506.04</ele>
        <time>2022-03-22T19:22:37Z</time>
      </trkpt>
      <trkpt lat="45.29941" lon="4.58501">
        <ele>507.44</ele>
        <time>2022-03-22T19:22:41Z</time>
      </trkpt>
      <trkpt lat="45.29947" lon="4.58459">
        <ele>506.21</ele>
        <time>2022-03-22T19:22:45Z</time>
      </trkpt>
      <trkpt lat="45.29955" lon="4.58407">
        <ele>507.08</ele>
        <time>2022-03-22T19:22:49Z</time>
      </trkpt>
      <trkpt lat="45.2998" lon="4.58318">
        <ele>508.62</ele>
        <time>2022-03-22T19:22:52Z</time>
      </trkpt>
      <trkpt lat="45.29985" lon="4.58285">
        <ele>509.65</ele>
        <time>2022-03-22T19:22:56Z</time>
      </trkpt>
      <trkpt lat="45.29974" lon="4.58053">
        <ele>508.08</ele>
        <time>2022-03-22T19:23:00Z</time>
      </trkpt>
      <trkpt lat="45.29967" lon="4.57988">
        <ele>507.8</ele>
        <time>2022-03-22T19:23:04Z</time>
      </trkpt>
      <trkpt lat="45.29964" lon="4.57926">
        <ele>507.69</ele>
        <time>2022-03-22T19:23:07Z</time>
      </trkpt>
      <trkpt lat="45.29964" lon="4.57873">
        <ele>507.7</ele>
        <time>2022-03-22T19:23:11Z</time>
      </trkpt>
      <trkpt lat="45.29969" lon="4.5775">
        <ele>511.75</ele>
        <time>2022-03-22T19:23:15Z</time>
      </trkpt>
      <trkpt lat="45.29949" lon="4.57463">
        <ele>517.68</ele>
        <time>2022-03-22T19:23:19Z</time>
      </trkpt>
      <trkpt lat="45.29943" lon="4.57428">
        <ele>518</ele>
        <time>2022-03-22T19:23:22Z</time>
      </trkpt>
      <trkpt lat="45.29934" lon="4.574">
        <ele>518.04</ele>
        <time>2022-03-22T19:23:26Z</time>
      </trkpt>
      <trkpt lat="45.29933" lon="4.57387">
        <ele>518.34</ele>
        <time>2022-03-22T19:23:30Z</time>
      </trkpt>
      <trkpt lat="45.29935" lon="4.57379">
        <ele>518.57</ele>
        <time>2022-03-22T19:23:34Z</time>
      </trkpt>
      <trkpt lat="45.29942" lon="4.57372">
        <ele>519.63</ele>
        <time>2022-03-22T19:23:40Z</time>
      </trkpt>
      <trkpt lat="45.29946" lon="4.57359">
        <ele>520.33</ele>
        <time>2022-03-22T19:23:47Z</time>
      </trkpt>
      <trkpt lat="45.29945" lon="4.5735">
        <ele>520.1</ele>
        <time>2022-03-22T19:23:53Z</time>
      </trkpt>
      <trkpt lat="45.2994" lon="4.5734">
        <ele>519.27</ele>
        <time>2022-03-22T19:24:00Z</time>
      </trkpt>
      <trkpt lat="45.29937" lon="4.57303">
        <ele>519.68</ele>
        <time>2022-03-22T19:24:07Z</time>
      </trkpt>
      <trkpt lat="45.29929" lon="4.57197">
        <ele>521.54</ele>
        <time>2022-03-22T19:24:13Z</time>
      </trkpt>
      <trkpt lat="45.2992" lon="4.57136">
        <ele>521.02</ele>
        <time>2022-03-22T19:24:20Z</time>
      </trkpt>
      <trkpt lat="45.299" lon="4.57068">
        <ele>523.68</ele>
        <time>2022-03-22T19:24:26Z</time>
      </trkpt>
      <trkpt lat="45.2971" lon="4.56536">
        <ele>531.67</ele>
        <time>2022-03-22T19:24:33Z</time>
      </trkpt>
      <trkpt lat="45.2968" lon="4.56459">
        <ele>535.14</ele>
        <time>2022-03-22T19:24:40Z</time>
      </trkpt>
      <trkpt lat="45.29671" lon="4.56423">
        <ele>537.68</ele>
        <time>2022-03-22T19:24:46Z</time>
      </trkpt>
      <trkpt lat="45.29652" lon="4.56341">
        <ele>541.96</ele>
        <time>2022-03-22T19:24:53Z</time>
      </trkpt>
      <trkpt lat="45.29645" lon="4.56294">
        <ele>542.35</ele>
        <time>2022-03-22T19:24:59Z</time>
      </trkpt>
      <trkpt lat="45.29638" lon="4.562">
        <ele>542.85</ele>
        <time>2022-03-22T19:25:06Z</time>
      </trkpt>
      <trkpt lat="45.29639" lon="4.56186">
        <ele>543.06</ele>
        <time>2022-03-22T19:25:13Z</time>
      </trkpt>
      <trkpt lat="45.29643" lon="4.56174">
        <ele>543.5</ele>
        <time>2022-03-22T19:25:19Z</time>
      </trkpt>
      <trkpt lat="45.29672" lon="4.56097">
        <ele>542.46</ele>
        <time>2022-03-22T19:25:26Z</time>
      </trkpt>
      <trkpt lat="45.29677" lon="4.56079">
        <ele>542.82</ele>
        <time>2022-03-22T19:25:32Z</time>
      </trkpt>
      <trkpt lat="45.29677" lon="4.56066">
        <ele>543.16</ele>
        <time>2022-03-22T19:25:35Z</time>
      </trkpt>
      <trkpt lat="45.29675" lon="4.56061">
        <ele>543.16</ele>
        <time>2022-03-22T19:25:38Z</time>
      </trkpt>
      <trkpt lat="45.29663" lon="4.56051">
        <ele>542.92</ele>
        <time>2022-03-22T19:25:40Z</time>
      </trkpt>
      <trkpt lat="45.29652" lon="4.56022">
        <ele>543.76</ele>
        <time>2022-03-22T19:25:43Z</time>
      </trkpt>
      <trkpt lat="45.29637" lon="4.56005">
        <ele>544.69</ele>
        <time>2022-03-22T19:25:45Z</time>
      </trkpt>
      <trkpt lat="45.29607" lon="4.55957">
        <ele>541.3</ele>
        <time>2022-03-22T19:25:48Z</time>
      </trkpt>
      <trkpt lat="45.29588" lon="4.55931">
        <ele>541.58</ele>
        <time>2022-03-22T19:25:50Z</time>
      </trkpt>
      <trkpt lat="45.29552" lon="4.55881">
        <ele>542.28</ele>
        <time>2022-03-22T19:25:53Z</time>
      </trkpt>
      <trkpt lat="45.2954" lon="4.55857">
        <ele>543.33</ele>
        <time>2022-03-22T19:25:55Z</time>
      </trkpt>
      <trkpt lat="45.29511" lon="4.55811">
        <ele>545.74</ele>
        <time>2022-03-22T19:25:58Z</time>
      </trkpt>
      <trkpt lat="45.29504" lon="4.55799">
        <ele>545.98</ele>
        <time>2022-03-22T19:26:00Z</time>
      </trkpt>
      <trkpt lat="45.2948" lon="4.55776">
        <ele>542.13</ele>
        <time>2022-03-22T19:26:03Z</time>
      </trkpt>
      <trkpt lat="45.29457" lon="4.55746">
        <ele>540.25</ele>
        <time>2022-03-22T19:26:06Z</time>
      </trkpt>
      <trkpt lat="45.29429" lon="4.55698">
        <ele>541.54</ele>
        <time>2022-03-22T19:26:08Z</time>
      </trkpt>
      <trkpt lat="45.29386" lon="4.55637">
        <ele>542.07</ele>
        <time>2022-03-22T19:26:11Z</time>
      </trkpt>
      <trkpt lat="45.2934" lon="4.55553">
        <ele>546.13</ele>
        <time>2022-03-22T19:26:13Z</time>
      </trkpt>
      <trkpt lat="45.29312" lon="4.55501">
        <ele>547.35</ele>
        <time>2022-03-22T19:26:16Z</time>
      </trkpt>
      <trkpt lat="45.29299" lon="4.55484">
        <ele>547.56</ele>
        <time>2022-03-22T19:26:18Z</time>
      </trkpt>
      <trkpt lat="45.29291" lon="4.55478">
        <ele>547.4</ele>
        <time>2022-03-22T19:26:21Z</time>
      </trkpt>
      <trkpt lat="45.29275" lon="4.55473">
        <ele>546.6</ele>
        <time>2022-03-22T19:26:23Z</time>
      </trkpt>
      <trkpt lat="45.29252" lon="4.55469">
        <ele>544.34</ele>
        <time>2022-03-22T19:26:26Z</time>
      </trkpt>
      <trkpt lat="45.29201" lon="4.55468">
        <ele>542.96</ele>
        <time>2022-03-22T19:26:28Z</time>
      </trkpt>
      <trkpt lat="45.29191" lon="4.55468">
        <ele>543.47</ele>
        <time>2022-03-22T19:26:31Z</time>
      </trkpt>
      <trkpt lat="45.29133" lon="4.55465">
        <ele>549.43</ele>
        <time>2022-03-22T19:26:34Z</time>
      </trkpt>
      <trkpt lat="45.29078" lon="4.55451">
        <ele>552.26</ele>
        <time>2022-03-22T19:26:36Z</time>
      </trkpt>
      <trkpt lat="45.29057" lon="4.55448">
        <ele>553.39</ele>
        <time>2022-03-22T19:26:39Z</time>
      </trkpt>
      <trkpt lat="45.29039" lon="4.5545">
        <ele>553.58</ele>
        <time>2022-03-22T19:26:41Z</time>
      </trkpt>
      <trkpt lat="45.29023" lon="4.55446">
        <ele>553.98</ele>
        <time>2022-03-22T19:26:44Z</time>
      </trkpt>
      <trkpt lat="45.29004" lon="4.55438">
        <ele>554.53</ele>
        <time>2022-03-22T19:26:46Z</time>
      </trkpt>
      <trkpt lat="45.28986" lon="4.55416">
        <ele>556.01</ele>
        <time>2022-03-22T19:26:49Z</time>
      </trkpt>
      <trkpt lat="45.28977" lon="4.55395">
        <ele>555.63</ele>
        <time>2022-03-22T19:26:51Z</time>
      </trkpt>
      <trkpt lat="45.28959" lon="4.55324">
        <ele>559.48</ele>
        <time>2022-03-22T19:26:54Z</time>
      </trkpt>
      <trkpt lat="45.2895" lon="4.553">
        <ele>560.26</ele>
        <time>2022-03-22T19:26:56Z</time>
      </trkpt>
      <trkpt lat="45.28933" lon="4.55278">
        <ele>560.14</ele>
        <time>2022-03-22T19:26:59Z</time>
      </trkpt>
      <trkpt lat="45.2886" lon="4.55197">
        <ele>562.82</ele>
        <time>2022-03-22T19:27:02Z</time>
      </trkpt>
      <trkpt lat="45.28845" lon="4.55174">
        <ele>563.93</ele>
        <time>2022-03-22T19:27:04Z</time>
      </trkpt>
      <trkpt lat="45.28789" lon="4.55053">
        <ele>567.44</ele>
        <time>2022-03-22T19:27:07Z</time>
      </trkpt>
      <trkpt lat="45.28759" lon="4.54994">
        <ele>570.06</ele>
        <time>2022-03-22T19:27:09Z</time>
      </trkpt>
      <trkpt lat="45.28747" lon="4.54967">
        <ele>570.64</ele>
        <time>2022-03-22T19:27:12Z</time>
      </trkpt>
      <trkpt lat="45.28748" lon="4.54948">
        <ele>569.39</ele>
        <time>2022-03-22T19:27:14Z</time>
      </trkpt>
      <trkpt lat="45.28752" lon="4.54929">
        <ele>568.84</ele>
        <time>2022-03-22T19:27:17Z</time>
      </trkpt>
      <trkpt lat="45.28774" lon="4.54881">
        <ele>569.74</ele>
        <time>2022-03-22T19:27:19Z</time>
      </trkpt>
      <trkpt lat="45.28782" lon="4.54842">
        <ele>569.9</ele>
        <time>2022-03-22T19:27:22Z</time>
      </trkpt>
      <trkpt lat="45.28788" lon="4.54778">
        <ele>571.89</ele>
        <time>2022-03-22T19:27:25Z</time>
      </trkpt>
      <trkpt lat="45.28787" lon="4.54744">
        <ele>572.05</ele>
        <time>2022-03-22T19:27:27Z</time>
      </trkpt>
      <trkpt lat="45.28782" lon="4.54715">
        <ele>571</ele>
        <time>2022-03-22T19:27:30Z</time>
      </trkpt>
      <trkpt lat="45.28769" lon="4.54684">
        <ele>572.39</ele>
        <time>2022-03-22T19:27:32Z</time>
      </trkpt>
      <trkpt lat="45.28747" lon="4.54647">
        <ele>573.35</ele>
        <time>2022-03-22T19:27:35Z</time>
      </trkpt>
      <trkpt lat="45.28685" lon="4.54554">
        <ele>572.18</ele>
        <time>2022-03-22T19:27:37Z</time>
      </trkpt>
      <trkpt lat="45.28653" lon="4.54501">
        <ele>572.47</ele>
        <time>2022-03-22T19:27:40Z</time>
      </trkpt>
      <trkpt lat="45.28643" lon="4.54449">
        <ele>575.16</ele>
        <time>2022-03-22T19:27:42Z</time>
      </trkpt>
      <trkpt lat="45.28602" lon="4.54341">
        <ele>581.57</ele>
        <time>2022-03-22T19:27:45Z</time>
      </trkpt>
      <trkpt lat="45.28582" lon="4.54274">
        <ele>586.03</ele>
        <time>2022-03-22T19:27:47Z</time>
      </trkpt>
      <trkpt lat="45.28575" lon="4.54246">
        <ele>586.26</ele>
        <time>2022-03-22T19:27:50Z</time>
      </trkpt>
      <trkpt lat="45.28572" lon="4.54223">
        <ele>585.55</ele>
        <time>2022-03-22T19:27:53Z</time>
      </trkpt>
      <trkpt lat="45.28578" lon="4.54166">
        <ele>584.5</ele>
        <time>2022-03-22T19:27:55Z</time>
      </trkpt>
      <trkpt lat="45.28578" lon="4.54113">
        <ele>583.73</ele>
        <time>2022-03-22T19:27:58Z</time>
      </trkpt>
      <trkpt lat="45.28568" lon="4.54052">
        <ele>582.3</ele>
        <time>2022-03-22T19:28:00Z</time>
      </trkpt>
      <trkpt lat="45.28552" lon="4.53984">
        <ele>582.97</ele>
        <time>2022-03-22T19:28:03Z</time>
      </trkpt>
      <trkpt lat="45.28533" lon="4.53936">
        <ele>584.03</ele>
        <time>2022-03-22T19:28:05Z</time>
      </trkpt>
      <trkpt lat="45.28496" lon="4.53874">
        <ele>582.39</ele>
        <time>2022-03-22T19:28:08Z</time>
      </trkpt>
      <trkpt lat="45.28407" lon="4.53795">
        <ele>588.7</ele>
        <time>2022-03-22T19:28:10Z</time>
      </trkpt>
      <trkpt lat="45.28391" lon="4.53772">
        <ele>591.04</ele>
        <time>2022-03-22T19:28:13Z</time>
      </trkpt>
      <trkpt lat="45.28381" lon="4.53746">
        <ele>589.83</ele>
        <time>2022-03-22T19:28:15Z</time>
      </trkpt>
      <trkpt lat="45.28373" lon="4.53673">
        <ele>592.82</ele>
        <time>2022-03-22T19:28:18Z</time>
      </trkpt>
      <trkpt lat="45.28356" lon="4.53594">
        <ele>597.63</ele>
        <time>2022-03-22T19:28:21Z</time>
      </trkpt>
      <trkpt lat="45.28333" lon="4.53521">
        <ele>599.98</ele>
        <time>2022-03-22T19:28:23Z</time>
      </trkpt>
      <trkpt lat="45.283" lon="4.53457">
        <ele>600.93</ele>
        <time>2022-03-22T19:28:26Z</time>
      </trkpt>
      <trkpt lat="45.2823" lon="4.53359">
        <ele>610.02</ele>
        <time>2022-03-22T19:28:28Z</time>
      </trkpt>
      <trkpt lat="45.28217" lon="4.53325">
        <ele>612.94</ele>
        <time>2022-03-22T19:28:31Z</time>
      </trkpt>
      <trkpt lat="45.28212" lon="4.53285">
        <ele>617.6</ele>
        <time>2022-03-22T19:28:33Z</time>
      </trkpt>
      <trkpt lat="45.28213" lon="4.53254">
        <ele>622.29</ele>
        <time>2022-03-22T19:28:36Z</time>
      </trkpt>
      <trkpt lat="45.28215" lon="4.53227">
        <ele>625.98</ele>
        <time>2022-03-22T19:28:38Z</time>
      </trkpt>
      <trkpt lat="45.28212" lon="4.53198">
        <ele>628.66</ele>
        <time>2022-03-22T19:28:41Z</time>
      </trkpt>
      <trkpt lat="45.28206" lon="4.53179">
        <ele>629.86</ele>
        <time>2022-03-22T19:28:43Z</time>
      </trkpt>
      <trkpt lat="45.28197" lon="4.53161">
        <ele>629.7</ele>
        <time>2022-03-22T19:28:46Z</time>
      </trkpt>
      <trkpt lat="45.28172" lon="4.53121">
        <ele>625.27</ele>
        <time>2022-03-22T19:28:49Z</time>
      </trkpt>
      <trkpt lat="45.28163" lon="4.53096">
        <ele>623.34</ele>
        <time>2022-03-22T19:28:51Z</time>
      </trkpt>
      <trkpt lat="45.2816" lon="4.53066">
        <ele>622.72</ele>
        <time>2022-03-22T19:28:54Z</time>
      </trkpt>
      <trkpt lat="45.28161" lon="4.53038">
        <ele>622.7</ele>
        <time>2022-03-22T19:28:56Z</time>
      </trkpt>
      <trkpt lat="45.28172" lon="4.53007">
        <ele>624.75</ele>
        <time>2022-03-22T19:28:59Z</time>
      </trkpt>
      <trkpt lat="45.28195" lon="4.52963">
        <ele>631.27</ele>
        <time>2022-03-22T19:29:01Z</time>
      </trkpt>
      <trkpt lat="45.28218" lon="4.52908">
        <ele>632.1</ele>
        <time>2022-03-22T19:29:04Z</time>
      </trkpt>
      <trkpt lat="45.28225" lon="4.52868">
        <ele>632.95</ele>
        <time>2022-03-22T19:29:06Z</time>
      </trkpt>
      <trkpt lat="45.28234" lon="4.52743">
        <ele>636.52</ele>
        <time>2022-03-22T19:29:09Z</time>
      </trkpt>
      <trkpt lat="45.28234" lon="4.52721">
        <ele>636.03</ele>
        <time>2022-03-22T19:29:11Z</time>
      </trkpt>
      <trkpt lat="45.28231" lon="4.52699">
        <ele>636.09</ele>
        <time>2022-03-22T19:29:14Z</time>
      </trkpt>
      <trkpt lat="45.28199" lon="4.52543">
        <ele>641.84</ele>
        <time>2022-03-22T19:29:17Z</time>
      </trkpt>
      <trkpt lat="45.2815" lon="4.52348">
        <ele>645.51</ele>
        <time>2022-03-22T19:29:19Z</time>
      </trkpt>
      <trkpt lat="45.28122" lon="4.5227">
        <ele>643.28</ele>
        <time>2022-03-22T19:29:22Z</time>
      </trkpt>
      <trkpt lat="45.28097" lon="4.52215">
        <ele>642.38</ele>
        <time>2022-03-22T19:29:24Z</time>
      </trkpt>
      <trkpt lat="45.27926" lon="4.5195">
        <ele>647.2</ele>
        <time>2022-03-22T19:29:27Z</time>
      </trkpt>
      <trkpt lat="45.27914" lon="4.51914">
        <ele>648.5</ele>
        <time>2022-03-22T19:29:29Z</time>
      </trkpt>
      <trkpt lat="45.27901" lon="4.51828">
        <ele>653.7</ele>
        <time>2022-03-22T19:29:32Z</time>
      </trkpt>
      <trkpt lat="45.27898" lon="4.5179">
        <ele>657.29</ele>
        <time>2022-03-22T19:29:34Z</time>
      </trkpt>
      <trkpt lat="45.27901" lon="4.51753">
        <ele>659.96</ele>
        <time>2022-03-22T19:29:37Z</time>
      </trkpt>
      <trkpt lat="45.27929" lon="4.51515">
        <ele>661</ele>
        <time>2022-03-22T19:29:39Z</time>
      </trkpt>
      <trkpt lat="45.27924" lon="4.51438">
        <ele>662.65</ele>
        <time>2022-03-22T19:29:42Z</time>
      </trkpt>
      <trkpt lat="45.27906" lon="4.51364">
        <ele>669.95</ele>
        <time>2022-03-22T19:29:45Z</time>
      </trkpt>
      <trkpt lat="45.27834" lon="4.51202">
        <ele>672.8</ele>
        <time>2022-03-22T19:29:47Z</time>
      </trkpt>
      <trkpt lat="45.2781" lon="4.51174">
        <ele>674.26</ele>
        <time>2022-03-22T19:29:50Z</time>
      </trkpt>
      <trkpt lat="45.27777" lon="4.51145">
        <ele>676.06</ele>
        <time>2022-03-22T19:29:52Z</time>
      </trkpt>
      <trkpt lat="45.27648" lon="4.51049">
        <ele>677.97</ele>
        <time>2022-03-22T19:29:55Z</time>
      </trkpt>
      <trkpt lat="45.27626" lon="4.51022">
        <ele>678.18</ele>
        <time>2022-03-22T19:29:57Z</time>
      </trkpt>
      <trkpt lat="45.27606" lon="4.5099">
        <ele>680.71</ele>
        <time>2022-03-22T19:30:00Z</time>
      </trkpt>
      <trkpt lat="45.27594" lon="4.50959">
        <ele>682.64</ele>
        <time>2022-03-22T19:30:02Z</time>
      </trkpt>
      <trkpt lat="45.27579" lon="4.50898">
        <ele>683.47</ele>
        <time>2022-03-22T19:30:05Z</time>
      </trkpt>
      <trkpt lat="45.27559" lon="4.50834">
        <ele>684.08</ele>
        <time>2022-03-22T19:30:07Z</time>
      </trkpt>
      <trkpt lat="45.27529" lon="4.5077">
        <ele>687.9</ele>
        <time>2022-03-22T19:30:10Z</time>
      </trkpt>
      <trkpt lat="45.27525" lon="4.50765">
        <ele>687.69</ele>
        <time>2022-03-22T19:30:13Z</time>
      </trkpt>
      <trkpt lat="45.27489" lon="4.50621">
        <ele>698.49</ele>
        <time>2022-03-22T19:30:15Z</time>
      </trkpt>
      <trkpt lat="45.27478" lon="4.50586">
        <ele>701.51</ele>
        <time>2022-03-22T19:30:18Z</time>
      </trkpt>
      <trkpt lat="45.27438" lon="4.50485">
        <ele>708.28</ele>
        <time>2022-03-22T19:30:20Z</time>
      </trkpt>
      <trkpt lat="45.27416" lon="4.50415">
        <ele>714.02</ele>
        <time>2022-03-22T19:30:23Z</time>
      </trkpt>
      <trkpt lat="45.27408" lon="4.50394">
        <ele>717.02</ele>
        <time>2022-03-22T19:30:25Z</time>
      </trkpt>
      <trkpt lat="45.27373" lon="4.50334">
        <ele>716.53</ele>
        <time>2022-03-22T19:30:28Z</time>
      </trkpt>
      <trkpt lat="45.27323" lon="4.50237">
        <ele>718.27</ele>
        <time>2022-03-22T19:30:30Z</time>
      </trkpt>
      <trkpt lat="45.27289" lon="4.50178">
        <ele>719.34</ele>
        <time>2022-03-22T19:30:33Z</time>
      </trkpt>
      <trkpt lat="45.27257" lon="4.50129">
        <ele>721.84</ele>
        <time>2022-03-22T19:30:35Z</time>
      </trkpt>
      <trkpt lat="45.27231" lon="4.50081">
        <ele>722.15</ele>
        <time>2022-03-22T19:30:38Z</time>
      </trkpt>
      <trkpt lat="45.27206" lon="4.50047">
        <ele>722.72</ele>
        <time>2022-03-22T19:30:41Z</time>
      </trkpt>
      <trkpt lat="45.27139" lon="4.49948">
        <ele>725.8</ele>
        <time>2022-03-22T19:30:43Z</time>
      </trkpt>
      <trkpt lat="45.27116" lon="4.4991">
        <ele>727.96</ele>
        <time>2022-03-22T19:30:46Z</time>
      </trkpt>
      <trkpt lat="45.27099" lon="4.49871">
        <ele>728.34</ele>
        <time>2022-03-22T19:30:48Z</time>
      </trkpt>
      <trkpt lat="45.27076" lon="4.49773">
        <ele>734</ele>
        <time>2022-03-22T19:30:51Z</time>
      </trkpt>
      <trkpt lat="45.27049" lon="4.49718">
        <ele>734.93</ele>
        <time>2022-03-22T19:30:53Z</time>
      </trkpt>
      <trkpt lat="45.26981" lon="4.49626">
        <ele>740.92</ele>
        <time>2022-03-22T19:30:56Z</time>
      </trkpt>
      <trkpt lat="45.26918" lon="4.49515">
        <ele>745.97</ele>
        <time>2022-03-22T19:30:58Z</time>
      </trkpt>
      <trkpt lat="45.26909" lon="4.49504">
        <ele>745.96</ele>
        <time>2022-03-22T19:31:01Z</time>
      </trkpt>
      <trkpt lat="45.26858" lon="4.49453">
        <ele>746.94</ele>
        <time>2022-03-22T19:31:03Z</time>
      </trkpt>
      <trkpt lat="45.26741" lon="4.49346">
        <ele>760.76</ele>
        <time>2022-03-22T19:31:06Z</time>
      </trkpt>
      <trkpt lat="45.26715" lon="4.49328">
        <ele>762.76</ele>
        <time>2022-03-22T19:31:09Z</time>
      </trkpt>
      <trkpt lat="45.2669" lon="4.49329">
        <ele>761.99</ele>
        <time>2022-03-22T19:31:11Z</time>
      </trkpt>
      <trkpt lat="45.26674" lon="4.49335">
        <ele>761.44</ele>
        <time>2022-03-22T19:31:14Z</time>
      </trkpt>
      <trkpt lat="45.26617" lon="4.49392">
        <ele>758.66</ele>
        <time>2022-03-22T19:31:16Z</time>
      </trkpt>
      <trkpt lat="45.26601" lon="4.49399">
        <ele>757.83</ele>
        <time>2022-03-22T19:31:19Z</time>
      </trkpt>
      <trkpt lat="45.26589" lon="4.49395">
        <ele>758.14</ele>
        <time>2022-03-22T19:31:21Z</time>
      </trkpt>
      <trkpt lat="45.26575" lon="4.49386">
        <ele>759.02</ele>
        <time>2022-03-22T19:31:24Z</time>
      </trkpt>
      <trkpt lat="45.26565" lon="4.4937">
        <ele>760.16</ele>
        <time>2022-03-22T19:31:26Z</time>
      </trkpt>
      <trkpt lat="45.26559" lon="4.49352">
        <ele>761.31</ele>
        <time>2022-03-22T19:31:29Z</time>
      </trkpt>
      <trkpt lat="45.26539" lon="4.49252">
        <ele>771.92</ele>
        <time>2022-03-22T19:31:31Z</time>
      </trkpt>
      <trkpt lat="45.26524" lon="4.49201">
        <ele>776.1</ele>
        <time>2022-03-22T19:31:34Z</time>
      </trkpt>
      <trkpt lat="45.26501" lon="4.49155">
        <ele>774.95</ele>
        <time>2022-03-22T19:31:37Z</time>
      </trkpt>
      <trkpt lat="45.26484" lon="4.49134">
        <ele>776.15</ele>
        <time>2022-03-22T19:31:39Z</time>
      </trkpt>
      <trkpt lat="45.26443" lon="4.49092">
        <ele>775.95</ele>
        <time>2022-03-22T19:31:42Z</time>
      </trkpt>
      <trkpt lat="45.26434" lon="4.49075">
        <ele>776.74</ele>
        <time>2022-03-22T19:31:44Z</time>
      </trkpt>
      <trkpt lat="45.26427" lon="4.49054">
        <ele>778.03</ele>
        <time>2022-03-22T19:31:47Z</time>
      </trkpt>
      <trkpt lat="45.2643" lon="4.48968">
        <ele>778.75</ele>
        <time>2022-03-22T19:31:49Z</time>
      </trkpt>
      <trkpt lat="45.26437" lon="4.48876">
        <ele>784.18</ele>
        <time>2022-03-22T19:31:52Z</time>
      </trkpt>
      <trkpt lat="45.2645" lon="4.48851">
        <ele>786.56</ele>
        <time>2022-03-22T19:31:54Z</time>
      </trkpt>
      <trkpt lat="45.26463" lon="4.48843">
        <ele>789</ele>
        <time>2022-03-22T19:31:57Z</time>
      </trkpt>
      <trkpt lat="45.26471" lon="4.48842">
        <ele>790.14</ele>
        <time>2022-03-22T19:31:59Z</time>
      </trkpt>
      <trkpt lat="45.26491" lon="4.48856">
        <ele>793.47</ele>
        <time>2022-03-22T19:32:02Z</time>
      </trkpt>
      <trkpt lat="45.26502" lon="4.48884">
        <ele>793.11</ele>
        <time>2022-03-22T19:32:05Z</time>
      </trkpt>
      <trkpt lat="45.26507" lon="4.48939">
        <ele>789</ele>
        <time>2022-03-22T19:32:07Z</time>
      </trkpt>
      <trkpt lat="45.26506" lon="4.48971">
        <ele>788.42</ele>
        <time>2022-03-22T19:32:10Z</time>
      </trkpt>
      <trkpt lat="45.265" lon="4.48997">
        <ele>788.68</ele>
        <time>2022-03-22T19:32:12Z</time>
      </trkpt>
      <trkpt lat="45.26482" lon="4.49036">
        <ele>785.24</ele>
        <time>2022-03-22T19:32:15Z</time>
      </trkpt>
      <trkpt lat="45.26477" lon="4.4905">
        <ele>784.2</ele>
        <time>2022-03-22T19:32:17Z</time>
      </trkpt>
      <trkpt lat="45.26475" lon="4.49063">
        <ele>783.53</ele>
        <time>2022-03-22T19:32:20Z</time>
      </trkpt>
      <trkpt lat="45.26477" lon="4.49075">
        <ele>783.34</ele>
        <time>2022-03-22T19:32:22Z</time>
      </trkpt>
      <trkpt lat="45.26481" lon="4.49085">
        <ele>783.67</ele>
        <time>2022-03-22T19:32:25Z</time>
      </trkpt>
      <trkpt lat="45.26488" lon="4.49092">
        <ele>784</ele>
        <time>2022-03-22T19:32:27Z</time>
      </trkpt>
      <trkpt lat="45.26495" lon="4.49095">
        <ele>784.87</ele>
        <time>2022-03-22T19:32:30Z</time>
      </trkpt>
      <trkpt lat="45.26501" lon="4.49095">
        <ele>786.07</ele>
        <time>2022-03-22T19:32:33Z</time>
      </trkpt>
      <trkpt lat="45.26507" lon="4.49091">
        <ele>789.02</ele>
        <time>2022-03-22T19:32:35Z</time>
      </trkpt>
      <trkpt lat="45.26512" lon="4.49086">
        <ele>791.77</ele>
        <time>2022-03-22T19:32:38Z</time>
      </trkpt>
      <trkpt lat="45.26516" lon="4.49076">
        <ele>794.47</ele>
        <time>2022-03-22T19:32:40Z</time>
      </trkpt>
      <trkpt lat="45.26519" lon="4.49062">
        <ele>796.47</ele>
        <time>2022-03-22T19:32:43Z</time>
      </trkpt>
      <trkpt lat="45.26523" lon="4.49001">
        <ele>796.58</ele>
        <time>2022-03-22T19:32:45Z</time>
      </trkpt>
      <trkpt lat="45.26526" lon="4.48966">
        <ele>796.36</ele>
        <time>2022-03-22T19:32:48Z</time>
      </trkpt>
      <trkpt lat="45.26528" lon="4.48905">
        <ele>798.48</ele>
        <time>2022-03-22T19:32:50Z</time>
      </trkpt>
      <trkpt lat="45.26527" lon="4.48894">
        <ele>799.28</ele>
        <time>2022-03-22T19:32:53Z</time>
      </trkpt>
      <trkpt lat="45.26515" lon="4.48817">
        <ele>804.2</ele>
        <time>2022-03-22T19:32:55Z</time>
      </trkpt>
      <trkpt lat="45.26476" lon="4.4865">
        <ele>812.24</ele>
        <time>2022-03-22T19:32:58Z</time>
      </trkpt>
      <trkpt lat="45.26473" lon="4.48609">
        <ele>816.88</ele>
        <time>2022-03-22T19:33:01Z</time>
      </trkpt>
      <trkpt lat="45.2647" lon="4.48593">
        <ele>819.7</ele>
        <time>2022-03-22T19:33:03Z</time>
      </trkpt>
      <trkpt lat="45.26466" lon="4.48583">
        <ele>820.59</ele>
        <time>2022-03-22T19:33:06Z</time>
      </trkpt>
      <trkpt lat="45.2646" lon="4.48574">
        <ele>819.56</ele>
        <time>2022-03-22T19:33:08Z</time>
      </trkpt>
      <trkpt lat="45.26437" lon="4.48558">
        <ele>814.97</ele>
        <time>2022-03-22T19:33:11Z</time>
      </trkpt>
      <trkpt lat="45.26428" lon="4.48548">
        <ele>814.6</ele>
        <time>2022-03-22T19:33:13Z</time>
      </trkpt>
      <trkpt lat="45.26419" lon="4.4853">
        <ele>816.15</ele>
        <time>2022-03-22T19:33:16Z</time>
      </trkpt>
      <trkpt lat="45.26382" lon="4.48413">
        <ele>825.97</ele>
        <time>2022-03-22T19:33:18Z</time>
      </trkpt>
      <trkpt lat="45.2635" lon="4.48325">
        <ele>827.89</ele>
        <time>2022-03-22T19:33:21Z</time>
      </trkpt>
      <trkpt lat="45.26329" lon="4.48253">
        <ele>833.23</ele>
        <time>2022-03-22T19:33:23Z</time>
      </trkpt>
      <trkpt lat="45.26276" lon="4.48037">
        <ele>844.08</ele>
        <time>2022-03-22T19:33:26Z</time>
      </trkpt>
      <trkpt lat="45.26268" lon="4.47991">
        <ele>845.26</ele>
        <time>2022-03-22T19:33:29Z</time>
      </trkpt>
      <trkpt lat="45.26267" lon="4.47957">
        <ele>847.79</ele>
        <time>2022-03-22T19:33:31Z</time>
      </trkpt>
      <trkpt lat="45.26273" lon="4.4791">
        <ele>853.64</ele>
        <time>2022-03-22T19:33:34Z</time>
      </trkpt>
      <trkpt lat="45.26272" lon="4.47894">
        <ele>854.33</ele>
        <time>2022-03-22T19:33:36Z</time>
      </trkpt>
      <trkpt lat="45.26264" lon="4.47873">
        <ele>853.7</ele>
        <time>2022-03-22T19:33:39Z</time>
      </trkpt>
      <trkpt lat="45.26248" lon="4.47854">
        <ele>850.97</ele>
        <time>2022-03-22T19:33:41Z</time>
      </trkpt>
      <trkpt lat="45.26237" lon="4.47828">
        <ele>852.34</ele>
        <time>2022-03-22T19:33:44Z</time>
      </trkpt>
      <trkpt lat="45.26213" lon="4.47723">
        <ele>862.49</ele>
        <time>2022-03-22T19:33:46Z</time>
      </trkpt>
      <trkpt lat="45.26181" lon="4.476">
        <ele>863.51</ele>
        <time>2022-03-22T19:33:49Z</time>
      </trkpt>
      <trkpt lat="45.2618" lon="4.47583">
        <ele>864.67</ele>
        <time>2022-03-22T19:33:51Z</time>
      </trkpt>
      <trkpt lat="45.26182" lon="4.47567">
        <ele>866.3</ele>
        <time>2022-03-22T19:33:54Z</time>
      </trkpt>
      <trkpt lat="45.26192" lon="4.47538">
        <ele>868.89</ele>
        <time>2022-03-22T19:33:57Z</time>
      </trkpt>
      <trkpt lat="45.26203" lon="4.4751">
        <ele>873.82</ele>
        <time>2022-03-22T19:33:59Z</time>
      </trkpt>
      <trkpt lat="45.26205" lon="4.47496">
        <ele>875</ele>
        <time>2022-03-22T19:34:02Z</time>
      </trkpt>
      <trkpt lat="45.262" lon="4.47478">
        <ele>874.38</ele>
        <time>2022-03-22T19:34:04Z</time>
      </trkpt>
      <trkpt lat="45.26195" lon="4.47468">
        <ele>874.04</ele>
        <time>2022-03-22T19:34:07Z</time>
      </trkpt>
      <trkpt lat="45.26169" lon="4.47447">
        <ele>873.7</ele>
        <time>2022-03-22T19:34:09Z</time>
      </trkpt>
      <trkpt lat="45.2616" lon="4.47433">
        <ele>874.89</ele>
        <time>2022-03-22T19:34:12Z</time>
      </trkpt>
      <trkpt lat="45.26145" lon="4.47386">
        <ele>881.7</ele>
        <time>2022-03-22T19:34:14Z</time>
      </trkpt>
      <trkpt lat="45.26135" lon="4.47366">
        <ele>884.78</ele>
        <time>2022-03-22T19:34:17Z</time>
      </trkpt>
      <trkpt lat="45.26122" lon="4.47351">
        <ele>887.44</ele>
        <time>2022-03-22T19:34:20Z</time>
      </trkpt>
      <trkpt lat="45.2611" lon="4.47345">
        <ele>887.85</ele>
        <time>2022-03-22T19:34:22Z</time>
      </trkpt>
      <trkpt lat="45.26078" lon="4.47344">
        <ele>885.47</ele>
        <time>2022-03-22T19:34:25Z</time>
      </trkpt>
      <trkpt lat="45.26061" lon="4.47338">
        <ele>886.43</ele>
        <time>2022-03-22T19:34:27Z</time>
      </trkpt>
      <trkpt lat="45.25999" lon="4.47294">
        <ele>889.62</ele>
        <time>2022-03-22T19:34:30Z</time>
      </trkpt>
      <trkpt lat="45.25948" lon="4.47265">
        <ele>893</ele>
        <time>2022-03-22T19:34:32Z</time>
      </trkpt>
      <trkpt lat="45.25924" lon="4.47255">
        <ele>890.61</ele>
        <time>2022-03-22T19:34:35Z</time>
      </trkpt>
      <trkpt lat="45.25903" lon="4.4724">
        <ele>888.76</ele>
        <time>2022-03-22T19:34:37Z</time>
      </trkpt>
      <trkpt lat="45.25888" lon="4.47217">
        <ele>889.88</ele>
        <time>2022-03-22T19:34:40Z</time>
      </trkpt>
      <trkpt lat="45.25876" lon="4.47187">
        <ele>892.3</ele>
        <time>2022-03-22T19:34:42Z</time>
      </trkpt>
      <trkpt lat="45.2586" lon="4.47093">
        <ele>897.03</ele>
        <time>2022-03-22T19:34:45Z</time>
      </trkpt>
      <trkpt lat="45.2586" lon="4.47015">
        <ele>906.54</ele>
        <time>2022-03-22T19:34:48Z</time>
      </trkpt>
      <trkpt lat="45.25856" lon="4.46999">
        <ele>908.06</ele>
        <time>2022-03-22T19:34:50Z</time>
      </trkpt>
      <trkpt lat="45.25822" lon="4.46957">
        <ele>908.7</ele>
        <time>2022-03-22T19:34:53Z</time>
      </trkpt>
      <trkpt lat="45.25814" lon="4.46939">
        <ele>910.04</ele>
        <time>2022-03-22T19:34:55Z</time>
      </trkpt>
      <trkpt lat="45.25775" lon="4.46832">
        <ele>919.2</ele>
        <time>2022-03-22T19:34:58Z</time>
      </trkpt>
      <trkpt lat="45.25672" lon="4.46619">
        <ele>926.66</ele>
        <time>2022-03-22T19:35:00Z</time>
      </trkpt>
      <trkpt lat="45.25645" lon="4.46571">
        <ele>931.2</ele>
        <time>2022-03-22T19:35:03Z</time>
      </trkpt>
      <trkpt lat="45.25611" lon="4.46529">
        <ele>931.92</ele>
        <time>2022-03-22T19:35:05Z</time>
      </trkpt>
      <trkpt lat="45.25609" lon="4.46519">
        <ele>933.26</ele>
        <time>2022-03-22T19:35:08Z</time>
      </trkpt>
      <trkpt lat="45.2561" lon="4.46512">
        <ele>934.31</ele>
        <time>2022-03-22T19:35:10Z</time>
      </trkpt>
      <trkpt lat="45.25614" lon="4.46506">
        <ele>935.51</ele>
        <time>2022-03-22T19:35:13Z</time>
      </trkpt>
      <trkpt lat="45.2562" lon="4.465">
        <ele>937.26</ele>
        <time>2022-03-22T19:35:16Z</time>
      </trkpt>
      <trkpt lat="45.25631" lon="4.46505">
        <ele>938.11</ele>
        <time>2022-03-22T19:35:18Z</time>
      </trkpt>
      <trkpt lat="45.25683" lon="4.46588">
        <ele>935.1</ele>
        <time>2022-03-22T19:35:21Z</time>
      </trkpt>
      <trkpt lat="45.25708" lon="4.46615">
        <ele>935.11</ele>
        <time>2022-03-22T19:35:23Z</time>
      </trkpt>
      <trkpt lat="45.25725" lon="4.46637">
        <ele>934.96</ele>
        <time>2022-03-22T19:35:26Z</time>
      </trkpt>
      <trkpt lat="45.25766" lon="4.4671">
        <ele>937.94</ele>
        <time>2022-03-22T19:35:28Z</time>
      </trkpt>
      <trkpt lat="45.25862" lon="4.46852">
        <ele>946.7</ele>
        <time>2022-03-22T19:35:31Z</time>
      </trkpt>
      <trkpt lat="45.25888" lon="4.46881">
        <ele>947.57</ele>
        <time>2022-03-22T19:35:33Z</time>
      </trkpt>
      <trkpt lat="45.25897" lon="4.46886">
        <ele>947.89</ele>
        <time>2022-03-22T19:35:36Z</time>
      </trkpt>
      <trkpt lat="45.2591" lon="4.46888">
        <ele>949.22</ele>
        <time>2022-03-22T19:35:38Z</time>
      </trkpt>
      <trkpt lat="45.25923" lon="4.46887">
        <ele>951.27</ele>
        <time>2022-03-22T19:35:41Z</time>
      </trkpt>
      <trkpt lat="45.25946" lon="4.46877">
        <ele>955.99</ele>
        <time>2022-03-22T19:35:44Z</time>
      </trkpt>
      <trkpt lat="45.25953" lon="4.4687">
        <ele>957.99</ele>
        <time>2022-03-22T19:35:46Z</time>
      </trkpt>
      <trkpt lat="45.25956" lon="4.4686">
        <ele>959.87</ele>
        <time>2022-03-22T19:35:49Z</time>
      </trkpt>
      <trkpt lat="45.25955" lon="4.46844">
        <ele>962.59</ele>
        <time>2022-03-22T19:35:51Z</time>
      </trkpt>
      <trkpt lat="45.25946" lon="4.46832">
        <ele>963.64</ele>
        <time>2022-03-22T19:35:54Z</time>
      </trkpt>
      <trkpt lat="45.25938" lon="4.46827">
        <ele>964.16</ele>
        <time>2022-03-22T19:35:56Z</time>
      </trkpt>
      <trkpt lat="45.25919" lon="4.46821">
        <ele>963.78</ele>
        <time>2022-03-22T19:35:59Z</time>
      </trkpt>
      <trkpt lat="45.2589" lon="4.46808">
        <ele>964.58</ele>
        <time>2022-03-22T19:36:01Z</time>
      </trkpt>
      <trkpt lat="45.25872" lon="4.46792">
        <ele>963.16</ele>
        <time>2022-03-22T19:36:04Z</time>
      </trkpt>
      <trkpt lat="45.25855" lon="4.46766">
        <ele>962.95</ele>
        <time>2022-03-22T19:36:06Z</time>
      </trkpt>
      <trkpt lat="45.25848" lon="4.46751">
        <ele>962.9</ele>
        <time>2022-03-22T19:36:09Z</time>
      </trkpt>
      <trkpt lat="45.25837" lon="4.46702">
        <ele>966.2</ele>
        <time>2022-03-22T19:36:12Z</time>
      </trkpt>
      <trkpt lat="45.25834" lon="4.46645">
        <ele>965.37</ele>
        <time>2022-03-22T19:36:14Z</time>
      </trkpt>
      <trkpt lat="45.25838" lon="4.46595">
        <ele>971.14</ele>
        <time>2022-03-22T19:36:17Z</time>
      </trkpt>
      <trkpt lat="45.2583" lon="4.46559">
        <ele>974.26</ele>
        <time>2022-03-22T19:36:19Z</time>
      </trkpt>
      <trkpt lat="45.25821" lon="4.46528">
        <ele>977.72</ele>
        <time>2022-03-22T19:36:22Z</time>
      </trkpt>
      <trkpt lat="45.25751" lon="4.46399">
        <ele>989.5</ele>
        <time>2022-03-22T19:36:24Z</time>
      </trkpt>
      <trkpt lat="45.25728" lon="4.46374">
        <ele>988.08</ele>
        <time>2022-03-22T19:36:27Z</time>
      </trkpt>
      <trkpt lat="45.25691" lon="4.46349">
        <ele>988.02</ele>
        <time>2022-03-22T19:36:29Z</time>
      </trkpt>
      <trkpt lat="45.2566" lon="4.46323">
        <ele>987.72</ele>
        <time>2022-03-22T19:36:32Z</time>
      </trkpt>
      <trkpt lat="45.25627" lon="4.46267">
        <ele>993</ele>
        <time>2022-03-22T19:36:34Z</time>
      </trkpt>
      <trkpt lat="45.25601" lon="4.46191">
        <ele>1001.36</ele>
        <time>2022-03-22T19:36:37Z</time>
      </trkpt>
      <trkpt lat="45.25582" lon="4.46141">
        <ele>999.47</ele>
        <time>2022-03-22T19:36:40Z</time>
      </trkpt>
      <trkpt lat="45.25546" lon="4.46077">
        <ele>1001.9</ele>
        <time>2022-03-22T19:36:42Z</time>
      </trkpt>
      <trkpt lat="45.2553" lon="4.46044">
        <ele>1005.78</ele>
        <time>2022-03-22T19:36:45Z</time>
      </trkpt>
      <trkpt lat="45.25496" lon="4.45968">
        <ele>1011.92</ele>
        <time>2022-03-22T19:36:47Z</time>
      </trkpt>
      <trkpt lat="45.25485" lon="4.4595">
        <ele>1012.89</ele>
        <time>2022-03-22T19:36:50Z</time>
      </trkpt>
      <trkpt lat="45.25473" lon="4.45934">
        <ele>1013.15</ele>
        <time>2022-03-22T19:36:52Z</time>
      </trkpt>
      <trkpt lat="45.25351" lon="4.45805">
        <ele>1024.72</ele>
        <time>2022-03-22T19:36:55Z</time>
      </trkpt>
      <trkpt lat="45.25339" lon="4.45786">
        <ele>1025.46</ele>
        <time>2022-03-22T19:36:57Z</time>
      </trkpt>
      <trkpt lat="45.25332" lon="4.45766">
        <ele>1025.42</ele>
        <time>2022-03-22T19:37:00Z</time>
      </trkpt>
      <trkpt lat="45.25328" lon="4.4575">
        <ele>1025.57</ele>
        <time>2022-03-22T19:37:02Z</time>
      </trkpt>
      <trkpt lat="45.25326" lon="4.45729">
        <ele>1024.25</ele>
        <time>2022-03-22T19:37:05Z</time>
      </trkpt>
      <trkpt lat="45.25329" lon="4.45699">
        <ele>1020.81</ele>
        <time>2022-03-22T19:37:08Z</time>
      </trkpt>
      <trkpt lat="45.2534" lon="4.4566">
        <ele>1020.83</ele>
        <time>2022-03-22T19:37:10Z</time>
      </trkpt>
      <trkpt lat="45.25364" lon="4.45581">
        <ele>1021.88</ele>
        <time>2022-03-22T19:37:13Z</time>
      </trkpt>
      <trkpt lat="45.25372" lon="4.45538">
        <ele>1019.17</ele>
        <time>2022-03-22T19:37:15Z</time>
      </trkpt>
      <trkpt lat="45.25371" lon="4.45504">
        <ele>1017.21</ele>
        <time>2022-03-22T19:37:18Z</time>
      </trkpt>
      <trkpt lat="45.25364" lon="4.45475">
        <ele>1014.94</ele>
        <time>2022-03-22T19:37:20Z</time>
      </trkpt>
      <trkpt lat="45.25355" lon="4.45455">
        <ele>1015.4</ele>
        <time>2022-03-22T19:37:23Z</time>
      </trkpt>
      <trkpt lat="45.25317" lon="4.45392">
        <ele>1017.59</ele>
        <time>2022-03-22T19:37:25Z</time>
      </trkpt>
      <trkpt lat="45.25303" lon="4.45361">
        <ele>1016.16</ele>
        <time>2022-03-22T19:37:28Z</time>
      </trkpt>
      <trkpt lat="45.25295" lon="4.45326">
        <ele>1016.79</ele>
        <time>2022-03-22T19:37:30Z</time>
      </trkpt>
      <trkpt lat="45.25285" lon="4.45177">
        <ele>1011.14</ele>
        <time>2022-03-22T19:37:33Z</time>
      </trkpt>
      <trkpt lat="45.25281" lon="4.45137">
        <ele>1011.35</ele>
        <time>2022-03-22T19:37:36Z</time>
      </trkpt>
      <trkpt lat="45.25274" lon="4.45107">
        <ele>1009.29</ele>
        <time>2022-03-22T19:37:38Z</time>
      </trkpt>
      <trkpt lat="45.25268" lon="4.45091">
        <ele>1006.87</ele>
        <time>2022-03-22T19:37:41Z</time>
      </trkpt>
      <trkpt lat="45.25248" lon="4.45051">
        <ele>998.51</ele>
        <time>2022-03-22T19:37:43Z</time>
      </trkpt>
      <trkpt lat="45.25186" lon="4.44946">
        <ele>998.72</ele>
        <time>2022-03-22T19:37:46Z</time>
      </trkpt>
      <trkpt lat="45.25175" lon="4.44915">
        <ele>999.02</ele>
        <time>2022-03-22T19:37:48Z</time>
      </trkpt>
      <trkpt lat="45.25169" lon="4.44887">
        <ele>997.89</ele>
        <time>2022-03-22T19:37:51Z</time>
      </trkpt>
      <trkpt lat="45.25155" lon="4.44685">
        <ele>986.93</ele>
        <time>2022-03-22T19:37:53Z</time>
      </trkpt>
      <trkpt lat="45.25147" lon="4.44645">
        <ele>984.97</ele>
        <time>2022-03-22T19:37:56Z</time>
      </trkpt>
      <trkpt lat="45.25125" lon="4.44564">
        <ele>984.89</ele>
        <time>2022-03-22T19:37:58Z</time>
      </trkpt>
      <trkpt lat="45.25118" lon="4.44524">
        <ele>981.5</ele>
        <time>2022-03-22T19:38:01Z</time>
      </trkpt>
      <trkpt lat="45.25116" lon="4.44446">
        <ele>976.71</ele>
        <time>2022-03-22T19:38:04Z</time>
      </trkpt>
      <trkpt lat="45.25111" lon="4.44404">
        <ele>979.16</ele>
        <time>2022-03-22T19:38:06Z</time>
      </trkpt>
      <trkpt lat="45.25101" lon="4.44366">
        <ele>979.52</ele>
        <time>2022-03-22T19:38:09Z</time>
      </trkpt>
      <trkpt lat="45.25056" lon="4.44247">
        <ele>977.25</ele>
        <time>2022-03-22T19:38:11Z</time>
      </trkpt>
      <trkpt lat="45.25038" lon="4.44206">
        <ele>972.54</ele>
        <time>2022-03-22T19:38:14Z</time>
      </trkpt>
      <trkpt lat="45.25017" lon="4.44171">
        <ele>968.4</ele>
        <time>2022-03-22T19:38:17Z</time>
      </trkpt>
      <trkpt lat="45.25014" lon="4.44183">
        <ele>965.58</ele>
        <time>2022-03-22T19:38:19Z</time>
      </trkpt>
      <trkpt lat="45.25015" lon="4.44197">
        <ele>963.81</ele>
        <time>2022-03-22T19:38:22Z</time>
      </trkpt>
      <trkpt lat="45.25036" lon="4.44235">
        <ele>969.1</ele>
        <time>2022-03-22T19:38:25Z</time>
      </trkpt>
      <trkpt lat="45.2505" lon="4.44282">
        <ele>970.19</ele>
        <time>2022-03-22T19:38:28Z</time>
      </trkpt>
      <trkpt lat="45.25063" lon="4.4434">
        <ele>964.82</ele>
        <time>2022-03-22T19:38:31Z</time>
      </trkpt>
      <trkpt lat="45.25066" lon="4.44362">
        <ele>963.87</ele>
        <time>2022-03-22T19:38:34Z</time>
      </trkpt>
      <trkpt lat="45.25066" lon="4.44362">
        <ele>963.87</ele>
        <time>2022-03-22T19:38:34Z</time>
      </trkpt>
      <trkpt lat="45.25063" lon="4.4434">
        <ele>964.82</ele>
        <time>2022-03-22T19:38:36Z</time>
      </trkpt>
      <trkpt lat="45.2505" lon="4.44282">
        <ele>970.19</ele>
        <time>2022-03-22T19:38:39Z</time>
      </trkpt>
      <trkpt lat="45.25036" lon="4.44235">
        <ele>969.1</ele>
        <time>2022-03-22T19:38:42Z</time>
      </trkpt>
      <trkpt lat="45.25015" lon="4.44197">
        <ele>963.81</ele>
        <time>2022-03-22T19:38:45Z</time>
      </trkpt>
      <trkpt lat="45.25014" lon="4.44183">
        <ele>965.58</ele>
        <time>2022-03-22T19:38:48Z</time>
      </trkpt>
      <trkpt lat="45.25017" lon="4.44171">
        <ele>968.4</ele>
        <time>2022-03-22T19:38:51Z</time>
      </trkpt>
      <trkpt lat="45.24927" lon="4.44034">
        <ele>965.16</ele>
        <time>2022-03-22T19:38:56Z</time>
      </trkpt>
      <trkpt lat="45.24911" lon="4.44002">
        <ele>963.13</ele>
        <time>2022-03-22T19:39:02Z</time>
      </trkpt>
      <trkpt lat="45.24903" lon="4.43972">
        <ele>963.58</ele>
        <time>2022-03-22T19:39:07Z</time>
      </trkpt>
      <trkpt lat="45.24897" lon="4.43941">
        <ele>962.55</ele>
        <time>2022-03-22T19:39:13Z</time>
      </trkpt>
      <trkpt lat="45.24895" lon="4.43902">
        <ele>961.75</ele>
        <time>2022-03-22T19:39:18Z</time>
      </trkpt>
      <trkpt lat="45.24899" lon="4.43864">
        <ele>961.08</ele>
        <time>2022-03-22T19:39:24Z</time>
      </trkpt>
      <trkpt lat="45.2491" lon="4.43797">
        <ele>953.4</ele>
        <time>2022-03-22T19:39:29Z</time>
      </trkpt>
      <trkpt lat="45.24913" lon="4.4375">
        <ele>948.24</ele>
        <time>2022-03-22T19:39:35Z</time>
      </trkpt>
      <trkpt lat="45.24907" lon="4.43714">
        <ele>947.53</ele>
        <time>2022-03-22T19:39:41Z</time>
      </trkpt>
      <trkpt lat="45.24895" lon="4.43681">
        <ele>949.93</ele>
        <time>2022-03-22T19:39:46Z</time>
      </trkpt>
      <trkpt lat="45.24792" lon="4.43497">
        <ele>954.39</ele>
        <time>2022-03-22T19:39:52Z</time>
      </trkpt>
      <trkpt lat="45.24683" lon="4.43359">
        <ele>951.8</ele>
        <time>2022-03-22T19:39:57Z</time>
      </trkpt>
      <trkpt lat="45.24621" lon="4.43271">
        <ele>947.37</ele>
        <time>2022-03-22T19:40:03Z</time>
      </trkpt>
      <trkpt lat="45.24531" lon="4.43173">
        <ele>949.87</ele>
        <time>2022-03-22T19:40:08Z</time>
      </trkpt>
      <trkpt lat="45.24397" lon="4.43046">
        <ele>944.19</ele>
        <time>2022-03-22T19:40:14Z</time>
      </trkpt>
      <trkpt lat="45.24355" lon="4.43003">
        <ele>943.9</ele>
        <time>2022-03-22T19:40:19Z</time>
      </trkpt>
      <trkpt lat="45.24341" lon="4.42978">
        <ele>942.26</ele>
        <time>2022-03-22T19:40:25Z</time>
      </trkpt>
      <trkpt lat="45.24329" lon="4.42952">
        <ele>938</ele>
        <time>2022-03-22T19:40:30Z</time>
      </trkpt>
      <trkpt lat="45.24325" lon="4.42918">
        <ele>936.37</ele>
        <time>2022-03-22T19:40:36Z</time>
      </trkpt>
      <trkpt lat="45.24324" lon="4.42881">
        <ele>936.47</ele>
        <time>2022-03-22T19:40:42Z</time>
      </trkpt>
      <trkpt lat="45.24335" lon="4.42772">
        <ele>928.03</ele>
        <time>2022-03-22T19:40:47Z</time>
      </trkpt>
      <trkpt lat="45.24339" lon="4.4271">
        <ele>913.78</ele>
        <time>2022-03-22T19:40:53Z</time>
      </trkpt>
      <trkpt lat="45.24334" lon="4.42654">
        <ele>900.66</ele>
        <time>2022-03-22T19:40:58Z</time>
      </trkpt>
      <trkpt lat="45.24313" lon="4.426">
        <ele>899.83</ele>
        <time>2022-03-22T19:41:04Z</time>
      </trkpt>
      <trkpt lat="45.24189" lon="4.42411">
        <ele>905.79</ele>
        <time>2022-03-22T19:41:09Z</time>
      </trkpt>
      <trkpt lat="45.24123" lon="4.42269">
        <ele>889.99</ele>
        <time>2022-03-22T19:41:15Z</time>
      </trkpt>
      <trkpt lat="45.24098" lon="4.42202">
        <ele>893.39</ele>
        <time>2022-03-22T19:41:20Z</time>
      </trkpt>
      <trkpt lat="45.24046" lon="4.42094">
        <ele>895.28</ele>
        <time>2022-03-22T19:41:26Z</time>
      </trkpt>
      <trkpt lat="45.24026" lon="4.42046">
        <ele>892.25</ele>
        <time>2022-03-22T19:41:31Z</time>
      </trkpt>
      <trkpt lat="45.23989" lon="4.4194">
        <ele>887.45</ele>
        <time>2022-03-22T19:41:37Z</time>
      </trkpt>
      <trkpt lat="45.2395" lon="4.41836">
        <ele>880.98</ele>
        <time>2022-03-22T19:41:43Z</time>
      </trkpt>
      <trkpt lat="45.23939" lon="4.41801">
        <ele>879.87</ele>
        <time>2022-03-22T19:41:48Z</time>
      </trkpt>
      <trkpt lat="45.23843" lon="4.416">
        <ele>871.8</ele>
        <time>2022-03-22T19:41:54Z</time>
      </trkpt>
      <trkpt lat="45.23815" lon="4.41515">
        <ele>868.89</ele>
        <time>2022-03-22T19:41:59Z</time>
      </trkpt>
      <trkpt lat="45.23762" lon="4.41335">
        <ele>871.32</ele>
        <time>2022-03-22T19:42:05Z</time>
      </trkpt>
      <trkpt lat="45.23722" lon="4.41209">
        <ele>866.54</ele>
        <time>2022-03-22T19:42:10Z</time>
      </trkpt>
      <trkpt lat="45.23684" lon="4.41127">
        <ele>866.99</ele>
        <time>2022-03-22T19:42:16Z</time>
      </trkpt>
      <trkpt lat="45.23662" lon="4.4109">
        <ele>864.91</ele>
        <time>2022-03-22T19:42:21Z</time>
      </trkpt>
      <trkpt lat="45.23644" lon="4.41065">
        <ele>862.47</ele>
        <time>2022-03-22T19:42:27Z</time>
      </trkpt>
      <trkpt lat="45.23632" lon="4.41049">
        <ele>860.18</ele>
        <time>2022-03-22T19:42:32Z</time>
      </trkpt>
      <trkpt lat="45.23602" lon="4.40991">
        <ele>855.92</ele>
        <time>2022-03-22T19:42:38Z</time>
      </trkpt>
      <trkpt lat="45.23539" lon="4.40844">
        <ele>845</ele>
        <time>2022-03-22T19:42:44Z</time>
      </trkpt>
      <trkpt lat="45.23497" lon="4.40729">
        <ele>844.69</ele>
        <time>2022-03-22T19:42:49Z</time>
      </trkpt>
      <trkpt lat="45.23369" lon="4.40358">
        <ele>840.12</ele>
        <time>2022-03-22T19:42:55Z</time>
      </trkpt>
      <trkpt lat="45.23357" lon="4.40333">
        <ele>840.2</ele>
        <time>2022-03-22T19:43:00Z</time>
      </trkpt>
      <trkpt lat="45.23337" lon="4.40308">
        <ele>836.89</ele>
        <time>2022-03-22T19:43:06Z</time>
      </trkpt>
      <trkpt lat="45.2332" lon="4.40269">
        <ele>837.72</ele>
        <time>2022-03-22T19:43:11Z</time>
      </trkpt>
      <trkpt lat="45.23318" lon="4.40252">
        <ele>838.49</ele>
        <time>2022-03-22T19:43:17Z</time>
      </trkpt>
      <trkpt lat="45.23322" lon="4.40208">
        <ele>842.94</ele>
        <time>2022-03-22T19:43:22Z</time>
      </trkpt>
      <trkpt lat="45.23318" lon="4.40179">
        <ele>842.71</ele>
        <time>2022-03-22T19:43:28Z</time>
      </trkpt>
      <trkpt lat="45.23313" lon="4.40156">
        <ele>840.82</ele>
        <time>2022-03-22T19:43:33Z</time>
      </trkpt>
      <trkpt lat="45.23277" lon="4.40041">
        <ele>839.91</ele>
        <time>2022-03-22T19:43:39Z</time>
      </trkpt>
      <trkpt lat="45.23221" lon="4.39874">
        <ele>839.91</ele>
        <time>2022-03-22T19:43:45Z</time>
      </trkpt>
      <trkpt lat="45.23201" lon="4.39839">
        <ele>841.47</ele>
        <time>2022-03-22T19:43:50Z</time>
      </trkpt>
      <trkpt lat="45.23183" lon="4.39816">
        <ele>842.32</ele>
        <time>2022-03-22T19:43:56Z</time>
      </trkpt>
      <trkpt lat="45.23183" lon="4.39804">
        <ele>844.53</ele>
        <time>2022-03-22T19:44:00Z</time>
      </trkpt>
      <trkpt lat="45.23179" lon="4.39799">
        <ele>845.27</ele>
        <time>2022-03-22T19:44:04Z</time>
      </trkpt>
      <trkpt lat="45.2311" lon="4.39742">
        <ele>847.42</ele>
        <time>2022-03-22T19:44:07Z</time>
      </trkpt>
      <trkpt lat="45.23078" lon="4.39713">
        <ele>851.59</ele>
        <time>2022-03-22T19:44:11Z</time>
      </trkpt>
      <trkpt lat="45.2306" lon="4.39702">
        <ele>851.42</ele>
        <time>2022-03-22T19:44:15Z</time>
      </trkpt>
      <trkpt lat="45.23053" lon="4.39694">
        <ele>851.56</ele>
        <time>2022-03-22T19:44:19Z</time>
      </trkpt>
      <trkpt lat="45.23034" lon="4.39675">
        <ele>852.32</ele>
        <time>2022-03-22T19:44:23Z</time>
      </trkpt>
      <trkpt lat="45.22986" lon="4.39612">
        <ele>863.37</ele>
        <time>2022-03-22T19:44:27Z</time>
      </trkpt>
      <trkpt lat="45.22968" lon="4.39604">
        <ele>862.06</ele>
        <time>2022-03-22T19:44:31Z</time>
      </trkpt>
      <trkpt lat="45.22909" lon="4.39603">
        <ele>863.22</ele>
        <time>2022-03-22T19:44:35Z</time>
      </trkpt>
      <trkpt lat="45.22891" lon="4.39606">
        <ele>864.5</ele>
        <time>2022-03-22T19:44:39Z</time>
      </trkpt>
      <trkpt lat="45.22873" lon="4.39604">
        <ele>866.35</ele>
        <time>2022-03-22T19:44:43Z</time>
      </trkpt>
      <trkpt lat="45.22865" lon="4.39595">
        <ele>867.43</ele>
        <time>2022-03-22T19:44:47Z</time>
      </trkpt>
      <trkpt lat="45.22863" lon="4.39577">
        <ele>867.61</ele>
        <time>2022-03-22T19:44:51Z</time>
      </trkpt>
      <trkpt lat="45.22865" lon="4.39567">
        <ele>867.06</ele>
        <time>2022-03-22T19:44:55Z</time>
      </trkpt>
      <trkpt lat="45.22876" lon="4.39542">
        <ele>866.6</ele>
        <time>2022-03-22T19:44:58Z</time>
      </trkpt>
      <trkpt lat="45.229" lon="4.39513">
        <ele>867.09</ele>
        <time>2022-03-22T19:45:02Z</time>
      </trkpt>
      <trkpt lat="45.22934" lon="4.39482">
        <ele>870.66</ele>
        <time>2022-03-22T19:45:06Z</time>
      </trkpt>
      <trkpt lat="45.22942" lon="4.3946">
        <ele>872.19</ele>
        <time>2022-03-22T19:45:10Z</time>
      </trkpt>
      <trkpt lat="45.22942" lon="4.39418">
        <ele>871.16</ele>
        <time>2022-03-22T19:45:14Z</time>
      </trkpt>
      <trkpt lat="45.22955" lon="4.39375">
        <ele>871.23</ele>
        <time>2022-03-22T19:45:18Z</time>
      </trkpt>
      <trkpt lat="45.22976" lon="4.39345">
        <ele>869.45</ele>
        <time>2022-03-22T19:45:22Z</time>
      </trkpt>
      <trkpt lat="45.22994" lon="4.39331">
        <ele>865.94</ele>
        <time>2022-03-22T19:45:26Z</time>
      </trkpt>
      <trkpt lat="45.23014" lon="4.39321">
        <ele>866.78</ele>
        <time>2022-03-22T19:45:30Z</time>
      </trkpt>
      <trkpt lat="45.23057" lon="4.39303">
        <ele>868.91</ele>
        <time>2022-03-22T19:45:34Z</time>
      </trkpt>
      <trkpt lat="45.23116" lon="4.39288">
        <ele>871.92</ele>
        <time>2022-03-22T19:45:38Z</time>
      </trkpt>
      <trkpt lat="45.23129" lon="4.3928">
        <ele>870.41</ele>
        <time>2022-03-22T19:45:42Z</time>
      </trkpt>
      <trkpt lat="45.23153" lon="4.39248">
        <ele>869.11</ele>
        <time>2022-03-22T19:45:45Z</time>
      </trkpt>
      <trkpt lat="45.23169" lon="4.39226">
        <ele>871.23</ele>
        <time>2022-03-22T19:45:48Z</time>
      </trkpt>
      <trkpt lat="45.23197" lon="4.39191">
        <ele>878.03</ele>
        <time>2022-03-22T19:45:52Z</time>
      </trkpt>
      <trkpt lat="45.23208" lon="4.39174">
        <ele>881.86</ele>
        <time>2022-03-22T19:45:55Z</time>
      </trkpt>
      <trkpt lat="45.23213" lon="4.39158">
        <ele>883.45</ele>
        <time>2022-03-22T19:45:59Z</time>
      </trkpt>
      <trkpt lat="45.23208" lon="4.39104">
        <ele>883.38</ele>
        <time>2022-03-22T19:46:03Z</time>
      </trkpt>
      <trkpt lat="45.23211" lon="4.39067">
        <ele>882.69</ele>
        <time>2022-03-22T19:46:07Z</time>
      </trkpt>
      <trkpt lat="45.23226" lon="4.39023">
        <ele>883.73</ele>
        <time>2022-03-22T19:46:10Z</time>
      </trkpt>
      <trkpt lat="45.23226" lon="4.38989">
        <ele>890.92</ele>
        <time>2022-03-22T19:46:14Z</time>
      </trkpt>
      <trkpt lat="45.23228" lon="4.38955">
        <ele>898.76</ele>
        <time>2022-03-22T19:46:18Z</time>
      </trkpt>
      <trkpt lat="45.23232" lon="4.38928">
        <ele>903.55</ele>
        <time>2022-03-22T19:46:21Z</time>
      </trkpt>
      <trkpt lat="45.23238" lon="4.38904">
        <ele>906.51</ele>
        <time>2022-03-22T19:46:25Z</time>
      </trkpt>
      <trkpt lat="45.23262" lon="4.3886">
        <ele>910.28</ele>
        <time>2022-03-22T19:46:29Z</time>
      </trkpt>
      <trkpt lat="45.23337" lon="4.38774">
        <ele>905.99</ele>
        <time>2022-03-22T19:46:33Z</time>
      </trkpt>
      <trkpt lat="45.23348" lon="4.38754">
        <ele>906.59</ele>
        <time>2022-03-22T19:46:36Z</time>
      </trkpt>
      <trkpt lat="45.23354" lon="4.38739">
        <ele>906.78</ele>
        <time>2022-03-22T19:46:40Z</time>
      </trkpt>
      <trkpt lat="45.23359" lon="4.38686">
        <ele>909.46</ele>
        <time>2022-03-22T19:46:44Z</time>
      </trkpt>
      <trkpt lat="45.23367" lon="4.38656">
        <ele>911.04</ele>
        <time>2022-03-22T19:46:47Z</time>
      </trkpt>
      <trkpt lat="45.23389" lon="4.3863">
        <ele>910.98</ele>
        <time>2022-03-22T19:46:51Z</time>
      </trkpt>
      <trkpt lat="45.23449" lon="4.38576">
        <ele>917.82</ele>
        <time>2022-03-22T19:46:55Z</time>
      </trkpt>
      <trkpt lat="45.2351" lon="4.38532">
        <ele>921.93</ele>
        <time>2022-03-22T19:46:58Z</time>
      </trkpt>
      <trkpt lat="45.23542" lon="4.38512">
        <ele>929.1</ele>
        <time>2022-03-22T19:47:02Z</time>
      </trkpt>
      <trkpt lat="45.2356" lon="4.38485">
        <ele>935.19</ele>
        <time>2022-03-22T19:47:06Z</time>
      </trkpt>
      <trkpt lat="45.23585" lon="4.38432">
        <ele>945.3</ele>
        <time>2022-03-22T19:47:10Z</time>
      </trkpt>
      <trkpt lat="45.23592" lon="4.38429">
        <ele>943.86</ele>
        <time>2022-03-22T19:47:13Z</time>
      </trkpt>
      <trkpt lat="45.23592" lon="4.38429">
        <ele>943.86</ele>
        <time>2022-03-22T19:47:13Z</time>
      </trkpt>
      <trkpt lat="45.23597" lon="4.38427">
        <ele>942.42</ele>
        <time>2022-03-22T19:47:15Z</time>
      </trkpt>
      <trkpt lat="45.23629" lon="4.38426">
        <ele>934.97</ele>
        <time>2022-03-22T19:47:17Z</time>
      </trkpt>
      <trkpt lat="45.23669" lon="4.38403">
        <ele>937.17</ele>
        <time>2022-03-22T19:47:19Z</time>
      </trkpt>
      <trkpt lat="45.23685" lon="4.38392">
        <ele>939.77</ele>
        <time>2022-03-22T19:47:23Z</time>
      </trkpt>
      <trkpt lat="45.23699" lon="4.38373">
        <ele>942.08</ele>
        <time>2022-03-22T19:47:26Z</time>
      </trkpt>
      <trkpt lat="45.23739" lon="4.38302">
        <ele>943.06</ele>
        <time>2022-03-22T19:47:30Z</time>
      </trkpt>
      <trkpt lat="45.23754" lon="4.3828">
        <ele>941.79</ele>
        <time>2022-03-22T19:47:34Z</time>
      </trkpt>
      <trkpt lat="45.23776" lon="4.38271">
        <ele>941.3</ele>
        <time>2022-03-22T19:47:38Z</time>
      </trkpt>
      <trkpt lat="45.23797" lon="4.38279">
        <ele>942.35</ele>
        <time>2022-03-22T19:47:42Z</time>
      </trkpt>
      <trkpt lat="45.23842" lon="4.38301">
        <ele>943.9</ele>
        <time>2022-03-22T19:47:46Z</time>
      </trkpt>
      <trkpt lat="45.23879" lon="4.3831">
        <ele>947.49</ele>
        <time>2022-03-22T19:47:50Z</time>
      </trkpt>
      <trkpt lat="45.23932" lon="4.38348">
        <ele>949.33</ele>
        <time>2022-03-22T19:47:54Z</time>
      </trkpt>
      <trkpt lat="45.2396" lon="4.38356">
        <ele>950.56</ele>
        <time>2022-03-22T19:47:58Z</time>
      </trkpt>
      <trkpt lat="45.23975" lon="4.38351">
        <ele>951.03</ele>
        <time>2022-03-22T19:48:02Z</time>
      </trkpt>
      <trkpt lat="45.24041" lon="4.38302">
        <ele>954.04</ele>
        <time>2022-03-22T19:48:06Z</time>
      </trkpt>
      <trkpt lat="45.24182" lon="4.38186">
        <ele>966.12</ele>
        <time>2022-03-22T19:48:10Z</time>
      </trkpt>
      <trkpt lat="45.24226" lon="4.38175">
        <ele>968.79</ele>
        <time>2022-03-22T19:48:13Z</time>
      </trkpt>
      <trkpt lat="45.24262" lon="4.38135">
        <ele>974.15</ele>
        <time>2022-03-22T19:48:17Z</time>
      </trkpt>
      <trkpt lat="45.24328" lon="4.38006">
        <ele>978.46</ele>
        <time>2022-03-22T19:48:21Z</time>
      </trkpt>
      <trkpt lat="45.24332" lon="4.37981">
        <ele>979.59</ele>
        <time>2022-03-22T19:48:25Z</time>
      </trkpt>
      <trkpt lat="45.24332" lon="4.37951">
        <ele>980.74</ele>
        <time>2022-03-22T19:48:29Z</time>
      </trkpt>
      <trkpt lat="45.24341" lon="4.37913">
        <ele>983.23</ele>
        <time>2022-03-22T19:48:33Z</time>
      </trkpt>
      <trkpt lat="45.24368" lon="4.37853">
        <ele>987</ele>
        <time>2022-03-22T19:48:37Z</time>
      </trkpt>
      <trkpt lat="45.24383" lon="4.3776">
        <ele>990.7</ele>
        <time>2022-03-22T19:48:41Z</time>
      </trkpt>
      <trkpt lat="45.24388" lon="4.37682">
        <ele>994.31</ele>
        <time>2022-03-22T19:48:45Z</time>
      </trkpt>
      <trkpt lat="45.24419" lon="4.37449">
        <ele>997.46</ele>
        <time>2022-03-22T19:48:49Z</time>
      </trkpt>
      <trkpt lat="45.24486" lon="4.37144">
        <ele>992.57</ele>
        <time>2022-03-22T19:48:53Z</time>
      </trkpt>
      <trkpt lat="45.24516" lon="4.36993">
        <ele>994.76</ele>
        <time>2022-03-22T19:48:57Z</time>
      </trkpt>
      <trkpt lat="45.24527" lon="4.36899">
        <ele>980.56</ele>
        <time>2022-03-22T19:49:01Z</time>
      </trkpt>
      <trkpt lat="45.24565" lon="4.36798">
        <ele>970.57</ele>
        <time>2022-03-22T19:49:05Z</time>
      </trkpt>
      <trkpt lat="45.24569" lon="4.36682">
        <ele>954.84</ele>
        <time>2022-03-22T19:49:09Z</time>
      </trkpt>
      <trkpt lat="45.24583" lon="4.36618">
        <ele>946.48</ele>
        <time>2022-03-22T19:49:13Z</time>
      </trkpt>
      <trkpt lat="45.24612" lon="4.36552">
        <ele>940.9</ele>
        <time>2022-03-22T19:49:17Z</time>
      </trkpt>
      <trkpt lat="45.24614" lon="4.36522">
        <ele>939.77</ele>
        <time>2022-03-22T19:49:22Z</time>
      </trkpt>
      <trkpt lat="45.24609" lon="4.36325">
        <ele>932.39</ele>
        <time>2022-03-22T19:49:26Z</time>
      </trkpt>
      <trkpt lat="45.2461" lon="4.36315">
        <ele>931.66</ele>
        <time>2022-03-22T19:49:30Z</time>
      </trkpt>
      <trkpt lat="45.24636" lon="4.36225">
        <ele>929.93</ele>
        <time>2022-03-22T19:49:34Z</time>
      </trkpt>
      <trkpt lat="45.24648" lon="4.36133">
        <ele>929.34</ele>
        <time>2022-03-22T19:49:38Z</time>
      </trkpt>
      <trkpt lat="45.24673" lon="4.36093">
        <ele>929.57</ele>
        <time>2022-03-22T19:49:42Z</time>
      </trkpt>
      <trkpt lat="45.24678" lon="4.36063">
        <ele>928.28</ele>
        <time>2022-03-22T19:49:46Z</time>
      </trkpt>
      <trkpt lat="45.24674" lon="4.36015">
        <ele>924.58</ele>
        <time>2022-03-22T19:49:51Z</time>
      </trkpt>
      <trkpt lat="45.24665" lon="4.35982">
        <ele>920.25</ele>
        <time>2022-03-22T19:49:55Z</time>
      </trkpt>
      <trkpt lat="45.24665" lon="4.35967">
        <ele>918.58</ele>
        <time>2022-03-22T19:49:59Z</time>
      </trkpt>
      <trkpt lat="45.24669" lon="4.35957">
        <ele>918.19</ele>
        <time>2022-03-22T19:50:03Z</time>
      </trkpt>
      <trkpt lat="45.24694" lon="4.35929">
        <ele>919.77</ele>
        <time>2022-03-22T19:50:07Z</time>
      </trkpt>
      <trkpt lat="45.24741" lon="4.35903">
        <ele>916.96</ele>
        <time>2022-03-22T19:50:11Z</time>
      </trkpt>
      <trkpt lat="45.24801" lon="4.35847">
        <ele>909.79</ele>
        <time>2022-03-22T19:50:15Z</time>
      </trkpt>
      <trkpt lat="45.24871" lon="4.35764">
        <ele>905.34</ele>
        <time>2022-03-22T19:50:20Z</time>
      </trkpt>
      <trkpt lat="45.24861" lon="4.35736">
        <ele>905.49</ele>
        <time>2022-03-22T19:50:22Z</time>
      </trkpt>
      <trkpt lat="45.24874" lon="4.35715">
        <ele>907.63</ele>
        <time>2022-03-22T19:50:29Z</time>
      </trkpt>
      <trkpt lat="45.24907" lon="4.35638">
        <ele>915.25</ele>
        <time>2022-03-22T19:50:36Z</time>
      </trkpt>
      <trkpt lat="45.24961" lon="4.35489">
        <ele>918.76</ele>
        <time>2022-03-22T19:50:43Z</time>
      </trkpt>
      <trkpt lat="45.25138" lon="4.34871">
        <ele>950.25</ele>
        <time>2022-03-22T19:50:51Z</time>
      </trkpt>
      <trkpt lat="45.25181" lon="4.34797">
        <ele>955.51</ele>
        <time>2022-03-22T19:50:58Z</time>
      </trkpt>
      <trkpt lat="45.25307" lon="4.34631">
        <ele>968.42</ele>
        <time>2022-03-22T19:51:05Z</time>
      </trkpt>
      <trkpt lat="45.25341" lon="4.3458">
        <ele>971.83</ele>
        <time>2022-03-22T19:51:12Z</time>
      </trkpt>
      <trkpt lat="45.25362" lon="4.34526">
        <ele>972.09</ele>
        <time>2022-03-22T19:51:19Z</time>
      </trkpt>
      <trkpt lat="45.25407" lon="4.34354">
        <ele>988.34</ele>
        <time>2022-03-22T19:51:26Z</time>
      </trkpt>
      <trkpt lat="45.25453" lon="4.34254">
        <ele>987.41</ele>
        <time>2022-03-22T19:51:34Z</time>
      </trkpt>
      <trkpt lat="45.25606" lon="4.33952">
        <ele>974.82</ele>
        <time>2022-03-22T19:51:41Z</time>
      </trkpt>
      <trkpt lat="45.25649" lon="4.33873">
        <ele>968.55</ele>
        <time>2022-03-22T19:51:48Z</time>
      </trkpt>
      <trkpt lat="45.25676" lon="4.33836">
        <ele>968.73</ele>
        <time>2022-03-22T19:51:55Z</time>
      </trkpt>
      <trkpt lat="45.25755" lon="4.33774">
        <ele>966.65</ele>
        <time>2022-03-22T19:52:02Z</time>
      </trkpt>
      <trkpt lat="45.25855" lon="4.33719">
        <ele>958.24</ele>
        <time>2022-03-22T19:52:10Z</time>
      </trkpt>
      <trkpt lat="45.25953" lon="4.33691">
        <ele>952.89</ele>
        <time>2022-03-22T19:52:17Z</time>
      </trkpt>
      <trkpt lat="45.26056" lon="4.3367">
        <ele>948.58</ele>
        <time>2022-03-22T19:52:24Z</time>
      </trkpt>
      <trkpt lat="45.2609" lon="4.33651">
        <ele>944.04</ele>
        <time>2022-03-22T19:52:31Z</time>
      </trkpt>
      <trkpt lat="45.26117" lon="4.33627">
        <ele>942.05</ele>
        <time>2022-03-22T19:52:38Z</time>
      </trkpt>
      <trkpt lat="45.26142" lon="4.33594">
        <ele>940.77</ele>
        <time>2022-03-22T19:52:46Z</time>
      </trkpt>
      <trkpt lat="45.2624" lon="4.33392">
        <ele>929.58</ele>
        <time>2022-03-22T19:52:53Z</time>
      </trkpt>
      <trkpt lat="45.26379" lon="4.33101">
        <ele>910.35</ele>
        <time>2022-03-22T19:53:00Z</time>
      </trkpt>
      <trkpt lat="45.26413" lon="4.33012">
        <ele>912.87</ele>
        <time>2022-03-22T19:53:07Z</time>
      </trkpt>
      <trkpt lat="45.26429" lon="4.32986">
        <ele>913</ele>
        <time>2022-03-22T19:53:14Z</time>
      </trkpt>
      <trkpt lat="45.26445" lon="4.32963">
        <ele>913.03</ele>
        <time>2022-03-22T19:53:21Z</time>
      </trkpt>
      <trkpt lat="45.26458" lon="4.32951">
        <ele>913.59</ele>
        <time>2022-03-22T19:53:29Z</time>
      </trkpt>
      <trkpt lat="45.26465" lon="4.32947">
        <ele>913.81</ele>
        <time>2022-03-22T19:53:36Z</time>
      </trkpt>
      <trkpt lat="45.26479" lon="4.32946">
        <ele>914.54</ele>
        <time>2022-03-22T19:53:43Z</time>
      </trkpt>
      <trkpt lat="45.26486" lon="4.3295">
        <ele>915.2</ele>
        <time>2022-03-22T19:53:47Z</time>
      </trkpt>
      <trkpt lat="45.26497" lon="4.3295">
        <ele>915.99</ele>
        <time>2022-03-22T19:53:50Z</time>
      </trkpt>
      <trkpt lat="45.26508" lon="4.32943">
        <ele>915.91</ele>
        <time>2022-03-22T19:53:54Z</time>
      </trkpt>
      <trkpt lat="45.26517" lon="4.32925">
        <ele>915.03</ele>
        <time>2022-03-22T19:53:57Z</time>
      </trkpt>
      <trkpt lat="45.26517" lon="4.32904">
        <ele>913.86</ele>
        <time>2022-03-22T19:54:01Z</time>
      </trkpt>
      <trkpt lat="45.2651" lon="4.32888">
        <ele>912.99</ele>
        <time>2022-03-22T19:54:05Z</time>
      </trkpt>
      <trkpt lat="45.26498" lon="4.32879">
        <ele>913.08</ele>
        <time>2022-03-22T19:54:08Z</time>
      </trkpt>
      <trkpt lat="45.2649" lon="4.32877">
        <ele>913.49</ele>
        <time>2022-03-22T19:54:12Z</time>
      </trkpt>
      <trkpt lat="45.26477" lon="4.32884">
        <ele>913.99</ele>
        <time>2022-03-22T19:54:15Z</time>
      </trkpt>
      <trkpt lat="45.26466" lon="4.32883">
        <ele>914.45</ele>
        <time>2022-03-22T19:54:19Z</time>
      </trkpt>
      <trkpt lat="45.26422" lon="4.32858">
        <ele>915.9</ele>
        <time>2022-03-22T19:54:23Z</time>
      </trkpt>
      <trkpt lat="45.26395" lon="4.32838">
        <ele>914.26</ele>
        <time>2022-03-22T19:54:26Z</time>
      </trkpt>
      <trkpt lat="45.26354" lon="4.32792">
        <ele>915.74</ele>
        <time>2022-03-22T19:54:30Z</time>
      </trkpt>
      <trkpt lat="45.26342" lon="4.32767">
        <ele>915.6</ele>
        <time>2022-03-22T19:54:33Z</time>
      </trkpt>
      <trkpt lat="45.26316" lon="4.32692">
        <ele>911.68</ele>
        <time>2022-03-22T19:54:37Z</time>
      </trkpt>
      <trkpt lat="45.26298" lon="4.32659">
        <ele>909.5</ele>
        <time>2022-03-22T19:54:40Z</time>
      </trkpt>
      <trkpt lat="45.26266" lon="4.32628">
        <ele>908.96</ele>
        <time>2022-03-22T19:54:44Z</time>
      </trkpt>
      <trkpt lat="45.26185" lon="4.32605">
        <ele>904.96</ele>
        <time>2022-03-22T19:54:48Z</time>
      </trkpt>
      <trkpt lat="45.26157" lon="4.32589">
        <ele>905.13</ele>
        <time>2022-03-22T19:54:51Z</time>
      </trkpt>
      <trkpt lat="45.26136" lon="4.32567">
        <ele>905.99</ele>
        <time>2022-03-22T19:54:55Z</time>
      </trkpt>
      <trkpt lat="45.26122" lon="4.32531">
        <ele>907.83</ele>
        <time>2022-03-22T19:54:58Z</time>
      </trkpt>
      <trkpt lat="45.26116" lon="4.32476">
        <ele>905.42</ele>
        <time>2022-03-22T19:55:02Z</time>
      </trkpt>
      <trkpt lat="45.26107" lon="4.32419">
        <ele>900.78</ele>
        <time>2022-03-22T19:55:06Z</time>
      </trkpt>
      <trkpt lat="45.26069" lon="4.32317">
        <ele>896.24</ele>
        <time>2022-03-22T19:55:09Z</time>
      </trkpt>
      <trkpt lat="45.26052" lon="4.32236">
        <ele>893.33</ele>
        <time>2022-03-22T19:55:13Z</time>
      </trkpt>
      <trkpt lat="45.26035" lon="4.32191">
        <ele>891.97</ele>
        <time>2022-03-22T19:55:16Z</time>
      </trkpt>
      <trkpt lat="45.25997" lon="4.3211">
        <ele>892</ele>
        <time>2022-03-22T19:55:20Z</time>
      </trkpt>
      <trkpt lat="45.25974" lon="4.32076">
        <ele>889.74</ele>
        <time>2022-03-22T19:55:24Z</time>
      </trkpt>
      <trkpt lat="45.25932" lon="4.32041">
        <ele>888.71</ele>
        <time>2022-03-22T19:55:27Z</time>
      </trkpt>
      <trkpt lat="45.25754" lon="4.31923">
        <ele>877.74</ele>
        <time>2022-03-22T19:55:31Z</time>
      </trkpt>
      <trkpt lat="45.25709" lon="4.31881">
        <ele>873.98</ele>
        <time>2022-03-22T19:55:34Z</time>
      </trkpt>
      <trkpt lat="45.25681" lon="4.31836">
        <ele>880.64</ele>
        <time>2022-03-22T19:55:38Z</time>
      </trkpt>
      <trkpt lat="45.25667" lon="4.31797">
        <ele>887.3</ele>
        <time>2022-03-22T19:55:42Z</time>
      </trkpt>
      <trkpt lat="45.25653" lon="4.31737">
        <ele>890.42</ele>
        <time>2022-03-22T19:55:45Z</time>
      </trkpt>
      <trkpt lat="45.25647" lon="4.31619">
        <ele>892.82</ele>
        <time>2022-03-22T19:55:49Z</time>
      </trkpt>
      <trkpt lat="45.25623" lon="4.3151">
        <ele>883.91</ele>
        <time>2022-03-22T19:55:52Z</time>
      </trkpt>
      <trkpt lat="45.25613" lon="4.31378">
        <ele>880.68</ele>
        <time>2022-03-22T19:55:56Z</time>
      </trkpt>
      <trkpt lat="45.25613" lon="4.31338">
        <ele>880.14</ele>
        <time>2022-03-22T19:55:59Z</time>
      </trkpt>
      <trkpt lat="45.25633" lon="4.31215">
        <ele>884.98</ele>
        <time>2022-03-22T19:56:03Z</time>
      </trkpt>
      <trkpt lat="45.25664" lon="4.31043">
        <ele>880.1</ele>
        <time>2022-03-22T19:56:07Z</time>
      </trkpt>
      <trkpt lat="45.25665" lon="4.30991">
        <ele>877.53</ele>
        <time>2022-03-22T19:56:10Z</time>
      </trkpt>
      <trkpt lat="45.25662" lon="4.30948">
        <ele>874.52</ele>
        <time>2022-03-22T19:56:14Z</time>
      </trkpt>
      <trkpt lat="45.25665" lon="4.30933">
        <ele>873.06</ele>
        <time>2022-03-22T19:56:17Z</time>
      </trkpt>
      <trkpt lat="45.25674" lon="4.30903">
        <ele>872.42</ele>
        <time>2022-03-22T19:56:21Z</time>
      </trkpt>
      <trkpt lat="45.2571" lon="4.30846">
        <ele>874.62</ele>
        <time>2022-03-22T19:56:25Z</time>
      </trkpt>
      <trkpt lat="45.25724" lon="4.30821">
        <ele>873.09</ele>
        <time>2022-03-22T19:56:28Z</time>
      </trkpt>
      <trkpt lat="45.25728" lon="4.30807">
        <ele>871.78</ele>
        <time>2022-03-22T19:56:32Z</time>
      </trkpt>
      <trkpt lat="45.25729" lon="4.30794">
        <ele>871.5</ele>
        <time>2022-03-22T19:56:35Z</time>
      </trkpt>
      <trkpt lat="45.25726" lon="4.30767">
        <ele>871.78</ele>
        <time>2022-03-22T19:56:39Z</time>
      </trkpt>
      <trkpt lat="45.25711" lon="4.30709">
        <ele>870.65</ele>
        <time>2022-03-22T19:56:43Z</time>
      </trkpt>
      <trkpt lat="45.25703" lon="4.30681">
        <ele>869.23</ele>
        <time>2022-03-22T19:56:46Z</time>
      </trkpt>
      <trkpt lat="45.25694" lon="4.30674">
        <ele>869.23</ele>
        <time>2022-03-22T19:56:50Z</time>
      </trkpt>
      <trkpt lat="45.25638" lon="4.30649">
        <ele>866.35</ele>
        <time>2022-03-22T19:56:53Z</time>
      </trkpt>
      <trkpt lat="45.25616" lon="4.30632">
        <ele>866.04</ele>
        <time>2022-03-22T19:56:57Z</time>
      </trkpt>
      <trkpt lat="45.25598" lon="4.30604">
        <ele>864.63</ele>
        <time>2022-03-22T19:57:00Z</time>
      </trkpt>
      <trkpt lat="45.25591" lon="4.30579">
        <ele>863.87</ele>
        <time>2022-03-22T19:57:04Z</time>
      </trkpt>
      <trkpt lat="45.2559" lon="4.30529">
        <ele>865.6</ele>
        <time>2022-03-22T19:57:08Z</time>
      </trkpt>
      <trkpt lat="45.25591" lon="4.30491">
        <ele>868.42</ele>
        <time>2022-03-22T19:57:11Z</time>
      </trkpt>
      <trkpt lat="45.25598" lon="4.30457">
        <ele>869.54</ele>
        <time>2022-03-22T19:57:15Z</time>
      </trkpt>
      <trkpt lat="45.25603" lon="4.30445">
        <ele>869.46</ele>
        <time>2022-03-22T19:57:18Z</time>
      </trkpt>
      <trkpt lat="45.25613" lon="4.30433">
        <ele>869.61</ele>
        <time>2022-03-22T19:57:22Z</time>
      </trkpt>
      <trkpt lat="45.25632" lon="4.30418">
        <ele>869.09</ele>
        <time>2022-03-22T19:57:26Z</time>
      </trkpt>
      <trkpt lat="45.25669" lon="4.30405">
        <ele>867.63</ele>
        <time>2022-03-22T19:57:29Z</time>
      </trkpt>
      <trkpt lat="45.25714" lon="4.30383">
        <ele>867.49</ele>
        <time>2022-03-22T19:57:33Z</time>
      </trkpt>
      <trkpt lat="45.25741" lon="4.3035">
        <ele>866.86</ele>
        <time>2022-03-22T19:57:36Z</time>
      </trkpt>
      <trkpt lat="45.2578" lon="4.30285">
        <ele>864.36</ele>
        <time>2022-03-22T19:57:40Z</time>
      </trkpt>
      <trkpt lat="45.25786" lon="4.30262">
        <ele>865.18</ele>
        <time>2022-03-22T19:57:44Z</time>
      </trkpt>
      <trkpt lat="45.25779" lon="4.30212">
        <ele>867.78</ele>
        <time>2022-03-22T19:57:47Z</time>
      </trkpt>
      <trkpt lat="45.25772" lon="4.30151">
        <ele>871.56</ele>
        <time>2022-03-22T19:57:51Z</time>
      </trkpt>
      <trkpt lat="45.25779" lon="4.30082">
        <ele>872</ele>
        <time>2022-03-22T19:57:54Z</time>
      </trkpt>
      <trkpt lat="45.25778" lon="4.30043">
        <ele>872</ele>
        <time>2022-03-22T19:57:58Z</time>
      </trkpt>
      <trkpt lat="45.25755" lon="4.29806">
        <ele>869.19</ele>
        <time>2022-03-22T19:58:02Z</time>
      </trkpt>
      <trkpt lat="45.25745" lon="4.29665">
        <ele>868.75</ele>
        <time>2022-03-22T19:58:05Z</time>
      </trkpt>
      <trkpt lat="45.25742" lon="4.29648">
        <ele>868.22</ele>
        <time>2022-03-22T19:58:09Z</time>
      </trkpt>
      <trkpt lat="45.25713" lon="4.29541">
        <ele>865.1</ele>
        <time>2022-03-22T19:58:12Z</time>
      </trkpt>
      <trkpt lat="45.25649" lon="4.29303">
        <ele>852.87</ele>
        <time>2022-03-22T19:58:16Z</time>
      </trkpt>
      <trkpt lat="45.25605" lon="4.29147">
        <ele>842.59</ele>
        <time>2022-03-22T19:58:19Z</time>
      </trkpt>
      <trkpt lat="45.25584" lon="4.29086">
        <ele>843.88</ele>
        <time>2022-03-22T19:58:23Z</time>
      </trkpt>
      <trkpt lat="45.25568" lon="4.29044">
        <ele>843.14</ele>
        <time>2022-03-22T19:58:27Z</time>
      </trkpt>
      <trkpt lat="45.25552" lon="4.28998">
        <ele>843.88</ele>
        <time>2022-03-22T19:58:30Z</time>
      </trkpt>
      <trkpt lat="45.25545" lon="4.28965">
        <ele>845.17</ele>
        <time>2022-03-22T19:58:34Z</time>
      </trkpt>
      <trkpt lat="45.25542" lon="4.28935">
        <ele>846.16</ele>
        <time>2022-03-22T19:58:37Z</time>
      </trkpt>
      <trkpt lat="45.25543" lon="4.28902">
        <ele>846.59</ele>
        <time>2022-03-22T19:58:41Z</time>
      </trkpt>
      <trkpt lat="45.25547" lon="4.28874">
        <ele>846.18</ele>
        <time>2022-03-22T19:58:45Z</time>
      </trkpt>
      <trkpt lat="45.25554" lon="4.28851">
        <ele>845.49</ele>
        <time>2022-03-22T19:58:48Z</time>
      </trkpt>
      <trkpt lat="45.25563" lon="4.28827">
        <ele>846.06</ele>
        <time>2022-03-22T19:58:52Z</time>
      </trkpt>
      <trkpt lat="45.25575" lon="4.28807">
        <ele>847.12</ele>
        <time>2022-03-22T19:58:55Z</time>
      </trkpt>
      <trkpt lat="45.25682" lon="4.28668">
        <ele>846.15</ele>
        <time>2022-03-22T19:58:59Z</time>
      </trkpt>
      <trkpt lat="45.25699" lon="4.28634">
        <ele>847</ele>
        <time>2022-03-22T19:59:03Z</time>
      </trkpt>
      <trkpt lat="45.25707" lon="4.2861">
        <ele>847</ele>
        <time>2022-03-22T19:59:06Z</time>
      </trkpt>
      <trkpt lat="45.25713" lon="4.28575">
        <ele>847</ele>
        <time>2022-03-22T19:59:10Z</time>
      </trkpt>
      <trkpt lat="45.25727" lon="4.28416">
        <ele>854.19</ele>
        <time>2022-03-22T19:59:13Z</time>
      </trkpt>
      <trkpt lat="45.25738" lon="4.28357">
        <ele>857.07</ele>
        <time>2022-03-22T19:59:17Z</time>
      </trkpt>
      <trkpt lat="45.25749" lon="4.28314">
        <ele>857.03</ele>
        <time>2022-03-22T19:59:20Z</time>
      </trkpt>
      <trkpt lat="45.25789" lon="4.28188">
        <ele>856.32</ele>
        <time>2022-03-22T19:59:24Z</time>
      </trkpt>
      <trkpt lat="45.25843" lon="4.28048">
        <ele>849.11</ele>
        <time>2022-03-22T19:59:28Z</time>
      </trkpt>
      <trkpt lat="45.25857" lon="4.27995">
        <ele>846.85</ele>
        <time>2022-03-22T19:59:31Z</time>
      </trkpt>
      <trkpt lat="45.25861" lon="4.27972">
        <ele>846.02</ele>
        <time>2022-03-22T19:59:35Z</time>
      </trkpt>
      <trkpt lat="45.25862" lon="4.27943">
        <ele>845.92</ele>
        <time>2022-03-22T19:59:38Z</time>
      </trkpt>
      <trkpt lat="45.25862" lon="4.27889">
        <ele>845</ele>
        <time>2022-03-22T19:59:42Z</time>
      </trkpt>
      <trkpt lat="45.25858" lon="4.27859">
        <ele>845.99</ele>
        <time>2022-03-22T19:59:46Z</time>
      </trkpt>
      <trkpt lat="45.25849" lon="4.27818">
        <ele>847.61</ele>
        <time>2022-03-22T19:59:49Z</time>
      </trkpt>
      <trkpt lat="45.25843" lon="4.27798">
        <ele>847.94</ele>
        <time>2022-03-22T19:59:53Z</time>
      </trkpt>
      <trkpt lat="45.25827" lon="4.27764">
        <ele>847.3</ele>
        <time>2022-03-22T19:59:56Z</time>
      </trkpt>
      <trkpt lat="45.25809" lon="4.27738">
        <ele>845.7</ele>
        <time>2022-03-22T20:00:00Z</time>
      </trkpt>
      <trkpt lat="45.258" lon="4.2773">
        <ele>845.68</ele>
        <time>2022-03-22T20:00:04Z</time>
      </trkpt>
      <trkpt lat="45.25787" lon="4.27722">
        <ele>846.07</ele>
        <time>2022-03-22T20:00:07Z</time>
      </trkpt>
      <trkpt lat="45.25776" lon="4.27717">
        <ele>846.6</ele>
        <time>2022-03-22T20:00:11Z</time>
      </trkpt>
      <trkpt lat="45.25709" lon="4.27702">
        <ele>847.6</ele>
        <time>2022-03-22T20:00:14Z</time>
      </trkpt>
      <trkpt lat="45.25685" lon="4.27688">
        <ele>846.47</ele>
        <time>2022-03-22T20:00:18Z</time>
      </trkpt>
      <trkpt lat="45.2567" lon="4.27669">
        <ele>844.59</ele>
        <time>2022-03-22T20:00:22Z</time>
      </trkpt>
      <trkpt lat="45.25665" lon="4.27659">
        <ele>843.79</ele>
        <time>2022-03-22T20:00:25Z</time>
      </trkpt>
      <trkpt lat="45.2566" lon="4.27643">
        <ele>843.04</ele>
        <time>2022-03-22T20:00:29Z</time>
      </trkpt>
      <trkpt lat="45.2565" lon="4.2758">
        <ele>844.44</ele>
        <time>2022-03-22T20:00:32Z</time>
      </trkpt>
      <trkpt lat="45.25639" lon="4.2755">
        <ele>844.51</ele>
        <time>2022-03-22T20:00:36Z</time>
      </trkpt>
      <trkpt lat="45.25631" lon="4.27534">
        <ele>845.22</ele>
        <time>2022-03-22T20:00:39Z</time>
      </trkpt>
      <trkpt lat="45.2562" lon="4.27521">
        <ele>846.1</ele>
        <time>2022-03-22T20:00:43Z</time>
      </trkpt>
      <trkpt lat="45.25572" lon="4.2748">
        <ele>845.77</ele>
        <time>2022-03-22T20:00:47Z</time>
      </trkpt>
      <trkpt lat="45.25554" lon="4.27462">
        <ele>844.21</ele>
        <time>2022-03-22T20:00:50Z</time>
      </trkpt>
      <trkpt lat="45.25543" lon="4.27448">
        <ele>843.52</ele>
        <time>2022-03-22T20:00:54Z</time>
      </trkpt>
      <trkpt lat="45.2553" lon="4.27426">
        <ele>844.21</ele>
        <time>2022-03-22T20:00:57Z</time>
      </trkpt>
      <trkpt lat="45.25509" lon="4.27373">
        <ele>845.41</ele>
        <time>2022-03-22T20:01:01Z</time>
      </trkpt>
      <trkpt lat="45.25491" lon="4.27318">
        <ele>841.65</ele>
        <time>2022-03-22T20:01:05Z</time>
      </trkpt>
      <trkpt lat="45.25485" lon="4.2729">
        <ele>840.62</ele>
        <time>2022-03-22T20:01:08Z</time>
      </trkpt>
      <trkpt lat="45.25482" lon="4.27268">
        <ele>840.44</ele>
        <time>2022-03-22T20:01:12Z</time>
      </trkpt>
      <trkpt lat="45.25478" lon="4.27176">
        <ele>839.45</ele>
        <time>2022-03-22T20:01:15Z</time>
      </trkpt>
      <trkpt lat="45.25467" lon="4.27087">
        <ele>838.11</ele>
        <time>2022-03-22T20:01:19Z</time>
      </trkpt>
      <trkpt lat="45.25467" lon="4.27041">
        <ele>838.51</ele>
        <time>2022-03-22T20:01:23Z</time>
      </trkpt>
      <trkpt lat="45.25469" lon="4.27035">
        <ele>838.73</ele>
        <time>2022-03-22T20:01:28Z</time>
      </trkpt>
      <trkpt lat="45.2547" lon="4.27023">
        <ele>839.02</ele>
        <time>2022-03-22T20:01:33Z</time>
      </trkpt>
      <trkpt lat="45.25468" lon="4.27016">
        <ele>839.07</ele>
        <time>2022-03-22T20:01:38Z</time>
      </trkpt>
      <trkpt lat="45.25462" lon="4.27008">
        <ele>839.27</ele>
        <time>2022-03-22T20:01:44Z</time>
      </trkpt>
      <trkpt lat="45.25455" lon="4.27006">
        <ele>839.49</ele>
        <time>2022-03-22T20:01:49Z</time>
      </trkpt>
      <trkpt lat="45.25448" lon="4.26994">
        <ele>839.89</ele>
        <time>2022-03-22T20:01:54Z</time>
      </trkpt>
      <trkpt lat="45.25438" lon="4.26957">
        <ele>839.98</ele>
        <time>2022-03-22T20:01:59Z</time>
      </trkpt>
      <trkpt lat="45.25336" lon="4.26492">
        <ele>832.16</ele>
        <time>2022-03-22T20:02:05Z</time>
      </trkpt>
      <trkpt lat="45.25331" lon="4.26448">
        <ele>832.18</ele>
        <time>2022-03-22T20:02:10Z</time>
      </trkpt>
      <trkpt lat="45.25333" lon="4.26402">
        <ele>830.98</ele>
        <time>2022-03-22T20:02:15Z</time>
      </trkpt>
      <trkpt lat="45.25338" lon="4.26368">
        <ele>829.87</ele>
        <time>2022-03-22T20:02:20Z</time>
      </trkpt>
      <trkpt lat="45.25379" lon="4.26173">
        <ele>829.2</ele>
        <time>2022-03-22T20:02:26Z</time>
      </trkpt>
      <trkpt lat="45.25387" lon="4.26144">
        <ele>829.86</ele>
        <time>2022-03-22T20:02:31Z</time>
      </trkpt>
      <trkpt lat="45.254" lon="4.26106">
        <ele>831</ele>
        <time>2022-03-22T20:02:36Z</time>
      </trkpt>
      <trkpt lat="45.25436" lon="4.26019">
        <ele>827.58</ele>
        <time>2022-03-22T20:02:41Z</time>
      </trkpt>
      <trkpt lat="45.2545" lon="4.25979">
        <ele>825.44</ele>
        <time>2022-03-22T20:02:47Z</time>
      </trkpt>
      <trkpt lat="45.25463" lon="4.25933">
        <ele>825.32</ele>
        <time>2022-03-22T20:02:52Z</time>
      </trkpt>
      <trkpt lat="45.25478" lon="4.25872">
        <ele>822.5</ele>
        <time>2022-03-22T20:02:57Z</time>
      </trkpt>
      <trkpt lat="45.25485" lon="4.25832">
        <ele>821.58</ele>
        <time>2022-03-22T20:03:02Z</time>
      </trkpt>
      <trkpt lat="45.2549" lon="4.25794">
        <ele>819.86</ele>
        <time>2022-03-22T20:03:08Z</time>
      </trkpt>
      <trkpt lat="45.25496" lon="4.25722">
        <ele>817</ele>
        <time>2022-03-22T20:03:13Z</time>
      </trkpt>
      <trkpt lat="45.25497" lon="4.25685">
        <ele>818</ele>
        <time>2022-03-22T20:03:18Z</time>
      </trkpt>
      <trkpt lat="45.25496" lon="4.25646">
        <ele>817.27</ele>
        <time>2022-03-22T20:03:23Z</time>
      </trkpt>
      <trkpt lat="45.2549" lon="4.25557">
        <ele>815.35</ele>
        <time>2022-03-22T20:03:29Z</time>
      </trkpt>
      <trkpt lat="45.25482" lon="4.25479">
        <ele>813.4</ele>
        <time>2022-03-22T20:03:34Z</time>
      </trkpt>
      <trkpt lat="45.2548" lon="4.25429">
        <ele>814.84</ele>
        <time>2022-03-22T20:03:39Z</time>
      </trkpt>
      <trkpt lat="45.25481" lon="4.25408">
        <ele>814.35</ele>
        <time>2022-03-22T20:03:45Z</time>
      </trkpt>
      <trkpt lat="45.25524" lon="4.25117">
        <ele>809.59</ele>
        <time>2022-03-22T20:03:50Z</time>
      </trkpt>
      <trkpt lat="45.25538" lon="4.25028">
        <ele>810.07</ele>
        <time>2022-03-22T20:03:55Z</time>
      </trkpt>
      <trkpt lat="45.25575" lon="4.24866">
        <ele>815.18</ele>
        <time>2022-03-22T20:04:00Z</time>
      </trkpt>
      <trkpt lat="45.25644" lon="4.24576">
        <ele>817.04</ele>
        <time>2022-03-22T20:04:06Z</time>
      </trkpt>
      <trkpt lat="45.25652" lon="4.24553">
        <ele>817.46</ele>
        <time>2022-03-22T20:04:11Z</time>
      </trkpt>
      <trkpt lat="45.25668" lon="4.2452">
        <ele>819.3</ele>
        <time>2022-03-22T20:04:16Z</time>
      </trkpt>
      <trkpt lat="45.25672" lon="4.24517">
        <ele>819.51</ele>
        <time>2022-03-22T20:04:22Z</time>
      </trkpt>
      <trkpt lat="45.25676" lon="4.24511">
        <ele>819.74</ele>
        <time>2022-03-22T20:04:29Z</time>
      </trkpt>
      <trkpt lat="45.25678" lon="4.24503">
        <ele>819.95</ele>
        <time>2022-03-22T20:04:35Z</time>
      </trkpt>
      <trkpt lat="45.25676" lon="4.24489">
        <ele>820</ele>
        <time>2022-03-22T20:04:41Z</time>
      </trkpt>
      <trkpt lat="45.25673" lon="4.24484">
        <ele>820</ele>
        <time>2022-03-22T20:04:47Z</time>
      </trkpt>
      <trkpt lat="45.25674" lon="4.24461">
        <ele>819.7</ele>
        <time>2022-03-22T20:04:54Z</time>
      </trkpt>
      <trkpt lat="45.2568" lon="4.24429">
        <ele>819.21</ele>
        <time>2022-03-22T20:05:00Z</time>
      </trkpt>
      <trkpt lat="45.25704" lon="4.2433">
        <ele>816.25</ele>
        <time>2022-03-22T20:05:06Z</time>
      </trkpt>
      <trkpt lat="45.25712" lon="4.24288">
        <ele>817.1</ele>
        <time>2022-03-22T20:05:12Z</time>
      </trkpt>
      <trkpt lat="45.25716" lon="4.24251">
        <ele>819.71</ele>
        <time>2022-03-22T20:05:19Z</time>
      </trkpt>
      <trkpt lat="45.2572" lon="4.24171">
        <ele>825.88</ele>
        <time>2022-03-22T20:05:25Z</time>
      </trkpt>
      <trkpt lat="45.25719" lon="4.24139">
        <ele>826.63</ele>
        <time>2022-03-22T20:05:31Z</time>
      </trkpt>
      <trkpt lat="45.25712" lon="4.24066">
        <ele>823.73</ele>
        <time>2022-03-22T20:05:37Z</time>
      </trkpt>
      <trkpt lat="45.25706" lon="4.24027">
        <ele>823.41</ele>
        <time>2022-03-22T20:05:44Z</time>
      </trkpt>
      <trkpt lat="45.25684" lon="4.23946">
        <ele>824.37</ele>
        <time>2022-03-22T20:05:50Z</time>
      </trkpt>
      <trkpt lat="45.25658" lon="4.23879">
        <ele>825.07</ele>
        <time>2022-03-22T20:05:56Z</time>
      </trkpt>
      <trkpt lat="45.25642" lon="4.23847">
        <ele>824.77</ele>
        <time>2022-03-22T20:06:02Z</time>
      </trkpt>
      <trkpt lat="45.25606" lon="4.23784">
        <ele>827.37</ele>
        <time>2022-03-22T20:06:09Z</time>
      </trkpt>
      <trkpt lat="45.2551" lon="4.23639">
        <ele>829.31</ele>
        <time>2022-03-22T20:06:15Z</time>
      </trkpt>
      <trkpt lat="45.25472" lon="4.2358">
        <ele>827.87</ele>
        <time>2022-03-22T20:06:21Z</time>
      </trkpt>
      <trkpt lat="45.25449" lon="4.23536">
        <ele>827.36</ele>
        <time>2022-03-22T20:06:27Z</time>
      </trkpt>
      <trkpt lat="45.25432" lon="4.23501">
        <ele>826.14</ele>
        <time>2022-03-22T20:06:34Z</time>
      </trkpt>
      <trkpt lat="45.25401" lon="4.23423">
        <ele>822.35</ele>
        <time>2022-03-22T20:06:40Z</time>
      </trkpt>
      <trkpt lat="45.25349" lon="4.23251">
        <ele>815.02</ele>
        <time>2022-03-22T20:06:46Z</time>
      </trkpt>
      <trkpt lat="45.25224" lon="4.22819">
        <ele>811.03</ele>
        <time>2022-03-22T20:06:52Z</time>
      </trkpt>
      <trkpt lat="45.25206" lon="4.22766">
        <ele>809.75</ele>
        <time>2022-03-22T20:06:59Z</time>
      </trkpt>
      <trkpt lat="45.25181" lon="4.22704">
        <ele>808.49</ele>
        <time>2022-03-22T20:07:05Z</time>
      </trkpt>
      <trkpt lat="45.25156" lon="4.22653">
        <ele>804.16</ele>
        <time>2022-03-22T20:07:11Z</time>
      </trkpt>
      <trkpt lat="45.25135" lon="4.22615">
        <ele>800.56</ele>
        <time>2022-03-22T20:07:17Z</time>
      </trkpt>
      <trkpt lat="45.25107" lon="4.22573">
        <ele>800.41</ele>
        <time>2022-03-22T20:07:24Z</time>
      </trkpt>
      <trkpt lat="45.24802" lon="4.22166">
        <ele>776.88</ele>
        <time>2022-03-22T20:07:30Z</time>
      </trkpt>
      <trkpt lat="45.24791" lon="4.22147">
        <ele>776.84</ele>
        <time>2022-03-22T20:07:36Z</time>
      </trkpt>
      <trkpt lat="45.2478" lon="4.22119">
        <ele>776.35</ele>
        <time>2022-03-22T20:07:43Z</time>
      </trkpt>
      <trkpt lat="45.2478" lon="4.2211">
        <ele>776.08</ele>
        <time>2022-03-22T20:07:46Z</time>
      </trkpt>
      <trkpt lat="45.24785" lon="4.22099">
        <ele>776.14</ele>
        <time>2022-03-22T20:07:49Z</time>
      </trkpt>
      <trkpt lat="45.24807" lon="4.22076">
        <ele>776.07</ele>
        <time>2022-03-22T20:07:52Z</time>
      </trkpt>
      <trkpt lat="45.24835" lon="4.2205">
        <ele>776.83</ele>
        <time>2022-03-22T20:07:56Z</time>
      </trkpt>
      <trkpt lat="45.2487" lon="4.2201">
        <ele>776.67</ele>
        <time>2022-03-22T20:07:59Z</time>
      </trkpt>
      <trkpt lat="45.24887" lon="4.21974">
        <ele>777.79</ele>
        <time>2022-03-22T20:08:02Z</time>
      </trkpt>
      <trkpt lat="45.24894" lon="4.21955">
        <ele>777.75</ele>
        <time>2022-03-22T20:08:06Z</time>
      </trkpt>
      <trkpt lat="45.24918" lon="4.21835">
        <ele>779.94</ele>
        <time>2022-03-22T20:08:09Z</time>
      </trkpt>
      <trkpt lat="45.24925" lon="4.21808">
        <ele>780.92</ele>
        <time>2022-03-22T20:08:12Z</time>
      </trkpt>
      <trkpt lat="45.24932" lon="4.21784">
        <ele>781</ele>
        <time>2022-03-22T20:08:15Z</time>
      </trkpt>
      <trkpt lat="45.2495" lon="4.21747">
        <ele>780.81</ele>
        <time>2022-03-22T20:08:19Z</time>
      </trkpt>
      <trkpt lat="45.2497" lon="4.21717">
        <ele>779.91</ele>
        <time>2022-03-22T20:08:22Z</time>
      </trkpt>
      <trkpt lat="45.25006" lon="4.21668">
        <ele>778.27</ele>
        <time>2022-03-22T20:08:25Z</time>
      </trkpt>
      <trkpt lat="45.25247" lon="4.21359">
        <ele>764.19</ele>
        <time>2022-03-22T20:08:28Z</time>
      </trkpt>
      <trkpt lat="45.25272" lon="4.21322">
        <ele>765.09</ele>
        <time>2022-03-22T20:08:32Z</time>
      </trkpt>
      <trkpt lat="45.2529" lon="4.21289">
        <ele>764.27</ele>
        <time>2022-03-22T20:08:35Z</time>
      </trkpt>
      <trkpt lat="45.25305" lon="4.21259">
        <ele>763.04</ele>
        <time>2022-03-22T20:08:38Z</time>
      </trkpt>
      <trkpt lat="45.25363" lon="4.21113">
        <ele>760.01</ele>
        <time>2022-03-22T20:08:42Z</time>
      </trkpt>
      <trkpt lat="45.25489" lon="4.20796">
        <ele>754.98</ele>
        <time>2022-03-22T20:08:45Z</time>
      </trkpt>
      <trkpt lat="45.25514" lon="4.20737">
        <ele>755.05</ele>
        <time>2022-03-22T20:08:48Z</time>
      </trkpt>
      <trkpt lat="45.25531" lon="4.20702">
        <ele>754.67</ele>
        <time>2022-03-22T20:08:51Z</time>
      </trkpt>
      <trkpt lat="45.25549" lon="4.20675">
        <ele>755.53</ele>
        <time>2022-03-22T20:08:55Z</time>
      </trkpt>
      <trkpt lat="45.2557" lon="4.20647">
        <ele>754.74</ele>
        <time>2022-03-22T20:08:58Z</time>
      </trkpt>
      <trkpt lat="45.25642" lon="4.20574">
        <ele>751.98</ele>
        <time>2022-03-22T20:09:01Z</time>
      </trkpt>
      <trkpt lat="45.25668" lon="4.20541">
        <ele>752.14</ele>
        <time>2022-03-22T20:09:05Z</time>
      </trkpt>
      <trkpt lat="45.25684" lon="4.20515">
        <ele>752.99</ele>
        <time>2022-03-22T20:09:08Z</time>
      </trkpt>
      <trkpt lat="45.25697" lon="4.2049">
        <ele>753.18</ele>
        <time>2022-03-22T20:09:11Z</time>
      </trkpt>
      <trkpt lat="45.25715" lon="4.2044">
        <ele>750.24</ele>
        <time>2022-03-22T20:09:14Z</time>
      </trkpt>
      <trkpt lat="45.25724" lon="4.20408">
        <ele>746.79</ele>
        <time>2022-03-22T20:09:18Z</time>
      </trkpt>
      <trkpt lat="45.25732" lon="4.20366">
        <ele>743.08</ele>
        <time>2022-03-22T20:09:21Z</time>
      </trkpt>
      <trkpt lat="45.25757" lon="4.20222">
        <ele>750.55</ele>
        <time>2022-03-22T20:09:24Z</time>
      </trkpt>
      <trkpt lat="45.25771" lon="4.20171">
        <ele>752.79</ele>
        <time>2022-03-22T20:09:28Z</time>
      </trkpt>
      <trkpt lat="45.25779" lon="4.20149">
        <ele>751.68</ele>
        <time>2022-03-22T20:09:31Z</time>
      </trkpt>
      <trkpt lat="45.25804" lon="4.20101">
        <ele>749.68</ele>
        <time>2022-03-22T20:09:34Z</time>
      </trkpt>
      <trkpt lat="45.25821" lon="4.20074">
        <ele>748.12</ele>
        <time>2022-03-22T20:09:37Z</time>
      </trkpt>
      <trkpt lat="45.25837" lon="4.20054">
        <ele>747.19</ele>
        <time>2022-03-22T20:09:41Z</time>
      </trkpt>
      <trkpt lat="45.25895" lon="4.20004">
        <ele>747.86</ele>
        <time>2022-03-22T20:09:44Z</time>
      </trkpt>
      <trkpt lat="45.25949" lon="4.19963">
        <ele>749.26</ele>
        <time>2022-03-22T20:09:47Z</time>
      </trkpt>
      <trkpt lat="45.25984" lon="4.1994">
        <ele>749.77</ele>
        <time>2022-03-22T20:09:51Z</time>
      </trkpt>
      <trkpt lat="45.26009" lon="4.19927">
        <ele>748.36</ele>
        <time>2022-03-22T20:09:54Z</time>
      </trkpt>
      <trkpt lat="45.26059" lon="4.19915">
        <ele>747.74</ele>
        <time>2022-03-22T20:09:57Z</time>
      </trkpt>
      <trkpt lat="45.26076" lon="4.19913">
        <ele>747.55</ele>
        <time>2022-03-22T20:10:00Z</time>
      </trkpt>
      <trkpt lat="45.26097" lon="4.19914">
        <ele>747.25</ele>
        <time>2022-03-22T20:10:04Z</time>
      </trkpt>
      <trkpt lat="45.26175" lon="4.19923">
        <ele>739.93</ele>
        <time>2022-03-22T20:10:07Z</time>
      </trkpt>
      <trkpt lat="45.26356" lon="4.19951">
        <ele>724.07</ele>
        <time>2022-03-22T20:10:10Z</time>
      </trkpt>
      <trkpt lat="45.26428" lon="4.19964">
        <ele>722.03</ele>
        <time>2022-03-22T20:10:14Z</time>
      </trkpt>
      <trkpt lat="45.26531" lon="4.19979">
        <ele>716.93</ele>
        <time>2022-03-22T20:10:17Z</time>
      </trkpt>
      <trkpt lat="45.26553" lon="4.19981">
        <ele>716.66</ele>
        <time>2022-03-22T20:10:20Z</time>
      </trkpt>
      <trkpt lat="45.26574" lon="4.19979">
        <ele>713.12</ele>
        <time>2022-03-22T20:10:23Z</time>
      </trkpt>
      <trkpt lat="45.266" lon="4.19973">
        <ele>709.82</ele>
        <time>2022-03-22T20:10:27Z</time>
      </trkpt>
      <trkpt lat="45.26626" lon="4.19964">
        <ele>708.41</ele>
        <time>2022-03-22T20:10:30Z</time>
      </trkpt>
      <trkpt lat="45.26651" lon="4.19951">
        <ele>708.15</ele>
        <time>2022-03-22T20:10:33Z</time>
      </trkpt>
      <trkpt lat="45.26676" lon="4.19934">
        <ele>709.62</ele>
        <time>2022-03-22T20:10:37Z</time>
      </trkpt>
      <trkpt lat="45.26695" lon="4.19917">
        <ele>711.03</ele>
        <time>2022-03-22T20:10:40Z</time>
      </trkpt>
      <trkpt lat="45.26726" lon="4.1988">
        <ele>714</ele>
        <time>2022-03-22T20:10:43Z</time>
      </trkpt>
      <trkpt lat="45.26741" lon="4.19856">
        <ele>715.99</ele>
        <time>2022-03-22T20:10:46Z</time>
      </trkpt>
      <trkpt lat="45.268" lon="4.19732">
        <ele>727.1</ele>
        <time>2022-03-22T20:10:50Z</time>
      </trkpt>
      <trkpt lat="45.26827" lon="4.19692">
        <ele>728.34</ele>
        <time>2022-03-22T20:10:53Z</time>
      </trkpt>
      <trkpt lat="45.26843" lon="4.19671">
        <ele>728.41</ele>
        <time>2022-03-22T20:10:56Z</time>
      </trkpt>
      <trkpt lat="45.26863" lon="4.19651">
        <ele>729.03</ele>
        <time>2022-03-22T20:11:00Z</time>
      </trkpt>
      <trkpt lat="45.26962" lon="4.19572">
        <ele>721.79</ele>
        <time>2022-03-22T20:11:03Z</time>
      </trkpt>
      <trkpt lat="45.27006" lon="4.19541">
        <ele>725.1</ele>
        <time>2022-03-22T20:11:06Z</time>
      </trkpt>
      <trkpt lat="45.27042" lon="4.19505">
        <ele>726.02</ele>
        <time>2022-03-22T20:11:09Z</time>
      </trkpt>
      <trkpt lat="45.27065" lon="4.19472">
        <ele>727.04</ele>
        <time>2022-03-22T20:11:13Z</time>
      </trkpt>
      <trkpt lat="45.27147" lon="4.19327">
        <ele>733.93</ele>
        <time>2022-03-22T20:11:16Z</time>
      </trkpt>
      <trkpt lat="45.27218" lon="4.19197">
        <ele>736.05</ele>
        <time>2022-03-22T20:11:19Z</time>
      </trkpt>
      <trkpt lat="45.27295" lon="4.1906">
        <ele>733.76</ele>
        <time>2022-03-22T20:11:22Z</time>
      </trkpt>
      <trkpt lat="45.27327" lon="4.18984">
        <ele>730.16</ele>
        <time>2022-03-22T20:11:26Z</time>
      </trkpt>
      <trkpt lat="45.27341" lon="4.18941">
        <ele>727.29</ele>
        <time>2022-03-22T20:11:29Z</time>
      </trkpt>
      <trkpt lat="45.27351" lon="4.18903">
        <ele>725.89</ele>
        <time>2022-03-22T20:11:32Z</time>
      </trkpt>
      <trkpt lat="45.27396" lon="4.18612">
        <ele>718.86</ele>
        <time>2022-03-22T20:11:36Z</time>
      </trkpt>
      <trkpt lat="45.27407" lon="4.18565">
        <ele>714.75</ele>
        <time>2022-03-22T20:11:39Z</time>
      </trkpt>
      <trkpt lat="45.27415" lon="4.18533">
        <ele>713.98</ele>
        <time>2022-03-22T20:11:42Z</time>
      </trkpt>
      <trkpt lat="45.27424" lon="4.18506">
        <ele>713.2</ele>
        <time>2022-03-22T20:11:45Z</time>
      </trkpt>
      <trkpt lat="45.27436" lon="4.18477">
        <ele>712.37</ele>
        <time>2022-03-22T20:11:49Z</time>
      </trkpt>
      <trkpt lat="45.27449" lon="4.18445">
        <ele>710.56</ele>
        <time>2022-03-22T20:11:52Z</time>
      </trkpt>
      <trkpt lat="45.27474" lon="4.18402">
        <ele>707.5</ele>
        <time>2022-03-22T20:11:55Z</time>
      </trkpt>
      <trkpt lat="45.27501" lon="4.18373">
        <ele>705.82</ele>
        <time>2022-03-22T20:11:59Z</time>
      </trkpt>
      <trkpt lat="45.2753" lon="4.18347">
        <ele>703.45</ele>
        <time>2022-03-22T20:12:02Z</time>
      </trkpt>
      <trkpt lat="45.27563" lon="4.18328">
        <ele>701.95</ele>
        <time>2022-03-22T20:12:05Z</time>
      </trkpt>
      <trkpt lat="45.27603" lon="4.1831">
        <ele>700</ele>
        <time>2022-03-22T20:12:08Z</time>
      </trkpt>
      <trkpt lat="45.27621" lon="4.18305">
        <ele>699.64</ele>
        <time>2022-03-22T20:12:12Z</time>
      </trkpt>
      <trkpt lat="45.27666" lon="4.18298">
        <ele>697.04</ele>
        <time>2022-03-22T20:12:15Z</time>
      </trkpt>
      <trkpt lat="45.27935" lon="4.18292">
        <ele>680.4</ele>
        <time>2022-03-22T20:12:18Z</time>
      </trkpt>
      <trkpt lat="45.27982" lon="4.18288">
        <ele>675.97</ele>
        <time>2022-03-22T20:12:22Z</time>
      </trkpt>
      <trkpt lat="45.27996" lon="4.18287">
        <ele>675.23</ele>
        <time>2022-03-22T20:12:25Z</time>
      </trkpt>
      <trkpt lat="45.2805" lon="4.18277">
        <ele>672.92</ele>
        <time>2022-03-22T20:12:28Z</time>
      </trkpt>
      <trkpt lat="45.28073" lon="4.18268">
        <ele>672.52</ele>
        <time>2022-03-22T20:12:31Z</time>
      </trkpt>
      <trkpt lat="45.28091" lon="4.18258">
        <ele>672.28</ele>
        <time>2022-03-22T20:12:35Z</time>
      </trkpt>
      <trkpt lat="45.28112" lon="4.18242">
        <ele>671.38</ele>
        <time>2022-03-22T20:12:38Z</time>
      </trkpt>
      <trkpt lat="45.2817" lon="4.18186">
        <ele>665.18</ele>
        <time>2022-03-22T20:12:41Z</time>
      </trkpt>
      <trkpt lat="45.28202" lon="4.1814">
        <ele>660.79</ele>
        <time>2022-03-22T20:12:45Z</time>
      </trkpt>
      <trkpt lat="45.28209" lon="4.18133">
        <ele>660.14</ele>
        <time>2022-03-22T20:12:48Z</time>
      </trkpt>
      <trkpt lat="45.28216" lon="4.18129">
        <ele>659.77</ele>
        <time>2022-03-22T20:12:50Z</time>
      </trkpt>
      <trkpt lat="45.2822" lon="4.18122">
        <ele>659.4</ele>
        <time>2022-03-22T20:12:52Z</time>
      </trkpt>
      <trkpt lat="45.28223" lon="4.18112">
        <ele>658.98</ele>
        <time>2022-03-22T20:12:54Z</time>
      </trkpt>
      <trkpt lat="45.2823" lon="4.18095">
        <ele>657.13</ele>
        <time>2022-03-22T20:12:56Z</time>
      </trkpt>
      <trkpt lat="45.28242" lon="4.18077">
        <ele>655</ele>
        <time>2022-03-22T20:12:58Z</time>
      </trkpt>
      <trkpt lat="45.28296" lon="4.18009">
        <ele>652.69</ele>
        <time>2022-03-22T20:13:01Z</time>
      </trkpt>
      <trkpt lat="45.28314" lon="4.17993">
        <ele>652.5</ele>
        <time>2022-03-22T20:13:03Z</time>
      </trkpt>
      <trkpt lat="45.28331" lon="4.1798">
        <ele>651.85</ele>
        <time>2022-03-22T20:13:05Z</time>
      </trkpt>
      <trkpt lat="45.28336" lon="4.17982">
        <ele>651.66</ele>
        <time>2022-03-22T20:13:07Z</time>
      </trkpt>
      <trkpt lat="45.28342" lon="4.17981">
        <ele>651.69</ele>
        <time>2022-03-22T20:13:09Z</time>
      </trkpt>
      <trkpt lat="45.28348" lon="4.17977">
        <ele>651.83</ele>
        <time>2022-03-22T20:13:11Z</time>
      </trkpt>
      <trkpt lat="45.28352" lon="4.17971">
        <ele>652.04</ele>
        <time>2022-03-22T20:13:13Z</time>
      </trkpt>
      <trkpt lat="45.28354" lon="4.17963">
        <ele>652.17</ele>
        <time>2022-03-22T20:13:15Z</time>
      </trkpt>
      <trkpt lat="45.28354" lon="4.17948">
        <ele>652.46</ele>
        <time>2022-03-22T20:13:17Z</time>
      </trkpt>
      <trkpt lat="45.28351" lon="4.17942">
        <ele>652.74</ele>
        <time>2022-03-22T20:13:19Z</time>
      </trkpt>
      <trkpt lat="45.28346" lon="4.17935">
        <ele>653.26</ele>
        <time>2022-03-22T20:13:22Z</time>
      </trkpt>
      <trkpt lat="45.28341" lon="4.17932">
        <ele>653.77</ele>
        <time>2022-03-22T20:13:24Z</time>
      </trkpt>
      <trkpt lat="45.2833" lon="4.17934">
        <ele>654.53</ele>
        <time>2022-03-22T20:13:26Z</time>
      </trkpt>
      <trkpt lat="45.28325" lon="4.17939">
        <ele>654.56</ele>
        <time>2022-03-22T20:13:28Z</time>
      </trkpt>
      <trkpt lat="45.28322" lon="4.17946">
        <ele>654.34</ele>
        <time>2022-03-22T20:13:30Z</time>
      </trkpt>
      <trkpt lat="45.28307" lon="4.17953">
        <ele>654.36</ele>
        <time>2022-03-22T20:13:32Z</time>
      </trkpt>
      <trkpt lat="45.28285" lon="4.17954">
        <ele>654.56</ele>
        <time>2022-03-22T20:13:34Z</time>
      </trkpt>
      <trkpt lat="45.28268" lon="4.17952">
        <ele>654.29</ele>
        <time>2022-03-22T20:13:36Z</time>
      </trkpt>
      <trkpt lat="45.28253" lon="4.17944">
        <ele>654.16</ele>
        <time>2022-03-22T20:13:38Z</time>
      </trkpt>
      <trkpt lat="45.28213" lon="4.17902">
        <ele>653.89</ele>
        <time>2022-03-22T20:13:41Z</time>
      </trkpt>
      <trkpt lat="45.28184" lon="4.17868">
        <ele>651.52</ele>
        <time>2022-03-22T20:13:43Z</time>
      </trkpt>
      <trkpt lat="45.28172" lon="4.17848">
        <ele>650.41</ele>
        <time>2022-03-22T20:13:45Z</time>
      </trkpt>
      <trkpt lat="45.28151" lon="4.17795">
        <ele>649.58</ele>
        <time>2022-03-22T20:13:47Z</time>
      </trkpt>
      <trkpt lat="45.28126" lon="4.17738">
        <ele>646.58</ele>
        <time>2022-03-22T20:13:49Z</time>
      </trkpt>
      <trkpt lat="45.28079" lon="4.17572">
        <ele>643.2</ele>
        <time>2022-03-22T20:13:51Z</time>
      </trkpt>
      <trkpt lat="45.2793" lon="4.16997">
        <ele>617.73</ele>
        <time>2022-03-22T20:13:53Z</time>
      </trkpt>
      <trkpt lat="45.27901" lon="4.16851">
        <ele>610.2</ele>
        <time>2022-03-22T20:13:56Z</time>
      </trkpt>
      <trkpt lat="45.27869" lon="4.16704">
        <ele>602.9</ele>
        <time>2022-03-22T20:13:58Z</time>
      </trkpt>
      <trkpt lat="45.27852" lon="4.16631">
        <ele>605.52</ele>
        <time>2022-03-22T20:14:01Z</time>
      </trkpt>
      <trkpt lat="45.27848" lon="4.16605">
        <ele>606.09</ele>
        <time>2022-03-22T20:14:03Z</time>
      </trkpt>
      <trkpt lat="45.27846" lon="4.16583">
        <ele>606.63</ele>
        <time>2022-03-22T20:14:06Z</time>
      </trkpt>
      <trkpt lat="45.27847" lon="4.16562">
        <ele>607.68</ele>
        <time>2022-03-22T20:14:08Z</time>
      </trkpt>
      <trkpt lat="45.2785" lon="4.1654">
        <ele>607.58</ele>
        <time>2022-03-22T20:14:11Z</time>
      </trkpt>
      <trkpt lat="45.27861" lon="4.16499">
        <ele>606.06</ele>
        <time>2022-03-22T20:14:13Z</time>
      </trkpt>
      <trkpt lat="45.27871" lon="4.16477">
        <ele>605.91</ele>
        <time>2022-03-22T20:14:16Z</time>
      </trkpt>
      <trkpt lat="45.27888" lon="4.1645">
        <ele>605.49</ele>
        <time>2022-03-22T20:14:18Z</time>
      </trkpt>
      <trkpt lat="45.27912" lon="4.16421">
        <ele>605.08</ele>
        <time>2022-03-22T20:14:21Z</time>
      </trkpt>
      <trkpt lat="45.27992" lon="4.16376">
        <ele>606.76</ele>
        <time>2022-03-22T20:14:26Z</time>
      </trkpt>
      <trkpt lat="45.28043" lon="4.16334">
        <ele>605.34</ele>
        <time>2022-03-22T20:14:32Z</time>
      </trkpt>
      <trkpt lat="45.28058" lon="4.16316">
        <ele>605.24</ele>
        <time>2022-03-22T20:14:38Z</time>
      </trkpt>
      <trkpt lat="45.28094" lon="4.16262">
        <ele>607.04</ele>
        <time>2022-03-22T20:14:43Z</time>
      </trkpt>
      <trkpt lat="45.281" lon="4.16261">
        <ele>606.76</ele>
        <time>2022-03-22T20:14:47Z</time>
      </trkpt>
      <trkpt lat="45.28107" lon="4.16257">
        <ele>606.4</ele>
        <time>2022-03-22T20:14:51Z</time>
      </trkpt>
      <trkpt lat="45.28113" lon="4.16246">
        <ele>605.52</ele>
        <time>2022-03-22T20:14:55Z</time>
      </trkpt>
      <trkpt lat="45.28116" lon="4.16233">
        <ele>604.46</ele>
        <time>2022-03-22T20:14:58Z</time>
      </trkpt>
      <trkpt lat="45.28115" lon="4.16224">
        <ele>603.94</ele>
        <time>2022-03-22T20:15:02Z</time>
      </trkpt>
      <trkpt lat="45.28113" lon="4.16216">
        <ele>603.93</ele>
        <time>2022-03-22T20:15:06Z</time>
      </trkpt>
      <trkpt lat="45.28116" lon="4.16193">
        <ele>603.82</ele>
        <time>2022-03-22T20:15:10Z</time>
      </trkpt>
      <trkpt lat="45.28123" lon="4.16168">
        <ele>603.57</ele>
        <time>2022-03-22T20:15:14Z</time>
      </trkpt>
      <trkpt lat="45.28164" lon="4.16069">
        <ele>599.11</ele>
        <time>2022-03-22T20:15:17Z</time>
      </trkpt>
      <trkpt lat="45.28198" lon="4.16013">
        <ele>594.48</ele>
        <time>2022-03-22T20:15:21Z</time>
      </trkpt>
      <trkpt lat="45.2832" lon="4.15834">
        <ele>583.02</ele>
        <time>2022-03-22T20:15:25Z</time>
      </trkpt>
      <trkpt lat="45.28354" lon="4.15788">
        <ele>580.63</ele>
        <time>2022-03-22T20:15:29Z</time>
      </trkpt>
      <trkpt lat="45.28387" lon="4.15752">
        <ele>581</ele>
        <time>2022-03-22T20:15:33Z</time>
      </trkpt>
      <trkpt lat="45.28435" lon="4.15712">
        <ele>574.33</ele>
        <time>2022-03-22T20:15:37Z</time>
      </trkpt>
      <trkpt lat="45.28473" lon="4.15686">
        <ele>572</ele>
        <time>2022-03-22T20:15:40Z</time>
      </trkpt>
      <trkpt lat="45.28581" lon="4.15621">
        <ele>572.09</ele>
        <time>2022-03-22T20:15:44Z</time>
      </trkpt>
      <trkpt lat="45.28721" lon="4.15542">
        <ele>566.77</ele>
        <time>2022-03-22T20:15:48Z</time>
      </trkpt>
      <trkpt lat="45.28768" lon="4.15523">
        <ele>562.31</ele>
        <time>2022-03-22T20:15:52Z</time>
      </trkpt>
      <trkpt lat="45.28776" lon="4.15527">
        <ele>562.02</ele>
        <time>2022-03-22T20:15:58Z</time>
      </trkpt>
      <trkpt lat="45.28782" lon="4.15526">
        <ele>562.46</ele>
        <time>2022-03-22T20:16:04Z</time>
      </trkpt>
      <trkpt lat="45.28788" lon="4.1552">
        <ele>563.28</ele>
        <time>2022-03-22T20:16:10Z</time>
      </trkpt>
      <trkpt lat="45.2879" lon="4.15511">
        <ele>564.1</ele>
        <time>2022-03-22T20:16:17Z</time>
      </trkpt>
      <trkpt lat="45.28801" lon="4.15498">
        <ele>565.76</ele>
        <time>2022-03-22T20:16:23Z</time>
      </trkpt>
      <trkpt lat="45.28845" lon="4.15467">
        <ele>562.05</ele>
        <time>2022-03-22T20:16:29Z</time>
      </trkpt>
      <trkpt lat="45.28881" lon="4.15448">
        <ele>558.67</ele>
        <time>2022-03-22T20:16:35Z</time>
      </trkpt>
      <trkpt lat="45.28908" lon="4.15431">
        <ele>558.12</ele>
        <time>2022-03-22T20:16:41Z</time>
      </trkpt>
      <trkpt lat="45.28939" lon="4.15399">
        <ele>556.33</ele>
        <time>2022-03-22T20:16:47Z</time>
      </trkpt>
      <trkpt lat="45.28965" lon="4.15366">
        <ele>555.13</ele>
        <time>2022-03-22T20:16:54Z</time>
      </trkpt>
      <trkpt lat="45.28981" lon="4.15336">
        <ele>556.26</ele>
        <time>2022-03-22T20:17:00Z</time>
      </trkpt>
      <trkpt lat="45.29001" lon="4.15287">
        <ele>553.34</ele>
        <time>2022-03-22T20:17:06Z</time>
      </trkpt>
      <trkpt lat="45.29049" lon="4.15135">
        <ele>542.21</ele>
        <time>2022-03-22T20:17:12Z</time>
      </trkpt>
      <trkpt lat="45.29152" lon="4.14828">
        <ele>530.53</ele>
        <time>2022-03-22T20:17:18Z</time>
      </trkpt>
      <trkpt lat="45.29165" lon="4.14773">
        <ele>528.19</ele>
        <time>2022-03-22T20:17:25Z</time>
      </trkpt>
      <trkpt lat="45.29173" lon="4.14728">
        <ele>526.7</ele>
        <time>2022-03-22T20:17:31Z</time>
      </trkpt>
      <trkpt lat="45.29179" lon="4.14678">
        <ele>523.88</ele>
        <time>2022-03-22T20:17:37Z</time>
      </trkpt>
      <trkpt lat="45.2918" lon="4.14618">
        <ele>519.93</ele>
        <time>2022-03-22T20:17:43Z</time>
      </trkpt>
      <trkpt lat="45.29177" lon="4.1457">
        <ele>517.51</ele>
        <time>2022-03-22T20:17:49Z</time>
      </trkpt>
      <trkpt lat="45.29176" lon="4.14501">
        <ele>515.39</ele>
        <time>2022-03-22T20:17:56Z</time>
      </trkpt>
      <trkpt lat="45.29178" lon="4.14458">
        <ele>513.42</ele>
        <time>2022-03-22T20:18:02Z</time>
      </trkpt>
      <trkpt lat="45.29187" lon="4.14404">
        <ele>510.65</ele>
        <time>2022-03-22T20:18:08Z</time>
      </trkpt>
      <trkpt lat="45.29199" lon="4.14366">
        <ele>510.3</ele>
        <time>2022-03-22T20:18:14Z</time>
      </trkpt>
      <trkpt lat="45.29316" lon="4.14103">
        <ele>497.44</ele>
        <time>2022-03-22T20:18:20Z</time>
      </trkpt>
      <trkpt lat="45.29421" lon="4.13872">
        <ele>489.66</ele>
        <time>2022-03-22T20:18:26Z</time>
      </trkpt>
      <trkpt lat="45.29455" lon="4.13804">
        <ele>487.29</ele>
        <time>2022-03-22T20:18:33Z</time>
      </trkpt>
      <trkpt lat="45.2948" lon="4.13759">
        <ele>485.6</ele>
        <time>2022-03-22T20:18:39Z</time>
      </trkpt>
      <trkpt lat="45.29712" lon="4.13498">
        <ele>483.79</ele>
        <time>2022-03-22T20:18:45Z</time>
      </trkpt>
      <trkpt lat="45.29733" lon="4.1347">
        <ele>483.76</ele>
        <time>2022-03-22T20:18:51Z</time>
      </trkpt>
      <trkpt lat="45.29756" lon="4.13431">
        <ele>483.94</ele>
        <time>2022-03-22T20:18:57Z</time>
      </trkpt>
      <trkpt lat="45.29775" lon="4.13385">
        <ele>482.54</ele>
        <time>2022-03-22T20:19:04Z</time>
      </trkpt>
      <trkpt lat="45.29791" lon="4.13343">
        <ele>484.57</ele>
        <time>2022-03-22T20:19:10Z</time>
      </trkpt>
      <trkpt lat="45.29802" lon="4.13296">
        <ele>483.15</ele>
        <time>2022-03-22T20:19:16Z</time>
      </trkpt>
      <trkpt lat="45.29807" lon="4.13256">
        <ele>481.92</ele>
        <time>2022-03-22T20:19:22Z</time>
      </trkpt>
      <trkpt lat="45.29813" lon="4.1314">
        <ele>482.19</ele>
        <time>2022-03-22T20:19:28Z</time>
      </trkpt>
      <trkpt lat="45.29834" lon="4.1247">
        <ele>473</ele>
        <time>2022-03-22T20:19:35Z</time>
      </trkpt>
      <trkpt lat="45.29825" lon="4.12406">
        <ele>471.24</ele>
        <time>2022-03-22T20:19:41Z</time>
      </trkpt>
      <trkpt lat="45.29758" lon="4.12201">
        <ele>466.84</ele>
        <time>2022-03-22T20:19:47Z</time>
      </trkpt>
      <trkpt lat="45.29742" lon="4.12155">
        <ele>466.3</ele>
        <time>2022-03-22T20:19:53Z</time>
      </trkpt>
      <trkpt lat="45.29728" lon="4.12127">
        <ele>464.38</ele>
        <time>2022-03-22T20:19:59Z</time>
      </trkpt>
      <trkpt lat="45.29705" lon="4.12103">
        <ele>462.51</ele>
        <time>2022-03-22T20:20:06Z</time>
      </trkpt>
      <trkpt lat="45.2962" lon="4.12024">
        <ele>457.92</ele>
        <time>2022-03-22T20:20:12Z</time>
      </trkpt>
      <trkpt lat="45.29607" lon="4.12006">
        <ele>456.95</ele>
        <time>2022-03-22T20:20:18Z</time>
      </trkpt>
      <trkpt lat="45.29596" lon="4.11987">
        <ele>455</ele>
        <time>2022-03-22T20:20:24Z</time>
      </trkpt>
      <trkpt lat="45.29592" lon="4.11961">
        <ele>453.05</ele>
        <time>2022-03-22T20:20:30Z</time>
      </trkpt>
      <trkpt lat="45.29591" lon="4.11891">
        <ele>446.27</ele>
        <time>2022-03-22T20:20:36Z</time>
      </trkpt>
      <trkpt lat="45.29592" lon="4.11737">
        <ele>446.23</ele>
        <time>2022-03-22T20:20:43Z</time>
      </trkpt>
      <trkpt lat="45.29591" lon="4.11717">
        <ele>449.83</ele>
        <time>2022-03-22T20:20:49Z</time>
      </trkpt>
      <trkpt lat="45.29606" lon="4.11702">
        <ele>452.54</ele>
        <time>2022-03-22T20:20:59Z</time>
      </trkpt>
      <trkpt lat="45.29653" lon="4.11672">
        <ele>453.52</ele>
        <time>2022-03-22T20:21:09Z</time>
      </trkpt>
      <trkpt lat="45.29716" lon="4.11626">
        <ele>450.46</ele>
        <time>2022-03-22T20:21:18Z</time>
      </trkpt>
      <trkpt lat="45.29741" lon="4.11615">
        <ele>450.06</ele>
        <time>2022-03-22T20:21:28Z</time>
      </trkpt>
      <trkpt lat="45.29849" lon="4.11587">
        <ele>454.58</ele>
        <time>2022-03-22T20:21:38Z</time>
      </trkpt>
      <trkpt lat="45.29923" lon="4.11564">
        <ele>453.42</ele>
        <time>2022-03-22T20:21:48Z</time>
      </trkpt>
      <trkpt lat="45.3001" lon="4.11546">
        <ele>450.99</ele>
        <time>2022-03-22T20:21:58Z</time>
      </trkpt>
      <trkpt lat="45.30379" lon="4.11527">
        <ele>447.05</ele>
        <time>2022-03-22T20:22:08Z</time>
      </trkpt>
      <trkpt lat="45.30409" lon="4.11518">
        <ele>447.09</ele>
        <time>2022-03-22T20:22:18Z</time>
      </trkpt>
      <trkpt lat="45.30529" lon="4.11471">
        <ele>450.01</ele>
        <time>2022-03-22T20:22:28Z</time>
      </trkpt>
      <trkpt lat="45.30536" lon="4.11481">
        <ele>448.88</ele>
        <time>2022-03-22T20:22:29Z</time>
      </trkpt>
      <trkpt lat="45.30541" lon="4.11482">
        <ele>448.61</ele>
        <time>2022-03-22T20:22:31Z</time>
      </trkpt>
      <trkpt lat="45.30547" lon="4.11481">
        <ele>448.61</ele>
        <time>2022-03-22T20:22:33Z</time>
      </trkpt>
      <trkpt lat="45.30551" lon="4.11477">
        <ele>448.82</ele>
        <time>2022-03-22T20:22:35Z</time>
      </trkpt>
      <trkpt lat="45.30554" lon="4.11471">
        <ele>449.11</ele>
        <time>2022-03-22T20:22:36Z</time>
      </trkpt>
      <trkpt lat="45.30555" lon="4.11463">
        <ele>449.34</ele>
        <time>2022-03-22T20:22:38Z</time>
      </trkpt>
      <trkpt lat="45.30554" lon="4.11455">
        <ele>449.69</ele>
        <time>2022-03-22T20:22:40Z</time>
      </trkpt>
      <trkpt lat="45.30551" lon="4.11448">
        <ele>450.02</ele>
        <time>2022-03-22T20:22:42Z</time>
      </trkpt>
      <trkpt lat="45.30547" lon="4.11444">
        <ele>450.33</ele>
        <time>2022-03-22T20:22:43Z</time>
      </trkpt>
      <trkpt lat="45.30541" lon="4.11443">
        <ele>450.58</ele>
        <time>2022-03-22T20:22:45Z</time>
      </trkpt>
      <trkpt lat="45.30536" lon="4.11444">
        <ele>450.71</ele>
        <time>2022-03-22T20:22:47Z</time>
      </trkpt>
      <trkpt lat="45.30532" lon="4.11414">
        <ele>451.83</ele>
        <time>2022-03-22T20:22:49Z</time>
      </trkpt>
      <trkpt lat="45.3053" lon="4.11361">
        <ele>451.1</ele>
        <time>2022-03-22T20:22:50Z</time>
      </trkpt>
      <trkpt lat="45.30532" lon="4.11318">
        <ele>451.8</ele>
        <time>2022-03-22T20:22:52Z</time>
      </trkpt>
      <trkpt lat="45.30536" lon="4.11282">
        <ele>454.07</ele>
        <time>2022-03-22T20:22:54Z</time>
      </trkpt>
      <trkpt lat="45.30543" lon="4.11257">
        <ele>456.05</ele>
        <time>2022-03-22T20:22:56Z</time>
      </trkpt>
      <trkpt lat="45.30549" lon="4.11241">
        <ele>457.07</ele>
        <time>2022-03-22T20:22:57Z</time>
      </trkpt>
      <trkpt lat="45.30552" lon="4.1123">
        <ele>457.59</ele>
        <time>2022-03-22T20:22:59Z</time>
      </trkpt>
      <trkpt lat="45.30554" lon="4.11179">
        <ele>458.56</ele>
        <time>2022-03-22T20:23:01Z</time>
      </trkpt>
      <trkpt lat="45.30557" lon="4.11061">
        <ele>460.85</ele>
        <time>2022-03-22T20:23:03Z</time>
      </trkpt>
      <trkpt lat="45.30558" lon="4.11049">
        <ele>461.33</ele>
        <time>2022-03-22T20:23:04Z</time>
      </trkpt>
      <trkpt lat="45.30565" lon="4.11006">
        <ele>463.9</ele>
        <time>2022-03-22T20:23:06Z</time>
      </trkpt>
      <trkpt lat="45.30561" lon="4.10995">
        <ele>464.53</ele>
        <time>2022-03-22T20:23:07Z</time>
      </trkpt>
      <trkpt lat="45.3056" lon="4.10986">
        <ele>465.07</ele>
        <time>2022-03-22T20:23:08Z</time>
      </trkpt>
      <trkpt lat="45.30559" lon="4.10961">
        <ele>466.4</ele>
        <time>2022-03-22T20:23:11Z</time>
      </trkpt>
      <trkpt lat="45.30557" lon="4.10953">
        <ele>466.7</ele>
        <time>2022-03-22T20:23:14Z</time>
      </trkpt>
      <trkpt lat="45.30552" lon="4.10947">
        <ele>466.9</ele>
        <time>2022-03-22T20:23:17Z</time>
      </trkpt>
      <trkpt lat="45.30535" lon="4.10922">
        <ele>468.41</ele>
        <time>2022-03-22T20:23:21Z</time>
      </trkpt>
      <trkpt lat="45.30528" lon="4.10905">
        <ele>469</ele>
        <time>2022-03-22T20:23:24Z</time>
      </trkpt>
      <trkpt lat="45.30522" lon="4.10863">
        <ele>469.95</ele>
        <time>2022-03-22T20:23:27Z</time>
      </trkpt>
      <trkpt lat="45.30509" lon="4.10826">
        <ele>470.08</ele>
        <time>2022-03-22T20:23:30Z</time>
      </trkpt>
      <trkpt lat="45.30498" lon="4.10807">
        <ele>470.09</ele>
        <time>2022-03-22T20:23:33Z</time>
      </trkpt>
      <trkpt lat="45.3047" lon="4.10752">
        <ele>472</ele>
        <time>2022-03-22T20:23:36Z</time>
      </trkpt>
      <trkpt lat="45.30466" lon="4.10739">
        <ele>472.22</ele>
        <time>2022-03-22T20:23:39Z</time>
      </trkpt>
      <trkpt lat="45.30463" lon="4.1072">
        <ele>472.37</ele>
        <time>2022-03-22T20:23:42Z</time>
      </trkpt>
      <trkpt lat="45.30463" lon="4.10705">
        <ele>472.75</ele>
        <time>2022-03-22T20:23:45Z</time>
      </trkpt>
      <trkpt lat="45.30452" lon="4.10696">
        <ele>472.98</ele>
        <time>2022-03-22T20:23:53Z</time>
      </trkpt>
      <trkpt lat="45.30385" lon="4.10625">
        <ele>476.44</ele>
        <time>2022-03-22T20:24:00Z</time>
      </trkpt>
      <trkpt lat="45.30351" lon="4.10686">
        <ele>473.31</ele>
        <time>2022-03-22T20:24:10Z</time>
      </trkpt>
      <trkpt lat="45.3037" lon="4.10706">
        <ele>472.71</ele>
        <time>2022-03-22T20:24:16Z</time>
      </trkpt>
      <trkpt lat="45.30382" lon="4.10723">
        <ele>472.69</ele>
        <time>2022-03-22T20:24:21Z</time>
      </trkpt>
      <trkpt lat="45.30396" lon="4.10791">
        <ele>469.06</ele>
        <time>2022-03-22T20:24:27Z</time>
      </trkpt>
    </trkseg>
  </trk>
</gpx>